<?xml version='1.0' encoding='UTF-8'?><gpx version="1.1" creator="JPX - https://github.com/jenetics/jpx" xmlns="http://www.topografix.com/GPX/1/1"><trk><trkseg><trkpt lat="44.8346118" lon="1.0919647"><ele>65.0</ele><time>2026-03-29T12:18:26.497Z</time></trkpt><trkpt lat="44.8344799" lon="1.0918761"><ele>65.0</ele><time>2026-03-29T12:18:31.422Z</time></trkpt><trkpt lat="44.834415" lon="1.0918497"><ele>65.0</ele><time>2026-03-29T12:18:33.422Z</time></trkpt><trkpt lat="44.8344279" lon="1.0919434"><ele>65.0</ele><time>2026-03-29T12:18:37.355Z</time></trkpt><trkpt lat="44.8344217" lon="1.0920567"><ele>65.0</ele><time>2026-03-29T12:19:11.577Z</time></trkpt><trkpt lat="44.8343267" lon="1.0920533"><ele>64.8</ele><time>2026-03-29T12:19:27.578Z</time></trkpt><trkpt lat="44.8342083" lon="1.0920767"><ele>64.6</ele><time>2026-03-29T12:19:33.577Z</time></trkpt><trkpt lat="44.8341467" lon="1.0921083"><ele>64.4</ele><time>2026-03-29T12:19:35.578Z</time></trkpt><trkpt lat="44.8340867" lon="1.09214"><ele>64.2</ele><time>2026-03-29T12:19:37.578Z</time></trkpt><trkpt lat="44.8339983" lon="1.0922017"><ele>64.0</ele><time>2026-03-29T12:19:39.578Z</time></trkpt><trkpt lat="44.8338983" lon="1.0922783"><ele>63.99999999999999</ele><time>2026-03-29T12:19:41.577Z</time></trkpt><trkpt lat="44.8338067" lon="1.0923883"><ele>64.0</ele><time>2026-03-29T12:19:43.577Z</time></trkpt><trkpt lat="44.8337383" lon="1.0924233"><ele>64.0</ele><time>2026-03-29T12:19:44.578Z</time></trkpt><trkpt lat="44.8336783" lon="1.0924617"><ele>64.0</ele><time>2026-03-29T12:19:45.578Z</time></trkpt><trkpt lat="44.8336167" lon="1.0925167"><ele>63.99999999999999</ele><time>2026-03-29T12:19:46.578Z</time></trkpt><trkpt lat="44.83351" lon="1.0925667"><ele>64.0</ele><time>2026-03-29T12:19:48.577Z</time></trkpt><trkpt lat="44.8333983" lon="1.0925967"><ele>63.800000000000004</ele><time>2026-03-29T12:19:50.577Z</time></trkpt><trkpt lat="44.833295" lon="1.09261"><ele>63.60000000000001</ele><time>2026-03-29T12:19:52.577Z</time></trkpt><trkpt lat="44.8332267" lon="1.092555"><ele>63.4</ele><time>2026-03-29T12:19:54.577Z</time></trkpt><trkpt lat="44.8332333" lon="1.0924333"><ele>63.2</ele><time>2026-03-29T12:19:57.577Z</time></trkpt><trkpt lat="44.83328" lon="1.0923617"><ele>63.0</ele><time>2026-03-29T12:19:59.578Z</time></trkpt><trkpt lat="44.833395" lon="1.0922767"><ele>63.166666666666664</ele><time>2026-03-29T12:20:01.577Z</time></trkpt><trkpt lat="44.8334567" lon="1.0922233"><ele>63.33333333333333</ele><time>2026-03-29T12:20:02.578Z</time></trkpt><trkpt lat="44.8335167" lon="1.092195"><ele>63.5</ele><time>2026-03-29T12:20:03.578Z</time></trkpt><trkpt lat="44.8335867" lon="1.092135"><ele>63.666666666666664</ele><time>2026-03-29T12:20:04.577Z</time></trkpt><trkpt lat="44.8336567" lon="1.09208"><ele>63.83333333333333</ele><time>2026-03-29T12:20:05.577Z</time></trkpt><trkpt lat="44.8337317" lon="1.0920233"><ele>64.0</ele><time>2026-03-29T12:20:06.578Z</time></trkpt><trkpt lat="44.8338183" lon="1.0919517"><ele>63.99999999999999</ele><time>2026-03-29T12:20:07.578Z</time></trkpt><trkpt lat="44.8339067" lon="1.0918783"><ele>64.0</ele><time>2026-03-29T12:20:08.577Z</time></trkpt><trkpt lat="44.8339833" lon="1.09181"><ele>64.0</ele><time>2026-03-29T12:20:09.578Z</time></trkpt><trkpt lat="44.834065" lon="1.0917283"><ele>64.0</ele><time>2026-03-29T12:20:10.578Z</time></trkpt><trkpt lat="44.834135" lon="1.0916667"><ele>63.99999999999999</ele><time>2026-03-29T12:20:11.577Z</time></trkpt><trkpt lat="44.83419" lon="1.09162"><ele>64.0</ele><time>2026-03-29T12:20:12.578Z</time></trkpt><trkpt lat="44.8342783" lon="1.091535"><ele>63.99999999999999</ele><time>2026-03-29T12:20:14.578Z</time></trkpt><trkpt lat="44.834345" lon="1.09149"><ele>64.0</ele><time>2026-03-29T12:20:16.578Z</time></trkpt><trkpt lat="44.83443" lon="1.0914383"><ele>64.0</ele><time>2026-03-29T12:20:18.578Z</time></trkpt><trkpt lat="44.8344933" lon="1.0913883"><ele>64.0</ele><time>2026-03-29T12:20:19.578Z</time></trkpt><trkpt lat="44.8345733" lon="1.0913283"><ele>63.99999999999999</ele><time>2026-03-29T12:20:20.578Z</time></trkpt><trkpt lat="44.8346533" lon="1.09124"><ele>64.0</ele><time>2026-03-29T12:20:21.577Z</time></trkpt><trkpt lat="44.83473" lon="1.091145"><ele>64.0</ele><time>2026-03-29T12:20:22.578Z</time></trkpt><trkpt lat="44.8348117" lon="1.0910583"><ele>64.0</ele><time>2026-03-29T12:20:23.578Z</time></trkpt><trkpt lat="44.8348917" lon="1.0909833"><ele>64.0</ele><time>2026-03-29T12:20:24.578Z</time></trkpt><trkpt lat="44.8349733" lon="1.090895"><ele>64.0</ele><time>2026-03-29T12:20:25.578Z</time></trkpt><trkpt lat="44.8350567" lon="1.0908167"><ele>64.0</ele><time>2026-03-29T12:20:26.578Z</time></trkpt><trkpt lat="44.83514" lon="1.0907483"><ele>64.0</ele><time>2026-03-29T12:20:27.578Z</time></trkpt><trkpt lat="44.8352367" lon="1.0906917"><ele>64.0</ele><time>2026-03-29T12:20:28.578Z</time></trkpt><trkpt lat="44.8353317" lon="1.0906033"><ele>64.0</ele><time>2026-03-29T12:20:29.578Z</time></trkpt><trkpt lat="44.8354283" lon="1.0905283"><ele>64.0</ele><time>2026-03-29T12:20:30.577Z</time></trkpt><trkpt lat="44.8355467" lon="1.0904583"><ele>64.0</ele><time>2026-03-29T12:20:31.578Z</time></trkpt><trkpt lat="44.8356633" lon="1.0903717"><ele>64.0</ele><time>2026-03-29T12:20:32.577Z</time></trkpt><trkpt lat="44.835775" lon="1.09028"><ele>64.0</ele><time>2026-03-29T12:20:33.578Z</time></trkpt><trkpt lat="44.8358817" lon="1.0901983"><ele>64.0</ele><time>2026-03-29T12:20:34.577Z</time></trkpt><trkpt lat="44.8359883" lon="1.0901167"><ele>64.0</ele><time>2026-03-29T12:20:35.578Z</time></trkpt><trkpt lat="44.8361133" lon="1.0900433"><ele>64.0</ele><time>2026-03-29T12:20:36.577Z</time></trkpt><trkpt lat="44.836225" lon="1.0900017"><ele>64.0</ele><time>2026-03-29T12:20:37.578Z</time></trkpt><trkpt lat="44.8363433" lon="1.0899533"><ele>64.0</ele><time>2026-03-29T12:20:38.577Z</time></trkpt><trkpt lat="44.8364483" lon="1.0899067"><ele>64.0</ele><time>2026-03-29T12:20:39.577Z</time></trkpt><trkpt lat="44.8365617" lon="1.08988"><ele>64.0</ele><time>2026-03-29T12:20:40.578Z</time></trkpt><trkpt lat="44.8366817" lon="1.0898567"><ele>64.0</ele><time>2026-03-29T12:20:41.578Z</time></trkpt><trkpt lat="44.8368017" lon="1.089845"><ele>64.0</ele><time>2026-03-29T12:20:42.578Z</time></trkpt><trkpt lat="44.8369217" lon="1.0898517"><ele>63.75</ele><time>2026-03-29T12:20:43.577Z</time></trkpt><trkpt lat="44.8370417" lon="1.0898517"><ele>63.5</ele><time>2026-03-29T12:20:44.577Z</time></trkpt><trkpt lat="44.8371567" lon="1.0898433"><ele>63.25</ele><time>2026-03-29T12:20:45.578Z</time></trkpt><trkpt lat="44.8372767" lon="1.0898367"><ele>63.0</ele><time>2026-03-29T12:20:46.578Z</time></trkpt><trkpt lat="44.8374017" lon="1.08982"><ele>63.0</ele><time>2026-03-29T12:20:47.578Z</time></trkpt><trkpt lat="44.837515" lon="1.0898083"><ele>63.0</ele><time>2026-03-29T12:20:48.578Z</time></trkpt><trkpt lat="44.8376267" lon="1.0898183"><ele>63.0</ele><time>2026-03-29T12:20:49.578Z</time></trkpt><trkpt lat="44.83773" lon="1.08981"><ele>63.0</ele><time>2026-03-29T12:20:50.578Z</time></trkpt><trkpt lat="44.8378183" lon="1.0898017"><ele>63.0</ele><time>2026-03-29T12:20:51.577Z</time></trkpt><trkpt lat="44.8379217" lon="1.08976"><ele>63.5</ele><time>2026-03-29T12:20:52.577Z</time></trkpt><trkpt lat="44.838025" lon="1.0896867"><ele>64.0</ele><time>2026-03-29T12:20:53.577Z</time></trkpt><trkpt lat="44.83812" lon="1.0896033"><ele>64.5</ele><time>2026-03-29T12:20:54.577Z</time></trkpt><trkpt lat="44.8382133" lon="1.089495"><ele>65.0</ele><time>2026-03-29T12:20:55.577Z</time></trkpt><trkpt lat="44.8383067" lon="1.0893983"><ele>65.0</ele><time>2026-03-29T12:20:56.578Z</time></trkpt><trkpt lat="44.8383983" lon="1.0892917"><ele>65.0</ele><time>2026-03-29T12:20:57.578Z</time></trkpt><trkpt lat="44.83849" lon="1.0891783"><ele>65.0</ele><time>2026-03-29T12:20:58.577Z</time></trkpt><trkpt lat="44.83856" lon="1.0890633"><ele>65.0</ele><time>2026-03-29T12:20:59.577Z</time></trkpt><trkpt lat="44.83862" lon="1.0889667"><ele>65.0</ele><time>2026-03-29T12:21:00.577Z</time></trkpt><trkpt lat="44.8386667" lon="1.088885"><ele>64.66666666666667</ele><time>2026-03-29T12:21:01.577Z</time></trkpt><trkpt lat="44.8387067" lon="1.0888117"><ele>64.33333333333334</ele><time>2026-03-29T12:21:02.578Z</time></trkpt><trkpt lat="44.838745" lon="1.088735"><ele>64.0</ele><time>2026-03-29T12:21:03.578Z</time></trkpt><trkpt lat="44.838785" lon="1.088635"><ele>63.66666666666667</ele><time>2026-03-29T12:21:04.577Z</time></trkpt><trkpt lat="44.838825" lon="1.0885533"><ele>63.333333333333336</ele><time>2026-03-29T12:21:05.577Z</time></trkpt><trkpt lat="44.8389117" lon="1.0884417"><ele>63.0</ele><time>2026-03-29T12:21:07.578Z</time></trkpt><trkpt lat="44.8390067" lon="1.0883817"><ele>63.0</ele><time>2026-03-29T12:21:09.577Z</time></trkpt><trkpt lat="44.8390833" lon="1.0883667"><ele>63.0</ele><time>2026-03-29T12:21:11.578Z</time></trkpt><trkpt lat="44.83915" lon="1.0883033"><ele>63.0</ele><time>2026-03-29T12:21:13.578Z</time></trkpt><trkpt lat="44.8392" lon="1.0882333"><ele>63.0</ele><time>2026-03-29T12:21:14.577Z</time></trkpt><trkpt lat="44.8392433" lon="1.0881267"><ele>63.0</ele><time>2026-03-29T12:21:15.578Z</time></trkpt><trkpt lat="44.8393067" lon="1.0879917"><ele>63.0</ele><time>2026-03-29T12:21:16.578Z</time></trkpt><trkpt lat="44.83939" lon="1.0878583"><ele>63.0</ele><time>2026-03-29T12:21:17.577Z</time></trkpt><trkpt lat="44.8394867" lon="1.0877317"><ele>63.0</ele><time>2026-03-29T12:21:18.577Z</time></trkpt><trkpt lat="44.8395883" lon="1.087585"><ele>63.0</ele><time>2026-03-29T12:21:19.578Z</time></trkpt><trkpt lat="44.839725" lon="1.087475"><ele>63.0</ele><time>2026-03-29T12:21:20.578Z</time></trkpt><trkpt lat="44.83986" lon="1.087355"><ele>62.33333333333333</ele><time>2026-03-29T12:21:21.577Z</time></trkpt><trkpt lat="44.8399967" lon="1.087245"><ele>61.666666666666664</ele><time>2026-03-29T12:21:22.578Z</time></trkpt><trkpt lat="44.8401283" lon="1.0871333"><ele>61.0</ele><time>2026-03-29T12:21:23.578Z</time></trkpt><trkpt lat="44.8402583" lon="1.0870067"><ele>62.33333333333333</ele><time>2026-03-29T12:21:24.577Z</time></trkpt><trkpt lat="44.8403967" lon="1.08688"><ele>63.66666666666667</ele><time>2026-03-29T12:21:25.577Z</time></trkpt><trkpt lat="44.840515" lon="1.08675"><ele>65.0</ele><time>2026-03-29T12:21:26.577Z</time></trkpt><trkpt lat="44.8406417" lon="1.08662"><ele>65.0</ele><time>2026-03-29T12:21:27.577Z</time></trkpt><trkpt lat="44.8407783" lon="1.0864767"><ele>65.0</ele><time>2026-03-29T12:21:28.578Z</time></trkpt><trkpt lat="44.8409117" lon="1.0863333"><ele>65.0</ele><time>2026-03-29T12:21:29.577Z</time></trkpt><trkpt lat="44.84105" lon="1.0861583"><ele>65.0</ele><time>2026-03-29T12:21:30.577Z</time></trkpt><trkpt lat="44.841205" lon="1.0859983"><ele>65.0</ele><time>2026-03-29T12:21:31.578Z</time></trkpt><trkpt lat="44.8413617" lon="1.0858033"><ele>65.0</ele><time>2026-03-29T12:21:32.578Z</time></trkpt><trkpt lat="44.841515" lon="1.08556"><ele>64.5</ele><time>2026-03-29T12:21:33.578Z</time></trkpt><trkpt lat="44.8416783" lon="1.0853217"><ele>64.0</ele><time>2026-03-29T12:21:34.577Z</time></trkpt><trkpt lat="44.84182" lon="1.085065"><ele>63.33333333333333</ele><time>2026-03-29T12:21:35.577Z</time></trkpt><trkpt lat="44.8419567" lon="1.08481"><ele>62.66666666666667</ele><time>2026-03-29T12:21:36.578Z</time></trkpt><trkpt lat="44.8420867" lon="1.0845633"><ele>62.0</ele><time>2026-03-29T12:21:37.577Z</time></trkpt><trkpt lat="44.8422017" lon="1.0843133"><ele>61.66666666666667</ele><time>2026-03-29T12:21:38.577Z</time></trkpt><trkpt lat="44.8423083" lon="1.0840917"><ele>61.33333333333333</ele><time>2026-03-29T12:21:39.578Z</time></trkpt><trkpt lat="44.8424" lon="1.08391"><ele>61.0</ele><time>2026-03-29T12:21:40.577Z</time></trkpt><trkpt lat="44.8424933" lon="1.08374"><ele>61.0</ele><time>2026-03-29T12:21:41.577Z</time></trkpt><trkpt lat="44.8425967" lon="1.0836033"><ele>61.0</ele><time>2026-03-29T12:21:42.577Z</time></trkpt><trkpt lat="44.8427317" lon="1.08346"><ele>61.0</ele><time>2026-03-29T12:21:43.578Z</time></trkpt><trkpt lat="44.84289" lon="1.0833933"><ele>61.33333333333333</ele><time>2026-03-29T12:21:44.578Z</time></trkpt><trkpt lat="44.8430633" lon="1.0833317"><ele>61.66666666666667</ele><time>2026-03-29T12:21:45.577Z</time></trkpt><trkpt lat="44.8432367" lon="1.083285"><ele>62.0</ele><time>2026-03-29T12:21:46.577Z</time></trkpt><trkpt lat="44.8434267" lon="1.08328"><ele>61.66666666666667</ele><time>2026-03-29T12:21:47.578Z</time></trkpt><trkpt lat="44.843595" lon="1.083265"><ele>61.33333333333333</ele><time>2026-03-29T12:21:48.578Z</time></trkpt><trkpt lat="44.843765" lon="1.0832267"><ele>61.0</ele><time>2026-03-29T12:21:49.578Z</time></trkpt><trkpt lat="44.8439317" lon="1.0831667"><ele>61.0</ele><time>2026-03-29T12:21:50.578Z</time></trkpt><trkpt lat="44.8440867" lon="1.08305"><ele>61.0</ele><time>2026-03-29T12:21:51.578Z</time></trkpt><trkpt lat="44.8442033" lon="1.0829083"><ele>61.0</ele><time>2026-03-29T12:21:52.578Z</time></trkpt><trkpt lat="44.8443217" lon="1.08277"><ele>61.25</ele><time>2026-03-29T12:21:53.578Z</time></trkpt><trkpt lat="44.8444217" lon="1.0826367"><ele>61.5</ele><time>2026-03-29T12:21:54.578Z</time></trkpt><trkpt lat="44.844515" lon="1.0825217"><ele>61.75</ele><time>2026-03-29T12:21:55.578Z</time></trkpt><trkpt lat="44.8445917" lon="1.0824217"><ele>62.0</ele><time>2026-03-29T12:21:56.577Z</time></trkpt><trkpt lat="44.84474" lon="1.0822767"><ele>62.16666666666667</ele><time>2026-03-29T12:21:58.577Z</time></trkpt><trkpt lat="44.8448117" lon="1.0821917"><ele>62.333333333333336</ele><time>2026-03-29T12:22:00.577Z</time></trkpt><trkpt lat="44.8448467" lon="1.0821033"><ele>62.5</ele><time>2026-03-29T12:22:01.577Z</time></trkpt><trkpt lat="44.844875" lon="1.0820217"><ele>62.66666666666667</ele><time>2026-03-29T12:22:02.578Z</time></trkpt><trkpt lat="44.8449183" lon="1.081935"><ele>62.833333333333336</ele><time>2026-03-29T12:22:03.577Z</time></trkpt><trkpt lat="44.84497" lon="1.0818583"><ele>63.0</ele><time>2026-03-29T12:22:04.578Z</time></trkpt><trkpt lat="44.8450567" lon="1.081805"><ele>63.0</ele><time>2026-03-29T12:22:05.577Z</time></trkpt><trkpt lat="44.8451783" lon="1.08176"><ele>63.0</ele><time>2026-03-29T12:22:06.578Z</time></trkpt><trkpt lat="44.8453167" lon="1.0816933"><ele>63.0</ele><time>2026-03-29T12:22:07.578Z</time></trkpt><trkpt lat="44.84545" lon="1.081595"><ele>63.0</ele><time>2026-03-29T12:22:08.578Z</time></trkpt><trkpt lat="44.845575" lon="1.0814683"><ele>63.0</ele><time>2026-03-29T12:22:09.577Z</time></trkpt><trkpt lat="44.845695" lon="1.0813333"><ele>63.0</ele><time>2026-03-29T12:22:10.577Z</time></trkpt><trkpt lat="44.84582" lon="1.081185"><ele>63.0</ele><time>2026-03-29T12:22:11.578Z</time></trkpt><trkpt lat="44.84597" lon="1.0810417"><ele>63.0</ele><time>2026-03-29T12:22:12.577Z</time></trkpt><trkpt lat="44.8460983" lon="1.0809017"><ele>63.0</ele><time>2026-03-29T12:22:13.577Z</time></trkpt><trkpt lat="44.8462317" lon="1.080745"><ele>63.0</ele><time>2026-03-29T12:22:14.578Z</time></trkpt><trkpt lat="44.8463683" lon="1.0805933"><ele>62.66666666666667</ele><time>2026-03-29T12:22:15.577Z</time></trkpt><trkpt lat="44.846505" lon="1.080435"><ele>62.333333333333336</ele><time>2026-03-29T12:22:16.577Z</time></trkpt><trkpt lat="44.8466467" lon="1.0802733"><ele>62.0</ele><time>2026-03-29T12:22:17.577Z</time></trkpt><trkpt lat="44.8467933" lon="1.080115"><ele>62.66666666666667</ele><time>2026-03-29T12:22:18.578Z</time></trkpt><trkpt lat="44.84694" lon="1.0799583"><ele>63.33333333333333</ele><time>2026-03-29T12:22:19.577Z</time></trkpt><trkpt lat="44.8470867" lon="1.0798117"><ele>64.0</ele><time>2026-03-29T12:22:20.577Z</time></trkpt><trkpt lat="44.847235" lon="1.0796483"><ele>64.0</ele><time>2026-03-29T12:22:21.578Z</time></trkpt><trkpt lat="44.847375" lon="1.0795017"><ele>64.0</ele><time>2026-03-29T12:22:22.578Z</time></trkpt><trkpt lat="44.8475067" lon="1.0793767"><ele>64.0</ele><time>2026-03-29T12:22:23.578Z</time></trkpt><trkpt lat="44.847635" lon="1.079245"><ele>63.666666666666664</ele><time>2026-03-29T12:22:24.577Z</time></trkpt><trkpt lat="44.84776" lon="1.0791133"><ele>63.33333333333333</ele><time>2026-03-29T12:22:25.578Z</time></trkpt><trkpt lat="44.8478933" lon="1.0789633"><ele>63.0</ele><time>2026-03-29T12:22:26.578Z</time></trkpt><trkpt lat="44.8480267" lon="1.0788033"><ele>62.66666666666667</ele><time>2026-03-29T12:22:27.578Z</time></trkpt><trkpt lat="44.8481633" lon="1.0786633"><ele>62.333333333333336</ele><time>2026-03-29T12:22:28.577Z</time></trkpt><trkpt lat="44.84831" lon="1.0785317"><ele>62.0</ele><time>2026-03-29T12:22:29.578Z</time></trkpt><trkpt lat="44.8484483" lon="1.0784033"><ele>62.333333333333336</ele><time>2026-03-29T12:22:30.578Z</time></trkpt><trkpt lat="44.8485817" lon="1.0782467"><ele>62.66666666666667</ele><time>2026-03-29T12:22:31.577Z</time></trkpt><trkpt lat="44.8487017" lon="1.078065"><ele>63.0</ele><time>2026-03-29T12:22:32.578Z</time></trkpt><trkpt lat="44.848855" lon="1.07791"><ele>63.0</ele><time>2026-03-29T12:22:33.578Z</time></trkpt><trkpt lat="44.8490083" lon="1.077755"><ele>63.0</ele><time>2026-03-29T12:22:34.577Z</time></trkpt><trkpt lat="44.849155" lon="1.0776033"><ele>63.0</ele><time>2026-03-29T12:22:35.578Z</time></trkpt><trkpt lat="44.84931" lon="1.0774433"><ele>62.66666666666667</ele><time>2026-03-29T12:22:36.577Z</time></trkpt><trkpt lat="44.8494583" lon="1.0772833"><ele>62.333333333333336</ele><time>2026-03-29T12:22:37.577Z</time></trkpt><trkpt lat="44.849595" lon="1.07711"><ele>62.0</ele><time>2026-03-29T12:22:38.578Z</time></trkpt><trkpt lat="44.8497367" lon="1.0769733"><ele>62.0</ele><time>2026-03-29T12:22:39.578Z</time></trkpt><trkpt lat="44.8498733" lon="1.0768183"><ele>62.0</ele><time>2026-03-29T12:22:40.577Z</time></trkpt><trkpt lat="44.8500067" lon="1.0766517"><ele>62.0</ele><time>2026-03-29T12:22:41.577Z</time></trkpt><trkpt lat="44.8501517" lon="1.0764833"><ele>62.333333333333336</ele><time>2026-03-29T12:22:42.578Z</time></trkpt><trkpt lat="44.8503017" lon="1.076315"><ele>62.66666666666667</ele><time>2026-03-29T12:22:43.577Z</time></trkpt><trkpt lat="44.85045" lon="1.07615"><ele>63.0</ele><time>2026-03-29T12:22:44.578Z</time></trkpt><trkpt lat="44.8505967" lon="1.0759917"><ele>63.0</ele><time>2026-03-29T12:22:45.578Z</time></trkpt><trkpt lat="44.850735" lon="1.0758517"><ele>63.0</ele><time>2026-03-29T12:22:46.577Z</time></trkpt><trkpt lat="44.8508733" lon="1.0757"><ele>63.0</ele><time>2026-03-29T12:22:47.578Z</time></trkpt><trkpt lat="44.8510117" lon="1.0755583"><ele>63.25</ele><time>2026-03-29T12:22:48.577Z</time></trkpt><trkpt lat="44.851135" lon="1.0754317"><ele>63.5</ele><time>2026-03-29T12:22:49.577Z</time></trkpt><trkpt lat="44.8512433" lon="1.0753117"><ele>63.75</ele><time>2026-03-29T12:22:50.578Z</time></trkpt><trkpt lat="44.8513267" lon="1.0752117"><ele>64.0</ele><time>2026-03-29T12:22:51.578Z</time></trkpt><trkpt lat="44.8513983" lon="1.075115"><ele>63.99999999999999</ele><time>2026-03-29T12:22:52.577Z</time></trkpt><trkpt lat="44.851465" lon="1.0750083"><ele>64.0</ele><time>2026-03-29T12:22:53.578Z</time></trkpt><trkpt lat="44.8515283" lon="1.074925"><ele>64.0</ele><time>2026-03-29T12:22:54.577Z</time></trkpt><trkpt lat="44.8515683" lon="1.0748483"><ele>64.0</ele><time>2026-03-29T12:22:55.578Z</time></trkpt><trkpt lat="44.8516333" lon="1.0747383"><ele>63.99999999999999</ele><time>2026-03-29T12:22:57.578Z</time></trkpt><trkpt lat="44.8516733" lon="1.0746283"><ele>64.0</ele><time>2026-03-29T12:23:02.578Z</time></trkpt><trkpt lat="44.851755" lon="1.074505"><ele>63.83333333333333</ele><time>2026-03-29T12:23:04.577Z</time></trkpt><trkpt lat="44.85181" lon="1.074435"><ele>63.666666666666664</ele><time>2026-03-29T12:23:05.577Z</time></trkpt><trkpt lat="44.8518833" lon="1.0743767"><ele>63.5</ele><time>2026-03-29T12:23:06.578Z</time></trkpt><trkpt lat="44.8519533" lon="1.0743317"><ele>63.33333333333333</ele><time>2026-03-29T12:23:07.577Z</time></trkpt><trkpt lat="44.852025" lon="1.0742917"><ele>63.166666666666664</ele><time>2026-03-29T12:23:08.577Z</time></trkpt><trkpt lat="44.852115" lon="1.0742433"><ele>63.0</ele><time>2026-03-29T12:23:09.578Z</time></trkpt><trkpt lat="44.852215" lon="1.074185"><ele>63.0</ele><time>2026-03-29T12:23:10.577Z</time></trkpt><trkpt lat="44.8523117" lon="1.07412"><ele>63.0</ele><time>2026-03-29T12:23:11.578Z</time></trkpt><trkpt lat="44.8524117" lon="1.0740383"><ele>63.0</ele><time>2026-03-29T12:23:12.578Z</time></trkpt><trkpt lat="44.8525167" lon="1.07393"><ele>63.0</ele><time>2026-03-29T12:23:13.577Z</time></trkpt><trkpt lat="44.8526383" lon="1.073795"><ele>63.33333333333333</ele><time>2026-03-29T12:23:14.578Z</time></trkpt><trkpt lat="44.8527767" lon="1.0736433"><ele>63.666666666666664</ele><time>2026-03-29T12:23:15.577Z</time></trkpt><trkpt lat="44.852905" lon="1.0735167"><ele>64.0</ele><time>2026-03-29T12:23:16.577Z</time></trkpt><trkpt lat="44.85305" lon="1.073375"><ele>63.33333333333333</ele><time>2026-03-29T12:23:17.577Z</time></trkpt><trkpt lat="44.853195" lon="1.0732233"><ele>62.66666666666667</ele><time>2026-03-29T12:23:18.578Z</time></trkpt><trkpt lat="44.8533333" lon="1.07306"><ele>62.0</ele><time>2026-03-29T12:23:19.577Z</time></trkpt><trkpt lat="44.85348" lon="1.0728983"><ele>62.66666666666667</ele><time>2026-03-29T12:23:20.578Z</time></trkpt><trkpt lat="44.85363" lon="1.0727367"><ele>63.33333333333333</ele><time>2026-03-29T12:23:21.578Z</time></trkpt><trkpt lat="44.8537817" lon="1.07257"><ele>64.0</ele><time>2026-03-29T12:23:22.577Z</time></trkpt><trkpt lat="44.853935" lon="1.072395"><ele>64.0</ele><time>2026-03-29T12:23:23.578Z</time></trkpt><trkpt lat="44.8540833" lon="1.0722183"><ele>64.0</ele><time>2026-03-29T12:23:24.578Z</time></trkpt><trkpt lat="44.8542583" lon="1.0720517"><ele>64.0</ele><time>2026-03-29T12:23:25.577Z</time></trkpt><trkpt lat="44.85441" lon="1.0718717"><ele>64.0</ele><time>2026-03-29T12:23:26.578Z</time></trkpt><trkpt lat="44.854575" lon="1.0716967"><ele>64.0</ele><time>2026-03-29T12:23:27.578Z</time></trkpt><trkpt lat="44.8547417" lon="1.0715"><ele>64.0</ele><time>2026-03-29T12:23:28.577Z</time></trkpt><trkpt lat="44.8548667" lon="1.0712983"><ele>64.0</ele><time>2026-03-29T12:23:29.578Z</time></trkpt><trkpt lat="44.8549933" lon="1.0711017"><ele>64.0</ele><time>2026-03-29T12:23:30.577Z</time></trkpt><trkpt lat="44.8551117" lon="1.070895"><ele>64.0</ele><time>2026-03-29T12:23:31.577Z</time></trkpt><trkpt lat="44.8552417" lon="1.070665"><ele>64.66666666666666</ele><time>2026-03-29T12:23:32.578Z</time></trkpt><trkpt lat="44.855365" lon="1.0704383"><ele>65.33333333333333</ele><time>2026-03-29T12:23:33.577Z</time></trkpt><trkpt lat="44.8555" lon="1.070205"><ele>66.0</ele><time>2026-03-29T12:23:34.578Z</time></trkpt><trkpt lat="44.8556267" lon="1.0699633"><ele>65.33333333333333</ele><time>2026-03-29T12:23:35.578Z</time></trkpt><trkpt lat="44.8557467" lon="1.069735"><ele>64.66666666666666</ele><time>2026-03-29T12:23:36.577Z</time></trkpt><trkpt lat="44.8558617" lon="1.0695017"><ele>64.0</ele><time>2026-03-29T12:23:37.577Z</time></trkpt><trkpt lat="44.8559683" lon="1.0692883"><ele>64.66666666666666</ele><time>2026-03-29T12:23:38.578Z</time></trkpt><trkpt lat="44.8560983" lon="1.069055"><ele>65.33333333333333</ele><time>2026-03-29T12:23:39.578Z</time></trkpt><trkpt lat="44.8562117" lon="1.06884"><ele>66.0</ele><time>2026-03-29T12:23:40.578Z</time></trkpt><trkpt lat="44.8563" lon="1.06863"><ele>66.0</ele><time>2026-03-29T12:23:41.577Z</time></trkpt><trkpt lat="44.8563733" lon="1.0684333"><ele>66.0</ele><time>2026-03-29T12:23:42.578Z</time></trkpt><trkpt lat="44.8564433" lon="1.06825"><ele>66.0</ele><time>2026-03-29T12:23:43.578Z</time></trkpt><trkpt lat="44.8565233" lon="1.06807"><ele>65.75</ele><time>2026-03-29T12:23:44.577Z</time></trkpt><trkpt lat="44.85659" lon="1.067915"><ele>65.5</ele><time>2026-03-29T12:23:45.577Z</time></trkpt><trkpt lat="44.8566467" lon="1.0677667"><ele>65.25</ele><time>2026-03-29T12:23:46.578Z</time></trkpt><trkpt lat="44.8567" lon="1.0676217"><ele>65.0</ele><time>2026-03-29T12:23:47.577Z</time></trkpt><trkpt lat="44.8567533" lon="1.06749"><ele>65.25</ele><time>2026-03-29T12:23:48.578Z</time></trkpt><trkpt lat="44.8568133" lon="1.0673567"><ele>65.5</ele><time>2026-03-29T12:23:49.577Z</time></trkpt><trkpt lat="44.8568733" lon="1.06722"><ele>65.75</ele><time>2026-03-29T12:23:50.578Z</time></trkpt><trkpt lat="44.8569367" lon="1.06708"><ele>66.0</ele><time>2026-03-29T12:23:51.577Z</time></trkpt><trkpt lat="44.8569983" lon="1.06695"><ele>66.0</ele><time>2026-03-29T12:23:52.577Z</time></trkpt><trkpt lat="44.857045" lon="1.0668233"><ele>66.0</ele><time>2026-03-29T12:23:53.577Z</time></trkpt><trkpt lat="44.8570767" lon="1.0667133"><ele>66.0</ele><time>2026-03-29T12:23:54.578Z</time></trkpt><trkpt lat="44.857105" lon="1.066605"><ele>66.0</ele><time>2026-03-29T12:23:55.578Z</time></trkpt><trkpt lat="44.857135" lon="1.0665133"><ele>66.0</ele><time>2026-03-29T12:23:56.577Z</time></trkpt><trkpt lat="44.857195" lon="1.0663783"><ele>65.8</ele><time>2026-03-29T12:23:58.578Z</time></trkpt><trkpt lat="44.857225" lon="1.0662283"><ele>65.6</ele><time>2026-03-29T12:24:00.578Z</time></trkpt><trkpt lat="44.8572417" lon="1.06613"><ele>65.4</ele><time>2026-03-29T12:24:01.578Z</time></trkpt><trkpt lat="44.8572717" lon="1.0660083"><ele>65.2</ele><time>2026-03-29T12:24:02.577Z</time></trkpt><trkpt lat="44.857315" lon="1.0658833"><ele>65.0</ele><time>2026-03-29T12:24:03.577Z</time></trkpt><trkpt lat="44.857375" lon="1.0657533"><ele>64.6</ele><time>2026-03-29T12:24:04.578Z</time></trkpt><trkpt lat="44.8574283" lon="1.065635"><ele>64.2</ele><time>2026-03-29T12:24:05.578Z</time></trkpt><trkpt lat="44.85748" lon="1.0655"><ele>63.8</ele><time>2026-03-29T12:24:06.578Z</time></trkpt><trkpt lat="44.8575267" lon="1.0653917"><ele>63.4</ele><time>2026-03-29T12:24:07.578Z</time></trkpt><trkpt lat="44.8575767" lon="1.0652883"><ele>63.0</ele><time>2026-03-29T12:24:08.577Z</time></trkpt><trkpt lat="44.857645" lon="1.0652033"><ele>63.0</ele><time>2026-03-29T12:24:09.578Z</time></trkpt><trkpt lat="44.85772" lon="1.06512"><ele>63.0</ele><time>2026-03-29T12:24:10.577Z</time></trkpt><trkpt lat="44.857805" lon="1.0650117"><ele>63.0</ele><time>2026-03-29T12:24:11.578Z</time></trkpt><trkpt lat="44.8578917" lon="1.0648867"><ele>63.0</ele><time>2026-03-29T12:24:12.578Z</time></trkpt><trkpt lat="44.857975" lon="1.0647383"><ele>63.0</ele><time>2026-03-29T12:24:13.577Z</time></trkpt><trkpt lat="44.858045" lon="1.0645783"><ele>63.0</ele><time>2026-03-29T12:24:14.578Z</time></trkpt><trkpt lat="44.85812" lon="1.064405"><ele>63.0</ele><time>2026-03-29T12:24:15.578Z</time></trkpt><trkpt lat="44.858195" lon="1.06424"><ele>63.0</ele><time>2026-03-29T12:24:16.577Z</time></trkpt><trkpt lat="44.8582733" lon="1.064075"><ele>62.5</ele><time>2026-03-29T12:24:17.577Z</time></trkpt><trkpt lat="44.8583517" lon="1.0639033"><ele>62.0</ele><time>2026-03-29T12:24:18.578Z</time></trkpt><trkpt lat="44.85844" lon="1.0637533"><ele>61.5</ele><time>2026-03-29T12:24:19.578Z</time></trkpt><trkpt lat="44.8585233" lon="1.06359"><ele>61.0</ele><time>2026-03-29T12:24:20.578Z</time></trkpt><trkpt lat="44.8586133" lon="1.0634117"><ele>62.0</ele><time>2026-03-29T12:24:21.577Z</time></trkpt><trkpt lat="44.8587083" lon="1.0632167"><ele>63.0</ele><time>2026-03-29T12:24:22.578Z</time></trkpt><trkpt lat="44.858805" lon="1.063005"><ele>64.0</ele><time>2026-03-29T12:24:23.577Z</time></trkpt><trkpt lat="44.8589283" lon="1.0627733"><ele>64.0</ele><time>2026-03-29T12:24:24.578Z</time></trkpt><trkpt lat="44.8590583" lon="1.06254"><ele>64.0</ele><time>2026-03-29T12:24:25.577Z</time></trkpt><trkpt lat="44.8591817" lon="1.0623083"><ele>64.0</ele><time>2026-03-29T12:24:26.578Z</time></trkpt><trkpt lat="44.85929" lon="1.06208"><ele>64.0</ele><time>2026-03-29T12:24:27.577Z</time></trkpt><trkpt lat="44.8593917" lon="1.0618517"><ele>64.0</ele><time>2026-03-29T12:24:28.578Z</time></trkpt><trkpt lat="44.8594983" lon="1.0616167"><ele>64.0</ele><time>2026-03-29T12:24:29.577Z</time></trkpt><trkpt lat="44.8595967" lon="1.061365"><ele>64.0</ele><time>2026-03-29T12:24:30.577Z</time></trkpt><trkpt lat="44.8596833" lon="1.0611217"><ele>64.0</ele><time>2026-03-29T12:24:31.578Z</time></trkpt><trkpt lat="44.85979" lon="1.060885"><ele>64.0</ele><time>2026-03-29T12:24:32.578Z</time></trkpt><trkpt lat="44.8598983" lon="1.06065"><ele>64.0</ele><time>2026-03-29T12:24:33.578Z</time></trkpt><trkpt lat="44.8600033" lon="1.0604217"><ele>64.0</ele><time>2026-03-29T12:24:34.578Z</time></trkpt><trkpt lat="44.8600983" lon="1.0602167"><ele>64.0</ele><time>2026-03-29T12:24:35.578Z</time></trkpt><trkpt lat="44.8601883" lon="1.0600383"><ele>66.75</ele><time>2026-03-29T12:24:36.577Z</time></trkpt><trkpt lat="44.8602683" lon="1.0598633"><ele>69.5</ele><time>2026-03-29T12:24:37.577Z</time></trkpt><trkpt lat="44.860345" lon="1.0597033"><ele>72.25</ele><time>2026-03-29T12:24:38.578Z</time></trkpt><trkpt lat="44.860395" lon="1.05955"><ele>75.0</ele><time>2026-03-29T12:24:39.578Z</time></trkpt><trkpt lat="44.86042" lon="1.05938"><ele>75.0</ele><time>2026-03-29T12:24:40.577Z</time></trkpt><trkpt lat="44.8604233" lon="1.0592267"><ele>75.0</ele><time>2026-03-29T12:24:41.577Z</time></trkpt><trkpt lat="44.8604167" lon="1.05906"><ele>75.0</ele><time>2026-03-29T12:24:42.576Z</time></trkpt><trkpt lat="44.860405" lon="1.0589067"><ele>75.0</ele><time>2026-03-29T12:24:43.576Z</time></trkpt><trkpt lat="44.86041" lon="1.058755"><ele>75.0</ele><time>2026-03-29T12:24:44.577Z</time></trkpt><trkpt lat="44.8604167" lon="1.058625"><ele>74.0</ele><time>2026-03-29T12:24:45.577Z</time></trkpt><trkpt lat="44.86043" lon="1.0585017"><ele>73.0</ele><time>2026-03-29T12:24:46.576Z</time></trkpt><trkpt lat="44.8604367" lon="1.05837"><ele>72.0</ele><time>2026-03-29T12:24:47.577Z</time></trkpt><trkpt lat="44.86046" lon="1.0582583"><ele>71.0</ele><time>2026-03-29T12:24:48.577Z</time></trkpt><trkpt lat="44.860505" lon="1.0581117"><ele>70.0</ele><time>2026-03-29T12:24:49.576Z</time></trkpt><trkpt lat="44.860545" lon="1.0579717"><ele>69.0</ele><time>2026-03-29T12:24:50.577Z</time></trkpt><trkpt lat="44.860595" lon="1.0578283"><ele>68.0</ele><time>2026-03-29T12:24:51.576Z</time></trkpt><trkpt lat="44.86066" lon="1.057685"><ele>67.0</ele><time>2026-03-29T12:24:52.576Z</time></trkpt><trkpt lat="44.8607067" lon="1.0575333"><ele>66.0</ele><time>2026-03-29T12:24:53.577Z</time></trkpt><trkpt lat="44.8607583" lon="1.0574083"><ele>65.6</ele><time>2026-03-29T12:24:54.576Z</time></trkpt><trkpt lat="44.8608233" lon="1.0572817"><ele>65.19999999999999</ele><time>2026-03-29T12:24:55.576Z</time></trkpt><trkpt lat="44.8608833" lon="1.0571433"><ele>64.80000000000001</ele><time>2026-03-29T12:24:56.577Z</time></trkpt><trkpt lat="44.8609383" lon="1.0570083"><ele>64.4</ele><time>2026-03-29T12:24:57.576Z</time></trkpt><trkpt lat="44.860985" lon="1.0568633"><ele>64.0</ele><time>2026-03-29T12:24:58.577Z</time></trkpt><trkpt lat="44.8610317" lon="1.05673"><ele>64.0</ele><time>2026-03-29T12:24:59.576Z</time></trkpt><trkpt lat="44.8610817" lon="1.0565933"><ele>64.0</ele><time>2026-03-29T12:25:00.576Z</time></trkpt><trkpt lat="44.8611367" lon="1.0564767"><ele>64.0</ele><time>2026-03-29T12:25:01.576Z</time></trkpt><trkpt lat="44.8611917" lon="1.0563667"><ele>64.0</ele><time>2026-03-29T12:25:02.577Z</time></trkpt><trkpt lat="44.8612433" lon="1.0562583"><ele>64.0</ele><time>2026-03-29T12:25:03.577Z</time></trkpt><trkpt lat="44.8613183" lon="1.0561733"><ele>64.0</ele><time>2026-03-29T12:25:04.576Z</time></trkpt><trkpt lat="44.8614" lon="1.056085"><ele>64.0</ele><time>2026-03-29T12:25:05.576Z</time></trkpt><trkpt lat="44.8614967" lon="1.055995"><ele>64.0</ele><time>2026-03-29T12:25:06.576Z</time></trkpt><trkpt lat="44.8616983" lon="1.0558067"><ele>64.25</ele><time>2026-03-29T12:25:08.576Z</time></trkpt><trkpt lat="44.861805" lon="1.05572"><ele>64.5</ele><time>2026-03-29T12:25:09.577Z</time></trkpt><trkpt lat="44.8619" lon="1.05563"><ele>64.75</ele><time>2026-03-29T12:25:10.576Z</time></trkpt><trkpt lat="44.8620167" lon="1.055535"><ele>65.0</ele><time>2026-03-29T12:25:11.577Z</time></trkpt><trkpt lat="44.8621183" lon="1.0554433"><ele>65.0</ele><time>2026-03-29T12:25:12.577Z</time></trkpt><trkpt lat="44.862225" lon="1.0553267"><ele>65.0</ele><time>2026-03-29T12:25:13.576Z</time></trkpt><trkpt lat="44.8623233" lon="1.055195"><ele>65.0</ele><time>2026-03-29T12:25:14.576Z</time></trkpt><trkpt lat="44.8624167" lon="1.055055"><ele>65.0</ele><time>2026-03-29T12:25:15.576Z</time></trkpt><trkpt lat="44.862505" lon="1.054905"><ele>64.25</ele><time>2026-03-29T12:25:16.576Z</time></trkpt><trkpt lat="44.8625867" lon="1.0547433"><ele>63.5</ele><time>2026-03-29T12:25:17.577Z</time></trkpt><trkpt lat="44.8626517" lon="1.0545717"><ele>62.75</ele><time>2026-03-29T12:25:18.576Z</time></trkpt><trkpt lat="44.8627233" lon="1.054395"><ele>62.0</ele><time>2026-03-29T12:25:19.577Z</time></trkpt><trkpt lat="44.8627917" lon="1.054215"><ele>63.66666666666667</ele><time>2026-03-29T12:25:20.577Z</time></trkpt><trkpt lat="44.8628733" lon="1.05404"><ele>65.33333333333333</ele><time>2026-03-29T12:25:21.576Z</time></trkpt><trkpt lat="44.862965" lon="1.0538617"><ele>67.0</ele><time>2026-03-29T12:25:22.577Z</time></trkpt><trkpt lat="44.8630483" lon="1.0536817"><ele>67.0</ele><time>2026-03-29T12:25:23.576Z</time></trkpt><trkpt lat="44.863135" lon="1.053505"><ele>67.0</ele><time>2026-03-29T12:25:24.577Z</time></trkpt><trkpt lat="44.8632167" lon="1.053325"><ele>67.0</ele><time>2026-03-29T12:25:25.577Z</time></trkpt><trkpt lat="44.86329" lon="1.0531433"><ele>67.25</ele><time>2026-03-29T12:25:26.577Z</time></trkpt><trkpt lat="44.86337" lon="1.0529717"><ele>67.5</ele><time>2026-03-29T12:25:27.577Z</time></trkpt><trkpt lat="44.8634533" lon="1.0527967"><ele>67.75</ele><time>2026-03-29T12:25:28.576Z</time></trkpt><trkpt lat="44.8635417" lon="1.052635"><ele>68.0</ele><time>2026-03-29T12:25:29.576Z</time></trkpt><trkpt lat="44.8636233" lon="1.05247"><ele>67.0</ele><time>2026-03-29T12:25:30.577Z</time></trkpt><trkpt lat="44.863695" lon="1.0522967"><ele>66.0</ele><time>2026-03-29T12:25:31.576Z</time></trkpt><trkpt lat="44.8637633" lon="1.0521333"><ele>65.0</ele><time>2026-03-29T12:25:32.576Z</time></trkpt><trkpt lat="44.8638267" lon="1.05198"><ele>64.0</ele><time>2026-03-29T12:25:33.576Z</time></trkpt><trkpt lat="44.863895" lon="1.0518433"><ele>64.0</ele><time>2026-03-29T12:25:34.576Z</time></trkpt><trkpt lat="44.8639533" lon="1.0517033"><ele>64.0</ele><time>2026-03-29T12:25:35.576Z</time></trkpt><trkpt lat="44.8640183" lon="1.0515383"><ele>64.0</ele><time>2026-03-29T12:25:36.576Z</time></trkpt><trkpt lat="44.8640783" lon="1.0513833"><ele>64.0</ele><time>2026-03-29T12:25:37.576Z</time></trkpt><trkpt lat="44.86414" lon="1.0512117"><ele>63.75</ele><time>2026-03-29T12:25:38.577Z</time></trkpt><trkpt lat="44.8642067" lon="1.0510317"><ele>63.5</ele><time>2026-03-29T12:25:39.577Z</time></trkpt><trkpt lat="44.8642683" lon="1.050845"><ele>63.25</ele><time>2026-03-29T12:25:40.576Z</time></trkpt><trkpt lat="44.864315" lon="1.050675"><ele>63.0</ele><time>2026-03-29T12:25:41.576Z</time></trkpt><trkpt lat="44.86436" lon="1.050505"><ele>63.0</ele><time>2026-03-29T12:25:42.576Z</time></trkpt><trkpt lat="44.8644" lon="1.05037"><ele>63.0</ele><time>2026-03-29T12:25:43.577Z</time></trkpt><trkpt lat="44.8644367" lon="1.05021"><ele>63.0</ele><time>2026-03-29T12:25:44.576Z</time></trkpt><trkpt lat="44.864465" lon="1.05007"><ele>63.0</ele><time>2026-03-29T12:25:45.577Z</time></trkpt><trkpt lat="44.8645033" lon="1.0499217"><ele>63.0</ele><time>2026-03-29T12:25:46.577Z</time></trkpt><trkpt lat="44.8645317" lon="1.049785"><ele>63.2</ele><time>2026-03-29T12:25:47.576Z</time></trkpt><trkpt lat="44.8645583" lon="1.0496483"><ele>63.4</ele><time>2026-03-29T12:25:48.576Z</time></trkpt><trkpt lat="44.864585" lon="1.0495217"><ele>63.60000000000001</ele><time>2026-03-29T12:25:49.576Z</time></trkpt><trkpt lat="44.8645933" lon="1.0494217"><ele>63.800000000000004</ele><time>2026-03-29T12:25:50.577Z</time></trkpt><trkpt lat="44.864595" lon="1.04928"><ele>64.0</ele><time>2026-03-29T12:25:52.577Z</time></trkpt><trkpt lat="44.8646417" lon="1.0490967"><ele>64.0</ele><time>2026-03-29T12:26:10.576Z</time></trkpt><trkpt lat="44.8647367" lon="1.04897"><ele>64.0</ele><time>2026-03-29T12:26:12.576Z</time></trkpt><trkpt lat="44.8647717" lon="1.0488817"><ele>64.0</ele><time>2026-03-29T12:26:13.577Z</time></trkpt><trkpt lat="44.8648017" lon="1.0487433"><ele>64.0</ele><time>2026-03-29T12:26:14.577Z</time></trkpt><trkpt lat="44.8647967" lon="1.0485483"><ele>64.0</ele><time>2026-03-29T12:26:15.576Z</time></trkpt><trkpt lat="44.8647867" lon="1.0483617"><ele>63.75</ele><time>2026-03-29T12:26:16.576Z</time></trkpt><trkpt lat="44.8647717" lon="1.048175"><ele>63.5</ele><time>2026-03-29T12:26:17.576Z</time></trkpt><trkpt lat="44.8647633" lon="1.0479883"><ele>63.25</ele><time>2026-03-29T12:26:18.577Z</time></trkpt><trkpt lat="44.8647533" lon="1.047825"><ele>63.0</ele><time>2026-03-29T12:26:19.576Z</time></trkpt><trkpt lat="44.86474" lon="1.0476617"><ele>63.0</ele><time>2026-03-29T12:26:20.577Z</time></trkpt><trkpt lat="44.86471" lon="1.0474933"><ele>63.0</ele><time>2026-03-29T12:26:21.577Z</time></trkpt><trkpt lat="44.8646717" lon="1.047325"><ele>63.0</ele><time>2026-03-29T12:26:22.576Z</time></trkpt><trkpt lat="44.8646317" lon="1.0471467"><ele>63.0</ele><time>2026-03-29T12:26:23.576Z</time></trkpt><trkpt lat="44.8645933" lon="1.046965"><ele>63.0</ele><time>2026-03-29T12:26:24.576Z</time></trkpt><trkpt lat="44.86456" lon="1.046785"><ele>63.0</ele><time>2026-03-29T12:26:25.576Z</time></trkpt><trkpt lat="44.8645233" lon="1.0466117"><ele>63.0</ele><time>2026-03-29T12:26:26.577Z</time></trkpt><trkpt lat="44.86449" lon="1.0464667"><ele>63.0</ele><time>2026-03-29T12:26:27.576Z</time></trkpt><trkpt lat="44.8644533" lon="1.0463317"><ele>63.0</ele><time>2026-03-29T12:26:28.577Z</time></trkpt><trkpt lat="44.86441" lon="1.046185"><ele>63.0</ele><time>2026-03-29T12:26:29.576Z</time></trkpt><trkpt lat="44.8643733" lon="1.0460417"><ele>63.0</ele><time>2026-03-29T12:26:30.576Z</time></trkpt><trkpt lat="44.8643367" lon="1.0459"><ele>63.0</ele><time>2026-03-29T12:26:31.577Z</time></trkpt><trkpt lat="44.8643117" lon="1.04575"><ele>63.0</ele><time>2026-03-29T12:26:32.576Z</time></trkpt><trkpt lat="44.8642867" lon="1.0455933"><ele>63.25</ele><time>2026-03-29T12:26:33.577Z</time></trkpt><trkpt lat="44.86425" lon="1.04544"><ele>63.5</ele><time>2026-03-29T12:26:34.576Z</time></trkpt><trkpt lat="44.86421" lon="1.0452867"><ele>63.75</ele><time>2026-03-29T12:26:35.576Z</time></trkpt><trkpt lat="44.8641767" lon="1.04514"><ele>64.0</ele><time>2026-03-29T12:26:36.577Z</time></trkpt><trkpt lat="44.864155" lon="1.04498"><ele>63.75</ele><time>2026-03-29T12:26:37.577Z</time></trkpt><trkpt lat="44.86412" lon="1.0448283"><ele>63.5</ele><time>2026-03-29T12:26:38.577Z</time></trkpt><trkpt lat="44.8640783" lon="1.0446617"><ele>63.25</ele><time>2026-03-29T12:26:39.577Z</time></trkpt><trkpt lat="44.864025" lon="1.0444933"><ele>63.0</ele><time>2026-03-29T12:26:40.576Z</time></trkpt><trkpt lat="44.86397" lon="1.0443283"><ele>63.0</ele><time>2026-03-29T12:26:41.577Z</time></trkpt><trkpt lat="44.8639067" lon="1.04417"><ele>63.0</ele><time>2026-03-29T12:26:42.577Z</time></trkpt><trkpt lat="44.863845" lon="1.04401"><ele>63.0</ele><time>2026-03-29T12:26:43.577Z</time></trkpt><trkpt lat="44.8638" lon="1.0438533"><ele>63.0</ele><time>2026-03-29T12:26:44.576Z</time></trkpt><trkpt lat="44.8637467" lon="1.0437083"><ele>63.0</ele><time>2026-03-29T12:26:45.577Z</time></trkpt><trkpt lat="44.86369" lon="1.0435683"><ele>63.0</ele><time>2026-03-29T12:26:46.577Z</time></trkpt><trkpt lat="44.863635" lon="1.0434217"><ele>63.0</ele><time>2026-03-29T12:26:47.576Z</time></trkpt><trkpt lat="44.863605" lon="1.0432567"><ele>63.0</ele><time>2026-03-29T12:26:48.576Z</time></trkpt><trkpt lat="44.8635667" lon="1.0430917"><ele>63.0</ele><time>2026-03-29T12:26:49.577Z</time></trkpt><trkpt lat="44.8635" lon="1.0429433"><ele>63.0</ele><time>2026-03-29T12:26:50.576Z</time></trkpt><trkpt lat="44.86343" lon="1.04279"><ele>63.0</ele><time>2026-03-29T12:26:51.576Z</time></trkpt><trkpt lat="44.863365" lon="1.0426233"><ele>63.0</ele><time>2026-03-29T12:26:52.576Z</time></trkpt><trkpt lat="44.8633033" lon="1.0424567"><ele>63.0</ele><time>2026-03-29T12:26:53.577Z</time></trkpt><trkpt lat="44.8632367" lon="1.042295"><ele>63.0</ele><time>2026-03-29T12:26:54.577Z</time></trkpt><trkpt lat="44.8631583" lon="1.0421283"><ele>63.0</ele><time>2026-03-29T12:26:55.577Z</time></trkpt><trkpt lat="44.8630883" lon="1.0419667"><ele>63.0</ele><time>2026-03-29T12:26:56.577Z</time></trkpt><trkpt lat="44.86302" lon="1.0418"><ele>62.75</ele><time>2026-03-29T12:26:57.576Z</time></trkpt><trkpt lat="44.8629517" lon="1.0416283"><ele>62.5</ele><time>2026-03-29T12:26:58.576Z</time></trkpt><trkpt lat="44.8628783" lon="1.04145"><ele>62.25</ele><time>2026-03-29T12:26:59.576Z</time></trkpt><trkpt lat="44.8628067" lon="1.0412717"><ele>62.0</ele><time>2026-03-29T12:27:00.576Z</time></trkpt><trkpt lat="44.8627317" lon="1.0411033"><ele>62.0</ele><time>2026-03-29T12:27:01.576Z</time></trkpt><trkpt lat="44.8626583" lon="1.0409133"><ele>62.0</ele><time>2026-03-29T12:27:02.577Z</time></trkpt><trkpt lat="44.86259" lon="1.0407433"><ele>62.0</ele><time>2026-03-29T12:27:03.577Z</time></trkpt><trkpt lat="44.8625133" lon="1.0405633"><ele>62.0</ele><time>2026-03-29T12:27:04.577Z</time></trkpt><trkpt lat="44.8624183" lon="1.0404"><ele>62.0</ele><time>2026-03-29T12:27:05.576Z</time></trkpt><trkpt lat="44.8623483" lon="1.040245"><ele>62.0</ele><time>2026-03-29T12:27:06.577Z</time></trkpt><trkpt lat="44.8622567" lon="1.0400783"><ele>62.0</ele><time>2026-03-29T12:27:07.576Z</time></trkpt><trkpt lat="44.86216" lon="1.0399317"><ele>62.0</ele><time>2026-03-29T12:27:08.577Z</time></trkpt><trkpt lat="44.8620533" lon="1.03978"><ele>62.0</ele><time>2026-03-29T12:27:09.576Z</time></trkpt><trkpt lat="44.8619467" lon="1.03964"><ele>62.0</ele><time>2026-03-29T12:27:10.577Z</time></trkpt><trkpt lat="44.8618267" lon="1.0394883"><ele>62.0</ele><time>2026-03-29T12:27:11.577Z</time></trkpt><trkpt lat="44.8617067" lon="1.03936"><ele>62.0</ele><time>2026-03-29T12:27:12.576Z</time></trkpt><trkpt lat="44.86157" lon="1.039235"><ele>62.0</ele><time>2026-03-29T12:27:13.577Z</time></trkpt><trkpt lat="44.8614267" lon="1.0391333"><ele>62.0</ele><time>2026-03-29T12:27:14.576Z</time></trkpt><trkpt lat="44.8612833" lon="1.0390417"><ele>62.0</ele><time>2026-03-29T12:27:15.576Z</time></trkpt><trkpt lat="44.86114" lon="1.0389483"><ele>62.0</ele><time>2026-03-29T12:27:16.577Z</time></trkpt><trkpt lat="44.8609833" lon="1.0388483"><ele>62.0</ele><time>2026-03-29T12:27:17.576Z</time></trkpt><trkpt lat="44.8608317" lon="1.0387517"><ele>61.66666666666667</ele><time>2026-03-29T12:27:18.577Z</time></trkpt><trkpt lat="44.8606683" lon="1.0386617"><ele>61.33333333333333</ele><time>2026-03-29T12:27:19.577Z</time></trkpt><trkpt lat="44.8605083" lon="1.0385683"><ele>61.0</ele><time>2026-03-29T12:27:20.577Z</time></trkpt><trkpt lat="44.8603433" lon="1.03848"><ele>61.0</ele><time>2026-03-29T12:27:21.576Z</time></trkpt><trkpt lat="44.860155" lon="1.03839"><ele>61.0</ele><time>2026-03-29T12:27:22.577Z</time></trkpt><trkpt lat="44.8599767" lon="1.038305"><ele>61.0</ele><time>2026-03-29T12:27:23.577Z</time></trkpt><trkpt lat="44.8598" lon="1.038205"><ele>61.0</ele><time>2026-03-29T12:27:24.576Z</time></trkpt><trkpt lat="44.8596283" lon="1.03811"><ele>61.0</ele><time>2026-03-29T12:27:25.576Z</time></trkpt><trkpt lat="44.8594533" lon="1.0379983"><ele>61.0</ele><time>2026-03-29T12:27:26.577Z</time></trkpt><trkpt lat="44.8592683" lon="1.0378933"><ele>61.0</ele><time>2026-03-29T12:27:27.577Z</time></trkpt><trkpt lat="44.859075" lon="1.03779"><ele>61.0</ele><time>2026-03-29T12:27:28.576Z</time></trkpt><trkpt lat="44.8588983" lon="1.03767"><ele>61.0</ele><time>2026-03-29T12:27:29.576Z</time></trkpt><trkpt lat="44.858705" lon="1.03756"><ele>61.0</ele><time>2026-03-29T12:27:30.577Z</time></trkpt><trkpt lat="44.8585117" lon="1.0374533"><ele>61.0</ele><time>2026-03-29T12:27:31.577Z</time></trkpt><trkpt lat="44.8583083" lon="1.03733"><ele>61.0</ele><time>2026-03-29T12:27:32.576Z</time></trkpt><trkpt lat="44.858095" lon="1.0372183"><ele>61.0</ele><time>2026-03-29T12:27:33.577Z</time></trkpt><trkpt lat="44.8578883" lon="1.0371117"><ele>61.0</ele><time>2026-03-29T12:27:34.577Z</time></trkpt><trkpt lat="44.8576817" lon="1.03701"><ele>61.0</ele><time>2026-03-29T12:27:35.576Z</time></trkpt><trkpt lat="44.857475" lon="1.0369033"><ele>61.0</ele><time>2026-03-29T12:27:36.576Z</time></trkpt><trkpt lat="44.8572733" lon="1.0367933"><ele>61.0</ele><time>2026-03-29T12:27:37.576Z</time></trkpt><trkpt lat="44.8570667" lon="1.0366733"><ele>61.0</ele><time>2026-03-29T12:27:38.577Z</time></trkpt><trkpt lat="44.85686" lon="1.0365617"><ele>61.0</ele><time>2026-03-29T12:27:39.576Z</time></trkpt><trkpt lat="44.8566583" lon="1.0364467"><ele>61.0</ele><time>2026-03-29T12:27:40.576Z</time></trkpt><trkpt lat="44.8564767" lon="1.0363167"><ele>61.0</ele><time>2026-03-29T12:27:41.576Z</time></trkpt><trkpt lat="44.856275" lon="1.0362"><ele>61.0</ele><time>2026-03-29T12:27:42.577Z</time></trkpt><trkpt lat="44.8560517" lon="1.0360767"><ele>61.0</ele><time>2026-03-29T12:27:43.577Z</time></trkpt><trkpt lat="44.855835" lon="1.0359617"><ele>60.0</ele><time>2026-03-29T12:27:44.577Z</time></trkpt><trkpt lat="44.8556183" lon="1.0358383"><ele>59.0</ele><time>2026-03-29T12:27:45.576Z</time></trkpt><trkpt lat="44.8554017" lon="1.0357383"><ele>59.0</ele><time>2026-03-29T12:27:46.576Z</time></trkpt><trkpt lat="44.8551783" lon="1.0356267"><ele>59.0</ele><time>2026-03-29T12:27:47.576Z</time></trkpt><trkpt lat="44.8549517" lon="1.0355083"><ele>58.5</ele><time>2026-03-29T12:27:48.577Z</time></trkpt><trkpt lat="44.8547417" lon="1.0353867"><ele>58.0</ele><time>2026-03-29T12:27:49.577Z</time></trkpt><trkpt lat="44.8545283" lon="1.0352733"><ele>58.0</ele><time>2026-03-29T12:27:50.576Z</time></trkpt><trkpt lat="44.8543133" lon="1.035155"><ele>58.0</ele><time>2026-03-29T12:27:51.576Z</time></trkpt><trkpt lat="44.85409" lon="1.0350383"><ele>59.5</ele><time>2026-03-29T12:27:52.577Z</time></trkpt><trkpt lat="44.8538617" lon="1.0349067"><ele>61.0</ele><time>2026-03-29T12:27:53.577Z</time></trkpt><trkpt lat="44.8536367" lon="1.0347767"><ele>61.5</ele><time>2026-03-29T12:27:54.576Z</time></trkpt><trkpt lat="44.8534183" lon="1.0346417"><ele>62.0</ele><time>2026-03-29T12:27:55.577Z</time></trkpt><trkpt lat="44.8532167" lon="1.03448"><ele>62.0</ele><time>2026-03-29T12:27:56.576Z</time></trkpt><trkpt lat="44.8530183" lon="1.0343117"><ele>62.0</ele><time>2026-03-29T12:27:57.577Z</time></trkpt><trkpt lat="44.8528067" lon="1.0341517"><ele>61.5</ele><time>2026-03-29T12:27:58.576Z</time></trkpt><trkpt lat="44.8526383" lon="1.0339233"><ele>61.0</ele><time>2026-03-29T12:27:59.577Z</time></trkpt><trkpt lat="44.8524467" lon="1.0337367"><ele>61.0</ele><time>2026-03-29T12:28:00.576Z</time></trkpt><trkpt lat="44.8522517" lon="1.0335467"><ele>61.0</ele><time>2026-03-29T12:28:01.577Z</time></trkpt><trkpt lat="44.8520467" lon="1.0333633"><ele>61.0</ele><time>2026-03-29T12:28:02.577Z</time></trkpt><trkpt lat="44.851835" lon="1.03317"><ele>61.0</ele><time>2026-03-29T12:28:03.577Z</time></trkpt><trkpt lat="44.8516417" lon="1.03297"><ele>61.5</ele><time>2026-03-29T12:28:04.577Z</time></trkpt><trkpt lat="44.8514283" lon="1.03278"><ele>62.0</ele><time>2026-03-29T12:28:05.576Z</time></trkpt><trkpt lat="44.851225" lon="1.0325733"><ele>62.0</ele><time>2026-03-29T12:28:06.576Z</time></trkpt><trkpt lat="44.851005" lon="1.032375"><ele>62.0</ele><time>2026-03-29T12:28:07.576Z</time></trkpt><trkpt lat="44.8507983" lon="1.0321867"><ele>61.5</ele><time>2026-03-29T12:28:08.576Z</time></trkpt><trkpt lat="44.8506083" lon="1.03199"><ele>61.0</ele><time>2026-03-29T12:28:09.577Z</time></trkpt><trkpt lat="44.8503967" lon="1.0317933"><ele>61.0</ele><time>2026-03-29T12:28:10.576Z</time></trkpt><trkpt lat="44.85019" lon="1.0316"><ele>61.0</ele><time>2026-03-29T12:28:11.576Z</time></trkpt><trkpt lat="44.84999" lon="1.0313783"><ele>61.0</ele><time>2026-03-29T12:28:12.577Z</time></trkpt><trkpt lat="44.8497733" lon="1.03119"><ele>61.0</ele><time>2026-03-29T12:28:13.576Z</time></trkpt><trkpt lat="44.8495683" lon="1.0309817"><ele>61.0</ele><time>2026-03-29T12:28:14.577Z</time></trkpt><trkpt lat="44.8493617" lon="1.0307767"><ele>61.0</ele><time>2026-03-29T12:28:15.577Z</time></trkpt><trkpt lat="44.8491567" lon="1.0305817"><ele>61.0</ele><time>2026-03-29T12:28:16.576Z</time></trkpt><trkpt lat="44.8487467" lon="1.0302017"><ele>61.0</ele><time>2026-03-29T12:28:18.576Z</time></trkpt><trkpt lat="44.8485567" lon="1.0299917"><ele>61.0</ele><time>2026-03-29T12:28:19.576Z</time></trkpt><trkpt lat="44.848385" lon="1.0297467"><ele>61.0</ele><time>2026-03-29T12:28:20.577Z</time></trkpt><trkpt lat="44.8482167" lon="1.029495"><ele>61.0</ele><time>2026-03-29T12:28:21.576Z</time></trkpt><trkpt lat="44.8480617" lon="1.029225"><ele>60.5</ele><time>2026-03-29T12:28:22.577Z</time></trkpt><trkpt lat="44.84791" lon="1.0289633"><ele>60.0</ele><time>2026-03-29T12:28:23.576Z</time></trkpt><trkpt lat="44.8477717" lon="1.0286733"><ele>60.0</ele><time>2026-03-29T12:28:24.577Z</time></trkpt><trkpt lat="44.8476417" lon="1.0283883"><ele>60.0</ele><time>2026-03-29T12:28:25.577Z</time></trkpt><trkpt lat="44.8475117" lon="1.0281117"><ele>62.5</ele><time>2026-03-29T12:28:26.577Z</time></trkpt><trkpt lat="44.847385" lon="1.0278117"><ele>65.0</ele><time>2026-03-29T12:28:27.576Z</time></trkpt><trkpt lat="44.847255" lon="1.0275433"><ele>63.5</ele><time>2026-03-29T12:28:28.576Z</time></trkpt><trkpt lat="44.8471417" lon="1.02725"><ele>62.0</ele><time>2026-03-29T12:28:29.577Z</time></trkpt><trkpt lat="44.84701" lon="1.0269717"><ele>62.0</ele><time>2026-03-29T12:28:30.577Z</time></trkpt><trkpt lat="44.84686" lon="1.026695"><ele>62.0</ele><time>2026-03-29T12:28:31.576Z</time></trkpt><trkpt lat="44.8467117" lon="1.026415"><ele>61.0</ele><time>2026-03-29T12:28:32.577Z</time></trkpt><trkpt lat="44.846575" lon="1.02613"><ele>60.0</ele><time>2026-03-29T12:28:33.577Z</time></trkpt><trkpt lat="44.84643" lon="1.0258433"><ele>59.5</ele><time>2026-03-29T12:28:34.576Z</time></trkpt><trkpt lat="44.8462817" lon="1.02557"><ele>59.0</ele><time>2026-03-29T12:28:35.577Z</time></trkpt><trkpt lat="44.8461467" lon="1.0252917"><ele>59.0</ele><time>2026-03-29T12:28:36.577Z</time></trkpt><trkpt lat="44.84601" lon="1.02501"><ele>59.0</ele><time>2026-03-29T12:28:37.577Z</time></trkpt><trkpt lat="44.8458783" lon="1.0247233"><ele>60.0</ele><time>2026-03-29T12:28:38.576Z</time></trkpt><trkpt lat="44.8457367" lon="1.0244417"><ele>61.0</ele><time>2026-03-29T12:28:39.576Z</time></trkpt><trkpt lat="44.8455933" lon="1.0241717"><ele>60.5</ele><time>2026-03-29T12:28:40.576Z</time></trkpt><trkpt lat="44.8454483" lon="1.0239067"><ele>60.0</ele><time>2026-03-29T12:28:41.577Z</time></trkpt><trkpt lat="44.8453183" lon="1.0236133"><ele>60.0</ele><time>2026-03-29T12:28:42.577Z</time></trkpt><trkpt lat="44.84518" lon="1.0233333"><ele>60.0</ele><time>2026-03-29T12:28:43.576Z</time></trkpt><trkpt lat="44.8450383" lon="1.0230567"><ele>60.0</ele><time>2026-03-29T12:28:44.577Z</time></trkpt><trkpt lat="44.84488" lon="1.0227817"><ele>60.0</ele><time>2026-03-29T12:28:45.577Z</time></trkpt><trkpt lat="44.8447217" lon="1.0225167"><ele>59.5</ele><time>2026-03-29T12:28:46.577Z</time></trkpt><trkpt lat="44.8445517" lon="1.0222717"><ele>59.0</ele><time>2026-03-29T12:28:47.576Z</time></trkpt><trkpt lat="44.84437" lon="1.02205"><ele>58.5</ele><time>2026-03-29T12:28:48.576Z</time></trkpt><trkpt lat="44.8441683" lon="1.021855"><ele>58.0</ele><time>2026-03-29T12:28:49.576Z</time></trkpt><trkpt lat="44.8439517" lon="1.0216633"><ele>58.5</ele><time>2026-03-29T12:28:50.576Z</time></trkpt><trkpt lat="44.8437417" lon="1.02151"><ele>59.0</ele><time>2026-03-29T12:28:51.577Z</time></trkpt><trkpt lat="44.843525" lon="1.0213583"><ele>59.5</ele><time>2026-03-29T12:28:52.577Z</time></trkpt><trkpt lat="44.84328" lon="1.0212183"><ele>60.0</ele><time>2026-03-29T12:28:53.576Z</time></trkpt><trkpt lat="44.84303" lon="1.0211267"><ele>60.0</ele><time>2026-03-29T12:28:54.576Z</time></trkpt><trkpt lat="44.8427917" lon="1.021065"><ele>60.0</ele><time>2026-03-29T12:28:55.576Z</time></trkpt><trkpt lat="44.8425717" lon="1.021025"><ele>60.0</ele><time>2026-03-29T12:28:56.577Z</time></trkpt><trkpt lat="44.84234" lon="1.0210033"><ele>60.0</ele><time>2026-03-29T12:28:57.577Z</time></trkpt><trkpt lat="44.842105" lon="1.0209917"><ele>60.0</ele><time>2026-03-29T12:28:58.576Z</time></trkpt><trkpt lat="44.8418717" lon="1.0210017"><ele>60.0</ele><time>2026-03-29T12:28:59.576Z</time></trkpt><trkpt lat="44.8416417" lon="1.0210433"><ele>60.0</ele><time>2026-03-29T12:29:00.577Z</time></trkpt><trkpt lat="44.8414067" lon="1.02112"><ele>60.0</ele><time>2026-03-29T12:29:01.577Z</time></trkpt><trkpt lat="44.8411867" lon="1.0211867"><ele>60.0</ele><time>2026-03-29T12:29:02.576Z</time></trkpt><trkpt lat="44.8409717" lon="1.02124"><ele>60.0</ele><time>2026-03-29T12:29:03.577Z</time></trkpt><trkpt lat="44.8407383" lon="1.0213167"><ele>61.0</ele><time>2026-03-29T12:29:04.577Z</time></trkpt><trkpt lat="44.8405033" lon="1.0213683"><ele>62.0</ele><time>2026-03-29T12:29:05.577Z</time></trkpt><trkpt lat="44.8402867" lon="1.021415"><ele>61.0</ele><time>2026-03-29T12:29:06.577Z</time></trkpt><trkpt lat="44.8400767" lon="1.021475"><ele>60.0</ele><time>2026-03-29T12:29:07.576Z</time></trkpt><trkpt lat="44.8398383" lon="1.0215417"><ele>60.0</ele><time>2026-03-29T12:29:08.576Z</time></trkpt><trkpt lat="44.8395983" lon="1.02161"><ele>60.0</ele><time>2026-03-29T12:29:09.577Z</time></trkpt><trkpt lat="44.83937" lon="1.021615"><ele>61.33333333333333</ele><time>2026-03-29T12:29:10.576Z</time></trkpt><trkpt lat="44.8391583" lon="1.0216"><ele>62.666666666666664</ele><time>2026-03-29T12:29:11.577Z</time></trkpt><trkpt lat="44.8389383" lon="1.0215533"><ele>64.0</ele><time>2026-03-29T12:29:12.576Z</time></trkpt><trkpt lat="44.8387333" lon="1.0214933"><ele>64.0</ele><time>2026-03-29T12:29:13.576Z</time></trkpt><trkpt lat="44.83852" lon="1.0214033"><ele>64.0</ele><time>2026-03-29T12:29:14.576Z</time></trkpt><trkpt lat="44.8382833" lon="1.0213083"><ele>66.0</ele><time>2026-03-29T12:29:15.576Z</time></trkpt><trkpt lat="44.8380617" lon="1.0212217"><ele>68.0</ele><time>2026-03-29T12:29:16.576Z</time></trkpt><trkpt lat="44.83784" lon="1.021155"><ele>70.0</ele><time>2026-03-29T12:29:17.577Z</time></trkpt><trkpt lat="44.8376133" lon="1.0210967"><ele>72.0</ele><time>2026-03-29T12:29:18.576Z</time></trkpt><trkpt lat="44.8373833" lon="1.0210267"><ele>72.0</ele><time>2026-03-29T12:29:19.576Z</time></trkpt><trkpt lat="44.8371617" lon="1.02094"><ele>72.0</ele><time>2026-03-29T12:29:20.576Z</time></trkpt><trkpt lat="44.8369317" lon="1.0208517"><ele>70.0</ele><time>2026-03-29T12:29:21.576Z</time></trkpt><trkpt lat="44.8367083" lon="1.020745"><ele>68.0</ele><time>2026-03-29T12:29:22.577Z</time></trkpt><trkpt lat="44.83647" lon="1.0206283"><ele>68.0</ele><time>2026-03-29T12:29:23.576Z</time></trkpt><trkpt lat="44.8362283" lon="1.020515"><ele>68.0</ele><time>2026-03-29T12:29:24.577Z</time></trkpt><trkpt lat="44.8359867" lon="1.020425"><ele>70.0</ele><time>2026-03-29T12:29:25.577Z</time></trkpt><trkpt lat="44.8357317" lon="1.0203383"><ele>72.0</ele><time>2026-03-29T12:29:26.576Z</time></trkpt><trkpt lat="44.8354867" lon="1.0202217"><ele>72.0</ele><time>2026-03-29T12:29:27.577Z</time></trkpt><trkpt lat="44.835255" lon="1.0200967"><ele>72.0</ele><time>2026-03-29T12:29:28.577Z</time></trkpt><trkpt lat="44.8350183" lon="1.0199633"><ele>68.0</ele><time>2026-03-29T12:29:29.577Z</time></trkpt><trkpt lat="44.8347833" lon="1.0198217"><ele>64.0</ele><time>2026-03-29T12:29:30.576Z</time></trkpt><trkpt lat="44.83456" lon="1.0196517"><ele>64.0</ele><time>2026-03-29T12:29:31.576Z</time></trkpt><trkpt lat="44.8343367" lon="1.0194767"><ele>64.0</ele><time>2026-03-29T12:29:32.576Z</time></trkpt><trkpt lat="44.834105" lon="1.0193067"><ele>63.5</ele><time>2026-03-29T12:29:33.576Z</time></trkpt><trkpt lat="44.833875" lon="1.0191317"><ele>63.0</ele><time>2026-03-29T12:29:34.577Z</time></trkpt><trkpt lat="44.8336517" lon="1.0189483"><ele>65.5</ele><time>2026-03-29T12:29:35.576Z</time></trkpt><trkpt lat="44.8334333" lon="1.0187667"><ele>68.0</ele><time>2026-03-29T12:29:36.577Z</time></trkpt><trkpt lat="44.8331983" lon="1.0185833"><ele>68.0</ele><time>2026-03-29T12:29:37.576Z</time></trkpt><trkpt lat="44.8329767" lon="1.0184033"><ele>68.0</ele><time>2026-03-29T12:29:38.577Z</time></trkpt><trkpt lat="44.832755" lon="1.018225"><ele>67.5</ele><time>2026-03-29T12:29:39.577Z</time></trkpt><trkpt lat="44.8325333" lon="1.018035"><ele>67.0</ele><time>2026-03-29T12:29:40.576Z</time></trkpt><trkpt lat="44.8323167" lon="1.0178433"><ele>67.0</ele><time>2026-03-29T12:29:41.577Z</time></trkpt><trkpt lat="44.8321283" lon="1.017635"><ele>67.0</ele><time>2026-03-29T12:29:42.576Z</time></trkpt><trkpt lat="44.8319383" lon="1.0174333"><ele>66.5</ele><time>2026-03-29T12:29:43.577Z</time></trkpt><trkpt lat="44.8317167" lon="1.0172567"><ele>66.0</ele><time>2026-03-29T12:29:44.577Z</time></trkpt><trkpt lat="44.8315117" lon="1.0171017"><ele>66.0</ele><time>2026-03-29T12:29:45.576Z</time></trkpt><trkpt lat="44.8313233" lon="1.0169333"><ele>66.0</ele><time>2026-03-29T12:29:46.576Z</time></trkpt><trkpt lat="44.8311433" lon="1.0167717"><ele>66.0</ele><time>2026-03-29T12:29:47.577Z</time></trkpt><trkpt lat="44.8309683" lon="1.0166083"><ele>66.0</ele><time>2026-03-29T12:29:48.576Z</time></trkpt><trkpt lat="44.8308" lon="1.0164517"><ele>66.0</ele><time>2026-03-29T12:29:49.577Z</time></trkpt><trkpt lat="44.8306383" lon="1.016295"><ele>66.0</ele><time>2026-03-29T12:29:50.576Z</time></trkpt><trkpt lat="44.8304967" lon="1.0161517"><ele>66.0</ele><time>2026-03-29T12:29:51.577Z</time></trkpt><trkpt lat="44.83037" lon="1.0160517"><ele>66.0</ele><time>2026-03-29T12:29:52.577Z</time></trkpt><trkpt lat="44.8302683" lon="1.0159567"><ele>66.0</ele><time>2026-03-29T12:29:53.576Z</time></trkpt><trkpt lat="44.830195" lon="1.015875"><ele>66.0</ele><time>2026-03-29T12:29:54.576Z</time></trkpt><trkpt lat="44.83014" lon="1.015825"><ele>66.0</ele><time>2026-03-29T12:29:55.577Z</time></trkpt><trkpt lat="44.8300683" lon="1.015795"><ele>66.0</ele><time>2026-03-29T12:29:56.576Z</time></trkpt><trkpt lat="44.8300083" lon="1.0158433"><ele>66.0</ele><time>2026-03-29T12:29:57.576Z</time></trkpt><trkpt lat="44.8299633" lon="1.01593"><ele>66.0</ele><time>2026-03-29T12:29:58.576Z</time></trkpt><trkpt lat="44.8299833" lon="1.01605"><ele>66.0</ele><time>2026-03-29T12:29:59.577Z</time></trkpt><trkpt lat="44.83003" lon="1.0161667"><ele>66.0</ele><time>2026-03-29T12:30:00.576Z</time></trkpt><trkpt lat="44.8301117" lon="1.0162567"><ele>66.0</ele><time>2026-03-29T12:30:01.576Z</time></trkpt><trkpt lat="44.8302033" lon="1.016335"><ele>66.0</ele><time>2026-03-29T12:30:02.577Z</time></trkpt><trkpt lat="44.8302917" lon="1.0164033"><ele>66.0</ele><time>2026-03-29T12:30:03.577Z</time></trkpt><trkpt lat="44.830365" lon="1.0164617"><ele>66.0</ele><time>2026-03-29T12:30:04.576Z</time></trkpt><trkpt lat="44.8304233" lon="1.0165183"><ele>66.0</ele><time>2026-03-29T12:30:05.577Z</time></trkpt><trkpt lat="44.8304717" lon="1.016585"><ele>66.0</ele><time>2026-03-29T12:30:06.577Z</time></trkpt><trkpt lat="44.8305117" lon="1.0166633"><ele>66.0</ele><time>2026-03-29T12:30:07.576Z</time></trkpt><trkpt lat="44.83056" lon="1.016765"><ele>68.2</ele><time>2026-03-29T12:30:08.577Z</time></trkpt><trkpt lat="44.8306017" lon="1.0168967"><ele>70.39999999999999</ele><time>2026-03-29T12:30:09.576Z</time></trkpt><trkpt lat="44.8306117" lon="1.0170567"><ele>72.6</ele><time>2026-03-29T12:30:10.577Z</time></trkpt><trkpt lat="44.83063" lon="1.017195"><ele>74.8</ele><time>2026-03-29T12:30:11.577Z</time></trkpt><trkpt lat="44.830635" lon="1.0173417"><ele>77.0</ele><time>2026-03-29T12:30:12.577Z</time></trkpt><trkpt lat="44.8306283" lon="1.017505"><ele>78.8</ele><time>2026-03-29T12:30:13.577Z</time></trkpt><trkpt lat="44.8306067" lon="1.0176617"><ele>80.6</ele><time>2026-03-29T12:30:14.576Z</time></trkpt><trkpt lat="44.8305767" lon="1.017815"><ele>82.39999999999999</ele><time>2026-03-29T12:30:15.576Z</time></trkpt><trkpt lat="44.8305367" lon="1.0179633"><ele>84.2</ele><time>2026-03-29T12:30:16.576Z</time></trkpt><trkpt lat="44.8305" lon="1.01811"><ele>86.0</ele><time>2026-03-29T12:30:17.576Z</time></trkpt><trkpt lat="44.8304567" lon="1.018255"><ele>86.8</ele><time>2026-03-29T12:30:18.577Z</time></trkpt><trkpt lat="44.8304167" lon="1.0183933"><ele>87.6</ele><time>2026-03-29T12:30:19.577Z</time></trkpt><trkpt lat="44.830375" lon="1.0185217"><ele>88.4</ele><time>2026-03-29T12:30:20.577Z</time></trkpt><trkpt lat="44.8303317" lon="1.018635"><ele>89.2</ele><time>2026-03-29T12:30:21.577Z</time></trkpt><trkpt lat="44.8302967" lon="1.01874"><ele>90.0</ele><time>2026-03-29T12:30:22.576Z</time></trkpt><trkpt lat="44.830265" lon="1.0188283"><ele>90.0</ele><time>2026-03-29T12:30:23.577Z</time></trkpt><trkpt lat="44.8302367" lon="1.0189167"><ele>90.0</ele><time>2026-03-29T12:30:24.577Z</time></trkpt><trkpt lat="44.8302017" lon="1.0190767"><ele>90.0</ele><time>2026-03-29T12:30:26.576Z</time></trkpt><trkpt lat="44.8301683" lon="1.01918"><ele>90.0</ele><time>2026-03-29T12:30:28.577Z</time></trkpt><trkpt lat="44.8300933" lon="1.0191917"><ele>90.0</ele><time>2026-03-29T12:30:32.577Z</time></trkpt><trkpt lat="44.830135" lon="1.0192617"><ele>90.0</ele><time>2026-03-29T12:37:30.575Z</time></trkpt><trkpt lat="44.830105" lon="1.0194217"><ele>90.25</ele><time>2026-03-29T12:37:32.575Z</time></trkpt><trkpt lat="44.8300733" lon="1.0195333"><ele>90.5</ele><time>2026-03-29T12:37:33.576Z</time></trkpt><trkpt lat="44.8300367" lon="1.0196583"><ele>90.75</ele><time>2026-03-29T12:37:34.575Z</time></trkpt><trkpt lat="44.8299817" lon="1.019825"><ele>91.0</ele><time>2026-03-29T12:37:35.576Z</time></trkpt><trkpt lat="44.82992" lon="1.0200033"><ele>91.0</ele><time>2026-03-29T12:37:36.575Z</time></trkpt><trkpt lat="44.8298517" lon="1.0202"><ele>91.0</ele><time>2026-03-29T12:37:37.575Z</time></trkpt><trkpt lat="44.82979" lon="1.0204067"><ele>91.0</ele><time>2026-03-29T12:37:38.576Z</time></trkpt><trkpt lat="44.82972" lon="1.0205983"><ele>91.0</ele><time>2026-03-29T12:37:39.576Z</time></trkpt><trkpt lat="44.829655" lon="1.0207717"><ele>91.0</ele><time>2026-03-29T12:37:40.575Z</time></trkpt><trkpt lat="44.829605" lon="1.0209383"><ele>91.0</ele><time>2026-03-29T12:37:41.576Z</time></trkpt><trkpt lat="44.829535" lon="1.0210633"><ele>91.0</ele><time>2026-03-29T12:37:42.575Z</time></trkpt><trkpt lat="44.8294533" lon="1.0211517"><ele>92.0</ele><time>2026-03-29T12:37:43.576Z</time></trkpt><trkpt lat="44.8293533" lon="1.0211917"><ele>93.0</ele><time>2026-03-29T12:37:44.576Z</time></trkpt><trkpt lat="44.82925" lon="1.021165"><ele>94.0</ele><time>2026-03-29T12:37:45.575Z</time></trkpt><trkpt lat="44.8291433" lon="1.0211417"><ele>95.0</ele><time>2026-03-29T12:37:46.576Z</time></trkpt><trkpt lat="44.8290483" lon="1.021125"><ele>96.0</ele><time>2026-03-29T12:37:47.575Z</time></trkpt><trkpt lat="44.8289517" lon="1.02111"><ele>96.0</ele><time>2026-03-29T12:37:48.575Z</time></trkpt><trkpt lat="44.8288617" lon="1.021095"><ele>96.0</ele><time>2026-03-29T12:37:49.576Z</time></trkpt><trkpt lat="44.8287767" lon="1.0210817"><ele>96.0</ele><time>2026-03-29T12:37:50.575Z</time></trkpt><trkpt lat="44.8286983" lon="1.0210667"><ele>96.0</ele><time>2026-03-29T12:37:51.576Z</time></trkpt><trkpt lat="44.8286183" lon="1.0210633"><ele>96.0</ele><time>2026-03-29T12:37:52.575Z</time></trkpt><trkpt lat="44.8285333" lon="1.0210583"><ele>96.0</ele><time>2026-03-29T12:37:53.576Z</time></trkpt><trkpt lat="44.8284517" lon="1.0210567"><ele>97.0</ele><time>2026-03-29T12:37:54.575Z</time></trkpt><trkpt lat="44.82837" lon="1.02108"><ele>98.0</ele><time>2026-03-29T12:37:55.576Z</time></trkpt><trkpt lat="44.8282917" lon="1.0211083"><ele>99.0</ele><time>2026-03-29T12:37:56.576Z</time></trkpt><trkpt lat="44.8282083" lon="1.0211433"><ele>100.0</ele><time>2026-03-29T12:37:57.575Z</time></trkpt><trkpt lat="44.828125" lon="1.0211883"><ele>101.0</ele><time>2026-03-29T12:37:58.575Z</time></trkpt><trkpt lat="44.8280433" lon="1.0212333"><ele>102.0</ele><time>2026-03-29T12:37:59.576Z</time></trkpt><trkpt lat="44.8279583" lon="1.02128"><ele>102.0</ele><time>2026-03-29T12:38:00.576Z</time></trkpt><trkpt lat="44.8278817" lon="1.0213367"><ele>102.0</ele><time>2026-03-29T12:38:01.576Z</time></trkpt><trkpt lat="44.8278133" lon="1.021385"><ele>102.0</ele><time>2026-03-29T12:38:02.576Z</time></trkpt><trkpt lat="44.8277483" lon="1.0214233"><ele>102.0</ele><time>2026-03-29T12:38:03.576Z</time></trkpt><trkpt lat="44.827685" lon="1.02146"><ele>102.0</ele><time>2026-03-29T12:38:04.575Z</time></trkpt><trkpt lat="44.82762" lon="1.0215"><ele>102.0</ele><time>2026-03-29T12:38:05.575Z</time></trkpt><trkpt lat="44.8275483" lon="1.0215417"><ele>103.0</ele><time>2026-03-29T12:38:06.576Z</time></trkpt><trkpt lat="44.8274733" lon="1.0215817"><ele>104.0</ele><time>2026-03-29T12:38:07.575Z</time></trkpt><trkpt lat="44.8273967" lon="1.0216183"><ele>105.0</ele><time>2026-03-29T12:38:08.575Z</time></trkpt><trkpt lat="44.8273117" lon="1.0216383"><ele>106.0</ele><time>2026-03-29T12:38:09.576Z</time></trkpt><trkpt lat="44.8272217" lon="1.021645"><ele>107.0</ele><time>2026-03-29T12:38:10.575Z</time></trkpt><trkpt lat="44.827135" lon="1.021655"><ele>108.0</ele><time>2026-03-29T12:38:11.576Z</time></trkpt><trkpt lat="44.82705" lon="1.021645"><ele>108.0</ele><time>2026-03-29T12:38:12.575Z</time></trkpt><trkpt lat="44.8269683" lon="1.021625"><ele>108.0</ele><time>2026-03-29T12:38:13.576Z</time></trkpt><trkpt lat="44.8268733" lon="1.021615"><ele>108.0</ele><time>2026-03-29T12:38:14.575Z</time></trkpt><trkpt lat="44.8267883" lon="1.021605"><ele>108.0</ele><time>2026-03-29T12:38:15.575Z</time></trkpt><trkpt lat="44.8267" lon="1.02159"><ele>108.0</ele><time>2026-03-29T12:38:16.575Z</time></trkpt><trkpt lat="44.8266133" lon="1.0215767"><ele>108.0</ele><time>2026-03-29T12:38:17.576Z</time></trkpt><trkpt lat="44.8265317" lon="1.02156"><ele>109.83333333333333</ele><time>2026-03-29T12:38:18.575Z</time></trkpt><trkpt lat="44.8264517" lon="1.0215567"><ele>111.66666666666666</ele><time>2026-03-29T12:38:19.576Z</time></trkpt><trkpt lat="44.8263667" lon="1.02156"><ele>113.5</ele><time>2026-03-29T12:38:20.575Z</time></trkpt><trkpt lat="44.8262867" lon="1.0215683"><ele>115.33333333333333</ele><time>2026-03-29T12:38:21.575Z</time></trkpt><trkpt lat="44.82621" lon="1.0215767"><ele>117.16666666666666</ele><time>2026-03-29T12:38:22.576Z</time></trkpt><trkpt lat="44.8261367" lon="1.021595"><ele>119.0</ele><time>2026-03-29T12:38:23.576Z</time></trkpt><trkpt lat="44.8260633" lon="1.02161"><ele>119.0</ele><time>2026-03-29T12:38:24.575Z</time></trkpt><trkpt lat="44.8259883" lon="1.02163"><ele>119.0</ele><time>2026-03-29T12:38:25.576Z</time></trkpt><trkpt lat="44.82592" lon="1.021645"><ele>119.0</ele><time>2026-03-29T12:38:26.576Z</time></trkpt><trkpt lat="44.82585" lon="1.0216733"><ele>119.0</ele><time>2026-03-29T12:38:27.576Z</time></trkpt><trkpt lat="44.82578" lon="1.0216933"><ele>119.0</ele><time>2026-03-29T12:38:28.576Z</time></trkpt><trkpt lat="44.8257067" lon="1.0217317"><ele>119.0</ele><time>2026-03-29T12:38:29.576Z</time></trkpt><trkpt lat="44.8256383" lon="1.0217867"><ele>119.0</ele><time>2026-03-29T12:38:30.575Z</time></trkpt><trkpt lat="44.8255733" lon="1.021865"><ele>121.4</ele><time>2026-03-29T12:38:31.576Z</time></trkpt><trkpt lat="44.8254983" lon="1.0219367"><ele>123.80000000000001</ele><time>2026-03-29T12:38:32.575Z</time></trkpt><trkpt lat="44.825415" lon="1.021985"><ele>126.19999999999999</ele><time>2026-03-29T12:38:33.575Z</time></trkpt><trkpt lat="44.8253267" lon="1.0220117"><ele>128.6</ele><time>2026-03-29T12:38:34.576Z</time></trkpt><trkpt lat="44.825235" lon="1.022"><ele>131.0</ele><time>2026-03-29T12:38:35.575Z</time></trkpt><trkpt lat="44.8251433" lon="1.021975"><ele>132.5</ele><time>2026-03-29T12:38:36.575Z</time></trkpt><trkpt lat="44.8250633" lon="1.0219483"><ele>134.0</ele><time>2026-03-29T12:38:37.576Z</time></trkpt><trkpt lat="44.8249917" lon="1.02193"><ele>135.5</ele><time>2026-03-29T12:38:38.576Z</time></trkpt><trkpt lat="44.8249133" lon="1.0218933"><ele>137.0</ele><time>2026-03-29T12:38:39.575Z</time></trkpt><trkpt lat="44.8248417" lon="1.02187"><ele>138.5</ele><time>2026-03-29T12:38:40.576Z</time></trkpt><trkpt lat="44.82477" lon="1.0218267"><ele>140.0</ele><time>2026-03-29T12:38:41.575Z</time></trkpt><trkpt lat="44.824695" lon="1.021775"><ele>140.0</ele><time>2026-03-29T12:38:42.576Z</time></trkpt><trkpt lat="44.8246183" lon="1.0217183"><ele>140.0</ele><time>2026-03-29T12:38:43.575Z</time></trkpt><trkpt lat="44.8245433" lon="1.0216683"><ele>140.0</ele><time>2026-03-29T12:38:44.575Z</time></trkpt><trkpt lat="44.8244667" lon="1.0216167"><ele>140.0</ele><time>2026-03-29T12:38:45.575Z</time></trkpt><trkpt lat="44.8243933" lon="1.021585"><ele>140.0</ele><time>2026-03-29T12:38:46.576Z</time></trkpt><trkpt lat="44.8243283" lon="1.0215533"><ele>140.0</ele><time>2026-03-29T12:38:47.576Z</time></trkpt><trkpt lat="44.824265" lon="1.021525"><ele>144.2</ele><time>2026-03-29T12:38:48.575Z</time></trkpt><trkpt lat="44.8241633" lon="1.0214633"><ele>148.4</ele><time>2026-03-29T12:38:50.575Z</time></trkpt><trkpt lat="44.8241067" lon="1.0214183"><ele>152.60000000000002</ele><time>2026-03-29T12:38:51.576Z</time></trkpt><trkpt lat="44.8240183" lon="1.0213367"><ele>156.8</ele><time>2026-03-29T12:38:53.575Z</time></trkpt><trkpt lat="44.823955" lon="1.0212433"><ele>161.0</ele><time>2026-03-29T12:38:55.575Z</time></trkpt><trkpt lat="44.823895" lon="1.0213433"><ele>161.0</ele><time>2026-03-29T12:38:58.576Z</time></trkpt><trkpt lat="44.823885" lon="1.021485"><ele>161.0</ele><time>2026-03-29T12:39:00.576Z</time></trkpt><trkpt lat="44.8238533" lon="1.0216183"><ele>161.0</ele><time>2026-03-29T12:39:02.575Z</time></trkpt><trkpt lat="44.82382" lon="1.021745"><ele>161.0</ele><time>2026-03-29T12:39:04.576Z</time></trkpt><trkpt lat="44.8237617" lon="1.0219"><ele>161.0</ele><time>2026-03-29T12:39:06.576Z</time></trkpt><trkpt lat="44.82369" lon="1.022025"><ele>160.0</ele><time>2026-03-29T12:39:08.576Z</time></trkpt><trkpt lat="44.8235833" lon="1.0220617"><ele>159.0</ele><time>2026-03-29T12:39:10.576Z</time></trkpt><trkpt lat="44.8234817" lon="1.0220533"><ele>158.0</ele><time>2026-03-29T12:39:11.575Z</time></trkpt><trkpt lat="44.8233833" lon="1.0220483"><ele>157.0</ele><time>2026-03-29T12:39:12.576Z</time></trkpt><trkpt lat="44.8232767" lon="1.02203"><ele>156.0</ele><time>2026-03-29T12:39:13.575Z</time></trkpt><trkpt lat="44.8231767" lon="1.0220033"><ele>159.6</ele><time>2026-03-29T12:39:14.575Z</time></trkpt><trkpt lat="44.82308" lon="1.0219817"><ele>163.2</ele><time>2026-03-29T12:39:15.576Z</time></trkpt><trkpt lat="44.8229933" lon="1.0219633"><ele>166.79999999999998</ele><time>2026-03-29T12:39:16.575Z</time></trkpt><trkpt lat="44.82292" lon="1.0219433"><ele>170.39999999999998</ele><time>2026-03-29T12:39:17.576Z</time></trkpt><trkpt lat="44.8228267" lon="1.02193"><ele>174.0</ele><time>2026-03-29T12:39:18.576Z</time></trkpt><trkpt lat="44.8227217" lon="1.0219333"><ele>177.0</ele><time>2026-03-29T12:39:19.576Z</time></trkpt><trkpt lat="44.8226283" lon="1.0219383"><ele>180.0</ele><time>2026-03-29T12:39:20.576Z</time></trkpt><trkpt lat="44.8225533" lon="1.0219433"><ele>183.0</ele><time>2026-03-29T12:39:21.576Z</time></trkpt><trkpt lat="44.8224467" lon="1.0219317"><ele>186.0</ele><time>2026-03-29T12:39:23.575Z</time></trkpt><trkpt lat="44.8223783" lon="1.0219183"><ele>189.0</ele><time>2026-03-29T12:39:25.575Z</time></trkpt><trkpt lat="44.8223083" lon="1.0219133"><ele>192.0</ele><time>2026-03-29T12:39:27.575Z</time></trkpt><trkpt lat="44.82224" lon="1.0219"><ele>192.0</ele><time>2026-03-29T12:39:29.575Z</time></trkpt><trkpt lat="44.8221567" lon="1.021895"><ele>192.0</ele><time>2026-03-29T12:39:31.576Z</time></trkpt><trkpt lat="44.82207" lon="1.0218917"><ele>192.0</ele><time>2026-03-29T12:39:33.576Z</time></trkpt><trkpt lat="44.8219783" lon="1.0219"><ele>192.0</ele><time>2026-03-29T12:39:35.575Z</time></trkpt><trkpt lat="44.8218667" lon="1.0219333"><ele>192.0</ele><time>2026-03-29T12:39:37.576Z</time></trkpt><trkpt lat="44.8217967" lon="1.021955"><ele>192.0</ele><time>2026-03-29T12:39:38.575Z</time></trkpt><trkpt lat="44.82173" lon="1.0219683"><ele>193.85714285714283</ele><time>2026-03-29T12:39:39.575Z</time></trkpt><trkpt lat="44.8216583" lon="1.0219733"><ele>195.71428571428572</ele><time>2026-03-29T12:39:40.576Z</time></trkpt><trkpt lat="44.82158" lon="1.021985"><ele>197.57142857142856</ele><time>2026-03-29T12:39:41.575Z</time></trkpt><trkpt lat="44.8215117" lon="1.0219933"><ele>199.42857142857142</ele><time>2026-03-29T12:39:42.576Z</time></trkpt><trkpt lat="44.821445" lon="1.022005"><ele>201.28571428571428</ele><time>2026-03-29T12:39:43.575Z</time></trkpt><trkpt lat="44.821375" lon="1.0220317"><ele>203.14285714285714</ele><time>2026-03-29T12:39:44.575Z</time></trkpt><trkpt lat="44.8213117" lon="1.02207"><ele>205.0</ele><time>2026-03-29T12:39:45.576Z</time></trkpt><trkpt lat="44.82124" lon="1.0221467"><ele>204.99999999999997</ele><time>2026-03-29T12:39:46.575Z</time></trkpt><trkpt lat="44.8211417" lon="1.0222717"><ele>205.0</ele><time>2026-03-29T12:39:48.576Z</time></trkpt><trkpt lat="44.8210883" lon="1.0223367"><ele>205.0</ele><time>2026-03-29T12:39:49.575Z</time></trkpt><trkpt lat="44.8210283" lon="1.0223983"><ele>205.0</ele><time>2026-03-29T12:39:50.576Z</time></trkpt><trkpt lat="44.8209683" lon="1.0224717"><ele>204.99999999999997</ele><time>2026-03-29T12:39:51.576Z</time></trkpt><trkpt lat="44.8208967" lon="1.022555"><ele>205.0</ele><time>2026-03-29T12:39:52.575Z</time></trkpt><trkpt lat="44.8208133" lon="1.02264"><ele>203.2</ele><time>2026-03-29T12:39:53.576Z</time></trkpt><trkpt lat="44.8207467" lon="1.0227"><ele>201.4</ele><time>2026-03-29T12:39:54.576Z</time></trkpt><trkpt lat="44.8206717" lon="1.0227783"><ele>199.60000000000002</ele><time>2026-03-29T12:39:55.576Z</time></trkpt><trkpt lat="44.8205933" lon="1.022845"><ele>197.8</ele><time>2026-03-29T12:39:56.576Z</time></trkpt><trkpt lat="44.82053" lon="1.0228983"><ele>196.0</ele><time>2026-03-29T12:39:57.575Z</time></trkpt><trkpt lat="44.8204217" lon="1.022965"><ele>196.0</ele><time>2026-03-29T12:39:59.575Z</time></trkpt><trkpt lat="44.82031" lon="1.0230083"><ele>196.0</ele><time>2026-03-29T12:40:01.575Z</time></trkpt><trkpt lat="44.8202033" lon="1.0230417"><ele>196.0</ele><time>2026-03-29T12:40:03.575Z</time></trkpt><trkpt lat="44.8200917" lon="1.0230867"><ele>196.0</ele><time>2026-03-29T12:40:05.575Z</time></trkpt><trkpt lat="44.8200267" lon="1.0231083"><ele>196.0</ele><time>2026-03-29T12:40:06.576Z</time></trkpt><trkpt lat="44.8199583" lon="1.0231383"><ele>195.33333333333331</ele><time>2026-03-29T12:40:07.575Z</time></trkpt><trkpt lat="44.8198817" lon="1.0231683"><ele>194.66666666666666</ele><time>2026-03-29T12:40:08.576Z</time></trkpt><trkpt lat="44.8198167" lon="1.0232033"><ele>194.0</ele><time>2026-03-29T12:40:09.575Z</time></trkpt><trkpt lat="44.81975" lon="1.0232483"><ele>193.33333333333331</ele><time>2026-03-29T12:40:10.576Z</time></trkpt><trkpt lat="44.8196883" lon="1.02329"><ele>192.66666666666666</ele><time>2026-03-29T12:40:11.575Z</time></trkpt><trkpt lat="44.8196233" lon="1.02335"><ele>192.0</ele><time>2026-03-29T12:40:12.576Z</time></trkpt><trkpt lat="44.8195583" lon="1.02342"><ele>192.0</ele><time>2026-03-29T12:40:13.575Z</time></trkpt><trkpt lat="44.81949" lon="1.023495"><ele>192.0</ele><time>2026-03-29T12:40:14.576Z</time></trkpt><trkpt lat="44.8194383" lon="1.0235567"><ele>192.0</ele><time>2026-03-29T12:40:15.576Z</time></trkpt><trkpt lat="44.81936" lon="1.023675"><ele>192.0</ele><time>2026-03-29T12:40:17.575Z</time></trkpt><trkpt lat="44.819285" lon="1.023785"><ele>192.0</ele><time>2026-03-29T12:40:19.575Z</time></trkpt><trkpt lat="44.8192367" lon="1.0238817"><ele>193.16666666666666</ele><time>2026-03-29T12:40:23.575Z</time></trkpt><trkpt lat="44.8192133" lon="1.02401"><ele>194.33333333333331</ele><time>2026-03-29T12:40:26.575Z</time></trkpt><trkpt lat="44.8191917" lon="1.0240983"><ele>195.5</ele><time>2026-03-29T12:40:28.576Z</time></trkpt><trkpt lat="44.8191717" lon="1.024185"><ele>196.66666666666666</ele><time>2026-03-29T12:40:30.575Z</time></trkpt><trkpt lat="44.81916" lon="1.0242783"><ele>197.83333333333331</ele><time>2026-03-29T12:40:32.576Z</time></trkpt><trkpt lat="44.8191633" lon="1.0244083"><ele>199.0</ele><time>2026-03-29T12:40:35.576Z</time></trkpt><trkpt lat="44.819175" lon="1.0245183"><ele>199.0</ele><time>2026-03-29T12:40:37.575Z</time></trkpt><trkpt lat="44.8191933" lon="1.024655"><ele>199.0</ele><time>2026-03-29T12:40:39.576Z</time></trkpt><trkpt lat="44.81923" lon="1.0247867"><ele>199.0</ele><time>2026-03-29T12:40:41.576Z</time></trkpt><trkpt lat="44.8192817" lon="1.0249317"><ele>199.0</ele><time>2026-03-29T12:40:43.576Z</time></trkpt><trkpt lat="44.819335" lon="1.02506"><ele>199.0</ele><time>2026-03-29T12:40:45.575Z</time></trkpt><trkpt lat="44.8193983" lon="1.0251767"><ele>194.99999999999997</ele><time>2026-03-29T12:40:47.576Z</time></trkpt><trkpt lat="44.8194267" lon="1.025265"><ele>191.0</ele><time>2026-03-29T12:40:48.576Z</time></trkpt><trkpt lat="44.819455" lon="1.0253517"><ele>187.0</ele><time>2026-03-29T12:40:49.576Z</time></trkpt><trkpt lat="44.81949" lon="1.025435"><ele>183.0</ele><time>2026-03-29T12:40:50.575Z</time></trkpt><trkpt lat="44.8195233" lon="1.025545"><ele>179.0</ele><time>2026-03-29T12:40:51.575Z</time></trkpt><trkpt lat="44.819555" lon="1.0256383"><ele>175.0</ele><time>2026-03-29T12:40:52.575Z</time></trkpt><trkpt lat="44.819585" lon="1.02576"><ele>177.5</ele><time>2026-03-29T12:40:53.576Z</time></trkpt><trkpt lat="44.8196117" lon="1.0258667"><ele>180.0</ele><time>2026-03-29T12:40:54.575Z</time></trkpt><trkpt lat="44.8196433" lon="1.0259717"><ele>182.5</ele><time>2026-03-29T12:40:55.575Z</time></trkpt><trkpt lat="44.8196767" lon="1.0260783"><ele>185.0</ele><time>2026-03-29T12:40:56.576Z</time></trkpt><trkpt lat="44.8197067" lon="1.02618"><ele>187.5</ele><time>2026-03-29T12:40:57.576Z</time></trkpt><trkpt lat="44.819725" lon="1.0263067"><ele>190.0</ele><time>2026-03-29T12:40:58.575Z</time></trkpt><trkpt lat="44.8197333" lon="1.0264117"><ele>190.0</ele><time>2026-03-29T12:40:59.576Z</time></trkpt><trkpt lat="44.8196967" lon="1.026525"><ele>190.0</ele><time>2026-03-29T12:41:01.575Z</time></trkpt><trkpt lat="44.8196483" lon="1.0265917"><ele>190.0</ele><time>2026-03-29T12:41:03.575Z</time></trkpt><trkpt lat="44.819575" lon="1.026625"><ele>190.0</ele><time>2026-03-29T12:41:05.576Z</time></trkpt><trkpt lat="44.8195017" lon="1.026685"><ele>190.0</ele><time>2026-03-29T12:41:07.575Z</time></trkpt><trkpt lat="44.8194567" lon="1.026815"><ele>190.0</ele><time>2026-03-29T12:41:09.575Z</time></trkpt><trkpt lat="44.8194317" lon="1.02692"><ele>192.5</ele><time>2026-03-29T12:41:10.576Z</time></trkpt><trkpt lat="44.8194" lon="1.0270483"><ele>195.0</ele><time>2026-03-29T12:41:11.575Z</time></trkpt><trkpt lat="44.8193633" lon="1.0271817"><ele>197.5</ele><time>2026-03-29T12:41:12.575Z</time></trkpt><trkpt lat="44.8193067" lon="1.0273383"><ele>200.0</ele><time>2026-03-29T12:41:13.576Z</time></trkpt><trkpt lat="44.81924" lon="1.0275183"><ele>203.2</ele><time>2026-03-29T12:41:14.575Z</time></trkpt><trkpt lat="44.8191633" lon="1.0276667"><ele>206.4</ele><time>2026-03-29T12:41:15.575Z</time></trkpt><trkpt lat="44.8190817" lon="1.0277833"><ele>209.60000000000002</ele><time>2026-03-29T12:41:16.575Z</time></trkpt><trkpt lat="44.8190083" lon="1.0278833"><ele>212.8</ele><time>2026-03-29T12:41:17.575Z</time></trkpt><trkpt lat="44.8189483" lon="1.0279767"><ele>216.0</ele><time>2026-03-29T12:41:18.575Z</time></trkpt><trkpt lat="44.8188833" lon="1.028085"><ele>216.0</ele><time>2026-03-29T12:41:19.575Z</time></trkpt><trkpt lat="44.8188033" lon="1.0282067"><ele>216.00000000000003</ele><time>2026-03-29T12:41:20.575Z</time></trkpt><trkpt lat="44.81876" lon="1.0283"><ele>216.00000000000003</ele><time>2026-03-29T12:41:21.575Z</time></trkpt><trkpt lat="44.818695" lon="1.0283867"><ele>216.0</ele><time>2026-03-29T12:41:23.575Z</time></trkpt><trkpt lat="44.818645" lon="1.02845"><ele>216.0</ele><time>2026-03-29T12:41:26.575Z</time></trkpt><trkpt lat="44.818575" lon="1.0285483"><ele>216.60000000000002</ele><time>2026-03-29T12:41:30.576Z</time></trkpt><trkpt lat="44.8185367" lon="1.0287"><ele>217.20000000000002</ele><time>2026-03-29T12:41:32.575Z</time></trkpt><trkpt lat="44.818505" lon="1.02882"><ele>217.79999999999998</ele><time>2026-03-29T12:41:33.575Z</time></trkpt><trkpt lat="44.8184817" lon="1.0289667"><ele>218.39999999999998</ele><time>2026-03-29T12:41:34.576Z</time></trkpt><trkpt lat="44.818455" lon="1.0291433"><ele>219.0</ele><time>2026-03-29T12:41:35.575Z</time></trkpt><trkpt lat="44.81844" lon="1.0293067"><ele>219.0</ele><time>2026-03-29T12:41:36.575Z</time></trkpt><trkpt lat="44.81843" lon="1.0294767"><ele>219.0</ele><time>2026-03-29T12:41:37.576Z</time></trkpt><trkpt lat="44.81843" lon="1.0296417"><ele>219.0</ele><time>2026-03-29T12:41:38.575Z</time></trkpt><trkpt lat="44.818435" lon="1.029815"><ele>219.0</ele><time>2026-03-29T12:41:39.575Z</time></trkpt><trkpt lat="44.818465" lon="1.029965"><ele>215.25</ele><time>2026-03-29T12:41:40.575Z</time></trkpt><trkpt lat="44.818505" lon="1.0301467"><ele>211.5</ele><time>2026-03-29T12:41:41.575Z</time></trkpt><trkpt lat="44.8185433" lon="1.0303233"><ele>207.75</ele><time>2026-03-29T12:41:42.575Z</time></trkpt><trkpt lat="44.8185667" lon="1.0305017"><ele>204.0</ele><time>2026-03-29T12:41:43.575Z</time></trkpt><trkpt lat="44.8185833" lon="1.0306733"><ele>203.0</ele><time>2026-03-29T12:41:44.575Z</time></trkpt><trkpt lat="44.8185717" lon="1.03084"><ele>202.0</ele><time>2026-03-29T12:41:45.576Z</time></trkpt><trkpt lat="44.8185467" lon="1.0309917"><ele>201.0</ele><time>2026-03-29T12:41:46.575Z</time></trkpt><trkpt lat="44.81852" lon="1.0311417"><ele>200.0</ele><time>2026-03-29T12:41:47.575Z</time></trkpt><trkpt lat="44.8184867" lon="1.0312767"><ele>199.0</ele><time>2026-03-29T12:41:48.575Z</time></trkpt><trkpt lat="44.8184567" lon="1.0314117"><ele>200.79999999999998</ele><time>2026-03-29T12:41:49.576Z</time></trkpt><trkpt lat="44.8184183" lon="1.031545"><ele>202.6</ele><time>2026-03-29T12:41:50.576Z</time></trkpt><trkpt lat="44.818375" lon="1.03168"><ele>204.4</ele><time>2026-03-29T12:41:51.576Z</time></trkpt><trkpt lat="44.8183333" lon="1.031795"><ele>206.2</ele><time>2026-03-29T12:41:52.575Z</time></trkpt><trkpt lat="44.8182783" lon="1.03192"><ele>208.0</ele><time>2026-03-29T12:41:53.576Z</time></trkpt><trkpt lat="44.818215" lon="1.0320367"><ele>208.0</ele><time>2026-03-29T12:41:54.575Z</time></trkpt><trkpt lat="44.8181633" lon="1.0321567"><ele>208.0</ele><time>2026-03-29T12:41:55.576Z</time></trkpt><trkpt lat="44.8181083" lon="1.0322633"><ele>208.0</ele><time>2026-03-29T12:41:56.575Z</time></trkpt><trkpt lat="44.8180667" lon="1.0323783"><ele>208.0</ele><time>2026-03-29T12:41:57.575Z</time></trkpt><trkpt lat="44.8180267" lon="1.03251"><ele>208.0</ele><time>2026-03-29T12:41:58.575Z</time></trkpt><trkpt lat="44.8179867" lon="1.0326533"><ele>208.5</ele><time>2026-03-29T12:41:59.575Z</time></trkpt><trkpt lat="44.817945" lon="1.0327967"><ele>209.0</ele><time>2026-03-29T12:42:00.576Z</time></trkpt><trkpt lat="44.8178867" lon="1.0329367"><ele>209.5</ele><time>2026-03-29T12:42:01.576Z</time></trkpt><trkpt lat="44.8178217" lon="1.0330767"><ele>210.0</ele><time>2026-03-29T12:42:02.576Z</time></trkpt><trkpt lat="44.817755" lon="1.033225"><ele>209.75</ele><time>2026-03-29T12:42:03.575Z</time></trkpt><trkpt lat="44.8176867" lon="1.0333817"><ele>209.5</ele><time>2026-03-29T12:42:04.575Z</time></trkpt><trkpt lat="44.8176067" lon="1.033535"><ele>209.25</ele><time>2026-03-29T12:42:05.575Z</time></trkpt><trkpt lat="44.817515" lon="1.0336717"><ele>209.0</ele><time>2026-03-29T12:42:06.575Z</time></trkpt><trkpt lat="44.8174433" lon="1.0337933"><ele>209.6</ele><time>2026-03-29T12:42:07.575Z</time></trkpt><trkpt lat="44.8173633" lon="1.0339"><ele>210.2</ele><time>2026-03-29T12:42:08.576Z</time></trkpt><trkpt lat="44.8172917" lon="1.033995"><ele>210.79999999999998</ele><time>2026-03-29T12:42:09.575Z</time></trkpt><trkpt lat="44.8172183" lon="1.034075"><ele>211.39999999999998</ele><time>2026-03-29T12:42:10.575Z</time></trkpt><trkpt lat="44.8171583" lon="1.0341217"><ele>212.0</ele><time>2026-03-29T12:42:11.575Z</time></trkpt><trkpt lat="44.8170883" lon="1.03418"><ele>212.00000000000003</ele><time>2026-03-29T12:42:13.575Z</time></trkpt><trkpt lat="44.8170133" lon="1.0342417"><ele>212.0</ele><time>2026-03-29T12:42:21.576Z</time></trkpt><trkpt lat="44.81694" lon="1.03418"><ele>212.0</ele><time>2026-03-29T12:42:25.575Z</time></trkpt><trkpt lat="44.81691" lon="1.0340733"><ele>212.0</ele><time>2026-03-29T12:42:29.575Z</time></trkpt><trkpt lat="44.816885" lon="1.0339633"><ele>212.00000000000003</ele><time>2026-03-29T12:42:33.576Z</time></trkpt><trkpt lat="44.81687" lon="1.0338683"><ele>212.0</ele><time>2026-03-29T12:42:36.575Z</time></trkpt><trkpt lat="44.8168217" lon="1.0337867"><ele>210.16666666666669</ele><time>2026-03-29T12:42:42.575Z</time></trkpt><trkpt lat="44.816775" lon="1.0337183"><ele>208.33333333333334</ele><time>2026-03-29T12:42:45.576Z</time></trkpt><trkpt lat="44.8167067" lon="1.0336833"><ele>206.5</ele><time>2026-03-29T12:42:49.576Z</time></trkpt><trkpt lat="44.8166283" lon="1.0336467"><ele>204.66666666666669</ele><time>2026-03-29T12:42:54.575Z</time></trkpt><trkpt lat="44.8165" lon="1.0335717"><ele>202.83333333333334</ele><time>2026-03-29T12:43:01.576Z</time></trkpt><trkpt lat="44.816425" lon="1.0335167"><ele>201.0</ele><time>2026-03-29T12:43:04.575Z</time></trkpt><trkpt lat="44.8163533" lon="1.0335"><ele>201.0</ele><time>2026-03-29T12:43:06.575Z</time></trkpt><trkpt lat="44.8162583" lon="1.0334917"><ele>201.0</ele><time>2026-03-29T12:43:09.575Z</time></trkpt><trkpt lat="44.8161867" lon="1.0334933"><ele>201.0</ele><time>2026-03-29T12:43:12.575Z</time></trkpt><trkpt lat="44.81612" lon="1.0335033"><ele>201.0</ele><time>2026-03-29T12:43:15.575Z</time></trkpt><trkpt lat="44.8160283" lon="1.0334967"><ele>201.0</ele><time>2026-03-29T12:43:18.576Z</time></trkpt><trkpt lat="44.8159717" lon="1.0334517"><ele>201.0</ele><time>2026-03-29T12:43:20.576Z</time></trkpt><trkpt lat="44.815915" lon="1.0333583"><ele>197.0</ele><time>2026-03-29T12:43:22.575Z</time></trkpt><trkpt lat="44.81584" lon="1.0332333"><ele>193.0</ele><time>2026-03-29T12:43:24.576Z</time></trkpt><trkpt lat="44.8157733" lon="1.03312"><ele>189.0</ele><time>2026-03-29T12:43:26.575Z</time></trkpt><trkpt lat="44.8157233" lon="1.0330467"><ele>185.0</ele><time>2026-03-29T12:43:27.575Z</time></trkpt><trkpt lat="44.8156767" lon="1.03297"><ele>181.0</ele><time>2026-03-29T12:43:28.575Z</time></trkpt><trkpt lat="44.8156317" lon="1.0329033"><ele>177.0</ele><time>2026-03-29T12:43:29.576Z</time></trkpt><trkpt lat="44.8155867" lon="1.0328183"><ele>177.0</ele><time>2026-03-29T12:43:30.576Z</time></trkpt><trkpt lat="44.8155417" lon="1.0327517"><ele>177.0</ele><time>2026-03-29T12:43:31.576Z</time></trkpt><trkpt lat="44.8154933" lon="1.0326883"><ele>177.0</ele><time>2026-03-29T12:43:32.576Z</time></trkpt><trkpt lat="44.81544" lon="1.0326217"><ele>177.0</ele><time>2026-03-29T12:43:33.576Z</time></trkpt><trkpt lat="44.8153517" lon="1.0325167"><ele>177.0</ele><time>2026-03-29T12:43:35.575Z</time></trkpt><trkpt lat="44.8152917" lon="1.03246"><ele>177.0</ele><time>2026-03-29T12:43:37.576Z</time></trkpt><trkpt lat="44.8152267" lon="1.032435"><ele>177.5</ele><time>2026-03-29T12:43:40.576Z</time></trkpt><trkpt lat="44.8151233" lon="1.03244"><ele>178.0</ele><time>2026-03-29T12:43:43.575Z</time></trkpt><trkpt lat="44.8150233" lon="1.032455"><ele>178.5</ele><time>2026-03-29T12:43:45.575Z</time></trkpt><trkpt lat="44.8149333" lon="1.0325"><ele>179.0</ele><time>2026-03-29T12:43:47.576Z</time></trkpt><trkpt lat="44.81487" lon="1.03253"><ele>179.5</ele><time>2026-03-29T12:43:49.575Z</time></trkpt><trkpt lat="44.8148117" lon="1.0325883"><ele>180.0</ele><time>2026-03-29T12:43:52.576Z</time></trkpt><trkpt lat="44.81474" lon="1.0326867"><ele>180.0</ele><time>2026-03-29T12:44:02.575Z</time></trkpt><trkpt lat="44.814635" lon="1.0327383"><ele>180.0</ele><time>2026-03-29T12:44:16.574Z</time></trkpt><trkpt lat="44.8146533" lon="1.0326017"><ele>180.0</ele><time>2026-03-29T12:44:29.575Z</time></trkpt><trkpt lat="44.8146967" lon="1.03252"><ele>180.0</ele><time>2026-03-29T12:44:33.575Z</time></trkpt><trkpt lat="44.814735" lon="1.032445"><ele>180.0</ele><time>2026-03-29T12:44:35.575Z</time></trkpt><trkpt lat="44.8147867" lon="1.03236"><ele>180.0</ele><time>2026-03-29T12:44:38.574Z</time></trkpt><trkpt lat="44.8148283" lon="1.03226"><ele>177.16666666666666</ele><time>2026-03-29T12:44:42.575Z</time></trkpt><trkpt lat="44.8148717" lon="1.0321683"><ele>174.33333333333334</ele><time>2026-03-29T12:44:45.574Z</time></trkpt><trkpt lat="44.814905" lon="1.03209"><ele>171.5</ele><time>2026-03-29T12:44:47.574Z</time></trkpt><trkpt lat="44.8149483" lon="1.0319967"><ele>168.66666666666669</ele><time>2026-03-29T12:44:51.575Z</time></trkpt><trkpt lat="44.8150117" lon="1.0318967"><ele>165.83333333333334</ele><time>2026-03-29T12:44:56.575Z</time></trkpt><trkpt lat="44.8150767" lon="1.0318167"><ele>163.0</ele><time>2026-03-29T12:44:59.574Z</time></trkpt><trkpt lat="44.815155" lon="1.0317633"><ele>163.0</ele><time>2026-03-29T12:45:02.574Z</time></trkpt><trkpt lat="44.81523" lon="1.03174"><ele>163.0</ele><time>2026-03-29T12:45:04.574Z</time></trkpt><trkpt lat="44.81531" lon="1.0316983"><ele>163.0</ele><time>2026-03-29T12:45:06.575Z</time></trkpt><trkpt lat="44.8153717" lon="1.0316517"><ele>163.0</ele><time>2026-03-29T12:45:08.574Z</time></trkpt><trkpt lat="44.8154333" lon="1.03163"><ele>163.0</ele><time>2026-03-29T12:45:11.575Z</time></trkpt><trkpt lat="44.8155067" lon="1.0315833"><ele>163.0</ele><time>2026-03-29T12:45:15.574Z</time></trkpt><trkpt lat="44.8155733" lon="1.0315267"><ele>162.14285714285714</ele><time>2026-03-29T12:45:17.575Z</time></trkpt><trkpt lat="44.8156333" lon="1.0314633"><ele>161.28571428571428</ele><time>2026-03-29T12:45:19.574Z</time></trkpt><trkpt lat="44.8156917" lon="1.03142"><ele>160.42857142857142</ele><time>2026-03-29T12:45:21.575Z</time></trkpt><trkpt lat="44.8157517" lon="1.031375"><ele>159.57142857142856</ele><time>2026-03-29T12:45:23.574Z</time></trkpt><trkpt lat="44.8157883" lon="1.0312983"><ele>158.71428571428572</ele><time>2026-03-29T12:45:26.574Z</time></trkpt><trkpt lat="44.8157633" lon="1.0311933"><ele>157.85714285714283</ele><time>2026-03-29T12:45:29.575Z</time></trkpt><trkpt lat="44.8157117" lon="1.0311217"><ele>157.0</ele><time>2026-03-29T12:45:31.574Z</time></trkpt><trkpt lat="44.8156683" lon="1.03104"><ele>156.99999999999997</ele><time>2026-03-29T12:45:33.575Z</time></trkpt><trkpt lat="44.81562" lon="1.0309267"><ele>157.0</ele><time>2026-03-29T12:45:36.574Z</time></trkpt><trkpt lat="44.815565" lon="1.0308817"><ele>157.0</ele><time>2026-03-29T12:45:38.575Z</time></trkpt><trkpt lat="44.8155033" lon="1.0308217"><ele>157.0</ele><time>2026-03-29T12:45:41.574Z</time></trkpt><trkpt lat="44.8154417" lon="1.03078"><ele>157.0</ele><time>2026-03-29T12:45:43.575Z</time></trkpt><trkpt lat="44.8153683" lon="1.030755"><ele>156.99999999999997</ele><time>2026-03-29T12:45:45.574Z</time></trkpt><trkpt lat="44.8153" lon="1.0307317"><ele>157.0</ele><time>2026-03-29T12:45:47.574Z</time></trkpt><trkpt lat="44.8152" lon="1.03069"><ele>152.4</ele><time>2026-03-29T12:45:49.575Z</time></trkpt><trkpt lat="44.8151133" lon="1.0306117"><ele>147.79999999999998</ele><time>2026-03-29T12:45:51.575Z</time></trkpt><trkpt lat="44.815065" lon="1.030535"><ele>143.2</ele><time>2026-03-29T12:45:53.574Z</time></trkpt><trkpt lat="44.8150167" lon="1.0304533"><ele>138.6</ele><time>2026-03-29T12:45:56.574Z</time></trkpt><trkpt lat="44.8149017" lon="1.030375"><ele>134.0</ele><time>2026-03-29T12:46:04.575Z</time></trkpt><trkpt lat="44.8148133" lon="1.0303983"><ele>134.0</ele><time>2026-03-29T12:46:06.574Z</time></trkpt><trkpt lat="44.814685" lon="1.0304667"><ele>134.0</ele><time>2026-03-29T12:46:08.575Z</time></trkpt><trkpt lat="44.81462" lon="1.0305317"><ele>134.0</ele><time>2026-03-29T12:46:09.574Z</time></trkpt><trkpt lat="44.8145483" lon="1.0306183"><ele>134.0</ele><time>2026-03-29T12:46:10.575Z</time></trkpt><trkpt lat="44.8144833" lon="1.0307217"><ele>134.0</ele><time>2026-03-29T12:46:11.574Z</time></trkpt><trkpt lat="44.8144217" lon="1.03083"><ele>134.8</ele><time>2026-03-29T12:46:12.575Z</time></trkpt><trkpt lat="44.8143533" lon="1.0309383"><ele>135.60000000000002</ele><time>2026-03-29T12:46:13.574Z</time></trkpt><trkpt lat="44.8142917" lon="1.0310383"><ele>136.4</ele><time>2026-03-29T12:46:14.575Z</time></trkpt><trkpt lat="44.8142217" lon="1.0311567"><ele>137.20000000000002</ele><time>2026-03-29T12:46:15.575Z</time></trkpt><trkpt lat="44.8141533" lon="1.031275"><ele>138.0</ele><time>2026-03-29T12:46:16.574Z</time></trkpt><trkpt lat="44.8140867" lon="1.0314083"><ele>138.0</ele><time>2026-03-29T12:46:17.574Z</time></trkpt><trkpt lat="44.8140117" lon="1.0315433"><ele>138.0</ele><time>2026-03-29T12:46:18.575Z</time></trkpt><trkpt lat="44.8139217" lon="1.03167"><ele>138.0</ele><time>2026-03-29T12:46:19.574Z</time></trkpt><trkpt lat="44.8138167" lon="1.0317667"><ele>138.0</ele><time>2026-03-29T12:46:20.575Z</time></trkpt><trkpt lat="44.813735" lon="1.0318517"><ele>138.0</ele><time>2026-03-29T12:46:21.575Z</time></trkpt><trkpt lat="44.813665" lon="1.0319333"><ele>138.0</ele><time>2026-03-29T12:46:22.575Z</time></trkpt><trkpt lat="44.8135967" lon="1.032035"><ele>138.0</ele><time>2026-03-29T12:46:23.574Z</time></trkpt><trkpt lat="44.8135433" lon="1.032135"><ele>138.0</ele><time>2026-03-29T12:46:24.575Z</time></trkpt><trkpt lat="44.813495" lon="1.0322583"><ele>138.0</ele><time>2026-03-29T12:46:25.574Z</time></trkpt><trkpt lat="44.8134567" lon="1.0323917"><ele>136.75</ele><time>2026-03-29T12:46:26.575Z</time></trkpt><trkpt lat="44.8134183" lon="1.032545"><ele>135.5</ele><time>2026-03-29T12:46:27.574Z</time></trkpt><trkpt lat="44.813375" lon="1.0326933"><ele>134.25</ele><time>2026-03-29T12:46:28.574Z</time></trkpt><trkpt lat="44.81333" lon="1.0328317"><ele>133.0</ele><time>2026-03-29T12:46:29.575Z</time></trkpt><trkpt lat="44.8132883" lon="1.0329933"><ele>133.0</ele><time>2026-03-29T12:46:30.575Z</time></trkpt><trkpt lat="44.8132367" lon="1.033135"><ele>133.0</ele><time>2026-03-29T12:46:31.575Z</time></trkpt><trkpt lat="44.8131917" lon="1.0332933"><ele>133.0</ele><time>2026-03-29T12:46:32.575Z</time></trkpt><trkpt lat="44.813125" lon="1.0334383"><ele>133.0</ele><time>2026-03-29T12:46:33.574Z</time></trkpt><trkpt lat="44.8130567" lon="1.03359"><ele>134.8</ele><time>2026-03-29T12:46:34.575Z</time></trkpt><trkpt lat="44.8129967" lon="1.0337283"><ele>136.60000000000002</ele><time>2026-03-29T12:46:35.574Z</time></trkpt><trkpt lat="44.812945" lon="1.0338517"><ele>138.39999999999998</ele><time>2026-03-29T12:46:36.574Z</time></trkpt><trkpt lat="44.81289" lon="1.0339717"><ele>140.2</ele><time>2026-03-29T12:46:37.575Z</time></trkpt><trkpt lat="44.812835" lon="1.0341067"><ele>142.0</ele><time>2026-03-29T12:46:38.574Z</time></trkpt><trkpt lat="44.8127767" lon="1.03424"><ele>144.4</ele><time>2026-03-29T12:46:39.574Z</time></trkpt><trkpt lat="44.81274" lon="1.0343683"><ele>146.79999999999998</ele><time>2026-03-29T12:46:40.574Z</time></trkpt><trkpt lat="44.8127133" lon="1.0344967"><ele>149.2</ele><time>2026-03-29T12:46:41.575Z</time></trkpt><trkpt lat="44.8126933" lon="1.03463"><ele>151.6</ele><time>2026-03-29T12:46:42.575Z</time></trkpt><trkpt lat="44.81269" lon="1.034765"><ele>154.0</ele><time>2026-03-29T12:46:43.574Z</time></trkpt><trkpt lat="44.8126933" lon="1.0348933"><ele>156.0</ele><time>2026-03-29T12:46:44.574Z</time></trkpt><trkpt lat="44.812695" lon="1.035035"><ele>158.0</ele><time>2026-03-29T12:46:45.574Z</time></trkpt><trkpt lat="44.8126917" lon="1.0352067"><ele>160.0</ele><time>2026-03-29T12:46:46.575Z</time></trkpt><trkpt lat="44.8126733" lon="1.035355"><ele>162.0</ele><time>2026-03-29T12:46:47.575Z</time></trkpt><trkpt lat="44.8126617" lon="1.035505"><ele>164.0</ele><time>2026-03-29T12:46:48.575Z</time></trkpt><trkpt lat="44.812665" lon="1.0356533"><ele>164.79999999999998</ele><time>2026-03-29T12:46:49.575Z</time></trkpt><trkpt lat="44.81267" lon="1.035805"><ele>165.6</ele><time>2026-03-29T12:46:50.574Z</time></trkpt><trkpt lat="44.8126833" lon="1.0359383"><ele>166.4</ele><time>2026-03-29T12:46:51.575Z</time></trkpt><trkpt lat="44.8127233" lon="1.0360667"><ele>167.2</ele><time>2026-03-29T12:46:52.574Z</time></trkpt><trkpt lat="44.81277" lon="1.0361833"><ele>168.0</ele><time>2026-03-29T12:46:53.575Z</time></trkpt><trkpt lat="44.81283" lon="1.03629"><ele>168.0</ele><time>2026-03-29T12:46:54.575Z</time></trkpt><trkpt lat="44.8128917" lon="1.0363917"><ele>168.0</ele><time>2026-03-29T12:46:55.575Z</time></trkpt><trkpt lat="44.8129583" lon="1.0365"><ele>168.0</ele><time>2026-03-29T12:46:56.575Z</time></trkpt><trkpt lat="44.8130333" lon="1.036595"><ele>168.0</ele><time>2026-03-29T12:46:57.574Z</time></trkpt><trkpt lat="44.8131117" lon="1.036675"><ele>168.0</ele><time>2026-03-29T12:46:58.575Z</time></trkpt><trkpt lat="44.8131817" lon="1.03676"><ele>167.0</ele><time>2026-03-29T12:46:59.574Z</time></trkpt><trkpt lat="44.81324" lon="1.036855"><ele>166.0</ele><time>2026-03-29T12:47:00.575Z</time></trkpt><trkpt lat="44.81332" lon="1.0369617"><ele>165.0</ele><time>2026-03-29T12:47:01.574Z</time></trkpt><trkpt lat="44.8133983" lon="1.03707"><ele>164.0</ele><time>2026-03-29T12:47:02.574Z</time></trkpt><trkpt lat="44.8134767" lon="1.0371917"><ele>163.0</ele><time>2026-03-29T12:47:03.574Z</time></trkpt><trkpt lat="44.813565" lon="1.0373167"><ele>167.0</ele><time>2026-03-29T12:47:04.574Z</time></trkpt><trkpt lat="44.8136517" lon="1.0374333"><ele>171.0</ele><time>2026-03-29T12:47:05.574Z</time></trkpt><trkpt lat="44.8137333" lon="1.0375433"><ele>175.0</ele><time>2026-03-29T12:47:06.575Z</time></trkpt><trkpt lat="44.8138133" lon="1.0376567"><ele>179.0</ele><time>2026-03-29T12:47:07.575Z</time></trkpt><trkpt lat="44.8139017" lon="1.0377633"><ele>179.0</ele><time>2026-03-29T12:47:08.574Z</time></trkpt><trkpt lat="44.8139833" lon="1.03787"><ele>179.0</ele><time>2026-03-29T12:47:09.575Z</time></trkpt><trkpt lat="44.8140633" lon="1.0379767"><ele>179.0</ele><time>2026-03-29T12:47:10.575Z</time></trkpt><trkpt lat="44.814145" lon="1.0380883"><ele>179.0</ele><time>2026-03-29T12:47:11.574Z</time></trkpt><trkpt lat="44.8142183" lon="1.0382083"><ele>179.0</ele><time>2026-03-29T12:47:12.574Z</time></trkpt><trkpt lat="44.8142817" lon="1.0383317"><ele>184.25</ele><time>2026-03-29T12:47:13.574Z</time></trkpt><trkpt lat="44.814345" lon="1.0384733"><ele>189.5</ele><time>2026-03-29T12:47:14.574Z</time></trkpt><trkpt lat="44.8144067" lon="1.03862"><ele>194.75</ele><time>2026-03-29T12:47:15.574Z</time></trkpt><trkpt lat="44.8144567" lon="1.038775"><ele>200.0</ele><time>2026-03-29T12:47:16.574Z</time></trkpt><trkpt lat="44.8145033" lon="1.038915"><ele>200.0</ele><time>2026-03-29T12:47:17.575Z</time></trkpt><trkpt lat="44.814535" lon="1.0390467"><ele>200.0</ele><time>2026-03-29T12:47:18.575Z</time></trkpt><trkpt lat="44.8145467" lon="1.0391983"><ele>200.0</ele><time>2026-03-29T12:47:19.575Z</time></trkpt><trkpt lat="44.814555" lon="1.0393583"><ele>200.0</ele><time>2026-03-29T12:47:20.575Z</time></trkpt><trkpt lat="44.8145583" lon="1.0395133"><ele>200.0</ele><time>2026-03-29T12:47:21.574Z</time></trkpt><trkpt lat="44.8145433" lon="1.0396667"><ele>198.8</ele><time>2026-03-29T12:47:22.574Z</time></trkpt><trkpt lat="44.8145333" lon="1.0398233"><ele>197.6</ele><time>2026-03-29T12:47:23.574Z</time></trkpt><trkpt lat="44.8145367" lon="1.0399767"><ele>196.39999999999998</ele><time>2026-03-29T12:47:24.575Z</time></trkpt><trkpt lat="44.8145467" lon="1.0401283"><ele>195.2</ele><time>2026-03-29T12:47:25.574Z</time></trkpt><trkpt lat="44.8145533" lon="1.0402817"><ele>194.0</ele><time>2026-03-29T12:47:26.574Z</time></trkpt><trkpt lat="44.8145817" lon="1.04043"><ele>193.0</ele><time>2026-03-29T12:47:27.574Z</time></trkpt><trkpt lat="44.8146083" lon="1.0405917"><ele>192.0</ele><time>2026-03-29T12:47:28.575Z</time></trkpt><trkpt lat="44.8146417" lon="1.0407483"><ele>191.0</ele><time>2026-03-29T12:47:29.574Z</time></trkpt><trkpt lat="44.81469" lon="1.0408917"><ele>190.0</ele><time>2026-03-29T12:47:30.575Z</time></trkpt><trkpt lat="44.8147367" lon="1.0410333"><ele>190.2</ele><time>2026-03-29T12:47:31.575Z</time></trkpt><trkpt lat="44.8147583" lon="1.041175"><ele>190.4</ele><time>2026-03-29T12:47:32.574Z</time></trkpt><trkpt lat="44.8147667" lon="1.0413167"><ele>190.60000000000002</ele><time>2026-03-29T12:47:33.575Z</time></trkpt><trkpt lat="44.8147683" lon="1.0414667"><ele>190.8</ele><time>2026-03-29T12:47:34.574Z</time></trkpt><trkpt lat="44.8147367" lon="1.0415967"><ele>191.0</ele><time>2026-03-29T12:47:35.574Z</time></trkpt><trkpt lat="44.8147117" lon="1.041725"><ele>191.0</ele><time>2026-03-29T12:47:36.575Z</time></trkpt><trkpt lat="44.8146883" lon="1.0418717"><ele>191.0</ele><time>2026-03-29T12:47:37.575Z</time></trkpt><trkpt lat="44.81466" lon="1.0420083"><ele>191.0</ele><time>2026-03-29T12:47:38.574Z</time></trkpt><trkpt lat="44.8146333" lon="1.04212"><ele>191.0</ele><time>2026-03-29T12:47:39.575Z</time></trkpt><trkpt lat="44.8146183" lon="1.042225"><ele>191.0</ele><time>2026-03-29T12:47:40.575Z</time></trkpt><trkpt lat="44.814595" lon="1.0423317"><ele>191.0</ele><time>2026-03-29T12:47:41.574Z</time></trkpt><trkpt lat="44.8145717" lon="1.04243"><ele>191.83333333333331</ele><time>2026-03-29T12:47:42.575Z</time></trkpt><trkpt lat="44.8145517" lon="1.0425217"><ele>192.66666666666666</ele><time>2026-03-29T12:47:43.575Z</time></trkpt><trkpt lat="44.8145167" lon="1.042625"><ele>193.5</ele><time>2026-03-29T12:47:44.575Z</time></trkpt><trkpt lat="44.8144933" lon="1.04272"><ele>194.33333333333331</ele><time>2026-03-29T12:47:45.574Z</time></trkpt><trkpt lat="44.8144717" lon="1.0428967"><ele>195.16666666666666</ele><time>2026-03-29T12:47:47.575Z</time></trkpt><trkpt lat="44.81445" lon="1.0429833"><ele>196.0</ele><time>2026-03-29T12:47:48.575Z</time></trkpt><trkpt lat="44.814415" lon="1.0430583"><ele>195.99999999999997</ele><time>2026-03-29T12:47:49.575Z</time></trkpt><trkpt lat="44.8143683" lon="1.0431217"><ele>196.0</ele><time>2026-03-29T12:47:50.574Z</time></trkpt><trkpt lat="44.8143033" lon="1.0431617"><ele>196.0</ele><time>2026-03-29T12:47:51.574Z</time></trkpt><trkpt lat="44.814235" lon="1.0431933"><ele>196.0</ele><time>2026-03-29T12:47:52.575Z</time></trkpt><trkpt lat="44.8141483" lon="1.0432117"><ele>195.99999999999997</ele><time>2026-03-29T12:47:53.574Z</time></trkpt><trkpt lat="44.8140467" lon="1.0432433"><ele>196.0</ele><time>2026-03-29T12:47:54.575Z</time></trkpt><trkpt lat="44.8139267" lon="1.0432883"><ele>197.0</ele><time>2026-03-29T12:47:55.575Z</time></trkpt><trkpt lat="44.8138067" lon="1.043335"><ele>198.0</ele><time>2026-03-29T12:47:56.574Z</time></trkpt><trkpt lat="44.813685" lon="1.0433867"><ele>199.0</ele><time>2026-03-29T12:47:57.574Z</time></trkpt><trkpt lat="44.81355" lon="1.04343"><ele>200.0</ele><time>2026-03-29T12:47:58.575Z</time></trkpt><trkpt lat="44.8134317" lon="1.043445"><ele>200.0</ele><time>2026-03-29T12:47:59.575Z</time></trkpt><trkpt lat="44.8133083" lon="1.0434417"><ele>200.0</ele><time>2026-03-29T12:48:00.575Z</time></trkpt><trkpt lat="44.8131733" lon="1.0433833"><ele>200.0</ele><time>2026-03-29T12:48:01.575Z</time></trkpt><trkpt lat="44.8130517" lon="1.0433067"><ele>200.0</ele><time>2026-03-29T12:48:02.574Z</time></trkpt><trkpt lat="44.8129417" lon="1.0432083"><ele>200.33333333333334</ele><time>2026-03-29T12:48:03.574Z</time></trkpt><trkpt lat="44.8128717" lon="1.0430983"><ele>200.66666666666669</ele><time>2026-03-29T12:48:04.574Z</time></trkpt><trkpt lat="44.8128017" lon="1.0430133"><ele>201.0</ele><time>2026-03-29T12:48:05.575Z</time></trkpt><trkpt lat="44.8127533" lon="1.0429317"><ele>201.33333333333331</ele><time>2026-03-29T12:48:06.574Z</time></trkpt><trkpt lat="44.8127067" lon="1.0428617"><ele>201.66666666666666</ele><time>2026-03-29T12:48:07.574Z</time></trkpt><trkpt lat="44.81266" lon="1.0428017"><ele>202.0</ele><time>2026-03-29T12:48:08.575Z</time></trkpt><trkpt lat="44.8125833" lon="1.042775"><ele>202.0</ele><time>2026-03-29T12:48:10.574Z</time></trkpt><trkpt lat="44.8125067" lon="1.04283"><ele>202.0</ele><time>2026-03-29T12:48:12.574Z</time></trkpt><trkpt lat="44.8124767" lon="1.0429217"><ele>202.0</ele><time>2026-03-29T12:48:14.575Z</time></trkpt><trkpt lat="44.8125067" lon="1.043005"><ele>202.0</ele><time>2026-03-29T12:48:16.574Z</time></trkpt><trkpt lat="44.81258" lon="1.0431417"><ele>202.0</ele><time>2026-03-29T12:48:19.575Z</time></trkpt><trkpt lat="44.8126567" lon="1.043255"><ele>201.66666666666666</ele><time>2026-03-29T12:48:21.574Z</time></trkpt><trkpt lat="44.8127167" lon="1.04334"><ele>201.33333333333331</ele><time>2026-03-29T12:48:22.574Z</time></trkpt><trkpt lat="44.8127917" lon="1.0434617"><ele>201.0</ele><time>2026-03-29T12:48:24.575Z</time></trkpt><trkpt lat="44.81284" lon="1.0435383"><ele>200.66666666666669</ele><time>2026-03-29T12:48:25.575Z</time></trkpt><trkpt lat="44.8129" lon="1.0435883"><ele>200.33333333333334</ele><time>2026-03-29T12:48:26.575Z</time></trkpt><trkpt lat="44.8129533" lon="1.043655"><ele>200.0</ele><time>2026-03-29T12:48:27.575Z</time></trkpt><trkpt lat="44.81299" lon="1.04373"><ele>200.00000000000003</ele><time>2026-03-29T12:48:28.575Z</time></trkpt><trkpt lat="44.8130467" lon="1.043805"><ele>200.0</ele><time>2026-03-29T12:48:29.574Z</time></trkpt><trkpt lat="44.8131183" lon="1.043895"><ele>200.0</ele><time>2026-03-29T12:48:30.574Z</time></trkpt><trkpt lat="44.8131917" lon="1.0439867"><ele>200.0</ele><time>2026-03-29T12:48:31.575Z</time></trkpt><trkpt lat="44.8132517" lon="1.0440633"><ele>200.00000000000003</ele><time>2026-03-29T12:48:32.575Z</time></trkpt><trkpt lat="44.8133033" lon="1.0441567"><ele>200.0</ele><time>2026-03-29T12:48:33.574Z</time></trkpt><trkpt lat="44.8133483" lon="1.04426"><ele>199.6</ele><time>2026-03-29T12:48:34.574Z</time></trkpt><trkpt lat="44.8133983" lon="1.0443583"><ele>199.2</ele><time>2026-03-29T12:48:35.575Z</time></trkpt><trkpt lat="44.813435" lon="1.0444633"><ele>198.8</ele><time>2026-03-29T12:48:36.575Z</time></trkpt><trkpt lat="44.813475" lon="1.0445983"><ele>198.4</ele><time>2026-03-29T12:48:37.575Z</time></trkpt><trkpt lat="44.8135067" lon="1.04473"><ele>198.0</ele><time>2026-03-29T12:48:38.574Z</time></trkpt><trkpt lat="44.813525" lon="1.0448767"><ele>200.0</ele><time>2026-03-29T12:48:39.574Z</time></trkpt><trkpt lat="44.81355" lon="1.0450117"><ele>202.0</ele><time>2026-03-29T12:48:40.575Z</time></trkpt><trkpt lat="44.8135667" lon="1.045145"><ele>204.0</ele><time>2026-03-29T12:48:41.575Z</time></trkpt><trkpt lat="44.8135817" lon="1.045285"><ele>206.0</ele><time>2026-03-29T12:48:42.575Z</time></trkpt><trkpt lat="44.8135783" lon="1.0454283"><ele>208.0</ele><time>2026-03-29T12:48:43.574Z</time></trkpt><trkpt lat="44.8135767" lon="1.0455467"><ele>207.99999999999997</ele><time>2026-03-29T12:48:44.574Z</time></trkpt><trkpt lat="44.8135767" lon="1.0456533"><ele>208.0</ele><time>2026-03-29T12:48:45.574Z</time></trkpt><trkpt lat="44.8135817" lon="1.045745"><ele>208.0</ele><time>2026-03-29T12:48:46.574Z</time></trkpt><trkpt lat="44.813595" lon="1.0458867"><ele>208.0</ele><time>2026-03-29T12:48:48.574Z</time></trkpt><trkpt lat="44.8136483" lon="1.04599"><ele>207.99999999999997</ele><time>2026-03-29T12:48:50.574Z</time></trkpt><trkpt lat="44.8137017" lon="1.0461017"><ele>208.0</ele><time>2026-03-29T12:48:52.574Z</time></trkpt><trkpt lat="44.8137867" lon="1.046205"><ele>210.66666666666666</ele><time>2026-03-29T12:48:54.575Z</time></trkpt><trkpt lat="44.8138467" lon="1.046255"><ele>213.33333333333331</ele><time>2026-03-29T12:48:55.574Z</time></trkpt><trkpt lat="44.8139167" lon="1.0462883"><ele>216.0</ele><time>2026-03-29T12:48:56.574Z</time></trkpt><trkpt lat="44.813995" lon="1.0463167"><ele>218.66666666666669</ele><time>2026-03-29T12:48:57.574Z</time></trkpt><trkpt lat="44.81406" lon="1.0463167"><ele>221.33333333333334</ele><time>2026-03-29T12:48:58.575Z</time></trkpt><trkpt lat="44.81418" lon="1.0463"><ele>224.0</ele><time>2026-03-29T12:49:00.575Z</time></trkpt><trkpt lat="44.8142467" lon="1.0462917"><ele>224.0</ele><time>2026-03-29T12:49:01.575Z</time></trkpt><trkpt lat="44.8143183" lon="1.0462883"><ele>224.0</ele><time>2026-03-29T12:49:02.575Z</time></trkpt><trkpt lat="44.8143817" lon="1.0462783"><ele>224.0</ele><time>2026-03-29T12:49:03.574Z</time></trkpt><trkpt lat="44.8144483" lon="1.046265"><ele>224.0</ele><time>2026-03-29T12:49:04.575Z</time></trkpt><trkpt lat="44.8145167" lon="1.04625"><ele>224.0</ele><time>2026-03-29T12:49:05.575Z</time></trkpt><trkpt lat="44.8145833" lon="1.0462333"><ele>224.0</ele><time>2026-03-29T12:49:06.575Z</time></trkpt><trkpt lat="44.8146533" lon="1.0462333"><ele>224.0</ele><time>2026-03-29T12:49:07.574Z</time></trkpt><trkpt lat="44.81475" lon="1.046225"><ele>225.33333333333334</ele><time>2026-03-29T12:49:09.574Z</time></trkpt><trkpt lat="44.8148483" lon="1.04623"><ele>226.66666666666669</ele><time>2026-03-29T12:49:11.574Z</time></trkpt><trkpt lat="44.8149433" lon="1.046235"><ele>228.0</ele><time>2026-03-29T12:49:13.575Z</time></trkpt><trkpt lat="44.8150333" lon="1.04625"><ele>229.33333333333331</ele><time>2026-03-29T12:49:15.574Z</time></trkpt><trkpt lat="44.8150817" lon="1.046325"><ele>230.66666666666666</ele><time>2026-03-29T12:49:18.575Z</time></trkpt><trkpt lat="44.8150767" lon="1.046435"><ele>232.0</ele><time>2026-03-29T12:49:21.575Z</time></trkpt><trkpt lat="44.8150317" lon="1.0465667"><ele>234.6</ele><time>2026-03-29T12:49:23.575Z</time></trkpt><trkpt lat="44.8150033" lon="1.046705"><ele>237.2</ele><time>2026-03-29T12:49:25.575Z</time></trkpt><trkpt lat="44.8150033" lon="1.0468833"><ele>239.8</ele><time>2026-03-29T12:49:39.574Z</time></trkpt><trkpt lat="44.8151183" lon="1.0468783"><ele>242.4</ele><time>2026-03-29T12:49:41.574Z</time></trkpt><trkpt lat="44.8151833" lon="1.0469183"><ele>245.0</ele><time>2026-03-29T12:49:42.575Z</time></trkpt><trkpt lat="44.81524" lon="1.0469883"><ele>245.50000000000003</ele><time>2026-03-29T12:49:43.575Z</time></trkpt><trkpt lat="44.815275" lon="1.04707"><ele>246.0</ele><time>2026-03-29T12:49:44.575Z</time></trkpt><trkpt lat="44.8152967" lon="1.047165"><ele>246.5</ele><time>2026-03-29T12:49:45.574Z</time></trkpt><trkpt lat="44.8152917" lon="1.047275"><ele>247.0</ele><time>2026-03-29T12:49:46.574Z</time></trkpt><trkpt lat="44.8152783" lon="1.0473817"><ele>247.50000000000003</ele><time>2026-03-29T12:49:47.574Z</time></trkpt><trkpt lat="44.8152467" lon="1.0474917"><ele>248.0</ele><time>2026-03-29T12:49:48.575Z</time></trkpt><trkpt lat="44.81521" lon="1.0476167"><ele>248.8</ele><time>2026-03-29T12:49:49.575Z</time></trkpt><trkpt lat="44.81517" lon="1.0477383"><ele>249.60000000000002</ele><time>2026-03-29T12:49:50.574Z</time></trkpt><trkpt lat="44.81513" lon="1.0478717"><ele>250.39999999999998</ele><time>2026-03-29T12:49:51.575Z</time></trkpt><trkpt lat="44.815105" lon="1.0480083"><ele>251.2</ele><time>2026-03-29T12:49:52.574Z</time></trkpt><trkpt lat="44.8150817" lon="1.0481433"><ele>252.0</ele><time>2026-03-29T12:49:53.574Z</time></trkpt><trkpt lat="44.8150567" lon="1.0482633"><ele>252.83333333333334</ele><time>2026-03-29T12:49:54.575Z</time></trkpt><trkpt lat="44.8150283" lon="1.0483833"><ele>253.66666666666669</ele><time>2026-03-29T12:49:55.575Z</time></trkpt><trkpt lat="44.8150067" lon="1.04848"><ele>254.5</ele><time>2026-03-29T12:49:56.574Z</time></trkpt><trkpt lat="44.8149917" lon="1.0485767"><ele>255.33333333333334</ele><time>2026-03-29T12:49:57.574Z</time></trkpt><trkpt lat="44.81498" lon="1.0486717"><ele>256.1666666666667</ele><time>2026-03-29T12:49:58.574Z</time></trkpt><trkpt lat="44.8149783" lon="1.0488417"><ele>257.0</ele><time>2026-03-29T12:50:00.574Z</time></trkpt><trkpt lat="44.8149833" lon="1.04894"><ele>257.0</ele><time>2026-03-29T12:50:01.575Z</time></trkpt><trkpt lat="44.8149833" lon="1.04903"><ele>257.0</ele><time>2026-03-29T12:50:02.574Z</time></trkpt><trkpt lat="44.814975" lon="1.049205"><ele>257.0</ele><time>2026-03-29T12:50:04.575Z</time></trkpt><trkpt lat="44.8149583" lon="1.0493"><ele>257.0</ele><time>2026-03-29T12:50:05.574Z</time></trkpt><trkpt lat="44.814945" lon="1.0494083"><ele>257.0</ele><time>2026-03-29T12:50:06.575Z</time></trkpt><trkpt lat="44.814935" lon="1.0495217"><ele>257.0</ele><time>2026-03-29T12:50:07.575Z</time></trkpt><trkpt lat="44.814925" lon="1.0496233"><ele>257.0</ele><time>2026-03-29T12:50:08.574Z</time></trkpt><trkpt lat="44.8149117" lon="1.0497167"><ele>257.0</ele><time>2026-03-29T12:50:09.575Z</time></trkpt><trkpt lat="44.8148967" lon="1.0498917"><ele>257.0</ele><time>2026-03-29T12:50:11.574Z</time></trkpt><trkpt lat="44.8148917" lon="1.0499883"><ele>257.0</ele><time>2026-03-29T12:50:12.574Z</time></trkpt><trkpt lat="44.8148767" lon="1.0500867"><ele>257.0</ele><time>2026-03-29T12:50:13.575Z</time></trkpt><trkpt lat="44.81486" lon="1.0501817"><ele>257.0</ele><time>2026-03-29T12:50:14.575Z</time></trkpt><trkpt lat="44.814835" lon="1.05027"><ele>257.0</ele><time>2026-03-29T12:50:15.575Z</time></trkpt><trkpt lat="44.814785" lon="1.050415"><ele>257.0</ele><time>2026-03-29T12:50:17.575Z</time></trkpt><trkpt lat="44.8147517" lon="1.0504933"><ele>257.0</ele><time>2026-03-29T12:50:19.574Z</time></trkpt><trkpt lat="44.8148133" lon="1.0505533"><ele>257.0</ele><time>2026-03-29T12:50:25.575Z</time></trkpt><trkpt lat="44.8148967" lon="1.050565"><ele>257.0</ele><time>2026-03-29T12:50:27.575Z</time></trkpt><trkpt lat="44.8149683" lon="1.0506367"><ele>257.0</ele><time>2026-03-29T12:50:29.574Z</time></trkpt><trkpt lat="44.8150467" lon="1.0507667"><ele>257.0</ele><time>2026-03-29T12:50:31.575Z</time></trkpt><trkpt lat="44.8150833" lon="1.0509"><ele>257.0</ele><time>2026-03-29T12:50:32.574Z</time></trkpt><trkpt lat="44.8151367" lon="1.05106"><ele>257.0</ele><time>2026-03-29T12:50:33.575Z</time></trkpt><trkpt lat="44.8151933" lon="1.0512217"><ele>257.0</ele><time>2026-03-29T12:50:34.574Z</time></trkpt><trkpt lat="44.8152367" lon="1.0514183"><ele>254.2</ele><time>2026-03-29T12:50:35.574Z</time></trkpt><trkpt lat="44.8152583" lon="1.0516"><ele>251.39999999999998</ele><time>2026-03-29T12:50:36.574Z</time></trkpt><trkpt lat="44.81528" lon="1.0517383"><ele>248.60000000000002</ele><time>2026-03-29T12:50:37.575Z</time></trkpt><trkpt lat="44.8153017" lon="1.0518667"><ele>245.8</ele><time>2026-03-29T12:50:38.574Z</time></trkpt><trkpt lat="44.8153133" lon="1.05197"><ele>243.0</ele><time>2026-03-29T12:50:39.574Z</time></trkpt><trkpt lat="44.81533" lon="1.052065"><ele>243.0</ele><time>2026-03-29T12:50:40.575Z</time></trkpt><trkpt lat="44.8153667" lon="1.05214"><ele>243.0</ele><time>2026-03-29T12:50:41.574Z</time></trkpt><trkpt lat="44.8154567" lon="1.0521933"><ele>243.0</ele><time>2026-03-29T12:50:42.575Z</time></trkpt><trkpt lat="44.8155167" lon="1.052245"><ele>243.0</ele><time>2026-03-29T12:50:43.575Z</time></trkpt><trkpt lat="44.8155933" lon="1.0523033"><ele>243.0</ele><time>2026-03-29T12:50:44.574Z</time></trkpt><trkpt lat="44.81567" lon="1.05235"><ele>243.0</ele><time>2026-03-29T12:50:45.574Z</time></trkpt><trkpt lat="44.8157417" lon="1.0524183"><ele>243.4</ele><time>2026-03-29T12:50:46.574Z</time></trkpt><trkpt lat="44.815825" lon="1.0524917"><ele>243.8</ele><time>2026-03-29T12:50:47.575Z</time></trkpt><trkpt lat="44.81591" lon="1.0525667"><ele>244.2</ele><time>2026-03-29T12:50:48.575Z</time></trkpt><trkpt lat="44.81599" lon="1.0526283"><ele>244.6</ele><time>2026-03-29T12:50:49.573Z</time></trkpt><trkpt lat="44.8160767" lon="1.0526933"><ele>245.0</ele><time>2026-03-29T12:50:50.574Z</time></trkpt><trkpt lat="44.816175" lon="1.0527633"><ele>245.4</ele><time>2026-03-29T12:50:51.573Z</time></trkpt><trkpt lat="44.8162617" lon="1.05283"><ele>245.8</ele><time>2026-03-29T12:50:52.573Z</time></trkpt><trkpt lat="44.8163483" lon="1.052875"><ele>246.2</ele><time>2026-03-29T12:50:53.574Z</time></trkpt><trkpt lat="44.816435" lon="1.0529233"><ele>246.6</ele><time>2026-03-29T12:50:54.573Z</time></trkpt><trkpt lat="44.8165183" lon="1.0529683"><ele>247.0</ele><time>2026-03-29T12:50:55.574Z</time></trkpt><trkpt lat="44.81659" lon="1.05301"><ele>246.99999999999997</ele><time>2026-03-29T12:50:56.574Z</time></trkpt><trkpt lat="44.8166617" lon="1.0530667"><ele>247.0</ele><time>2026-03-29T12:50:57.573Z</time></trkpt><trkpt lat="44.816735" lon="1.0531233"><ele>247.0</ele><time>2026-03-29T12:50:58.574Z</time></trkpt><trkpt lat="44.81681" lon="1.053185"><ele>247.0</ele><time>2026-03-29T12:50:59.574Z</time></trkpt><trkpt lat="44.8168883" lon="1.0532333"><ele>246.99999999999997</ele><time>2026-03-29T12:51:00.574Z</time></trkpt><trkpt lat="44.8169767" lon="1.053265"><ele>247.0</ele><time>2026-03-29T12:51:01.573Z</time></trkpt><trkpt lat="44.81707" lon="1.0532967"><ele>244.2</ele><time>2026-03-29T12:51:02.574Z</time></trkpt><trkpt lat="44.8171667" lon="1.0533333"><ele>241.39999999999998</ele><time>2026-03-29T12:51:03.574Z</time></trkpt><trkpt lat="44.8172617" lon="1.053385"><ele>238.60000000000002</ele><time>2026-03-29T12:51:04.574Z</time></trkpt><trkpt lat="44.8173567" lon="1.0534533"><ele>235.8</ele><time>2026-03-29T12:51:05.574Z</time></trkpt><trkpt lat="44.817455" lon="1.0535367"><ele>233.0</ele><time>2026-03-29T12:51:06.573Z</time></trkpt><trkpt lat="44.8175383" lon="1.053615"><ele>233.00000000000003</ele><time>2026-03-29T12:51:07.574Z</time></trkpt><trkpt lat="44.8176317" lon="1.053675"><ele>233.0</ele><time>2026-03-29T12:51:08.573Z</time></trkpt><trkpt lat="44.81773" lon="1.0537117"><ele>233.0</ele><time>2026-03-29T12:51:09.574Z</time></trkpt><trkpt lat="44.8178067" lon="1.0537417"><ele>233.0</ele><time>2026-03-29T12:51:10.573Z</time></trkpt><trkpt lat="44.8178867" lon="1.0537633"><ele>233.00000000000003</ele><time>2026-03-29T12:51:11.574Z</time></trkpt><trkpt lat="44.8179567" lon="1.053795"><ele>233.0</ele><time>2026-03-29T12:51:12.574Z</time></trkpt><trkpt lat="44.818025" lon="1.053845"><ele>230.83333333333334</ele><time>2026-03-29T12:51:13.574Z</time></trkpt><trkpt lat="44.818085" lon="1.0538933"><ele>228.66666666666669</ele><time>2026-03-29T12:51:14.573Z</time></trkpt><trkpt lat="44.81814" lon="1.0539417"><ele>226.5</ele><time>2026-03-29T12:51:15.573Z</time></trkpt><trkpt lat="44.818195" lon="1.0539967"><ele>224.33333333333331</ele><time>2026-03-29T12:51:16.573Z</time></trkpt><trkpt lat="44.8182517" lon="1.05404"><ele>222.16666666666666</ele><time>2026-03-29T12:51:17.573Z</time></trkpt><trkpt lat="44.818365" lon="1.0541467"><ele>220.0</ele><time>2026-03-29T12:51:19.573Z</time></trkpt><trkpt lat="44.8184367" lon="1.0541983"><ele>216.5</ele><time>2026-03-29T12:51:20.574Z</time></trkpt><trkpt lat="44.8185133" lon="1.054245"><ele>213.0</ele><time>2026-03-29T12:51:21.574Z</time></trkpt><trkpt lat="44.818665" lon="1.0543367"><ele>209.5</ele><time>2026-03-29T12:51:23.573Z</time></trkpt><trkpt lat="44.818765" lon="1.0544017"><ele>206.0</ele><time>2026-03-29T12:51:24.574Z</time></trkpt><trkpt lat="44.8188733" lon="1.0544583"><ele>206.0</ele><time>2026-03-29T12:51:25.573Z</time></trkpt><trkpt lat="44.8189933" lon="1.0544967"><ele>206.0</ele><time>2026-03-29T12:51:26.573Z</time></trkpt><trkpt lat="44.8191083" lon="1.05451"><ele>206.0</ele><time>2026-03-29T12:51:27.573Z</time></trkpt><trkpt lat="44.8192183" lon="1.05449"><ele>206.0</ele><time>2026-03-29T12:51:28.574Z</time></trkpt><trkpt lat="44.81932" lon="1.0544667"><ele>205.33333333333334</ele><time>2026-03-29T12:51:29.574Z</time></trkpt><trkpt lat="44.8194" lon="1.0544433"><ele>204.66666666666669</ele><time>2026-03-29T12:51:30.574Z</time></trkpt><trkpt lat="44.8194783" lon="1.05443"><ele>204.0</ele><time>2026-03-29T12:51:31.573Z</time></trkpt><trkpt lat="44.8195467" lon="1.054415"><ele>203.33333333333331</ele><time>2026-03-29T12:51:32.573Z</time></trkpt><trkpt lat="44.8196233" lon="1.0544117"><ele>202.66666666666666</ele><time>2026-03-29T12:51:33.574Z</time></trkpt><trkpt lat="44.819705" lon="1.05441"><ele>202.0</ele><time>2026-03-29T12:51:34.574Z</time></trkpt><trkpt lat="44.8197767" lon="1.0544117"><ele>201.99999999999997</ele><time>2026-03-29T12:51:35.574Z</time></trkpt><trkpt lat="44.8198917" lon="1.0544033"><ele>202.0</ele><time>2026-03-29T12:51:37.573Z</time></trkpt><trkpt lat="44.8199583" lon="1.0543883"><ele>202.0</ele><time>2026-03-29T12:51:38.573Z</time></trkpt><trkpt lat="44.8200283" lon="1.0543567"><ele>202.0</ele><time>2026-03-29T12:51:39.573Z</time></trkpt><trkpt lat="44.82009" lon="1.0542917"><ele>201.99999999999997</ele><time>2026-03-29T12:51:40.573Z</time></trkpt><trkpt lat="44.8201583" lon="1.0542217"><ele>202.0</ele><time>2026-03-29T12:51:41.574Z</time></trkpt><trkpt lat="44.82021" lon="1.054115"><ele>199.66666666666666</ele><time>2026-03-29T12:51:42.574Z</time></trkpt><trkpt lat="44.82025" lon="1.05404"><ele>197.33333333333331</ele><time>2026-03-29T12:51:43.573Z</time></trkpt><trkpt lat="44.8202817" lon="1.0539283"><ele>195.0</ele><time>2026-03-29T12:51:44.573Z</time></trkpt><trkpt lat="44.8203167" lon="1.0538"><ele>192.66666666666666</ele><time>2026-03-29T12:51:45.574Z</time></trkpt><trkpt lat="44.8203583" lon="1.0536917"><ele>190.33333333333331</ele><time>2026-03-29T12:51:46.573Z</time></trkpt><trkpt lat="44.8203883" lon="1.0535867"><ele>188.0</ele><time>2026-03-29T12:51:47.573Z</time></trkpt><trkpt lat="44.8204167" lon="1.0534833"><ele>188.0</ele><time>2026-03-29T12:51:48.573Z</time></trkpt><trkpt lat="44.8204733" lon="1.0533867"><ele>188.0</ele><time>2026-03-29T12:51:49.573Z</time></trkpt><trkpt lat="44.82057" lon="1.05313"><ele>188.0</ele><time>2026-03-29T12:51:51.574Z</time></trkpt><trkpt lat="44.82062" lon="1.0529983"><ele>188.0</ele><time>2026-03-29T12:51:52.573Z</time></trkpt><trkpt lat="44.82068" lon="1.05288"><ele>187.2</ele><time>2026-03-29T12:51:53.574Z</time></trkpt><trkpt lat="44.820745" lon="1.0527683"><ele>186.4</ele><time>2026-03-29T12:51:54.574Z</time></trkpt><trkpt lat="44.820815" lon="1.0526533"><ele>185.6</ele><time>2026-03-29T12:51:55.573Z</time></trkpt><trkpt lat="44.8208783" lon="1.05255"><ele>184.79999999999998</ele><time>2026-03-29T12:51:56.573Z</time></trkpt><trkpt lat="44.8209533" lon="1.0524417"><ele>184.0</ele><time>2026-03-29T12:51:57.573Z</time></trkpt><trkpt lat="44.8210367" lon="1.05235"><ele>180.75</ele><time>2026-03-29T12:51:58.573Z</time></trkpt><trkpt lat="44.8211367" lon="1.0522667"><ele>177.5</ele><time>2026-03-29T12:51:59.574Z</time></trkpt><trkpt lat="44.8212433" lon="1.0521883"><ele>174.25</ele><time>2026-03-29T12:52:00.574Z</time></trkpt><trkpt lat="44.821365" lon="1.0520967"><ele>171.0</ele><time>2026-03-29T12:52:01.574Z</time></trkpt><trkpt lat="44.821485" lon="1.0520083"><ele>171.0</ele><time>2026-03-29T12:52:02.574Z</time></trkpt><trkpt lat="44.8216083" lon="1.0519117"><ele>171.0</ele><time>2026-03-29T12:52:03.573Z</time></trkpt><trkpt lat="44.8217233" lon="1.051825"><ele>171.0</ele><time>2026-03-29T12:52:04.573Z</time></trkpt><trkpt lat="44.821835" lon="1.0517417"><ele>171.0</ele><time>2026-03-29T12:52:05.573Z</time></trkpt><trkpt lat="44.8219583" lon="1.05165"><ele>170.0</ele><time>2026-03-29T12:52:06.573Z</time></trkpt><trkpt lat="44.8220617" lon="1.051565"><ele>169.0</ele><time>2026-03-29T12:52:07.574Z</time></trkpt><trkpt lat="44.822155" lon="1.0514883"><ele>168.0</ele><time>2026-03-29T12:52:08.574Z</time></trkpt><trkpt lat="44.82226" lon="1.05141"><ele>167.0</ele><time>2026-03-29T12:52:09.574Z</time></trkpt><trkpt lat="44.8223517" lon="1.0513317"><ele>167.0</ele><time>2026-03-29T12:52:10.574Z</time></trkpt><trkpt lat="44.8224517" lon="1.0512517"><ele>167.0</ele><time>2026-03-29T12:52:11.573Z</time></trkpt><trkpt lat="44.8225517" lon="1.051175"><ele>167.0</ele><time>2026-03-29T12:52:12.574Z</time></trkpt><trkpt lat="44.8226633" lon="1.051085"><ele>167.0</ele><time>2026-03-29T12:52:13.574Z</time></trkpt><trkpt lat="44.8227583" lon="1.05101"><ele>166.39999999999998</ele><time>2026-03-29T12:52:14.573Z</time></trkpt><trkpt lat="44.8228533" lon="1.050935"><ele>165.79999999999998</ele><time>2026-03-29T12:52:15.573Z</time></trkpt><trkpt lat="44.8229533" lon="1.05085"><ele>165.2</ele><time>2026-03-29T12:52:16.574Z</time></trkpt><trkpt lat="44.8230517" lon="1.0507733"><ele>164.6</ele><time>2026-03-29T12:52:17.573Z</time></trkpt><trkpt lat="44.82314" lon="1.0507183"><ele>164.0</ele><time>2026-03-29T12:52:18.573Z</time></trkpt><trkpt lat="44.8232233" lon="1.0506533"><ele>163.33333333333331</ele><time>2026-03-29T12:52:19.573Z</time></trkpt><trkpt lat="44.8232983" lon="1.0505917"><ele>162.66666666666666</ele><time>2026-03-29T12:52:20.573Z</time></trkpt><trkpt lat="44.8233717" lon="1.0505317"><ele>162.0</ele><time>2026-03-29T12:52:21.573Z</time></trkpt><trkpt lat="44.823445" lon="1.0504633"><ele>161.33333333333334</ele><time>2026-03-29T12:52:22.574Z</time></trkpt><trkpt lat="44.8235" lon="1.0504133"><ele>160.66666666666669</ele><time>2026-03-29T12:52:23.574Z</time></trkpt><trkpt lat="44.8235517" lon="1.0503583"><ele>160.0</ele><time>2026-03-29T12:52:25.573Z</time></trkpt><trkpt lat="44.8236317" lon="1.0503717"><ele>160.0</ele><time>2026-03-29T12:52:28.573Z</time></trkpt><trkpt lat="44.823645" lon="1.0504783"><ele>160.0</ele><time>2026-03-29T12:52:31.573Z</time></trkpt><trkpt lat="44.823605" lon="1.0505733"><ele>160.0</ele><time>2026-03-29T12:52:33.574Z</time></trkpt><trkpt lat="44.8235517" lon="1.05066"><ele>160.0</ele><time>2026-03-29T12:52:35.573Z</time></trkpt><trkpt lat="44.8234883" lon="1.0507783"><ele>160.0</ele><time>2026-03-29T12:52:37.573Z</time></trkpt><trkpt lat="44.823445" lon="1.0508567"><ele>160.0</ele><time>2026-03-29T12:52:38.574Z</time></trkpt><trkpt lat="44.82338" lon="1.0509433"><ele>160.8</ele><time>2026-03-29T12:52:39.574Z</time></trkpt><trkpt lat="44.8233167" lon="1.0510333"><ele>161.6</ele><time>2026-03-29T12:52:40.573Z</time></trkpt><trkpt lat="44.8232517" lon="1.051115"><ele>162.39999999999998</ele><time>2026-03-29T12:52:41.573Z</time></trkpt><trkpt lat="44.8231583" lon="1.05119"><ele>163.2</ele><time>2026-03-29T12:52:42.573Z</time></trkpt><trkpt lat="44.8230667" lon="1.0512817"><ele>164.0</ele><time>2026-03-29T12:52:43.573Z</time></trkpt><trkpt lat="44.8230017" lon="1.0513433"><ele>164.0</ele><time>2026-03-29T12:52:44.573Z</time></trkpt><trkpt lat="44.8229283" lon="1.051425"><ele>164.0</ele><time>2026-03-29T12:52:45.574Z</time></trkpt><trkpt lat="44.8228517" lon="1.05151"><ele>164.0</ele><time>2026-03-29T12:52:46.573Z</time></trkpt><trkpt lat="44.8227767" lon="1.0516"><ele>164.0</ele><time>2026-03-29T12:52:47.574Z</time></trkpt><trkpt lat="44.8226983" lon="1.0516983"><ele>164.0</ele><time>2026-03-29T12:52:48.573Z</time></trkpt><trkpt lat="44.82261" lon="1.0518017"><ele>165.0</ele><time>2026-03-29T12:52:49.573Z</time></trkpt><trkpt lat="44.8225317" lon="1.0518767"><ele>166.0</ele><time>2026-03-29T12:52:50.573Z</time></trkpt><trkpt lat="44.8224717" lon="1.051915"><ele>167.0</ele><time>2026-03-29T12:52:51.573Z</time></trkpt><trkpt lat="44.8224117" lon="1.0519667"><ele>168.0</ele><time>2026-03-29T12:52:53.574Z</time></trkpt><trkpt lat="44.8223533" lon="1.0520183"><ele>169.0</ele><time>2026-03-29T12:52:55.573Z</time></trkpt><trkpt lat="44.8222933" lon="1.0520883"><ele>170.0</ele><time>2026-03-29T12:52:57.573Z</time></trkpt><trkpt lat="44.82221" lon="1.052165"><ele>170.0</ele><time>2026-03-29T12:52:59.574Z</time></trkpt><trkpt lat="44.8221583" lon="1.05222"><ele>170.0</ele><time>2026-03-29T12:53:00.574Z</time></trkpt><trkpt lat="44.82207" lon="1.052285"><ele>170.0</ele><time>2026-03-29T12:53:02.574Z</time></trkpt><trkpt lat="44.82201" lon="1.0523533"><ele>170.0</ele><time>2026-03-29T12:53:04.574Z</time></trkpt><trkpt lat="44.8219317" lon="1.0524433"><ele>170.0</ele><time>2026-03-29T12:53:06.574Z</time></trkpt><trkpt lat="44.8218617" lon="1.0525333"><ele>170.0</ele><time>2026-03-29T12:53:08.574Z</time></trkpt><trkpt lat="44.821765" lon="1.052625"><ele>170.66666666666666</ele><time>2026-03-29T12:53:10.573Z</time></trkpt><trkpt lat="44.82171" lon="1.05269"><ele>171.33333333333331</ele><time>2026-03-29T12:53:12.573Z</time></trkpt><trkpt lat="44.8216583" lon="1.05278"><ele>172.0</ele><time>2026-03-29T12:53:14.573Z</time></trkpt><trkpt lat="44.8216283" lon="1.05286"><ele>172.66666666666666</ele><time>2026-03-29T12:53:16.573Z</time></trkpt><trkpt lat="44.8216317" lon="1.0529767"><ele>173.33333333333334</ele><time>2026-03-29T12:53:19.574Z</time></trkpt><trkpt lat="44.8216383" lon="1.0530933"><ele>174.0</ele><time>2026-03-29T12:53:21.574Z</time></trkpt><trkpt lat="44.8216533" lon="1.0532517"><ele>173.5</ele><time>2026-03-29T12:53:23.574Z</time></trkpt><trkpt lat="44.8216983" lon="1.0534383"><ele>173.0</ele><time>2026-03-29T12:53:25.573Z</time></trkpt><trkpt lat="44.82172" lon="1.053555"><ele>172.5</ele><time>2026-03-29T12:53:26.574Z</time></trkpt><trkpt lat="44.8217333" lon="1.0537583"><ele>172.0</ele><time>2026-03-29T12:53:27.574Z</time></trkpt><trkpt lat="44.8217533" lon="1.0539733"><ele>172.5</ele><time>2026-03-29T12:53:28.574Z</time></trkpt><trkpt lat="44.82179" lon="1.0541717"><ele>173.0</ele><time>2026-03-29T12:53:29.573Z</time></trkpt><trkpt lat="44.821815" lon="1.0543967"><ele>173.5</ele><time>2026-03-29T12:53:30.574Z</time></trkpt><trkpt lat="44.8218433" lon="1.0545633"><ele>174.0</ele><time>2026-03-29T12:53:31.574Z</time></trkpt><trkpt lat="44.8218733" lon="1.0547133"><ele>176.0</ele><time>2026-03-29T12:53:32.573Z</time></trkpt><trkpt lat="44.8219067" lon="1.0548633"><ele>178.0</ele><time>2026-03-29T12:53:33.574Z</time></trkpt><trkpt lat="44.8219517" lon="1.05496"><ele>180.0</ele><time>2026-03-29T12:53:34.573Z</time></trkpt><trkpt lat="44.8219983" lon="1.0550417"><ele>182.0</ele><time>2026-03-29T12:53:35.573Z</time></trkpt><trkpt lat="44.8220433" lon="1.0551117"><ele>184.0</ele><time>2026-03-29T12:53:36.573Z</time></trkpt><trkpt lat="44.8221233" lon="1.0552583"><ele>184.0</ele><time>2026-03-29T12:53:38.574Z</time></trkpt><trkpt lat="44.8221633" lon="1.0553367"><ele>184.0</ele><time>2026-03-29T12:53:39.573Z</time></trkpt><trkpt lat="44.8222433" lon="1.055445"><ele>184.0</ele><time>2026-03-29T12:53:41.573Z</time></trkpt><trkpt lat="44.822315" lon="1.0555633"><ele>184.0</ele><time>2026-03-29T12:53:43.574Z</time></trkpt><trkpt lat="44.82236" lon="1.0556283"><ele>184.0</ele><time>2026-03-29T12:53:44.574Z</time></trkpt><trkpt lat="44.8224067" lon="1.0557083"><ele>184.0</ele><time>2026-03-29T12:53:45.574Z</time></trkpt><trkpt lat="44.8224783" lon="1.0558017"><ele>184.5</ele><time>2026-03-29T12:53:46.574Z</time></trkpt><trkpt lat="44.8225433" lon="1.05589"><ele>185.0</ele><time>2026-03-29T12:53:47.573Z</time></trkpt><trkpt lat="44.8226117" lon="1.055965"><ele>185.5</ele><time>2026-03-29T12:53:48.574Z</time></trkpt><trkpt lat="44.8226717" lon="1.056025"><ele>186.0</ele><time>2026-03-29T12:53:49.573Z</time></trkpt><trkpt lat="44.82274" lon="1.05608"><ele>186.5</ele><time>2026-03-29T12:53:50.573Z</time></trkpt><trkpt lat="44.822815" lon="1.0561167"><ele>187.0</ele><time>2026-03-29T12:53:51.573Z</time></trkpt><trkpt lat="44.8229083" lon="1.05617"><ele>187.0</ele><time>2026-03-29T12:53:53.574Z</time></trkpt><trkpt lat="44.8229733" lon="1.0561967"><ele>187.0</ele><time>2026-03-29T12:53:55.574Z</time></trkpt><trkpt lat="44.8230367" lon="1.0562417"><ele>187.0</ele><time>2026-03-29T12:53:58.574Z</time></trkpt><trkpt lat="44.8230867" lon="1.05633"><ele>187.0</ele><time>2026-03-29T12:54:01.574Z</time></trkpt><trkpt lat="44.8231367" lon="1.0564"><ele>187.0</ele><time>2026-03-29T12:54:03.573Z</time></trkpt><trkpt lat="44.8231717" lon="1.056505"><ele>187.0</ele><time>2026-03-29T12:54:06.574Z</time></trkpt><trkpt lat="44.8231867" lon="1.0566133"><ele>185.6</ele><time>2026-03-29T12:54:09.574Z</time></trkpt><trkpt lat="44.8232433" lon="1.05678"><ele>184.2</ele><time>2026-03-29T12:54:17.574Z</time></trkpt><trkpt lat="44.823295" lon="1.05686"><ele>182.8</ele><time>2026-03-29T12:54:20.574Z</time></trkpt><trkpt lat="44.8233433" lon="1.0569583"><ele>181.4</ele><time>2026-03-29T12:54:23.574Z</time></trkpt><trkpt lat="44.8233783" lon="1.0570683"><ele>180.0</ele><time>2026-03-29T12:54:26.574Z</time></trkpt><trkpt lat="44.82341" lon="1.05717"><ele>180.0</ele><time>2026-03-29T12:54:29.573Z</time></trkpt><trkpt lat="44.8234467" lon="1.057325"><ele>180.0</ele><time>2026-03-29T12:54:36.574Z</time></trkpt><trkpt lat="44.823475" lon="1.0574167"><ele>180.0</ele><time>2026-03-29T12:54:38.574Z</time></trkpt><trkpt lat="44.8235183" lon="1.0575267"><ele>180.0</ele><time>2026-03-29T12:54:41.574Z</time></trkpt><trkpt lat="44.8235667" lon="1.0576267"><ele>180.0</ele><time>2026-03-29T12:54:44.574Z</time></trkpt><trkpt lat="44.8236083" lon="1.0577233"><ele>180.0</ele><time>2026-03-29T12:54:47.574Z</time></trkpt><trkpt lat="44.8236433" lon="1.057815"><ele>181.5</ele><time>2026-03-29T12:54:49.574Z</time></trkpt><trkpt lat="44.8236833" lon="1.05792"><ele>183.0</ele><time>2026-03-29T12:54:52.574Z</time></trkpt><trkpt lat="44.82375" lon="1.058015"><ele>184.5</ele><time>2026-03-29T12:54:55.574Z</time></trkpt><trkpt lat="44.8238" lon="1.0580733"><ele>186.0</ele><time>2026-03-29T12:54:57.574Z</time></trkpt><trkpt lat="44.8238783" lon="1.058155"><ele>187.5</ele><time>2026-03-29T12:55:00.574Z</time></trkpt><trkpt lat="44.8239383" lon="1.058245"><ele>189.0</ele><time>2026-03-29T12:55:02.574Z</time></trkpt><trkpt lat="44.82398" lon="1.058365"><ele>189.0</ele><time>2026-03-29T12:55:04.573Z</time></trkpt><trkpt lat="44.8240667" lon="1.058475"><ele>189.0</ele><time>2026-03-29T12:55:06.574Z</time></trkpt><trkpt lat="44.8241517" lon="1.0585733"><ele>189.0</ele><time>2026-03-29T12:55:08.574Z</time></trkpt><trkpt lat="44.8242217" lon="1.0586533"><ele>189.0</ele><time>2026-03-29T12:55:10.574Z</time></trkpt><trkpt lat="44.82427" lon="1.0587333"><ele>189.0</ele><time>2026-03-29T12:55:12.574Z</time></trkpt><trkpt lat="44.8243183" lon="1.0588067"><ele>190.14285714285714</ele><time>2026-03-29T12:55:14.574Z</time></trkpt><trkpt lat="44.8243583" lon="1.0588783"><ele>191.28571428571428</ele><time>2026-03-29T12:55:16.573Z</time></trkpt><trkpt lat="44.8243967" lon="1.0589767"><ele>192.42857142857144</ele><time>2026-03-29T12:55:18.574Z</time></trkpt><trkpt lat="44.82443" lon="1.0590817"><ele>193.57142857142856</ele><time>2026-03-29T12:55:20.573Z</time></trkpt><trkpt lat="44.8244317" lon="1.05918"><ele>194.71428571428572</ele><time>2026-03-29T12:55:22.574Z</time></trkpt><trkpt lat="44.824405" lon="1.05927"><ele>195.85714285714286</ele><time>2026-03-29T12:55:24.574Z</time></trkpt><trkpt lat="44.8244033" lon="1.0593733"><ele>197.0</ele><time>2026-03-29T12:55:27.573Z</time></trkpt><trkpt lat="44.8243833" lon="1.05948"><ele>197.0</ele><time>2026-03-29T12:55:30.573Z</time></trkpt><trkpt lat="44.82433" lon="1.0595767"><ele>197.0</ele><time>2026-03-29T12:55:33.574Z</time></trkpt><trkpt lat="44.824285" lon="1.0596833"><ele>197.0</ele><time>2026-03-29T12:55:36.574Z</time></trkpt><trkpt lat="44.8242433" lon="1.0597617"><ele>197.0</ele><time>2026-03-29T12:55:39.573Z</time></trkpt><trkpt lat="44.82421" lon="1.059965"><ele>197.0</ele><time>2026-03-29T12:55:52.574Z</time></trkpt><trkpt lat="44.8242333" lon="1.0601267"><ele>196.39999999999998</ele><time>2026-03-29T12:56:05.573Z</time></trkpt><trkpt lat="44.8243167" lon="1.06034"><ele>195.79999999999998</ele><time>2026-03-29T12:56:18.573Z</time></trkpt><trkpt lat="44.8243733" lon="1.06042"><ele>195.2</ele><time>2026-03-29T12:56:21.574Z</time></trkpt><trkpt lat="44.8244133" lon="1.06051"><ele>194.6</ele><time>2026-03-29T12:56:24.573Z</time></trkpt><trkpt lat="44.82443" lon="1.0606"><ele>194.0</ele><time>2026-03-29T12:56:26.574Z</time></trkpt><trkpt lat="44.82444" lon="1.0607033"><ele>193.2</ele><time>2026-03-29T12:56:29.574Z</time></trkpt><trkpt lat="44.82445" lon="1.0608167"><ele>192.39999999999998</ele><time>2026-03-29T12:56:32.573Z</time></trkpt><trkpt lat="44.824445" lon="1.0609833"><ele>191.6</ele><time>2026-03-29T12:56:39.574Z</time></trkpt><trkpt lat="44.82442" lon="1.06114"><ele>190.8</ele><time>2026-03-29T12:56:43.573Z</time></trkpt><trkpt lat="44.8244167" lon="1.061235"><ele>190.0</ele><time>2026-03-29T12:56:46.574Z</time></trkpt><trkpt lat="44.824405" lon="1.0613417"><ele>190.0</ele><time>2026-03-29T12:56:50.573Z</time></trkpt><trkpt lat="44.8244" lon="1.061525"><ele>190.0</ele><time>2026-03-29T12:57:00.572Z</time></trkpt><trkpt lat="44.8244233" lon="1.0616183"><ele>190.0</ele><time>2026-03-29T12:57:02.573Z</time></trkpt><trkpt lat="44.8245083" lon="1.061715"><ele>190.0</ele><time>2026-03-29T12:57:04.573Z</time></trkpt><trkpt lat="44.8246517" lon="1.061765"><ele>190.33333333333334</ele><time>2026-03-29T12:57:06.573Z</time></trkpt><trkpt lat="44.82473" lon="1.0617833"><ele>190.66666666666669</ele><time>2026-03-29T12:57:07.572Z</time></trkpt><trkpt lat="44.82482" lon="1.0618017"><ele>191.0</ele><time>2026-03-29T12:57:08.573Z</time></trkpt><trkpt lat="44.824895" lon="1.061815"><ele>191.33333333333334</ele><time>2026-03-29T12:57:09.573Z</time></trkpt><trkpt lat="44.824985" lon="1.0618417"><ele>191.66666666666666</ele><time>2026-03-29T12:57:10.573Z</time></trkpt><trkpt lat="44.8250767" lon="1.0618917"><ele>192.0</ele><time>2026-03-29T12:57:11.573Z</time></trkpt><trkpt lat="44.8251933" lon="1.06196"><ele>192.6</ele><time>2026-03-29T12:57:12.572Z</time></trkpt><trkpt lat="44.825315" lon="1.0620317"><ele>193.2</ele><time>2026-03-29T12:57:13.573Z</time></trkpt><trkpt lat="44.8253983" lon="1.0620633"><ele>193.8</ele><time>2026-03-29T12:57:14.573Z</time></trkpt><trkpt lat="44.82547" lon="1.0620717"><ele>194.4</ele><time>2026-03-29T12:57:15.573Z</time></trkpt><trkpt lat="44.82556" lon="1.0620467"><ele>195.0</ele><time>2026-03-29T12:57:17.573Z</time></trkpt><trkpt lat="44.8256333" lon="1.0620633"><ele>195.0</ele><time>2026-03-29T12:57:21.573Z</time></trkpt><trkpt lat="44.8256917" lon="1.0620167"><ele>195.0</ele><time>2026-03-29T12:57:25.572Z</time></trkpt><trkpt lat="44.82576" lon="1.061955"><ele>195.0</ele><time>2026-03-29T12:57:29.573Z</time></trkpt><trkpt lat="44.8258067" lon="1.061875"><ele>195.0</ele><time>2026-03-29T12:57:31.572Z</time></trkpt><trkpt lat="44.82588" lon="1.06178"><ele>195.0</ele><time>2026-03-29T12:57:34.573Z</time></trkpt><trkpt lat="44.8259467" lon="1.0617"><ele>195.0</ele><time>2026-03-29T12:57:36.573Z</time></trkpt><trkpt lat="44.826" lon="1.0616467"><ele>195.4</ele><time>2026-03-29T12:57:37.573Z</time></trkpt><trkpt lat="44.826065" lon="1.0615767"><ele>195.8</ele><time>2026-03-29T12:57:38.573Z</time></trkpt><trkpt lat="44.8261383" lon="1.061485"><ele>196.2</ele><time>2026-03-29T12:57:39.572Z</time></trkpt><trkpt lat="44.8262183" lon="1.0613883"><ele>196.6</ele><time>2026-03-29T12:57:40.573Z</time></trkpt><trkpt lat="44.8263017" lon="1.0612883"><ele>197.0</ele><time>2026-03-29T12:57:41.572Z</time></trkpt><trkpt lat="44.8263783" lon="1.0611917"><ele>197.0</ele><time>2026-03-29T12:57:42.573Z</time></trkpt><trkpt lat="44.8264483" lon="1.06109"><ele>197.0</ele><time>2026-03-29T12:57:43.573Z</time></trkpt><trkpt lat="44.8265117" lon="1.060995"><ele>197.0</ele><time>2026-03-29T12:57:44.573Z</time></trkpt><trkpt lat="44.8265733" lon="1.0609183"><ele>197.0</ele><time>2026-03-29T12:57:45.572Z</time></trkpt><trkpt lat="44.826665" lon="1.0608717"><ele>197.0</ele><time>2026-03-29T12:57:46.573Z</time></trkpt><trkpt lat="44.826765" lon="1.06092"><ele>197.25</ele><time>2026-03-29T12:57:47.573Z</time></trkpt><trkpt lat="44.8268683" lon="1.06105"><ele>197.5</ele><time>2026-03-29T12:57:48.572Z</time></trkpt><trkpt lat="44.82699" lon="1.0611617"><ele>197.75</ele><time>2026-03-29T12:57:49.573Z</time></trkpt><trkpt lat="44.8270667" lon="1.061245"><ele>198.0</ele><time>2026-03-29T12:57:50.572Z</time></trkpt><trkpt lat="44.8271467" lon="1.06132"><ele>198.0</ele><time>2026-03-29T12:57:51.573Z</time></trkpt><trkpt lat="44.827225" lon="1.06138"><ele>198.0</ele><time>2026-03-29T12:57:53.572Z</time></trkpt><trkpt lat="44.8272817" lon="1.0614367"><ele>198.0</ele><time>2026-03-29T12:58:00.573Z</time></trkpt><trkpt lat="44.8273667" lon="1.0615033"><ele>198.0</ele><time>2026-03-29T12:58:03.572Z</time></trkpt><trkpt lat="44.8274917" lon="1.0616567"><ele>198.0</ele><time>2026-03-29T12:58:05.572Z</time></trkpt><trkpt lat="44.8275733" lon="1.0617567"><ele>197.2</ele><time>2026-03-29T12:58:06.573Z</time></trkpt><trkpt lat="44.8276583" lon="1.0618433"><ele>196.4</ele><time>2026-03-29T12:58:07.572Z</time></trkpt><trkpt lat="44.8277383" lon="1.0619333"><ele>195.6</ele><time>2026-03-29T12:58:08.573Z</time></trkpt><trkpt lat="44.8278283" lon="1.0620283"><ele>194.79999999999998</ele><time>2026-03-29T12:58:09.573Z</time></trkpt><trkpt lat="44.82792" lon="1.0621333"><ele>194.0</ele><time>2026-03-29T12:58:10.573Z</time></trkpt><trkpt lat="44.8280183" lon="1.0622217"><ele>194.0</ele><time>2026-03-29T12:58:11.573Z</time></trkpt><trkpt lat="44.8281133" lon="1.0622967"><ele>194.0</ele><time>2026-03-29T12:58:12.573Z</time></trkpt><trkpt lat="44.8281967" lon="1.0623633"><ele>194.0</ele><time>2026-03-29T12:58:13.573Z</time></trkpt><trkpt lat="44.828305" lon="1.0624383"><ele>194.0</ele><time>2026-03-29T12:58:15.572Z</time></trkpt><trkpt lat="44.8284017" lon="1.06241"><ele>194.0</ele><time>2026-03-29T12:58:17.573Z</time></trkpt><trkpt lat="44.82848" lon="1.0622833"><ele>193.00000000000003</ele><time>2026-03-29T12:58:19.573Z</time></trkpt><trkpt lat="44.82852" lon="1.0621883"><ele>192.0</ele><time>2026-03-29T12:58:20.573Z</time></trkpt><trkpt lat="44.82856" lon="1.0620933"><ele>191.0</ele><time>2026-03-29T12:58:21.573Z</time></trkpt><trkpt lat="44.8286083" lon="1.0619983"><ele>190.0</ele><time>2026-03-29T12:58:22.573Z</time></trkpt><trkpt lat="44.828675" lon="1.0618967"><ele>189.0</ele><time>2026-03-29T12:58:23.573Z</time></trkpt><trkpt lat="44.8287533" lon="1.0618333"><ele>188.0</ele><time>2026-03-29T12:58:24.573Z</time></trkpt><trkpt lat="44.8288567" lon="1.0617917"><ele>188.0</ele><time>2026-03-29T12:58:25.573Z</time></trkpt><trkpt lat="44.82898" lon="1.0617383"><ele>188.0</ele><time>2026-03-29T12:58:26.572Z</time></trkpt><trkpt lat="44.8290967" lon="1.06168"><ele>188.0</ele><time>2026-03-29T12:58:27.572Z</time></trkpt><trkpt lat="44.8292133" lon="1.0616217"><ele>188.0</ele><time>2026-03-29T12:58:28.572Z</time></trkpt><trkpt lat="44.8293333" lon="1.061555"><ele>187.0</ele><time>2026-03-29T12:58:29.573Z</time></trkpt><trkpt lat="44.8294583" lon="1.0614833"><ele>186.0</ele><time>2026-03-29T12:58:30.572Z</time></trkpt><trkpt lat="44.82958" lon="1.061425"><ele>185.0</ele><time>2026-03-29T12:58:31.573Z</time></trkpt><trkpt lat="44.8297" lon="1.0613517"><ele>184.0</ele><time>2026-03-29T12:58:32.573Z</time></trkpt><trkpt lat="44.8298183" lon="1.06129"><ele>184.0</ele><time>2026-03-29T12:58:33.572Z</time></trkpt><trkpt lat="44.8299367" lon="1.061235"><ele>184.0</ele><time>2026-03-29T12:58:34.572Z</time></trkpt><trkpt lat="44.8300583" lon="1.0611767"><ele>184.0</ele><time>2026-03-29T12:58:35.572Z</time></trkpt><trkpt lat="44.83018" lon="1.0611183"><ele>184.0</ele><time>2026-03-29T12:58:36.572Z</time></trkpt><trkpt lat="44.830295" lon="1.0610633"><ele>184.2</ele><time>2026-03-29T12:58:37.573Z</time></trkpt><trkpt lat="44.8304117" lon="1.0610217"><ele>184.39999999999998</ele><time>2026-03-29T12:58:38.572Z</time></trkpt><trkpt lat="44.8305217" lon="1.0609717"><ele>184.6</ele><time>2026-03-29T12:58:39.573Z</time></trkpt><trkpt lat="44.83062" lon="1.0609267"><ele>184.8</ele><time>2026-03-29T12:58:40.573Z</time></trkpt><trkpt lat="44.8307067" lon="1.0608867"><ele>185.0</ele><time>2026-03-29T12:58:41.572Z</time></trkpt><trkpt lat="44.83077" lon="1.060845"><ele>185.0</ele><time>2026-03-29T12:58:42.572Z</time></trkpt><trkpt lat="44.8308533" lon="1.0607833"><ele>185.0</ele><time>2026-03-29T12:58:44.573Z</time></trkpt><trkpt lat="44.8309633" lon="1.0607783"><ele>185.0</ele><time>2026-03-29T12:58:47.572Z</time></trkpt><trkpt lat="44.8310433" lon="1.060895"><ele>185.0</ele><time>2026-03-29T12:58:49.573Z</time></trkpt><trkpt lat="44.8310317" lon="1.06106"><ele>185.0</ele><time>2026-03-29T12:58:50.572Z</time></trkpt><trkpt lat="44.831045" lon="1.0611933"><ele>185.0</ele><time>2026-03-29T12:58:51.573Z</time></trkpt><trkpt lat="44.8310483" lon="1.0613167"><ele>185.0</ele><time>2026-03-29T12:58:52.572Z</time></trkpt><trkpt lat="44.8310683" lon="1.061475"><ele>185.0</ele><time>2026-03-29T12:58:53.573Z</time></trkpt><trkpt lat="44.8310817" lon="1.061625"><ele>185.0</ele><time>2026-03-29T12:58:54.573Z</time></trkpt><trkpt lat="44.8311" lon="1.0617617"><ele>185.0</ele><time>2026-03-29T12:58:55.573Z</time></trkpt><trkpt lat="44.831125" lon="1.0619"><ele>184.8</ele><time>2026-03-29T12:58:56.572Z</time></trkpt><trkpt lat="44.8311617" lon="1.0620417"><ele>184.6</ele><time>2026-03-29T12:58:57.573Z</time></trkpt><trkpt lat="44.8312017" lon="1.06218"><ele>184.39999999999998</ele><time>2026-03-29T12:58:58.573Z</time></trkpt><trkpt lat="44.8312583" lon="1.062305"><ele>184.2</ele><time>2026-03-29T12:58:59.572Z</time></trkpt><trkpt lat="44.8313317" lon="1.0624383"><ele>184.0</ele><time>2026-03-29T12:59:00.572Z</time></trkpt><trkpt lat="44.8314" lon="1.06256"><ele>183.6</ele><time>2026-03-29T12:59:01.572Z</time></trkpt><trkpt lat="44.8314733" lon="1.0626733"><ele>183.2</ele><time>2026-03-29T12:59:02.573Z</time></trkpt><trkpt lat="44.8315433" lon="1.0627833"><ele>182.79999999999998</ele><time>2026-03-29T12:59:03.572Z</time></trkpt><trkpt lat="44.8316167" lon="1.0628683"><ele>182.39999999999998</ele><time>2026-03-29T12:59:04.572Z</time></trkpt><trkpt lat="44.831695" lon="1.0629667"><ele>182.0</ele><time>2026-03-29T12:59:05.573Z</time></trkpt><trkpt lat="44.8317567" lon="1.0630633"><ele>182.0</ele><time>2026-03-29T12:59:06.572Z</time></trkpt><trkpt lat="44.8318033" lon="1.0631733"><ele>182.0</ele><time>2026-03-29T12:59:07.572Z</time></trkpt><trkpt lat="44.8318417" lon="1.06328"><ele>182.0</ele><time>2026-03-29T12:59:08.573Z</time></trkpt><trkpt lat="44.8318667" lon="1.06338"><ele>182.0</ele><time>2026-03-29T12:59:09.572Z</time></trkpt><trkpt lat="44.8319" lon="1.063465"><ele>182.0</ele><time>2026-03-29T12:59:10.573Z</time></trkpt><trkpt lat="44.8319417" lon="1.063535"><ele>182.0</ele><time>2026-03-29T12:59:11.573Z</time></trkpt><trkpt lat="44.832045" lon="1.0635733"><ele>181.6</ele><time>2026-03-29T12:59:13.572Z</time></trkpt><trkpt lat="44.832125" lon="1.0635233"><ele>181.2</ele><time>2026-03-29T12:59:14.572Z</time></trkpt><trkpt lat="44.8321967" lon="1.0634517"><ele>180.8</ele><time>2026-03-29T12:59:15.572Z</time></trkpt><trkpt lat="44.832275" lon="1.063355"><ele>180.4</ele><time>2026-03-29T12:59:16.572Z</time></trkpt><trkpt lat="44.8323317" lon="1.0632467"><ele>180.0</ele><time>2026-03-29T12:59:17.572Z</time></trkpt><trkpt lat="44.8323967" lon="1.0631217"><ele>181.25</ele><time>2026-03-29T12:59:18.573Z</time></trkpt><trkpt lat="44.83247" lon="1.0629917"><ele>182.5</ele><time>2026-03-29T12:59:19.573Z</time></trkpt><trkpt lat="44.8325433" lon="1.0628683"><ele>183.75</ele><time>2026-03-29T12:59:20.572Z</time></trkpt><trkpt lat="44.832615" lon="1.0627467"><ele>185.0</ele><time>2026-03-29T12:59:21.573Z</time></trkpt><trkpt lat="44.8327" lon="1.0624833"><ele>185.0</ele><time>2026-03-29T12:59:23.572Z</time></trkpt><trkpt lat="44.8327283" lon="1.062365"><ele>185.0</ele><time>2026-03-29T12:59:24.573Z</time></trkpt><trkpt lat="44.8327567" lon="1.0622717"><ele>185.0</ele><time>2026-03-29T12:59:25.572Z</time></trkpt><trkpt lat="44.8327983" lon="1.06219"><ele>185.0</ele><time>2026-03-29T12:59:26.572Z</time></trkpt><trkpt lat="44.832855" lon="1.0621333"><ele>185.0</ele><time>2026-03-29T12:59:27.572Z</time></trkpt><trkpt lat="44.8329283" lon="1.0621117"><ele>185.0</ele><time>2026-03-29T12:59:28.573Z</time></trkpt><trkpt lat="44.833015" lon="1.062135"><ele>185.0</ele><time>2026-03-29T12:59:29.573Z</time></trkpt><trkpt lat="44.8331267" lon="1.06215"><ele>185.0</ele><time>2026-03-29T12:59:30.573Z</time></trkpt><trkpt lat="44.8332283" lon="1.06216"><ele>185.0</ele><time>2026-03-29T12:59:31.573Z</time></trkpt><trkpt lat="44.8333367" lon="1.062165"><ele>185.0</ele><time>2026-03-29T12:59:32.573Z</time></trkpt><trkpt lat="44.8334517" lon="1.0621717"><ele>185.0</ele><time>2026-03-29T12:59:33.572Z</time></trkpt><trkpt lat="44.833565" lon="1.0621667"><ele>184.2</ele><time>2026-03-29T12:59:34.572Z</time></trkpt><trkpt lat="44.83367" lon="1.0621733"><ele>183.4</ele><time>2026-03-29T12:59:35.572Z</time></trkpt><trkpt lat="44.8337717" lon="1.0621817"><ele>182.60000000000002</ele><time>2026-03-29T12:59:36.573Z</time></trkpt><trkpt lat="44.8338867" lon="1.06219"><ele>181.8</ele><time>2026-03-29T12:59:37.573Z</time></trkpt><trkpt lat="44.8339933" lon="1.0622017"><ele>181.0</ele><time>2026-03-29T12:59:38.573Z</time></trkpt><trkpt lat="44.8340933" lon="1.0622083"><ele>181.0</ele><time>2026-03-29T12:59:39.573Z</time></trkpt><trkpt lat="44.8341967" lon="1.0622067"><ele>181.0</ele><time>2026-03-29T12:59:40.573Z</time></trkpt><trkpt lat="44.8343" lon="1.0622067"><ele>181.0</ele><time>2026-03-29T12:59:41.573Z</time></trkpt><trkpt lat="44.83441" lon="1.0621867"><ele>181.0</ele><time>2026-03-29T12:59:42.572Z</time></trkpt><trkpt lat="44.8345083" lon="1.062175"><ele>181.0</ele><time>2026-03-29T12:59:43.572Z</time></trkpt><trkpt lat="44.8345983" lon="1.062165"><ele>178.0</ele><time>2026-03-29T12:59:44.572Z</time></trkpt><trkpt lat="44.834685" lon="1.06216"><ele>175.0</ele><time>2026-03-29T12:59:45.573Z</time></trkpt><trkpt lat="44.8347717" lon="1.062175"><ele>172.0</ele><time>2026-03-29T12:59:46.572Z</time></trkpt><trkpt lat="44.8348733" lon="1.0621733"><ele>169.0</ele><time>2026-03-29T12:59:47.573Z</time></trkpt><trkpt lat="44.83497" lon="1.0621817"><ele>166.0</ele><time>2026-03-29T12:59:48.572Z</time></trkpt><trkpt lat="44.8350767" lon="1.0621967"><ele>165.0</ele><time>2026-03-29T12:59:49.572Z</time></trkpt><trkpt lat="44.8351867" lon="1.062215"><ele>164.0</ele><time>2026-03-29T12:59:50.573Z</time></trkpt><trkpt lat="44.8352917" lon="1.06224"><ele>163.0</ele><time>2026-03-29T12:59:51.573Z</time></trkpt><trkpt lat="44.8354" lon="1.0622783"><ele>162.0</ele><time>2026-03-29T12:59:52.573Z</time></trkpt><trkpt lat="44.8355117" lon="1.0623117"><ele>161.0</ele><time>2026-03-29T12:59:53.573Z</time></trkpt><trkpt lat="44.8356167" lon="1.0623367"><ele>161.0</ele><time>2026-03-29T12:59:54.573Z</time></trkpt><trkpt lat="44.8357133" lon="1.0623583"><ele>161.0</ele><time>2026-03-29T12:59:55.572Z</time></trkpt><trkpt lat="44.8358033" lon="1.0623733"><ele>161.0</ele><time>2026-03-29T12:59:56.573Z</time></trkpt><trkpt lat="44.8359183" lon="1.0624167"><ele>161.0</ele><time>2026-03-29T12:59:58.573Z</time></trkpt><trkpt lat="44.8359733" lon="1.0625517"><ele>161.0</ele><time>2026-03-29T13:00:00.572Z</time></trkpt><trkpt lat="44.8359667" lon="1.06267"><ele>162.0</ele><time>2026-03-29T13:00:01.572Z</time></trkpt><trkpt lat="44.8359383" lon="1.0628083"><ele>163.0</ele><time>2026-03-29T13:00:02.573Z</time></trkpt><trkpt lat="44.8358967" lon="1.062965"><ele>164.0</ele><time>2026-03-29T13:00:03.572Z</time></trkpt><trkpt lat="44.8358633" lon="1.0631133"><ele>165.0</ele><time>2026-03-29T13:00:04.573Z</time></trkpt><trkpt lat="44.83584" lon="1.06325"><ele>166.0</ele><time>2026-03-29T13:00:05.573Z</time></trkpt><trkpt lat="44.8358183" lon="1.0633883"><ele>166.20000000000002</ele><time>2026-03-29T13:00:06.572Z</time></trkpt><trkpt lat="44.8358067" lon="1.0635267"><ele>166.4</ele><time>2026-03-29T13:00:07.573Z</time></trkpt><trkpt lat="44.8357917" lon="1.0636717"><ele>166.6</ele><time>2026-03-29T13:00:08.573Z</time></trkpt><trkpt lat="44.835765" lon="1.0638"><ele>166.8</ele><time>2026-03-29T13:00:09.572Z</time></trkpt><trkpt lat="44.83573" lon="1.063945"><ele>167.0</ele><time>2026-03-29T13:00:10.572Z</time></trkpt><trkpt lat="44.835695" lon="1.0641017"><ele>166.8</ele><time>2026-03-29T13:00:11.573Z</time></trkpt><trkpt lat="44.83568" lon="1.064245"><ele>166.6</ele><time>2026-03-29T13:00:12.573Z</time></trkpt><trkpt lat="44.8356817" lon="1.0643917"><ele>166.4</ele><time>2026-03-29T13:00:13.572Z</time></trkpt><trkpt lat="44.8356817" lon="1.0645483"><ele>166.20000000000002</ele><time>2026-03-29T13:00:14.572Z</time></trkpt><trkpt lat="44.8356733" lon="1.06471"><ele>166.0</ele><time>2026-03-29T13:00:15.572Z</time></trkpt><trkpt lat="44.83565" lon="1.0648683"><ele>163.5</ele><time>2026-03-29T13:00:16.573Z</time></trkpt><trkpt lat="44.8356167" lon="1.0650133"><ele>161.0</ele><time>2026-03-29T13:00:17.572Z</time></trkpt><trkpt lat="44.8355683" lon="1.0651633"><ele>158.5</ele><time>2026-03-29T13:00:18.572Z</time></trkpt><trkpt lat="44.8355267" lon="1.0653217"><ele>156.0</ele><time>2026-03-29T13:00:19.573Z</time></trkpt><trkpt lat="44.8354767" lon="1.0654883"><ele>156.0</ele><time>2026-03-29T13:00:20.572Z</time></trkpt><trkpt lat="44.83543" lon="1.0656617"><ele>156.0</ele><time>2026-03-29T13:00:21.573Z</time></trkpt><trkpt lat="44.8353983" lon="1.0658333"><ele>156.0</ele><time>2026-03-29T13:00:22.573Z</time></trkpt><trkpt lat="44.8353617" lon="1.06601"><ele>156.0</ele><time>2026-03-29T13:00:23.572Z</time></trkpt><trkpt lat="44.8353167" lon="1.066165"><ele>152.4</ele><time>2026-03-29T13:00:24.572Z</time></trkpt><trkpt lat="44.8352917" lon="1.06631"><ele>148.8</ele><time>2026-03-29T13:00:25.572Z</time></trkpt><trkpt lat="44.8352717" lon="1.066445"><ele>145.20000000000002</ele><time>2026-03-29T13:00:26.573Z</time></trkpt><trkpt lat="44.8352583" lon="1.0665783"><ele>141.6</ele><time>2026-03-29T13:00:27.573Z</time></trkpt><trkpt lat="44.8352567" lon="1.06672"><ele>138.0</ele><time>2026-03-29T13:00:28.572Z</time></trkpt><trkpt lat="44.8352633" lon="1.0668717"><ele>135.4</ele><time>2026-03-29T13:00:29.573Z</time></trkpt><trkpt lat="44.835265" lon="1.06703"><ele>132.8</ele><time>2026-03-29T13:00:30.572Z</time></trkpt><trkpt lat="44.8352717" lon="1.067185"><ele>130.2</ele><time>2026-03-29T13:00:31.572Z</time></trkpt><trkpt lat="44.83527" lon="1.0673317"><ele>127.6</ele><time>2026-03-29T13:00:32.573Z</time></trkpt><trkpt lat="44.8352833" lon="1.0674717"><ele>125.0</ele><time>2026-03-29T13:00:33.572Z</time></trkpt><trkpt lat="44.8352967" lon="1.0676133"><ele>122.4</ele><time>2026-03-29T13:00:34.572Z</time></trkpt><trkpt lat="44.835305" lon="1.06775"><ele>119.8</ele><time>2026-03-29T13:00:35.572Z</time></trkpt><trkpt lat="44.8353117" lon="1.0678867"><ele>117.19999999999999</ele><time>2026-03-29T13:00:36.573Z</time></trkpt><trkpt lat="44.8352933" lon="1.0680217"><ele>114.6</ele><time>2026-03-29T13:00:37.573Z</time></trkpt><trkpt lat="44.835255" lon="1.0681617"><ele>112.0</ele><time>2026-03-29T13:00:38.573Z</time></trkpt><trkpt lat="44.8352417" lon="1.0683167"><ele>108.19999999999999</ele><time>2026-03-29T13:00:39.572Z</time></trkpt><trkpt lat="44.83521" lon="1.06846"><ele>104.39999999999999</ele><time>2026-03-29T13:00:40.573Z</time></trkpt><trkpt lat="44.8351733" lon="1.0685933"><ele>100.6</ele><time>2026-03-29T13:00:41.573Z</time></trkpt><trkpt lat="44.8351383" lon="1.0687217"><ele>96.80000000000001</ele><time>2026-03-29T13:00:42.573Z</time></trkpt><trkpt lat="44.8351067" lon="1.0688567"><ele>93.0</ele><time>2026-03-29T13:00:43.573Z</time></trkpt><trkpt lat="44.83507" lon="1.06899"><ele>97.2</ele><time>2026-03-29T13:00:44.573Z</time></trkpt><trkpt lat="44.8350417" lon="1.0691267"><ele>101.4</ele><time>2026-03-29T13:00:45.573Z</time></trkpt><trkpt lat="44.8349967" lon="1.0692583"><ele>105.60000000000001</ele><time>2026-03-29T13:00:46.573Z</time></trkpt><trkpt lat="44.83496" lon="1.069385"><ele>109.80000000000001</ele><time>2026-03-29T13:00:47.572Z</time></trkpt><trkpt lat="44.8349183" lon="1.0694967"><ele>114.0</ele><time>2026-03-29T13:00:48.572Z</time></trkpt><trkpt lat="44.8348833" lon="1.0696133"><ele>114.0</ele><time>2026-03-29T13:00:49.572Z</time></trkpt><trkpt lat="44.8348383" lon="1.069745"><ele>114.0</ele><time>2026-03-29T13:00:50.573Z</time></trkpt><trkpt lat="44.8347833" lon="1.0698767"><ele>114.0</ele><time>2026-03-29T13:00:51.572Z</time></trkpt><trkpt lat="44.834725" lon="1.0699983"><ele>114.0</ele><time>2026-03-29T13:00:52.572Z</time></trkpt><trkpt lat="44.8346667" lon="1.07011"><ele>114.0</ele><time>2026-03-29T13:00:53.573Z</time></trkpt><trkpt lat="44.8345983" lon="1.0701933"><ele>113.66666666666667</ele><time>2026-03-29T13:00:54.573Z</time></trkpt><trkpt lat="44.83454" lon="1.0702783"><ele>113.33333333333334</ele><time>2026-03-29T13:00:55.572Z</time></trkpt><trkpt lat="44.834495" lon="1.0703567"><ele>113.0</ele><time>2026-03-29T13:00:56.573Z</time></trkpt><trkpt lat="44.834415" lon="1.0704867"><ele>112.66666666666667</ele><time>2026-03-29T13:00:58.573Z</time></trkpt><trkpt lat="44.8343667" lon="1.0705517"><ele>112.33333333333334</ele><time>2026-03-29T13:00:59.572Z</time></trkpt><trkpt lat="44.8343133" lon="1.0706167"><ele>112.0</ele><time>2026-03-29T13:01:00.573Z</time></trkpt><trkpt lat="44.834255" lon="1.07071"><ele>108.50000000000001</ele><time>2026-03-29T13:01:01.573Z</time></trkpt><trkpt lat="44.834195" lon="1.0707983"><ele>105.0</ele><time>2026-03-29T13:01:02.573Z</time></trkpt><trkpt lat="44.8341467" lon="1.0708933"><ele>101.5</ele><time>2026-03-29T13:01:03.572Z</time></trkpt><trkpt lat="44.834105" lon="1.07099"><ele>98.0</ele><time>2026-03-29T13:01:04.572Z</time></trkpt><trkpt lat="44.83407" lon="1.0711017"><ele>94.5</ele><time>2026-03-29T13:01:05.572Z</time></trkpt><trkpt lat="44.834045" lon="1.07121"><ele>91.0</ele><time>2026-03-29T13:01:06.573Z</time></trkpt><trkpt lat="44.8340383" lon="1.0713283"><ele>91.0</ele><time>2026-03-29T13:01:07.572Z</time></trkpt><trkpt lat="44.83404" lon="1.07145"><ele>91.0</ele><time>2026-03-29T13:01:08.573Z</time></trkpt><trkpt lat="44.834045" lon="1.07156"><ele>91.0</ele><time>2026-03-29T13:01:09.572Z</time></trkpt><trkpt lat="44.834045" lon="1.0716617"><ele>91.0</ele><time>2026-03-29T13:01:10.573Z</time></trkpt><trkpt lat="44.83403" lon="1.0717633"><ele>91.0</ele><time>2026-03-29T13:01:11.572Z</time></trkpt><trkpt lat="44.83399" lon="1.0719317"><ele>91.0</ele><time>2026-03-29T13:01:13.572Z</time></trkpt><trkpt lat="44.8339417" lon="1.07206"><ele>88.2</ele><time>2026-03-29T13:01:15.573Z</time></trkpt><trkpt lat="44.8339233" lon="1.0721683"><ele>85.39999999999999</ele><time>2026-03-29T13:01:18.572Z</time></trkpt><trkpt lat="44.8339017" lon="1.0723067"><ele>82.6</ele><time>2026-03-29T13:01:21.572Z</time></trkpt><trkpt lat="44.8339233" lon="1.0723983"><ele>79.8</ele><time>2026-03-29T13:01:23.573Z</time></trkpt><trkpt lat="44.8339933" lon="1.0723817"><ele>77.0</ele><time>2026-03-29T13:01:25.572Z</time></trkpt><trkpt lat="44.8341067" lon="1.072255"><ele>77.0</ele><time>2026-03-29T13:01:27.572Z</time></trkpt><trkpt lat="44.8341817" lon="1.0721817"><ele>77.0</ele><time>2026-03-29T13:01:28.572Z</time></trkpt><trkpt lat="44.8343533" lon="1.0720167"><ele>77.0</ele><time>2026-03-29T13:01:30.572Z</time></trkpt><trkpt lat="44.8344267" lon="1.071935"><ele>77.0</ele><time>2026-03-29T13:01:31.573Z</time></trkpt><trkpt lat="44.8344933" lon="1.0718317"><ele>75.0</ele><time>2026-03-29T13:01:32.573Z</time></trkpt><trkpt lat="44.8345733" lon="1.0717183"><ele>73.0</ele><time>2026-03-29T13:01:33.572Z</time></trkpt><trkpt lat="44.834645" lon="1.0715917"><ele>71.0</ele><time>2026-03-29T13:01:34.572Z</time></trkpt><trkpt lat="44.8347167" lon="1.0714567"><ele>69.0</ele><time>2026-03-29T13:01:35.573Z</time></trkpt><trkpt lat="44.8347783" lon="1.0713"><ele>69.0</ele><time>2026-03-29T13:01:36.573Z</time></trkpt><trkpt lat="44.8348417" lon="1.07114"><ele>69.0</ele><time>2026-03-29T13:01:37.572Z</time></trkpt><trkpt lat="44.8348967" lon="1.070975"><ele>69.0</ele><time>2026-03-29T13:01:38.573Z</time></trkpt><trkpt lat="44.8349533" lon="1.0708217"><ele>69.0</ele><time>2026-03-29T13:01:39.572Z</time></trkpt><trkpt lat="44.8350117" lon="1.0706867"><ele>67.8</ele><time>2026-03-29T13:01:40.572Z</time></trkpt><trkpt lat="44.8350767" lon="1.0705567"><ele>66.60000000000001</ele><time>2026-03-29T13:01:41.572Z</time></trkpt><trkpt lat="44.8351583" lon="1.0704433"><ele>65.4</ele><time>2026-03-29T13:01:42.573Z</time></trkpt><trkpt lat="44.83524" lon="1.0703467"><ele>64.2</ele><time>2026-03-29T13:01:43.573Z</time></trkpt><trkpt lat="44.83532" lon="1.0702467"><ele>63.0</ele><time>2026-03-29T13:01:44.573Z</time></trkpt><trkpt lat="44.8353983" lon="1.0701317"><ele>63.0</ele><time>2026-03-29T13:01:45.573Z</time></trkpt><trkpt lat="44.835475" lon="1.0700167"><ele>63.0</ele><time>2026-03-29T13:01:46.572Z</time></trkpt><trkpt lat="44.83556" lon="1.0698967"><ele>63.0</ele><time>2026-03-29T13:01:47.573Z</time></trkpt><trkpt lat="44.8356417" lon="1.0697683"><ele>63.0</ele><time>2026-03-29T13:01:48.572Z</time></trkpt><trkpt lat="44.8357183" lon="1.0696417"><ele>62.33333333333333</ele><time>2026-03-29T13:01:49.573Z</time></trkpt><trkpt lat="44.8358" lon="1.069515"><ele>61.666666666666664</ele><time>2026-03-29T13:01:50.572Z</time></trkpt><trkpt lat="44.835875" lon="1.0693883"><ele>61.0</ele><time>2026-03-29T13:01:51.573Z</time></trkpt><trkpt lat="44.8360067" lon="1.069155"><ele>61.83333333333333</ele><time>2026-03-29T13:01:53.573Z</time></trkpt><trkpt lat="44.8360633" lon="1.069055"><ele>62.666666666666664</ele><time>2026-03-29T13:01:54.573Z</time></trkpt><trkpt lat="44.8361183" lon="1.0689783"><ele>63.5</ele><time>2026-03-29T13:01:55.572Z</time></trkpt><trkpt lat="44.83618" lon="1.0689"><ele>64.33333333333333</ele><time>2026-03-29T13:01:56.572Z</time></trkpt><trkpt lat="44.836245" lon="1.06883"><ele>65.16666666666667</ele><time>2026-03-29T13:01:57.572Z</time></trkpt><trkpt lat="44.8363217" lon="1.0687867"><ele>66.0</ele><time>2026-03-29T13:01:58.572Z</time></trkpt><trkpt lat="44.8364017" lon="1.0687683"><ele>66.0</ele><time>2026-03-29T13:01:59.572Z</time></trkpt><trkpt lat="44.8364967" lon="1.068755"><ele>66.0</ele><time>2026-03-29T13:02:00.573Z</time></trkpt><trkpt lat="44.8365983" lon="1.0687633"><ele>66.0</ele><time>2026-03-29T13:02:01.572Z</time></trkpt><trkpt lat="44.8366933" lon="1.0687483"><ele>66.0</ele><time>2026-03-29T13:02:02.573Z</time></trkpt><trkpt lat="44.8367867" lon="1.06873"><ele>66.0</ele><time>2026-03-29T13:02:03.572Z</time></trkpt><trkpt lat="44.83687" lon="1.0687167"><ele>65.0</ele><time>2026-03-29T13:02:04.573Z</time></trkpt><trkpt lat="44.8369617" lon="1.0687033"><ele>63.99999999999999</ele><time>2026-03-29T13:02:05.573Z</time></trkpt><trkpt lat="44.8370567" lon="1.0686817"><ele>62.99999999999999</ele><time>2026-03-29T13:02:06.572Z</time></trkpt><trkpt lat="44.8371633" lon="1.068665"><ele>62.0</ele><time>2026-03-29T13:02:07.573Z</time></trkpt><trkpt lat="44.8372833" lon="1.0686417"><ele>61.0</ele><time>2026-03-29T13:02:08.572Z</time></trkpt><trkpt lat="44.837405" lon="1.06862"><ele>61.0</ele><time>2026-03-29T13:02:09.572Z</time></trkpt><trkpt lat="44.8375517" lon="1.06859"><ele>61.0</ele><time>2026-03-29T13:02:10.572Z</time></trkpt><trkpt lat="44.8376933" lon="1.0685667"><ele>61.0</ele><time>2026-03-29T13:02:11.572Z</time></trkpt><trkpt lat="44.8378167" lon="1.068535"><ele>61.0</ele><time>2026-03-29T13:02:12.572Z</time></trkpt><trkpt lat="44.837925" lon="1.0685067"><ele>60.99999999999999</ele><time>2026-03-29T13:02:13.572Z</time></trkpt><trkpt lat="44.8380083" lon="1.0684867"><ele>61.0</ele><time>2026-03-29T13:02:14.572Z</time></trkpt><trkpt lat="44.8380767" lon="1.0684817"><ele>61.0</ele><time>2026-03-29T13:02:15.573Z</time></trkpt><trkpt lat="44.83814" lon="1.0684617"><ele>61.0</ele><time>2026-03-29T13:02:16.572Z</time></trkpt><trkpt lat="44.8381867" lon="1.0685283"><ele>60.99999999999999</ele><time>2026-03-29T13:02:18.572Z</time></trkpt><trkpt lat="44.83813" lon="1.06861"><ele>61.0</ele><time>2026-03-29T13:02:22.572Z</time></trkpt><trkpt lat="44.8380567" lon="1.068685"><ele>61.0</ele><time>2026-03-29T13:02:25.572Z</time></trkpt><trkpt lat="44.8379933" lon="1.0687683"><ele>60.99999999999999</ele><time>2026-03-29T13:02:27.572Z</time></trkpt><trkpt lat="44.837925" lon="1.0688233"><ele>60.99999999999999</ele><time>2026-03-29T13:02:29.571Z</time></trkpt><trkpt lat="44.8378017" lon="1.0688517"><ele>61.0</ele><time>2026-03-29T13:02:31.572Z</time></trkpt><trkpt lat="44.8377217" lon="1.0688817"><ele>61.0</ele><time>2026-03-29T13:02:32.572Z</time></trkpt><trkpt lat="44.837655" lon="1.06894"><ele>61.0</ele><time>2026-03-29T13:02:33.572Z</time></trkpt><trkpt lat="44.8376383" lon="1.0690783"><ele>61.0</ele><time>2026-03-29T13:02:34.571Z</time></trkpt><trkpt lat="44.8376383" lon="1.069235"><ele>61.0</ele><time>2026-03-29T13:02:35.572Z</time></trkpt><trkpt lat="44.83766" lon="1.0694283"><ele>61.0</ele><time>2026-03-29T13:02:36.571Z</time></trkpt><trkpt lat="44.8377083" lon="1.0696367"><ele>61.0</ele><time>2026-03-29T13:02:37.571Z</time></trkpt><trkpt lat="44.83778" lon="1.06985"><ele>61.0</ele><time>2026-03-29T13:02:38.572Z</time></trkpt><trkpt lat="44.83788" lon="1.0700383"><ele>61.0</ele><time>2026-03-29T13:02:39.571Z</time></trkpt><trkpt lat="44.8380083" lon="1.0702383"><ele>61.0</ele><time>2026-03-29T13:02:40.571Z</time></trkpt><trkpt lat="44.8381317" lon="1.0703983"><ele>61.0</ele><time>2026-03-29T13:02:41.571Z</time></trkpt><trkpt lat="44.8382567" lon="1.070545"><ele>61.0</ele><time>2026-03-29T13:02:42.571Z</time></trkpt><trkpt lat="44.8383883" lon="1.0706967"><ele>60.0</ele><time>2026-03-29T13:02:43.572Z</time></trkpt><trkpt lat="44.8385067" lon="1.0708567"><ele>59.0</ele><time>2026-03-29T13:02:44.571Z</time></trkpt><trkpt lat="44.8386383" lon="1.0710233"><ele>58.0</ele><time>2026-03-29T13:02:45.571Z</time></trkpt><trkpt lat="44.83878" lon="1.0711933"><ele>58.0</ele><time>2026-03-29T13:02:46.571Z</time></trkpt><trkpt lat="44.8389383" lon="1.071355"><ele>58.0</ele><time>2026-03-29T13:02:47.572Z</time></trkpt><trkpt lat="44.8391067" lon="1.0714883"><ele>58.0</ele><time>2026-03-29T13:02:48.572Z</time></trkpt><trkpt lat="44.83929" lon="1.0715967"><ele>58.666666666666664</ele><time>2026-03-29T13:02:49.571Z</time></trkpt><trkpt lat="44.8394583" lon="1.071715"><ele>59.33333333333333</ele><time>2026-03-29T13:02:50.571Z</time></trkpt><trkpt lat="44.8396233" lon="1.07183"><ele>60.0</ele><time>2026-03-29T13:02:51.572Z</time></trkpt><trkpt lat="44.8397683" lon="1.0719367"><ele>60.0</ele><time>2026-03-29T13:02:52.571Z</time></trkpt><trkpt lat="44.8399" lon="1.07203"><ele>60.0</ele><time>2026-03-29T13:02:53.571Z</time></trkpt><trkpt lat="44.8400117" lon="1.072125"><ele>60.0</ele><time>2026-03-29T13:02:54.572Z</time></trkpt><trkpt lat="44.840095" lon="1.0722233"><ele>60.0</ele><time>2026-03-29T13:02:55.572Z</time></trkpt><trkpt lat="44.8401817" lon="1.0723033"><ele>60.0</ele><time>2026-03-29T13:02:56.571Z</time></trkpt><trkpt lat="44.8402567" lon="1.07238"><ele>60.0</ele><time>2026-03-29T13:02:57.571Z</time></trkpt><trkpt lat="44.8403383" lon="1.0724583"><ele>60.0</ele><time>2026-03-29T13:02:58.571Z</time></trkpt><trkpt lat="44.8404167" lon="1.0725417"><ele>60.0</ele><time>2026-03-29T13:02:59.571Z</time></trkpt><trkpt lat="44.8405033" lon="1.0726383"><ele>60.0</ele><time>2026-03-29T13:03:00.572Z</time></trkpt><trkpt lat="44.8406" lon="1.0727383"><ele>60.25</ele><time>2026-03-29T13:03:01.571Z</time></trkpt><trkpt lat="44.8406983" lon="1.07284"><ele>60.5</ele><time>2026-03-29T13:03:02.572Z</time></trkpt><trkpt lat="44.8407883" lon="1.0729783"><ele>60.75</ele><time>2026-03-29T13:03:03.571Z</time></trkpt><trkpt lat="44.84088" lon="1.0731267"><ele>61.0</ele><time>2026-03-29T13:03:04.571Z</time></trkpt><trkpt lat="44.8409883" lon="1.0732683"><ele>60.666666666666664</ele><time>2026-03-29T13:03:05.572Z</time></trkpt><trkpt lat="44.84111" lon="1.073395"><ele>60.33333333333333</ele><time>2026-03-29T13:03:06.571Z</time></trkpt><trkpt lat="44.841235" lon="1.073525"><ele>60.0</ele><time>2026-03-29T13:03:07.572Z</time></trkpt><trkpt lat="44.84136" lon="1.07365"><ele>60.0</ele><time>2026-03-29T13:03:08.571Z</time></trkpt><trkpt lat="44.8414767" lon="1.07375"><ele>60.0</ele><time>2026-03-29T13:03:09.572Z</time></trkpt><trkpt lat="44.841565" lon="1.073855"><ele>60.0</ele><time>2026-03-29T13:03:10.571Z</time></trkpt><trkpt lat="44.841645" lon="1.0739167"><ele>60.0</ele><time>2026-03-29T13:03:11.572Z</time></trkpt><trkpt lat="44.841745" lon="1.07398"><ele>60.0</ele><time>2026-03-29T13:03:12.571Z</time></trkpt><trkpt lat="44.841845" lon="1.074055"><ele>60.0</ele><time>2026-03-29T13:03:13.571Z</time></trkpt><trkpt lat="44.841945" lon="1.0741267"><ele>60.0</ele><time>2026-03-29T13:03:14.572Z</time></trkpt><trkpt lat="44.8420383" lon="1.0741633"><ele>60.0</ele><time>2026-03-29T13:03:15.571Z</time></trkpt><trkpt lat="44.84214" lon="1.074175"><ele>60.0</ele><time>2026-03-29T13:03:16.571Z</time></trkpt><trkpt lat="44.842235" lon="1.07419"><ele>60.25</ele><time>2026-03-29T13:03:17.572Z</time></trkpt><trkpt lat="44.842325" lon="1.0742433"><ele>60.5</ele><time>2026-03-29T13:03:18.571Z</time></trkpt><trkpt lat="44.8424217" lon="1.0743417"><ele>60.75</ele><time>2026-03-29T13:03:19.572Z</time></trkpt><trkpt lat="44.8425267" lon="1.0744667"><ele>61.0</ele><time>2026-03-29T13:03:20.572Z</time></trkpt><trkpt lat="44.8426167" lon="1.0745717"><ele>61.199999999999996</ele><time>2026-03-29T13:03:21.572Z</time></trkpt><trkpt lat="44.84271" lon="1.074655"><ele>61.39999999999999</ele><time>2026-03-29T13:03:22.571Z</time></trkpt><trkpt lat="44.842815" lon="1.0747083"><ele>61.6</ele><time>2026-03-29T13:03:23.572Z</time></trkpt><trkpt lat="44.8429167" lon="1.0747717"><ele>61.8</ele><time>2026-03-29T13:03:24.572Z</time></trkpt><trkpt lat="44.843" lon="1.0748417"><ele>62.0</ele><time>2026-03-29T13:03:25.572Z</time></trkpt><trkpt lat="44.8430733" lon="1.0749133"><ele>62.400000000000006</ele><time>2026-03-29T13:03:26.572Z</time></trkpt><trkpt lat="44.8431317" lon="1.0749933"><ele>62.800000000000004</ele><time>2026-03-29T13:03:27.571Z</time></trkpt><trkpt lat="44.8431567" lon="1.0750833"><ele>63.2</ele><time>2026-03-29T13:03:28.571Z</time></trkpt><trkpt lat="44.8431667" lon="1.07524"><ele>63.6</ele><time>2026-03-29T13:03:30.572Z</time></trkpt><trkpt lat="44.84316" lon="1.0753933"><ele>64.0</ele><time>2026-03-29T13:03:32.572Z</time></trkpt><trkpt lat="44.8432183" lon="1.0754717"><ele>64.0</ele><time>2026-03-29T13:03:33.571Z</time></trkpt><trkpt lat="44.8432883" lon="1.0755517"><ele>64.0</ele><time>2026-03-29T13:03:34.572Z</time></trkpt><trkpt lat="44.8433583" lon="1.0756367"><ele>64.0</ele><time>2026-03-29T13:03:35.571Z</time></trkpt><trkpt lat="44.8434133" lon="1.0757483"><ele>64.0</ele><time>2026-03-29T13:03:36.571Z</time></trkpt><trkpt lat="44.8434567" lon="1.075855"><ele>64.0</ele><time>2026-03-29T13:03:37.572Z</time></trkpt><trkpt lat="44.8434983" lon="1.0759583"><ele>63.2</ele><time>2026-03-29T13:03:38.571Z</time></trkpt><trkpt lat="44.8435383" lon="1.0760417"><ele>62.400000000000006</ele><time>2026-03-29T13:03:39.572Z</time></trkpt><trkpt lat="44.8435983" lon="1.07617"><ele>61.6</ele><time>2026-03-29T13:03:41.572Z</time></trkpt><trkpt lat="44.8436683" lon="1.0762867"><ele>60.8</ele><time>2026-03-29T13:03:44.571Z</time></trkpt><trkpt lat="44.8437383" lon="1.0764183"><ele>60.0</ele><time>2026-03-29T13:03:46.571Z</time></trkpt><trkpt lat="44.8437833" lon="1.0765"><ele>60.0</ele><time>2026-03-29T13:03:47.572Z</time></trkpt><trkpt lat="44.8438333" lon="1.0765933"><ele>60.0</ele><time>2026-03-29T13:03:48.571Z</time></trkpt><trkpt lat="44.8439017" lon="1.0767117"><ele>60.0</ele><time>2026-03-29T13:03:49.571Z</time></trkpt><trkpt lat="44.8439767" lon="1.07684"><ele>60.0</ele><time>2026-03-29T13:03:50.572Z</time></trkpt><trkpt lat="44.8440533" lon="1.0769717"><ele>60.0</ele><time>2026-03-29T13:03:51.572Z</time></trkpt><trkpt lat="44.8441333" lon="1.077125"><ele>60.0</ele><time>2026-03-29T13:03:52.571Z</time></trkpt><trkpt lat="44.8442317" lon="1.0772833"><ele>60.0</ele><time>2026-03-29T13:03:53.571Z</time></trkpt><trkpt lat="44.84432" lon="1.0774233"><ele>60.0</ele><time>2026-03-29T13:03:54.572Z</time></trkpt><trkpt lat="44.8444117" lon="1.0775617"><ele>60.0</ele><time>2026-03-29T13:03:55.571Z</time></trkpt><trkpt lat="44.8444983" lon="1.07772"><ele>60.5</ele><time>2026-03-29T13:03:56.572Z</time></trkpt><trkpt lat="44.844585" lon="1.0778767"><ele>61.0</ele><time>2026-03-29T13:03:57.572Z</time></trkpt><trkpt lat="44.8446583" lon="1.07803"><ele>61.5</ele><time>2026-03-29T13:03:58.572Z</time></trkpt><trkpt lat="44.8447317" lon="1.0781867"><ele>62.0</ele><time>2026-03-29T13:03:59.572Z</time></trkpt><trkpt lat="44.8448183" lon="1.07835"><ele>62.0</ele><time>2026-03-29T13:04:00.572Z</time></trkpt><trkpt lat="44.8449" lon="1.0785"><ele>62.0</ele><time>2026-03-29T13:04:01.571Z</time></trkpt><trkpt lat="44.8449883" lon="1.0786683"><ele>62.0</ele><time>2026-03-29T13:04:02.571Z</time></trkpt><trkpt lat="44.84508" lon="1.0788183"><ele>62.0</ele><time>2026-03-29T13:04:03.571Z</time></trkpt><trkpt lat="44.8451617" lon="1.0789583"><ele>61.75</ele><time>2026-03-29T13:04:04.571Z</time></trkpt><trkpt lat="44.8452483" lon="1.079105"><ele>61.5</ele><time>2026-03-29T13:04:05.572Z</time></trkpt><trkpt lat="44.8453233" lon="1.0792533"><ele>61.25</ele><time>2026-03-29T13:04:06.571Z</time></trkpt><trkpt lat="44.8454017" lon="1.0794083"><ele>61.0</ele><time>2026-03-29T13:04:07.572Z</time></trkpt><trkpt lat="44.8454833" lon="1.079555"><ele>61.0</ele><time>2026-03-29T13:04:08.571Z</time></trkpt><trkpt lat="44.84556" lon="1.0797"><ele>61.0</ele><time>2026-03-29T13:04:09.571Z</time></trkpt><trkpt lat="44.84564" lon="1.0798417"><ele>61.0</ele><time>2026-03-29T13:04:10.571Z</time></trkpt><trkpt lat="44.845725" lon="1.079985"><ele>61.0</ele><time>2026-03-29T13:04:11.572Z</time></trkpt><trkpt lat="44.8458117" lon="1.0801167"><ele>61.0</ele><time>2026-03-29T13:04:12.572Z</time></trkpt><trkpt lat="44.8458833" lon="1.0802483"><ele>60.99999999999999</ele><time>2026-03-29T13:04:13.571Z</time></trkpt><trkpt lat="44.8459467" lon="1.0803633"><ele>60.99999999999999</ele><time>2026-03-29T13:04:14.571Z</time></trkpt><trkpt lat="44.846" lon="1.0804717"><ele>61.0</ele><time>2026-03-29T13:04:15.572Z</time></trkpt><trkpt lat="44.84606" lon="1.080565"><ele>61.0</ele><time>2026-03-29T13:04:16.572Z</time></trkpt><trkpt lat="44.8461117" lon="1.0806383"><ele>61.199999999999996</ele><time>2026-03-29T13:04:17.572Z</time></trkpt><trkpt lat="44.8461483" lon="1.0807183"><ele>61.39999999999999</ele><time>2026-03-29T13:04:18.572Z</time></trkpt><trkpt lat="44.8461633" lon="1.0808067"><ele>61.6</ele><time>2026-03-29T13:04:19.571Z</time></trkpt><trkpt lat="44.8461167" lon="1.0809583"><ele>61.8</ele><time>2026-03-29T13:04:21.571Z</time></trkpt><trkpt lat="44.8460467" lon="1.0810383"><ele>62.0</ele><time>2026-03-29T13:04:22.572Z</time></trkpt><trkpt lat="44.8459433" lon="1.081125"><ele>62.25</ele><time>2026-03-29T13:04:23.572Z</time></trkpt><trkpt lat="44.8458433" lon="1.0812183"><ele>62.5</ele><time>2026-03-29T13:04:24.571Z</time></trkpt><trkpt lat="44.84573" lon="1.081325"><ele>62.75</ele><time>2026-03-29T13:04:25.571Z</time></trkpt><trkpt lat="44.8456033" lon="1.0814383"><ele>63.0</ele><time>2026-03-29T13:04:26.571Z</time></trkpt><trkpt lat="44.8455017" lon="1.08154"><ele>63.0</ele><time>2026-03-29T13:04:27.571Z</time></trkpt><trkpt lat="44.84542" lon="1.0816133"><ele>63.0</ele><time>2026-03-29T13:04:28.571Z</time></trkpt><trkpt lat="44.8453333" lon="1.0816767"><ele>63.0</ele><time>2026-03-29T13:04:29.571Z</time></trkpt><trkpt lat="44.8452483" lon="1.0817333"><ele>63.0</ele><time>2026-03-29T13:04:30.571Z</time></trkpt><trkpt lat="44.8451667" lon="1.0817617"><ele>63.0</ele><time>2026-03-29T13:04:31.572Z</time></trkpt><trkpt lat="44.8450183" lon="1.081835"><ele>63.0</ele><time>2026-03-29T13:04:33.571Z</time></trkpt><trkpt lat="44.8449517" lon="1.0818783"><ele>63.0</ele><time>2026-03-29T13:04:34.571Z</time></trkpt><trkpt lat="44.8448667" lon="1.08198"><ele>63.0</ele><time>2026-03-29T13:04:36.572Z</time></trkpt><trkpt lat="44.84486" lon="1.0820867"><ele>63.0</ele><time>2026-03-29T13:04:38.572Z</time></trkpt><trkpt lat="44.8449467" lon="1.08217"><ele>63.0</ele><time>2026-03-29T13:04:40.571Z</time></trkpt><trkpt lat="44.8450433" lon="1.0822"><ele>63.0</ele><time>2026-03-29T13:04:42.571Z</time></trkpt><trkpt lat="44.8451617" lon="1.0822167"><ele>63.0</ele><time>2026-03-29T13:04:44.572Z</time></trkpt><trkpt lat="44.8452783" lon="1.0822267"><ele>63.0</ele><time>2026-03-29T13:04:46.571Z</time></trkpt><trkpt lat="44.8453683" lon="1.0822867"><ele>63.0</ele><time>2026-03-29T13:04:48.571Z</time></trkpt><trkpt lat="44.84541" lon="1.0823867"><ele>63.0</ele><time>2026-03-29T13:05:05.572Z</time></trkpt><trkpt lat="44.8454767" lon="1.082415"><ele>63.0</ele><time>2026-03-29T13:05:25.571Z</time></trkpt><trkpt lat="44.8456333" lon="1.0823517"><ele>63.0</ele><time>2026-03-29T13:05:27.571Z</time></trkpt><trkpt lat="44.84574" lon="1.0822783"><ele>63.0</ele><time>2026-03-29T13:05:28.572Z</time></trkpt><trkpt lat="44.8459" lon="1.0821467"><ele>62.66666666666667</ele><time>2026-03-29T13:05:29.571Z</time></trkpt><trkpt lat="44.8460633" lon="1.0819983"><ele>62.333333333333336</ele><time>2026-03-29T13:05:30.571Z</time></trkpt><trkpt lat="44.846205" lon="1.081865"><ele>62.0</ele><time>2026-03-29T13:05:31.571Z</time></trkpt><trkpt lat="44.8463283" lon="1.0817517"><ele>62.0</ele><time>2026-03-29T13:05:32.572Z</time></trkpt><trkpt lat="44.8464317" lon="1.0816617"><ele>62.0</ele><time>2026-03-29T13:05:33.571Z</time></trkpt><trkpt lat="44.84651" lon="1.0816167"><ele>62.0</ele><time>2026-03-29T13:05:34.572Z</time></trkpt><trkpt lat="44.84659" lon="1.08162"><ele>62.0</ele><time>2026-03-29T13:05:35.571Z</time></trkpt><trkpt lat="44.846665" lon="1.081685"><ele>62.0</ele><time>2026-03-29T13:05:37.571Z</time></trkpt><trkpt lat="44.8466867" lon="1.081815"><ele>62.0</ele><time>2026-03-29T13:05:45.571Z</time></trkpt><trkpt lat="44.8467317" lon="1.081905"><ele>62.0</ele><time>2026-03-29T13:05:47.572Z</time></trkpt><trkpt lat="44.846795" lon="1.0820633"><ele>62.0</ele><time>2026-03-29T13:05:49.572Z</time></trkpt><trkpt lat="44.8468267" lon="1.0821683"><ele>62.0</ele><time>2026-03-29T13:05:50.572Z</time></trkpt><trkpt lat="44.8468667" lon="1.0822883"><ele>62.0</ele><time>2026-03-29T13:05:51.571Z</time></trkpt><trkpt lat="44.8469067" lon="1.0824167"><ele>62.833333333333336</ele><time>2026-03-29T13:05:52.571Z</time></trkpt><trkpt lat="44.8469383" lon="1.082535"><ele>63.66666666666667</ele><time>2026-03-29T13:05:53.571Z</time></trkpt><trkpt lat="44.8469733" lon="1.08264"><ele>64.5</ele><time>2026-03-29T13:05:54.572Z</time></trkpt><trkpt lat="44.847015" lon="1.0827517"><ele>65.33333333333333</ele><time>2026-03-29T13:05:55.571Z</time></trkpt><trkpt lat="44.847055" lon="1.0828633"><ele>66.16666666666666</ele><time>2026-03-29T13:05:56.572Z</time></trkpt><trkpt lat="44.8470867" lon="1.0829867"><ele>67.0</ele><time>2026-03-29T13:05:57.572Z</time></trkpt><trkpt lat="44.8471217" lon="1.0831083"><ele>67.0</ele><time>2026-03-29T13:05:58.572Z</time></trkpt><trkpt lat="44.8471483" lon="1.0832267"><ele>67.0</ele><time>2026-03-29T13:05:59.571Z</time></trkpt><trkpt lat="44.8471817" lon="1.0833567"><ele>67.0</ele><time>2026-03-29T13:06:00.571Z</time></trkpt><trkpt lat="44.8472233" lon="1.0834733"><ele>67.0</ele><time>2026-03-29T13:06:01.571Z</time></trkpt><trkpt lat="44.8472733" lon="1.0835717"><ele>67.0</ele><time>2026-03-29T13:06:02.572Z</time></trkpt><trkpt lat="44.8473283" lon="1.0836517"><ele>67.0</ele><time>2026-03-29T13:06:03.572Z</time></trkpt><trkpt lat="44.8473983" lon="1.083705"><ele>67.8</ele><time>2026-03-29T13:06:04.571Z</time></trkpt><trkpt lat="44.8474817" lon="1.0837367"><ele>68.6</ele><time>2026-03-29T13:06:05.572Z</time></trkpt><trkpt lat="44.8475783" lon="1.0837517"><ele>69.39999999999999</ele><time>2026-03-29T13:06:06.571Z</time></trkpt><trkpt lat="44.8476783" lon="1.08376"><ele>70.2</ele><time>2026-03-29T13:06:07.572Z</time></trkpt><trkpt lat="44.8477717" lon="1.0837733"><ele>71.0</ele><time>2026-03-29T13:06:08.572Z</time></trkpt><trkpt lat="44.8478667" lon="1.0837867"><ele>72.33333333333334</ele><time>2026-03-29T13:06:09.571Z</time></trkpt><trkpt lat="44.8479633" lon="1.0837933"><ele>73.66666666666667</ele><time>2026-03-29T13:06:10.572Z</time></trkpt><trkpt lat="44.8480567" lon="1.0838083"><ele>75.0</ele><time>2026-03-29T13:06:11.572Z</time></trkpt><trkpt lat="44.84814" lon="1.0838283"><ele>76.33333333333333</ele><time>2026-03-29T13:06:12.572Z</time></trkpt><trkpt lat="44.84822" lon="1.0838417"><ele>77.66666666666666</ele><time>2026-03-29T13:06:13.571Z</time></trkpt><trkpt lat="44.8483017" lon="1.0838483"><ele>79.0</ele><time>2026-03-29T13:06:14.571Z</time></trkpt><trkpt lat="44.8483817" lon="1.0838567"><ele>79.0</ele><time>2026-03-29T13:06:15.571Z</time></trkpt><trkpt lat="44.8484583" lon="1.0838533"><ele>79.0</ele><time>2026-03-29T13:06:16.571Z</time></trkpt><trkpt lat="44.8485367" lon="1.0838417"><ele>79.0</ele><time>2026-03-29T13:06:17.571Z</time></trkpt><trkpt lat="44.8486133" lon="1.08383"><ele>79.0</ele><time>2026-03-29T13:06:18.571Z</time></trkpt><trkpt lat="44.8486867" lon="1.0838067"><ele>79.0</ele><time>2026-03-29T13:06:19.571Z</time></trkpt><trkpt lat="44.8487833" lon="1.0837733"><ele>79.0</ele><time>2026-03-29T13:06:21.572Z</time></trkpt><trkpt lat="44.8488517" lon="1.0837883"><ele>81.5</ele><time>2026-03-29T13:06:23.572Z</time></trkpt><trkpt lat="44.8489117" lon="1.0838583"><ele>84.0</ele><time>2026-03-29T13:06:25.572Z</time></trkpt><trkpt lat="44.8489383" lon="1.08396"><ele>86.5</ele><time>2026-03-29T13:06:27.572Z</time></trkpt><trkpt lat="44.84892" lon="1.08405"><ele>89.0</ele><time>2026-03-29T13:06:29.572Z</time></trkpt><trkpt lat="44.8488117" lon="1.0841633"><ele>91.5</ele><time>2026-03-29T13:06:31.571Z</time></trkpt><trkpt lat="44.8487333" lon="1.084225"><ele>94.0</ele><time>2026-03-29T13:06:32.571Z</time></trkpt><trkpt lat="44.8486367" lon="1.0842883"><ele>94.2</ele><time>2026-03-29T13:06:33.571Z</time></trkpt><trkpt lat="44.8485233" lon="1.0843617"><ele>94.4</ele><time>2026-03-29T13:06:34.572Z</time></trkpt><trkpt lat="44.8484383" lon="1.08443"><ele>94.6</ele><time>2026-03-29T13:06:35.571Z</time></trkpt><trkpt lat="44.8483533" lon="1.0844917"><ele>94.8</ele><time>2026-03-29T13:06:36.571Z</time></trkpt><trkpt lat="44.8482633" lon="1.0845583"><ele>95.0</ele><time>2026-03-29T13:06:37.572Z</time></trkpt><trkpt lat="44.84817" lon="1.08462"><ele>95.0</ele><time>2026-03-29T13:06:38.571Z</time></trkpt><trkpt lat="44.8480933" lon="1.08469"><ele>95.0</ele><time>2026-03-29T13:06:39.572Z</time></trkpt><trkpt lat="44.84802" lon="1.0847633"><ele>95.0</ele><time>2026-03-29T13:06:40.571Z</time></trkpt><trkpt lat="44.8479533" lon="1.084845"><ele>95.0</ele><time>2026-03-29T13:06:41.571Z</time></trkpt><trkpt lat="44.8478983" lon="1.08493"><ele>95.0</ele><time>2026-03-29T13:06:42.572Z</time></trkpt><trkpt lat="44.84779" lon="1.0850967"><ele>96.0</ele><time>2026-03-29T13:06:44.572Z</time></trkpt><trkpt lat="44.8476817" lon="1.085255"><ele>97.0</ele><time>2026-03-29T13:06:46.571Z</time></trkpt><trkpt lat="44.847595" lon="1.0853633"><ele>98.0</ele><time>2026-03-29T13:06:48.571Z</time></trkpt><trkpt lat="44.8475317" lon="1.0854733"><ele>99.0</ele><time>2026-03-29T13:06:50.571Z</time></trkpt><trkpt lat="44.8475133" lon="1.0855617"><ele>100.0</ele><time>2026-03-29T13:06:53.571Z</time></trkpt><trkpt lat="44.8475533" lon="1.08565"><ele>100.0</ele><time>2026-03-29T13:06:55.571Z</time></trkpt><trkpt lat="44.8476217" lon="1.0856633"><ele>100.0</ele><time>2026-03-29T13:06:56.572Z</time></trkpt><trkpt lat="44.8477567" lon="1.0856617"><ele>100.0</ele><time>2026-03-29T13:06:58.572Z</time></trkpt><trkpt lat="44.8478467" lon="1.085645"><ele>100.0</ele><time>2026-03-29T13:06:59.572Z</time></trkpt><trkpt lat="44.8479533" lon="1.0856267"><ele>100.0</ele><time>2026-03-29T13:07:00.572Z</time></trkpt><trkpt lat="44.848065" lon="1.085625"><ele>102.25</ele><time>2026-03-29T13:07:01.572Z</time></trkpt><trkpt lat="44.8482817" lon="1.085635"><ele>104.5</ele><time>2026-03-29T13:07:03.572Z</time></trkpt><trkpt lat="44.8483933" lon="1.08565"><ele>106.75</ele><time>2026-03-29T13:07:04.572Z</time></trkpt><trkpt lat="44.8485" lon="1.085665"><ele>109.0</ele><time>2026-03-29T13:07:05.571Z</time></trkpt><trkpt lat="44.8485917" lon="1.0856767"><ele>111.80000000000001</ele><time>2026-03-29T13:07:06.571Z</time></trkpt><trkpt lat="44.8486733" lon="1.0856783"><ele>114.60000000000001</ele><time>2026-03-29T13:07:07.571Z</time></trkpt><trkpt lat="44.8487567" lon="1.0856783"><ele>117.4</ele><time>2026-03-29T13:07:08.572Z</time></trkpt><trkpt lat="44.84885" lon="1.0856633"><ele>120.2</ele><time>2026-03-29T13:07:09.572Z</time></trkpt><trkpt lat="44.8489417" lon="1.0856633"><ele>123.0</ele><time>2026-03-29T13:07:10.571Z</time></trkpt><trkpt lat="44.84904" lon="1.08564"><ele>123.0</ele><time>2026-03-29T13:07:11.572Z</time></trkpt><trkpt lat="44.8491283" lon="1.0856017"><ele>123.00000000000001</ele><time>2026-03-29T13:07:12.571Z</time></trkpt><trkpt lat="44.8492233" lon="1.0855683"><ele>123.00000000000001</ele><time>2026-03-29T13:07:13.571Z</time></trkpt><trkpt lat="44.84932" lon="1.085515"><ele>123.0</ele><time>2026-03-29T13:07:14.571Z</time></trkpt><trkpt lat="44.8494117" lon="1.08545"><ele>123.0</ele><time>2026-03-29T13:07:15.572Z</time></trkpt><trkpt lat="44.8494983" lon="1.085385"><ele>127.5</ele><time>2026-03-29T13:07:16.571Z</time></trkpt><trkpt lat="44.8495933" lon="1.0853067"><ele>132.0</ele><time>2026-03-29T13:07:17.571Z</time></trkpt><trkpt lat="44.8496917" lon="1.0852383"><ele>136.5</ele><time>2026-03-29T13:07:18.571Z</time></trkpt><trkpt lat="44.8497983" lon="1.085175"><ele>141.0</ele><time>2026-03-29T13:07:19.572Z</time></trkpt><trkpt lat="44.8499117" lon="1.0851117"><ele>141.0</ele><time>2026-03-29T13:07:20.572Z</time></trkpt><trkpt lat="44.85" lon="1.085045"><ele>141.0</ele><time>2026-03-29T13:07:21.572Z</time></trkpt><trkpt lat="44.8500983" lon="1.08497"><ele>141.0</ele><time>2026-03-29T13:07:22.572Z</time></trkpt><trkpt lat="44.8502083" lon="1.0848667"><ele>141.0</ele><time>2026-03-29T13:07:23.571Z</time></trkpt><trkpt lat="44.85031" lon="1.08478"><ele>140.0</ele><time>2026-03-29T13:07:24.572Z</time></trkpt><trkpt lat="44.8504183" lon="1.0847017"><ele>139.0</ele><time>2026-03-29T13:07:25.572Z</time></trkpt><trkpt lat="44.8505333" lon="1.08464"><ele>138.0</ele><time>2026-03-29T13:07:26.572Z</time></trkpt><trkpt lat="44.8506417" lon="1.0846033"><ele>137.0</ele><time>2026-03-29T13:07:27.572Z</time></trkpt><trkpt lat="44.8507483" lon="1.0845767"><ele>137.0</ele><time>2026-03-29T13:07:28.572Z</time></trkpt><trkpt lat="44.850845" lon="1.0845433"><ele>137.0</ele><time>2026-03-29T13:07:29.571Z</time></trkpt><trkpt lat="44.8509283" lon="1.08449"><ele>137.0</ele><time>2026-03-29T13:07:30.571Z</time></trkpt><trkpt lat="44.8510067" lon="1.0844217"><ele>137.0</ele><time>2026-03-29T13:07:31.571Z</time></trkpt><trkpt lat="44.8510733" lon="1.08436"><ele>137.0</ele><time>2026-03-29T13:07:32.572Z</time></trkpt><trkpt lat="44.8511333" lon="1.08431"><ele>137.0</ele><time>2026-03-29T13:07:33.571Z</time></trkpt><trkpt lat="44.8512" lon="1.08428"><ele>139.2</ele><time>2026-03-29T13:07:34.571Z</time></trkpt><trkpt lat="44.8512867" lon="1.0842933"><ele>141.39999999999998</ele><time>2026-03-29T13:07:35.571Z</time></trkpt><trkpt lat="44.8513867" lon="1.084315"><ele>143.60000000000002</ele><time>2026-03-29T13:07:36.571Z</time></trkpt><trkpt lat="44.851495" lon="1.08435"><ele>145.8</ele><time>2026-03-29T13:07:37.571Z</time></trkpt><trkpt lat="44.85161" lon="1.0843867"><ele>148.0</ele><time>2026-03-29T13:07:38.571Z</time></trkpt><trkpt lat="44.8517233" lon="1.0844333"><ele>149.66666666666669</ele><time>2026-03-29T13:07:39.57Z</time></trkpt><trkpt lat="44.8518183" lon="1.0844667"><ele>151.33333333333334</ele><time>2026-03-29T13:07:40.571Z</time></trkpt><trkpt lat="44.8519067" lon="1.0844883"><ele>153.0</ele><time>2026-03-29T13:07:41.571Z</time></trkpt><trkpt lat="44.8519783" lon="1.0844967"><ele>154.66666666666666</ele><time>2026-03-29T13:07:42.571Z</time></trkpt><trkpt lat="44.8520517" lon="1.0844783"><ele>156.33333333333331</ele><time>2026-03-29T13:07:43.57Z</time></trkpt><trkpt lat="44.8521167" lon="1.08443"><ele>158.0</ele><time>2026-03-29T13:07:44.57Z</time></trkpt><trkpt lat="44.85218" lon="1.084345"><ele>158.0</ele><time>2026-03-29T13:07:45.571Z</time></trkpt><trkpt lat="44.8522317" lon="1.0842783"><ele>158.0</ele><time>2026-03-29T13:07:46.571Z</time></trkpt><trkpt lat="44.8522817" lon="1.0842167"><ele>158.0</ele><time>2026-03-29T13:07:47.571Z</time></trkpt><trkpt lat="44.8523867" lon="1.0841883"><ele>158.0</ele><time>2026-03-29T13:07:49.571Z</time></trkpt><trkpt lat="44.8524533" lon="1.08422"><ele>158.0</ele><time>2026-03-29T13:07:50.57Z</time></trkpt><trkpt lat="44.8525283" lon="1.0842817"><ele>158.0</ele><time>2026-03-29T13:07:51.571Z</time></trkpt><trkpt lat="44.85261" lon="1.0843617"><ele>162.0</ele><time>2026-03-29T13:07:52.57Z</time></trkpt><trkpt lat="44.8527" lon="1.0844433"><ele>166.0</ele><time>2026-03-29T13:07:53.571Z</time></trkpt><trkpt lat="44.852795" lon="1.0845217"><ele>170.0</ele><time>2026-03-29T13:07:54.57Z</time></trkpt><trkpt lat="44.852885" lon="1.0846117"><ele>174.0</ele><time>2026-03-29T13:07:55.57Z</time></trkpt><trkpt lat="44.8529617" lon="1.0847083"><ele>178.0</ele><time>2026-03-29T13:07:56.57Z</time></trkpt><trkpt lat="44.85304" lon="1.0847817"><ele>178.0</ele><time>2026-03-29T13:07:57.57Z</time></trkpt><trkpt lat="44.8531" lon="1.08485"><ele>178.0</ele><time>2026-03-29T13:07:58.571Z</time></trkpt><trkpt lat="44.853195" lon="1.0849517"><ele>178.0</ele><time>2026-03-29T13:08:00.571Z</time></trkpt><trkpt lat="44.8532717" lon="1.085025"><ele>178.0</ele><time>2026-03-29T13:08:02.571Z</time></trkpt><trkpt lat="44.85331" lon="1.085125"><ele>178.0</ele><time>2026-03-29T13:08:07.57Z</time></trkpt><trkpt lat="44.85335" lon="1.0851983"><ele>178.0</ele><time>2026-03-29T13:08:10.57Z</time></trkpt><trkpt lat="44.8534383" lon="1.085255"><ele>178.8</ele><time>2026-03-29T13:08:13.57Z</time></trkpt><trkpt lat="44.8535317" lon="1.0852783"><ele>179.60000000000002</ele><time>2026-03-29T13:08:16.57Z</time></trkpt><trkpt lat="44.85363" lon="1.085285"><ele>180.39999999999998</ele><time>2026-03-29T13:08:18.57Z</time></trkpt><trkpt lat="44.8537633" lon="1.0852917"><ele>181.2</ele><time>2026-03-29T13:08:20.571Z</time></trkpt><trkpt lat="44.8538317" lon="1.0852917"><ele>182.0</ele><time>2026-03-29T13:08:21.571Z</time></trkpt><trkpt lat="44.853905" lon="1.0852983"><ele>182.0</ele><time>2026-03-29T13:08:22.57Z</time></trkpt><trkpt lat="44.8539817" lon="1.0853067"><ele>182.0</ele><time>2026-03-29T13:08:23.57Z</time></trkpt><trkpt lat="44.8540683" lon="1.085315"><ele>182.0</ele><time>2026-03-29T13:08:24.571Z</time></trkpt><trkpt lat="44.8541667" lon="1.0853233"><ele>182.0</ele><time>2026-03-29T13:08:25.571Z</time></trkpt><trkpt lat="44.8542633" lon="1.08535"><ele>182.0</ele><time>2026-03-29T13:08:26.57Z</time></trkpt><trkpt lat="44.854355" lon="1.0853983"><ele>185.83333333333331</ele><time>2026-03-29T13:08:27.571Z</time></trkpt><trkpt lat="44.85444" lon="1.085445"><ele>189.66666666666666</ele><time>2026-03-29T13:08:28.571Z</time></trkpt><trkpt lat="44.8545167" lon="1.0854933"><ele>193.5</ele><time>2026-03-29T13:08:29.571Z</time></trkpt><trkpt lat="44.8545867" lon="1.0855367"><ele>197.33333333333331</ele><time>2026-03-29T13:08:30.571Z</time></trkpt><trkpt lat="44.85465" lon="1.0855767"><ele>201.16666666666666</ele><time>2026-03-29T13:08:31.571Z</time></trkpt><trkpt lat="44.8547067" lon="1.085625"><ele>205.0</ele><time>2026-03-29T13:08:32.57Z</time></trkpt><trkpt lat="44.854785" lon="1.0856817"><ele>205.0</ele><time>2026-03-29T13:08:33.571Z</time></trkpt><trkpt lat="44.8548683" lon="1.0857383"><ele>205.0</ele><time>2026-03-29T13:08:34.57Z</time></trkpt><trkpt lat="44.8549683" lon="1.085805"><ele>205.0</ele><time>2026-03-29T13:08:35.57Z</time></trkpt><trkpt lat="44.8550783" lon="1.0858767"><ele>205.0</ele><time>2026-03-29T13:08:36.57Z</time></trkpt><trkpt lat="44.855195" lon="1.0859567"><ele>205.66666666666666</ele><time>2026-03-29T13:08:37.57Z</time></trkpt><trkpt lat="44.8553383" lon="1.0860517"><ele>206.33333333333331</ele><time>2026-03-29T13:08:38.571Z</time></trkpt><trkpt lat="44.85549" lon="1.086155"><ele>207.0</ele><time>2026-03-29T13:08:39.571Z</time></trkpt><trkpt lat="44.8556283" lon="1.0862533"><ele>207.0</ele><time>2026-03-29T13:08:40.57Z</time></trkpt><trkpt lat="44.8557667" lon="1.086375"><ele>207.0</ele><time>2026-03-29T13:08:41.571Z</time></trkpt><trkpt lat="44.8558883" lon="1.086455"><ele>207.0</ele><time>2026-03-29T13:08:42.57Z</time></trkpt><trkpt lat="44.8560117" lon="1.086475"><ele>207.0</ele><time>2026-03-29T13:08:43.57Z</time></trkpt><trkpt lat="44.8561417" lon="1.0864783"><ele>207.0</ele><time>2026-03-29T13:08:44.57Z</time></trkpt><trkpt lat="44.856265" lon="1.0864867"><ele>207.0</ele><time>2026-03-29T13:08:45.57Z</time></trkpt><trkpt lat="44.8563883" lon="1.0864967"><ele>207.0</ele><time>2026-03-29T13:08:46.57Z</time></trkpt><trkpt lat="44.856505" lon="1.0865217"><ele>207.0</ele><time>2026-03-29T13:08:47.57Z</time></trkpt><trkpt lat="44.8565833" lon="1.086655"><ele>207.0</ele><time>2026-03-29T13:08:48.571Z</time></trkpt><trkpt lat="44.8566667" lon="1.0867833"><ele>207.0</ele><time>2026-03-29T13:08:49.571Z</time></trkpt><trkpt lat="44.8567183" lon="1.086975"><ele>207.0</ele><time>2026-03-29T13:08:50.571Z</time></trkpt><trkpt lat="44.8567817" lon="1.0871017"><ele>207.0</ele><time>2026-03-29T13:08:51.571Z</time></trkpt><trkpt lat="44.8568567" lon="1.0871883"><ele>210.6</ele><time>2026-03-29T13:08:52.57Z</time></trkpt><trkpt lat="44.85695" lon="1.087275"><ele>214.2</ele><time>2026-03-29T13:08:53.57Z</time></trkpt><trkpt lat="44.8570433" lon="1.087355"><ele>217.8</ele><time>2026-03-29T13:08:54.57Z</time></trkpt><trkpt lat="44.8571317" lon="1.087415"><ele>221.4</ele><time>2026-03-29T13:08:55.571Z</time></trkpt><trkpt lat="44.8572333" lon="1.08745"><ele>225.0</ele><time>2026-03-29T13:08:56.571Z</time></trkpt><trkpt lat="44.8573483" lon="1.08747"><ele>225.0</ele><time>2026-03-29T13:08:57.57Z</time></trkpt><trkpt lat="44.8574983" lon="1.08746"><ele>225.0</ele><time>2026-03-29T13:08:58.571Z</time></trkpt><trkpt lat="44.857655" lon="1.0874533"><ele>225.0</ele><time>2026-03-29T13:08:59.57Z</time></trkpt><trkpt lat="44.85781" lon="1.08746"><ele>229.66666666666669</ele><time>2026-03-29T13:09:00.57Z</time></trkpt><trkpt lat="44.85797" lon="1.0874767"><ele>234.33333333333334</ele><time>2026-03-29T13:09:01.571Z</time></trkpt><trkpt lat="44.8581317" lon="1.0874867"><ele>239.0</ele><time>2026-03-29T13:09:02.571Z</time></trkpt><trkpt lat="44.8582983" lon="1.0875017"><ele>239.0</ele><time>2026-03-29T13:09:03.571Z</time></trkpt><trkpt lat="44.85844" lon="1.0875083"><ele>239.0</ele><time>2026-03-29T13:09:04.571Z</time></trkpt><trkpt lat="44.858565" lon="1.087515"><ele>239.0</ele><time>2026-03-29T13:09:05.57Z</time></trkpt><trkpt lat="44.85868" lon="1.0875333"><ele>239.0</ele><time>2026-03-29T13:09:06.57Z</time></trkpt><trkpt lat="44.8588017" lon="1.0875433"><ele>239.6</ele><time>2026-03-29T13:09:07.571Z</time></trkpt><trkpt lat="44.858915" lon="1.08757"><ele>240.2</ele><time>2026-03-29T13:09:08.571Z</time></trkpt><trkpt lat="44.859025" lon="1.08762"><ele>240.79999999999998</ele><time>2026-03-29T13:09:09.571Z</time></trkpt><trkpt lat="44.8591183" lon="1.0876717"><ele>241.39999999999998</ele><time>2026-03-29T13:09:10.57Z</time></trkpt><trkpt lat="44.8592283" lon="1.0877133"><ele>242.0</ele><time>2026-03-29T13:09:12.57Z</time></trkpt><trkpt lat="44.859295" lon="1.0877317"><ele>242.00000000000003</ele><time>2026-03-29T13:09:14.57Z</time></trkpt><trkpt lat="44.859365" lon="1.0878067"><ele>242.0</ele><time>2026-03-29T13:09:18.57Z</time></trkpt><trkpt lat="44.8594117" lon="1.0879083"><ele>242.0</ele><time>2026-03-29T13:09:20.57Z</time></trkpt><trkpt lat="44.8594533" lon="1.08806"><ele>242.0</ele><time>2026-03-29T13:09:22.57Z</time></trkpt><trkpt lat="44.8594783" lon="1.0881433"><ele>242.00000000000003</ele><time>2026-03-29T13:09:23.57Z</time></trkpt><trkpt lat="44.85951" lon="1.0882367"><ele>242.0</ele><time>2026-03-29T13:09:24.57Z</time></trkpt><trkpt lat="44.859545" lon="1.0883233"><ele>243.83333333333334</ele><time>2026-03-29T13:09:25.571Z</time></trkpt><trkpt lat="44.8595917" lon="1.0884233"><ele>245.66666666666669</ele><time>2026-03-29T13:09:26.571Z</time></trkpt><trkpt lat="44.8596383" lon="1.0885117"><ele>247.5</ele><time>2026-03-29T13:09:27.57Z</time></trkpt><trkpt lat="44.859695" lon="1.088605"><ele>249.33333333333331</ele><time>2026-03-29T13:09:28.57Z</time></trkpt><trkpt lat="44.8597617" lon="1.0887017"><ele>251.16666666666666</ele><time>2026-03-29T13:09:29.571Z</time></trkpt><trkpt lat="44.8598383" lon="1.088795"><ele>253.0</ele><time>2026-03-29T13:09:30.57Z</time></trkpt><trkpt lat="44.85992" lon="1.0889017"><ele>253.0</ele><time>2026-03-29T13:09:31.571Z</time></trkpt><trkpt lat="44.8599783" lon="1.0890167"><ele>253.0</ele><time>2026-03-29T13:09:32.57Z</time></trkpt><trkpt lat="44.8600283" lon="1.0891367"><ele>253.0</ele><time>2026-03-29T13:09:33.571Z</time></trkpt><trkpt lat="44.8600883" lon="1.0892617"><ele>253.0</ele><time>2026-03-29T13:09:34.57Z</time></trkpt><trkpt lat="44.8601367" lon="1.08937"><ele>253.0</ele><time>2026-03-29T13:09:35.57Z</time></trkpt><trkpt lat="44.8601933" lon="1.0894867"><ele>254.8</ele><time>2026-03-29T13:09:36.57Z</time></trkpt><trkpt lat="44.8602483" lon="1.0895917"><ele>256.6</ele><time>2026-03-29T13:09:37.57Z</time></trkpt><trkpt lat="44.8602967" lon="1.0896933"><ele>258.4</ele><time>2026-03-29T13:09:38.57Z</time></trkpt><trkpt lat="44.8603317" lon="1.0897833"><ele>260.2</ele><time>2026-03-29T13:09:39.57Z</time></trkpt><trkpt lat="44.8604133" lon="1.0899017"><ele>262.0</ele><time>2026-03-29T13:09:41.571Z</time></trkpt><trkpt lat="44.8604983" lon="1.0899417"><ele>262.0</ele><time>2026-03-29T13:09:43.57Z</time></trkpt><trkpt lat="44.8606167" lon="1.0899167"><ele>262.0</ele><time>2026-03-29T13:09:45.57Z</time></trkpt><trkpt lat="44.8606883" lon="1.0898633"><ele>262.0</ele><time>2026-03-29T13:09:46.57Z</time></trkpt><trkpt lat="44.860785" lon="1.0897633"><ele>262.0</ele><time>2026-03-29T13:09:47.57Z</time></trkpt><trkpt lat="44.8608817" lon="1.089645"><ele>262.0</ele><time>2026-03-29T13:09:48.57Z</time></trkpt><trkpt lat="44.8610083" lon="1.0894817"><ele>260.0</ele><time>2026-03-29T13:09:49.571Z</time></trkpt><trkpt lat="44.8611383" lon="1.08929"><ele>258.0</ele><time>2026-03-29T13:09:50.571Z</time></trkpt><trkpt lat="44.86126" lon="1.0891033"><ele>256.0</ele><time>2026-03-29T13:09:51.571Z</time></trkpt><trkpt lat="44.8613883" lon="1.088925"><ele>255.66666666666666</ele><time>2026-03-29T13:09:52.571Z</time></trkpt><trkpt lat="44.8615117" lon="1.088755"><ele>255.33333333333331</ele><time>2026-03-29T13:09:53.571Z</time></trkpt><trkpt lat="44.8616233" lon="1.0885817"><ele>255.0</ele><time>2026-03-29T13:09:54.57Z</time></trkpt><trkpt lat="44.861715" lon="1.0884233"><ele>255.66666666666669</ele><time>2026-03-29T13:09:55.571Z</time></trkpt><trkpt lat="44.8618217" lon="1.08828"><ele>256.33333333333337</ele><time>2026-03-29T13:09:56.57Z</time></trkpt><trkpt lat="44.8619367" lon="1.08814"><ele>257.0</ele><time>2026-03-29T13:09:57.571Z</time></trkpt><trkpt lat="44.86207" lon="1.0880267"><ele>257.0</ele><time>2026-03-29T13:09:58.571Z</time></trkpt><trkpt lat="44.8622083" lon="1.0879117"><ele>257.0</ele><time>2026-03-29T13:09:59.571Z</time></trkpt><trkpt lat="44.862335" lon="1.08782"><ele>257.0</ele><time>2026-03-29T13:10:00.57Z</time></trkpt><trkpt lat="44.8624583" lon="1.0877267"><ele>257.0</ele><time>2026-03-29T13:10:01.57Z</time></trkpt><trkpt lat="44.8625883" lon="1.0876367"><ele>256.75</ele><time>2026-03-29T13:10:02.571Z</time></trkpt><trkpt lat="44.86272" lon="1.08755"><ele>256.5</ele><time>2026-03-29T13:10:03.57Z</time></trkpt><trkpt lat="44.8628367" lon="1.08746"><ele>256.25</ele><time>2026-03-29T13:10:04.57Z</time></trkpt><trkpt lat="44.86295" lon="1.0873683"><ele>256.0</ele><time>2026-03-29T13:10:05.571Z</time></trkpt><trkpt lat="44.8630683" lon="1.0872967"><ele>256.0</ele><time>2026-03-29T13:10:06.571Z</time></trkpt><trkpt lat="44.8631833" lon="1.0872183"><ele>256.0</ele><time>2026-03-29T13:10:07.571Z</time></trkpt><trkpt lat="44.8632717" lon="1.0871367"><ele>256.0</ele><time>2026-03-29T13:10:08.571Z</time></trkpt><trkpt lat="44.8633717" lon="1.087065"><ele>256.0</ele><time>2026-03-29T13:10:09.571Z</time></trkpt><trkpt lat="44.8634767" lon="1.0869783"><ele>256.2</ele><time>2026-03-29T13:10:10.57Z</time></trkpt><trkpt lat="44.86357" lon="1.0868933"><ele>256.40000000000003</ele><time>2026-03-29T13:10:11.571Z</time></trkpt><trkpt lat="44.8636617" lon="1.0868133"><ele>256.6</ele><time>2026-03-29T13:10:12.57Z</time></trkpt><trkpt lat="44.8637467" lon="1.0867233"><ele>256.8</ele><time>2026-03-29T13:10:13.571Z</time></trkpt><trkpt lat="44.8638417" lon="1.0866167"><ele>257.0</ele><time>2026-03-29T13:10:14.571Z</time></trkpt><trkpt lat="44.863945" lon="1.0865167"><ele>257.75</ele><time>2026-03-29T13:10:15.57Z</time></trkpt><trkpt lat="44.8640467" lon="1.0864017"><ele>258.5</ele><time>2026-03-29T13:10:16.57Z</time></trkpt><trkpt lat="44.864145" lon="1.0862933"><ele>259.25</ele><time>2026-03-29T13:10:17.57Z</time></trkpt><trkpt lat="44.864275" lon="1.0861917"><ele>260.0</ele><time>2026-03-29T13:10:18.57Z</time></trkpt><trkpt lat="44.8643867" lon="1.08613"><ele>261.0</ele><time>2026-03-29T13:10:19.571Z</time></trkpt><trkpt lat="44.864505" lon="1.0860817"><ele>262.0</ele><time>2026-03-29T13:10:20.571Z</time></trkpt><trkpt lat="44.86464" lon="1.08606"><ele>263.0</ele><time>2026-03-29T13:10:21.571Z</time></trkpt><trkpt lat="44.86479" lon="1.0860133"><ele>264.0</ele><time>2026-03-29T13:10:22.57Z</time></trkpt><trkpt lat="44.8649267" lon="1.0859417"><ele>264.0</ele><time>2026-03-29T13:10:23.571Z</time></trkpt><trkpt lat="44.86506" lon="1.0858667"><ele>264.0</ele><time>2026-03-29T13:10:24.57Z</time></trkpt><trkpt lat="44.865195" lon="1.085785"><ele>264.0</ele><time>2026-03-29T13:10:25.571Z</time></trkpt><trkpt lat="44.8653217" lon="1.08571"><ele>264.0</ele><time>2026-03-29T13:10:26.57Z</time></trkpt><trkpt lat="44.8654567" lon="1.0856217"><ele>261.75</ele><time>2026-03-29T13:10:27.571Z</time></trkpt><trkpt lat="44.8655883" lon="1.0855583"><ele>259.5</ele><time>2026-03-29T13:10:28.571Z</time></trkpt><trkpt lat="44.8657217" lon="1.08549"><ele>257.25</ele><time>2026-03-29T13:10:29.571Z</time></trkpt><trkpt lat="44.8658567" lon="1.0854267"><ele>255.0</ele><time>2026-03-29T13:10:30.57Z</time></trkpt><trkpt lat="44.8659867" lon="1.085365"><ele>255.0</ele><time>2026-03-29T13:10:31.571Z</time></trkpt><trkpt lat="44.8661083" lon="1.08531"><ele>255.0</ele><time>2026-03-29T13:10:32.571Z</time></trkpt><trkpt lat="44.8662267" lon="1.0852783"><ele>255.0</ele><time>2026-03-29T13:10:33.57Z</time></trkpt><trkpt lat="44.8663633" lon="1.085255"><ele>255.0</ele><time>2026-03-29T13:10:34.571Z</time></trkpt><trkpt lat="44.8664983" lon="1.085245"><ele>255.0</ele><time>2026-03-29T13:10:35.57Z</time></trkpt><trkpt lat="44.866615" lon="1.0852533"><ele>255.0</ele><time>2026-03-29T13:10:36.57Z</time></trkpt><trkpt lat="44.8667417" lon="1.085275"><ele>255.0</ele><time>2026-03-29T13:10:37.57Z</time></trkpt><trkpt lat="44.8668467" lon="1.0852983"><ele>255.0</ele><time>2026-03-29T13:10:38.57Z</time></trkpt><trkpt lat="44.8669533" lon="1.0853267"><ele>254.75</ele><time>2026-03-29T13:10:39.571Z</time></trkpt><trkpt lat="44.867085" lon="1.0853583"><ele>254.5</ele><time>2026-03-29T13:10:40.571Z</time></trkpt><trkpt lat="44.8672133" lon="1.0853983"><ele>254.25</ele><time>2026-03-29T13:10:41.571Z</time></trkpt><trkpt lat="44.86734" lon="1.0854283"><ele>254.0</ele><time>2026-03-29T13:10:42.57Z</time></trkpt><trkpt lat="44.8674583" lon="1.0854583"><ele>254.0</ele><time>2026-03-29T13:10:43.57Z</time></trkpt><trkpt lat="44.8675817" lon="1.085495"><ele>254.0</ele><time>2026-03-29T13:10:44.571Z</time></trkpt><trkpt lat="44.867715" lon="1.0855183"><ele>254.0</ele><time>2026-03-29T13:10:45.571Z</time></trkpt><trkpt lat="44.8678583" lon="1.08554"><ele>254.0</ele><time>2026-03-29T13:10:46.571Z</time></trkpt><trkpt lat="44.8679983" lon="1.0855383"><ele>252.25</ele><time>2026-03-29T13:10:47.571Z</time></trkpt><trkpt lat="44.8681283" lon="1.085535"><ele>250.5</ele><time>2026-03-29T13:10:48.57Z</time></trkpt><trkpt lat="44.8682717" lon="1.085505"><ele>248.75</ele><time>2026-03-29T13:10:49.57Z</time></trkpt><trkpt lat="44.8684117" lon="1.0854667"><ele>247.0</ele><time>2026-03-29T13:10:50.571Z</time></trkpt><trkpt lat="44.8685483" lon="1.0854333"><ele>247.0</ele><time>2026-03-29T13:10:51.57Z</time></trkpt><trkpt lat="44.868685" lon="1.0853917"><ele>247.0</ele><time>2026-03-29T13:10:52.571Z</time></trkpt><trkpt lat="44.8688183" lon="1.0853517"><ele>247.0</ele><time>2026-03-29T13:10:53.571Z</time></trkpt><trkpt lat="44.8689333" lon="1.0853317"><ele>247.0</ele><time>2026-03-29T13:10:54.57Z</time></trkpt><trkpt lat="44.8690217" lon="1.0853167"><ele>247.0</ele><time>2026-03-29T13:10:55.571Z</time></trkpt><trkpt lat="44.8691083" lon="1.0853217"><ele>247.0</ele><time>2026-03-29T13:10:56.571Z</time></trkpt><trkpt lat="44.8691817" lon="1.0853167"><ele>247.0</ele><time>2026-03-29T13:10:57.57Z</time></trkpt><trkpt lat="44.8692717" lon="1.0852333"><ele>247.0</ele><time>2026-03-29T13:10:59.571Z</time></trkpt><trkpt lat="44.869305" lon="1.0851333"><ele>247.0</ele><time>2026-03-29T13:11:00.571Z</time></trkpt><trkpt lat="44.8693283" lon="1.08495"><ele>246.25</ele><time>2026-03-29T13:11:01.571Z</time></trkpt><trkpt lat="44.8693717" lon="1.0847633"><ele>245.5</ele><time>2026-03-29T13:11:02.57Z</time></trkpt><trkpt lat="44.8694067" lon="1.0845833"><ele>244.75</ele><time>2026-03-29T13:11:03.57Z</time></trkpt><trkpt lat="44.8694517" lon="1.0843917"><ele>244.0</ele><time>2026-03-29T13:11:04.57Z</time></trkpt><trkpt lat="44.8695067" lon="1.0841917"><ele>242.66666666666666</ele><time>2026-03-29T13:11:05.571Z</time></trkpt><trkpt lat="44.8695683" lon="1.0840033"><ele>241.33333333333331</ele><time>2026-03-29T13:11:06.571Z</time></trkpt><trkpt lat="44.8696483" lon="1.0838033"><ele>240.0</ele><time>2026-03-29T13:11:07.57Z</time></trkpt><trkpt lat="44.86972" lon="1.08361"><ele>240.0</ele><time>2026-03-29T13:11:08.57Z</time></trkpt><trkpt lat="44.86979" lon="1.08343"><ele>240.0</ele><time>2026-03-29T13:11:09.571Z</time></trkpt><trkpt lat="44.8698683" lon="1.0832533"><ele>240.0</ele><time>2026-03-29T13:11:10.571Z</time></trkpt><trkpt lat="44.8699417" lon="1.0830817"><ele>240.0</ele><time>2026-03-29T13:11:11.57Z</time></trkpt><trkpt lat="44.86998" lon="1.0829433"><ele>239.6</ele><time>2026-03-29T13:11:12.571Z</time></trkpt><trkpt lat="44.870035" lon="1.08281"><ele>239.2</ele><time>2026-03-29T13:11:13.571Z</time></trkpt><trkpt lat="44.8700817" lon="1.0826933"><ele>238.8</ele><time>2026-03-29T13:11:14.571Z</time></trkpt><trkpt lat="44.8701133" lon="1.08258"><ele>238.4</ele><time>2026-03-29T13:11:15.57Z</time></trkpt><trkpt lat="44.8701433" lon="1.0824883"><ele>238.0</ele><time>2026-03-29T13:11:16.57Z</time></trkpt><trkpt lat="44.87017" lon="1.08236"><ele>237.25</ele><time>2026-03-29T13:11:18.57Z</time></trkpt><trkpt lat="44.8702233" lon="1.0822083"><ele>236.5</ele><time>2026-03-29T13:11:36.57Z</time></trkpt><trkpt lat="44.8702933" lon="1.08208"><ele>235.75</ele><time>2026-03-29T13:11:38.571Z</time></trkpt><trkpt lat="44.870375" lon="1.0819867"><ele>235.0</ele><time>2026-03-29T13:11:40.571Z</time></trkpt><trkpt lat="44.8705583" lon="1.0817583"><ele>235.0</ele><time>2026-03-29T13:11:43.571Z</time></trkpt><trkpt lat="44.8706367" lon="1.0816633"><ele>235.0</ele><time>2026-03-29T13:11:44.57Z</time></trkpt><trkpt lat="44.8707267" lon="1.081565"><ele>235.0</ele><time>2026-03-29T13:11:45.571Z</time></trkpt><trkpt lat="44.8708183" lon="1.081455"><ele>235.0</ele><time>2026-03-29T13:11:46.571Z</time></trkpt><trkpt lat="44.8709167" lon="1.0813433"><ele>234.75</ele><time>2026-03-29T13:11:47.571Z</time></trkpt><trkpt lat="44.871005" lon="1.0812267"><ele>234.5</ele><time>2026-03-29T13:11:48.57Z</time></trkpt><trkpt lat="44.871095" lon="1.0811233"><ele>234.25</ele><time>2026-03-29T13:11:49.571Z</time></trkpt><trkpt lat="44.8711967" lon="1.0810383"><ele>234.0</ele><time>2026-03-29T13:11:50.57Z</time></trkpt><trkpt lat="44.8712933" lon="1.0809567"><ele>234.0</ele><time>2026-03-29T13:11:51.571Z</time></trkpt><trkpt lat="44.8713717" lon="1.0808567"><ele>233.99999999999997</ele><time>2026-03-29T13:11:52.571Z</time></trkpt><trkpt lat="44.871445" lon="1.080745"><ele>233.99999999999997</ele><time>2026-03-29T13:11:53.571Z</time></trkpt><trkpt lat="44.8715133" lon="1.08062"><ele>234.0</ele><time>2026-03-29T13:11:54.571Z</time></trkpt><trkpt lat="44.8715867" lon="1.080515"><ele>234.0</ele><time>2026-03-29T13:11:55.571Z</time></trkpt><trkpt lat="44.8716617" lon="1.0804333"><ele>234.25</ele><time>2026-03-29T13:11:56.571Z</time></trkpt><trkpt lat="44.8717617" lon="1.0803833"><ele>234.5</ele><time>2026-03-29T13:11:57.57Z</time></trkpt><trkpt lat="44.87188" lon="1.0803167"><ele>234.75</ele><time>2026-03-29T13:11:58.571Z</time></trkpt><trkpt lat="44.8719917" lon="1.0802467"><ele>235.0</ele><time>2026-03-29T13:11:59.57Z</time></trkpt><trkpt lat="44.8721083" lon="1.080175"><ele>234.75</ele><time>2026-03-29T13:12:00.571Z</time></trkpt><trkpt lat="44.8722517" lon="1.08009"><ele>234.5</ele><time>2026-03-29T13:12:01.57Z</time></trkpt><trkpt lat="44.8723733" lon="1.0800267"><ele>234.25</ele><time>2026-03-29T13:12:02.57Z</time></trkpt><trkpt lat="44.872475" lon="1.0799367"><ele>234.0</ele><time>2026-03-29T13:12:03.57Z</time></trkpt><trkpt lat="44.872575" lon="1.0798433"><ele>234.5</ele><time>2026-03-29T13:12:04.57Z</time></trkpt><trkpt lat="44.8726783" lon="1.0797467"><ele>235.0</ele><time>2026-03-29T13:12:05.571Z</time></trkpt><trkpt lat="44.8727917" lon="1.0796483"><ele>235.5</ele><time>2026-03-29T13:12:06.571Z</time></trkpt><trkpt lat="44.8728983" lon="1.0795667"><ele>236.0</ele><time>2026-03-29T13:12:07.57Z</time></trkpt><trkpt lat="44.87301" lon="1.0794733"><ele>236.0</ele><time>2026-03-29T13:12:08.57Z</time></trkpt><trkpt lat="44.87313" lon="1.0793967"><ele>236.0</ele><time>2026-03-29T13:12:09.571Z</time></trkpt><trkpt lat="44.8732483" lon="1.0793283"><ele>236.0</ele><time>2026-03-29T13:12:10.57Z</time></trkpt><trkpt lat="44.8733767" lon="1.0792383"><ele>236.0</ele><time>2026-03-29T13:12:11.571Z</time></trkpt><trkpt lat="44.87352" lon="1.0791667"><ele>235.25</ele><time>2026-03-29T13:12:12.57Z</time></trkpt><trkpt lat="44.8736333" lon="1.07909"><ele>234.5</ele><time>2026-03-29T13:12:13.57Z</time></trkpt><trkpt lat="44.8737467" lon="1.0790017"><ele>233.75</ele><time>2026-03-29T13:12:14.57Z</time></trkpt><trkpt lat="44.8738517" lon="1.0789183"><ele>233.0</ele><time>2026-03-29T13:12:15.57Z</time></trkpt><trkpt lat="44.8739783" lon="1.0788117"><ele>233.0</ele><time>2026-03-29T13:12:16.57Z</time></trkpt><trkpt lat="44.8740983" lon="1.0787067"><ele>233.0</ele><time>2026-03-29T13:12:17.57Z</time></trkpt><trkpt lat="44.87419" lon="1.0786"><ele>233.0</ele><time>2026-03-29T13:12:18.57Z</time></trkpt><trkpt lat="44.8742833" lon="1.0785217"><ele>233.0</ele><time>2026-03-29T13:12:19.571Z</time></trkpt><trkpt lat="44.8743717" lon="1.0784433"><ele>232.2</ele><time>2026-03-29T13:12:20.57Z</time></trkpt><trkpt lat="44.874445" lon="1.0783683"><ele>231.4</ele><time>2026-03-29T13:12:21.571Z</time></trkpt><trkpt lat="44.8745017" lon="1.0782867"><ele>230.59999999999997</ele><time>2026-03-29T13:12:22.57Z</time></trkpt><trkpt lat="44.8745567" lon="1.078165"><ele>229.79999999999998</ele><time>2026-03-29T13:12:23.57Z</time></trkpt><trkpt lat="44.8746017" lon="1.0780333"><ele>229.0</ele><time>2026-03-29T13:12:24.571Z</time></trkpt><trkpt lat="44.8746483" lon="1.0778933"><ele>228.6</ele><time>2026-03-29T13:12:25.57Z</time></trkpt><trkpt lat="44.8747067" lon="1.0777733"><ele>228.2</ele><time>2026-03-29T13:12:26.57Z</time></trkpt><trkpt lat="44.8747767" lon="1.0776583"><ele>227.79999999999998</ele><time>2026-03-29T13:12:27.571Z</time></trkpt><trkpt lat="44.8748517" lon="1.077545"><ele>227.39999999999998</ele><time>2026-03-29T13:12:28.57Z</time></trkpt><trkpt lat="44.874915" lon="1.0774467"><ele>227.0</ele><time>2026-03-29T13:12:29.57Z</time></trkpt><trkpt lat="44.8749733" lon="1.07732"><ele>227.0</ele><time>2026-03-29T13:12:30.57Z</time></trkpt><trkpt lat="44.8750283" lon="1.0771567"><ele>227.0</ele><time>2026-03-29T13:12:31.571Z</time></trkpt><trkpt lat="44.875085" lon="1.076995"><ele>227.0</ele><time>2026-03-29T13:12:32.571Z</time></trkpt><trkpt lat="44.8751583" lon="1.076845"><ele>227.0</ele><time>2026-03-29T13:12:33.571Z</time></trkpt><trkpt lat="44.8752417" lon="1.0767117"><ele>227.2</ele><time>2026-03-29T13:12:34.57Z</time></trkpt><trkpt lat="44.8753267" lon="1.0765883"><ele>227.39999999999998</ele><time>2026-03-29T13:12:35.571Z</time></trkpt><trkpt lat="44.8754183" lon="1.0764717"><ele>227.60000000000002</ele><time>2026-03-29T13:12:36.571Z</time></trkpt><trkpt lat="44.8755017" lon="1.0763767"><ele>227.8</ele><time>2026-03-29T13:12:37.571Z</time></trkpt><trkpt lat="44.87558" lon="1.07631"><ele>228.0</ele><time>2026-03-29T13:12:38.571Z</time></trkpt><trkpt lat="44.8756617" lon="1.0762367"><ele>228.0</ele><time>2026-03-29T13:12:39.571Z</time></trkpt><trkpt lat="44.875745" lon="1.0761433"><ele>228.0</ele><time>2026-03-29T13:12:40.571Z</time></trkpt><trkpt lat="44.8758217" lon="1.07605"><ele>228.0</ele><time>2026-03-29T13:12:41.569Z</time></trkpt><trkpt lat="44.8758817" lon="1.075965"><ele>228.0</ele><time>2026-03-29T13:12:42.569Z</time></trkpt><trkpt lat="44.8759467" lon="1.0758733"><ele>228.0</ele><time>2026-03-29T13:12:43.569Z</time></trkpt><trkpt lat="44.8760083" lon="1.075775"><ele>226.16666666666666</ele><time>2026-03-29T13:12:44.57Z</time></trkpt><trkpt lat="44.8760633" lon="1.075685"><ele>224.33333333333331</ele><time>2026-03-29T13:12:45.569Z</time></trkpt><trkpt lat="44.87612" lon="1.0756183"><ele>222.5</ele><time>2026-03-29T13:12:46.57Z</time></trkpt><trkpt lat="44.87618" lon="1.0755533"><ele>220.66666666666666</ele><time>2026-03-29T13:12:47.569Z</time></trkpt><trkpt lat="44.876245" lon="1.0754917"><ele>218.83333333333331</ele><time>2026-03-29T13:12:48.569Z</time></trkpt><trkpt lat="44.8763233" lon="1.07546"><ele>217.0</ele><time>2026-03-29T13:12:49.57Z</time></trkpt><trkpt lat="44.8764067" lon="1.0754483"><ele>216.99999999999997</ele><time>2026-03-29T13:12:50.57Z</time></trkpt><trkpt lat="44.8764967" lon="1.0754433"><ele>217.0</ele><time>2026-03-29T13:12:51.57Z</time></trkpt><trkpt lat="44.8765867" lon="1.0754383"><ele>217.0</ele><time>2026-03-29T13:12:52.569Z</time></trkpt><trkpt lat="44.876665" lon="1.075435"><ele>217.0</ele><time>2026-03-29T13:12:53.57Z</time></trkpt><trkpt lat="44.87674" lon="1.0754233"><ele>216.99999999999997</ele><time>2026-03-29T13:12:54.57Z</time></trkpt><trkpt lat="44.8768417" lon="1.0753733"><ele>217.0</ele><time>2026-03-29T13:12:56.569Z</time></trkpt><trkpt lat="44.8769483" lon="1.0753483"><ele>217.0</ele><time>2026-03-29T13:12:58.569Z</time></trkpt><trkpt lat="44.8770433" lon="1.0753217"><ele>217.0</ele><time>2026-03-29T13:13:00.57Z</time></trkpt><trkpt lat="44.877155" lon="1.0752583"><ele>217.0</ele><time>2026-03-29T13:13:02.57Z</time></trkpt><trkpt lat="44.8772383" lon="1.0752233"><ele>217.0</ele><time>2026-03-29T13:13:03.569Z</time></trkpt><trkpt lat="44.87733" lon="1.0752"><ele>217.0</ele><time>2026-03-29T13:13:04.569Z</time></trkpt><trkpt lat="44.87742" lon="1.0751717"><ele>216.99999999999997</ele><time>2026-03-29T13:13:05.569Z</time></trkpt><trkpt lat="44.8774867" lon="1.075125"><ele>217.0</ele><time>2026-03-29T13:13:06.57Z</time></trkpt><trkpt lat="44.87754" lon="1.0750617"><ele>217.0</ele><time>2026-03-29T13:13:07.569Z</time></trkpt><trkpt lat="44.877575" lon="1.074985"><ele>217.0</ele><time>2026-03-29T13:13:08.569Z</time></trkpt><trkpt lat="44.8776367" lon="1.0748517"><ele>216.99999999999997</ele><time>2026-03-29T13:13:10.57Z</time></trkpt><trkpt lat="44.8777183" lon="1.0747367"><ele>217.0</ele><time>2026-03-29T13:13:12.569Z</time></trkpt><trkpt lat="44.877765" lon="1.0746767"><ele>215.39999999999998</ele><time>2026-03-29T13:13:13.569Z</time></trkpt><trkpt lat="44.8778717" lon="1.0745883"><ele>213.79999999999998</ele><time>2026-03-29T13:13:15.57Z</time></trkpt><trkpt lat="44.87797" lon="1.074515"><ele>212.2</ele><time>2026-03-29T13:13:17.57Z</time></trkpt><trkpt lat="44.8780817" lon="1.074435"><ele>210.6</ele><time>2026-03-29T13:13:19.569Z</time></trkpt><trkpt lat="44.878145" lon="1.074385"><ele>209.0</ele><time>2026-03-29T13:13:20.57Z</time></trkpt><trkpt lat="44.8782483" lon="1.07432"><ele>209.00000000000003</ele><time>2026-03-29T13:13:22.569Z</time></trkpt><trkpt lat="44.87834" lon="1.0742183"><ele>209.0</ele><time>2026-03-29T13:13:24.57Z</time></trkpt><trkpt lat="44.8784183" lon="1.074145"><ele>209.0</ele><time>2026-03-29T13:13:26.569Z</time></trkpt><trkpt lat="44.8784783" lon="1.0741117"><ele>209.0</ele><time>2026-03-29T13:13:28.57Z</time></trkpt><trkpt lat="44.8785617" lon="1.0741017"><ele>209.00000000000003</ele><time>2026-03-29T13:13:30.57Z</time></trkpt><trkpt lat="44.878625" lon="1.0740767"><ele>209.0</ele><time>2026-03-29T13:13:32.57Z</time></trkpt><trkpt lat="44.8787183" lon="1.0740217"><ele>206.0</ele><time>2026-03-29T13:13:34.569Z</time></trkpt><trkpt lat="44.8788117" lon="1.0739867"><ele>203.0</ele><time>2026-03-29T13:13:36.569Z</time></trkpt><trkpt lat="44.8788933" lon="1.07394"><ele>200.0</ele><time>2026-03-29T13:13:38.569Z</time></trkpt><trkpt lat="44.8789633" lon="1.0738417"><ele>197.0</ele><time>2026-03-29T13:13:40.569Z</time></trkpt><trkpt lat="44.8790283" lon="1.0737417"><ele>194.0</ele><time>2026-03-29T13:13:42.569Z</time></trkpt><trkpt lat="44.8791167" lon="1.073645"><ele>194.0</ele><time>2026-03-29T13:13:44.569Z</time></trkpt><trkpt lat="44.8791833" lon="1.0736033"><ele>194.0</ele><time>2026-03-29T13:13:45.57Z</time></trkpt><trkpt lat="44.879245" lon="1.0735667"><ele>194.0</ele><time>2026-03-29T13:13:46.569Z</time></trkpt><trkpt lat="44.87932" lon="1.0735217"><ele>194.0</ele><time>2026-03-29T13:13:47.57Z</time></trkpt><trkpt lat="44.8793833" lon="1.0734717"><ele>194.0</ele><time>2026-03-29T13:13:48.569Z</time></trkpt><trkpt lat="44.879445" lon="1.0734167"><ele>194.0</ele><time>2026-03-29T13:13:49.569Z</time></trkpt><trkpt lat="44.8794967" lon="1.073355"><ele>194.0</ele><time>2026-03-29T13:13:50.569Z</time></trkpt><trkpt lat="44.8795617" lon="1.073275"><ele>193.16666666666669</ele><time>2026-03-29T13:13:51.569Z</time></trkpt><trkpt lat="44.879625" lon="1.073195"><ele>192.33333333333334</ele><time>2026-03-29T13:13:52.57Z</time></trkpt><trkpt lat="44.8796833" lon="1.0731267"><ele>191.5</ele><time>2026-03-29T13:13:53.57Z</time></trkpt><trkpt lat="44.8797367" lon="1.0730517"><ele>190.66666666666669</ele><time>2026-03-29T13:13:54.569Z</time></trkpt><trkpt lat="44.87983" lon="1.0729783"><ele>189.83333333333334</ele><time>2026-03-29T13:13:56.57Z</time></trkpt><trkpt lat="44.8798967" lon="1.0729533"><ele>189.0</ele><time>2026-03-29T13:13:57.57Z</time></trkpt><trkpt lat="44.8800133" lon="1.07291"><ele>189.0</ele><time>2026-03-29T13:13:59.57Z</time></trkpt><trkpt lat="44.8800817" lon="1.072905"><ele>189.0</ele><time>2026-03-29T13:14:00.569Z</time></trkpt><trkpt lat="44.8801467" lon="1.07292"><ele>189.0</ele><time>2026-03-29T13:14:01.57Z</time></trkpt><trkpt lat="44.8802733" lon="1.07295"><ele>189.0</ele><time>2026-03-29T13:14:03.57Z</time></trkpt><trkpt lat="44.8803367" lon="1.0729433"><ele>189.0</ele><time>2026-03-29T13:14:04.569Z</time></trkpt><trkpt lat="44.8804" lon="1.0729217"><ele>189.0</ele><time>2026-03-29T13:14:05.57Z</time></trkpt><trkpt lat="44.88049" lon="1.0729117"><ele>189.0</ele><time>2026-03-29T13:14:07.57Z</time></trkpt><trkpt lat="44.880555" lon="1.0729033"><ele>189.0</ele><time>2026-03-29T13:14:09.569Z</time></trkpt><trkpt lat="44.8806417" lon="1.07287"><ele>189.0</ele><time>2026-03-29T13:14:12.569Z</time></trkpt><trkpt lat="44.8807117" lon="1.0728833"><ele>189.0</ele><time>2026-03-29T13:14:14.57Z</time></trkpt><trkpt lat="44.8807883" lon="1.072915"><ele>189.0</ele><time>2026-03-29T13:14:16.57Z</time></trkpt><trkpt lat="44.8808717" lon="1.07291"><ele>189.0</ele><time>2026-03-29T13:14:18.57Z</time></trkpt><trkpt lat="44.8809417" lon="1.0728517"><ele>187.0</ele><time>2026-03-29T13:14:20.57Z</time></trkpt><trkpt lat="44.8810467" lon="1.0728033"><ele>185.0</ele><time>2026-03-29T13:14:23.569Z</time></trkpt><trkpt lat="44.8811233" lon="1.0728183"><ele>183.0</ele><time>2026-03-29T13:14:25.569Z</time></trkpt><trkpt lat="44.881225" lon="1.0728733"><ele>181.0</ele><time>2026-03-29T13:14:27.57Z</time></trkpt><trkpt lat="44.8812917" lon="1.0728967"><ele>179.0</ele><time>2026-03-29T13:14:28.57Z</time></trkpt><trkpt lat="44.8814083" lon="1.0728833"><ele>179.0</ele><time>2026-03-29T13:14:30.569Z</time></trkpt><trkpt lat="44.8815233" lon="1.0728683"><ele>179.0</ele><time>2026-03-29T13:14:32.57Z</time></trkpt><trkpt lat="44.8816333" lon="1.0728"><ele>179.0</ele><time>2026-03-29T13:14:34.57Z</time></trkpt><trkpt lat="44.88168" lon="1.072725"><ele>179.0</ele><time>2026-03-29T13:14:35.569Z</time></trkpt><trkpt lat="44.8817183" lon="1.0726433"><ele>179.0</ele><time>2026-03-29T13:14:36.57Z</time></trkpt><trkpt lat="44.8817433" lon="1.0725"><ele>176.39999999999998</ele><time>2026-03-29T13:14:38.57Z</time></trkpt><trkpt lat="44.8816633" lon="1.07238"><ele>173.8</ele><time>2026-03-29T13:14:40.569Z</time></trkpt><trkpt lat="44.8815883" lon="1.0723167"><ele>171.2</ele><time>2026-03-29T13:14:41.57Z</time></trkpt><trkpt lat="44.8815033" lon="1.0722567"><ele>168.60000000000002</ele><time>2026-03-29T13:14:42.569Z</time></trkpt><trkpt lat="44.8814167" lon="1.0721983"><ele>166.0</ele><time>2026-03-29T13:14:43.569Z</time></trkpt><trkpt lat="44.881335" lon="1.0721383"><ele>166.0</ele><time>2026-03-29T13:14:44.57Z</time></trkpt><trkpt lat="44.881265" lon="1.072055"><ele>166.0</ele><time>2026-03-29T13:14:45.57Z</time></trkpt><trkpt lat="44.8812033" lon="1.071975"><ele>166.0</ele><time>2026-03-29T13:14:46.57Z</time></trkpt><trkpt lat="44.8811683" lon="1.0718633"><ele>166.0</ele><time>2026-03-29T13:14:47.569Z</time></trkpt><trkpt lat="44.88113" lon="1.07177"><ele>166.0</ele><time>2026-03-29T13:14:48.57Z</time></trkpt><trkpt lat="44.881145" lon="1.07167"><ele>166.0</ele><time>2026-03-29T13:14:49.569Z</time></trkpt><trkpt lat="44.8811767" lon="1.0715817"><ele>167.4</ele><time>2026-03-29T13:14:50.57Z</time></trkpt><trkpt lat="44.8812317" lon="1.0715167"><ele>168.8</ele><time>2026-03-29T13:14:51.57Z</time></trkpt><trkpt lat="44.8813" lon="1.0714483"><ele>170.20000000000002</ele><time>2026-03-29T13:14:52.57Z</time></trkpt><trkpt lat="44.881405" lon="1.071415"><ele>171.60000000000002</ele><time>2026-03-29T13:14:53.569Z</time></trkpt><trkpt lat="44.8815" lon="1.0713767"><ele>173.0</ele><time>2026-03-29T13:14:54.57Z</time></trkpt><trkpt lat="44.8815867" lon="1.0713383"><ele>173.0</ele><time>2026-03-29T13:14:55.57Z</time></trkpt><trkpt lat="44.8816583" lon="1.0713117"><ele>173.0</ele><time>2026-03-29T13:14:56.569Z</time></trkpt><trkpt lat="44.8817233" lon="1.0712967"><ele>173.0</ele><time>2026-03-29T13:14:57.569Z</time></trkpt><trkpt lat="44.881815" lon="1.071275"><ele>173.0</ele><time>2026-03-29T13:14:59.57Z</time></trkpt><trkpt lat="44.8819217" lon="1.0712667"><ele>173.0</ele><time>2026-03-29T13:15:01.57Z</time></trkpt><trkpt lat="44.8820583" lon="1.0712783"><ele>170.14285714285714</ele><time>2026-03-29T13:15:03.569Z</time></trkpt><trkpt lat="44.8821267" lon="1.0712933"><ele>167.2857142857143</ele><time>2026-03-29T13:15:04.569Z</time></trkpt><trkpt lat="44.8822" lon="1.0713083"><ele>164.42857142857144</ele><time>2026-03-29T13:15:05.569Z</time></trkpt><trkpt lat="44.8822717" lon="1.0713233"><ele>161.57142857142856</ele><time>2026-03-29T13:15:06.569Z</time></trkpt><trkpt lat="44.882335" lon="1.071365"><ele>158.71428571428572</ele><time>2026-03-29T13:15:07.569Z</time></trkpt><trkpt lat="44.8823933" lon="1.07143"><ele>155.85714285714286</ele><time>2026-03-29T13:15:08.57Z</time></trkpt><trkpt lat="44.88244" lon="1.0715117"><ele>153.0</ele><time>2026-03-29T13:15:09.57Z</time></trkpt><trkpt lat="44.8824883" lon="1.0715933"><ele>153.0</ele><time>2026-03-29T13:15:10.569Z</time></trkpt><trkpt lat="44.88253" lon="1.071675"><ele>153.0</ele><time>2026-03-29T13:15:11.569Z</time></trkpt><trkpt lat="44.8825733" lon="1.0717667"><ele>153.0</ele><time>2026-03-29T13:15:12.569Z</time></trkpt><trkpt lat="44.8826117" lon="1.0718533"><ele>153.0</ele><time>2026-03-29T13:15:13.569Z</time></trkpt><trkpt lat="44.8826467" lon="1.0719583"><ele>153.0</ele><time>2026-03-29T13:15:14.57Z</time></trkpt><trkpt lat="44.8826917" lon="1.072075"><ele>153.0</ele><time>2026-03-29T13:15:15.569Z</time></trkpt><trkpt lat="44.8827283" lon="1.0722083"><ele>149.20000000000002</ele><time>2026-03-29T13:15:16.569Z</time></trkpt><trkpt lat="44.8827633" lon="1.0723467"><ele>145.4</ele><time>2026-03-29T13:15:17.569Z</time></trkpt><trkpt lat="44.8827783" lon="1.0724883"><ele>141.60000000000002</ele><time>2026-03-29T13:15:18.569Z</time></trkpt><trkpt lat="44.88278" lon="1.0726117"><ele>137.8</ele><time>2026-03-29T13:15:19.57Z</time></trkpt><trkpt lat="44.8827633" lon="1.0727333"><ele>134.0</ele><time>2026-03-29T13:15:20.569Z</time></trkpt><trkpt lat="44.88274" lon="1.0728567"><ele>134.0</ele><time>2026-03-29T13:15:21.569Z</time></trkpt><trkpt lat="44.8826817" lon="1.072985"><ele>134.0</ele><time>2026-03-29T13:15:22.569Z</time></trkpt><trkpt lat="44.88262" lon="1.0731133"><ele>134.0</ele><time>2026-03-29T13:15:23.57Z</time></trkpt><trkpt lat="44.8825467" lon="1.0732333"><ele>134.0</ele><time>2026-03-29T13:15:24.569Z</time></trkpt><trkpt lat="44.88247" lon="1.0733467"><ele>134.0</ele><time>2026-03-29T13:15:25.57Z</time></trkpt><trkpt lat="44.882385" lon="1.073445"><ele>138.5</ele><time>2026-03-29T13:15:26.569Z</time></trkpt><trkpt lat="44.882295" lon="1.0735567"><ele>143.0</ele><time>2026-03-29T13:15:27.57Z</time></trkpt><trkpt lat="44.8822117" lon="1.0736683"><ele>147.5</ele><time>2026-03-29T13:15:28.569Z</time></trkpt><trkpt lat="44.882135" lon="1.07378"><ele>152.0</ele><time>2026-03-29T13:15:29.569Z</time></trkpt><trkpt lat="44.8820533" lon="1.073895"><ele>152.0</ele><time>2026-03-29T13:15:30.569Z</time></trkpt><trkpt lat="44.881965" lon="1.074015"><ele>152.0</ele><time>2026-03-29T13:15:31.57Z</time></trkpt><trkpt lat="44.881885" lon="1.0741183"><ele>152.0</ele><time>2026-03-29T13:15:32.569Z</time></trkpt><trkpt lat="44.8817983" lon="1.07423"><ele>152.0</ele><time>2026-03-29T13:15:33.57Z</time></trkpt><trkpt lat="44.881725" lon="1.0743533"><ele>151.6</ele><time>2026-03-29T13:15:34.569Z</time></trkpt><trkpt lat="44.8816567" lon="1.0744617"><ele>151.2</ele><time>2026-03-29T13:15:35.569Z</time></trkpt><trkpt lat="44.8815917" lon="1.0745533"><ele>150.8</ele><time>2026-03-29T13:15:36.57Z</time></trkpt><trkpt lat="44.88152" lon="1.074635"><ele>150.4</ele><time>2026-03-29T13:15:37.57Z</time></trkpt><trkpt lat="44.8814583" lon="1.07472"><ele>150.0</ele><time>2026-03-29T13:15:38.57Z</time></trkpt><trkpt lat="44.8814" lon="1.0747983"><ele>150.0</ele><time>2026-03-29T13:15:39.57Z</time></trkpt><trkpt lat="44.8813617" lon="1.074885"><ele>150.0</ele><time>2026-03-29T13:15:40.57Z</time></trkpt><trkpt lat="44.8813467" lon="1.074975"><ele>150.0</ele><time>2026-03-29T13:15:41.57Z</time></trkpt><trkpt lat="44.8813583" lon="1.0750867"><ele>150.0</ele><time>2026-03-29T13:15:42.569Z</time></trkpt><trkpt lat="44.8814017" lon="1.075205"><ele>150.0</ele><time>2026-03-29T13:15:43.569Z</time></trkpt><trkpt lat="44.881525" lon="1.0753333"><ele>147.0</ele><time>2026-03-29T13:15:44.569Z</time></trkpt><trkpt lat="44.8816183" lon="1.075425"><ele>144.0</ele><time>2026-03-29T13:15:45.57Z</time></trkpt><trkpt lat="44.8817133" lon="1.0754567"><ele>141.0</ele><time>2026-03-29T13:15:46.57Z</time></trkpt><trkpt lat="44.8818083" lon="1.0754567"><ele>138.0</ele><time>2026-03-29T13:15:47.57Z</time></trkpt><trkpt lat="44.8819083" lon="1.07537"><ele>135.0</ele><time>2026-03-29T13:15:48.569Z</time></trkpt><trkpt lat="44.882" lon="1.0752617"><ele>135.0</ele><time>2026-03-29T13:15:49.57Z</time></trkpt><trkpt lat="44.8820933" lon="1.0751717"><ele>135.0</ele><time>2026-03-29T13:15:50.569Z</time></trkpt><trkpt lat="44.88217" lon="1.0750667"><ele>135.0</ele><time>2026-03-29T13:15:51.57Z</time></trkpt><trkpt lat="44.8822333" lon="1.0749667"><ele>135.0</ele><time>2026-03-29T13:15:52.569Z</time></trkpt><trkpt lat="44.8822833" lon="1.0748767"><ele>135.0</ele><time>2026-03-29T13:15:53.569Z</time></trkpt><trkpt lat="44.8823367" lon="1.0747867"><ele>135.4</ele><time>2026-03-29T13:15:54.569Z</time></trkpt><trkpt lat="44.8823933" lon="1.0747017"><ele>135.8</ele><time>2026-03-29T13:15:55.57Z</time></trkpt><trkpt lat="44.8824567" lon="1.0746283"><ele>136.2</ele><time>2026-03-29T13:15:56.569Z</time></trkpt><trkpt lat="44.8825183" lon="1.0745733"><ele>136.6</ele><time>2026-03-29T13:15:57.57Z</time></trkpt><trkpt lat="44.88263" lon="1.0745283"><ele>137.0</ele><time>2026-03-29T13:15:59.569Z</time></trkpt><trkpt lat="44.8827417" lon="1.0745317"><ele>134.0</ele><time>2026-03-29T13:16:01.57Z</time></trkpt><trkpt lat="44.882845" lon="1.0745933"><ele>131.0</ele><time>2026-03-29T13:16:03.569Z</time></trkpt><trkpt lat="44.8828783" lon="1.0746783"><ele>128.0</ele><time>2026-03-29T13:16:04.57Z</time></trkpt><trkpt lat="44.8829167" lon="1.0747583"><ele>125.0</ele><time>2026-03-29T13:16:05.57Z</time></trkpt><trkpt lat="44.8829567" lon="1.0748283"><ele>121.99999999999999</ele><time>2026-03-29T13:16:06.569Z</time></trkpt><trkpt lat="44.88301" lon="1.0749267"><ele>119.0</ele><time>2026-03-29T13:16:08.569Z</time></trkpt><trkpt lat="44.8830767" lon="1.0749983"><ele>118.99999999999999</ele><time>2026-03-29T13:16:11.569Z</time></trkpt><trkpt lat="44.8831267" lon="1.075105"><ele>119.0</ele><time>2026-03-29T13:16:13.569Z</time></trkpt><trkpt lat="44.8831717" lon="1.0752767"><ele>119.0</ele><time>2026-03-29T13:16:15.57Z</time></trkpt><trkpt lat="44.8832" lon="1.0753783"><ele>119.0</ele><time>2026-03-29T13:16:16.569Z</time></trkpt><trkpt lat="44.8832233" lon="1.0754683"><ele>118.99999999999999</ele><time>2026-03-29T13:16:17.57Z</time></trkpt><trkpt lat="44.8832567" lon="1.0755583"><ele>119.0</ele><time>2026-03-29T13:16:18.569Z</time></trkpt><trkpt lat="44.88335" lon="1.0756817"><ele>121.6</ele><time>2026-03-29T13:16:20.569Z</time></trkpt><trkpt lat="44.88344" lon="1.0757283"><ele>124.2</ele><time>2026-03-29T13:16:21.57Z</time></trkpt><trkpt lat="44.8835217" lon="1.0757583"><ele>126.79999999999998</ele><time>2026-03-29T13:16:22.569Z</time></trkpt><trkpt lat="44.8836117" lon="1.0757633"><ele>129.4</ele><time>2026-03-29T13:16:23.569Z</time></trkpt><trkpt lat="44.8837133" lon="1.075735"><ele>132.0</ele><time>2026-03-29T13:16:24.569Z</time></trkpt><trkpt lat="44.8837917" lon="1.07572"><ele>132.0</ele><time>2026-03-29T13:16:25.57Z</time></trkpt><trkpt lat="44.8838633" lon="1.0757017"><ele>132.0</ele><time>2026-03-29T13:16:26.569Z</time></trkpt><trkpt lat="44.8839817" lon="1.0755667"><ele>132.0</ele><time>2026-03-29T13:16:28.569Z</time></trkpt><trkpt lat="44.8840167" lon="1.07549"><ele>132.0</ele><time>2026-03-29T13:16:29.569Z</time></trkpt><trkpt lat="44.884025" lon="1.0754"><ele>132.0</ele><time>2026-03-29T13:16:30.569Z</time></trkpt><trkpt lat="44.8840133" lon="1.0752167"><ele>132.0</ele><time>2026-03-29T13:16:32.57Z</time></trkpt><trkpt lat="44.8839983" lon="1.0750733"><ele>132.0</ele><time>2026-03-29T13:16:34.569Z</time></trkpt><trkpt lat="44.88402" lon="1.0749767"><ele>132.0</ele><time>2026-03-29T13:16:36.57Z</time></trkpt><trkpt lat="44.8840767" lon="1.0751267"><ele>132.0</ele><time>2026-03-29T13:16:40.569Z</time></trkpt><trkpt lat="44.8841083" lon="1.0752383"><ele>132.0</ele><time>2026-03-29T13:16:41.569Z</time></trkpt><trkpt lat="44.8841517" lon="1.0754367"><ele>132.0</ele><time>2026-03-29T13:16:42.57Z</time></trkpt><trkpt lat="44.88418" lon="1.0756583"><ele>132.0</ele><time>2026-03-29T13:16:43.569Z</time></trkpt><trkpt lat="44.8842217" lon="1.0761817"><ele>131.66666666666666</ele><time>2026-03-29T13:16:45.57Z</time></trkpt><trkpt lat="44.88424" lon="1.076405"><ele>131.33333333333331</ele><time>2026-03-29T13:16:46.569Z</time></trkpt><trkpt lat="44.8842567" lon="1.076635"><ele>131.0</ele><time>2026-03-29T13:16:47.569Z</time></trkpt><trkpt lat="44.8842617" lon="1.07684"><ele>130.25</ele><time>2026-03-29T13:16:48.569Z</time></trkpt><trkpt lat="44.884255" lon="1.077025"><ele>129.5</ele><time>2026-03-29T13:16:49.569Z</time></trkpt><trkpt lat="44.8842517" lon="1.07719"><ele>128.75</ele><time>2026-03-29T13:16:50.569Z</time></trkpt><trkpt lat="44.8842567" lon="1.07734"><ele>128.0</ele><time>2026-03-29T13:16:51.569Z</time></trkpt><trkpt lat="44.884265" lon="1.0774783"><ele>133.33333333333331</ele><time>2026-03-29T13:16:52.569Z</time></trkpt><trkpt lat="44.8842783" lon="1.0776067"><ele>138.66666666666666</ele><time>2026-03-29T13:16:53.57Z</time></trkpt><trkpt lat="44.8842933" lon="1.0777033"><ele>144.0</ele><time>2026-03-29T13:16:54.57Z</time></trkpt><trkpt lat="44.8843267" lon="1.0778233"><ele>149.33333333333334</ele><time>2026-03-29T13:16:56.57Z</time></trkpt><trkpt lat="44.88435" lon="1.0779183"><ele>154.66666666666669</ele><time>2026-03-29T13:17:04.57Z</time></trkpt><trkpt lat="44.88435" lon="1.0780083"><ele>160.0</ele><time>2026-03-29T13:17:06.569Z</time></trkpt><trkpt lat="44.8843717" lon="1.078115"><ele>160.0</ele><time>2026-03-29T13:17:08.57Z</time></trkpt><trkpt lat="44.88438" lon="1.0782517"><ele>160.0</ele><time>2026-03-29T13:17:10.57Z</time></trkpt><trkpt lat="44.8844" lon="1.07839"><ele>160.0</ele><time>2026-03-29T13:17:12.569Z</time></trkpt><trkpt lat="44.88442" lon="1.0785083"><ele>160.0</ele><time>2026-03-29T13:17:14.569Z</time></trkpt><trkpt lat="44.884455" lon="1.07861"><ele>160.0</ele><time>2026-03-29T13:17:16.569Z</time></trkpt><trkpt lat="44.8844867" lon="1.0787167"><ele>160.0</ele><time>2026-03-29T13:17:18.569Z</time></trkpt><trkpt lat="44.884525" lon="1.0788583"><ele>160.16666666666669</ele><time>2026-03-29T13:17:20.569Z</time></trkpt><trkpt lat="44.8845383" lon="1.0789683"><ele>160.33333333333334</ele><time>2026-03-29T13:17:22.569Z</time></trkpt><trkpt lat="44.8845533" lon="1.079055"><ele>160.5</ele><time>2026-03-29T13:17:24.57Z</time></trkpt><trkpt lat="44.8845783" lon="1.07914"><ele>160.66666666666666</ele><time>2026-03-29T13:17:27.568Z</time></trkpt><trkpt lat="44.8846133" lon="1.0792333"><ele>160.83333333333331</ele><time>2026-03-29T13:17:29.568Z</time></trkpt><trkpt lat="44.8846433" lon="1.0793467"><ele>161.0</ele><time>2026-03-29T13:17:31.569Z</time></trkpt><trkpt lat="44.8846967" lon="1.0794583"><ele>161.33333333333331</ele><time>2026-03-29T13:17:33.568Z</time></trkpt><trkpt lat="44.8847533" lon="1.079555"><ele>161.66666666666666</ele><time>2026-03-29T13:17:35.569Z</time></trkpt><trkpt lat="44.8848017" lon="1.0796467"><ele>162.0</ele><time>2026-03-29T13:17:37.568Z</time></trkpt><trkpt lat="44.8848333" lon="1.0797417"><ele>162.33333333333334</ele><time>2026-03-29T13:17:39.568Z</time></trkpt><trkpt lat="44.8848633" lon="1.0798383"><ele>162.66666666666669</ele><time>2026-03-29T13:17:41.568Z</time></trkpt><trkpt lat="44.884885" lon="1.0799367"><ele>163.0</ele><time>2026-03-29T13:17:44.569Z</time></trkpt><trkpt lat="44.8848283" lon="1.0800067"><ele>163.16666666666669</ele><time>2026-03-29T13:17:47.569Z</time></trkpt><trkpt lat="44.8847733" lon="1.0800567"><ele>163.33333333333334</ele><time>2026-03-29T13:17:49.569Z</time></trkpt><trkpt lat="44.8847067" lon="1.080115"><ele>163.5</ele><time>2026-03-29T13:17:51.569Z</time></trkpt><trkpt lat="44.8846433" lon="1.080185"><ele>163.66666666666666</ele><time>2026-03-29T13:17:54.568Z</time></trkpt><trkpt lat="44.8846233" lon="1.0802833"><ele>163.83333333333331</ele><time>2026-03-29T13:17:57.569Z</time></trkpt><trkpt lat="44.8846883" lon="1.080355"><ele>164.0</ele><time>2026-03-29T13:18:00.568Z</time></trkpt><trkpt lat="44.8847817" lon="1.080415"><ele>164.0</ele><time>2026-03-29T13:18:03.568Z</time></trkpt><trkpt lat="44.8848533" lon="1.08046"><ele>164.0</ele><time>2026-03-29T13:18:05.569Z</time></trkpt><trkpt lat="44.88492" lon="1.08053"><ele>164.0</ele><time>2026-03-29T13:18:08.568Z</time></trkpt><trkpt lat="44.8849833" lon="1.0806033"><ele>164.0</ele><time>2026-03-29T13:18:12.568Z</time></trkpt><trkpt lat="44.8850467" lon="1.0806683"><ele>164.0</ele><time>2026-03-29T13:18:15.569Z</time></trkpt><trkpt lat="44.8851267" lon="1.080745"><ele>164.0</ele><time>2026-03-29T13:18:17.568Z</time></trkpt><trkpt lat="44.8851833" lon="1.0807933"><ele>167.2</ele><time>2026-03-29T13:18:18.569Z</time></trkpt><trkpt lat="44.885265" lon="1.0808633"><ele>170.39999999999998</ele><time>2026-03-29T13:18:19.568Z</time></trkpt><trkpt lat="44.8853583" lon="1.080935"><ele>173.6</ele><time>2026-03-29T13:18:20.569Z</time></trkpt><trkpt lat="44.88544" lon="1.0810067"><ele>176.8</ele><time>2026-03-29T13:18:21.568Z</time></trkpt><trkpt lat="44.8855267" lon="1.081075"><ele>180.0</ele><time>2026-03-29T13:18:22.568Z</time></trkpt><trkpt lat="44.8856" lon="1.08115"><ele>180.0</ele><time>2026-03-29T13:18:23.568Z</time></trkpt><trkpt lat="44.8856633" lon="1.081215"><ele>180.0</ele><time>2026-03-29T13:18:24.569Z</time></trkpt><trkpt lat="44.8857267" lon="1.0813"><ele>180.0</ele><time>2026-03-29T13:18:26.568Z</time></trkpt><trkpt lat="44.885755" lon="1.0813833"><ele>180.0</ele><time>2026-03-29T13:18:29.568Z</time></trkpt><trkpt lat="44.88568" lon="1.081425"><ele>180.0</ele><time>2026-03-29T13:18:32.568Z</time></trkpt><trkpt lat="44.8856167" lon="1.081475"><ele>180.0</ele><time>2026-03-29T13:18:34.569Z</time></trkpt><trkpt lat="44.88553" lon="1.0814983"><ele>180.0</ele><time>2026-03-29T13:18:37.568Z</time></trkpt><trkpt lat="44.885445" lon="1.0815233"><ele>180.0</ele><time>2026-03-29T13:18:40.569Z</time></trkpt><trkpt lat="44.88537" lon="1.0815517"><ele>180.0</ele><time>2026-03-29T13:18:42.569Z</time></trkpt><trkpt lat="44.8853067" lon="1.0815933"><ele>180.0</ele><time>2026-03-29T13:18:44.568Z</time></trkpt><trkpt lat="44.8852467" lon="1.0816217"><ele>180.0</ele><time>2026-03-29T13:18:46.568Z</time></trkpt><trkpt lat="44.8851717" lon="1.0816483"><ele>180.0</ele><time>2026-03-29T13:18:49.569Z</time></trkpt><trkpt lat="44.88508" lon="1.0816233"><ele>179.66666666666666</ele><time>2026-03-29T13:18:52.569Z</time></trkpt><trkpt lat="44.8849867" lon="1.0816"><ele>179.33333333333334</ele><time>2026-03-29T13:18:54.569Z</time></trkpt><trkpt lat="44.8849067" lon="1.08159"><ele>179.0</ele><time>2026-03-29T13:18:56.568Z</time></trkpt><trkpt lat="44.8848467" lon="1.0816683"><ele>178.66666666666669</ele><time>2026-03-29T13:18:59.568Z</time></trkpt><trkpt lat="44.8848833" lon="1.0817683"><ele>178.33333333333334</ele><time>2026-03-29T13:19:02.568Z</time></trkpt><trkpt lat="44.8849433" lon="1.0818733"><ele>178.0</ele><time>2026-03-29T13:19:05.568Z</time></trkpt><trkpt lat="44.884985" lon="1.0819433"><ele>180.16666666666669</ele><time>2026-03-29T13:19:07.568Z</time></trkpt><trkpt lat="44.88503" lon="1.0820117"><ele>182.33333333333334</ele><time>2026-03-29T13:19:09.568Z</time></trkpt><trkpt lat="44.8850817" lon="1.0820883"><ele>184.5</ele><time>2026-03-29T13:19:11.569Z</time></trkpt><trkpt lat="44.8851433" lon="1.082125"><ele>186.66666666666666</ele><time>2026-03-29T13:19:13.568Z</time></trkpt><trkpt lat="44.8852267" lon="1.0821333"><ele>188.83333333333331</ele><time>2026-03-29T13:19:15.569Z</time></trkpt><trkpt lat="44.8853383" lon="1.082145"><ele>191.0</ele><time>2026-03-29T13:19:17.568Z</time></trkpt><trkpt lat="44.8854167" lon="1.08215"><ele>191.0</ele><time>2026-03-29T13:19:18.568Z</time></trkpt><trkpt lat="44.88552" lon="1.0821583"><ele>191.0</ele><time>2026-03-29T13:19:20.568Z</time></trkpt><trkpt lat="44.8856233" lon="1.0821833"><ele>191.0</ele><time>2026-03-29T13:19:22.568Z</time></trkpt><trkpt lat="44.88573" lon="1.0822083"><ele>191.0</ele><time>2026-03-29T13:19:24.568Z</time></trkpt><trkpt lat="44.88584" lon="1.08227"><ele>191.0</ele><time>2026-03-29T13:19:26.569Z</time></trkpt><trkpt lat="44.8859267" lon="1.0823517"><ele>193.20000000000002</ele><time>2026-03-29T13:19:28.569Z</time></trkpt><trkpt lat="44.886005" lon="1.082465"><ele>195.4</ele><time>2026-03-29T13:19:30.569Z</time></trkpt><trkpt lat="44.886035" lon="1.082565"><ele>197.6</ele><time>2026-03-29T13:19:32.569Z</time></trkpt><trkpt lat="44.886105" lon="1.0827617"><ele>199.8</ele><time>2026-03-29T13:19:50.568Z</time></trkpt><trkpt lat="44.8861233" lon="1.08288"><ele>202.0</ele><time>2026-03-29T13:19:56.569Z</time></trkpt><trkpt lat="44.8861733" lon="1.0830217"><ele>202.0</ele><time>2026-03-29T13:20:15.569Z</time></trkpt><trkpt lat="44.8862317" lon="1.0831017"><ele>202.0</ele><time>2026-03-29T13:46:01.562Z</time></trkpt><trkpt lat="44.8863017" lon="1.083165"><ele>202.0</ele><time>2026-03-29T13:46:04.563Z</time></trkpt><trkpt lat="44.8863733" lon="1.0832483"><ele>202.0</ele><time>2026-03-29T13:46:06.563Z</time></trkpt><trkpt lat="44.88645" lon="1.0833367"><ele>202.0</ele><time>2026-03-29T13:46:08.563Z</time></trkpt><trkpt lat="44.8865383" lon="1.0834083"><ele>201.49999999999997</ele><time>2026-03-29T13:46:10.562Z</time></trkpt><trkpt lat="44.8866217" lon="1.08346"><ele>201.0</ele><time>2026-03-29T13:46:12.563Z</time></trkpt><trkpt lat="44.886695" lon="1.0834717"><ele>200.5</ele><time>2026-03-29T13:46:14.562Z</time></trkpt><trkpt lat="44.8867633" lon="1.0834633"><ele>200.0</ele><time>2026-03-29T13:46:16.562Z</time></trkpt><trkpt lat="44.8868417" lon="1.0834283"><ele>199.49999999999997</ele><time>2026-03-29T13:46:18.563Z</time></trkpt><trkpt lat="44.8869433" lon="1.0833317"><ele>199.0</ele><time>2026-03-29T13:46:20.563Z</time></trkpt><trkpt lat="44.887025" lon="1.0832417"><ele>200.2</ele><time>2026-03-29T13:46:22.562Z</time></trkpt><trkpt lat="44.8871" lon="1.0831683"><ele>201.39999999999998</ele><time>2026-03-29T13:46:24.562Z</time></trkpt><trkpt lat="44.8871733" lon="1.0831067"><ele>202.6</ele><time>2026-03-29T13:46:26.563Z</time></trkpt><trkpt lat="44.887265" lon="1.083045"><ele>203.8</ele><time>2026-03-29T13:46:28.562Z</time></trkpt><trkpt lat="44.8873583" lon="1.0829483"><ele>205.0</ele><time>2026-03-29T13:46:30.562Z</time></trkpt><trkpt lat="44.8874117" lon="1.0828783"><ele>205.0</ele><time>2026-03-29T13:46:31.563Z</time></trkpt><trkpt lat="44.8874767" lon="1.082785"><ele>205.0</ele><time>2026-03-29T13:46:32.562Z</time></trkpt><trkpt lat="44.8875283" lon="1.0826933"><ele>205.0</ele><time>2026-03-29T13:46:33.562Z</time></trkpt><trkpt lat="44.8875667" lon="1.0826083"><ele>205.0</ele><time>2026-03-29T13:46:34.563Z</time></trkpt><trkpt lat="44.8876033" lon="1.0825317"><ele>205.0</ele><time>2026-03-29T13:46:35.562Z</time></trkpt><trkpt lat="44.88764" lon="1.0824567"><ele>205.0</ele><time>2026-03-29T13:46:36.562Z</time></trkpt><trkpt lat="44.887675" lon="1.0823817"><ele>205.0</ele><time>2026-03-29T13:46:37.562Z</time></trkpt><trkpt lat="44.887715" lon="1.0823117"><ele>204.99999999999997</ele><time>2026-03-29T13:46:38.563Z</time></trkpt><trkpt lat="44.8877617" lon="1.0822467"><ele>205.0</ele><time>2026-03-29T13:46:39.562Z</time></trkpt><trkpt lat="44.8878383" lon="1.0821583"><ele>205.0</ele><time>2026-03-29T13:46:40.562Z</time></trkpt><trkpt lat="44.8878883" lon="1.0820567"><ele>205.0</ele><time>2026-03-29T13:46:41.563Z</time></trkpt><trkpt lat="44.887925" lon="1.08196"><ele>204.99999999999997</ele><time>2026-03-29T13:46:42.562Z</time></trkpt><trkpt lat="44.8879633" lon="1.0818683"><ele>205.0</ele><time>2026-03-29T13:46:43.562Z</time></trkpt><trkpt lat="44.8879967" lon="1.0817467"><ele>206.0</ele><time>2026-03-29T13:46:45.562Z</time></trkpt><trkpt lat="44.8880233" lon="1.0815683"><ele>207.0</ele><time>2026-03-29T13:46:50.562Z</time></trkpt><trkpt lat="44.8880117" lon="1.0814483"><ele>208.0</ele><time>2026-03-29T13:46:52.563Z</time></trkpt><trkpt lat="44.8879783" lon="1.0813283"><ele>209.0</ele><time>2026-03-29T13:46:54.563Z</time></trkpt><trkpt lat="44.8879317" lon="1.0811483"><ele>210.0</ele><time>2026-03-29T13:46:57.562Z</time></trkpt><trkpt lat="44.8879483" lon="1.0810367"><ele>210.0</ele><time>2026-03-29T13:46:59.562Z</time></trkpt><trkpt lat="44.8880017" lon="1.0809367"><ele>210.0</ele><time>2026-03-29T13:47:02.563Z</time></trkpt><trkpt lat="44.8881017" lon="1.0809167"><ele>210.0</ele><time>2026-03-29T13:47:11.563Z</time></trkpt><trkpt lat="44.8881733" lon="1.0809183"><ele>210.0</ele><time>2026-03-29T13:47:17.563Z</time></trkpt><trkpt lat="44.88826" lon="1.080925"><ele>210.0</ele><time>2026-03-29T13:47:23.562Z</time></trkpt><trkpt lat="44.8883433" lon="1.0809267"><ele>210.0</ele><time>2026-03-29T13:47:26.563Z</time></trkpt><trkpt lat="44.8884183" lon="1.080905"><ele>210.8</ele><time>2026-03-29T13:47:29.562Z</time></trkpt><trkpt lat="44.8884917" lon="1.0808767"><ele>211.6</ele><time>2026-03-29T13:47:32.563Z</time></trkpt><trkpt lat="44.8885767" lon="1.0808567"><ele>212.39999999999998</ele><time>2026-03-29T13:47:34.563Z</time></trkpt><trkpt lat="44.8886967" lon="1.0808667"><ele>213.2</ele><time>2026-03-29T13:47:36.563Z</time></trkpt><trkpt lat="44.8887683" lon="1.0808683"><ele>214.0</ele><time>2026-03-29T13:47:37.563Z</time></trkpt><trkpt lat="44.888885" lon="1.08081"><ele>213.99999999999997</ele><time>2026-03-29T13:47:39.562Z</time></trkpt><trkpt lat="44.8889417" lon="1.0807133"><ele>214.0</ele><time>2026-03-29T13:47:41.562Z</time></trkpt><trkpt lat="44.8889683" lon="1.0806117"><ele>214.0</ele><time>2026-03-29T13:47:43.561Z</time></trkpt><trkpt lat="44.88896" lon="1.0804917"><ele>214.0</ele><time>2026-03-29T13:47:45.561Z</time></trkpt><trkpt lat="44.8889517" lon="1.080325"><ele>213.99999999999997</ele><time>2026-03-29T13:47:47.561Z</time></trkpt><trkpt lat="44.8889283" lon="1.0802417"><ele>214.0</ele><time>2026-03-29T13:47:48.562Z</time></trkpt><trkpt lat="44.8889183" lon="1.080115"><ele>214.0</ele><time>2026-03-29T13:47:50.561Z</time></trkpt><trkpt lat="44.8888767" lon="1.0799933"><ele>213.99999999999997</ele><time>2026-03-29T13:47:52.562Z</time></trkpt><trkpt lat="44.88882" lon="1.0798767"><ele>213.99999999999997</ele><time>2026-03-29T13:47:54.561Z</time></trkpt><trkpt lat="44.8887533" lon="1.0797817"><ele>214.0</ele><time>2026-03-29T13:47:56.561Z</time></trkpt><trkpt lat="44.888685" lon="1.0796517"><ele>214.0</ele><time>2026-03-29T13:47:58.562Z</time></trkpt><trkpt lat="44.888595" lon="1.0794883"><ele>213.79999999999998</ele><time>2026-03-29T13:48:00.562Z</time></trkpt><trkpt lat="44.8885517" lon="1.079385"><ele>213.59999999999997</ele><time>2026-03-29T13:48:01.562Z</time></trkpt><trkpt lat="44.88851" lon="1.0792933"><ele>213.4</ele><time>2026-03-29T13:48:02.562Z</time></trkpt><trkpt lat="44.8884567" lon="1.0791417"><ele>213.2</ele><time>2026-03-29T13:48:04.562Z</time></trkpt><trkpt lat="44.8884217" lon="1.0790417"><ele>213.0</ele><time>2026-03-29T13:48:08.562Z</time></trkpt><trkpt lat="44.8884033" lon="1.078905"><ele>209.83333333333334</ele><time>2026-03-29T13:48:11.562Z</time></trkpt><trkpt lat="44.8883917" lon="1.0788033"><ele>206.66666666666669</ele><time>2026-03-29T13:48:13.561Z</time></trkpt><trkpt lat="44.88838" lon="1.0786933"><ele>203.5</ele><time>2026-03-29T13:48:15.561Z</time></trkpt><trkpt lat="44.8883383" lon="1.07855"><ele>200.33333333333334</ele><time>2026-03-29T13:48:17.562Z</time></trkpt><trkpt lat="44.8883117" lon="1.07846"><ele>197.16666666666669</ele><time>2026-03-29T13:48:18.561Z</time></trkpt><trkpt lat="44.888285" lon="1.0783683"><ele>194.0</ele><time>2026-03-29T13:48:19.561Z</time></trkpt><trkpt lat="44.88825" lon="1.07829"><ele>193.66666666666669</ele><time>2026-03-29T13:48:20.561Z</time></trkpt><trkpt lat="44.88821" lon="1.0782017"><ele>193.33333333333334</ele><time>2026-03-29T13:48:21.561Z</time></trkpt><trkpt lat="44.8881683" lon="1.0781217"><ele>193.0</ele><time>2026-03-29T13:48:22.561Z</time></trkpt><trkpt lat="44.8881167" lon="1.0780083"><ele>192.66666666666669</ele><time>2026-03-29T13:48:24.561Z</time></trkpt><trkpt lat="44.8880917" lon="1.0779233"><ele>192.33333333333334</ele><time>2026-03-29T13:48:25.561Z</time></trkpt><trkpt lat="44.8880767" lon="1.077835"><ele>192.0</ele><time>2026-03-29T13:48:26.562Z</time></trkpt><trkpt lat="44.8880133" lon="1.0776667"><ele>192.0</ele><time>2026-03-29T13:48:28.561Z</time></trkpt><trkpt lat="44.8879767" lon="1.0775817"><ele>192.0</ele><time>2026-03-29T13:48:29.562Z</time></trkpt><trkpt lat="44.88794" lon="1.0774217"><ele>192.0</ele><time>2026-03-29T13:48:31.561Z</time></trkpt><trkpt lat="44.8879083" lon="1.077235"><ele>192.0</ele><time>2026-03-29T13:48:33.562Z</time></trkpt><trkpt lat="44.8878733" lon="1.077135"><ele>192.0</ele><time>2026-03-29T13:48:34.562Z</time></trkpt><trkpt lat="44.88784" lon="1.077055"><ele>192.14285714285714</ele><time>2026-03-29T13:48:35.562Z</time></trkpt><trkpt lat="44.8877983" lon="1.076965"><ele>192.28571428571428</ele><time>2026-03-29T13:48:36.561Z</time></trkpt><trkpt lat="44.887755" lon="1.0768817"><ele>192.42857142857144</ele><time>2026-03-29T13:48:37.561Z</time></trkpt><trkpt lat="44.8877183" lon="1.0768017"><ele>192.57142857142856</ele><time>2026-03-29T13:48:38.562Z</time></trkpt><trkpt lat="44.8876783" lon="1.0767283"><ele>192.71428571428572</ele><time>2026-03-29T13:48:39.561Z</time></trkpt><trkpt lat="44.8876367" lon="1.0766483"><ele>192.85714285714286</ele><time>2026-03-29T13:48:40.561Z</time></trkpt><trkpt lat="44.8875883" lon="1.076565"><ele>193.0</ele><time>2026-03-29T13:48:41.561Z</time></trkpt><trkpt lat="44.8875417" lon="1.0764783"><ele>189.99999999999997</ele><time>2026-03-29T13:48:42.562Z</time></trkpt><trkpt lat="44.887495" lon="1.0763767"><ele>187.0</ele><time>2026-03-29T13:48:43.561Z</time></trkpt><trkpt lat="44.8874517" lon="1.0762483"><ele>184.0</ele><time>2026-03-29T13:48:44.562Z</time></trkpt><trkpt lat="44.8874167" lon="1.0761317"><ele>181.0</ele><time>2026-03-29T13:48:45.561Z</time></trkpt><trkpt lat="44.8873867" lon="1.07603"><ele>178.0</ele><time>2026-03-29T13:48:46.562Z</time></trkpt><trkpt lat="44.8873583" lon="1.0759483"><ele>175.0</ele><time>2026-03-29T13:48:47.561Z</time></trkpt><trkpt lat="44.8873067" lon="1.0758183"><ele>173.5</ele><time>2026-03-29T13:48:49.561Z</time></trkpt><trkpt lat="44.8872883" lon="1.0757283"><ele>172.0</ele><time>2026-03-29T13:48:50.561Z</time></trkpt><trkpt lat="44.8872617" lon="1.0756383"><ele>170.5</ele><time>2026-03-29T13:48:51.561Z</time></trkpt><trkpt lat="44.8872517" lon="1.07554"><ele>169.0</ele><time>2026-03-29T13:48:52.562Z</time></trkpt><trkpt lat="44.88724" lon="1.075445"><ele>167.5</ele><time>2026-03-29T13:48:53.562Z</time></trkpt><trkpt lat="44.8872367" lon="1.0752617"><ele>166.0</ele><time>2026-03-29T13:48:55.561Z</time></trkpt><trkpt lat="44.88723" lon="1.0750983"><ele>164.16666666666669</ele><time>2026-03-29T13:48:57.562Z</time></trkpt><trkpt lat="44.88723" lon="1.0749367"><ele>162.33333333333334</ele><time>2026-03-29T13:48:59.561Z</time></trkpt><trkpt lat="44.8872383" lon="1.0748467"><ele>160.5</ele><time>2026-03-29T13:49:00.561Z</time></trkpt><trkpt lat="44.8872517" lon="1.07475"><ele>158.66666666666666</ele><time>2026-03-29T13:49:01.562Z</time></trkpt><trkpt lat="44.8872667" lon="1.0746433"><ele>156.83333333333331</ele><time>2026-03-29T13:49:02.561Z</time></trkpt><trkpt lat="44.8872883" lon="1.0745233"><ele>155.0</ele><time>2026-03-29T13:49:03.562Z</time></trkpt><trkpt lat="44.8873167" lon="1.074415"><ele>155.0</ele><time>2026-03-29T13:49:04.562Z</time></trkpt><trkpt lat="44.8873383" lon="1.074285"><ele>155.0</ele><time>2026-03-29T13:49:05.562Z</time></trkpt><trkpt lat="44.8873633" lon="1.0741583"><ele>155.0</ele><time>2026-03-29T13:49:06.561Z</time></trkpt><trkpt lat="44.887395" lon="1.074025"><ele>155.0</ele><time>2026-03-29T13:49:07.561Z</time></trkpt><trkpt lat="44.8874233" lon="1.0739167"><ele>155.0</ele><time>2026-03-29T13:49:08.561Z</time></trkpt><trkpt lat="44.887455" lon="1.07382"><ele>155.0</ele><time>2026-03-29T13:49:09.562Z</time></trkpt><trkpt lat="44.8874783" lon="1.073725"><ele>153.4</ele><time>2026-03-29T13:49:10.561Z</time></trkpt><trkpt lat="44.8875167" lon="1.0735767"><ele>151.8</ele><time>2026-03-29T13:49:12.561Z</time></trkpt><trkpt lat="44.8875267" lon="1.0734483"><ele>150.2</ele><time>2026-03-29T13:49:14.562Z</time></trkpt><trkpt lat="44.8875167" lon="1.0733183"><ele>148.6</ele><time>2026-03-29T13:49:16.561Z</time></trkpt><trkpt lat="44.8874833" lon="1.073215"><ele>147.0</ele><time>2026-03-29T13:49:18.561Z</time></trkpt><trkpt lat="44.88744" lon="1.0731133"><ele>146.16666666666666</ele><time>2026-03-29T13:49:20.561Z</time></trkpt><trkpt lat="44.8874783" lon="1.0730217"><ele>145.33333333333334</ele><time>2026-03-29T13:49:23.562Z</time></trkpt><trkpt lat="44.8875417" lon="1.073"><ele>144.5</ele><time>2026-03-29T13:49:25.562Z</time></trkpt><trkpt lat="44.8876067" lon="1.0730017"><ele>143.66666666666669</ele><time>2026-03-29T13:49:27.561Z</time></trkpt><trkpt lat="44.88767" lon="1.0729783"><ele>142.83333333333334</ele><time>2026-03-29T13:49:29.562Z</time></trkpt><trkpt lat="44.8877917" lon="1.0728417"><ele>142.0</ele><time>2026-03-29T13:49:38.562Z</time></trkpt><trkpt lat="44.8878717" lon="1.0727833"><ele>142.0</ele><time>2026-03-29T13:49:40.562Z</time></trkpt><trkpt lat="44.887955" lon="1.0726983"><ele>142.0</ele><time>2026-03-29T13:49:42.562Z</time></trkpt><trkpt lat="44.8880217" lon="1.0725917"><ele>142.0</ele><time>2026-03-29T13:49:44.561Z</time></trkpt><trkpt lat="44.8880783" lon="1.07246"><ele>142.0</ele><time>2026-03-29T13:49:46.562Z</time></trkpt><trkpt lat="44.8880583" lon="1.0723317"><ele>142.0</ele><time>2026-03-29T13:49:48.562Z</time></trkpt><trkpt lat="44.8879817" lon="1.07223"><ele>143.2</ele><time>2026-03-29T13:49:50.562Z</time></trkpt><trkpt lat="44.8878817" lon="1.07211"><ele>144.39999999999998</ele><time>2026-03-29T13:49:52.561Z</time></trkpt><trkpt lat="44.8878067" lon="1.0720433"><ele>145.60000000000002</ele><time>2026-03-29T13:49:53.561Z</time></trkpt><trkpt lat="44.88772" lon="1.0719633"><ele>146.8</ele><time>2026-03-29T13:49:54.562Z</time></trkpt><trkpt lat="44.8876433" lon="1.0718867"><ele>148.0</ele><time>2026-03-29T13:49:55.562Z</time></trkpt><trkpt lat="44.8875617" lon="1.0717983"><ele>148.5</ele><time>2026-03-29T13:49:56.562Z</time></trkpt><trkpt lat="44.8874867" lon="1.0717317"><ele>149.0</ele><time>2026-03-29T13:49:57.561Z</time></trkpt><trkpt lat="44.8874217" lon="1.0716783"><ele>149.5</ele><time>2026-03-29T13:49:58.561Z</time></trkpt><trkpt lat="44.887355" lon="1.071625"><ele>150.0</ele><time>2026-03-29T13:49:59.562Z</time></trkpt><trkpt lat="44.8872867" lon="1.0715733"><ele>150.5</ele><time>2026-03-29T13:50:00.561Z</time></trkpt><trkpt lat="44.887225" lon="1.0715217"><ele>151.0</ele><time>2026-03-29T13:50:01.561Z</time></trkpt><trkpt lat="44.8871667" lon="1.0714733"><ele>154.83333333333334</ele><time>2026-03-29T13:50:02.562Z</time></trkpt><trkpt lat="44.8871017" lon="1.07143"><ele>158.66666666666669</ele><time>2026-03-29T13:50:04.561Z</time></trkpt><trkpt lat="44.88703" lon="1.0713867"><ele>162.5</ele><time>2026-03-29T13:50:07.562Z</time></trkpt><trkpt lat="44.8869783" lon="1.0713183"><ele>166.33333333333334</ele><time>2026-03-29T13:50:09.561Z</time></trkpt><trkpt lat="44.88692" lon="1.0711917"><ele>170.16666666666666</ele><time>2026-03-29T13:50:11.562Z</time></trkpt><trkpt lat="44.8868767" lon="1.0711117"><ele>174.0</ele><time>2026-03-29T13:50:12.561Z</time></trkpt><trkpt lat="44.886835" lon="1.0710317"><ele>174.0</ele><time>2026-03-29T13:50:13.561Z</time></trkpt><trkpt lat="44.8867783" lon="1.07093"><ele>174.0</ele><time>2026-03-29T13:50:14.561Z</time></trkpt><trkpt lat="44.88672" lon="1.0708233"><ele>174.0</ele><time>2026-03-29T13:50:15.562Z</time></trkpt><trkpt lat="44.88666" lon="1.0707217"><ele>174.0</ele><time>2026-03-29T13:50:16.561Z</time></trkpt><trkpt lat="44.886595" lon="1.070625"><ele>174.0</ele><time>2026-03-29T13:50:17.562Z</time></trkpt><trkpt lat="44.886535" lon="1.0705133"><ele>175.2</ele><time>2026-03-29T13:50:18.562Z</time></trkpt><trkpt lat="44.8864883" lon="1.0704033"><ele>176.39999999999998</ele><time>2026-03-29T13:50:19.562Z</time></trkpt><trkpt lat="44.8864433" lon="1.07028"><ele>177.6</ele><time>2026-03-29T13:50:20.562Z</time></trkpt><trkpt lat="44.88638" lon="1.070145"><ele>178.8</ele><time>2026-03-29T13:50:21.562Z</time></trkpt><trkpt lat="44.8862967" lon="1.0700033"><ele>180.0</ele><time>2026-03-29T13:50:22.561Z</time></trkpt><trkpt lat="44.8862133" lon="1.0698617"><ele>178.0</ele><time>2026-03-29T13:50:23.562Z</time></trkpt><trkpt lat="44.8861267" lon="1.0697233"><ele>176.0</ele><time>2026-03-29T13:50:24.561Z</time></trkpt><trkpt lat="44.8860467" lon="1.06961"><ele>174.0</ele><time>2026-03-29T13:50:25.561Z</time></trkpt><trkpt lat="44.88598" lon="1.06949"><ele>172.0</ele><time>2026-03-29T13:50:26.562Z</time></trkpt><trkpt lat="44.8859233" lon="1.06935"><ele>172.0</ele><time>2026-03-29T13:50:27.562Z</time></trkpt><trkpt lat="44.8858383" lon="1.06915"><ele>172.0</ele><time>2026-03-29T13:50:28.561Z</time></trkpt><trkpt lat="44.8857867" lon="1.06897"><ele>172.0</ele><time>2026-03-29T13:50:29.562Z</time></trkpt><trkpt lat="44.88576" lon="1.0688183"><ele>172.0</ele><time>2026-03-29T13:50:30.562Z</time></trkpt><trkpt lat="44.8857383" lon="1.0686883"><ele>172.39999999999998</ele><time>2026-03-29T13:50:31.562Z</time></trkpt><trkpt lat="44.8857217" lon="1.0685533"><ele>172.79999999999998</ele><time>2026-03-29T13:50:32.562Z</time></trkpt><trkpt lat="44.885695" lon="1.0684167"><ele>173.2</ele><time>2026-03-29T13:50:33.562Z</time></trkpt><trkpt lat="44.88568" lon="1.068275"><ele>173.6</ele><time>2026-03-29T13:50:34.561Z</time></trkpt><trkpt lat="44.8856883" lon="1.068155"><ele>174.0</ele><time>2026-03-29T13:50:35.561Z</time></trkpt><trkpt lat="44.885715" lon="1.06805"><ele>172.66666666666666</ele><time>2026-03-29T13:50:36.561Z</time></trkpt><trkpt lat="44.8857217" lon="1.067955"><ele>171.33333333333334</ele><time>2026-03-29T13:50:37.562Z</time></trkpt><trkpt lat="44.8857433" lon="1.067865"><ele>170.0</ele><time>2026-03-29T13:50:38.561Z</time></trkpt><trkpt lat="44.8857683" lon="1.0677033"><ele>168.66666666666669</ele><time>2026-03-29T13:50:40.562Z</time></trkpt><trkpt lat="44.8857917" lon="1.0675767"><ele>167.33333333333334</ele><time>2026-03-29T13:50:42.562Z</time></trkpt><trkpt lat="44.885815" lon="1.0674767"><ele>166.0</ele><time>2026-03-29T13:50:44.562Z</time></trkpt><trkpt lat="44.8858617" lon="1.0674167"><ele>168.60000000000002</ele><time>2026-03-29T13:50:46.562Z</time></trkpt><trkpt lat="44.8859717" lon="1.06742"><ele>171.2</ele><time>2026-03-29T13:50:48.561Z</time></trkpt><trkpt lat="44.8860533" lon="1.0674417"><ele>173.8</ele><time>2026-03-29T13:50:49.562Z</time></trkpt><trkpt lat="44.886175" lon="1.0674817"><ele>176.39999999999998</ele><time>2026-03-29T13:50:50.561Z</time></trkpt><trkpt lat="44.8862817" lon="1.0675267"><ele>179.0</ele><time>2026-03-29T13:50:51.561Z</time></trkpt><trkpt lat="44.8864083" lon="1.0675683"><ele>179.0</ele><time>2026-03-29T13:50:52.562Z</time></trkpt><trkpt lat="44.88659" lon="1.06761"><ele>179.0</ele><time>2026-03-29T13:50:53.561Z</time></trkpt><trkpt lat="44.8867617" lon="1.0676417"><ele>179.0</ele><time>2026-03-29T13:50:54.562Z</time></trkpt><trkpt lat="44.8869267" lon="1.0676733"><ele>181.25</ele><time>2026-03-29T13:50:55.561Z</time></trkpt><trkpt lat="44.887075" lon="1.0676917"><ele>183.5</ele><time>2026-03-29T13:50:56.561Z</time></trkpt><trkpt lat="44.887225" lon="1.0677167"><ele>185.75</ele><time>2026-03-29T13:50:57.562Z</time></trkpt><trkpt lat="44.8873583" lon="1.0677417"><ele>188.0</ele><time>2026-03-29T13:50:58.561Z</time></trkpt><trkpt lat="44.88747" lon="1.067765"><ele>188.0</ele><time>2026-03-29T13:50:59.561Z</time></trkpt><trkpt lat="44.8875683" lon="1.06778"><ele>188.0</ele><time>2026-03-29T13:51:00.561Z</time></trkpt><trkpt lat="44.88769" lon="1.067805"><ele>188.0</ele><time>2026-03-29T13:51:01.561Z</time></trkpt><trkpt lat="44.8878083" lon="1.0678267"><ele>188.0</ele><time>2026-03-29T13:51:02.561Z</time></trkpt><trkpt lat="44.8879333" lon="1.067845"><ele>189.2</ele><time>2026-03-29T13:51:03.561Z</time></trkpt><trkpt lat="44.88805" lon="1.0678483"><ele>190.4</ele><time>2026-03-29T13:51:04.562Z</time></trkpt><trkpt lat="44.88817" lon="1.0678567"><ele>191.6</ele><time>2026-03-29T13:51:05.561Z</time></trkpt><trkpt lat="44.888265" lon="1.0678833"><ele>192.79999999999998</ele><time>2026-03-29T13:51:06.562Z</time></trkpt><trkpt lat="44.88836" lon="1.0678983"><ele>194.0</ele><time>2026-03-29T13:51:07.562Z</time></trkpt><trkpt lat="44.888445" lon="1.0678867"><ele>194.2</ele><time>2026-03-29T13:51:08.561Z</time></trkpt><trkpt lat="44.8885233" lon="1.0678817"><ele>194.39999999999998</ele><time>2026-03-29T13:51:09.561Z</time></trkpt><trkpt lat="44.88861" lon="1.0678633"><ele>194.6</ele><time>2026-03-29T13:51:10.561Z</time></trkpt><trkpt lat="44.888685" lon="1.0678183"><ele>194.8</ele><time>2026-03-29T13:51:11.561Z</time></trkpt><trkpt lat="44.88876" lon="1.067745"><ele>195.0</ele><time>2026-03-29T13:51:12.561Z</time></trkpt><trkpt lat="44.888845" lon="1.0676417"><ele>195.0</ele><time>2026-03-29T13:51:13.562Z</time></trkpt><trkpt lat="44.8889333" lon="1.0674833"><ele>195.0</ele><time>2026-03-29T13:51:14.561Z</time></trkpt><trkpt lat="44.8890067" lon="1.0673667"><ele>195.0</ele><time>2026-03-29T13:51:15.562Z</time></trkpt><trkpt lat="44.8890617" lon="1.06726"><ele>195.0</ele><time>2026-03-29T13:51:16.561Z</time></trkpt><trkpt lat="44.8891083" lon="1.06718"><ele>195.0</ele><time>2026-03-29T13:51:17.561Z</time></trkpt><trkpt lat="44.889155" lon="1.0670917"><ele>194.6</ele><time>2026-03-29T13:51:18.561Z</time></trkpt><trkpt lat="44.889195" lon="1.067"><ele>194.2</ele><time>2026-03-29T13:51:19.561Z</time></trkpt><trkpt lat="44.8892367" lon="1.066895"><ele>193.8</ele><time>2026-03-29T13:51:20.562Z</time></trkpt><trkpt lat="44.8892717" lon="1.066775"><ele>193.4</ele><time>2026-03-29T13:51:21.561Z</time></trkpt><trkpt lat="44.8893067" lon="1.06665"><ele>193.0</ele><time>2026-03-29T13:51:22.561Z</time></trkpt><trkpt lat="44.88936" lon="1.066515"><ele>193.0</ele><time>2026-03-29T13:51:23.561Z</time></trkpt><trkpt lat="44.8894083" lon="1.0663817"><ele>193.0</ele><time>2026-03-29T13:51:24.561Z</time></trkpt><trkpt lat="44.88945" lon="1.0662483"><ele>193.0</ele><time>2026-03-29T13:51:25.561Z</time></trkpt><trkpt lat="44.88949" lon="1.0661267"><ele>193.0</ele><time>2026-03-29T13:51:26.561Z</time></trkpt><trkpt lat="44.8895317" lon="1.0660267"><ele>193.0</ele><time>2026-03-29T13:51:27.562Z</time></trkpt><trkpt lat="44.889595" lon="1.0658867"><ele>193.0</ele><time>2026-03-29T13:51:29.562Z</time></trkpt><trkpt lat="44.8896933" lon="1.0658267"><ele>193.0</ele><time>2026-03-29T13:51:31.561Z</time></trkpt><trkpt lat="44.8897533" lon="1.0657967"><ele>193.0</ele><time>2026-03-29T13:51:32.562Z</time></trkpt><trkpt lat="44.88987" lon="1.065745"><ele>193.0</ele><time>2026-03-29T13:51:34.562Z</time></trkpt><trkpt lat="44.8899733" lon="1.0656867"><ele>193.0</ele><time>2026-03-29T13:51:36.561Z</time></trkpt><trkpt lat="44.8900533" lon="1.0656583"><ele>192.66666666666666</ele><time>2026-03-29T13:51:38.562Z</time></trkpt><trkpt lat="44.89013" lon="1.0656083"><ele>192.33333333333331</ele><time>2026-03-29T13:51:40.561Z</time></trkpt><trkpt lat="44.8902083" lon="1.0655717"><ele>192.0</ele><time>2026-03-29T13:51:42.561Z</time></trkpt><trkpt lat="44.89028" lon="1.0655233"><ele>191.66666666666666</ele><time>2026-03-29T13:51:44.562Z</time></trkpt><trkpt lat="44.89031" lon="1.0654183"><ele>191.33333333333331</ele><time>2026-03-29T13:51:47.56Z</time></trkpt><trkpt lat="44.8902833" lon="1.0653033"><ele>191.0</ele><time>2026-03-29T13:51:49.56Z</time></trkpt><trkpt lat="44.89027" lon="1.06519"><ele>191.0</ele><time>2026-03-29T13:51:51.561Z</time></trkpt><trkpt lat="44.8903083" lon="1.0650833"><ele>191.0</ele><time>2026-03-29T13:51:53.561Z</time></trkpt><trkpt lat="44.890385" lon="1.0649933"><ele>191.0</ele><time>2026-03-29T13:51:55.56Z</time></trkpt><trkpt lat="44.8904933" lon="1.0649417"><ele>191.0</ele><time>2026-03-29T13:51:57.561Z</time></trkpt><trkpt lat="44.89059" lon="1.06491"><ele>191.0</ele><time>2026-03-29T13:51:59.56Z</time></trkpt><trkpt lat="44.8906783" lon="1.06487"><ele>190.33333333333331</ele><time>2026-03-29T13:52:01.561Z</time></trkpt><trkpt lat="44.8907433" lon="1.0648567"><ele>189.66666666666666</ele><time>2026-03-29T13:52:02.56Z</time></trkpt><trkpt lat="44.89082" lon="1.0648483"><ele>189.0</ele><time>2026-03-29T13:52:03.561Z</time></trkpt><trkpt lat="44.8908867" lon="1.06485"><ele>188.33333333333334</ele><time>2026-03-29T13:52:04.56Z</time></trkpt><trkpt lat="44.8909583" lon="1.064865"><ele>187.66666666666669</ele><time>2026-03-29T13:52:05.561Z</time></trkpt><trkpt lat="44.8910217" lon="1.06489"><ele>187.0</ele><time>2026-03-29T13:52:06.56Z</time></trkpt><trkpt lat="44.8911417" lon="1.06489"><ele>187.0</ele><time>2026-03-29T13:52:08.56Z</time></trkpt><trkpt lat="44.89121" lon="1.064865"><ele>187.0</ele><time>2026-03-29T13:52:09.56Z</time></trkpt><trkpt lat="44.8912817" lon="1.0648317"><ele>187.0</ele><time>2026-03-29T13:52:10.56Z</time></trkpt><trkpt lat="44.8913433" lon="1.0647967"><ele>187.0</ele><time>2026-03-29T13:52:11.56Z</time></trkpt><trkpt lat="44.891415" lon="1.0647733"><ele>187.0</ele><time>2026-03-29T13:52:12.56Z</time></trkpt><trkpt lat="44.89149" lon="1.06474"><ele>187.0</ele><time>2026-03-29T13:52:13.561Z</time></trkpt><trkpt lat="44.8915733" lon="1.064715"><ele>187.0</ele><time>2026-03-29T13:52:14.56Z</time></trkpt><trkpt lat="44.8916567" lon="1.0647"><ele>187.0</ele><time>2026-03-29T13:52:15.56Z</time></trkpt><trkpt lat="44.89174" lon="1.06468"><ele>187.0</ele><time>2026-03-29T13:52:16.56Z</time></trkpt><trkpt lat="44.891825" lon="1.06468"><ele>187.0</ele><time>2026-03-29T13:52:17.56Z</time></trkpt><trkpt lat="44.8919167" lon="1.0646767"><ele>187.0</ele><time>2026-03-29T13:52:18.561Z</time></trkpt><trkpt lat="44.8920033" lon="1.0646617"><ele>187.0</ele><time>2026-03-29T13:52:19.56Z</time></trkpt><trkpt lat="44.8920817" lon="1.0646483"><ele>187.16666666666669</ele><time>2026-03-29T13:52:20.561Z</time></trkpt><trkpt lat="44.8921533" lon="1.064625"><ele>187.33333333333334</ele><time>2026-03-29T13:52:21.561Z</time></trkpt><trkpt lat="44.8922133" lon="1.0645767"><ele>187.5</ele><time>2026-03-29T13:52:22.56Z</time></trkpt><trkpt lat="44.89228" lon="1.0645017"><ele>187.66666666666666</ele><time>2026-03-29T13:52:23.561Z</time></trkpt><trkpt lat="44.89234" lon="1.0644117"><ele>187.83333333333331</ele><time>2026-03-29T13:52:24.56Z</time></trkpt><trkpt lat="44.8924133" lon="1.0643"><ele>188.0</ele><time>2026-03-29T13:52:25.561Z</time></trkpt><trkpt lat="44.8925233" lon="1.0641483"><ele>187.66666666666666</ele><time>2026-03-29T13:52:26.561Z</time></trkpt><trkpt lat="44.8926383" lon="1.0639917"><ele>187.33333333333334</ele><time>2026-03-29T13:52:27.56Z</time></trkpt><trkpt lat="44.892755" lon="1.0638383"><ele>187.0</ele><time>2026-03-29T13:52:28.56Z</time></trkpt><trkpt lat="44.89287" lon="1.0636767"><ele>187.0</ele><time>2026-03-29T13:52:29.56Z</time></trkpt><trkpt lat="44.8929883" lon="1.0635183"><ele>187.0</ele><time>2026-03-29T13:52:30.56Z</time></trkpt><trkpt lat="44.8930883" lon="1.0633483"><ele>187.0</ele><time>2026-03-29T13:52:31.56Z</time></trkpt><trkpt lat="44.893175" lon="1.0631783"><ele>186.8</ele><time>2026-03-29T13:52:32.56Z</time></trkpt><trkpt lat="44.8932483" lon="1.0630333"><ele>186.6</ele><time>2026-03-29T13:52:33.561Z</time></trkpt><trkpt lat="44.8933133" lon="1.0629083"><ele>186.4</ele><time>2026-03-29T13:52:34.561Z</time></trkpt><trkpt lat="44.8933817" lon="1.062785"><ele>186.20000000000002</ele><time>2026-03-29T13:52:35.561Z</time></trkpt><trkpt lat="44.89344" lon="1.0626667"><ele>186.0</ele><time>2026-03-29T13:52:36.561Z</time></trkpt><trkpt lat="44.8934983" lon="1.062535"><ele>186.0</ele><time>2026-03-29T13:52:37.561Z</time></trkpt><trkpt lat="44.89355" lon="1.0623817"><ele>186.0</ele><time>2026-03-29T13:52:38.561Z</time></trkpt><trkpt lat="44.893605" lon="1.0622433"><ele>186.0</ele><time>2026-03-29T13:52:39.56Z</time></trkpt><trkpt lat="44.8936483" lon="1.0621117"><ele>186.0</ele><time>2026-03-29T13:52:40.56Z</time></trkpt><trkpt lat="44.8937017" lon="1.0620033"><ele>186.0</ele><time>2026-03-29T13:52:41.561Z</time></trkpt><trkpt lat="44.89376" lon="1.061895"><ele>186.0</ele><time>2026-03-29T13:52:42.561Z</time></trkpt><trkpt lat="44.8938117" lon="1.0617983"><ele>186.0</ele><time>2026-03-29T13:52:43.561Z</time></trkpt><trkpt lat="44.893875" lon="1.0617217"><ele>186.0</ele><time>2026-03-29T13:52:44.561Z</time></trkpt><trkpt lat="44.8939433" lon="1.0616583"><ele>186.0</ele><time>2026-03-29T13:52:45.561Z</time></trkpt><trkpt lat="44.894015" lon="1.061595"><ele>186.0</ele><time>2026-03-29T13:52:46.561Z</time></trkpt><trkpt lat="44.8940967" lon="1.0615433"><ele>186.0</ele><time>2026-03-29T13:52:47.561Z</time></trkpt><trkpt lat="44.89418" lon="1.06149"><ele>185.16666666666666</ele><time>2026-03-29T13:52:48.56Z</time></trkpt><trkpt lat="44.8942683" lon="1.0614383"><ele>184.33333333333334</ele><time>2026-03-29T13:52:49.56Z</time></trkpt><trkpt lat="44.8943417" lon="1.0613783"><ele>183.5</ele><time>2026-03-29T13:52:50.561Z</time></trkpt><trkpt lat="44.8944167" lon="1.0613133"><ele>182.66666666666669</ele><time>2026-03-29T13:52:51.56Z</time></trkpt><trkpt lat="44.8944883" lon="1.0612433"><ele>181.83333333333334</ele><time>2026-03-29T13:52:52.561Z</time></trkpt><trkpt lat="44.8945517" lon="1.0611617"><ele>181.0</ele><time>2026-03-29T13:52:53.56Z</time></trkpt><trkpt lat="44.8946033" lon="1.0610883"><ele>181.0</ele><time>2026-03-29T13:52:54.56Z</time></trkpt><trkpt lat="44.89465" lon="1.0610133"><ele>181.0</ele><time>2026-03-29T13:52:55.56Z</time></trkpt><trkpt lat="44.8946833" lon="1.0609283"><ele>181.0</ele><time>2026-03-29T13:52:56.561Z</time></trkpt><trkpt lat="44.894715" lon="1.06085"><ele>181.0</ele><time>2026-03-29T13:52:57.561Z</time></trkpt><trkpt lat="44.8947483" lon="1.06076"><ele>181.0</ele><time>2026-03-29T13:52:58.561Z</time></trkpt><trkpt lat="44.89479" lon="1.0606733"><ele>181.0</ele><time>2026-03-29T13:52:59.56Z</time></trkpt><trkpt lat="44.8948333" lon="1.060575"><ele>181.0</ele><time>2026-03-29T13:53:00.561Z</time></trkpt><trkpt lat="44.8948783" lon="1.0604833"><ele>181.0</ele><time>2026-03-29T13:53:01.561Z</time></trkpt><trkpt lat="44.8949233" lon="1.0604"><ele>181.0</ele><time>2026-03-29T13:53:02.561Z</time></trkpt><trkpt lat="44.89497" lon="1.0603217"><ele>181.0</ele><time>2026-03-29T13:53:03.56Z</time></trkpt><trkpt lat="44.895025" lon="1.06024"><ele>181.0</ele><time>2026-03-29T13:53:04.56Z</time></trkpt><trkpt lat="44.89512" lon="1.0601333"><ele>181.0</ele><time>2026-03-29T13:53:06.56Z</time></trkpt><trkpt lat="44.8951933" lon="1.060085"><ele>181.0</ele><time>2026-03-29T13:53:08.561Z</time></trkpt><trkpt lat="44.8952517" lon="1.0600417"><ele>180.66666666666669</ele><time>2026-03-29T13:53:10.56Z</time></trkpt><trkpt lat="44.8953117" lon="1.0599933"><ele>180.33333333333334</ele><time>2026-03-29T13:53:12.561Z</time></trkpt><trkpt lat="44.8953833" lon="1.05994"><ele>180.0</ele><time>2026-03-29T13:53:14.561Z</time></trkpt><trkpt lat="44.895465" lon="1.059875"><ele>179.66666666666666</ele><time>2026-03-29T13:53:16.561Z</time></trkpt><trkpt lat="44.8955433" lon="1.0597667"><ele>179.33333333333331</ele><time>2026-03-29T13:53:18.561Z</time></trkpt><trkpt lat="44.8956117" lon="1.0596767"><ele>179.0</ele><time>2026-03-29T13:53:20.561Z</time></trkpt><trkpt lat="44.89568" lon="1.0595883"><ele>179.0</ele><time>2026-03-29T13:53:22.56Z</time></trkpt><trkpt lat="44.8957517" lon="1.0595083"><ele>179.0</ele><time>2026-03-29T13:53:24.561Z</time></trkpt><trkpt lat="44.8958117" lon="1.0594233"><ele>179.0</ele><time>2026-03-29T13:53:26.561Z</time></trkpt><trkpt lat="44.895875" lon="1.059355"><ele>179.0</ele><time>2026-03-29T13:53:28.561Z</time></trkpt><trkpt lat="44.89593" lon="1.0592833"><ele>179.0</ele><time>2026-03-29T13:53:30.561Z</time></trkpt><trkpt lat="44.8959883" lon="1.0592217"><ele>179.0</ele><time>2026-03-29T13:53:32.561Z</time></trkpt><trkpt lat="44.8960433" lon="1.0591733"><ele>178.66666666666666</ele><time>2026-03-29T13:53:34.56Z</time></trkpt><trkpt lat="44.8961" lon="1.0591067"><ele>178.33333333333331</ele><time>2026-03-29T13:53:36.561Z</time></trkpt><trkpt lat="44.8961583" lon="1.059035"><ele>178.0</ele><time>2026-03-29T13:53:38.56Z</time></trkpt><trkpt lat="44.8962333" lon="1.0589733"><ele>177.66666666666666</ele><time>2026-03-29T13:53:40.561Z</time></trkpt><trkpt lat="44.8963167" lon="1.0589117"><ele>177.33333333333334</ele><time>2026-03-29T13:53:42.561Z</time></trkpt><trkpt lat="44.89639" lon="1.0588417"><ele>177.0</ele><time>2026-03-29T13:53:44.56Z</time></trkpt><trkpt lat="44.8964767" lon="1.058745"><ele>177.0</ele><time>2026-03-29T13:53:46.561Z</time></trkpt><trkpt lat="44.8965567" lon="1.0586683"><ele>177.0</ele><time>2026-03-29T13:53:48.56Z</time></trkpt><trkpt lat="44.8966167" lon="1.058605"><ele>177.0</ele><time>2026-03-29T13:53:50.561Z</time></trkpt><trkpt lat="44.89667" lon="1.0585467"><ele>177.0</ele><time>2026-03-29T13:53:53.561Z</time></trkpt><trkpt lat="44.89676" lon="1.0584883"><ele>177.0</ele><time>2026-03-29T13:54:03.56Z</time></trkpt><trkpt lat="44.8968367" lon="1.0585083"><ele>177.0</ele><time>2026-03-29T13:54:06.56Z</time></trkpt><trkpt lat="44.8969633" lon="1.0585033"><ele>176.66666666666666</ele><time>2026-03-29T13:54:08.561Z</time></trkpt><trkpt lat="44.8970417" lon="1.0584817"><ele>176.33333333333334</ele><time>2026-03-29T13:54:09.56Z</time></trkpt><trkpt lat="44.89712" lon="1.05846"><ele>176.0</ele><time>2026-03-29T13:54:10.56Z</time></trkpt><trkpt lat="44.8972017" lon="1.0584367"><ele>175.66666666666669</ele><time>2026-03-29T13:54:11.561Z</time></trkpt><trkpt lat="44.8972717" lon="1.0584017"><ele>175.33333333333334</ele><time>2026-03-29T13:54:12.56Z</time></trkpt><trkpt lat="44.89734" lon="1.058375"><ele>175.0</ele><time>2026-03-29T13:54:13.56Z</time></trkpt><trkpt lat="44.8974083" lon="1.0583433"><ele>175.0</ele><time>2026-03-29T13:54:14.56Z</time></trkpt><trkpt lat="44.8975117" lon="1.0583117"><ele>175.0</ele><time>2026-03-29T13:54:15.561Z</time></trkpt><trkpt lat="44.8976217" lon="1.0582817"><ele>175.0</ele><time>2026-03-29T13:54:16.56Z</time></trkpt><trkpt lat="44.8977233" lon="1.05825"><ele>175.0</ele><time>2026-03-29T13:54:17.56Z</time></trkpt><trkpt lat="44.8978233" lon="1.058215"><ele>175.0</ele><time>2026-03-29T13:54:18.561Z</time></trkpt><trkpt lat="44.8979233" lon="1.0581733"><ele>175.0</ele><time>2026-03-29T13:54:19.561Z</time></trkpt><trkpt lat="44.8980217" lon="1.0581533"><ele>175.0</ele><time>2026-03-29T13:54:20.56Z</time></trkpt><trkpt lat="44.8981167" lon="1.0581283"><ele>175.0</ele><time>2026-03-29T13:54:21.56Z</time></trkpt><trkpt lat="44.8982133" lon="1.05808"><ele>175.0</ele><time>2026-03-29T13:54:22.56Z</time></trkpt><trkpt lat="44.8983217" lon="1.05802"><ele>175.0</ele><time>2026-03-29T13:54:23.56Z</time></trkpt><trkpt lat="44.8984233" lon="1.057965"><ele>174.8</ele><time>2026-03-29T13:54:24.561Z</time></trkpt><trkpt lat="44.8985133" lon="1.057895"><ele>174.6</ele><time>2026-03-29T13:54:25.56Z</time></trkpt><trkpt lat="44.8986133" lon="1.0578283"><ele>174.39999999999998</ele><time>2026-03-29T13:54:26.56Z</time></trkpt><trkpt lat="44.89871" lon="1.0577417"><ele>174.2</ele><time>2026-03-29T13:54:27.56Z</time></trkpt><trkpt lat="44.8987983" lon="1.0576667"><ele>174.0</ele><time>2026-03-29T13:54:28.56Z</time></trkpt><trkpt lat="44.8988933" lon="1.0575967"><ele>174.0</ele><time>2026-03-29T13:54:29.56Z</time></trkpt><trkpt lat="44.8989867" lon="1.057525"><ele>174.0</ele><time>2026-03-29T13:54:30.56Z</time></trkpt><trkpt lat="44.8990817" lon="1.0574467"><ele>174.0</ele><time>2026-03-29T13:54:31.56Z</time></trkpt><trkpt lat="44.8991783" lon="1.057365"><ele>174.0</ele><time>2026-03-29T13:54:32.561Z</time></trkpt><trkpt lat="44.8992783" lon="1.05728"><ele>174.0</ele><time>2026-03-29T13:54:33.561Z</time></trkpt><trkpt lat="44.8993717" lon="1.0571967"><ele>174.75</ele><time>2026-03-29T13:54:34.56Z</time></trkpt><trkpt lat="44.899475" lon="1.0571167"><ele>175.5</ele><time>2026-03-29T13:54:35.561Z</time></trkpt><trkpt lat="44.8995817" lon="1.0570467"><ele>176.25</ele><time>2026-03-29T13:54:36.56Z</time></trkpt><trkpt lat="44.8996933" lon="1.0569867"><ele>177.0</ele><time>2026-03-29T13:54:37.561Z</time></trkpt><trkpt lat="44.8998033" lon="1.056945"><ele>177.0</ele><time>2026-03-29T13:54:38.561Z</time></trkpt><trkpt lat="44.8999183" lon="1.0569083"><ele>177.0</ele><time>2026-03-29T13:54:39.561Z</time></trkpt><trkpt lat="44.9000167" lon="1.05687"><ele>177.0</ele><time>2026-03-29T13:54:40.56Z</time></trkpt><trkpt lat="44.9001117" lon="1.0568"><ele>177.0</ele><time>2026-03-29T13:54:41.561Z</time></trkpt><trkpt lat="44.900175" lon="1.0566983"><ele>177.0</ele><time>2026-03-29T13:54:42.561Z</time></trkpt><trkpt lat="44.9002033" lon="1.056585"><ele>177.83333333333334</ele><time>2026-03-29T13:54:43.561Z</time></trkpt><trkpt lat="44.90021" lon="1.0564667"><ele>178.66666666666666</ele><time>2026-03-29T13:54:44.56Z</time></trkpt><trkpt lat="44.900225" lon="1.0563733"><ele>179.5</ele><time>2026-03-29T13:54:45.561Z</time></trkpt><trkpt lat="44.9003433" lon="1.0563733"><ele>180.33333333333331</ele><time>2026-03-29T13:54:47.56Z</time></trkpt><trkpt lat="44.9004183" lon="1.0564267"><ele>181.16666666666666</ele><time>2026-03-29T13:54:48.561Z</time></trkpt><trkpt lat="44.900495" lon="1.05647"><ele>182.0</ele><time>2026-03-29T13:54:49.561Z</time></trkpt><trkpt lat="44.900575" lon="1.0565"><ele>182.0</ele><time>2026-03-29T13:54:50.56Z</time></trkpt><trkpt lat="44.900655" lon="1.0565167"><ele>182.0</ele><time>2026-03-29T13:54:51.56Z</time></trkpt><trkpt lat="44.90074" lon="1.0565283"><ele>182.0</ele><time>2026-03-29T13:54:52.56Z</time></trkpt><trkpt lat="44.9008267" lon="1.0565483"><ele>182.0</ele><time>2026-03-29T13:54:53.56Z</time></trkpt><trkpt lat="44.9009133" lon="1.056575"><ele>182.0</ele><time>2026-03-29T13:54:54.561Z</time></trkpt><trkpt lat="44.9009983" lon="1.0566067"><ele>182.0</ele><time>2026-03-29T13:54:55.561Z</time></trkpt><trkpt lat="44.9010883" lon="1.0566467"><ele>181.66666666666666</ele><time>2026-03-29T13:54:56.561Z</time></trkpt><trkpt lat="44.901175" lon="1.0566817"><ele>181.33333333333331</ele><time>2026-03-29T13:54:57.561Z</time></trkpt><trkpt lat="44.901265" lon="1.0567233"><ele>181.0</ele><time>2026-03-29T13:54:58.561Z</time></trkpt><trkpt lat="44.9013433" lon="1.0567583"><ele>180.66666666666666</ele><time>2026-03-29T13:54:59.56Z</time></trkpt><trkpt lat="44.9014083" lon="1.0567683"><ele>180.33333333333334</ele><time>2026-03-29T13:55:00.561Z</time></trkpt><trkpt lat="44.90147" lon="1.0567983"><ele>180.0</ele><time>2026-03-29T13:55:02.56Z</time></trkpt><trkpt lat="44.90156" lon="1.05684"><ele>180.0</ele><time>2026-03-29T13:55:12.56Z</time></trkpt><trkpt lat="44.9016283" lon="1.0568067"><ele>180.0</ele><time>2026-03-29T13:55:14.561Z</time></trkpt><trkpt lat="44.90171" lon="1.0566683"><ele>180.0</ele><time>2026-03-29T13:55:16.56Z</time></trkpt><trkpt lat="44.9017383" lon="1.05656"><ele>180.0</ele><time>2026-03-29T13:55:17.56Z</time></trkpt><trkpt lat="44.901765" lon="1.0564383"><ele>180.0</ele><time>2026-03-29T13:55:18.56Z</time></trkpt><trkpt lat="44.9017967" lon="1.0562967"><ele>180.6</ele><time>2026-03-29T13:55:19.561Z</time></trkpt><trkpt lat="44.9018383" lon="1.0561567"><ele>181.2</ele><time>2026-03-29T13:55:20.56Z</time></trkpt><trkpt lat="44.90188" lon="1.0560417"><ele>181.8</ele><time>2026-03-29T13:55:21.561Z</time></trkpt><trkpt lat="44.9019317" lon="1.0559367"><ele>182.4</ele><time>2026-03-29T13:55:22.56Z</time></trkpt><trkpt lat="44.9019833" lon="1.055835"><ele>183.0</ele><time>2026-03-29T13:55:23.561Z</time></trkpt><trkpt lat="44.9020517" lon="1.0557317"><ele>183.2</ele><time>2026-03-29T13:55:24.561Z</time></trkpt><trkpt lat="44.9021233" lon="1.0556367"><ele>183.4</ele><time>2026-03-29T13:55:25.561Z</time></trkpt><trkpt lat="44.9021967" lon="1.0555433"><ele>183.6</ele><time>2026-03-29T13:55:26.561Z</time></trkpt><trkpt lat="44.9022667" lon="1.0554533"><ele>183.79999999999998</ele><time>2026-03-29T13:55:27.561Z</time></trkpt><trkpt lat="44.9023383" lon="1.055345"><ele>184.0</ele><time>2026-03-29T13:55:28.56Z</time></trkpt><trkpt lat="44.90241" lon="1.0552567"><ele>184.0</ele><time>2026-03-29T13:55:29.561Z</time></trkpt><trkpt lat="44.9024867" lon="1.0551783"><ele>184.0</ele><time>2026-03-29T13:55:30.56Z</time></trkpt><trkpt lat="44.9025683" lon="1.0551"><ele>184.0</ele><time>2026-03-29T13:55:31.56Z</time></trkpt><trkpt lat="44.902645" lon="1.05502"><ele>184.0</ele><time>2026-03-29T13:55:32.561Z</time></trkpt><trkpt lat="44.9027233" lon="1.054945"><ele>184.0</ele><time>2026-03-29T13:55:33.561Z</time></trkpt><trkpt lat="44.9027983" lon="1.0548733"><ele>184.0</ele><time>2026-03-29T13:55:34.561Z</time></trkpt><trkpt lat="44.902875" lon="1.0547917"><ele>184.0</ele><time>2026-03-29T13:55:35.561Z</time></trkpt><trkpt lat="44.902955" lon="1.05471"><ele>184.0</ele><time>2026-03-29T13:55:36.56Z</time></trkpt><trkpt lat="44.9030433" lon="1.0546333"><ele>184.0</ele><time>2026-03-29T13:55:37.561Z</time></trkpt><trkpt lat="44.903135" lon="1.0545583"><ele>184.0</ele><time>2026-03-29T13:55:38.561Z</time></trkpt><trkpt lat="44.903225" lon="1.0544717"><ele>184.0</ele><time>2026-03-29T13:55:39.561Z</time></trkpt><trkpt lat="44.903325" lon="1.0544083"><ele>184.0</ele><time>2026-03-29T13:55:40.561Z</time></trkpt><trkpt lat="44.9034217" lon="1.05434"><ele>184.0</ele><time>2026-03-29T13:55:41.561Z</time></trkpt><trkpt lat="44.9035133" lon="1.0542667"><ele>184.0</ele><time>2026-03-29T13:55:42.56Z</time></trkpt><trkpt lat="44.9036233" lon="1.0542"><ele>184.0</ele><time>2026-03-29T13:55:43.561Z</time></trkpt><trkpt lat="44.9037333" lon="1.0541333"><ele>183.25</ele><time>2026-03-29T13:55:44.56Z</time></trkpt><trkpt lat="44.9038433" lon="1.0540567"><ele>182.5</ele><time>2026-03-29T13:55:45.56Z</time></trkpt><trkpt lat="44.9039483" lon="1.0539867"><ele>181.75</ele><time>2026-03-29T13:55:46.561Z</time></trkpt><trkpt lat="44.90405" lon="1.0539117"><ele>181.0</ele><time>2026-03-29T13:55:47.561Z</time></trkpt><trkpt lat="44.9041467" lon="1.0538217"><ele>180.75</ele><time>2026-03-29T13:55:48.561Z</time></trkpt><trkpt lat="44.9042583" lon="1.0537267"><ele>180.5</ele><time>2026-03-29T13:55:49.56Z</time></trkpt><trkpt lat="44.9043567" lon="1.0536067"><ele>180.25</ele><time>2026-03-29T13:55:50.561Z</time></trkpt><trkpt lat="44.9044383" lon="1.0535017"><ele>180.0</ele><time>2026-03-29T13:55:51.56Z</time></trkpt><trkpt lat="44.9045217" lon="1.0533783"><ele>179.5</ele><time>2026-03-29T13:55:52.56Z</time></trkpt><trkpt lat="44.9046033" lon="1.0532633"><ele>179.0</ele><time>2026-03-29T13:55:53.561Z</time></trkpt><trkpt lat="44.90469" lon="1.0531417"><ele>178.5</ele><time>2026-03-29T13:55:54.56Z</time></trkpt><trkpt lat="44.9047733" lon="1.0530283"><ele>178.0</ele><time>2026-03-29T13:55:55.56Z</time></trkpt><trkpt lat="44.904855" lon="1.05292"><ele>178.0</ele><time>2026-03-29T13:55:56.559Z</time></trkpt><trkpt lat="44.9049367" lon="1.0527917"><ele>178.0</ele><time>2026-03-29T13:55:57.56Z</time></trkpt><trkpt lat="44.9050167" lon="1.05267"><ele>178.0</ele><time>2026-03-29T13:55:58.559Z</time></trkpt><trkpt lat="44.9050917" lon="1.0525433"><ele>178.0</ele><time>2026-03-29T13:55:59.56Z</time></trkpt><trkpt lat="44.9051667" lon="1.0524067"><ele>178.75</ele><time>2026-03-29T13:56:00.56Z</time></trkpt><trkpt lat="44.9052433" lon="1.0522733"><ele>179.5</ele><time>2026-03-29T13:56:01.559Z</time></trkpt><trkpt lat="44.9053133" lon="1.05215"><ele>180.25</ele><time>2026-03-29T13:56:02.56Z</time></trkpt><trkpt lat="44.9053833" lon="1.05202"><ele>181.0</ele><time>2026-03-29T13:56:03.559Z</time></trkpt><trkpt lat="44.9054467" lon="1.05189"><ele>181.0</ele><time>2026-03-29T13:56:04.56Z</time></trkpt><trkpt lat="44.9055133" lon="1.05176"><ele>181.0</ele><time>2026-03-29T13:56:05.56Z</time></trkpt><trkpt lat="44.905575" lon="1.051625"><ele>181.0</ele><time>2026-03-29T13:56:06.56Z</time></trkpt><trkpt lat="44.9056367" lon="1.0514817"><ele>181.0</ele><time>2026-03-29T13:56:07.559Z</time></trkpt><trkpt lat="44.9057067" lon="1.0513583"><ele>181.20000000000002</ele><time>2026-03-29T13:56:08.56Z</time></trkpt><trkpt lat="44.90577" lon="1.0512383"><ele>181.4</ele><time>2026-03-29T13:56:09.559Z</time></trkpt><trkpt lat="44.9058267" lon="1.0511217"><ele>181.6</ele><time>2026-03-29T13:56:10.559Z</time></trkpt><trkpt lat="44.90588" lon="1.0509967"><ele>181.8</ele><time>2026-03-29T13:56:11.56Z</time></trkpt><trkpt lat="44.9059333" lon="1.0508817"><ele>182.0</ele><time>2026-03-29T13:56:12.56Z</time></trkpt><trkpt lat="44.9059817" lon="1.05077"><ele>183.83333333333331</ele><time>2026-03-29T13:56:13.559Z</time></trkpt><trkpt lat="44.906025" lon="1.0506617"><ele>185.66666666666666</ele><time>2026-03-29T13:56:14.559Z</time></trkpt><trkpt lat="44.906055" lon="1.0505583"><ele>187.5</ele><time>2026-03-29T13:56:15.56Z</time></trkpt><trkpt lat="44.90608" lon="1.0504683"><ele>189.33333333333331</ele><time>2026-03-29T13:56:16.56Z</time></trkpt><trkpt lat="44.9061133" lon="1.0503317"><ele>191.16666666666666</ele><time>2026-03-29T13:56:18.559Z</time></trkpt><trkpt lat="44.90612" lon="1.05021"><ele>193.0</ele><time>2026-03-29T13:56:21.559Z</time></trkpt><trkpt lat="44.9060733" lon="1.0501333"><ele>193.0</ele><time>2026-03-29T13:56:24.56Z</time></trkpt><trkpt lat="44.906005" lon="1.0500933"><ele>193.0</ele><time>2026-03-29T13:56:25.56Z</time></trkpt><trkpt lat="44.9059233" lon="1.0500433"><ele>193.0</ele><time>2026-03-29T13:56:26.559Z</time></trkpt><trkpt lat="44.9058133" lon="1.049965"><ele>193.0</ele><time>2026-03-29T13:56:27.56Z</time></trkpt><trkpt lat="44.905675" lon="1.0498783"><ele>193.0</ele><time>2026-03-29T13:56:28.56Z</time></trkpt><trkpt lat="44.905535" lon="1.0497867"><ele>195.33333333333331</ele><time>2026-03-29T13:56:29.56Z</time></trkpt><trkpt lat="44.9053917" lon="1.0496917"><ele>197.66666666666669</ele><time>2026-03-29T13:56:30.559Z</time></trkpt><trkpt lat="44.9052383" lon="1.049625"><ele>200.0</ele><time>2026-03-29T13:56:31.56Z</time></trkpt><trkpt lat="44.9051117" lon="1.0495417"><ele>197.5</ele><time>2026-03-29T13:56:32.559Z</time></trkpt><trkpt lat="44.905005" lon="1.0494417"><ele>195.0</ele><time>2026-03-29T13:56:33.56Z</time></trkpt><trkpt lat="44.9049267" lon="1.0493033"><ele>192.5</ele><time>2026-03-29T13:56:34.56Z</time></trkpt><trkpt lat="44.9048717" lon="1.049155"><ele>190.0</ele><time>2026-03-29T13:56:35.56Z</time></trkpt><trkpt lat="44.9048483" lon="1.0489917"><ele>189.75</ele><time>2026-03-29T13:56:36.559Z</time></trkpt><trkpt lat="44.9048367" lon="1.0488283"><ele>189.5</ele><time>2026-03-29T13:56:37.56Z</time></trkpt><trkpt lat="44.9048317" lon="1.0486483"><ele>189.25</ele><time>2026-03-29T13:56:38.559Z</time></trkpt><trkpt lat="44.9048383" lon="1.048445"><ele>189.0</ele><time>2026-03-29T13:56:39.559Z</time></trkpt><trkpt lat="44.9048633" lon="1.04825"><ele>187.25</ele><time>2026-03-29T13:56:40.56Z</time></trkpt><trkpt lat="44.9048817" lon="1.0480783"><ele>185.5</ele><time>2026-03-29T13:56:41.56Z</time></trkpt><trkpt lat="44.9049117" lon="1.0479133"><ele>183.75</ele><time>2026-03-29T13:56:42.56Z</time></trkpt><trkpt lat="44.904935" lon="1.047745"><ele>182.0</ele><time>2026-03-29T13:56:43.559Z</time></trkpt><trkpt lat="44.9049567" lon="1.0476017"><ele>181.0</ele><time>2026-03-29T13:56:44.56Z</time></trkpt><trkpt lat="44.904985" lon="1.0474567"><ele>180.0</ele><time>2026-03-29T13:56:45.56Z</time></trkpt><trkpt lat="44.9050133" lon="1.0473117"><ele>179.0</ele><time>2026-03-29T13:56:46.559Z</time></trkpt><trkpt lat="44.90503" lon="1.047165"><ele>178.0</ele><time>2026-03-29T13:56:47.56Z</time></trkpt><trkpt lat="44.905035" lon="1.04702"><ele>177.0</ele><time>2026-03-29T13:56:48.559Z</time></trkpt><trkpt lat="44.905015" lon="1.0468833"><ele>177.0</ele><time>2026-03-29T13:56:49.559Z</time></trkpt><trkpt lat="44.9049783" lon="1.0467567"><ele>177.0</ele><time>2026-03-29T13:56:50.56Z</time></trkpt><trkpt lat="44.9049133" lon="1.0466367"><ele>177.0</ele><time>2026-03-29T13:56:51.56Z</time></trkpt><trkpt lat="44.9048367" lon="1.0465483"><ele>177.0</ele><time>2026-03-29T13:56:52.56Z</time></trkpt><trkpt lat="44.9047417" lon="1.0464833"><ele>177.0</ele><time>2026-03-29T13:56:53.56Z</time></trkpt><trkpt lat="44.9046383" lon="1.0464283"><ele>178.0</ele><time>2026-03-29T13:56:54.56Z</time></trkpt><trkpt lat="44.9045183" lon="1.0463767"><ele>179.0</ele><time>2026-03-29T13:56:55.56Z</time></trkpt><trkpt lat="44.9044083" lon="1.0463083"><ele>180.0</ele><time>2026-03-29T13:56:56.559Z</time></trkpt><trkpt lat="44.9042883" lon="1.0462583"><ele>181.0</ele><time>2026-03-29T13:56:57.56Z</time></trkpt><trkpt lat="44.90417" lon="1.0462133"><ele>178.0</ele><time>2026-03-29T13:56:58.559Z</time></trkpt><trkpt lat="44.9040467" lon="1.0461733"><ele>175.0</ele><time>2026-03-29T13:56:59.559Z</time></trkpt><trkpt lat="44.9039267" lon="1.0461317"><ele>172.0</ele><time>2026-03-29T13:57:00.56Z</time></trkpt><trkpt lat="44.9038067" lon="1.0461033"><ele>169.0</ele><time>2026-03-29T13:57:01.559Z</time></trkpt><trkpt lat="44.9036817" lon="1.04608"><ele>169.0</ele><time>2026-03-29T13:57:02.56Z</time></trkpt><trkpt lat="44.903555" lon="1.04608"><ele>169.0</ele><time>2026-03-29T13:57:03.559Z</time></trkpt><trkpt lat="44.9034317" lon="1.0460983"><ele>169.0</ele><time>2026-03-29T13:57:04.56Z</time></trkpt><trkpt lat="44.90331" lon="1.0461333"><ele>169.0</ele><time>2026-03-29T13:57:05.56Z</time></trkpt><trkpt lat="44.9031917" lon="1.0461967"><ele>167.75</ele><time>2026-03-29T13:57:06.56Z</time></trkpt><trkpt lat="44.9030617" lon="1.04625"><ele>166.5</ele><time>2026-03-29T13:57:07.559Z</time></trkpt><trkpt lat="44.90291" lon="1.046325"><ele>165.25</ele><time>2026-03-29T13:57:08.56Z</time></trkpt><trkpt lat="44.9027617" lon="1.0463717"><ele>164.0</ele><time>2026-03-29T13:57:09.56Z</time></trkpt><trkpt lat="44.9026183" lon="1.0464383"><ele>164.0</ele><time>2026-03-29T13:57:10.559Z</time></trkpt><trkpt lat="44.9024683" lon="1.0465"><ele>164.0</ele><time>2026-03-29T13:57:11.559Z</time></trkpt><trkpt lat="44.9023267" lon="1.046555"><ele>164.0</ele><time>2026-03-29T13:57:12.559Z</time></trkpt><trkpt lat="44.9021867" lon="1.04662"><ele>165.66666666666666</ele><time>2026-03-29T13:57:13.559Z</time></trkpt><trkpt lat="44.90203" lon="1.0466783"><ele>167.33333333333334</ele><time>2026-03-29T13:57:14.56Z</time></trkpt><trkpt lat="44.901885" lon="1.0467283"><ele>169.0</ele><time>2026-03-29T13:57:15.559Z</time></trkpt><trkpt lat="44.9017283" lon="1.0467867"><ele>169.25</ele><time>2026-03-29T13:57:16.56Z</time></trkpt><trkpt lat="44.9015767" lon="1.0468367"><ele>169.5</ele><time>2026-03-29T13:57:17.56Z</time></trkpt><trkpt lat="44.9014333" lon="1.04689"><ele>169.75</ele><time>2026-03-29T13:57:18.56Z</time></trkpt><trkpt lat="44.9012967" lon="1.046955"><ele>170.0</ele><time>2026-03-29T13:57:19.56Z</time></trkpt><trkpt lat="44.9011533" lon="1.0470383"><ele>170.0</ele><time>2026-03-29T13:57:20.56Z</time></trkpt><trkpt lat="44.901015" lon="1.04712"><ele>170.0</ele><time>2026-03-29T13:57:21.559Z</time></trkpt><trkpt lat="44.90089" lon="1.0471983"><ele>170.0</ele><time>2026-03-29T13:57:22.559Z</time></trkpt><trkpt lat="44.9007683" lon="1.0472667"><ele>170.0</ele><time>2026-03-29T13:57:23.559Z</time></trkpt><trkpt lat="44.9006283" lon="1.0473467"><ele>170.25</ele><time>2026-03-29T13:57:24.559Z</time></trkpt><trkpt lat="44.9004883" lon="1.0474133"><ele>170.5</ele><time>2026-03-29T13:57:25.559Z</time></trkpt><trkpt lat="44.900355" lon="1.0474717"><ele>170.75</ele><time>2026-03-29T13:57:26.559Z</time></trkpt><trkpt lat="44.900215" lon="1.04751"><ele>171.0</ele><time>2026-03-29T13:57:27.56Z</time></trkpt><trkpt lat="44.90006" lon="1.047545"><ele>172.25</ele><time>2026-03-29T13:57:28.559Z</time></trkpt><trkpt lat="44.899915" lon="1.047545"><ele>173.5</ele><time>2026-03-29T13:57:29.56Z</time></trkpt><trkpt lat="44.8997883" lon="1.0475317"><ele>174.75</ele><time>2026-03-29T13:57:30.559Z</time></trkpt><trkpt lat="44.89965" lon="1.0475267"><ele>176.0</ele><time>2026-03-29T13:57:31.56Z</time></trkpt><trkpt lat="44.8995017" lon="1.04755"><ele>176.0</ele><time>2026-03-29T13:57:32.559Z</time></trkpt><trkpt lat="44.8993667" lon="1.04759"><ele>176.0</ele><time>2026-03-29T13:57:33.559Z</time></trkpt><trkpt lat="44.8992" lon="1.0476433"><ele>176.0</ele><time>2026-03-29T13:57:34.559Z</time></trkpt><trkpt lat="44.8990567" lon="1.0476983"><ele>176.25</ele><time>2026-03-29T13:57:35.56Z</time></trkpt><trkpt lat="44.8989167" lon="1.04775"><ele>176.5</ele><time>2026-03-29T13:57:36.559Z</time></trkpt><trkpt lat="44.8987817" lon="1.0478"><ele>176.75</ele><time>2026-03-29T13:57:37.56Z</time></trkpt><trkpt lat="44.8986417" lon="1.04785"><ele>177.0</ele><time>2026-03-29T13:57:38.56Z</time></trkpt><trkpt lat="44.8985067" lon="1.0478967"><ele>177.25</ele><time>2026-03-29T13:57:39.56Z</time></trkpt><trkpt lat="44.8983767" lon="1.0479383"><ele>177.5</ele><time>2026-03-29T13:57:40.56Z</time></trkpt><trkpt lat="44.8982467" lon="1.047975"><ele>177.75</ele><time>2026-03-29T13:57:41.559Z</time></trkpt><trkpt lat="44.8981233" lon="1.0480033"><ele>178.0</ele><time>2026-03-29T13:57:42.559Z</time></trkpt><trkpt lat="44.8980083" lon="1.048025"><ele>178.0</ele><time>2026-03-29T13:57:43.56Z</time></trkpt><trkpt lat="44.8979117" lon="1.048035"><ele>178.0</ele><time>2026-03-29T13:57:44.56Z</time></trkpt><trkpt lat="44.8978233" lon="1.0480483"><ele>178.0</ele><time>2026-03-29T13:57:45.559Z</time></trkpt><trkpt lat="44.897735" lon="1.0480417"><ele>178.0</ele><time>2026-03-29T13:57:46.56Z</time></trkpt><trkpt lat="44.89765" lon="1.0480383"><ele>178.0</ele><time>2026-03-29T13:57:47.56Z</time></trkpt><trkpt lat="44.8975683" lon="1.04804"><ele>178.0</ele><time>2026-03-29T13:57:48.56Z</time></trkpt><trkpt lat="44.8974933" lon="1.048055"><ele>178.2</ele><time>2026-03-29T13:57:49.56Z</time></trkpt><trkpt lat="44.8973717" lon="1.0480733"><ele>178.4</ele><time>2026-03-29T13:57:51.559Z</time></trkpt><trkpt lat="44.8973067" lon="1.0480667"><ele>178.6</ele><time>2026-03-29T13:57:52.56Z</time></trkpt><trkpt lat="44.897255" lon="1.047975"><ele>178.79999999999998</ele><time>2026-03-29T13:57:54.559Z</time></trkpt><trkpt lat="44.8972783" lon="1.0477867"><ele>179.0</ele><time>2026-03-29T13:57:56.559Z</time></trkpt><trkpt lat="44.8972933" lon="1.0476533"><ele>179.0</ele><time>2026-03-29T13:57:57.559Z</time></trkpt><trkpt lat="44.89731" lon="1.0474983"><ele>179.0</ele><time>2026-03-29T13:57:58.559Z</time></trkpt><trkpt lat="44.8973083" lon="1.0473417"><ele>179.0</ele><time>2026-03-29T13:57:59.56Z</time></trkpt><trkpt lat="44.8973167" lon="1.04718"><ele>179.0</ele><time>2026-03-29T13:58:00.559Z</time></trkpt><trkpt lat="44.8973283" lon="1.047015"><ele>179.16666666666666</ele><time>2026-03-29T13:58:01.559Z</time></trkpt><trkpt lat="44.8973333" lon="1.0468667"><ele>179.33333333333331</ele><time>2026-03-29T13:58:02.559Z</time></trkpt><trkpt lat="44.897325" lon="1.0467317"><ele>179.5</ele><time>2026-03-29T13:58:03.559Z</time></trkpt><trkpt lat="44.89732" lon="1.0466017"><ele>179.66666666666666</ele><time>2026-03-29T13:58:04.559Z</time></trkpt><trkpt lat="44.8973217" lon="1.0464883"><ele>179.83333333333334</ele><time>2026-03-29T13:58:05.559Z</time></trkpt><trkpt lat="44.8973267" lon="1.0463817"><ele>180.0</ele><time>2026-03-29T13:58:06.559Z</time></trkpt><trkpt lat="44.8973233" lon="1.04628"><ele>180.8</ele><time>2026-03-29T13:58:07.559Z</time></trkpt><trkpt lat="44.8973167" lon="1.046175"><ele>181.6</ele><time>2026-03-29T13:58:08.56Z</time></trkpt><trkpt lat="44.89731" lon="1.0460233"><ele>182.39999999999998</ele><time>2026-03-29T13:58:09.56Z</time></trkpt><trkpt lat="44.897295" lon="1.045885"><ele>183.2</ele><time>2026-03-29T13:58:10.56Z</time></trkpt><trkpt lat="44.8972817" lon="1.0457483"><ele>184.0</ele><time>2026-03-29T13:58:11.559Z</time></trkpt><trkpt lat="44.8972517" lon="1.0456083"><ele>184.5</ele><time>2026-03-29T13:58:12.56Z</time></trkpt><trkpt lat="44.897225" lon="1.04545"><ele>185.0</ele><time>2026-03-29T13:58:13.559Z</time></trkpt><trkpt lat="44.8972067" lon="1.0452917"><ele>185.5</ele><time>2026-03-29T13:58:14.559Z</time></trkpt><trkpt lat="44.8971933" lon="1.0451367"><ele>186.0</ele><time>2026-03-29T13:58:15.56Z</time></trkpt><trkpt lat="44.8971867" lon="1.0449733"><ele>186.5</ele><time>2026-03-29T13:58:16.559Z</time></trkpt><trkpt lat="44.897205" lon="1.0448033"><ele>187.0</ele><time>2026-03-29T13:58:17.559Z</time></trkpt><trkpt lat="44.8972067" lon="1.0446467"><ele>187.5</ele><time>2026-03-29T13:58:18.56Z</time></trkpt><trkpt lat="44.8971983" lon="1.044495"><ele>188.0</ele><time>2026-03-29T13:58:19.56Z</time></trkpt><trkpt lat="44.8972" lon="1.044335"><ele>188.0</ele><time>2026-03-29T13:58:20.559Z</time></trkpt><trkpt lat="44.8972017" lon="1.0441867"><ele>188.0</ele><time>2026-03-29T13:58:21.56Z</time></trkpt><trkpt lat="44.8972183" lon="1.0440617"><ele>188.0</ele><time>2026-03-29T13:58:22.56Z</time></trkpt><trkpt lat="44.8972717" lon="1.0439783"><ele>188.0</ele><time>2026-03-29T13:58:23.559Z</time></trkpt><trkpt lat="44.8973433" lon="1.04393"><ele>188.0</ele><time>2026-03-29T13:58:24.56Z</time></trkpt><trkpt lat="44.897425" lon="1.04388"><ele>188.0</ele><time>2026-03-29T13:58:25.56Z</time></trkpt><trkpt lat="44.8975083" lon="1.0437817"><ele>188.25</ele><time>2026-03-29T13:58:26.559Z</time></trkpt><trkpt lat="44.897585" lon="1.0436567"><ele>188.5</ele><time>2026-03-29T13:58:27.559Z</time></trkpt><trkpt lat="44.8976633" lon="1.0434917"><ele>188.75</ele><time>2026-03-29T13:58:28.559Z</time></trkpt><trkpt lat="44.8977333" lon="1.04332"><ele>189.0</ele><time>2026-03-29T13:58:29.559Z</time></trkpt><trkpt lat="44.8977983" lon="1.0431617"><ele>190.5</ele><time>2026-03-29T13:58:30.559Z</time></trkpt><trkpt lat="44.897865" lon="1.0430033"><ele>192.0</ele><time>2026-03-29T13:58:31.559Z</time></trkpt><trkpt lat="44.89793" lon="1.0428733"><ele>193.5</ele><time>2026-03-29T13:58:32.56Z</time></trkpt><trkpt lat="44.8979983" lon="1.0427633"><ele>195.0</ele><time>2026-03-29T13:58:33.559Z</time></trkpt><trkpt lat="44.89808" lon="1.04266"><ele>195.0</ele><time>2026-03-29T13:58:34.56Z</time></trkpt><trkpt lat="44.8981633" lon="1.0425567"><ele>195.0</ele><time>2026-03-29T13:58:35.56Z</time></trkpt><trkpt lat="44.8982467" lon="1.0424567"><ele>195.0</ele><time>2026-03-29T13:58:36.56Z</time></trkpt><trkpt lat="44.8983317" lon="1.0423617"><ele>195.0</ele><time>2026-03-29T13:58:37.56Z</time></trkpt><trkpt lat="44.8984167" lon="1.0422733"><ele>195.0</ele><time>2026-03-29T13:58:38.559Z</time></trkpt><trkpt lat="44.8985017" lon="1.0421967"><ele>194.0</ele><time>2026-03-29T13:58:39.559Z</time></trkpt><trkpt lat="44.8985817" lon="1.0421083"><ele>193.0</ele><time>2026-03-29T13:58:40.559Z</time></trkpt><trkpt lat="44.89865" lon="1.0420217"><ele>192.0</ele><time>2026-03-29T13:58:41.559Z</time></trkpt><trkpt lat="44.8987183" lon="1.0419533"><ele>191.0</ele><time>2026-03-29T13:58:42.559Z</time></trkpt><trkpt lat="44.89879" lon="1.0418867"><ele>190.0</ele><time>2026-03-29T13:58:43.559Z</time></trkpt><trkpt lat="44.898865" lon="1.0418167"><ele>190.0</ele><time>2026-03-29T13:58:44.559Z</time></trkpt><trkpt lat="44.898935" lon="1.04174"><ele>190.0</ele><time>2026-03-29T13:58:45.559Z</time></trkpt><trkpt lat="44.8990083" lon="1.0416583"><ele>190.0</ele><time>2026-03-29T13:58:46.559Z</time></trkpt><trkpt lat="44.8990933" lon="1.0415933"><ele>190.0</ele><time>2026-03-29T13:58:47.559Z</time></trkpt><trkpt lat="44.8991767" lon="1.04153"><ele>190.0</ele><time>2026-03-29T13:58:48.559Z</time></trkpt><trkpt lat="44.8992567" lon="1.04147"><ele>189.0</ele><time>2026-03-29T13:58:49.56Z</time></trkpt><trkpt lat="44.89932" lon="1.0414133"><ele>188.0</ele><time>2026-03-29T13:58:50.56Z</time></trkpt><trkpt lat="44.8993817" lon="1.0413667"><ele>187.0</ele><time>2026-03-29T13:58:51.559Z</time></trkpt><trkpt lat="44.8994467" lon="1.0413083"><ele>186.0</ele><time>2026-03-29T13:58:52.56Z</time></trkpt><trkpt lat="44.8995017" lon="1.0412583"><ele>185.0</ele><time>2026-03-29T13:58:53.559Z</time></trkpt><trkpt lat="44.89963" lon="1.04122"><ele>184.0</ele><time>2026-03-29T13:58:55.559Z</time></trkpt><trkpt lat="44.899715" lon="1.0412217"><ele>184.0</ele><time>2026-03-29T13:58:56.559Z</time></trkpt><trkpt lat="44.8998083" lon="1.04123"><ele>184.0</ele><time>2026-03-29T13:58:57.56Z</time></trkpt><trkpt lat="44.89991" lon="1.04124"><ele>184.0</ele><time>2026-03-29T13:58:58.56Z</time></trkpt><trkpt lat="44.9000183" lon="1.041255"><ele>184.0</ele><time>2026-03-29T13:58:59.559Z</time></trkpt><trkpt lat="44.9001183" lon="1.04127"><ele>184.0</ele><time>2026-03-29T13:59:00.56Z</time></trkpt><trkpt lat="44.9002167" lon="1.041285"><ele>183.39999999999998</ele><time>2026-03-29T13:59:01.559Z</time></trkpt><trkpt lat="44.9003233" lon="1.0413"><ele>182.8</ele><time>2026-03-29T13:59:02.559Z</time></trkpt><trkpt lat="44.9004233" lon="1.0413167"><ele>182.2</ele><time>2026-03-29T13:59:03.559Z</time></trkpt><trkpt lat="44.90052" lon="1.04133"><ele>181.60000000000002</ele><time>2026-03-29T13:59:04.559Z</time></trkpt><trkpt lat="44.9006217" lon="1.0413367"><ele>181.0</ele><time>2026-03-29T13:59:05.559Z</time></trkpt><trkpt lat="44.9007133" lon="1.0413567"><ele>181.0</ele><time>2026-03-29T13:59:06.559Z</time></trkpt><trkpt lat="44.9008017" lon="1.0413867"><ele>181.0</ele><time>2026-03-29T13:59:07.56Z</time></trkpt><trkpt lat="44.9008833" lon="1.0414133"><ele>181.0</ele><time>2026-03-29T13:59:08.559Z</time></trkpt><trkpt lat="44.9009567" lon="1.0414433"><ele>181.0</ele><time>2026-03-29T13:59:09.559Z</time></trkpt><trkpt lat="44.90102" lon="1.0414683"><ele>181.0</ele><time>2026-03-29T13:59:10.559Z</time></trkpt><trkpt lat="44.9010983" lon="1.0414983"><ele>181.0</ele><time>2026-03-29T13:59:12.559Z</time></trkpt><trkpt lat="44.9011617" lon="1.0415367"><ele>180.5</ele><time>2026-03-29T13:59:14.559Z</time></trkpt><trkpt lat="44.9012283" lon="1.0415483"><ele>180.0</ele><time>2026-03-29T13:59:16.559Z</time></trkpt><trkpt lat="44.901325" lon="1.041555"><ele>179.5</ele><time>2026-03-29T13:59:18.559Z</time></trkpt><trkpt lat="44.9013967" lon="1.0414933"><ele>179.0</ele><time>2026-03-29T13:59:20.56Z</time></trkpt><trkpt lat="44.90146" lon="1.0414167"><ele>178.5</ele><time>2026-03-29T13:59:22.56Z</time></trkpt><trkpt lat="44.9015283" lon="1.041395"><ele>178.0</ele><time>2026-03-29T13:59:24.56Z</time></trkpt><trkpt lat="44.901625" lon="1.04141"><ele>178.0</ele><time>2026-03-29T13:59:26.56Z</time></trkpt><trkpt lat="44.90169" lon="1.0414083"><ele>178.0</ele><time>2026-03-29T13:59:27.559Z</time></trkpt><trkpt lat="44.9017767" lon="1.0414033"><ele>178.0</ele><time>2026-03-29T13:59:29.559Z</time></trkpt><trkpt lat="44.9018483" lon="1.0413983"><ele>178.0</ele><time>2026-03-29T13:59:31.559Z</time></trkpt><trkpt lat="44.901935" lon="1.0414367"><ele>178.0</ele><time>2026-03-29T13:59:34.56Z</time></trkpt><trkpt lat="44.9019967" lon="1.0414833"><ele>178.0</ele><time>2026-03-29T13:59:36.559Z</time></trkpt><trkpt lat="44.9020633" lon="1.041525"><ele>176.99999999999997</ele><time>2026-03-29T13:59:38.56Z</time></trkpt><trkpt lat="44.9021467" lon="1.0415283"><ele>176.0</ele><time>2026-03-29T13:59:40.559Z</time></trkpt><trkpt lat="44.9022233" lon="1.0415233"><ele>175.0</ele><time>2026-03-29T13:59:42.56Z</time></trkpt><trkpt lat="44.9023" lon="1.04155"><ele>174.0</ele><time>2026-03-29T13:59:44.56Z</time></trkpt><trkpt lat="44.9023683" lon="1.041575"><ele>173.0</ele><time>2026-03-29T13:59:47.56Z</time></trkpt><trkpt lat="44.9024233" lon="1.0416283"><ele>171.99999999999997</ele><time>2026-03-29T13:59:52.56Z</time></trkpt><trkpt lat="44.90248" lon="1.0415817"><ele>171.0</ele><time>2026-03-29T13:59:56.56Z</time></trkpt><trkpt lat="44.902515" lon="1.041475"><ele>169.20000000000002</ele><time>2026-03-29T13:59:58.56Z</time></trkpt><trkpt lat="44.9025833" lon="1.04132"><ele>167.4</ele><time>2026-03-29T14:00:00.56Z</time></trkpt><trkpt lat="44.902665" lon="1.0411567"><ele>165.6</ele><time>2026-03-29T14:00:02.559Z</time></trkpt><trkpt lat="44.9027033" lon="1.0410817"><ele>163.8</ele><time>2026-03-29T14:00:03.559Z</time></trkpt><trkpt lat="44.902755" lon="1.041005"><ele>162.0</ele><time>2026-03-29T14:00:04.559Z</time></trkpt><trkpt lat="44.9028133" lon="1.0409283"><ele>162.0</ele><time>2026-03-29T14:00:05.559Z</time></trkpt><trkpt lat="44.90288" lon="1.0408533"><ele>162.0</ele><time>2026-03-29T14:00:06.559Z</time></trkpt><trkpt lat="44.90295" lon="1.040795"><ele>162.0</ele><time>2026-03-29T14:00:07.559Z</time></trkpt><trkpt lat="44.9030317" lon="1.0407467"><ele>162.0</ele><time>2026-03-29T14:00:08.558Z</time></trkpt><trkpt lat="44.9031167" lon="1.0407233"><ele>162.0</ele><time>2026-03-29T14:00:09.558Z</time></trkpt><trkpt lat="44.903215" lon="1.0407083"><ele>162.0</ele><time>2026-03-29T14:00:10.558Z</time></trkpt><trkpt lat="44.903315" lon="1.0406983"><ele>160.0</ele><time>2026-03-29T14:00:11.558Z</time></trkpt><trkpt lat="44.9034367" lon="1.0406767"><ele>158.0</ele><time>2026-03-29T14:00:12.559Z</time></trkpt><trkpt lat="44.9035717" lon="1.04067"><ele>156.0</ele><time>2026-03-29T14:00:13.558Z</time></trkpt><trkpt lat="44.9036983" lon="1.0406717"><ele>154.0</ele><time>2026-03-29T14:00:14.559Z</time></trkpt><trkpt lat="44.9038033" lon="1.0406717"><ele>154.0</ele><time>2026-03-29T14:00:15.559Z</time></trkpt><trkpt lat="44.90391" lon="1.04066"><ele>154.0</ele><time>2026-03-29T14:00:16.559Z</time></trkpt><trkpt lat="44.9040083" lon="1.0406433"><ele>154.0</ele><time>2026-03-29T14:00:17.559Z</time></trkpt><trkpt lat="44.9041217" lon="1.0406533"><ele>154.0</ele><time>2026-03-29T14:00:19.558Z</time></trkpt><trkpt lat="44.904205" lon="1.0406533"><ele>154.0</ele><time>2026-03-29T14:00:21.558Z</time></trkpt><trkpt lat="44.904295" lon="1.04065"><ele>155.5</ele><time>2026-03-29T14:00:24.558Z</time></trkpt><trkpt lat="44.9043633" lon="1.04066"><ele>157.0</ele><time>2026-03-29T14:00:31.558Z</time></trkpt><trkpt lat="44.9044283" lon="1.0406817"><ele>158.5</ele><time>2026-03-29T14:00:33.558Z</time></trkpt><trkpt lat="44.90453" lon="1.0406983"><ele>160.0</ele><time>2026-03-29T14:00:35.559Z</time></trkpt><trkpt lat="44.9046067" lon="1.0407217"><ele>161.5</ele><time>2026-03-29T14:00:37.558Z</time></trkpt><trkpt lat="44.9046867" lon="1.040735"><ele>163.0</ele><time>2026-03-29T14:00:39.559Z</time></trkpt><trkpt lat="44.904765" lon="1.0407467"><ele>163.0</ele><time>2026-03-29T14:00:41.558Z</time></trkpt><trkpt lat="44.9048533" lon="1.040745"><ele>163.0</ele><time>2026-03-29T14:00:44.558Z</time></trkpt><trkpt lat="44.9049267" lon="1.0407383"><ele>163.0</ele><time>2026-03-29T14:00:47.559Z</time></trkpt><trkpt lat="44.90499" lon="1.0407367"><ele>163.0</ele><time>2026-03-29T14:00:49.558Z</time></trkpt><trkpt lat="44.9050717" lon="1.040705"><ele>163.0</ele><time>2026-03-29T14:00:52.558Z</time></trkpt><trkpt lat="44.9051317" lon="1.0406633"><ele>163.0</ele><time>2026-03-29T14:00:54.558Z</time></trkpt><trkpt lat="44.9051917" lon="1.0406167"><ele>163.0</ele><time>2026-03-29T14:00:56.559Z</time></trkpt><trkpt lat="44.9052483" lon="1.0405767"><ele>166.33333333333334</ele><time>2026-03-29T14:00:58.559Z</time></trkpt><trkpt lat="44.9053017" lon="1.0405167"><ele>169.66666666666669</ele><time>2026-03-29T14:01:00.559Z</time></trkpt><trkpt lat="44.905365" lon="1.0404467"><ele>173.0</ele><time>2026-03-29T14:01:04.559Z</time></trkpt><trkpt lat="44.905435" lon="1.0404083"><ele>176.33333333333334</ele><time>2026-03-29T14:01:08.558Z</time></trkpt><trkpt lat="44.9055067" lon="1.0403683"><ele>179.66666666666666</ele><time>2026-03-29T14:01:11.558Z</time></trkpt><trkpt lat="44.9055817" lon="1.040315"><ele>183.0</ele><time>2026-03-29T14:01:15.558Z</time></trkpt><trkpt lat="44.905645" lon="1.0402567"><ele>183.0</ele><time>2026-03-29T14:01:18.559Z</time></trkpt><trkpt lat="44.9056883" lon="1.0401683"><ele>183.0</ele><time>2026-03-29T14:01:21.558Z</time></trkpt><trkpt lat="44.9057417" lon="1.0400867"><ele>183.0</ele><time>2026-03-29T14:01:24.558Z</time></trkpt><trkpt lat="44.9058017" lon="1.0400367"><ele>183.0</ele><time>2026-03-29T14:01:26.559Z</time></trkpt><trkpt lat="44.90587" lon="1.0399683"><ele>183.0</ele><time>2026-03-29T14:01:29.558Z</time></trkpt><trkpt lat="44.9059483" lon="1.0398967"><ele>183.0</ele><time>2026-03-29T14:01:31.558Z</time></trkpt><trkpt lat="44.9060133" lon="1.0398333"><ele>184.5</ele><time>2026-03-29T14:01:33.558Z</time></trkpt><trkpt lat="44.906075" lon="1.0397783"><ele>186.0</ele><time>2026-03-29T14:01:35.558Z</time></trkpt><trkpt lat="44.9061433" lon="1.0397283"><ele>187.5</ele><time>2026-03-29T14:01:37.559Z</time></trkpt><trkpt lat="44.9062217" lon="1.0396733"><ele>189.0</ele><time>2026-03-29T14:01:40.558Z</time></trkpt><trkpt lat="44.906285" lon="1.0396333"><ele>190.5</ele><time>2026-03-29T14:01:42.559Z</time></trkpt><trkpt lat="44.9063483" lon="1.0396017"><ele>192.0</ele><time>2026-03-29T14:01:44.558Z</time></trkpt><trkpt lat="44.9064183" lon="1.03956"><ele>192.0</ele><time>2026-03-29T14:01:47.559Z</time></trkpt><trkpt lat="44.9065" lon="1.0395117"><ele>192.0</ele><time>2026-03-29T14:01:50.558Z</time></trkpt><trkpt lat="44.9066517" lon="1.0394067"><ele>192.0</ele><time>2026-03-29T14:02:01.558Z</time></trkpt><trkpt lat="44.9067283" lon="1.0392867"><ele>192.0</ele><time>2026-03-29T14:02:03.558Z</time></trkpt><trkpt lat="44.9067683" lon="1.0391933"><ele>192.0</ele><time>2026-03-29T14:02:04.558Z</time></trkpt><trkpt lat="44.90681" lon="1.03908"><ele>191.8</ele><time>2026-03-29T14:02:05.558Z</time></trkpt><trkpt lat="44.9068583" lon="1.038965"><ele>191.6</ele><time>2026-03-29T14:02:06.558Z</time></trkpt><trkpt lat="44.906905" lon="1.03885"><ele>191.4</ele><time>2026-03-29T14:02:07.558Z</time></trkpt><trkpt lat="44.9069433" lon="1.0387283"><ele>191.20000000000002</ele><time>2026-03-29T14:02:08.559Z</time></trkpt><trkpt lat="44.9069883" lon="1.0386317"><ele>191.0</ele><time>2026-03-29T14:02:09.558Z</time></trkpt><trkpt lat="44.90703" lon="1.0385267"><ele>191.0</ele><time>2026-03-29T14:02:10.559Z</time></trkpt><trkpt lat="44.9070617" lon="1.038405"><ele>191.0</ele><time>2026-03-29T14:02:11.558Z</time></trkpt><trkpt lat="44.9070883" lon="1.0382567"><ele>191.0</ele><time>2026-03-29T14:02:12.558Z</time></trkpt><trkpt lat="44.907095" lon="1.0381117"><ele>191.0</ele><time>2026-03-29T14:02:13.558Z</time></trkpt><trkpt lat="44.9070883" lon="1.0379717"><ele>191.0</ele><time>2026-03-29T14:02:14.558Z</time></trkpt><trkpt lat="44.9070867" lon="1.0378317"><ele>192.60000000000002</ele><time>2026-03-29T14:02:15.558Z</time></trkpt><trkpt lat="44.9070783" lon="1.037685"><ele>194.2</ele><time>2026-03-29T14:02:16.558Z</time></trkpt><trkpt lat="44.9070683" lon="1.037545"><ele>195.8</ele><time>2026-03-29T14:02:17.559Z</time></trkpt><trkpt lat="44.9070583" lon="1.0374067"><ele>197.39999999999998</ele><time>2026-03-29T14:02:18.558Z</time></trkpt><trkpt lat="44.9070367" lon="1.0372783"><ele>199.0</ele><time>2026-03-29T14:02:19.559Z</time></trkpt><trkpt lat="44.9070233" lon="1.0371617"><ele>199.99999999999997</ele><time>2026-03-29T14:02:20.558Z</time></trkpt><trkpt lat="44.9070183" lon="1.0370533"><ele>201.0</ele><time>2026-03-29T14:02:21.558Z</time></trkpt><trkpt lat="44.9070017" lon="1.03696"><ele>202.0</ele><time>2026-03-29T14:02:22.559Z</time></trkpt><trkpt lat="44.9069683" lon="1.0368583"><ele>203.0</ele><time>2026-03-29T14:02:23.558Z</time></trkpt><trkpt lat="44.9069333" lon="1.0367467"><ele>203.99999999999997</ele><time>2026-03-29T14:02:24.559Z</time></trkpt><trkpt lat="44.9069083" lon="1.0366333"><ele>205.0</ele><time>2026-03-29T14:02:25.559Z</time></trkpt><trkpt lat="44.906875" lon="1.036515"><ele>205.16666666666666</ele><time>2026-03-29T14:02:26.559Z</time></trkpt><trkpt lat="44.90683" lon="1.0364017"><ele>205.33333333333331</ele><time>2026-03-29T14:02:27.559Z</time></trkpt><trkpt lat="44.9067833" lon="1.0362917"><ele>205.5</ele><time>2026-03-29T14:02:28.559Z</time></trkpt><trkpt lat="44.9067583" lon="1.0361917"><ele>205.66666666666669</ele><time>2026-03-29T14:02:29.558Z</time></trkpt><trkpt lat="44.9067317" lon="1.0360917"><ele>205.83333333333334</ele><time>2026-03-29T14:02:30.558Z</time></trkpt><trkpt lat="44.9067083" lon="1.0359983"><ele>206.0</ele><time>2026-03-29T14:02:31.559Z</time></trkpt><trkpt lat="44.9066833" lon="1.0358233"><ele>206.00000000000003</ele><time>2026-03-29T14:02:33.559Z</time></trkpt><trkpt lat="44.9066683" lon="1.0357283"><ele>206.0</ele><time>2026-03-29T14:02:34.558Z</time></trkpt><trkpt lat="44.906645" lon="1.03562"><ele>206.0</ele><time>2026-03-29T14:02:35.558Z</time></trkpt><trkpt lat="44.90662" lon="1.0355233"><ele>206.0</ele><time>2026-03-29T14:02:36.558Z</time></trkpt><trkpt lat="44.9066017" lon="1.0354033"><ele>206.00000000000003</ele><time>2026-03-29T14:02:37.559Z</time></trkpt><trkpt lat="44.9065667" lon="1.03529"><ele>206.0</ele><time>2026-03-29T14:02:38.559Z</time></trkpt><trkpt lat="44.9065333" lon="1.03516"><ele>206.0</ele><time>2026-03-29T14:02:39.558Z</time></trkpt><trkpt lat="44.90651" lon="1.035"><ele>206.0</ele><time>2026-03-29T14:02:40.559Z</time></trkpt><trkpt lat="44.906495" lon="1.0348183"><ele>206.0</ele><time>2026-03-29T14:02:41.558Z</time></trkpt><trkpt lat="44.9065017" lon="1.0346267"><ele>206.0</ele><time>2026-03-29T14:02:42.559Z</time></trkpt><trkpt lat="44.9064833" lon="1.03443"><ele>205.0</ele><time>2026-03-29T14:02:43.558Z</time></trkpt><trkpt lat="44.9064667" lon="1.03423"><ele>204.0</ele><time>2026-03-29T14:02:44.558Z</time></trkpt><trkpt lat="44.9064517" lon="1.034025"><ele>203.0</ele><time>2026-03-29T14:02:45.559Z</time></trkpt><trkpt lat="44.90644" lon="1.0338483"><ele>202.0</ele><time>2026-03-29T14:02:46.558Z</time></trkpt><trkpt lat="44.9064283" lon="1.03369"><ele>201.83333333333331</ele><time>2026-03-29T14:02:47.558Z</time></trkpt><trkpt lat="44.9064033" lon="1.03355"><ele>201.66666666666666</ele><time>2026-03-29T14:02:48.558Z</time></trkpt><trkpt lat="44.906385" lon="1.0334367"><ele>201.5</ele><time>2026-03-29T14:02:49.559Z</time></trkpt><trkpt lat="44.9063717" lon="1.033345"><ele>201.33333333333331</ele><time>2026-03-29T14:02:50.558Z</time></trkpt><trkpt lat="44.9063833" lon="1.0332483"><ele>201.16666666666666</ele><time>2026-03-29T14:02:52.559Z</time></trkpt><trkpt lat="44.9064667" lon="1.033265"><ele>201.0</ele><time>2026-03-29T14:02:54.558Z</time></trkpt><trkpt lat="44.9065267" lon="1.0333267"><ele>201.0</ele><time>2026-03-29T14:02:55.559Z</time></trkpt><trkpt lat="44.906605" lon="1.033425"><ele>201.0</ele><time>2026-03-29T14:02:56.558Z</time></trkpt><trkpt lat="44.9066717" lon="1.0334917"><ele>201.0</ele><time>2026-03-29T14:02:57.558Z</time></trkpt><trkpt lat="44.9067717" lon="1.0335617"><ele>201.0</ele><time>2026-03-29T14:02:58.558Z</time></trkpt><trkpt lat="44.9068817" lon="1.0336083"><ele>201.0</ele><time>2026-03-29T14:02:59.558Z</time></trkpt><trkpt lat="44.90698" lon="1.0336333"><ele>198.60000000000002</ele><time>2026-03-29T14:03:00.559Z</time></trkpt><trkpt lat="44.9070617" lon="1.0335883"><ele>196.2</ele><time>2026-03-29T14:03:02.558Z</time></trkpt><trkpt lat="44.9071183" lon="1.03348"><ele>193.8</ele><time>2026-03-29T14:03:04.558Z</time></trkpt><trkpt lat="44.9071683" lon="1.03334"><ele>191.39999999999998</ele><time>2026-03-29T14:03:06.558Z</time></trkpt><trkpt lat="44.9072" lon="1.0332617"><ele>189.0</ele><time>2026-03-29T14:03:07.559Z</time></trkpt><trkpt lat="44.9072283" lon="1.0331367"><ele>188.5</ele><time>2026-03-29T14:03:08.558Z</time></trkpt><trkpt lat="44.907255" lon="1.0330217"><ele>188.0</ele><time>2026-03-29T14:03:09.559Z</time></trkpt><trkpt lat="44.9072867" lon="1.0329233"><ele>187.5</ele><time>2026-03-29T14:03:10.558Z</time></trkpt><trkpt lat="44.9073183" lon="1.032845"><ele>187.0</ele><time>2026-03-29T14:03:11.559Z</time></trkpt><trkpt lat="44.907375" lon="1.0327333"><ele>186.5</ele><time>2026-03-29T14:03:13.559Z</time></trkpt><trkpt lat="44.9074667" lon="1.0327183"><ele>186.0</ele><time>2026-03-29T14:03:15.559Z</time></trkpt><trkpt lat="44.90755" lon="1.0328067"><ele>186.66666666666666</ele><time>2026-03-29T14:03:17.558Z</time></trkpt><trkpt lat="44.9075983" lon="1.03288"><ele>187.33333333333334</ele><time>2026-03-29T14:03:18.559Z</time></trkpt><trkpt lat="44.90766" lon="1.03296"><ele>188.0</ele><time>2026-03-29T14:03:19.558Z</time></trkpt><trkpt lat="44.9077433" lon="1.0330283"><ele>188.66666666666669</ele><time>2026-03-29T14:03:20.558Z</time></trkpt><trkpt lat="44.9078067" lon="1.03308"><ele>189.33333333333334</ele><time>2026-03-29T14:03:21.559Z</time></trkpt><trkpt lat="44.90789" lon="1.0331217"><ele>190.0</ele><time>2026-03-29T14:03:22.559Z</time></trkpt><trkpt lat="44.9079833" lon="1.0331517"><ele>190.0</ele><time>2026-03-29T14:03:23.558Z</time></trkpt><trkpt lat="44.9080733" lon="1.033205"><ele>190.0</ele><time>2026-03-29T14:03:24.558Z</time></trkpt><trkpt lat="44.90816" lon="1.03324"><ele>190.0</ele><time>2026-03-29T14:03:25.558Z</time></trkpt><trkpt lat="44.90823" lon="1.0332783"><ele>190.0</ele><time>2026-03-29T14:03:26.559Z</time></trkpt><trkpt lat="44.90831" lon="1.0333417"><ele>190.0</ele><time>2026-03-29T14:03:27.559Z</time></trkpt><trkpt lat="44.90839" lon="1.0333933"><ele>190.0</ele><time>2026-03-29T14:03:28.559Z</time></trkpt><trkpt lat="44.9084817" lon="1.033435"><ele>187.8</ele><time>2026-03-29T14:03:29.558Z</time></trkpt><trkpt lat="44.90857" lon="1.0334717"><ele>185.6</ele><time>2026-03-29T14:03:30.559Z</time></trkpt><trkpt lat="44.90866" lon="1.03352"><ele>183.39999999999998</ele><time>2026-03-29T14:03:31.558Z</time></trkpt><trkpt lat="44.9087483" lon="1.033565"><ele>181.2</ele><time>2026-03-29T14:03:32.558Z</time></trkpt><trkpt lat="44.908835" lon="1.033615"><ele>179.0</ele><time>2026-03-29T14:03:33.559Z</time></trkpt><trkpt lat="44.908915" lon="1.03368"><ele>179.0</ele><time>2026-03-29T14:03:34.559Z</time></trkpt><trkpt lat="44.9089883" lon="1.0337217"><ele>179.0</ele><time>2026-03-29T14:03:35.559Z</time></trkpt><trkpt lat="44.9091" lon="1.0337517"><ele>179.0</ele><time>2026-03-29T14:03:37.559Z</time></trkpt><trkpt lat="44.9091733" lon="1.0337667"><ele>179.0</ele><time>2026-03-29T14:03:38.558Z</time></trkpt><trkpt lat="44.909245" lon="1.0337867"><ele>179.0</ele><time>2026-03-29T14:03:39.558Z</time></trkpt><trkpt lat="44.909315" lon="1.0338117"><ele>179.0</ele><time>2026-03-29T14:03:40.559Z</time></trkpt><trkpt lat="44.9093917" lon="1.0338383"><ele>177.66666666666666</ele><time>2026-03-29T14:03:41.558Z</time></trkpt><trkpt lat="44.909465" lon="1.0338683"><ele>176.33333333333331</ele><time>2026-03-29T14:03:42.559Z</time></trkpt><trkpt lat="44.90954" lon="1.0338983"><ele>175.0</ele><time>2026-03-29T14:03:43.559Z</time></trkpt><trkpt lat="44.9096167" lon="1.0339183"><ele>173.66666666666666</ele><time>2026-03-29T14:03:44.558Z</time></trkpt><trkpt lat="44.9096883" lon="1.0339167"><ele>172.33333333333334</ele><time>2026-03-29T14:03:45.559Z</time></trkpt><trkpt lat="44.9097667" lon="1.0339133"><ele>171.0</ele><time>2026-03-29T14:03:46.559Z</time></trkpt><trkpt lat="44.9098467" lon="1.03394"><ele>171.0</ele><time>2026-03-29T14:03:47.559Z</time></trkpt><trkpt lat="44.9099283" lon="1.0339867"><ele>171.0</ele><time>2026-03-29T14:03:48.558Z</time></trkpt><trkpt lat="44.9100017" lon="1.0340417"><ele>171.0</ele><time>2026-03-29T14:03:49.559Z</time></trkpt><trkpt lat="44.91007" lon="1.0340917"><ele>171.0</ele><time>2026-03-29T14:03:50.558Z</time></trkpt><trkpt lat="44.910145" lon="1.0341217"><ele>171.0</ele><time>2026-03-29T14:03:51.559Z</time></trkpt><trkpt lat="44.910215" lon="1.0341367"><ele>171.0</ele><time>2026-03-29T14:03:52.558Z</time></trkpt><trkpt lat="44.9103367" lon="1.0341017"><ele>168.0</ele><time>2026-03-29T14:03:54.559Z</time></trkpt><trkpt lat="44.9104183" lon="1.0340617"><ele>165.0</ele><time>2026-03-29T14:03:57.558Z</time></trkpt><trkpt lat="44.9105333" lon="1.034065"><ele>162.0</ele><time>2026-03-29T14:03:59.559Z</time></trkpt><trkpt lat="44.9106083" lon="1.034065"><ele>159.0</ele><time>2026-03-29T14:04:00.558Z</time></trkpt><trkpt lat="44.910675" lon="1.0340733"><ele>156.0</ele><time>2026-03-29T14:04:01.559Z</time></trkpt><trkpt lat="44.9107833" lon="1.034065"><ele>156.0</ele><time>2026-03-29T14:04:03.559Z</time></trkpt><trkpt lat="44.9108633" lon="1.0340517"><ele>156.0</ele><time>2026-03-29T14:04:05.559Z</time></trkpt><trkpt lat="44.9109767" lon="1.034015"><ele>156.0</ele><time>2026-03-29T14:04:07.557Z</time></trkpt><trkpt lat="44.9110767" lon="1.03399"><ele>156.0</ele><time>2026-03-29T14:04:09.557Z</time></trkpt><trkpt lat="44.9111417" lon="1.0339483"><ele>156.0</ele><time>2026-03-29T14:04:12.558Z</time></trkpt><trkpt lat="44.9111733" lon="1.0338383"><ele>155.6</ele><time>2026-03-29T14:04:14.557Z</time></trkpt><trkpt lat="44.9111567" lon="1.0336733"><ele>155.2</ele><time>2026-03-29T14:04:16.558Z</time></trkpt><trkpt lat="44.9111367" lon="1.03356"><ele>154.8</ele><time>2026-03-29T14:04:17.558Z</time></trkpt><trkpt lat="44.9111" lon="1.03342"><ele>154.4</ele><time>2026-03-29T14:04:18.557Z</time></trkpt><trkpt lat="44.9110583" lon="1.033295"><ele>154.0</ele><time>2026-03-29T14:04:19.558Z</time></trkpt><trkpt lat="44.9110133" lon="1.03318"><ele>154.0</ele><time>2026-03-29T14:04:20.557Z</time></trkpt><trkpt lat="44.91097" lon="1.033055"><ele>154.0</ele><time>2026-03-29T14:04:21.557Z</time></trkpt><trkpt lat="44.910935" lon="1.0329217"><ele>154.0</ele><time>2026-03-29T14:04:22.557Z</time></trkpt><trkpt lat="44.91093" lon="1.03276"><ele>154.0</ele><time>2026-03-29T14:04:23.558Z</time></trkpt><trkpt lat="44.910955" lon="1.032615"><ele>154.0</ele><time>2026-03-29T14:04:24.558Z</time></trkpt><trkpt lat="44.9110317" lon="1.0324767"><ele>155.25</ele><time>2026-03-29T14:04:25.558Z</time></trkpt><trkpt lat="44.91114" lon="1.03232"><ele>156.5</ele><time>2026-03-29T14:04:26.557Z</time></trkpt><trkpt lat="44.9112367" lon="1.0321667"><ele>157.75</ele><time>2026-03-29T14:04:27.558Z</time></trkpt><trkpt lat="44.9113333" lon="1.032015"><ele>159.0</ele><time>2026-03-29T14:04:28.557Z</time></trkpt><trkpt lat="44.9114217" lon="1.0318717"><ele>159.0</ele><time>2026-03-29T14:04:29.558Z</time></trkpt><trkpt lat="44.91152" lon="1.0317417"><ele>159.0</ele><time>2026-03-29T14:04:30.558Z</time></trkpt><trkpt lat="44.911615" lon="1.031615"><ele>159.0</ele><time>2026-03-29T14:04:31.558Z</time></trkpt><trkpt lat="44.9117383" lon="1.0314867"><ele>159.0</ele><time>2026-03-29T14:04:32.558Z</time></trkpt><trkpt lat="44.9118483" lon="1.0313917"><ele>158.6</ele><time>2026-03-29T14:04:33.558Z</time></trkpt><trkpt lat="44.911955" lon="1.0313333"><ele>158.2</ele><time>2026-03-29T14:04:34.557Z</time></trkpt><trkpt lat="44.912055" lon="1.0312783"><ele>157.79999999999998</ele><time>2026-03-29T14:04:35.558Z</time></trkpt><trkpt lat="44.9121667" lon="1.0312417"><ele>157.4</ele><time>2026-03-29T14:04:36.557Z</time></trkpt><trkpt lat="44.9122717" lon="1.03121"><ele>157.0</ele><time>2026-03-29T14:04:37.558Z</time></trkpt><trkpt lat="44.91237" lon="1.0311817"><ele>157.0</ele><time>2026-03-29T14:04:38.557Z</time></trkpt><trkpt lat="44.912465" lon="1.0311617"><ele>157.0</ele><time>2026-03-29T14:04:39.557Z</time></trkpt><trkpt lat="44.9125717" lon="1.0311517"><ele>157.0</ele><time>2026-03-29T14:04:40.558Z</time></trkpt><trkpt lat="44.9126767" lon="1.03114"><ele>157.0</ele><time>2026-03-29T14:04:41.558Z</time></trkpt><trkpt lat="44.912785" lon="1.03111"><ele>157.0</ele><time>2026-03-29T14:04:42.557Z</time></trkpt><trkpt lat="44.91288" lon="1.0310883"><ele>155.79999999999998</ele><time>2026-03-29T14:04:43.558Z</time></trkpt><trkpt lat="44.9129867" lon="1.0310883"><ele>154.6</ele><time>2026-03-29T14:04:44.557Z</time></trkpt><trkpt lat="44.91309" lon="1.0310967"><ele>153.39999999999998</ele><time>2026-03-29T14:04:45.558Z</time></trkpt><trkpt lat="44.9132" lon="1.03112"><ele>152.2</ele><time>2026-03-29T14:04:46.558Z</time></trkpt><trkpt lat="44.9133067" lon="1.0311617"><ele>151.0</ele><time>2026-03-29T14:04:47.558Z</time></trkpt><trkpt lat="44.9134017" lon="1.0312433"><ele>151.2</ele><time>2026-03-29T14:04:48.558Z</time></trkpt><trkpt lat="44.913505" lon="1.0313317"><ele>151.39999999999998</ele><time>2026-03-29T14:04:49.558Z</time></trkpt><trkpt lat="44.91359" lon="1.0314233"><ele>151.6</ele><time>2026-03-29T14:04:50.558Z</time></trkpt><trkpt lat="44.9136717" lon="1.03151"><ele>151.79999999999998</ele><time>2026-03-29T14:04:51.557Z</time></trkpt><trkpt lat="44.91377" lon="1.0315967"><ele>152.0</ele><time>2026-03-29T14:04:52.558Z</time></trkpt><trkpt lat="44.9138567" lon="1.0316833"><ele>151.2</ele><time>2026-03-29T14:04:53.558Z</time></trkpt><trkpt lat="44.9139383" lon="1.031795"><ele>150.39999999999998</ele><time>2026-03-29T14:04:54.557Z</time></trkpt><trkpt lat="44.914015" lon="1.031875"><ele>149.60000000000002</ele><time>2026-03-29T14:04:55.558Z</time></trkpt><trkpt lat="44.9141017" lon="1.0319283"><ele>148.8</ele><time>2026-03-29T14:04:56.558Z</time></trkpt><trkpt lat="44.9141767" lon="1.0319717"><ele>148.0</ele><time>2026-03-29T14:04:57.558Z</time></trkpt><trkpt lat="44.9142683" lon="1.0319883"><ele>147.5</ele><time>2026-03-29T14:04:58.558Z</time></trkpt><trkpt lat="44.9143383" lon="1.0320133"><ele>147.0</ele><time>2026-03-29T14:04:59.557Z</time></trkpt><trkpt lat="44.9144067" lon="1.0320317"><ele>146.5</ele><time>2026-03-29T14:05:00.557Z</time></trkpt><trkpt lat="44.91448" lon="1.0320417"><ele>146.0</ele><time>2026-03-29T14:05:01.558Z</time></trkpt><trkpt lat="44.9145633" lon="1.032025"><ele>145.5</ele><time>2026-03-29T14:05:02.557Z</time></trkpt><trkpt lat="44.9146733" lon="1.0319717"><ele>145.0</ele><time>2026-03-29T14:05:03.557Z</time></trkpt><trkpt lat="44.91478" lon="1.0319083"><ele>145.0</ele><time>2026-03-29T14:05:04.558Z</time></trkpt><trkpt lat="44.9148667" lon="1.0318633"><ele>145.0</ele><time>2026-03-29T14:05:05.557Z</time></trkpt><trkpt lat="44.9149567" lon="1.0318167"><ele>145.0</ele><time>2026-03-29T14:05:06.557Z</time></trkpt><trkpt lat="44.915055" lon="1.0317633"><ele>145.0</ele><time>2026-03-29T14:05:07.557Z</time></trkpt><trkpt lat="44.91515" lon="1.03172"><ele>145.0</ele><time>2026-03-29T14:05:08.558Z</time></trkpt><trkpt lat="44.9152567" lon="1.031665"><ele>144.0</ele><time>2026-03-29T14:05:09.558Z</time></trkpt><trkpt lat="44.9153817" lon="1.0316217"><ele>143.0</ele><time>2026-03-29T14:05:10.558Z</time></trkpt><trkpt lat="44.9155083" lon="1.03158"><ele>142.0</ele><time>2026-03-29T14:05:11.557Z</time></trkpt><trkpt lat="44.9156117" lon="1.031535"><ele>141.0</ele><time>2026-03-29T14:05:12.557Z</time></trkpt><trkpt lat="44.91572" lon="1.03149"><ele>141.0</ele><time>2026-03-29T14:05:13.557Z</time></trkpt><trkpt lat="44.9158033" lon="1.031445"><ele>141.0</ele><time>2026-03-29T14:05:14.558Z</time></trkpt><trkpt lat="44.915885" lon="1.031385"><ele>141.0</ele><time>2026-03-29T14:05:15.558Z</time></trkpt><trkpt lat="44.9159583" lon="1.0313183"><ele>141.0</ele><time>2026-03-29T14:05:16.558Z</time></trkpt><trkpt lat="44.9160267" lon="1.0312333"><ele>141.0</ele><time>2026-03-29T14:05:17.557Z</time></trkpt><trkpt lat="44.9160933" lon="1.0311383"><ele>139.8</ele><time>2026-03-29T14:05:18.557Z</time></trkpt><trkpt lat="44.9161633" lon="1.0310267"><ele>138.6</ele><time>2026-03-29T14:05:19.557Z</time></trkpt><trkpt lat="44.9162167" lon="1.03091"><ele>137.4</ele><time>2026-03-29T14:05:20.557Z</time></trkpt><trkpt lat="44.9162617" lon="1.0307567"><ele>136.2</ele><time>2026-03-29T14:05:21.557Z</time></trkpt><trkpt lat="44.91629" lon="1.0305967"><ele>135.0</ele><time>2026-03-29T14:05:22.557Z</time></trkpt><trkpt lat="44.91631" lon="1.0304183"><ele>135.0</ele><time>2026-03-29T14:05:23.558Z</time></trkpt><trkpt lat="44.916315" lon="1.030285"><ele>135.0</ele><time>2026-03-29T14:05:24.557Z</time></trkpt><trkpt lat="44.9163233" lon="1.0301733"><ele>135.0</ele><time>2026-03-29T14:05:25.557Z</time></trkpt><trkpt lat="44.9163383" lon="1.0300733"><ele>135.0</ele><time>2026-03-29T14:05:26.558Z</time></trkpt><trkpt lat="44.91635" lon="1.0299833"><ele>135.0</ele><time>2026-03-29T14:05:27.558Z</time></trkpt><trkpt lat="44.916465" lon="1.029875"><ele>135.0</ele><time>2026-03-29T14:05:29.557Z</time></trkpt><trkpt lat="44.916555" lon="1.02982"><ele>136.0</ele><time>2026-03-29T14:05:30.558Z</time></trkpt><trkpt lat="44.9166817" lon="1.0297583"><ele>137.0</ele><time>2026-03-29T14:05:31.557Z</time></trkpt><trkpt lat="44.91682" lon="1.0296933"><ele>138.0</ele><time>2026-03-29T14:05:32.557Z</time></trkpt><trkpt lat="44.9169567" lon="1.0296267"><ele>139.0</ele><time>2026-03-29T14:05:33.557Z</time></trkpt><trkpt lat="44.9170967" lon="1.02956"><ele>140.4</ele><time>2026-03-29T14:05:34.557Z</time></trkpt><trkpt lat="44.9172" lon="1.029495"><ele>141.8</ele><time>2026-03-29T14:05:35.557Z</time></trkpt><trkpt lat="44.917305" lon="1.0294433"><ele>143.2</ele><time>2026-03-29T14:05:36.558Z</time></trkpt><trkpt lat="44.917395" lon="1.0294033"><ele>144.6</ele><time>2026-03-29T14:05:37.558Z</time></trkpt><trkpt lat="44.917485" lon="1.0293733"><ele>146.0</ele><time>2026-03-29T14:05:38.557Z</time></trkpt><trkpt lat="44.9175667" lon="1.0293667"><ele>147.16666666666666</ele><time>2026-03-29T14:05:39.557Z</time></trkpt><trkpt lat="44.9176317" lon="1.0293883"><ele>148.33333333333331</ele><time>2026-03-29T14:05:40.558Z</time></trkpt><trkpt lat="44.9176717" lon="1.0295217"><ele>149.5</ele><time>2026-03-29T14:05:42.557Z</time></trkpt><trkpt lat="44.9176417" lon="1.0297083"><ele>150.66666666666666</ele><time>2026-03-29T14:05:44.557Z</time></trkpt><trkpt lat="44.91764" lon="1.0298033"><ele>151.83333333333334</ele><time>2026-03-29T14:05:45.558Z</time></trkpt><trkpt lat="44.91762" lon="1.0299067"><ele>153.0</ele><time>2026-03-29T14:05:46.558Z</time></trkpt><trkpt lat="44.9175983" lon="1.0300167"><ele>151.0</ele><time>2026-03-29T14:05:47.558Z</time></trkpt><trkpt lat="44.9175683" lon="1.0301317"><ele>149.0</ele><time>2026-03-29T14:05:48.558Z</time></trkpt><trkpt lat="44.9175467" lon="1.0302633"><ele>147.0</ele><time>2026-03-29T14:05:49.557Z</time></trkpt><trkpt lat="44.917535" lon="1.030385"><ele>145.0</ele><time>2026-03-29T14:05:50.557Z</time></trkpt><trkpt lat="44.9175133" lon="1.0305067"><ele>143.0</ele><time>2026-03-29T14:05:51.557Z</time></trkpt><trkpt lat="44.9174883" lon="1.030625"><ele>141.0</ele><time>2026-03-29T14:05:52.558Z</time></trkpt><trkpt lat="44.9174567" lon="1.03073"><ele>141.57142857142858</ele><time>2026-03-29T14:05:53.558Z</time></trkpt><trkpt lat="44.9174233" lon="1.0308083"><ele>142.14285714285714</ele><time>2026-03-29T14:05:54.558Z</time></trkpt><trkpt lat="44.9173833" lon="1.0308983"><ele>142.71428571428572</ele><time>2026-03-29T14:05:55.557Z</time></trkpt><trkpt lat="44.9173433" lon="1.0309933"><ele>143.28571428571428</ele><time>2026-03-29T14:05:56.557Z</time></trkpt><trkpt lat="44.9173083" lon="1.0310783"><ele>143.85714285714286</ele><time>2026-03-29T14:05:57.557Z</time></trkpt><trkpt lat="44.9172417" lon="1.0311417"><ele>144.42857142857144</ele><time>2026-03-29T14:05:58.557Z</time></trkpt><trkpt lat="44.917175" lon="1.031195"><ele>145.0</ele><time>2026-03-29T14:05:59.558Z</time></trkpt><trkpt lat="44.917125" lon="1.0312967"><ele>145.0</ele><time>2026-03-29T14:06:01.557Z</time></trkpt><trkpt lat="44.9170683" lon="1.0313833"><ele>145.0</ele><time>2026-03-29T14:06:03.557Z</time></trkpt><trkpt lat="44.9170317" lon="1.0314783"><ele>145.0</ele><time>2026-03-29T14:06:06.558Z</time></trkpt><trkpt lat="44.9170117" lon="1.0315783"><ele>145.0</ele><time>2026-03-29T14:06:09.557Z</time></trkpt><trkpt lat="44.917015" lon="1.0317033"><ele>145.0</ele><time>2026-03-29T14:06:11.557Z</time></trkpt><trkpt lat="44.91704" lon="1.031905"><ele>145.6</ele><time>2026-03-29T14:06:26.558Z</time></trkpt><trkpt lat="44.9170683" lon="1.032015"><ele>146.2</ele><time>2026-03-29T14:06:28.558Z</time></trkpt><trkpt lat="44.917155" lon="1.0320867"><ele>146.8</ele><time>2026-03-29T14:06:45.558Z</time></trkpt><trkpt lat="44.9171167" lon="1.0319983"><ele>147.4</ele><time>2026-03-29T14:06:49.558Z</time></trkpt><trkpt lat="44.9170867" lon="1.0318983"><ele>148.0</ele><time>2026-03-29T14:06:51.558Z</time></trkpt><trkpt lat="44.9169883" lon="1.0317983"><ele>148.0</ele><time>2026-03-29T14:06:53.558Z</time></trkpt><trkpt lat="44.9169017" lon="1.0317883"><ele>148.0</ele><time>2026-03-29T14:06:55.557Z</time></trkpt><trkpt lat="44.91681" lon="1.0318567"><ele>148.0</ele><time>2026-03-29T14:06:57.557Z</time></trkpt><trkpt lat="44.9167333" lon="1.0319383"><ele>148.0</ele><time>2026-03-29T14:06:59.558Z</time></trkpt><trkpt lat="44.91669" lon="1.0320567"><ele>148.0</ele><time>2026-03-29T14:07:01.557Z</time></trkpt><trkpt lat="44.9166883" lon="1.0322233"><ele>148.8</ele><time>2026-03-29T14:07:03.557Z</time></trkpt><trkpt lat="44.9167" lon="1.03237"><ele>149.60000000000002</ele><time>2026-03-29T14:07:05.558Z</time></trkpt><trkpt lat="44.91674" lon="1.0324783"><ele>150.39999999999998</ele><time>2026-03-29T14:07:07.558Z</time></trkpt><trkpt lat="44.9167983" lon="1.032615"><ele>151.2</ele><time>2026-03-29T14:07:09.557Z</time></trkpt><trkpt lat="44.91684" lon="1.032705"><ele>152.0</ele><time>2026-03-29T14:07:10.558Z</time></trkpt><trkpt lat="44.9168833" lon="1.0328033"><ele>152.0</ele><time>2026-03-29T14:07:11.558Z</time></trkpt><trkpt lat="44.916935" lon="1.0329017"><ele>152.0</ele><time>2026-03-29T14:07:12.557Z</time></trkpt><trkpt lat="44.9169867" lon="1.0329867"><ele>152.0</ele><time>2026-03-29T14:07:13.557Z</time></trkpt><trkpt lat="44.9170583" lon="1.0330667"><ele>152.0</ele><time>2026-03-29T14:07:14.557Z</time></trkpt><trkpt lat="44.9171217" lon="1.0331433"><ele>152.0</ele><time>2026-03-29T14:07:15.558Z</time></trkpt><trkpt lat="44.9171583" lon="1.0332267"><ele>152.0</ele><time>2026-03-29T14:07:16.558Z</time></trkpt><trkpt lat="44.9171933" lon="1.033315"><ele>153.33333333333331</ele><time>2026-03-29T14:07:17.557Z</time></trkpt><trkpt lat="44.917215" lon="1.033405"><ele>154.66666666666666</ele><time>2026-03-29T14:07:18.558Z</time></trkpt><trkpt lat="44.9172467" lon="1.0334933"><ele>156.0</ele><time>2026-03-29T14:07:19.558Z</time></trkpt><trkpt lat="44.9172783" lon="1.03359"><ele>157.33333333333334</ele><time>2026-03-29T14:07:20.558Z</time></trkpt><trkpt lat="44.917305" lon="1.0336767"><ele>158.66666666666669</ele><time>2026-03-29T14:07:21.558Z</time></trkpt><trkpt lat="44.9173433" lon="1.03383"><ele>160.0</ele><time>2026-03-29T14:07:23.558Z</time></trkpt><trkpt lat="44.9173483" lon="1.033925"><ele>160.0</ele><time>2026-03-29T14:07:24.557Z</time></trkpt><trkpt lat="44.917345" lon="1.0340817"><ele>160.0</ele><time>2026-03-29T14:07:26.557Z</time></trkpt><trkpt lat="44.9173117" lon="1.03424"><ele>160.0</ele><time>2026-03-29T14:07:28.558Z</time></trkpt><trkpt lat="44.9172367" lon="1.0343717"><ele>160.0</ele><time>2026-03-29T14:07:30.557Z</time></trkpt><trkpt lat="44.91719" lon="1.0344383"><ele>160.0</ele><time>2026-03-29T14:07:31.557Z</time></trkpt><trkpt lat="44.9171333" lon="1.0345267"><ele>161.5</ele><time>2026-03-29T14:07:32.557Z</time></trkpt><trkpt lat="44.9170533" lon="1.034595"><ele>163.0</ele><time>2026-03-29T14:07:33.557Z</time></trkpt><trkpt lat="44.9169783" lon="1.034655"><ele>164.5</ele><time>2026-03-29T14:07:34.558Z</time></trkpt><trkpt lat="44.9169167" lon="1.034695"><ele>166.0</ele><time>2026-03-29T14:07:35.558Z</time></trkpt><trkpt lat="44.9168633" lon="1.0347433"><ele>167.5</ele><time>2026-03-29T14:07:36.557Z</time></trkpt><trkpt lat="44.9167983" lon="1.0347883"><ele>169.0</ele><time>2026-03-29T14:07:37.558Z</time></trkpt><trkpt lat="44.916725" lon="1.0348417"><ele>169.0</ele><time>2026-03-29T14:07:38.558Z</time></trkpt><trkpt lat="44.91664" lon="1.0348717"><ele>169.0</ele><time>2026-03-29T14:07:39.558Z</time></trkpt><trkpt lat="44.9165633" lon="1.03488"><ele>169.0</ele><time>2026-03-29T14:07:40.558Z</time></trkpt><trkpt lat="44.9164767" lon="1.034865"><ele>169.0</ele><time>2026-03-29T14:07:41.558Z</time></trkpt><trkpt lat="44.9164067" lon="1.0348433"><ele>169.0</ele><time>2026-03-29T14:07:42.558Z</time></trkpt><trkpt lat="44.9163333" lon="1.0348133"><ele>169.0</ele><time>2026-03-29T14:07:43.557Z</time></trkpt><trkpt lat="44.91626" lon="1.0347917"><ele>169.0</ele><time>2026-03-29T14:07:44.557Z</time></trkpt><trkpt lat="44.9161817" lon="1.03478"><ele>169.0</ele><time>2026-03-29T14:07:45.557Z</time></trkpt><trkpt lat="44.9161033" lon="1.0347833"><ele>169.0</ele><time>2026-03-29T14:07:46.558Z</time></trkpt><trkpt lat="44.9160083" lon="1.034785"><ele>169.0</ele><time>2026-03-29T14:07:47.557Z</time></trkpt><trkpt lat="44.915905" lon="1.034795"><ele>169.0</ele><time>2026-03-29T14:07:48.557Z</time></trkpt><trkpt lat="44.915815" lon="1.0348067"><ele>169.0</ele><time>2026-03-29T14:07:49.558Z</time></trkpt><trkpt lat="44.915725" lon="1.0348167"><ele>169.33333333333334</ele><time>2026-03-29T14:07:50.557Z</time></trkpt><trkpt lat="44.9156183" lon="1.0348767"><ele>169.66666666666669</ele><time>2026-03-29T14:07:52.557Z</time></trkpt><trkpt lat="44.9155533" lon="1.0348933"><ele>170.0</ele><time>2026-03-29T14:07:53.557Z</time></trkpt><trkpt lat="44.915475" lon="1.0348917"><ele>170.33333333333334</ele><time>2026-03-29T14:07:54.557Z</time></trkpt><trkpt lat="44.9154117" lon="1.0349067"><ele>170.66666666666666</ele><time>2026-03-29T14:07:55.558Z</time></trkpt><trkpt lat="44.9153433" lon="1.0349133"><ele>171.0</ele><time>2026-03-29T14:07:56.558Z</time></trkpt><trkpt lat="44.91528" lon="1.0349133"><ele>171.0</ele><time>2026-03-29T14:07:57.557Z</time></trkpt><trkpt lat="44.9152117" lon="1.0349333"><ele>171.0</ele><time>2026-03-29T14:07:58.557Z</time></trkpt><trkpt lat="44.91513" lon="1.0349583"><ele>171.0</ele><time>2026-03-29T14:07:59.557Z</time></trkpt><trkpt lat="44.9150583" lon="1.0349867"><ele>171.0</ele><time>2026-03-29T14:08:00.557Z</time></trkpt><trkpt lat="44.914985" lon="1.0350167"><ele>171.0</ele><time>2026-03-29T14:08:01.557Z</time></trkpt><trkpt lat="44.9149167" lon="1.035035"><ele>171.0</ele><time>2026-03-29T14:08:02.557Z</time></trkpt><trkpt lat="44.9148" lon="1.03501"><ele>174.20000000000002</ele><time>2026-03-29T14:08:03.557Z</time></trkpt><trkpt lat="44.914695" lon="1.03504"><ele>177.4</ele><time>2026-03-29T14:08:05.558Z</time></trkpt><trkpt lat="44.9145733" lon="1.0350967"><ele>180.6</ele><time>2026-03-29T14:08:07.558Z</time></trkpt><trkpt lat="44.914505" lon="1.0351233"><ele>183.8</ele><time>2026-03-29T14:08:08.557Z</time></trkpt><trkpt lat="44.9144233" lon="1.0351467"><ele>187.0</ele><time>2026-03-29T14:08:09.557Z</time></trkpt><trkpt lat="44.9143333" lon="1.035145"><ele>185.8</ele><time>2026-03-29T14:08:10.556Z</time></trkpt><trkpt lat="44.9142133" lon="1.03516"><ele>184.6</ele><time>2026-03-29T14:08:12.557Z</time></trkpt><trkpt lat="44.914105" lon="1.0351683"><ele>183.4</ele><time>2026-03-29T14:08:14.557Z</time></trkpt><trkpt lat="44.91403" lon="1.0352367"><ele>182.20000000000002</ele><time>2026-03-29T14:08:16.557Z</time></trkpt><trkpt lat="44.913985" lon="1.0353583"><ele>181.0</ele><time>2026-03-29T14:08:18.557Z</time></trkpt><trkpt lat="44.9139583" lon="1.0354483"><ele>181.0</ele><time>2026-03-29T14:08:22.556Z</time></trkpt><trkpt lat="44.91395" lon="1.0355383"><ele>181.0</ele><time>2026-03-29T14:08:25.556Z</time></trkpt><trkpt lat="44.913965" lon="1.035635"><ele>181.0</ele><time>2026-03-29T14:08:28.556Z</time></trkpt><trkpt lat="44.913955" lon="1.03573"><ele>181.0</ele><time>2026-03-29T14:08:30.557Z</time></trkpt><trkpt lat="44.9139133" lon="1.0358267"><ele>181.0</ele><time>2026-03-29T14:08:34.557Z</time></trkpt><trkpt lat="44.9138533" lon="1.0359017"><ele>181.0</ele><time>2026-03-29T14:08:38.557Z</time></trkpt><trkpt lat="44.91381" lon="1.0359867"><ele>181.0</ele><time>2026-03-29T14:08:41.556Z</time></trkpt><trkpt lat="44.9137483" lon="1.03606"><ele>181.33333333333334</ele><time>2026-03-29T14:08:44.557Z</time></trkpt><trkpt lat="44.9136833" lon="1.0361133"><ele>181.66666666666669</ele><time>2026-03-29T14:08:46.557Z</time></trkpt><trkpt lat="44.9135633" lon="1.0361367"><ele>182.0</ele><time>2026-03-29T14:08:48.557Z</time></trkpt><trkpt lat="44.9134933" lon="1.0361367"><ele>182.33333333333334</ele><time>2026-03-29T14:08:49.557Z</time></trkpt><trkpt lat="44.9134117" lon="1.0361133"><ele>182.66666666666666</ele><time>2026-03-29T14:08:51.556Z</time></trkpt><trkpt lat="44.9133467" lon="1.036125"><ele>183.0</ele><time>2026-03-29T14:08:53.556Z</time></trkpt><trkpt lat="44.9132767" lon="1.0361317"><ele>180.0</ele><time>2026-03-29T14:08:55.557Z</time></trkpt><trkpt lat="44.913205" lon="1.03615"><ele>177.0</ele><time>2026-03-29T14:08:57.556Z</time></trkpt><trkpt lat="44.91314" lon="1.03618"><ele>174.0</ele><time>2026-03-29T14:08:59.557Z</time></trkpt><trkpt lat="44.9130817" lon="1.036225"><ele>171.0</ele><time>2026-03-29T14:09:01.556Z</time></trkpt><trkpt lat="44.91303" lon="1.0363067"><ele>168.0</ele><time>2026-03-29T14:09:03.557Z</time></trkpt><trkpt lat="44.9129883" lon="1.0364033"><ele>165.0</ele><time>2026-03-29T14:09:05.556Z</time></trkpt><trkpt lat="44.91293" lon="1.036535"><ele>165.0</ele><time>2026-03-29T14:09:07.556Z</time></trkpt><trkpt lat="44.91289" lon="1.0366267"><ele>165.0</ele><time>2026-03-29T14:09:08.557Z</time></trkpt><trkpt lat="44.912855" lon="1.0367333"><ele>165.0</ele><time>2026-03-29T14:09:09.557Z</time></trkpt><trkpt lat="44.912825" lon="1.0368433"><ele>165.0</ele><time>2026-03-29T14:09:10.557Z</time></trkpt><trkpt lat="44.9128033" lon="1.0369483"><ele>165.0</ele><time>2026-03-29T14:09:11.556Z</time></trkpt><trkpt lat="44.91277" lon="1.03706"><ele>165.0</ele><time>2026-03-29T14:09:12.557Z</time></trkpt><trkpt lat="44.912735" lon="1.037165"><ele>165.0</ele><time>2026-03-29T14:09:13.557Z</time></trkpt><trkpt lat="44.9127117" lon="1.0372767"><ele>165.0</ele><time>2026-03-29T14:09:14.556Z</time></trkpt><trkpt lat="44.912685" lon="1.03738"><ele>165.0</ele><time>2026-03-29T14:09:15.556Z</time></trkpt><trkpt lat="44.9126583" lon="1.03747"><ele>165.0</ele><time>2026-03-29T14:09:16.557Z</time></trkpt><trkpt lat="44.9126233" lon="1.0375467"><ele>165.0</ele><time>2026-03-29T14:09:17.556Z</time></trkpt><trkpt lat="44.9125767" lon="1.0376317"><ele>165.0</ele><time>2026-03-29T14:09:18.556Z</time></trkpt><trkpt lat="44.9125217" lon="1.03772"><ele>166.0</ele><time>2026-03-29T14:09:19.556Z</time></trkpt><trkpt lat="44.912455" lon="1.0378067"><ele>167.0</ele><time>2026-03-29T14:09:20.557Z</time></trkpt><trkpt lat="44.9123683" lon="1.0378867"><ele>168.0</ele><time>2026-03-29T14:09:21.556Z</time></trkpt><trkpt lat="44.9122367" lon="1.0379617"><ele>169.0</ele><time>2026-03-29T14:09:22.556Z</time></trkpt><trkpt lat="44.9121267" lon="1.0380433"><ele>169.0</ele><time>2026-03-29T14:09:23.557Z</time></trkpt><trkpt lat="44.9120117" lon="1.0381317"><ele>169.0</ele><time>2026-03-29T14:09:24.556Z</time></trkpt><trkpt lat="44.9118967" lon="1.0382317"><ele>169.0</ele><time>2026-03-29T14:09:25.557Z</time></trkpt><trkpt lat="44.9117583" lon="1.0383067"><ele>169.0</ele><time>2026-03-29T14:09:26.557Z</time></trkpt><trkpt lat="44.9116433" lon="1.038365"><ele>170.6</ele><time>2026-03-29T14:09:27.556Z</time></trkpt><trkpt lat="44.91153" lon="1.0384233"><ele>172.2</ele><time>2026-03-29T14:09:28.557Z</time></trkpt><trkpt lat="44.9114383" lon="1.038485"><ele>173.79999999999998</ele><time>2026-03-29T14:09:29.556Z</time></trkpt><trkpt lat="44.9113633" lon="1.0385483"><ele>175.39999999999998</ele><time>2026-03-29T14:09:30.557Z</time></trkpt><trkpt lat="44.9112833" lon="1.03863"><ele>177.0</ele><time>2026-03-29T14:09:31.557Z</time></trkpt><trkpt lat="44.91123" lon="1.0387033"><ele>177.0</ele><time>2026-03-29T14:09:32.556Z</time></trkpt><trkpt lat="44.911185" lon="1.0388267"><ele>177.0</ele><time>2026-03-29T14:09:34.557Z</time></trkpt><trkpt lat="44.9112267" lon="1.0389467"><ele>177.0</ele><time>2026-03-29T14:09:36.557Z</time></trkpt><trkpt lat="44.91129" lon="1.0389767"><ele>177.0</ele><time>2026-03-29T14:09:37.556Z</time></trkpt><trkpt lat="44.9113567" lon="1.0390567"><ele>177.0</ele><time>2026-03-29T14:09:39.556Z</time></trkpt><trkpt lat="44.9114167" lon="1.0391633"><ele>177.0</ele><time>2026-03-29T14:09:41.556Z</time></trkpt><trkpt lat="44.9114383" lon="1.0393283"><ele>178.39999999999998</ele><time>2026-03-29T14:09:43.556Z</time></trkpt><trkpt lat="44.9114383" lon="1.0394783"><ele>179.79999999999998</ele><time>2026-03-29T14:09:45.556Z</time></trkpt><trkpt lat="44.91135" lon="1.0395483"><ele>181.2</ele><time>2026-03-29T14:09:47.556Z</time></trkpt><trkpt lat="44.9112583" lon="1.0396167"><ele>182.6</ele><time>2026-03-29T14:09:49.557Z</time></trkpt><trkpt lat="44.9112067" lon="1.0397267"><ele>184.0</ele><time>2026-03-29T14:09:51.556Z</time></trkpt><trkpt lat="44.9111383" lon="1.039835"><ele>184.0</ele><time>2026-03-29T14:09:53.557Z</time></trkpt><trkpt lat="44.91107" lon="1.0399467"><ele>184.0</ele><time>2026-03-29T14:09:55.556Z</time></trkpt><trkpt lat="44.9109967" lon="1.0400467"><ele>184.0</ele><time>2026-03-29T14:09:57.556Z</time></trkpt><trkpt lat="44.910945" lon="1.0401717"><ele>184.0</ele><time>2026-03-29T14:09:59.556Z</time></trkpt><trkpt lat="44.9109267" lon="1.0402583"><ele>184.0</ele><time>2026-03-29T14:10:00.557Z</time></trkpt><trkpt lat="44.9108883" lon="1.040405"><ele>184.2</ele><time>2026-03-29T14:10:02.557Z</time></trkpt><trkpt lat="44.9109133" lon="1.04055"><ele>184.39999999999998</ele><time>2026-03-29T14:10:04.556Z</time></trkpt><trkpt lat="44.91094" lon="1.0407317"><ele>184.6</ele><time>2026-03-29T14:10:06.557Z</time></trkpt><trkpt lat="44.910965" lon="1.04082"><ele>184.8</ele><time>2026-03-29T14:10:07.556Z</time></trkpt><trkpt lat="44.9109517" lon="1.04096"><ele>185.0</ele><time>2026-03-29T14:10:09.556Z</time></trkpt><trkpt lat="44.9109183" lon="1.04112"><ele>185.0</ele><time>2026-03-29T14:10:11.557Z</time></trkpt><trkpt lat="44.910905" lon="1.04122"><ele>185.0</ele><time>2026-03-29T14:10:12.557Z</time></trkpt><trkpt lat="44.9108833" lon="1.0413267"><ele>185.0</ele><time>2026-03-29T14:10:13.556Z</time></trkpt><trkpt lat="44.9108783" lon="1.0414417"><ele>185.0</ele><time>2026-03-29T14:10:14.556Z</time></trkpt><trkpt lat="44.910875" lon="1.04156"><ele>185.0</ele><time>2026-03-29T14:10:15.556Z</time></trkpt><trkpt lat="44.9108767" lon="1.0416683"><ele>185.0</ele><time>2026-03-29T14:10:16.556Z</time></trkpt><trkpt lat="44.9109067" lon="1.0417683"><ele>185.16666666666666</ele><time>2026-03-29T14:10:17.557Z</time></trkpt><trkpt lat="44.9109633" lon="1.0418583"><ele>185.33333333333331</ele><time>2026-03-29T14:10:18.557Z</time></trkpt><trkpt lat="44.911005" lon="1.04195"><ele>185.5</ele><time>2026-03-29T14:10:19.557Z</time></trkpt><trkpt lat="44.9110417" lon="1.04204"><ele>185.66666666666666</ele><time>2026-03-29T14:10:20.557Z</time></trkpt><trkpt lat="44.911075" lon="1.04213"><ele>185.83333333333334</ele><time>2026-03-29T14:10:21.557Z</time></trkpt><trkpt lat="44.91111" lon="1.0422117"><ele>186.0</ele><time>2026-03-29T14:10:22.556Z</time></trkpt><trkpt lat="44.9111617" lon="1.0423567"><ele>186.4</ele><time>2026-03-29T14:10:24.557Z</time></trkpt><trkpt lat="44.9112117" lon="1.042485"><ele>186.8</ele><time>2026-03-29T14:10:26.556Z</time></trkpt><trkpt lat="44.9112833" lon="1.0425217"><ele>187.20000000000002</ele><time>2026-03-29T14:10:28.557Z</time></trkpt><trkpt lat="44.91141" lon="1.0425083"><ele>187.60000000000002</ele><time>2026-03-29T14:10:30.556Z</time></trkpt><trkpt lat="44.911475" lon="1.0424917"><ele>188.0</ele><time>2026-03-29T14:10:31.556Z</time></trkpt><trkpt lat="44.9115533" lon="1.0424783"><ele>187.60000000000002</ele><time>2026-03-29T14:10:32.556Z</time></trkpt><trkpt lat="44.9116633" lon="1.042455"><ele>187.20000000000002</ele><time>2026-03-29T14:10:33.556Z</time></trkpt><trkpt lat="44.9117467" lon="1.0424383"><ele>186.8</ele><time>2026-03-29T14:10:34.557Z</time></trkpt><trkpt lat="44.9118383" lon="1.0424133"><ele>186.4</ele><time>2026-03-29T14:10:35.556Z</time></trkpt><trkpt lat="44.9119283" lon="1.042405"><ele>186.0</ele><time>2026-03-29T14:10:36.557Z</time></trkpt><trkpt lat="44.9120083" lon="1.0424117"><ele>185.5</ele><time>2026-03-29T14:10:37.556Z</time></trkpt><trkpt lat="44.9120867" lon="1.042435"><ele>185.0</ele><time>2026-03-29T14:10:38.556Z</time></trkpt><trkpt lat="44.9121667" lon="1.0424617"><ele>184.5</ele><time>2026-03-29T14:10:39.556Z</time></trkpt><trkpt lat="44.9122483" lon="1.04247"><ele>184.0</ele><time>2026-03-29T14:10:40.556Z</time></trkpt><trkpt lat="44.912315" lon="1.0424517"><ele>183.5</ele><time>2026-03-29T14:10:41.557Z</time></trkpt><trkpt lat="44.9123983" lon="1.04237"><ele>183.0</ele><time>2026-03-29T14:10:42.557Z</time></trkpt><trkpt lat="44.91248" lon="1.0423117"><ele>182.66666666666666</ele><time>2026-03-29T14:10:43.556Z</time></trkpt><trkpt lat="44.9125617" lon="1.042255"><ele>182.33333333333334</ele><time>2026-03-29T14:10:44.557Z</time></trkpt><trkpt lat="44.9126367" lon="1.042195"><ele>182.0</ele><time>2026-03-29T14:10:45.557Z</time></trkpt><trkpt lat="44.9127067" lon="1.0421433"><ele>181.66666666666669</ele><time>2026-03-29T14:10:46.557Z</time></trkpt><trkpt lat="44.9127733" lon="1.042095"><ele>181.33333333333334</ele><time>2026-03-29T14:10:47.556Z</time></trkpt><trkpt lat="44.912835" lon="1.0420583"><ele>181.0</ele><time>2026-03-29T14:10:48.556Z</time></trkpt><trkpt lat="44.91293" lon="1.0420117"><ele>180.25</ele><time>2026-03-29T14:10:50.556Z</time></trkpt><trkpt lat="44.9129983" lon="1.0420283"><ele>179.5</ele><time>2026-03-29T14:10:52.556Z</time></trkpt><trkpt lat="44.9130617" lon="1.0421733"><ele>178.75</ele><time>2026-03-29T14:10:54.556Z</time></trkpt><trkpt lat="44.9131533" lon="1.0424333"><ele>178.0</ele><time>2026-03-29T14:10:56.556Z</time></trkpt><trkpt lat="44.913215" lon="1.042575"><ele>178.0</ele><time>2026-03-29T14:10:57.556Z</time></trkpt><trkpt lat="44.9132717" lon="1.0427017"><ele>178.0</ele><time>2026-03-29T14:10:58.557Z</time></trkpt><trkpt lat="44.9133267" lon="1.04282"><ele>178.0</ele><time>2026-03-29T14:10:59.556Z</time></trkpt><trkpt lat="44.9133733" lon="1.042915"><ele>178.0</ele><time>2026-03-29T14:11:00.557Z</time></trkpt><trkpt lat="44.9134367" lon="1.0429633"><ele>178.0</ele><time>2026-03-29T14:11:01.556Z</time></trkpt><trkpt lat="44.9135033" lon="1.0429783"><ele>178.0</ele><time>2026-03-29T14:11:02.557Z</time></trkpt><trkpt lat="44.9135733" lon="1.0429667"><ele>177.5</ele><time>2026-03-29T14:11:03.556Z</time></trkpt><trkpt lat="44.91365" lon="1.042935"><ele>177.0</ele><time>2026-03-29T14:11:04.556Z</time></trkpt><trkpt lat="44.9137283" lon="1.0428733"><ele>176.5</ele><time>2026-03-29T14:11:05.556Z</time></trkpt><trkpt lat="44.9137933" lon="1.0428167"><ele>176.0</ele><time>2026-03-29T14:11:06.556Z</time></trkpt><trkpt lat="44.9138567" lon="1.0427683"><ele>175.5</ele><time>2026-03-29T14:11:07.557Z</time></trkpt><trkpt lat="44.9139183" lon="1.0427267"><ele>175.0</ele><time>2026-03-29T14:11:08.557Z</time></trkpt><trkpt lat="44.913985" lon="1.0426817"><ele>175.0</ele><time>2026-03-29T14:11:09.557Z</time></trkpt><trkpt lat="44.9140867" lon="1.04262"><ele>175.0</ele><time>2026-03-29T14:11:11.557Z</time></trkpt><trkpt lat="44.9141783" lon="1.04264"><ele>175.0</ele><time>2026-03-29T14:11:30.556Z</time></trkpt><trkpt lat="44.9142567" lon="1.0426767"><ele>175.0</ele><time>2026-03-29T14:11:35.557Z</time></trkpt><trkpt lat="44.9143233" lon="1.0426833"><ele>175.0</ele><time>2026-03-29T14:11:39.557Z</time></trkpt><trkpt lat="44.9144" lon="1.042695"><ele>175.0</ele><time>2026-03-29T14:11:42.556Z</time></trkpt><trkpt lat="44.9144983" lon="1.042715"><ele>175.66666666666669</ele><time>2026-03-29T14:11:51.557Z</time></trkpt><trkpt lat="44.91458" lon="1.0427683"><ele>176.33333333333334</ele><time>2026-03-29T14:11:54.556Z</time></trkpt><trkpt lat="44.914665" lon="1.0428033"><ele>177.0</ele><time>2026-03-29T14:11:57.556Z</time></trkpt><trkpt lat="44.914725" lon="1.0428317"><ele>177.66666666666666</ele><time>2026-03-29T14:11:59.556Z</time></trkpt><trkpt lat="44.91481" lon="1.0428583"><ele>178.33333333333331</ele><time>2026-03-29T14:12:02.557Z</time></trkpt><trkpt lat="44.9148717" lon="1.0428867"><ele>179.0</ele><time>2026-03-29T14:12:04.557Z</time></trkpt><trkpt lat="44.9149333" lon="1.042915"><ele>179.0</ele><time>2026-03-29T14:12:06.556Z</time></trkpt><trkpt lat="44.91502" lon="1.0429533"><ele>179.0</ele><time>2026-03-29T14:12:09.556Z</time></trkpt><trkpt lat="44.9150983" lon="1.043005"><ele>179.0</ele><time>2026-03-29T14:12:12.557Z</time></trkpt><trkpt lat="44.9151783" lon="1.0430433"><ele>179.0</ele><time>2026-03-29T14:12:15.556Z</time></trkpt><trkpt lat="44.9152467" lon="1.0430233"><ele>179.0</ele><time>2026-03-29T14:12:17.556Z</time></trkpt><trkpt lat="44.915345" lon="1.0430217"><ele>179.0</ele><time>2026-03-29T14:12:19.556Z</time></trkpt><trkpt lat="44.9154717" lon="1.0430317"><ele>179.33333333333331</ele><time>2026-03-29T14:12:21.555Z</time></trkpt><trkpt lat="44.9155433" lon="1.043055"><ele>179.66666666666666</ele><time>2026-03-29T14:12:22.555Z</time></trkpt><trkpt lat="44.91561" lon="1.0430833"><ele>180.0</ele><time>2026-03-29T14:12:23.555Z</time></trkpt><trkpt lat="44.915695" lon="1.0431283"><ele>180.33333333333334</ele><time>2026-03-29T14:12:24.555Z</time></trkpt><trkpt lat="44.915765" lon="1.04317"><ele>180.66666666666669</ele><time>2026-03-29T14:12:25.555Z</time></trkpt><trkpt lat="44.9158483" lon="1.043215"><ele>181.0</ele><time>2026-03-29T14:12:26.555Z</time></trkpt><trkpt lat="44.9159083" lon="1.043255"><ele>181.0</ele><time>2026-03-29T14:12:27.555Z</time></trkpt><trkpt lat="44.9159667" lon="1.04329"><ele>181.0</ele><time>2026-03-29T14:12:28.556Z</time></trkpt><trkpt lat="44.9160683" lon="1.0433417"><ele>181.0</ele><time>2026-03-29T14:12:30.556Z</time></trkpt><trkpt lat="44.9161283" lon="1.04338"><ele>181.0</ele><time>2026-03-29T14:12:31.555Z</time></trkpt><trkpt lat="44.9162233" lon="1.0434583"><ele>181.0</ele><time>2026-03-29T14:12:33.555Z</time></trkpt><trkpt lat="44.9163" lon="1.0435417"><ele>181.0</ele><time>2026-03-29T14:12:35.556Z</time></trkpt><trkpt lat="44.9164067" lon="1.04361"><ele>180.5</ele><time>2026-03-29T14:12:37.555Z</time></trkpt><trkpt lat="44.9164667" lon="1.0436417"><ele>180.0</ele><time>2026-03-29T14:12:38.556Z</time></trkpt><trkpt lat="44.9165667" lon="1.0437033"><ele>179.5</ele><time>2026-03-29T14:12:40.556Z</time></trkpt><trkpt lat="44.9166367" lon="1.0437567"><ele>179.0</ele><time>2026-03-29T14:12:42.556Z</time></trkpt><trkpt lat="44.916695" lon="1.0438267"><ele>178.5</ele><time>2026-03-29T14:12:44.555Z</time></trkpt><trkpt lat="44.9167617" lon="1.0439"><ele>178.0</ele><time>2026-03-29T14:12:46.556Z</time></trkpt><trkpt lat="44.9168417" lon="1.044035"><ele>178.0</ele><time>2026-03-29T14:12:48.555Z</time></trkpt><trkpt lat="44.9168867" lon="1.0441183"><ele>178.0</ele><time>2026-03-29T14:12:49.555Z</time></trkpt><trkpt lat="44.91696" lon="1.0442217"><ele>178.0</ele><time>2026-03-29T14:12:50.555Z</time></trkpt><trkpt lat="44.9170633" lon="1.0443217"><ele>178.0</ele><time>2026-03-29T14:12:51.555Z</time></trkpt><trkpt lat="44.9171717" lon="1.044425"><ele>178.0</ele><time>2026-03-29T14:12:52.556Z</time></trkpt><trkpt lat="44.917285" lon="1.0445117"><ele>177.83333333333334</ele><time>2026-03-29T14:12:53.555Z</time></trkpt><trkpt lat="44.9173667" lon="1.0445917"><ele>177.66666666666669</ele><time>2026-03-29T14:12:54.555Z</time></trkpt><trkpt lat="44.9174267" lon="1.0446467"><ele>177.5</ele><time>2026-03-29T14:12:55.555Z</time></trkpt><trkpt lat="44.91748" lon="1.0447"><ele>177.33333333333334</ele><time>2026-03-29T14:12:56.555Z</time></trkpt><trkpt lat="44.917555" lon="1.0447483"><ele>177.16666666666666</ele><time>2026-03-29T14:12:58.556Z</time></trkpt><trkpt lat="44.917675" lon="1.0446967"><ele>177.0</ele><time>2026-03-29T14:13:00.556Z</time></trkpt><trkpt lat="44.9177333" lon="1.04466"><ele>177.0</ele><time>2026-03-29T14:13:01.556Z</time></trkpt><trkpt lat="44.917815" lon="1.0446217"><ele>177.0</ele><time>2026-03-29T14:13:03.556Z</time></trkpt><trkpt lat="44.9178933" lon="1.0445833"><ele>177.0</ele><time>2026-03-29T14:13:07.556Z</time></trkpt><trkpt lat="44.9179633" lon="1.0445533"><ele>177.0</ele><time>2026-03-29T14:13:09.556Z</time></trkpt><trkpt lat="44.9180633" lon="1.0444967"><ele>177.0</ele><time>2026-03-29T14:13:11.555Z</time></trkpt><trkpt lat="44.9181467" lon="1.04444"><ele>177.0</ele><time>2026-03-29T14:13:13.556Z</time></trkpt><trkpt lat="44.9182217" lon="1.0443867"><ele>177.0</ele><time>2026-03-29T14:13:15.556Z</time></trkpt><trkpt lat="44.9183" lon="1.0443183"><ele>177.0</ele><time>2026-03-29T14:13:17.556Z</time></trkpt><trkpt lat="44.91837" lon="1.0443"><ele>177.0</ele><time>2026-03-29T14:13:19.555Z</time></trkpt><trkpt lat="44.91844" lon="1.0443017"><ele>177.0</ele><time>2026-03-29T14:13:21.555Z</time></trkpt><trkpt lat="44.9185083" lon="1.044305"><ele>177.0</ele><time>2026-03-29T14:13:23.556Z</time></trkpt><trkpt lat="44.9185733" lon="1.0443283"><ele>177.0</ele><time>2026-03-29T14:13:25.556Z</time></trkpt><trkpt lat="44.918635" lon="1.04437"><ele>177.0</ele><time>2026-03-29T14:13:27.556Z</time></trkpt><trkpt lat="44.918715" lon="1.04439"><ele>178.16666666666666</ele><time>2026-03-29T14:13:29.556Z</time></trkpt><trkpt lat="44.9187933" lon="1.044405"><ele>179.33333333333334</ele><time>2026-03-29T14:13:31.555Z</time></trkpt><trkpt lat="44.91887" lon="1.0444267"><ele>180.5</ele><time>2026-03-29T14:13:35.555Z</time></trkpt><trkpt lat="44.9189433" lon="1.0444333"><ele>181.66666666666669</ele><time>2026-03-29T14:13:38.555Z</time></trkpt><trkpt lat="44.919025" lon="1.0444183"><ele>182.83333333333334</ele><time>2026-03-29T14:13:41.555Z</time></trkpt><trkpt lat="44.9191" lon="1.0444167"><ele>184.0</ele><time>2026-03-29T14:13:44.555Z</time></trkpt><trkpt lat="44.9192033" lon="1.0444617"><ele>184.5</ele><time>2026-03-29T14:13:48.555Z</time></trkpt><trkpt lat="44.919295" lon="1.0445383"><ele>185.0</ele><time>2026-03-29T14:13:50.555Z</time></trkpt><trkpt lat="44.9193683" lon="1.0446083"><ele>185.5</ele><time>2026-03-29T14:13:53.555Z</time></trkpt><trkpt lat="44.9194217" lon="1.04466"><ele>186.0</ele><time>2026-03-29T14:13:55.555Z</time></trkpt><trkpt lat="44.919485" lon="1.04469"><ele>186.5</ele><time>2026-03-29T14:13:57.556Z</time></trkpt><trkpt lat="44.91958" lon="1.0447367"><ele>187.0</ele><time>2026-03-29T14:14:00.556Z</time></trkpt><trkpt lat="44.9196467" lon="1.0448083"><ele>187.0</ele><time>2026-03-29T14:14:02.555Z</time></trkpt><trkpt lat="44.9197167" lon="1.0448733"><ele>187.0</ele><time>2026-03-29T14:14:04.555Z</time></trkpt><trkpt lat="44.9197717" lon="1.044935"><ele>187.0</ele><time>2026-03-29T14:14:06.556Z</time></trkpt><trkpt lat="44.9198367" lon="1.04499"><ele>187.0</ele><time>2026-03-29T14:14:08.556Z</time></trkpt><trkpt lat="44.9199" lon="1.04504"><ele>187.0</ele><time>2026-03-29T14:14:10.556Z</time></trkpt><trkpt lat="44.9199633" lon="1.0450817"><ele>187.0</ele><time>2026-03-29T14:14:13.555Z</time></trkpt><trkpt lat="44.9200383" lon="1.0451367"><ele>187.2</ele><time>2026-03-29T14:14:16.555Z</time></trkpt><trkpt lat="44.9201167" lon="1.0452117"><ele>187.39999999999998</ele><time>2026-03-29T14:14:19.555Z</time></trkpt><trkpt lat="44.9202133" lon="1.04529"><ele>187.60000000000002</ele><time>2026-03-29T14:14:21.556Z</time></trkpt><trkpt lat="44.9203367" lon="1.0453367"><ele>187.8</ele><time>2026-03-29T14:14:23.556Z</time></trkpt><trkpt lat="44.920435" lon="1.0453033"><ele>188.0</ele><time>2026-03-29T14:14:24.556Z</time></trkpt><trkpt lat="44.9204917" lon="1.0452583"><ele>188.0</ele><time>2026-03-29T14:14:25.555Z</time></trkpt><trkpt lat="44.9205533" lon="1.0452083"><ele>188.0</ele><time>2026-03-29T14:14:26.556Z</time></trkpt><trkpt lat="44.920615" lon="1.0451617"><ele>188.0</ele><time>2026-03-29T14:14:27.556Z</time></trkpt><trkpt lat="44.9206833" lon="1.04512"><ele>188.0</ele><time>2026-03-29T14:14:28.556Z</time></trkpt><trkpt lat="44.9207417" lon="1.0450767"><ele>188.0</ele><time>2026-03-29T14:14:29.555Z</time></trkpt><trkpt lat="44.920785" lon="1.0450117"><ele>188.0</ele><time>2026-03-29T14:14:30.555Z</time></trkpt><trkpt lat="44.9208217" lon="1.0448883"><ele>188.0</ele><time>2026-03-29T14:14:32.555Z</time></trkpt><trkpt lat="44.92084" lon="1.0447567"><ele>188.66666666666666</ele><time>2026-03-29T14:14:34.556Z</time></trkpt><trkpt lat="44.9208667" lon="1.0446083"><ele>189.33333333333331</ele><time>2026-03-29T14:14:36.556Z</time></trkpt><trkpt lat="44.920865" lon="1.04451"><ele>190.0</ele><time>2026-03-29T14:14:37.556Z</time></trkpt><trkpt lat="44.9208433" lon="1.0444183"><ele>190.66666666666666</ele><time>2026-03-29T14:14:38.556Z</time></trkpt><trkpt lat="44.9207833" lon="1.0443333"><ele>191.33333333333334</ele><time>2026-03-29T14:14:39.556Z</time></trkpt><trkpt lat="44.9207283" lon="1.0442517"><ele>192.0</ele><time>2026-03-29T14:14:40.556Z</time></trkpt><trkpt lat="44.9206767" lon="1.0441733"><ele>193.75</ele><time>2026-03-29T14:14:41.556Z</time></trkpt><trkpt lat="44.9206483" lon="1.0440833"><ele>195.5</ele><time>2026-03-29T14:14:42.555Z</time></trkpt><trkpt lat="44.9205883" lon="1.0439783"><ele>197.25</ele><time>2026-03-29T14:14:43.555Z</time></trkpt><trkpt lat="44.9205467" lon="1.0438833"><ele>199.0</ele><time>2026-03-29T14:14:44.556Z</time></trkpt><trkpt lat="44.92039" lon="1.0436483"><ele>198.99999999999997</ele><time>2026-03-29T14:14:47.556Z</time></trkpt><trkpt lat="44.9203367" lon="1.0435933"><ele>199.0</ele><time>2026-03-29T14:14:48.555Z</time></trkpt><trkpt lat="44.92028" lon="1.0435483"><ele>199.0</ele><time>2026-03-29T14:14:49.556Z</time></trkpt><trkpt lat="44.9202017" lon="1.0434767"><ele>199.0</ele><time>2026-03-29T14:14:51.555Z</time></trkpt><trkpt lat="44.9201117" lon="1.0434033"><ele>198.99999999999997</ele><time>2026-03-29T14:14:53.555Z</time></trkpt><trkpt lat="44.9200583" lon="1.0433417"><ele>199.0</ele><time>2026-03-29T14:14:54.555Z</time></trkpt><trkpt lat="44.9200183" lon="1.0432667"><ele>200.83333333333331</ele><time>2026-03-29T14:14:55.556Z</time></trkpt><trkpt lat="44.9199817" lon="1.0431817"><ele>202.66666666666666</ele><time>2026-03-29T14:14:56.556Z</time></trkpt><trkpt lat="44.9199" lon="1.043015"><ele>204.5</ele><time>2026-03-29T14:14:58.556Z</time></trkpt><trkpt lat="44.9198567" lon="1.0429283"><ele>206.33333333333331</ele><time>2026-03-29T14:14:59.556Z</time></trkpt><trkpt lat="44.9198167" lon="1.0428583"><ele>208.16666666666666</ele><time>2026-03-29T14:15:00.556Z</time></trkpt><trkpt lat="44.9197733" lon="1.0427833"><ele>210.0</ele><time>2026-03-29T14:15:01.555Z</time></trkpt><trkpt lat="44.9197183" lon="1.0426933"><ele>210.0</ele><time>2026-03-29T14:15:02.555Z</time></trkpt><trkpt lat="44.9196667" lon="1.0426067"><ele>210.0</ele><time>2026-03-29T14:15:03.556Z</time></trkpt><trkpt lat="44.9196117" lon="1.042515"><ele>210.0</ele><time>2026-03-29T14:15:04.555Z</time></trkpt><trkpt lat="44.9195567" lon="1.0424133"><ele>210.0</ele><time>2026-03-29T14:15:05.556Z</time></trkpt><trkpt lat="44.9194983" lon="1.0423083"><ele>210.0</ele><time>2026-03-29T14:15:06.555Z</time></trkpt><trkpt lat="44.9194483" lon="1.0422117"><ele>210.0</ele><time>2026-03-29T14:15:07.556Z</time></trkpt><trkpt lat="44.9194" lon="1.0421017"><ele>210.0</ele><time>2026-03-29T14:15:08.556Z</time></trkpt><trkpt lat="44.9193467" lon="1.04199"><ele>210.0</ele><time>2026-03-29T14:15:09.556Z</time></trkpt><trkpt lat="44.9193067" lon="1.0418933"><ele>210.0</ele><time>2026-03-29T14:15:10.556Z</time></trkpt><trkpt lat="44.9192633" lon="1.0418033"><ele>210.0</ele><time>2026-03-29T14:15:11.556Z</time></trkpt><trkpt lat="44.919225" lon="1.041715"><ele>210.0</ele><time>2026-03-29T14:15:12.556Z</time></trkpt><trkpt lat="44.9191933" lon="1.04161"><ele>210.0</ele><time>2026-03-29T14:15:13.555Z</time></trkpt><trkpt lat="44.9191667" lon="1.041505"><ele>210.0</ele><time>2026-03-29T14:15:14.555Z</time></trkpt><trkpt lat="44.919155" lon="1.0414"><ele>210.0</ele><time>2026-03-29T14:15:15.555Z</time></trkpt><trkpt lat="44.9191617" lon="1.0413033"><ele>210.0</ele><time>2026-03-29T14:15:16.555Z</time></trkpt><trkpt lat="44.9191867" lon="1.0411217"><ele>210.0</ele><time>2026-03-29T14:15:18.555Z</time></trkpt><trkpt lat="44.9192" lon="1.0410317"><ele>210.0</ele><time>2026-03-29T14:15:19.555Z</time></trkpt><trkpt lat="44.9192417" lon="1.0408617"><ele>209.0</ele><time>2026-03-29T14:15:21.556Z</time></trkpt><trkpt lat="44.919265" lon="1.0407133"><ele>208.0</ele><time>2026-03-29T14:15:23.556Z</time></trkpt><trkpt lat="44.9193133" lon="1.04063"><ele>207.0</ele><time>2026-03-29T14:15:26.556Z</time></trkpt><trkpt lat="44.919365" lon="1.0405117"><ele>206.0</ele><time>2026-03-29T14:15:31.555Z</time></trkpt><trkpt lat="44.9194333" lon="1.04041"><ele>205.0</ele><time>2026-03-29T14:15:33.556Z</time></trkpt><trkpt lat="44.9194767" lon="1.0402783"><ele>205.0</ele><time>2026-03-29T14:15:35.555Z</time></trkpt><trkpt lat="44.9194883" lon="1.0401733"><ele>205.0</ele><time>2026-03-29T14:15:43.556Z</time></trkpt><trkpt lat="44.9194933" lon="1.0400433"><ele>205.0</ele><time>2026-03-29T14:15:44.555Z</time></trkpt><trkpt lat="44.9194933" lon="1.0399083"><ele>205.0</ele><time>2026-03-29T14:15:46.556Z</time></trkpt><trkpt lat="44.9194817" lon="1.03976"><ele>205.0</ele><time>2026-03-29T14:15:48.556Z</time></trkpt><trkpt lat="44.9194667" lon="1.0396467"><ele>203.66666666666666</ele><time>2026-03-29T14:15:50.556Z</time></trkpt><trkpt lat="44.9194517" lon="1.0395283"><ele>202.33333333333331</ele><time>2026-03-29T14:15:52.556Z</time></trkpt><trkpt lat="44.9194383" lon="1.0394017"><ele>201.0</ele><time>2026-03-29T14:15:54.555Z</time></trkpt><trkpt lat="44.9194467" lon="1.0392417"><ele>199.66666666666669</ele><time>2026-03-29T14:15:56.555Z</time></trkpt><trkpt lat="44.9194517" lon="1.0391517"><ele>198.33333333333334</ele><time>2026-03-29T14:15:57.555Z</time></trkpt><trkpt lat="44.9194683" lon="1.0390533"><ele>197.0</ele><time>2026-03-29T14:15:58.555Z</time></trkpt><trkpt lat="44.9194733" lon="1.0389617"><ele>196.8</ele><time>2026-03-29T14:15:59.555Z</time></trkpt><trkpt lat="44.91947" lon="1.0387983"><ele>196.6</ele><time>2026-03-29T14:16:01.556Z</time></trkpt><trkpt lat="44.9194717" lon="1.03868"><ele>196.4</ele><time>2026-03-29T14:16:03.555Z</time></trkpt><trkpt lat="44.9194633" lon="1.0385517"><ele>196.20000000000002</ele><time>2026-03-29T14:16:05.556Z</time></trkpt><trkpt lat="44.91947" lon="1.0384067"><ele>196.0</ele><time>2026-03-29T14:16:07.556Z</time></trkpt><trkpt lat="44.91946" lon="1.0382533"><ele>196.0</ele><time>2026-03-29T14:16:09.555Z</time></trkpt><trkpt lat="44.91945" lon="1.0381567"><ele>196.0</ele><time>2026-03-29T14:16:11.556Z</time></trkpt><trkpt lat="44.9194567" lon="1.038055"><ele>196.0</ele><time>2026-03-29T14:16:15.554Z</time></trkpt><trkpt lat="44.9194583" lon="1.037895"><ele>196.0</ele><time>2026-03-29T14:16:30.555Z</time></trkpt><trkpt lat="44.919425" lon="1.0376933"><ele>196.0</ele><time>2026-03-29T14:16:39.554Z</time></trkpt><trkpt lat="44.9194017" lon="1.03756"><ele>198.16666666666666</ele><time>2026-03-29T14:16:42.554Z</time></trkpt><trkpt lat="44.9193983" lon="1.0374367"><ele>200.33333333333331</ele><time>2026-03-29T14:16:44.555Z</time></trkpt><trkpt lat="44.919395" lon="1.03734"><ele>202.5</ele><time>2026-03-29T14:16:46.555Z</time></trkpt><trkpt lat="44.919385" lon="1.03723"><ele>204.66666666666669</ele><time>2026-03-29T14:16:49.555Z</time></trkpt><trkpt lat="44.9193867" lon="1.0371017"><ele>206.83333333333334</ele><time>2026-03-29T14:16:51.555Z</time></trkpt><trkpt lat="44.9194267" lon="1.0369767"><ele>209.0</ele><time>2026-03-29T14:16:53.554Z</time></trkpt><trkpt lat="44.919495" lon="1.0368733"><ele>209.00000000000003</ele><time>2026-03-29T14:16:55.554Z</time></trkpt><trkpt lat="44.9195417" lon="1.0367983"><ele>209.0</ele><time>2026-03-29T14:16:57.554Z</time></trkpt><trkpt lat="44.9195917" lon="1.0366983"><ele>209.0</ele><time>2026-03-29T14:17:00.555Z</time></trkpt><trkpt lat="44.9196317" lon="1.036625"><ele>209.0</ele><time>2026-03-29T14:17:02.555Z</time></trkpt><trkpt lat="44.9196817" lon="1.0365283"><ele>209.00000000000003</ele><time>2026-03-29T14:17:04.554Z</time></trkpt><trkpt lat="44.9197317" lon="1.0364283"><ele>209.0</ele><time>2026-03-29T14:17:06.554Z</time></trkpt><trkpt lat="44.919785" lon="1.0363233"><ele>209.00000000000003</ele><time>2026-03-29T14:17:08.554Z</time></trkpt><trkpt lat="44.9198167" lon="1.0362067"><ele>209.0</ele><time>2026-03-29T14:17:10.554Z</time></trkpt><trkpt lat="44.919845" lon="1.0361067"><ele>209.0</ele><time>2026-03-29T14:17:12.554Z</time></trkpt><trkpt lat="44.9198767" lon="1.036015"><ele>209.0</ele><time>2026-03-29T14:17:14.554Z</time></trkpt><trkpt lat="44.9199217" lon="1.03592"><ele>209.00000000000003</ele><time>2026-03-29T14:17:16.554Z</time></trkpt><trkpt lat="44.9199833" lon="1.035825"><ele>209.0</ele><time>2026-03-29T14:17:18.554Z</time></trkpt><trkpt lat="44.9200367" lon="1.035755"><ele>208.6</ele><time>2026-03-29T14:17:20.554Z</time></trkpt><trkpt lat="44.920105" lon="1.035665"><ele>208.2</ele><time>2026-03-29T14:17:22.555Z</time></trkpt><trkpt lat="44.9201667" lon="1.0355533"><ele>207.79999999999998</ele><time>2026-03-29T14:17:24.554Z</time></trkpt><trkpt lat="44.92024" lon="1.03543"><ele>207.39999999999998</ele><time>2026-03-29T14:17:26.554Z</time></trkpt><trkpt lat="44.9203183" lon="1.035315"><ele>207.0</ele><time>2026-03-29T14:17:28.555Z</time></trkpt><trkpt lat="44.9203817" lon="1.03522"><ele>207.0</ele><time>2026-03-29T14:17:30.555Z</time></trkpt><trkpt lat="44.9204467" lon="1.0351467"><ele>207.0</ele><time>2026-03-29T14:17:32.555Z</time></trkpt><trkpt lat="44.9204867" lon="1.0350483"><ele>207.0</ele><time>2026-03-29T14:17:35.554Z</time></trkpt><trkpt lat="44.9205317" lon="1.0349267"><ele>207.0</ele><time>2026-03-29T14:17:38.554Z</time></trkpt><trkpt lat="44.92056" lon="1.0347933"><ele>207.0</ele><time>2026-03-29T14:17:40.555Z</time></trkpt><trkpt lat="44.92058" lon="1.0346767"><ele>207.0</ele><time>2026-03-29T14:17:42.555Z</time></trkpt><trkpt lat="44.9206033" lon="1.0345767"><ele>207.16666666666666</ele><time>2026-03-29T14:17:46.554Z</time></trkpt><trkpt lat="44.9206333" lon="1.0344667"><ele>207.33333333333331</ele><time>2026-03-29T14:17:48.554Z</time></trkpt><trkpt lat="44.920645" lon="1.0343217"><ele>207.5</ele><time>2026-03-29T14:17:51.554Z</time></trkpt><trkpt lat="44.92065" lon="1.03422"><ele>207.66666666666666</ele><time>2026-03-29T14:17:53.554Z</time></trkpt><trkpt lat="44.92064" lon="1.0340867"><ele>207.83333333333331</ele><time>2026-03-29T14:17:56.555Z</time></trkpt><trkpt lat="44.9206117" lon="1.033975"><ele>208.0</ele><time>2026-03-29T14:17:58.555Z</time></trkpt><trkpt lat="44.9206017" lon="1.0338667"><ele>207.83333333333331</ele><time>2026-03-29T14:18:00.554Z</time></trkpt><trkpt lat="44.9205667" lon="1.0337467"><ele>207.66666666666666</ele><time>2026-03-29T14:18:03.554Z</time></trkpt><trkpt lat="44.9205483" lon="1.03363"><ele>207.5</ele><time>2026-03-29T14:18:06.554Z</time></trkpt><trkpt lat="44.9205583" lon="1.0335367"><ele>207.33333333333331</ele><time>2026-03-29T14:18:09.555Z</time></trkpt><trkpt lat="44.9205417" lon="1.0334317"><ele>207.16666666666666</ele><time>2026-03-29T14:18:14.555Z</time></trkpt><trkpt lat="44.9205133" lon="1.0333483"><ele>207.0</ele><time>2026-03-29T14:18:17.554Z</time></trkpt><trkpt lat="44.9204917" lon="1.0332533"><ele>207.0</ele><time>2026-03-29T14:18:20.555Z</time></trkpt><trkpt lat="44.9204767" lon="1.0331267"><ele>207.0</ele><time>2026-03-29T14:18:30.555Z</time></trkpt><trkpt lat="44.9204183" lon="1.032945"><ele>207.0</ele><time>2026-03-29T14:18:47.555Z</time></trkpt><trkpt lat="44.92037" lon="1.03282"><ele>207.0</ele><time>2026-03-29T14:18:56.554Z</time></trkpt><trkpt lat="44.9203233" lon="1.03271"><ele>207.0</ele><time>2026-03-29T14:18:59.555Z</time></trkpt><trkpt lat="44.92029" lon="1.0326333"><ele>207.0</ele><time>2026-03-29T14:19:01.555Z</time></trkpt><trkpt lat="44.9202533" lon="1.0325583"><ele>207.0</ele><time>2026-03-29T14:19:03.554Z</time></trkpt><trkpt lat="44.9202317" lon="1.03245"><ele>207.0</ele><time>2026-03-29T14:19:06.554Z</time></trkpt><trkpt lat="44.920225" lon="1.0323333"><ele>207.0</ele><time>2026-03-29T14:19:09.554Z</time></trkpt><trkpt lat="44.9201983" lon="1.0322483"><ele>207.0</ele><time>2026-03-29T14:19:11.554Z</time></trkpt><trkpt lat="44.9201833" lon="1.0321483"><ele>207.0</ele><time>2026-03-29T14:19:13.554Z</time></trkpt><trkpt lat="44.9201717" lon="1.03196"><ele>206.0</ele><time>2026-03-29T14:19:21.555Z</time></trkpt><trkpt lat="44.9201517" lon="1.031875"><ele>205.0</ele><time>2026-03-29T14:19:25.554Z</time></trkpt><trkpt lat="44.920155" lon="1.0317817"><ele>204.0</ele><time>2026-03-29T14:19:29.554Z</time></trkpt><trkpt lat="44.92012" lon="1.0316333"><ele>203.0</ele><time>2026-03-29T14:19:38.555Z</time></trkpt><trkpt lat="44.920135" lon="1.0315383"><ele>202.0</ele><time>2026-03-29T14:19:41.554Z</time></trkpt><trkpt lat="44.92015" lon="1.0314283"><ele>201.0</ele><time>2026-03-29T14:19:45.554Z</time></trkpt><trkpt lat="44.9201633" lon="1.0313317"><ele>199.5</ele><time>2026-03-29T14:19:48.555Z</time></trkpt><trkpt lat="44.9201833" lon="1.0312333"><ele>198.0</ele><time>2026-03-29T14:19:51.554Z</time></trkpt><trkpt lat="44.920235" lon="1.0311417"><ele>196.5</ele><time>2026-03-29T14:19:54.555Z</time></trkpt><trkpt lat="44.9202983" lon="1.0310633"><ele>195.0</ele><time>2026-03-29T14:19:57.555Z</time></trkpt><trkpt lat="44.92032" lon="1.0309717"><ele>193.5</ele><time>2026-03-29T14:20:00.554Z</time></trkpt><trkpt lat="44.92032" lon="1.0308283"><ele>192.0</ele><time>2026-03-29T14:20:03.555Z</time></trkpt><trkpt lat="44.9203483" lon="1.0307083"><ele>191.0</ele><time>2026-03-29T14:20:05.555Z</time></trkpt><trkpt lat="44.9203867" lon="1.0306017"><ele>190.0</ele><time>2026-03-29T14:20:07.554Z</time></trkpt><trkpt lat="44.920435" lon="1.0305017"><ele>189.0</ele><time>2026-03-29T14:20:09.554Z</time></trkpt><trkpt lat="44.9204633" lon="1.0303917"><ele>188.0</ele><time>2026-03-29T14:20:11.554Z</time></trkpt><trkpt lat="44.9205" lon="1.0302733"><ele>187.0</ele><time>2026-03-29T14:20:13.554Z</time></trkpt><trkpt lat="44.9205383" lon="1.0301683"><ele>186.0</ele><time>2026-03-29T14:20:15.554Z</time></trkpt><trkpt lat="44.9205633" lon="1.0300583"><ele>185.60000000000002</ele><time>2026-03-29T14:20:17.553Z</time></trkpt><trkpt lat="44.9206" lon="1.02995"><ele>185.2</ele><time>2026-03-29T14:20:19.554Z</time></trkpt><trkpt lat="44.9206233" lon="1.0298417"><ele>184.8</ele><time>2026-03-29T14:20:21.554Z</time></trkpt><trkpt lat="44.920665" lon="1.02974"><ele>184.39999999999998</ele><time>2026-03-29T14:20:23.553Z</time></trkpt><trkpt lat="44.9207" lon="1.029655"><ele>184.0</ele><time>2026-03-29T14:20:25.553Z</time></trkpt><trkpt lat="44.9207583" lon="1.029405"><ele>184.0</ele><time>2026-03-29T14:20:41.554Z</time></trkpt><trkpt lat="44.920815" lon="1.0292683"><ele>184.0</ele><time>2026-03-29T14:20:49.553Z</time></trkpt><trkpt lat="44.9208617" lon="1.0291833"><ele>184.0</ele><time>2026-03-29T14:20:52.554Z</time></trkpt><trkpt lat="44.9208983" lon="1.0290933"><ele>184.0</ele><time>2026-03-29T14:20:55.554Z</time></trkpt><trkpt lat="44.9209217" lon="1.0289717"><ele>184.0</ele><time>2026-03-29T14:21:01.554Z</time></trkpt><trkpt lat="44.92091" lon="1.0288433"><ele>184.0</ele><time>2026-03-29T14:21:04.553Z</time></trkpt><trkpt lat="44.92088" lon="1.0287467"><ele>183.6</ele><time>2026-03-29T14:21:06.554Z</time></trkpt><trkpt lat="44.9208417" lon="1.0286383"><ele>183.2</ele><time>2026-03-29T14:21:08.554Z</time></trkpt><trkpt lat="44.9208017" lon="1.0285167"><ele>182.79999999999998</ele><time>2026-03-29T14:21:10.554Z</time></trkpt><trkpt lat="44.9207483" lon="1.0283817"><ele>182.39999999999998</ele><time>2026-03-29T14:21:12.553Z</time></trkpt><trkpt lat="44.9207033" lon="1.02824"><ele>182.0</ele><time>2026-03-29T14:21:14.554Z</time></trkpt><trkpt lat="44.9206483" lon="1.02811"><ele>181.6</ele><time>2026-03-29T14:21:16.553Z</time></trkpt><trkpt lat="44.9206117" lon="1.0279683"><ele>181.2</ele><time>2026-03-29T14:21:18.554Z</time></trkpt><trkpt lat="44.9205617" lon="1.02784"><ele>180.8</ele><time>2026-03-29T14:21:20.554Z</time></trkpt><trkpt lat="44.9205283" lon="1.0277633"><ele>180.4</ele><time>2026-03-29T14:21:21.554Z</time></trkpt><trkpt lat="44.920475" lon="1.0276317"><ele>180.0</ele><time>2026-03-29T14:21:23.553Z</time></trkpt><trkpt lat="44.9204267" lon="1.0274983"><ele>179.4</ele><time>2026-03-29T14:21:25.554Z</time></trkpt><trkpt lat="44.92036" lon="1.0273583"><ele>178.8</ele><time>2026-03-29T14:21:27.554Z</time></trkpt><trkpt lat="44.9202917" lon="1.0272483"><ele>178.2</ele><time>2026-03-29T14:21:29.554Z</time></trkpt><trkpt lat="44.92024" lon="1.0271917"><ele>177.6</ele><time>2026-03-29T14:21:30.554Z</time></trkpt><trkpt lat="44.92015" lon="1.027075"><ele>177.0</ele><time>2026-03-29T14:21:32.553Z</time></trkpt><trkpt lat="44.9200967" lon="1.0269783"><ele>177.8</ele><time>2026-03-29T14:21:34.554Z</time></trkpt><trkpt lat="44.920005" lon="1.026895"><ele>178.6</ele><time>2026-03-29T14:21:36.553Z</time></trkpt><trkpt lat="44.9199" lon="1.0267683"><ele>179.4</ele><time>2026-03-29T14:21:38.553Z</time></trkpt><trkpt lat="44.9198533" lon="1.0267083"><ele>180.20000000000002</ele><time>2026-03-29T14:21:39.554Z</time></trkpt><trkpt lat="44.9197967" lon="1.02663"><ele>181.0</ele><time>2026-03-29T14:21:40.553Z</time></trkpt><trkpt lat="44.919735" lon="1.02654"><ele>181.0</ele><time>2026-03-29T14:21:41.554Z</time></trkpt><trkpt lat="44.9196767" lon="1.026465"><ele>181.0</ele><time>2026-03-29T14:21:42.553Z</time></trkpt><trkpt lat="44.9196083" lon="1.0264033"><ele>181.0</ele><time>2026-03-29T14:21:43.554Z</time></trkpt><trkpt lat="44.9195483" lon="1.0263517"><ele>181.0</ele><time>2026-03-29T14:21:44.554Z</time></trkpt><trkpt lat="44.9194833" lon="1.0262967"><ele>181.0</ele><time>2026-03-29T14:21:45.554Z</time></trkpt><trkpt lat="44.9194233" lon="1.0262233"><ele>181.0</ele><time>2026-03-29T14:21:46.553Z</time></trkpt><trkpt lat="44.9193633" lon="1.0261283"><ele>181.0</ele><time>2026-03-29T14:21:47.554Z</time></trkpt><trkpt lat="44.9193" lon="1.026025"><ele>181.0</ele><time>2026-03-29T14:21:48.554Z</time></trkpt><trkpt lat="44.9192367" lon="1.0259217"><ele>181.0</ele><time>2026-03-29T14:21:49.553Z</time></trkpt><trkpt lat="44.919175" lon="1.0258267"><ele>181.0</ele><time>2026-03-29T14:21:50.553Z</time></trkpt><trkpt lat="44.919115" lon="1.025735"><ele>181.0</ele><time>2026-03-29T14:21:51.554Z</time></trkpt><trkpt lat="44.919055" lon="1.0256483"><ele>182.0</ele><time>2026-03-29T14:21:52.554Z</time></trkpt><trkpt lat="44.9189917" lon="1.0255733"><ele>183.0</ele><time>2026-03-29T14:21:53.553Z</time></trkpt><trkpt lat="44.918935" lon="1.0255133"><ele>184.0</ele><time>2026-03-29T14:21:54.553Z</time></trkpt><trkpt lat="44.9188883" lon="1.0254467"><ele>185.0</ele><time>2026-03-29T14:21:55.554Z</time></trkpt><trkpt lat="44.9188317" lon="1.025385"><ele>186.0</ele><time>2026-03-29T14:21:56.553Z</time></trkpt><trkpt lat="44.9187517" lon="1.0252617"><ele>187.0</ele><time>2026-03-29T14:21:58.554Z</time></trkpt><trkpt lat="44.9187033" lon="1.0252"><ele>187.0</ele><time>2026-03-29T14:21:59.553Z</time></trkpt><trkpt lat="44.9186233" lon="1.0251067"><ele>187.0</ele><time>2026-03-29T14:22:01.554Z</time></trkpt><trkpt lat="44.9185717" lon="1.0250517"><ele>187.0</ele><time>2026-03-29T14:22:02.554Z</time></trkpt><trkpt lat="44.9184933" lon="1.0249333"><ele>187.0</ele><time>2026-03-29T14:22:04.553Z</time></trkpt><trkpt lat="44.9184283" lon="1.0247967"><ele>187.0</ele><time>2026-03-29T14:22:06.553Z</time></trkpt><trkpt lat="44.9183967" lon="1.0246333"><ele>189.33333333333334</ele><time>2026-03-29T14:22:08.554Z</time></trkpt><trkpt lat="44.9183733" lon="1.024535"><ele>191.66666666666669</ele><time>2026-03-29T14:22:09.553Z</time></trkpt><trkpt lat="44.91834" lon="1.024425"><ele>194.0</ele><time>2026-03-29T14:22:10.553Z</time></trkpt><trkpt lat="44.9183067" lon="1.0243"><ele>196.33333333333334</ele><time>2026-03-29T14:22:11.554Z</time></trkpt><trkpt lat="44.918285" lon="1.0241817"><ele>198.66666666666666</ele><time>2026-03-29T14:22:12.554Z</time></trkpt><trkpt lat="44.9182533" lon="1.0240567"><ele>201.0</ele><time>2026-03-29T14:22:13.553Z</time></trkpt><trkpt lat="44.9181917" lon="1.023895"><ele>201.4</ele><time>2026-03-29T14:22:14.554Z</time></trkpt><trkpt lat="44.91814" lon="1.0237467"><ele>201.8</ele><time>2026-03-29T14:22:15.553Z</time></trkpt><trkpt lat="44.91811" lon="1.0236183"><ele>202.20000000000002</ele><time>2026-03-29T14:22:16.553Z</time></trkpt><trkpt lat="44.9180783" lon="1.02348"><ele>202.60000000000002</ele><time>2026-03-29T14:22:17.554Z</time></trkpt><trkpt lat="44.918055" lon="1.0233583"><ele>203.0</ele><time>2026-03-29T14:22:18.554Z</time></trkpt><trkpt lat="44.9180367" lon="1.0232383"><ele>203.0</ele><time>2026-03-29T14:22:19.554Z</time></trkpt><trkpt lat="44.9180267" lon="1.0231217"><ele>203.0</ele><time>2026-03-29T14:22:20.553Z</time></trkpt><trkpt lat="44.91803" lon="1.023025"><ele>203.0</ele><time>2026-03-29T14:22:21.553Z</time></trkpt><trkpt lat="44.918045" lon="1.0229383"><ele>203.0</ele><time>2026-03-29T14:22:22.553Z</time></trkpt><trkpt lat="44.9180633" lon="1.0228483"><ele>203.0</ele><time>2026-03-29T14:22:25.553Z</time></trkpt><trkpt lat="44.9181467" lon="1.0228617"><ele>203.0</ele><time>2026-03-29T14:22:29.554Z</time></trkpt><trkpt lat="44.9182017" lon="1.0229117"><ele>203.0</ele><time>2026-03-29T14:22:30.553Z</time></trkpt><trkpt lat="44.9183183" lon="1.0230083"><ele>202.00000000000003</ele><time>2026-03-29T14:22:32.554Z</time></trkpt><trkpt lat="44.918425" lon="1.0230967"><ele>201.0</ele><time>2026-03-29T14:22:34.553Z</time></trkpt><trkpt lat="44.9184867" lon="1.023125"><ele>200.0</ele><time>2026-03-29T14:22:35.554Z</time></trkpt><trkpt lat="44.9185883" lon="1.0231333"><ele>199.0</ele><time>2026-03-29T14:22:37.554Z</time></trkpt><trkpt lat="44.9186583" lon="1.02313"><ele>198.00000000000003</ele><time>2026-03-29T14:22:38.553Z</time></trkpt><trkpt lat="44.9187417" lon="1.0231033"><ele>197.0</ele><time>2026-03-29T14:22:39.554Z</time></trkpt><trkpt lat="44.9188233" lon="1.0230717"><ele>197.0</ele><time>2026-03-29T14:22:40.553Z</time></trkpt><trkpt lat="44.9189083" lon="1.0230383"><ele>197.0</ele><time>2026-03-29T14:22:41.554Z</time></trkpt><trkpt lat="44.9190083" lon="1.0229917"><ele>197.0</ele><time>2026-03-29T14:22:42.554Z</time></trkpt><trkpt lat="44.9191" lon="1.02296"><ele>197.0</ele><time>2026-03-29T14:22:43.554Z</time></trkpt><trkpt lat="44.9191867" lon="1.0229317"><ele>197.0</ele><time>2026-03-29T14:22:44.554Z</time></trkpt><trkpt lat="44.9192733" lon="1.0229133"><ele>196.00000000000003</ele><time>2026-03-29T14:22:45.554Z</time></trkpt><trkpt lat="44.9193717" lon="1.0228967"><ele>195.0</ele><time>2026-03-29T14:22:46.553Z</time></trkpt><trkpt lat="44.9194667" lon="1.0228917"><ele>194.0</ele><time>2026-03-29T14:22:47.553Z</time></trkpt><trkpt lat="44.91955" lon="1.0228733"><ele>193.0</ele><time>2026-03-29T14:22:48.553Z</time></trkpt><trkpt lat="44.9196233" lon="1.02286"><ele>192.0</ele><time>2026-03-29T14:22:49.554Z</time></trkpt><trkpt lat="44.9196883" lon="1.0228417"><ele>191.0</ele><time>2026-03-29T14:22:50.554Z</time></trkpt><trkpt lat="44.919755" lon="1.0228217"><ele>191.0</ele><time>2026-03-29T14:22:51.554Z</time></trkpt><trkpt lat="44.9198267" lon="1.0228083"><ele>191.0</ele><time>2026-03-29T14:22:52.553Z</time></trkpt><trkpt lat="44.91995" lon="1.02281"><ele>191.0</ele><time>2026-03-29T14:22:54.553Z</time></trkpt><trkpt lat="44.9200217" lon="1.02282"><ele>191.0</ele><time>2026-03-29T14:22:55.553Z</time></trkpt><trkpt lat="44.9200983" lon="1.0228317"><ele>191.0</ele><time>2026-03-29T14:22:56.553Z</time></trkpt><trkpt lat="44.92018" lon="1.0228617"><ele>191.0</ele><time>2026-03-29T14:22:57.553Z</time></trkpt><trkpt lat="44.9202517" lon="1.0228817"><ele>188.8</ele><time>2026-03-29T14:22:58.553Z</time></trkpt><trkpt lat="44.9203517" lon="1.0229467"><ele>186.60000000000002</ele><time>2026-03-29T14:23:00.554Z</time></trkpt><trkpt lat="44.9204683" lon="1.02298"><ele>184.4</ele><time>2026-03-29T14:23:02.554Z</time></trkpt><trkpt lat="44.9205367" lon="1.0229867"><ele>182.2</ele><time>2026-03-29T14:23:03.554Z</time></trkpt><trkpt lat="44.9206267" lon="1.0229833"><ele>180.0</ele><time>2026-03-29T14:23:04.553Z</time></trkpt><trkpt lat="44.9207233" lon="1.0229717"><ele>180.0</ele><time>2026-03-29T14:23:05.554Z</time></trkpt><trkpt lat="44.9208267" lon="1.022955"><ele>180.0</ele><time>2026-03-29T14:23:06.553Z</time></trkpt><trkpt lat="44.92093" lon="1.0229417"><ele>180.0</ele><time>2026-03-29T14:23:07.553Z</time></trkpt><trkpt lat="44.9210267" lon="1.02293"><ele>180.0</ele><time>2026-03-29T14:23:08.553Z</time></trkpt><trkpt lat="44.92112" lon="1.0229217"><ele>180.0</ele><time>2026-03-29T14:23:09.554Z</time></trkpt><trkpt lat="44.921215" lon="1.0229133"><ele>179.8</ele><time>2026-03-29T14:23:10.553Z</time></trkpt><trkpt lat="44.9213367" lon="1.022885"><ele>179.6</ele><time>2026-03-29T14:23:11.553Z</time></trkpt><trkpt lat="44.9214583" lon="1.0228583"><ele>179.39999999999998</ele><time>2026-03-29T14:23:12.554Z</time></trkpt><trkpt lat="44.92155" lon="1.0228433"><ele>179.2</ele><time>2026-03-29T14:23:13.554Z</time></trkpt><trkpt lat="44.9216133" lon="1.0228617"><ele>179.0</ele><time>2026-03-29T14:23:14.553Z</time></trkpt><trkpt lat="44.9217167" lon="1.0229283"><ele>178.5</ele><time>2026-03-29T14:23:16.554Z</time></trkpt><trkpt lat="44.9217867" lon="1.022975"><ele>178.0</ele><time>2026-03-29T14:23:17.553Z</time></trkpt><trkpt lat="44.9218617" lon="1.0230467"><ele>177.5</ele><time>2026-03-29T14:23:18.554Z</time></trkpt><trkpt lat="44.9219283" lon="1.0231383"><ele>177.0</ele><time>2026-03-29T14:23:19.554Z</time></trkpt><trkpt lat="44.921985" lon="1.0232317"><ele>176.5</ele><time>2026-03-29T14:23:20.553Z</time></trkpt><trkpt lat="44.9220383" lon="1.0233033"><ele>176.0</ele><time>2026-03-29T14:23:21.554Z</time></trkpt><trkpt lat="44.9221" lon="1.0233567"><ele>176.0</ele><time>2026-03-29T14:23:22.554Z</time></trkpt><trkpt lat="44.9221633" lon="1.0233883"><ele>176.0</ele><time>2026-03-29T14:23:23.553Z</time></trkpt><trkpt lat="44.9222333" lon="1.0233917"><ele>176.0</ele><time>2026-03-29T14:23:24.553Z</time></trkpt><trkpt lat="44.92231" lon="1.0233717"><ele>176.0</ele><time>2026-03-29T14:23:25.554Z</time></trkpt><trkpt lat="44.9223767" lon="1.0233367"><ele>176.0</ele><time>2026-03-29T14:23:26.554Z</time></trkpt><trkpt lat="44.92246" lon="1.0232833"><ele>176.0</ele><time>2026-03-29T14:23:27.553Z</time></trkpt><trkpt lat="44.9225317" lon="1.0232233"><ele>174.4</ele><time>2026-03-29T14:23:28.554Z</time></trkpt><trkpt lat="44.9226033" lon="1.0231567"><ele>172.8</ele><time>2026-03-29T14:23:29.554Z</time></trkpt><trkpt lat="44.9226883" lon="1.0230933"><ele>171.20000000000002</ele><time>2026-03-29T14:23:30.553Z</time></trkpt><trkpt lat="44.9227617" lon="1.0230133"><ele>169.60000000000002</ele><time>2026-03-29T14:23:31.554Z</time></trkpt><trkpt lat="44.9228383" lon="1.0229367"><ele>168.0</ele><time>2026-03-29T14:23:32.553Z</time></trkpt><trkpt lat="44.9229033" lon="1.022825"><ele>168.0</ele><time>2026-03-29T14:23:33.553Z</time></trkpt><trkpt lat="44.9230067" lon="1.0227183"><ele>168.0</ele><time>2026-03-29T14:23:34.553Z</time></trkpt><trkpt lat="44.923085" lon="1.0226217"><ele>168.0</ele><time>2026-03-29T14:23:35.554Z</time></trkpt><trkpt lat="44.92313" lon="1.022525"><ele>168.0</ele><time>2026-03-29T14:23:36.553Z</time></trkpt><trkpt lat="44.9231683" lon="1.02244"><ele>168.0</ele><time>2026-03-29T14:23:37.553Z</time></trkpt><trkpt lat="44.923265" lon="1.02235"><ele>168.0</ele><time>2026-03-29T14:23:39.553Z</time></trkpt><trkpt lat="44.9233333" lon="1.02233"><ele>168.0</ele><time>2026-03-29T14:23:40.554Z</time></trkpt><trkpt lat="44.9234267" lon="1.0223467"><ele>168.0</ele><time>2026-03-29T14:23:41.553Z</time></trkpt><trkpt lat="44.9235367" lon="1.0223683"><ele>168.0</ele><time>2026-03-29T14:23:42.554Z</time></trkpt><trkpt lat="44.9236433" lon="1.0223683"><ele>168.0</ele><time>2026-03-29T14:23:43.554Z</time></trkpt><trkpt lat="44.9237467" lon="1.0223667"><ele>165.6</ele><time>2026-03-29T14:23:44.553Z</time></trkpt><trkpt lat="44.9238533" lon="1.0223567"><ele>163.20000000000002</ele><time>2026-03-29T14:23:45.554Z</time></trkpt><trkpt lat="44.9239417" lon="1.0223467"><ele>160.8</ele><time>2026-03-29T14:23:46.554Z</time></trkpt><trkpt lat="44.924025" lon="1.0223317"><ele>158.4</ele><time>2026-03-29T14:23:47.554Z</time></trkpt><trkpt lat="44.9241017" lon="1.0223133"><ele>156.0</ele><time>2026-03-29T14:23:48.554Z</time></trkpt><trkpt lat="44.9242133" lon="1.02229"><ele>155.6</ele><time>2026-03-29T14:23:50.554Z</time></trkpt><trkpt lat="44.9243417" lon="1.022235"><ele>155.2</ele><time>2026-03-29T14:23:52.554Z</time></trkpt><trkpt lat="44.9244117" lon="1.022195"><ele>154.8</ele><time>2026-03-29T14:23:53.554Z</time></trkpt><trkpt lat="44.9244817" lon="1.0221467"><ele>154.4</ele><time>2026-03-29T14:23:54.553Z</time></trkpt><trkpt lat="44.9245733" lon="1.0221167"><ele>154.0</ele><time>2026-03-29T14:23:55.554Z</time></trkpt><trkpt lat="44.9246983" lon="1.02208"><ele>154.0</ele><time>2026-03-29T14:23:56.553Z</time></trkpt><trkpt lat="44.9248133" lon="1.0220717"><ele>154.0</ele><time>2026-03-29T14:23:57.554Z</time></trkpt><trkpt lat="44.9249567" lon="1.022055"><ele>154.0</ele><time>2026-03-29T14:23:58.554Z</time></trkpt><trkpt lat="44.925115" lon="1.0220483"><ele>154.0</ele><time>2026-03-29T14:23:59.553Z</time></trkpt><trkpt lat="44.925225" lon="1.022025"><ele>154.4</ele><time>2026-03-29T14:24:00.554Z</time></trkpt><trkpt lat="44.925345" lon="1.0220033"><ele>154.8</ele><time>2026-03-29T14:24:01.554Z</time></trkpt><trkpt lat="44.92546" lon="1.021985"><ele>155.2</ele><time>2026-03-29T14:24:02.554Z</time></trkpt><trkpt lat="44.9255583" lon="1.0219617"><ele>155.6</ele><time>2026-03-29T14:24:03.554Z</time></trkpt><trkpt lat="44.925655" lon="1.0219367"><ele>156.0</ele><time>2026-03-29T14:24:04.553Z</time></trkpt><trkpt lat="44.9257417" lon="1.0219083"><ele>156.0</ele><time>2026-03-29T14:24:05.553Z</time></trkpt><trkpt lat="44.9258167" lon="1.0218833"><ele>156.0</ele><time>2026-03-29T14:24:06.553Z</time></trkpt><trkpt lat="44.9258817" lon="1.0218567"><ele>156.0</ele><time>2026-03-29T14:24:07.554Z</time></trkpt><trkpt lat="44.9259833" lon="1.0218367"><ele>156.0</ele><time>2026-03-29T14:24:09.553Z</time></trkpt><trkpt lat="44.926045" lon="1.02179"><ele>156.0</ele><time>2026-03-29T14:24:11.553Z</time></trkpt><trkpt lat="44.9261017" lon="1.02168"><ele>156.0</ele><time>2026-03-29T14:24:13.552Z</time></trkpt><trkpt lat="44.9261617" lon="1.021535"><ele>155.5</ele><time>2026-03-29T14:24:15.553Z</time></trkpt><trkpt lat="44.9262117" lon="1.0213933"><ele>155.0</ele><time>2026-03-29T14:24:17.553Z</time></trkpt><trkpt lat="44.92627" lon="1.0212617"><ele>154.5</ele><time>2026-03-29T14:24:19.553Z</time></trkpt><trkpt lat="44.9262867" lon="1.0211733"><ele>154.0</ele><time>2026-03-29T14:24:22.552Z</time></trkpt><trkpt lat="44.9262983" lon="1.0210817"><ele>153.5</ele><time>2026-03-29T14:24:44.553Z</time></trkpt><trkpt lat="44.926325" lon="1.0209917"><ele>153.0</ele><time>2026-03-29T14:24:48.553Z</time></trkpt><trkpt lat="44.9263417" lon="1.0208183"><ele>153.0</ele><time>2026-03-29T14:25:08.553Z</time></trkpt><trkpt lat="44.9264083" lon="1.0206233"><ele>153.0</ele><time>2026-03-29T14:25:20.553Z</time></trkpt><trkpt lat="44.9264717" lon="1.0205767"><ele>153.0</ele><time>2026-03-29T14:25:24.553Z</time></trkpt><trkpt lat="44.92655" lon="1.0205183"><ele>153.0</ele><time>2026-03-29T14:25:32.553Z</time></trkpt><trkpt lat="44.9265517" lon="1.0204017"><ele>153.0</ele><time>2026-03-29T14:25:36.553Z</time></trkpt><trkpt lat="44.9265633" lon="1.0202917"><ele>153.0</ele><time>2026-03-29T14:25:39.553Z</time></trkpt><trkpt lat="44.9266067" lon="1.0201917"><ele>153.0</ele><time>2026-03-29T14:25:43.552Z</time></trkpt><trkpt lat="44.9266633" lon="1.0200117"><ele>153.0</ele><time>2026-03-29T14:26:00.553Z</time></trkpt><trkpt lat="44.92672" lon="1.019895"><ele>153.0</ele><time>2026-03-29T14:26:20.552Z</time></trkpt><trkpt lat="44.9267767" lon="1.0197617"><ele>153.0</ele><time>2026-03-29T14:28:27.551Z</time></trkpt><trkpt lat="44.926835" lon="1.0197167"><ele>150.28571428571428</ele><time>2026-03-29T14:28:31.551Z</time></trkpt><trkpt lat="44.926895" lon="1.019685"><ele>147.57142857142858</ele><time>2026-03-29T14:28:34.552Z</time></trkpt><trkpt lat="44.92696" lon="1.019655"><ele>144.85714285714286</ele><time>2026-03-29T14:28:37.552Z</time></trkpt><trkpt lat="44.9270433" lon="1.0196567"><ele>142.14285714285714</ele><time>2026-03-29T14:28:40.551Z</time></trkpt><trkpt lat="44.927115" lon="1.0196483"><ele>139.42857142857142</ele><time>2026-03-29T14:28:42.551Z</time></trkpt><trkpt lat="44.9271883" lon="1.0196517"><ele>136.71428571428572</ele><time>2026-03-29T14:28:45.552Z</time></trkpt><trkpt lat="44.9272533" lon="1.0196517"><ele>134.0</ele><time>2026-03-29T14:28:48.552Z</time></trkpt><trkpt lat="44.92737" lon="1.0196317"><ele>134.0</ele><time>2026-03-29T14:28:54.551Z</time></trkpt><trkpt lat="44.927435" lon="1.0196467"><ele>134.0</ele><time>2026-03-29T14:28:57.552Z</time></trkpt><trkpt lat="44.9275783" lon="1.0196483"><ele>134.0</ele><time>2026-03-29T14:29:11.551Z</time></trkpt><trkpt lat="44.927655" lon="1.0196317"><ele>134.0</ele><time>2026-03-29T14:29:13.551Z</time></trkpt><trkpt lat="44.9278017" lon="1.0197033"><ele>134.0</ele><time>2026-03-29T14:29:28.551Z</time></trkpt><trkpt lat="44.9279517" lon="1.019745"><ele>133.33333333333331</ele><time>2026-03-29T14:29:38.552Z</time></trkpt><trkpt lat="44.9281117" lon="1.0197483"><ele>132.66666666666666</ele><time>2026-03-29T14:29:46.552Z</time></trkpt><trkpt lat="44.9282117" lon="1.0197967"><ele>132.0</ele><time>2026-03-29T14:29:50.551Z</time></trkpt><trkpt lat="44.9283983" lon="1.0199233"><ele>127.6</ele><time>2026-03-29T14:30:02.551Z</time></trkpt><trkpt lat="44.9284483" lon="1.019995"><ele>123.19999999999999</ele><time>2026-03-29T14:30:04.551Z</time></trkpt><trkpt lat="44.928495" lon="1.0200717"><ele>118.8</ele><time>2026-03-29T14:30:06.552Z</time></trkpt><trkpt lat="44.92857" lon="1.0201383"><ele>114.4</ele><time>2026-03-29T14:30:08.551Z</time></trkpt><trkpt lat="44.9287417" lon="1.0201467"><ele>110.0</ele><time>2026-03-29T14:30:13.551Z</time></trkpt><trkpt lat="44.9288383" lon="1.020105"><ele>110.0</ele><time>2026-03-29T14:30:15.551Z</time></trkpt><trkpt lat="44.92898" lon="1.0200667"><ele>110.0</ele><time>2026-03-29T14:30:17.552Z</time></trkpt><trkpt lat="44.929095" lon="1.0200183"><ele>110.0</ele><time>2026-03-29T14:30:19.552Z</time></trkpt><trkpt lat="44.9291867" lon="1.01997"><ele>110.0</ele><time>2026-03-29T14:30:21.551Z</time></trkpt><trkpt lat="44.9292633" lon="1.019925"><ele>110.0</ele><time>2026-03-29T14:30:23.552Z</time></trkpt><trkpt lat="44.9293367" lon="1.0198483"><ele>108.66666666666666</ele><time>2026-03-29T14:30:25.552Z</time></trkpt><trkpt lat="44.9293783" lon="1.0197717"><ele>107.33333333333333</ele><time>2026-03-29T14:30:27.551Z</time></trkpt><trkpt lat="44.929425" lon="1.0196967"><ele>106.0</ele><time>2026-03-29T14:30:29.551Z</time></trkpt><trkpt lat="44.9294983" lon="1.019595"><ele>104.66666666666666</ele><time>2026-03-29T14:30:31.551Z</time></trkpt><trkpt lat="44.929545" lon="1.0195233"><ele>103.33333333333333</ele><time>2026-03-29T14:30:32.551Z</time></trkpt><trkpt lat="44.9296" lon="1.0194317"><ele>102.0</ele><time>2026-03-29T14:30:34.552Z</time></trkpt><trkpt lat="44.9296717" lon="1.019355"><ele>102.0</ele><time>2026-03-29T14:30:37.551Z</time></trkpt><trkpt lat="44.929735" lon="1.0193167"><ele>102.0</ele><time>2026-03-29T14:30:40.552Z</time></trkpt><trkpt lat="44.9298167" lon="1.019345"><ele>102.0</ele><time>2026-03-29T14:30:43.552Z</time></trkpt><trkpt lat="44.9299217" lon="1.0193217"><ele>102.0</ele><time>2026-03-29T14:30:47.552Z</time></trkpt><trkpt lat="44.9299867" lon="1.0192583"><ele>102.0</ele><time>2026-03-29T14:30:50.552Z</time></trkpt><trkpt lat="44.930075" lon="1.01916"><ele>102.0</ele><time>2026-03-29T14:31:20.551Z</time></trkpt><trkpt lat="44.930135" lon="1.0191283"><ele>102.0</ele><time>2026-03-29T14:31:23.552Z</time></trkpt><trkpt lat="44.93019" lon="1.0190717"><ele>102.0</ele><time>2026-03-29T14:31:25.552Z</time></trkpt><trkpt lat="44.93024" lon="1.0189783"><ele>102.0</ele><time>2026-03-29T14:31:27.552Z</time></trkpt><trkpt lat="44.9302883" lon="1.0188383"><ele>102.0</ele><time>2026-03-29T14:31:29.551Z</time></trkpt><trkpt lat="44.930345" lon="1.0186867"><ele>102.0</ele><time>2026-03-29T14:31:31.551Z</time></trkpt><trkpt lat="44.93038" lon="1.01861"><ele>102.0</ele><time>2026-03-29T14:31:32.551Z</time></trkpt><trkpt lat="44.9304167" lon="1.0185367"><ele>102.0</ele><time>2026-03-29T14:31:33.552Z</time></trkpt><trkpt lat="44.9305017" lon="1.0184133"><ele>102.0</ele><time>2026-03-29T14:31:35.551Z</time></trkpt><trkpt lat="44.9305767" lon="1.01828"><ele>102.0</ele><time>2026-03-29T14:31:37.551Z</time></trkpt><trkpt lat="44.9306167" lon="1.0182067"><ele>102.0</ele><time>2026-03-29T14:31:38.552Z</time></trkpt><trkpt lat="44.9306617" lon="1.0181317"><ele>102.0</ele><time>2026-03-29T14:31:39.552Z</time></trkpt><trkpt lat="44.9307183" lon="1.0180633"><ele>100.5</ele><time>2026-03-29T14:31:40.552Z</time></trkpt><trkpt lat="44.9307683" lon="1.0180017"><ele>99.0</ele><time>2026-03-29T14:31:41.552Z</time></trkpt><trkpt lat="44.93083" lon="1.0179467"><ele>97.5</ele><time>2026-03-29T14:31:42.551Z</time></trkpt><trkpt lat="44.930885" lon="1.0179"><ele>96.0</ele><time>2026-03-29T14:31:43.551Z</time></trkpt><trkpt lat="44.9309483" lon="1.017865"><ele>94.5</ele><time>2026-03-29T14:31:44.552Z</time></trkpt><trkpt lat="44.9310567" lon="1.0177883"><ele>93.0</ele><time>2026-03-29T14:31:46.551Z</time></trkpt><trkpt lat="44.9311733" lon="1.0177117"><ele>93.0</ele><time>2026-03-29T14:31:48.55Z</time></trkpt><trkpt lat="44.9312533" lon="1.0176567"><ele>93.0</ele><time>2026-03-29T14:31:49.55Z</time></trkpt><trkpt lat="44.9313383" lon="1.0175967"><ele>93.0</ele><time>2026-03-29T14:31:50.551Z</time></trkpt><trkpt lat="44.9314283" lon="1.01752"><ele>93.0</ele><time>2026-03-29T14:31:51.55Z</time></trkpt><trkpt lat="44.9315317" lon="1.0174383"><ele>93.0</ele><time>2026-03-29T14:31:52.55Z</time></trkpt><trkpt lat="44.93163" lon="1.0173633"><ele>90.5</ele><time>2026-03-29T14:31:53.551Z</time></trkpt><trkpt lat="44.9317333" lon="1.01728"><ele>88.0</ele><time>2026-03-29T14:31:54.55Z</time></trkpt><trkpt lat="44.9318533" lon="1.0171633"><ele>85.5</ele><time>2026-03-29T14:31:55.55Z</time></trkpt><trkpt lat="44.9319717" lon="1.0170633"><ele>83.0</ele><time>2026-03-29T14:31:56.551Z</time></trkpt><trkpt lat="44.93209" lon="1.0169633"><ele>83.0</ele><time>2026-03-29T14:31:57.551Z</time></trkpt><trkpt lat="44.9321983" lon="1.01686"><ele>83.0</ele><time>2026-03-29T14:31:58.551Z</time></trkpt><trkpt lat="44.932295" lon="1.0167783"><ele>83.0</ele><time>2026-03-29T14:31:59.551Z</time></trkpt><trkpt lat="44.9323933" lon="1.016705"><ele>83.0</ele><time>2026-03-29T14:32:00.55Z</time></trkpt><trkpt lat="44.9324917" lon="1.0166383"><ele>82.4</ele><time>2026-03-29T14:32:01.551Z</time></trkpt><trkpt lat="44.9325933" lon="1.0165683"><ele>81.80000000000001</ele><time>2026-03-29T14:32:02.55Z</time></trkpt><trkpt lat="44.9326867" lon="1.0164817"><ele>81.2</ele><time>2026-03-29T14:32:03.551Z</time></trkpt><trkpt lat="44.9327767" lon="1.0164067"><ele>80.6</ele><time>2026-03-29T14:32:04.55Z</time></trkpt><trkpt lat="44.9328583" lon="1.0163333"><ele>80.0</ele><time>2026-03-29T14:32:05.551Z</time></trkpt><trkpt lat="44.93293" lon="1.0162517"><ele>80.0</ele><time>2026-03-29T14:32:06.551Z</time></trkpt><trkpt lat="44.9330033" lon="1.0161733"><ele>80.0</ele><time>2026-03-29T14:32:07.55Z</time></trkpt><trkpt lat="44.9330783" lon="1.0160967"><ele>80.0</ele><time>2026-03-29T14:32:08.55Z</time></trkpt><trkpt lat="44.93314" lon="1.0160183"><ele>80.0</ele><time>2026-03-29T14:32:09.551Z</time></trkpt><trkpt lat="44.9331967" lon="1.0159167"><ele>80.0</ele><time>2026-03-29T14:32:10.55Z</time></trkpt><trkpt lat="44.93325" lon="1.01581"><ele>78.16666666666667</ele><time>2026-03-29T14:32:11.55Z</time></trkpt><trkpt lat="44.9333133" lon="1.0157117"><ele>76.33333333333334</ele><time>2026-03-29T14:32:12.551Z</time></trkpt><trkpt lat="44.933375" lon="1.015605"><ele>74.5</ele><time>2026-03-29T14:32:13.551Z</time></trkpt><trkpt lat="44.9334417" lon="1.0155117"><ele>72.66666666666667</ele><time>2026-03-29T14:32:14.551Z</time></trkpt><trkpt lat="44.9335" lon="1.0154183"><ele>70.83333333333333</ele><time>2026-03-29T14:32:15.551Z</time></trkpt><trkpt lat="44.9335433" lon="1.0153483"><ele>69.0</ele><time>2026-03-29T14:32:16.551Z</time></trkpt><trkpt lat="44.9336167" lon="1.0152483"><ele>69.0</ele><time>2026-03-29T14:32:18.551Z</time></trkpt><trkpt lat="44.9336783" lon="1.0151717"><ele>69.0</ele><time>2026-03-29T14:32:24.55Z</time></trkpt><trkpt lat="44.933745" lon="1.015115"><ele>69.0</ele><time>2026-03-29T14:32:28.55Z</time></trkpt><trkpt lat="44.93382" lon="1.015025"><ele>69.0</ele><time>2026-03-29T14:32:33.551Z</time></trkpt><trkpt lat="44.9338783" lon="1.0149817"><ele>69.0</ele><time>2026-03-29T14:32:34.55Z</time></trkpt><trkpt lat="44.9339517" lon="1.0149367"><ele>69.0</ele><time>2026-03-29T14:32:35.55Z</time></trkpt><trkpt lat="44.9341217" lon="1.0148533"><ele>68.66666666666667</ele><time>2026-03-29T14:32:37.55Z</time></trkpt><trkpt lat="44.9341933" lon="1.0148233"><ele>68.33333333333333</ele><time>2026-03-29T14:32:38.55Z</time></trkpt><trkpt lat="44.9342567" lon="1.0147867"><ele>68.0</ele><time>2026-03-29T14:32:39.551Z</time></trkpt><trkpt lat="44.934365" lon="1.0147133"><ele>67.66666666666666</ele><time>2026-03-29T14:32:41.551Z</time></trkpt><trkpt lat="44.93442" lon="1.014655"><ele>67.33333333333333</ele><time>2026-03-29T14:32:42.55Z</time></trkpt><trkpt lat="44.9344667" lon="1.01458"><ele>67.0</ele><time>2026-03-29T14:32:43.55Z</time></trkpt><trkpt lat="44.93452" lon="1.014505"><ele>67.0</ele><time>2026-03-29T14:32:44.551Z</time></trkpt><trkpt lat="44.934555" lon="1.0144133"><ele>67.0</ele><time>2026-03-29T14:32:45.551Z</time></trkpt><trkpt lat="44.9345833" lon="1.01432"><ele>67.0</ele><time>2026-03-29T14:32:46.55Z</time></trkpt><trkpt lat="44.9346117" lon="1.0142217"><ele>67.0</ele><time>2026-03-29T14:32:47.55Z</time></trkpt><trkpt lat="44.9346383" lon="1.014125"><ele>67.0</ele><time>2026-03-29T14:32:48.55Z</time></trkpt><trkpt lat="44.9346833" lon="1.0140033"><ele>67.0</ele><time>2026-03-29T14:32:50.55Z</time></trkpt><trkpt lat="44.9347767" lon="1.01407"><ele>67.0</ele><time>2026-03-29T14:32:52.55Z</time></trkpt><trkpt lat="44.9348333" lon="1.0141417"><ele>67.0</ele><time>2026-03-29T14:32:54.55Z</time></trkpt><trkpt lat="44.93488" lon="1.01422"><ele>67.0</ele><time>2026-03-29T14:32:57.55Z</time></trkpt><trkpt lat="44.9349367" lon="1.01426"><ele>67.0</ele><time>2026-03-29T14:33:01.551Z</time></trkpt><trkpt lat="44.935015" lon="1.014225"><ele>67.0</ele><time>2026-03-29T14:33:04.55Z</time></trkpt><trkpt lat="44.93514" lon="1.0140883"><ele>67.6</ele><time>2026-03-29T14:33:06.55Z</time></trkpt><trkpt lat="44.9352133" lon="1.014005"><ele>68.2</ele><time>2026-03-29T14:33:07.551Z</time></trkpt><trkpt lat="44.9352883" lon="1.0139183"><ele>68.8</ele><time>2026-03-29T14:33:08.55Z</time></trkpt><trkpt lat="44.935385" lon="1.0138333"><ele>69.4</ele><time>2026-03-29T14:33:09.55Z</time></trkpt><trkpt lat="44.9354767" lon="1.0137417"><ele>70.0</ele><time>2026-03-29T14:33:10.551Z</time></trkpt><trkpt lat="44.9355733" lon="1.0136567"><ele>70.0</ele><time>2026-03-29T14:33:11.551Z</time></trkpt><trkpt lat="44.93566" lon="1.013575"><ele>70.0</ele><time>2026-03-29T14:33:12.551Z</time></trkpt><trkpt lat="44.93574" lon="1.0135067"><ele>70.0</ele><time>2026-03-29T14:33:13.551Z</time></trkpt><trkpt lat="44.9358117" lon="1.0134233"><ele>70.0</ele><time>2026-03-29T14:33:14.55Z</time></trkpt><trkpt lat="44.93588" lon="1.0133617"><ele>70.0</ele><time>2026-03-29T14:33:15.551Z</time></trkpt><trkpt lat="44.9359467" lon="1.0133083"><ele>70.0</ele><time>2026-03-29T14:33:16.551Z</time></trkpt><trkpt lat="44.936005" lon="1.0132567"><ele>70.6</ele><time>2026-03-29T14:33:17.55Z</time></trkpt><trkpt lat="44.93611" lon="1.0131567"><ele>71.2</ele><time>2026-03-29T14:33:19.551Z</time></trkpt><trkpt lat="44.9361633" lon="1.013105"><ele>71.8</ele><time>2026-03-29T14:33:20.55Z</time></trkpt><trkpt lat="44.9362583" lon="1.0129917"><ele>72.4</ele><time>2026-03-29T14:33:22.551Z</time></trkpt><trkpt lat="44.9363117" lon="1.0129367"><ele>73.0</ele><time>2026-03-29T14:33:23.55Z</time></trkpt><trkpt lat="44.9363667" lon="1.0128783"><ele>73.0</ele><time>2026-03-29T14:33:24.551Z</time></trkpt><trkpt lat="44.936425" lon="1.0128233"><ele>73.0</ele><time>2026-03-29T14:33:25.55Z</time></trkpt><trkpt lat="44.9364817" lon="1.0127767"><ele>73.0</ele><time>2026-03-29T14:33:26.551Z</time></trkpt><trkpt lat="44.9365483" lon="1.012725"><ele>73.0</ele><time>2026-03-29T14:33:27.55Z</time></trkpt><trkpt lat="44.9366167" lon="1.012685"><ele>73.0</ele><time>2026-03-29T14:33:28.551Z</time></trkpt><trkpt lat="44.9366783" lon="1.01263"><ele>73.0</ele><time>2026-03-29T14:33:29.55Z</time></trkpt><trkpt lat="44.9367467" lon="1.0125733"><ele>73.0</ele><time>2026-03-29T14:33:30.551Z</time></trkpt><trkpt lat="44.9368167" lon="1.0125233"><ele>72.28571428571428</ele><time>2026-03-29T14:33:31.551Z</time></trkpt><trkpt lat="44.936885" lon="1.01248"><ele>71.57142857142857</ele><time>2026-03-29T14:33:32.551Z</time></trkpt><trkpt lat="44.9369533" lon="1.012435"><ele>70.85714285714286</ele><time>2026-03-29T14:33:33.551Z</time></trkpt><trkpt lat="44.937015" lon="1.01238"><ele>70.14285714285714</ele><time>2026-03-29T14:33:34.55Z</time></trkpt><trkpt lat="44.937085" lon="1.0123383"><ele>69.42857142857143</ele><time>2026-03-29T14:33:35.55Z</time></trkpt><trkpt lat="44.9371483" lon="1.0122933"><ele>68.71428571428571</ele><time>2026-03-29T14:33:36.551Z</time></trkpt><trkpt lat="44.9372217" lon="1.0122517"><ele>68.0</ele><time>2026-03-29T14:33:37.551Z</time></trkpt><trkpt lat="44.9372967" lon="1.012215"><ele>68.0</ele><time>2026-03-29T14:33:38.55Z</time></trkpt><trkpt lat="44.937365" lon="1.012175"><ele>68.0</ele><time>2026-03-29T14:33:39.551Z</time></trkpt><trkpt lat="44.9374333" lon="1.0121383"><ele>68.0</ele><time>2026-03-29T14:33:40.55Z</time></trkpt><trkpt lat="44.9374917" lon="1.0120867"><ele>68.0</ele><time>2026-03-29T14:33:41.551Z</time></trkpt><trkpt lat="44.9375567" lon="1.0120667"><ele>68.0</ele><time>2026-03-29T14:33:42.55Z</time></trkpt><trkpt lat="44.9376183" lon="1.0120467"><ele>68.0</ele><time>2026-03-29T14:33:44.551Z</time></trkpt><trkpt lat="44.9375667" lon="1.011865"><ele>68.0</ele><time>2026-03-29T14:33:52.551Z</time></trkpt><trkpt lat="44.9375183" lon="1.011755"><ele>68.0</ele><time>2026-03-29T14:33:53.551Z</time></trkpt><trkpt lat="44.937465" lon="1.0116233"><ele>68.0</ele><time>2026-03-29T14:33:54.551Z</time></trkpt><trkpt lat="44.9374133" lon="1.011485"><ele>68.0</ele><time>2026-03-29T14:33:55.551Z</time></trkpt><trkpt lat="44.9373733" lon="1.0113567"><ele>68.0</ele><time>2026-03-29T14:33:56.551Z</time></trkpt><trkpt lat="44.937335" lon="1.011245"><ele>66.6</ele><time>2026-03-29T14:33:57.551Z</time></trkpt><trkpt lat="44.9373" lon="1.01115"><ele>65.19999999999999</ele><time>2026-03-29T14:33:58.551Z</time></trkpt><trkpt lat="44.9372767" lon="1.0110533"><ele>63.8</ele><time>2026-03-29T14:33:59.55Z</time></trkpt><trkpt lat="44.9372583" lon="1.0108783"><ele>62.4</ele><time>2026-03-29T14:34:01.55Z</time></trkpt><trkpt lat="44.9373183" lon="1.0107217"><ele>61.0</ele><time>2026-03-29T14:34:03.55Z</time></trkpt><trkpt lat="44.9373683" lon="1.0106567"><ele>60.99999999999999</ele><time>2026-03-29T14:34:04.55Z</time></trkpt><trkpt lat="44.9374267" lon="1.0105917"><ele>61.0</ele><time>2026-03-29T14:34:05.55Z</time></trkpt><trkpt lat="44.9374833" lon="1.0105317"><ele>61.0</ele><time>2026-03-29T14:34:06.55Z</time></trkpt><trkpt lat="44.9375467" lon="1.0104567"><ele>61.0</ele><time>2026-03-29T14:34:07.551Z</time></trkpt><trkpt lat="44.937605" lon="1.0103683"><ele>60.99999999999999</ele><time>2026-03-29T14:34:08.55Z</time></trkpt><trkpt lat="44.9376667" lon="1.0103033"><ele>61.0</ele><time>2026-03-29T14:34:09.551Z</time></trkpt><trkpt lat="44.9377317" lon="1.0102583"><ele>61.14285714285714</ele><time>2026-03-29T14:34:10.55Z</time></trkpt><trkpt lat="44.937785" lon="1.0101917"><ele>61.285714285714285</ele><time>2026-03-29T14:34:11.55Z</time></trkpt><trkpt lat="44.9378333" lon="1.01012"><ele>61.42857142857143</ele><time>2026-03-29T14:34:12.55Z</time></trkpt><trkpt lat="44.9378883" lon="1.0100433"><ele>61.57142857142857</ele><time>2026-03-29T14:34:13.55Z</time></trkpt><trkpt lat="44.9379367" lon="1.00998"><ele>61.71428571428572</ele><time>2026-03-29T14:34:14.55Z</time></trkpt><trkpt lat="44.937985" lon="1.00991"><ele>61.85714285714286</ele><time>2026-03-29T14:34:15.55Z</time></trkpt><trkpt lat="44.93804" lon="1.0098417"><ele>62.0</ele><time>2026-03-29T14:34:16.55Z</time></trkpt><trkpt lat="44.9380867" lon="1.0097617"><ele>62.00000000000001</ele><time>2026-03-29T14:34:17.551Z</time></trkpt><trkpt lat="44.9381383" lon="1.0096867"><ele>62.0</ele><time>2026-03-29T14:34:18.551Z</time></trkpt><trkpt lat="44.9381917" lon="1.0096167"><ele>62.0</ele><time>2026-03-29T14:34:19.55Z</time></trkpt><trkpt lat="44.9382617" lon="1.0095417"><ele>62.0</ele><time>2026-03-29T14:34:20.551Z</time></trkpt><trkpt lat="44.9383367" lon="1.0094633"><ele>62.00000000000001</ele><time>2026-03-29T14:34:21.551Z</time></trkpt><trkpt lat="44.9384117" lon="1.0093867"><ele>62.0</ele><time>2026-03-29T14:34:22.551Z</time></trkpt><trkpt lat="44.938485" lon="1.00931"><ele>62.00000000000001</ele><time>2026-03-29T14:34:23.55Z</time></trkpt><trkpt lat="44.9385533" lon="1.00924"><ele>62.0</ele><time>2026-03-29T14:34:24.551Z</time></trkpt><trkpt lat="44.938625" lon="1.0091783"><ele>62.0</ele><time>2026-03-29T14:34:25.55Z</time></trkpt><trkpt lat="44.9386967" lon="1.0091183"><ele>62.0</ele><time>2026-03-29T14:34:26.55Z</time></trkpt><trkpt lat="44.9387733" lon="1.0090517"><ele>62.00000000000001</ele><time>2026-03-29T14:34:27.55Z</time></trkpt><trkpt lat="44.9388617" lon="1.0089883"><ele>62.0</ele><time>2026-03-29T14:34:28.551Z</time></trkpt><trkpt lat="44.9389517" lon="1.008935"><ele>61.8</ele><time>2026-03-29T14:34:29.551Z</time></trkpt><trkpt lat="44.9390433" lon="1.0088983"><ele>61.6</ele><time>2026-03-29T14:34:30.551Z</time></trkpt><trkpt lat="44.9391367" lon="1.0088783"><ele>61.39999999999999</ele><time>2026-03-29T14:34:31.55Z</time></trkpt><trkpt lat="44.9392283" lon="1.0088533"><ele>61.199999999999996</ele><time>2026-03-29T14:34:32.551Z</time></trkpt><trkpt lat="44.9393217" lon="1.0088317"><ele>61.0</ele><time>2026-03-29T14:34:33.551Z</time></trkpt><trkpt lat="44.9394083" lon="1.0087917"><ele>61.599999999999994</ele><time>2026-03-29T14:34:34.551Z</time></trkpt><trkpt lat="44.9394833" lon="1.0087583"><ele>62.199999999999996</ele><time>2026-03-29T14:34:35.55Z</time></trkpt><trkpt lat="44.93957" lon="1.0087017"><ele>62.800000000000004</ele><time>2026-03-29T14:34:36.551Z</time></trkpt><trkpt lat="44.9396583" lon="1.008615"><ele>63.400000000000006</ele><time>2026-03-29T14:34:37.55Z</time></trkpt><trkpt lat="44.9397383" lon="1.00853"><ele>64.0</ele><time>2026-03-29T14:34:38.55Z</time></trkpt><trkpt lat="44.939815" lon="1.0084417"><ele>63.99999999999999</ele><time>2026-03-29T14:34:39.551Z</time></trkpt><trkpt lat="44.939895" lon="1.0083533"><ele>64.0</ele><time>2026-03-29T14:34:40.55Z</time></trkpt><trkpt lat="44.9399617" lon="1.008255"><ele>64.0</ele><time>2026-03-29T14:34:41.551Z</time></trkpt><trkpt lat="44.940025" lon="1.008165"><ele>64.0</ele><time>2026-03-29T14:34:42.55Z</time></trkpt><trkpt lat="44.9400767" lon="1.00807"><ele>63.99999999999999</ele><time>2026-03-29T14:34:43.55Z</time></trkpt><trkpt lat="44.9401267" lon="1.00799"><ele>64.0</ele><time>2026-03-29T14:34:44.551Z</time></trkpt><trkpt lat="44.9401783" lon="1.007905"><ele>63.83333333333333</ele><time>2026-03-29T14:34:45.551Z</time></trkpt><trkpt lat="44.9402217" lon="1.00784"><ele>63.666666666666664</ele><time>2026-03-29T14:34:46.551Z</time></trkpt><trkpt lat="44.9402867" lon="1.00774"><ele>63.5</ele><time>2026-03-29T14:34:48.551Z</time></trkpt><trkpt lat="44.9403383" lon="1.00764"><ele>63.33333333333333</ele><time>2026-03-29T14:34:50.55Z</time></trkpt><trkpt lat="44.940385" lon="1.0075567"><ele>63.166666666666664</ele><time>2026-03-29T14:34:52.551Z</time></trkpt><trkpt lat="44.9404317" lon="1.007475"><ele>63.0</ele><time>2026-03-29T14:34:56.55Z</time></trkpt><trkpt lat="44.940495" lon="1.0074183"><ele>63.0</ele><time>2026-03-29T14:35:00.55Z</time></trkpt><trkpt lat="44.9405317" lon="1.0073317"><ele>63.0</ele><time>2026-03-29T14:35:04.55Z</time></trkpt><trkpt lat="44.9405117" lon="1.0072267"><ele>63.0</ele><time>2026-03-29T14:35:06.55Z</time></trkpt><trkpt lat="44.9404683" lon="1.0071567"><ele>63.0</ele><time>2026-03-29T14:35:07.55Z</time></trkpt><trkpt lat="44.9404017" lon="1.0070733"><ele>63.0</ele><time>2026-03-29T14:35:08.551Z</time></trkpt><trkpt lat="44.940315" lon="1.00698"><ele>63.0</ele><time>2026-03-29T14:35:09.551Z</time></trkpt><trkpt lat="44.9402283" lon="1.0068767"><ele>63.0</ele><time>2026-03-29T14:35:10.551Z</time></trkpt><trkpt lat="44.9401433" lon="1.0067817"><ele>63.0</ele><time>2026-03-29T14:35:11.551Z</time></trkpt><trkpt lat="44.940055" lon="1.0066833"><ele>63.0</ele><time>2026-03-29T14:35:12.55Z</time></trkpt><trkpt lat="44.9399683" lon="1.0065917"><ele>63.0</ele><time>2026-03-29T14:35:13.551Z</time></trkpt><trkpt lat="44.9398833" lon="1.0065133"><ele>63.0</ele><time>2026-03-29T14:35:14.551Z</time></trkpt><trkpt lat="44.9397983" lon="1.0064383"><ele>62.4</ele><time>2026-03-29T14:35:15.55Z</time></trkpt><trkpt lat="44.9397167" lon="1.0063567"><ele>61.8</ele><time>2026-03-29T14:35:16.551Z</time></trkpt><trkpt lat="44.9396317" lon="1.00626"><ele>61.2</ele><time>2026-03-29T14:35:17.55Z</time></trkpt><trkpt lat="44.9395483" lon="1.0061567"><ele>60.6</ele><time>2026-03-29T14:35:18.551Z</time></trkpt><trkpt lat="44.9394683" lon="1.00604"><ele>60.0</ele><time>2026-03-29T14:35:19.551Z</time></trkpt><trkpt lat="44.9393833" lon="1.00593"><ele>60.0</ele><time>2026-03-29T14:35:20.551Z</time></trkpt><trkpt lat="44.939315" lon="1.0057833"><ele>60.0</ele><time>2026-03-29T14:35:21.551Z</time></trkpt><trkpt lat="44.9392417" lon="1.0056367"><ele>60.0</ele><time>2026-03-29T14:35:22.55Z</time></trkpt><trkpt lat="44.93918" lon="1.005485"><ele>60.0</ele><time>2026-03-29T14:35:23.551Z</time></trkpt><trkpt lat="44.9391133" lon="1.0053517"><ele>60.2</ele><time>2026-03-29T14:35:24.551Z</time></trkpt><trkpt lat="44.9390517" lon="1.005225"><ele>60.4</ele><time>2026-03-29T14:35:25.55Z</time></trkpt><trkpt lat="44.9390033" lon="1.0050917"><ele>60.599999999999994</ele><time>2026-03-29T14:35:26.551Z</time></trkpt><trkpt lat="44.9389633" lon="1.00497"><ele>60.8</ele><time>2026-03-29T14:35:27.55Z</time></trkpt><trkpt lat="44.938925" lon="1.0048333"><ele>61.0</ele><time>2026-03-29T14:35:28.55Z</time></trkpt><trkpt lat="44.9389083" lon="1.0047067"><ele>63.0</ele><time>2026-03-29T14:35:29.551Z</time></trkpt><trkpt lat="44.93891" lon="1.0045633"><ele>65.0</ele><time>2026-03-29T14:35:30.55Z</time></trkpt><trkpt lat="44.9389317" lon="1.0044267"><ele>67.0</ele><time>2026-03-29T14:35:31.55Z</time></trkpt><trkpt lat="44.9389867" lon="1.004315"><ele>69.0</ele><time>2026-03-29T14:35:32.55Z</time></trkpt><trkpt lat="44.939045" lon="1.0042"><ele>71.0</ele><time>2026-03-29T14:35:33.55Z</time></trkpt><trkpt lat="44.9391317" lon="1.0041"><ele>72.5</ele><time>2026-03-29T14:35:34.55Z</time></trkpt><trkpt lat="44.93922" lon="1.0039867"><ele>74.0</ele><time>2026-03-29T14:35:35.55Z</time></trkpt><trkpt lat="44.93932" lon="1.003875"><ele>75.5</ele><time>2026-03-29T14:35:36.55Z</time></trkpt><trkpt lat="44.9394183" lon="1.0037683"><ele>77.0</ele><time>2026-03-29T14:35:37.549Z</time></trkpt><trkpt lat="44.9395133" lon="1.0036533"><ele>77.0</ele><time>2026-03-29T14:35:38.55Z</time></trkpt><trkpt lat="44.9396083" lon="1.0035517"><ele>77.0</ele><time>2026-03-29T14:35:39.55Z</time></trkpt><trkpt lat="44.93972" lon="1.003455"><ele>77.0</ele><time>2026-03-29T14:35:40.549Z</time></trkpt><trkpt lat="44.93983" lon="1.0033517"><ele>77.0</ele><time>2026-03-29T14:35:41.549Z</time></trkpt><trkpt lat="44.9399383" lon="1.0032483"><ele>77.75</ele><time>2026-03-29T14:35:42.55Z</time></trkpt><trkpt lat="44.94005" lon="1.0031733"><ele>78.5</ele><time>2026-03-29T14:35:43.55Z</time></trkpt><trkpt lat="44.9401583" lon="1.003085"><ele>79.25</ele><time>2026-03-29T14:35:44.549Z</time></trkpt><trkpt lat="44.9402783" lon="1.00301"><ele>80.0</ele><time>2026-03-29T14:35:45.549Z</time></trkpt><trkpt lat="44.94039" lon="1.0029333"><ele>80.0</ele><time>2026-03-29T14:35:46.549Z</time></trkpt><trkpt lat="44.940495" lon="1.00284"><ele>80.0</ele><time>2026-03-29T14:35:47.55Z</time></trkpt><trkpt lat="44.94061" lon="1.002735"><ele>80.0</ele><time>2026-03-29T14:35:48.55Z</time></trkpt><trkpt lat="44.940715" lon="1.00262"><ele>80.0</ele><time>2026-03-29T14:35:49.549Z</time></trkpt><trkpt lat="44.9408267" lon="1.0025083"><ele>82.5</ele><time>2026-03-29T14:35:50.55Z</time></trkpt><trkpt lat="44.9409467" lon="1.0024167"><ele>85.0</ele><time>2026-03-29T14:35:51.55Z</time></trkpt><trkpt lat="44.94107" lon="1.00232"><ele>87.5</ele><time>2026-03-29T14:35:52.549Z</time></trkpt><trkpt lat="44.9411783" lon="1.0021633"><ele>90.0</ele><time>2026-03-29T14:35:53.55Z</time></trkpt><trkpt lat="44.941275" lon="1.002015"><ele>90.0</ele><time>2026-03-29T14:35:54.55Z</time></trkpt><trkpt lat="44.9413867" lon="1.0018967"><ele>90.0</ele><time>2026-03-29T14:35:55.55Z</time></trkpt><trkpt lat="44.9415017" lon="1.0017783"><ele>90.0</ele><time>2026-03-29T14:35:56.549Z</time></trkpt><trkpt lat="44.9416317" lon="1.0016433"><ele>90.0</ele><time>2026-03-29T14:35:57.55Z</time></trkpt><trkpt lat="44.9417567" lon="1.0015383"><ele>90.75</ele><time>2026-03-29T14:35:58.55Z</time></trkpt><trkpt lat="44.9418817" lon="1.0014267"><ele>91.5</ele><time>2026-03-29T14:35:59.55Z</time></trkpt><trkpt lat="44.9419833" lon="1.001275"><ele>92.25</ele><time>2026-03-29T14:36:00.549Z</time></trkpt><trkpt lat="44.9420667" lon="1.0011133"><ele>93.0</ele><time>2026-03-29T14:36:01.55Z</time></trkpt><trkpt lat="44.9421483" lon="1.000955"><ele>91.0</ele><time>2026-03-29T14:36:02.55Z</time></trkpt><trkpt lat="44.942245" lon="1.0008283"><ele>89.0</ele><time>2026-03-29T14:36:03.549Z</time></trkpt><trkpt lat="44.94234" lon="1.0007217"><ele>87.0</ele><time>2026-03-29T14:36:04.549Z</time></trkpt><trkpt lat="44.9424467" lon="1.0005983"><ele>85.0</ele><time>2026-03-29T14:36:05.549Z</time></trkpt><trkpt lat="44.9425567" lon="1.0004933"><ele>85.0</ele><time>2026-03-29T14:36:06.549Z</time></trkpt><trkpt lat="44.9426683" lon="1.0003967"><ele>85.0</ele><time>2026-03-29T14:36:07.549Z</time></trkpt><trkpt lat="44.9427733" lon="1.0002817"><ele>85.0</ele><time>2026-03-29T14:36:08.549Z</time></trkpt><trkpt lat="44.9428783" lon="1.0001833"><ele>85.0</ele><time>2026-03-29T14:36:09.55Z</time></trkpt><trkpt lat="44.9429817" lon="1.0001017"><ele>85.0</ele><time>2026-03-29T14:36:10.549Z</time></trkpt><trkpt lat="44.9430867" lon="1.0"><ele>85.0</ele><time>2026-03-29T14:36:11.55Z</time></trkpt><trkpt lat="44.943195" lon="0.9999067"><ele>85.0</ele><time>2026-03-29T14:36:12.55Z</time></trkpt><trkpt lat="44.9432933" lon="0.9998067"><ele>85.0</ele><time>2026-03-29T14:36:13.55Z</time></trkpt><trkpt lat="44.9433833" lon="0.99976"><ele>81.0</ele><time>2026-03-29T14:36:14.549Z</time></trkpt><trkpt lat="44.9434617" lon="0.9997167"><ele>77.0</ele><time>2026-03-29T14:36:15.549Z</time></trkpt><trkpt lat="44.94353" lon="0.9997367"><ele>73.0</ele><time>2026-03-29T14:36:16.549Z</time></trkpt><trkpt lat="44.9436217" lon="0.9996967"><ele>69.0</ele><time>2026-03-29T14:36:18.55Z</time></trkpt><trkpt lat="44.94368" lon="0.9996467"><ele>65.0</ele><time>2026-03-29T14:36:20.55Z</time></trkpt><trkpt lat="44.9437917" lon="0.9995083"><ele>65.0</ele><time>2026-03-29T14:36:33.55Z</time></trkpt><trkpt lat="44.9438867" lon="0.99943"><ele>65.0</ele><time>2026-03-29T14:37:01.55Z</time></trkpt><trkpt lat="44.9438633" lon="0.999305"><ele>65.0</ele><time>2026-03-29T14:37:04.55Z</time></trkpt><trkpt lat="44.9438333" lon="0.999155"><ele>65.0</ele><time>2026-03-29T14:37:06.549Z</time></trkpt><trkpt lat="44.943795" lon="0.9990117"><ele>65.0</ele><time>2026-03-29T14:37:08.55Z</time></trkpt><trkpt lat="44.9437417" lon="0.9989167"><ele>66.0</ele><time>2026-03-29T14:37:10.549Z</time></trkpt><trkpt lat="44.943705" lon="0.9988267"><ele>67.0</ele><time>2026-03-29T14:37:12.549Z</time></trkpt><trkpt lat="44.94364" lon="0.9987033"><ele>68.0</ele><time>2026-03-29T14:37:14.549Z</time></trkpt><trkpt lat="44.94358" lon="0.9985717"><ele>69.0</ele><time>2026-03-29T14:37:16.549Z</time></trkpt><trkpt lat="44.9435233" lon="0.9984633"><ele>70.0</ele><time>2026-03-29T14:37:18.549Z</time></trkpt><trkpt lat="44.94344" lon="0.9983567"><ele>72.85714285714286</ele><time>2026-03-29T14:37:20.549Z</time></trkpt><trkpt lat="44.9433717" lon="0.9982683"><ele>75.71428571428572</ele><time>2026-03-29T14:37:22.55Z</time></trkpt><trkpt lat="44.9433183" lon="0.9982067"><ele>78.57142857142857</ele><time>2026-03-29T14:37:24.55Z</time></trkpt><trkpt lat="44.943255" lon="0.998175"><ele>81.42857142857143</ele><time>2026-03-29T14:37:27.55Z</time></trkpt><trkpt lat="44.943175" lon="0.9981867"><ele>84.28571428571429</ele><time>2026-03-29T14:37:31.55Z</time></trkpt><trkpt lat="44.943105" lon="0.9982067"><ele>87.14285714285714</ele><time>2026-03-29T14:37:34.549Z</time></trkpt><trkpt lat="44.9430433" lon="0.9981717"><ele>90.0</ele><time>2026-03-29T14:37:37.55Z</time></trkpt><trkpt lat="44.9429667" lon="0.9980817"><ele>90.0</ele><time>2026-03-29T14:37:41.549Z</time></trkpt><trkpt lat="44.9429017" lon="0.998"><ele>90.0</ele><time>2026-03-29T14:37:43.549Z</time></trkpt><trkpt lat="44.9428517" lon="0.99793"><ele>90.0</ele><time>2026-03-29T14:37:44.549Z</time></trkpt><trkpt lat="44.9427683" lon="0.9978133"><ele>90.0</ele><time>2026-03-29T14:37:46.549Z</time></trkpt><trkpt lat="44.9426833" lon="0.99772"><ele>90.0</ele><time>2026-03-29T14:37:48.549Z</time></trkpt><trkpt lat="44.9425833" lon="0.9976567"><ele>93.8</ele><time>2026-03-29T14:37:50.55Z</time></trkpt><trkpt lat="44.9425017" lon="0.997625"><ele>97.6</ele><time>2026-03-29T14:37:53.55Z</time></trkpt><trkpt lat="44.9423933" lon="0.9976283"><ele>101.4</ele><time>2026-03-29T14:37:58.549Z</time></trkpt><trkpt lat="44.94231" lon="0.997665"><ele>105.2</ele><time>2026-03-29T14:38:00.55Z</time></trkpt><trkpt lat="44.9421983" lon="0.9977067"><ele>109.0</ele><time>2026-03-29T14:38:02.55Z</time></trkpt><trkpt lat="44.94207" lon="0.9977517"><ele>109.00000000000001</ele><time>2026-03-29T14:38:04.55Z</time></trkpt><trkpt lat="44.942005" lon="0.997765"><ele>109.0</ele><time>2026-03-29T14:38:05.549Z</time></trkpt><trkpt lat="44.9419317" lon="0.9977967"><ele>109.0</ele><time>2026-03-29T14:38:06.549Z</time></trkpt><trkpt lat="44.9418517" lon="0.9978317"><ele>109.0</ele><time>2026-03-29T14:38:07.549Z</time></trkpt><trkpt lat="44.9417733" lon="0.99786"><ele>109.00000000000001</ele><time>2026-03-29T14:38:08.55Z</time></trkpt><trkpt lat="44.9416983" lon="0.9978683"><ele>109.0</ele><time>2026-03-29T14:38:09.55Z</time></trkpt><trkpt lat="44.9416183" lon="0.9978467"><ele>111.50000000000001</ele><time>2026-03-29T14:38:10.549Z</time></trkpt><trkpt lat="44.9415283" lon="0.9978283"><ele>114.0</ele><time>2026-03-29T14:38:11.55Z</time></trkpt><trkpt lat="44.9414583" lon="0.9978117"><ele>116.5</ele><time>2026-03-29T14:38:12.549Z</time></trkpt><trkpt lat="44.9413933" lon="0.997795"><ele>119.0</ele><time>2026-03-29T14:38:13.55Z</time></trkpt><trkpt lat="44.94128" lon="0.99778"><ele>121.50000000000001</ele><time>2026-03-29T14:38:15.549Z</time></trkpt><trkpt lat="44.9411833" lon="0.99779"><ele>124.0</ele><time>2026-03-29T14:38:17.55Z</time></trkpt><trkpt lat="44.9410867" lon="0.9977967"><ele>124.00000000000001</ele><time>2026-03-29T14:38:19.549Z</time></trkpt><trkpt lat="44.9410067" lon="0.9978267"><ele>124.0</ele><time>2026-03-29T14:38:21.549Z</time></trkpt><trkpt lat="44.9409217" lon="0.9978433"><ele>124.0</ele><time>2026-03-29T14:38:23.549Z</time></trkpt><trkpt lat="44.9408433" lon="0.9978717"><ele>124.0</ele><time>2026-03-29T14:38:25.549Z</time></trkpt><trkpt lat="44.9407433" lon="0.9979367"><ele>124.00000000000001</ele><time>2026-03-29T14:38:27.549Z</time></trkpt><trkpt lat="44.94066" lon="0.99798"><ele>124.0</ele><time>2026-03-29T14:38:28.55Z</time></trkpt><trkpt lat="44.9405167" lon="0.9980133"><ele>125.33333333333334</ele><time>2026-03-29T14:38:30.55Z</time></trkpt><trkpt lat="44.9404433" lon="0.9980317"><ele>126.66666666666667</ele><time>2026-03-29T14:38:31.549Z</time></trkpt><trkpt lat="44.9403683" lon="0.99807"><ele>128.0</ele><time>2026-03-29T14:38:32.55Z</time></trkpt><trkpt lat="44.940305" lon="0.998115"><ele>129.33333333333334</ele><time>2026-03-29T14:38:33.549Z</time></trkpt><trkpt lat="44.940225" lon="0.9981633"><ele>130.66666666666666</ele><time>2026-03-29T14:38:34.549Z</time></trkpt><trkpt lat="44.9401517" lon="0.9982083"><ele>132.0</ele><time>2026-03-29T14:38:35.55Z</time></trkpt><trkpt lat="44.94008" lon="0.9982383"><ele>132.0</ele><time>2026-03-29T14:38:36.55Z</time></trkpt><trkpt lat="44.9400017" lon="0.998265"><ele>132.0</ele><time>2026-03-29T14:38:37.55Z</time></trkpt><trkpt lat="44.9399217" lon="0.998295"><ele>132.0</ele><time>2026-03-29T14:38:38.55Z</time></trkpt><trkpt lat="44.939855" lon="0.998325"><ele>132.0</ele><time>2026-03-29T14:38:39.549Z</time></trkpt><trkpt lat="44.9397817" lon="0.9983467"><ele>132.0</ele><time>2026-03-29T14:38:40.55Z</time></trkpt><trkpt lat="44.939665" lon="0.9983417"><ele>132.0</ele><time>2026-03-29T14:38:42.549Z</time></trkpt><trkpt lat="44.9396033" lon="0.998295"><ele>132.25</ele><time>2026-03-29T14:38:43.55Z</time></trkpt><trkpt lat="44.9395033" lon="0.9982"><ele>132.5</ele><time>2026-03-29T14:38:44.549Z</time></trkpt><trkpt lat="44.9393917" lon="0.9980933"><ele>132.75</ele><time>2026-03-29T14:38:45.55Z</time></trkpt><trkpt lat="44.9392833" lon="0.99799"><ele>133.0</ele><time>2026-03-29T14:38:46.55Z</time></trkpt><trkpt lat="44.93919" lon="0.9978917"><ele>133.0</ele><time>2026-03-29T14:38:47.549Z</time></trkpt><trkpt lat="44.9390933" lon="0.997785"><ele>133.0</ele><time>2026-03-29T14:38:48.55Z</time></trkpt><trkpt lat="44.93899" lon="0.9976817"><ele>133.0</ele><time>2026-03-29T14:38:49.549Z</time></trkpt><trkpt lat="44.9389067" lon="0.9975767"><ele>133.0</ele><time>2026-03-29T14:38:50.55Z</time></trkpt><trkpt lat="44.9388283" lon="0.9974833"><ele>133.66666666666669</ele><time>2026-03-29T14:38:51.549Z</time></trkpt><trkpt lat="44.9387517" lon="0.9974033"><ele>134.33333333333334</ele><time>2026-03-29T14:38:52.549Z</time></trkpt><trkpt lat="44.9386867" lon="0.9973167"><ele>135.0</ele><time>2026-03-29T14:38:53.549Z</time></trkpt><trkpt lat="44.9386317" lon="0.997235"><ele>135.66666666666666</ele><time>2026-03-29T14:38:54.549Z</time></trkpt><trkpt lat="44.9385833" lon="0.997155"><ele>136.33333333333331</ele><time>2026-03-29T14:38:55.55Z</time></trkpt><trkpt lat="44.9385133" lon="0.9970467"><ele>137.0</ele><time>2026-03-29T14:38:57.549Z</time></trkpt><trkpt lat="44.938465" lon="0.99696"><ele>137.0</ele><time>2026-03-29T14:39:01.55Z</time></trkpt><trkpt lat="44.938385" lon="0.9969033"><ele>137.0</ele><time>2026-03-29T14:39:05.549Z</time></trkpt><trkpt lat="44.9383017" lon="0.9969317"><ele>137.0</ele><time>2026-03-29T14:39:07.549Z</time></trkpt><trkpt lat="44.9382267" lon="0.9969717"><ele>137.0</ele><time>2026-03-29T14:39:08.55Z</time></trkpt><trkpt lat="44.9381417" lon="0.99702"><ele>137.0</ele><time>2026-03-29T14:39:09.549Z</time></trkpt><trkpt lat="44.9380533" lon="0.9970617"><ele>137.0</ele><time>2026-03-29T14:39:10.549Z</time></trkpt><trkpt lat="44.937965" lon="0.9971"><ele>137.33333333333331</ele><time>2026-03-29T14:39:11.55Z</time></trkpt><trkpt lat="44.9378783" lon="0.99714"><ele>137.66666666666666</ele><time>2026-03-29T14:39:12.55Z</time></trkpt><trkpt lat="44.9378117" lon="0.9971933"><ele>138.0</ele><time>2026-03-29T14:39:13.549Z</time></trkpt><trkpt lat="44.937755" lon="0.9972583"><ele>138.33333333333334</ele><time>2026-03-29T14:39:14.55Z</time></trkpt><trkpt lat="44.93771" lon="0.9973433"><ele>138.66666666666669</ele><time>2026-03-29T14:39:15.55Z</time></trkpt><trkpt lat="44.937675" lon="0.9974383"><ele>139.0</ele><time>2026-03-29T14:39:16.549Z</time></trkpt><trkpt lat="44.937655" lon="0.9975333"><ele>139.0</ele><time>2026-03-29T14:39:17.549Z</time></trkpt><trkpt lat="44.9376433" lon="0.9976333"><ele>139.0</ele><time>2026-03-29T14:39:18.549Z</time></trkpt><trkpt lat="44.9376367" lon="0.9977417"><ele>139.0</ele><time>2026-03-29T14:39:20.549Z</time></trkpt><trkpt lat="44.9375667" lon="0.997725"><ele>139.0</ele><time>2026-03-29T14:39:24.549Z</time></trkpt><trkpt lat="44.9375433" lon="0.9976283"><ele>139.0</ele><time>2026-03-29T14:39:27.549Z</time></trkpt><trkpt lat="44.9375583" lon="0.9975283"><ele>139.0</ele><time>2026-03-29T14:39:29.548Z</time></trkpt><trkpt lat="44.9375667" lon="0.9974283"><ele>139.0</ele><time>2026-03-29T14:39:32.548Z</time></trkpt><trkpt lat="44.9375783" lon="0.9973383"><ele>139.0</ele><time>2026-03-29T14:39:35.548Z</time></trkpt><trkpt lat="44.9376" lon="0.9972283"><ele>139.0</ele><time>2026-03-29T14:39:38.549Z</time></trkpt><trkpt lat="44.9376317" lon="0.9971433"><ele>139.0</ele><time>2026-03-29T14:39:40.549Z</time></trkpt><trkpt lat="44.93766" lon="0.997045"><ele>139.0</ele><time>2026-03-29T14:39:43.549Z</time></trkpt><trkpt lat="44.937685" lon="0.99696"><ele>139.0</ele><time>2026-03-29T14:39:45.548Z</time></trkpt><trkpt lat="44.9377" lon="0.9968567"><ele>139.0</ele><time>2026-03-29T14:39:47.549Z</time></trkpt><trkpt lat="44.9377267" lon="0.996725"><ele>139.66666666666669</ele><time>2026-03-29T14:39:49.549Z</time></trkpt><trkpt lat="44.9377567" lon="0.9965733"><ele>140.33333333333334</ele><time>2026-03-29T14:39:51.548Z</time></trkpt><trkpt lat="44.9378" lon="0.9964733"><ele>141.0</ele><time>2026-03-29T14:39:53.548Z</time></trkpt><trkpt lat="44.9378317" lon="0.996365"><ele>141.66666666666666</ele><time>2026-03-29T14:39:56.548Z</time></trkpt><trkpt lat="44.9378967" lon="0.9963067"><ele>142.33333333333331</ele><time>2026-03-29T14:39:58.549Z</time></trkpt><trkpt lat="44.9379767" lon="0.9962583"><ele>143.0</ele><time>2026-03-29T14:40:00.548Z</time></trkpt><trkpt lat="44.9380517" lon="0.9962233"><ele>143.0</ele><time>2026-03-29T14:40:02.549Z</time></trkpt><trkpt lat="44.9381217" lon="0.99622"><ele>143.0</ele><time>2026-03-29T14:40:04.549Z</time></trkpt><trkpt lat="44.938215" lon="0.996195"><ele>143.0</ele><time>2026-03-29T14:40:07.548Z</time></trkpt><trkpt lat="44.93828" lon="0.99612"><ele>143.0</ele><time>2026-03-29T14:40:10.548Z</time></trkpt><trkpt lat="44.938305" lon="0.9960083"><ele>143.0</ele><time>2026-03-29T14:40:13.548Z</time></trkpt><trkpt lat="44.9383283" lon="0.9959183"><ele>143.0</ele><time>2026-03-29T14:40:16.548Z</time></trkpt><trkpt lat="44.9384017" lon="0.995775"><ele>144.20000000000002</ele><time>2026-03-29T14:40:22.548Z</time></trkpt><trkpt lat="44.9384633" lon="0.9956117"><ele>145.4</ele><time>2026-03-29T14:40:27.549Z</time></trkpt><trkpt lat="44.9384833" lon="0.9955233"><ele>146.60000000000002</ele><time>2026-03-29T14:40:29.549Z</time></trkpt><trkpt lat="44.9385067" lon="0.995395"><ele>147.8</ele><time>2026-03-29T14:40:32.549Z</time></trkpt><trkpt lat="44.9385183" lon="0.9952683"><ele>149.0</ele><time>2026-03-29T14:40:35.548Z</time></trkpt><trkpt lat="44.9385083" lon="0.9951333"><ele>149.0</ele><time>2026-03-29T14:40:37.548Z</time></trkpt><trkpt lat="44.9385117" lon="0.9950167"><ele>149.0</ele><time>2026-03-29T14:40:39.549Z</time></trkpt><trkpt lat="44.938515" lon="0.9949167"><ele>149.0</ele><time>2026-03-29T14:40:41.549Z</time></trkpt><trkpt lat="44.9385417" lon="0.9947967"><ele>149.0</ele><time>2026-03-29T14:40:43.549Z</time></trkpt><trkpt lat="44.9385567" lon="0.994705"><ele>149.0</ele><time>2026-03-29T14:40:44.549Z</time></trkpt><trkpt lat="44.9385833" lon="0.994595"><ele>149.0</ele><time>2026-03-29T14:40:45.549Z</time></trkpt><trkpt lat="44.9386083" lon="0.99447"><ele>147.66666666666666</ele><time>2026-03-29T14:40:46.549Z</time></trkpt><trkpt lat="44.938625" lon="0.9943667"><ele>146.33333333333331</ele><time>2026-03-29T14:40:47.548Z</time></trkpt><trkpt lat="44.938635" lon="0.9942717"><ele>145.0</ele><time>2026-03-29T14:40:48.548Z</time></trkpt><trkpt lat="44.93865" lon="0.99418"><ele>143.66666666666666</ele><time>2026-03-29T14:40:49.549Z</time></trkpt><trkpt lat="44.9386717" lon="0.9940033"><ele>142.33333333333334</ele><time>2026-03-29T14:40:51.548Z</time></trkpt><trkpt lat="44.938675" lon="0.993905"><ele>141.0</ele><time>2026-03-29T14:40:52.548Z</time></trkpt><trkpt lat="44.9386883" lon="0.993785"><ele>140.16666666666666</ele><time>2026-03-29T14:40:53.549Z</time></trkpt><trkpt lat="44.938695" lon="0.9936683"><ele>139.33333333333334</ele><time>2026-03-29T14:40:54.549Z</time></trkpt><trkpt lat="44.9387433" lon="0.9935433"><ele>138.5</ele><time>2026-03-29T14:40:55.548Z</time></trkpt><trkpt lat="44.9387617" lon="0.9934517"><ele>137.66666666666669</ele><time>2026-03-29T14:40:56.549Z</time></trkpt><trkpt lat="44.9387933" lon="0.9933583"><ele>136.83333333333334</ele><time>2026-03-29T14:40:57.549Z</time></trkpt><trkpt lat="44.9388217" lon="0.9932667"><ele>136.0</ele><time>2026-03-29T14:40:58.549Z</time></trkpt><trkpt lat="44.9388433" lon="0.99318"><ele>136.0</ele><time>2026-03-29T14:40:59.548Z</time></trkpt><trkpt lat="44.93886" lon="0.9930017"><ele>136.0</ele><time>2026-03-29T14:41:01.548Z</time></trkpt><trkpt lat="44.9388933" lon="0.99285"><ele>136.0</ele><time>2026-03-29T14:41:03.548Z</time></trkpt><trkpt lat="44.9389217" lon="0.9927567"><ele>136.0</ele><time>2026-03-29T14:41:04.549Z</time></trkpt><trkpt lat="44.9389267" lon="0.99264"><ele>136.0</ele><time>2026-03-29T14:41:06.549Z</time></trkpt><trkpt lat="44.9389567" lon="0.9925117"><ele>136.0</ele><time>2026-03-29T14:41:08.548Z</time></trkpt><trkpt lat="44.9389633" lon="0.9923983"><ele>136.0</ele><time>2026-03-29T14:41:09.549Z</time></trkpt><trkpt lat="44.9389867" lon="0.9922783"><ele>136.0</ele><time>2026-03-29T14:41:11.548Z</time></trkpt><trkpt lat="44.9389933" lon="0.9921367"><ele>136.0</ele><time>2026-03-29T14:41:13.548Z</time></trkpt><trkpt lat="44.9390283" lon="0.9920117"><ele>136.0</ele><time>2026-03-29T14:41:15.548Z</time></trkpt><trkpt lat="44.93905" lon="0.9919267"><ele>136.0</ele><time>2026-03-29T14:41:16.549Z</time></trkpt><trkpt lat="44.9390717" lon="0.991835"><ele>137.75</ele><time>2026-03-29T14:41:17.549Z</time></trkpt><trkpt lat="44.9390817" lon="0.991665"><ele>139.5</ele><time>2026-03-29T14:41:19.548Z</time></trkpt><trkpt lat="44.9390767" lon="0.99152"><ele>141.25</ele><time>2026-03-29T14:41:21.549Z</time></trkpt><trkpt lat="44.9390533" lon="0.9913583"><ele>143.0</ele><time>2026-03-29T14:41:23.549Z</time></trkpt><trkpt lat="44.939005" lon="0.9911767"><ele>143.0</ele><time>2026-03-29T14:41:25.548Z</time></trkpt><trkpt lat="44.938975" lon="0.9910533"><ele>143.0</ele><time>2026-03-29T14:41:27.548Z</time></trkpt><trkpt lat="44.938965" lon="0.9909133"><ele>143.0</ele><time>2026-03-29T14:41:29.548Z</time></trkpt><trkpt lat="44.9389283" lon="0.990825"><ele>143.0</ele><time>2026-03-29T14:41:31.549Z</time></trkpt><trkpt lat="44.9388883" lon="0.9907417"><ele>143.0</ele><time>2026-03-29T14:41:33.549Z</time></trkpt><trkpt lat="44.93884" lon="0.9906217"><ele>143.0</ele><time>2026-03-29T14:41:35.549Z</time></trkpt><trkpt lat="44.9388017" lon="0.9904867"><ele>145.20000000000002</ele><time>2026-03-29T14:41:37.548Z</time></trkpt><trkpt lat="44.9388" lon="0.9903667"><ele>147.4</ele><time>2026-03-29T14:41:39.548Z</time></trkpt><trkpt lat="44.9388217" lon="0.99025"><ele>149.60000000000002</ele><time>2026-03-29T14:41:41.548Z</time></trkpt><trkpt lat="44.93884" lon="0.9901283"><ele>151.8</ele><time>2026-03-29T14:41:43.548Z</time></trkpt><trkpt lat="44.9388567" lon="0.989975"><ele>154.0</ele><time>2026-03-29T14:41:45.549Z</time></trkpt><trkpt lat="44.93888" lon="0.9897983"><ele>155.16666666666669</ele><time>2026-03-29T14:41:47.549Z</time></trkpt><trkpt lat="44.938885" lon="0.9897067"><ele>156.33333333333334</ele><time>2026-03-29T14:41:48.548Z</time></trkpt><trkpt lat="44.9389" lon="0.9896183"><ele>157.5</ele><time>2026-03-29T14:41:49.549Z</time></trkpt><trkpt lat="44.9389467" lon="0.9894867"><ele>158.66666666666666</ele><time>2026-03-29T14:41:51.549Z</time></trkpt><trkpt lat="44.9389883" lon="0.9893617"><ele>159.83333333333331</ele><time>2026-03-29T14:41:53.548Z</time></trkpt><trkpt lat="44.93901" lon="0.9892733"><ele>161.0</ele><time>2026-03-29T14:41:55.548Z</time></trkpt><trkpt lat="44.93904" lon="0.9891117"><ele>161.4</ele><time>2026-03-29T14:42:03.548Z</time></trkpt><trkpt lat="44.9390283" lon="0.989"><ele>161.8</ele><time>2026-03-29T14:42:07.548Z</time></trkpt><trkpt lat="44.9389467" lon="0.9889417"><ele>162.20000000000002</ele><time>2026-03-29T14:42:09.548Z</time></trkpt><trkpt lat="44.938875" lon="0.988895"><ele>162.60000000000002</ele><time>2026-03-29T14:42:10.548Z</time></trkpt><trkpt lat="44.9387783" lon="0.98884"><ele>163.0</ele><time>2026-03-29T14:42:11.548Z</time></trkpt><trkpt lat="44.9386783" lon="0.9887617"><ele>163.0</ele><time>2026-03-29T14:42:12.549Z</time></trkpt><trkpt lat="44.93859" lon="0.9886667"><ele>163.0</ele><time>2026-03-29T14:42:13.549Z</time></trkpt><trkpt lat="44.9384967" lon="0.98859"><ele>163.0</ele><time>2026-03-29T14:42:14.548Z</time></trkpt><trkpt lat="44.9383317" lon="0.9884417"><ele>163.0</ele><time>2026-03-29T14:42:16.549Z</time></trkpt><trkpt lat="44.9382517" lon="0.9883917"><ele>162.20000000000002</ele><time>2026-03-29T14:42:17.548Z</time></trkpt><trkpt lat="44.9381783" lon="0.98836"><ele>161.4</ele><time>2026-03-29T14:42:18.549Z</time></trkpt><trkpt lat="44.9380783" lon="0.9883533"><ele>160.60000000000002</ele><time>2026-03-29T14:42:19.548Z</time></trkpt><trkpt lat="44.9379833" lon="0.98837"><ele>159.8</ele><time>2026-03-29T14:42:20.549Z</time></trkpt><trkpt lat="44.9378983" lon="0.988405"><ele>159.0</ele><time>2026-03-29T14:42:21.549Z</time></trkpt><trkpt lat="44.9378" lon="0.9884367"><ele>159.0</ele><time>2026-03-29T14:42:22.548Z</time></trkpt><trkpt lat="44.93771" lon="0.9884717"><ele>159.0</ele><time>2026-03-29T14:42:23.548Z</time></trkpt><trkpt lat="44.9376433" lon="0.988495"><ele>159.0</ele><time>2026-03-29T14:42:24.549Z</time></trkpt><trkpt lat="44.9375667" lon="0.9885183"><ele>159.0</ele><time>2026-03-29T14:42:25.549Z</time></trkpt><trkpt lat="44.937505" lon="0.9885417"><ele>159.0</ele><time>2026-03-29T14:42:26.549Z</time></trkpt><trkpt lat="44.937415" lon="0.98857"><ele>159.0</ele><time>2026-03-29T14:42:28.549Z</time></trkpt><trkpt lat="44.937285" lon="0.9885917"><ele>158.5</ele><time>2026-03-29T14:42:38.548Z</time></trkpt><trkpt lat="44.937225" lon="0.9885567"><ele>158.0</ele><time>2026-03-29T14:42:42.548Z</time></trkpt><trkpt lat="44.9371983" lon="0.9884483"><ele>157.5</ele><time>2026-03-29T14:42:46.548Z</time></trkpt><trkpt lat="44.9371867" lon="0.98834"><ele>157.0</ele><time>2026-03-29T14:42:49.549Z</time></trkpt><trkpt lat="44.9372233" lon="0.9882133"><ele>156.5</ele><time>2026-03-29T14:42:52.549Z</time></trkpt><trkpt lat="44.9372467" lon="0.9881283"><ele>156.0</ele><time>2026-03-29T14:42:54.548Z</time></trkpt><trkpt lat="44.93725" lon="0.9880217"><ele>156.0</ele><time>2026-03-29T14:42:56.548Z</time></trkpt><trkpt lat="44.9372633" lon="0.9879283"><ele>156.0</ele><time>2026-03-29T14:42:58.548Z</time></trkpt><trkpt lat="44.93727" lon="0.9877933"><ele>156.0</ele><time>2026-03-29T14:43:01.548Z</time></trkpt><trkpt lat="44.9372833" lon="0.9876867"><ele>156.0</ele><time>2026-03-29T14:43:04.549Z</time></trkpt><trkpt lat="44.937285" lon="0.987585"><ele>156.0</ele><time>2026-03-29T14:43:06.549Z</time></trkpt><trkpt lat="44.9373033" lon="0.9874817"><ele>156.0</ele><time>2026-03-29T14:43:08.548Z</time></trkpt><trkpt lat="44.93732" lon="0.9873617"><ele>154.83333333333334</ele><time>2026-03-29T14:43:10.548Z</time></trkpt><trkpt lat="44.9373233" lon="0.9872717"><ele>153.66666666666666</ele><time>2026-03-29T14:43:11.549Z</time></trkpt><trkpt lat="44.9373333" lon="0.987175"><ele>152.5</ele><time>2026-03-29T14:43:12.549Z</time></trkpt><trkpt lat="44.9373317" lon="0.9870683"><ele>151.33333333333331</ele><time>2026-03-29T14:43:13.548Z</time></trkpt><trkpt lat="44.9373117" lon="0.9869183"><ele>150.16666666666666</ele><time>2026-03-29T14:43:15.548Z</time></trkpt><trkpt lat="44.9373117" lon="0.9868283"><ele>149.0</ele><time>2026-03-29T14:43:17.548Z</time></trkpt><trkpt lat="44.9372983" lon="0.9867233"><ele>146.8</ele><time>2026-03-29T14:43:19.547Z</time></trkpt><trkpt lat="44.9372633" lon="0.98658"><ele>144.60000000000002</ele><time>2026-03-29T14:43:21.548Z</time></trkpt><trkpt lat="44.937215" lon="0.98644"><ele>142.4</ele><time>2026-03-29T14:43:23.548Z</time></trkpt><trkpt lat="44.937125" lon="0.98635"><ele>140.20000000000002</ele><time>2026-03-29T14:43:25.547Z</time></trkpt><trkpt lat="44.937055" lon="0.9863117"><ele>138.0</ele><time>2026-03-29T14:43:26.547Z</time></trkpt><trkpt lat="44.9369867" lon="0.9862867"><ele>138.0</ele><time>2026-03-29T14:43:27.548Z</time></trkpt><trkpt lat="44.936925" lon="0.9862483"><ele>138.0</ele><time>2026-03-29T14:43:28.547Z</time></trkpt><trkpt lat="44.9368567" lon="0.986215"><ele>138.0</ele><time>2026-03-29T14:43:29.547Z</time></trkpt><trkpt lat="44.9367883" lon="0.98619"><ele>138.0</ele><time>2026-03-29T14:43:30.547Z</time></trkpt><trkpt lat="44.9367217" lon="0.9861633"><ele>138.0</ele><time>2026-03-29T14:43:31.548Z</time></trkpt><trkpt lat="44.9366583" lon="0.98614"><ele>138.0</ele><time>2026-03-29T14:43:32.547Z</time></trkpt><trkpt lat="44.9365933" lon="0.9861167"><ele>138.0</ele><time>2026-03-29T14:43:33.547Z</time></trkpt><trkpt lat="44.93652" lon="0.9860983"><ele>137.0</ele><time>2026-03-29T14:43:34.547Z</time></trkpt><trkpt lat="44.9364467" lon="0.9860733"><ele>136.0</ele><time>2026-03-29T14:43:35.548Z</time></trkpt><trkpt lat="44.9363667" lon="0.98605"><ele>135.0</ele><time>2026-03-29T14:43:36.548Z</time></trkpt><trkpt lat="44.936285" lon="0.98603"><ele>134.0</ele><time>2026-03-29T14:43:37.548Z</time></trkpt><trkpt lat="44.9362083" lon="0.9860067"><ele>133.0</ele><time>2026-03-29T14:43:38.548Z</time></trkpt><trkpt lat="44.936115" lon="0.98593"><ele>132.0</ele><time>2026-03-29T14:43:40.547Z</time></trkpt><trkpt lat="44.93601" lon="0.98587"><ele>131.2</ele><time>2026-03-29T14:43:42.548Z</time></trkpt><trkpt lat="44.935935" lon="0.9857817"><ele>130.39999999999998</ele><time>2026-03-29T14:43:44.548Z</time></trkpt><trkpt lat="44.935885" lon="0.98569"><ele>129.60000000000002</ele><time>2026-03-29T14:43:46.548Z</time></trkpt><trkpt lat="44.9358583" lon="0.9855717"><ele>128.8</ele><time>2026-03-29T14:43:48.547Z</time></trkpt><trkpt lat="44.9358217" lon="0.9854233"><ele>128.0</ele><time>2026-03-29T14:43:50.548Z</time></trkpt><trkpt lat="44.9357883" lon="0.9852583"><ele>127.99999999999999</ele><time>2026-03-29T14:43:52.547Z</time></trkpt><trkpt lat="44.9357917" lon="0.9851667"><ele>128.0</ele><time>2026-03-29T14:43:53.548Z</time></trkpt><trkpt lat="44.9357983" lon="0.9850667"><ele>128.0</ele><time>2026-03-29T14:43:54.547Z</time></trkpt><trkpt lat="44.9358033" lon="0.984965"><ele>128.0</ele><time>2026-03-29T14:43:55.547Z</time></trkpt><trkpt lat="44.935795" lon="0.98485"><ele>127.99999999999999</ele><time>2026-03-29T14:43:56.548Z</time></trkpt><trkpt lat="44.9357933" lon="0.98472"><ele>128.0</ele><time>2026-03-29T14:43:57.548Z</time></trkpt><trkpt lat="44.9357983" lon="0.98461"><ele>128.16666666666666</ele><time>2026-03-29T14:43:58.547Z</time></trkpt><trkpt lat="44.9358183" lon="0.9844967"><ele>128.33333333333331</ele><time>2026-03-29T14:43:59.548Z</time></trkpt><trkpt lat="44.93584" lon="0.9843817"><ele>128.5</ele><time>2026-03-29T14:44:00.547Z</time></trkpt><trkpt lat="44.93586" lon="0.984265"><ele>128.66666666666666</ele><time>2026-03-29T14:44:01.548Z</time></trkpt><trkpt lat="44.9358683" lon="0.9841467"><ele>128.83333333333334</ele><time>2026-03-29T14:44:02.548Z</time></trkpt><trkpt lat="44.93587" lon="0.9840267"><ele>129.0</ele><time>2026-03-29T14:44:03.547Z</time></trkpt><trkpt lat="44.9358683" lon="0.983905"><ele>128.33333333333334</ele><time>2026-03-29T14:44:04.547Z</time></trkpt><trkpt lat="44.9358683" lon="0.9837917"><ele>127.66666666666666</ele><time>2026-03-29T14:44:05.547Z</time></trkpt><trkpt lat="44.935865" lon="0.9836817"><ele>127.0</ele><time>2026-03-29T14:44:06.547Z</time></trkpt><trkpt lat="44.935865" lon="0.98359"><ele>126.33333333333333</ele><time>2026-03-29T14:44:07.548Z</time></trkpt><trkpt lat="44.93586" lon="0.9834133"><ele>125.66666666666666</ele><time>2026-03-29T14:44:09.547Z</time></trkpt><trkpt lat="44.9358517" lon="0.983325"><ele>125.0</ele><time>2026-03-29T14:44:10.548Z</time></trkpt><trkpt lat="44.935815" lon="0.9832167"><ele>123.66666666666666</ele><time>2026-03-29T14:44:11.547Z</time></trkpt><trkpt lat="44.9358133" lon="0.98312"><ele>122.33333333333333</ele><time>2026-03-29T14:44:13.548Z</time></trkpt><trkpt lat="44.9358283" lon="0.98293"><ele>121.0</ele><time>2026-03-29T14:44:16.547Z</time></trkpt><trkpt lat="44.9358467" lon="0.9828283"><ele>119.66666666666666</ele><time>2026-03-29T14:44:17.548Z</time></trkpt><trkpt lat="44.9358683" lon="0.9827033"><ele>118.33333333333333</ele><time>2026-03-29T14:44:19.548Z</time></trkpt><trkpt lat="44.9358683" lon="0.9826"><ele>117.0</ele><time>2026-03-29T14:44:23.547Z</time></trkpt><trkpt lat="44.9358867" lon="0.9824967"><ele>117.33333333333333</ele><time>2026-03-29T14:44:27.548Z</time></trkpt><trkpt lat="44.9359317" lon="0.9824067"><ele>117.66666666666666</ele><time>2026-03-29T14:44:30.547Z</time></trkpt><trkpt lat="44.93599" lon="0.9823217"><ele>118.0</ele><time>2026-03-29T14:44:32.548Z</time></trkpt><trkpt lat="44.936035" lon="0.9822383"><ele>118.33333333333333</ele><time>2026-03-29T14:44:34.547Z</time></trkpt><trkpt lat="44.9360533" lon="0.982145"><ele>118.66666666666666</ele><time>2026-03-29T14:44:36.547Z</time></trkpt><trkpt lat="44.9360467" lon="0.9820383"><ele>119.0</ele><time>2026-03-29T14:44:38.547Z</time></trkpt><trkpt lat="44.9361" lon="0.9819517"><ele>119.0</ele><time>2026-03-29T14:44:39.548Z</time></trkpt><trkpt lat="44.9361217" lon="0.9818183"><ele>119.0</ele><time>2026-03-29T14:44:41.548Z</time></trkpt><trkpt lat="44.9360633" lon="0.9816917"><ele>119.0</ele><time>2026-03-29T14:44:43.547Z</time></trkpt><trkpt lat="44.9360183" lon="0.9815933"><ele>119.0</ele><time>2026-03-29T14:44:45.548Z</time></trkpt><trkpt lat="44.93595" lon="0.9815133"><ele>119.0</ele><time>2026-03-29T14:44:48.548Z</time></trkpt><trkpt lat="44.9358833" lon="0.9814367"><ele>115.99999999999999</ele><time>2026-03-29T14:44:50.548Z</time></trkpt><trkpt lat="44.9358217" lon="0.9813683"><ele>113.0</ele><time>2026-03-29T14:44:52.547Z</time></trkpt><trkpt lat="44.93576" lon="0.9813"><ele>110.0</ele><time>2026-03-29T14:44:55.547Z</time></trkpt><trkpt lat="44.9357083" lon="0.98123"><ele>107.0</ele><time>2026-03-29T14:44:58.547Z</time></trkpt><trkpt lat="44.9356317" lon="0.9811117"><ele>103.99999999999999</ele><time>2026-03-29T14:45:01.547Z</time></trkpt><trkpt lat="44.935585" lon="0.9809983"><ele>101.0</ele><time>2026-03-29T14:45:03.547Z</time></trkpt><trkpt lat="44.9355233" lon="0.9809217"><ele>103.19999999999999</ele><time>2026-03-29T14:45:06.548Z</time></trkpt><trkpt lat="44.9354533" lon="0.9808467"><ele>105.39999999999999</ele><time>2026-03-29T14:45:09.548Z</time></trkpt><trkpt lat="44.9354067" lon="0.980785"><ele>107.6</ele><time>2026-03-29T14:45:11.547Z</time></trkpt><trkpt lat="44.9353467" lon="0.9807"><ele>109.8</ele><time>2026-03-29T14:45:14.547Z</time></trkpt><trkpt lat="44.93526" lon="0.98058"><ele>112.0</ele><time>2026-03-29T14:45:26.548Z</time></trkpt><trkpt lat="44.935165" lon="0.9804833"><ele>112.0</ele><time>2026-03-29T14:46:08.547Z</time></trkpt><trkpt lat="44.93512" lon="0.9803617"><ele>111.99999999999999</ele><time>2026-03-29T14:46:11.548Z</time></trkpt><trkpt lat="44.9351083" lon="0.9802317"><ele>111.99999999999999</ele><time>2026-03-29T14:46:13.547Z</time></trkpt><trkpt lat="44.9350517" lon="0.9801317"><ele>112.0</ele><time>2026-03-29T14:46:15.547Z</time></trkpt><trkpt lat="44.9349583" lon="0.98008"><ele>112.0</ele><time>2026-03-29T14:46:17.548Z</time></trkpt><trkpt lat="44.9348367" lon="0.980045"><ele>107.33333333333334</ele><time>2026-03-29T14:46:19.548Z</time></trkpt><trkpt lat="44.9347733" lon="0.9800083"><ele>102.66666666666667</ele><time>2026-03-29T14:46:20.548Z</time></trkpt><trkpt lat="44.9347083" lon="0.9799717"><ele>98.0</ele><time>2026-03-29T14:46:21.547Z</time></trkpt><trkpt lat="44.9346433" lon="0.9799317"><ele>93.33333333333334</ele><time>2026-03-29T14:46:22.548Z</time></trkpt><trkpt lat="44.9345867" lon="0.9798833"><ele>88.66666666666667</ele><time>2026-03-29T14:46:23.548Z</time></trkpt><trkpt lat="44.9344867" lon="0.97971"><ele>84.0</ele><time>2026-03-29T14:46:26.547Z</time></trkpt><trkpt lat="44.9344867" lon="0.979565"><ele>84.0</ele><time>2026-03-29T14:46:28.548Z</time></trkpt><trkpt lat="44.9345083" lon="0.9794783"><ele>84.0</ele><time>2026-03-29T14:46:29.547Z</time></trkpt><trkpt lat="44.9345433" lon="0.9793917"><ele>84.0</ele><time>2026-03-29T14:46:30.547Z</time></trkpt><trkpt lat="44.9345867" lon="0.9793067"><ele>84.0</ele><time>2026-03-29T14:46:31.547Z</time></trkpt><trkpt lat="44.9346367" lon="0.9792217"><ele>84.0</ele><time>2026-03-29T14:46:32.548Z</time></trkpt><trkpt lat="44.934705" lon="0.9791483"><ele>84.0</ele><time>2026-03-29T14:46:33.547Z</time></trkpt><trkpt lat="44.934765" lon="0.9790733"><ele>83.83333333333333</ele><time>2026-03-29T14:46:34.547Z</time></trkpt><trkpt lat="44.934825" lon="0.9789817"><ele>83.66666666666667</ele><time>2026-03-29T14:46:35.548Z</time></trkpt><trkpt lat="44.9348783" lon="0.9788867"><ele>83.5</ele><time>2026-03-29T14:46:36.548Z</time></trkpt><trkpt lat="44.9349233" lon="0.97877"><ele>83.33333333333334</ele><time>2026-03-29T14:46:37.548Z</time></trkpt><trkpt lat="44.934965" lon="0.9786617"><ele>83.16666666666667</ele><time>2026-03-29T14:46:38.548Z</time></trkpt><trkpt lat="44.935" lon="0.9785667"><ele>83.0</ele><time>2026-03-29T14:46:39.548Z</time></trkpt><trkpt lat="44.9350067" lon="0.9784583"><ele>83.0</ele><time>2026-03-29T14:46:44.547Z</time></trkpt><trkpt lat="44.93503" lon="0.9783717"><ele>83.0</ele><time>2026-03-29T14:46:48.548Z</time></trkpt><trkpt lat="44.934965" lon="0.9784133"><ele>83.0</ele><time>2026-03-29T14:46:54.548Z</time></trkpt><trkpt lat="44.9349033" lon="0.978475"><ele>83.0</ele><time>2026-03-29T14:46:57.547Z</time></trkpt><trkpt lat="44.9348333" lon="0.9785233"><ele>83.0</ele><time>2026-03-29T14:47:02.546Z</time></trkpt><trkpt lat="44.9347667" lon="0.9785517"><ele>83.0</ele><time>2026-03-29T14:47:05.546Z</time></trkpt><trkpt lat="44.9346667" lon="0.97849"><ele>83.0</ele><time>2026-03-29T14:47:12.547Z</time></trkpt><trkpt lat="44.9345867" lon="0.9785167"><ele>83.0</ele><time>2026-03-29T14:47:15.547Z</time></trkpt><trkpt lat="44.9345133" lon="0.97853"><ele>83.0</ele><time>2026-03-29T14:47:18.547Z</time></trkpt><trkpt lat="44.9344417" lon="0.9785233"><ele>83.0</ele><time>2026-03-29T14:47:20.547Z</time></trkpt><trkpt lat="44.934375" lon="0.9785167"><ele>83.0</ele><time>2026-03-29T14:47:22.547Z</time></trkpt><trkpt lat="44.93428" lon="0.9785083"><ele>83.0</ele><time>2026-03-29T14:47:25.547Z</time></trkpt><trkpt lat="44.9341883" lon="0.978485"><ele>84.71428571428571</ele><time>2026-03-29T14:47:28.547Z</time></trkpt><trkpt lat="44.9341233" lon="0.9784217"><ele>86.42857142857143</ele><time>2026-03-29T14:47:32.547Z</time></trkpt><trkpt lat="44.93409" lon="0.978335"><ele>88.14285714285714</ele><time>2026-03-29T14:47:35.547Z</time></trkpt><trkpt lat="44.9340617" lon="0.978255"><ele>89.85714285714286</ele><time>2026-03-29T14:47:37.546Z</time></trkpt><trkpt lat="44.9340283" lon="0.978175"><ele>91.57142857142858</ele><time>2026-03-29T14:47:39.547Z</time></trkpt><trkpt lat="44.9339833" lon="0.9780817"><ele>93.28571428571429</ele><time>2026-03-29T14:47:41.546Z</time></trkpt><trkpt lat="44.9339283" lon="0.97799"><ele>95.0</ele><time>2026-03-29T14:47:43.547Z</time></trkpt><trkpt lat="44.93387" lon="0.9779067"><ele>98.0</ele><time>2026-03-29T14:47:45.546Z</time></trkpt><trkpt lat="44.9338017" lon="0.9778117"><ele>101.0</ele><time>2026-03-29T14:47:47.546Z</time></trkpt><trkpt lat="44.933735" lon="0.97772"><ele>104.0</ele><time>2026-03-29T14:47:49.546Z</time></trkpt><trkpt lat="44.9336683" lon="0.9776383"><ele>107.0</ele><time>2026-03-29T14:47:51.547Z</time></trkpt><trkpt lat="44.93361" lon="0.9775567"><ele>110.0</ele><time>2026-03-29T14:47:53.546Z</time></trkpt><trkpt lat="44.9335433" lon="0.977465"><ele>110.0</ele><time>2026-03-29T14:47:55.547Z</time></trkpt><trkpt lat="44.9334933" lon="0.97738"><ele>110.0</ele><time>2026-03-29T14:47:57.546Z</time></trkpt><trkpt lat="44.93344" lon="0.9773017"><ele>110.0</ele><time>2026-03-29T14:47:59.547Z</time></trkpt><trkpt lat="44.9333733" lon="0.9772017"><ele>110.0</ele><time>2026-03-29T14:48:01.547Z</time></trkpt><trkpt lat="44.933275" lon="0.9771117"><ele>110.0</ele><time>2026-03-29T14:48:03.547Z</time></trkpt><trkpt lat="44.9332033" lon="0.9770333"><ele>113.2</ele><time>2026-03-29T14:48:04.546Z</time></trkpt><trkpt lat="44.93312" lon="0.9769617"><ele>116.4</ele><time>2026-03-29T14:48:05.547Z</time></trkpt><trkpt lat="44.9330183" lon="0.9768683"><ele>119.6</ele><time>2026-03-29T14:48:06.547Z</time></trkpt><trkpt lat="44.9329217" lon="0.9767883"><ele>122.8</ele><time>2026-03-29T14:48:07.546Z</time></trkpt><trkpt lat="44.9328183" lon="0.9767117"><ele>126.0</ele><time>2026-03-29T14:48:08.546Z</time></trkpt><trkpt lat="44.9327033" lon="0.9766183"><ele>126.0</ele><time>2026-03-29T14:48:09.547Z</time></trkpt><trkpt lat="44.9325717" lon="0.9765083"><ele>126.0</ele><time>2026-03-29T14:48:10.546Z</time></trkpt><trkpt lat="44.9324517" lon="0.9763983"><ele>126.0</ele><time>2026-03-29T14:48:11.547Z</time></trkpt><trkpt lat="44.9323567" lon="0.9763083"><ele>126.0</ele><time>2026-03-29T14:48:12.546Z</time></trkpt><trkpt lat="44.9322683" lon="0.9762217"><ele>125.16666666666667</ele><time>2026-03-29T14:48:13.546Z</time></trkpt><trkpt lat="44.9321967" lon="0.976135"><ele>124.33333333333334</ele><time>2026-03-29T14:48:14.546Z</time></trkpt><trkpt lat="44.932125" lon="0.976065"><ele>123.5</ele><time>2026-03-29T14:48:15.547Z</time></trkpt><trkpt lat="44.932065" lon="0.9760217"><ele>122.66666666666667</ele><time>2026-03-29T14:48:16.546Z</time></trkpt><trkpt lat="44.932" lon="0.9759933"><ele>121.83333333333334</ele><time>2026-03-29T14:48:17.547Z</time></trkpt><trkpt lat="44.93193" lon="0.9759967"><ele>121.0</ele><time>2026-03-29T14:48:18.546Z</time></trkpt><trkpt lat="44.9318183" lon="0.9760683"><ele>121.00000000000001</ele><time>2026-03-29T14:48:20.546Z</time></trkpt><trkpt lat="44.9317417" lon="0.9761183"><ele>121.0</ele><time>2026-03-29T14:48:21.546Z</time></trkpt><trkpt lat="44.9316267" lon="0.97613"><ele>121.0</ele><time>2026-03-29T14:48:23.546Z</time></trkpt><trkpt lat="44.9315717" lon="0.9760817"><ele>121.0</ele><time>2026-03-29T14:48:24.547Z</time></trkpt><trkpt lat="44.93151" lon="0.976015"><ele>121.00000000000001</ele><time>2026-03-29T14:48:25.546Z</time></trkpt><trkpt lat="44.9314383" lon="0.97595"><ele>121.0</ele><time>2026-03-29T14:48:26.546Z</time></trkpt><trkpt lat="44.931355" lon="0.9758783"><ele>121.6</ele><time>2026-03-29T14:48:27.547Z</time></trkpt><trkpt lat="44.9312783" lon="0.97583"><ele>122.19999999999999</ele><time>2026-03-29T14:48:28.546Z</time></trkpt><trkpt lat="44.931205" lon="0.9757767"><ele>122.80000000000001</ele><time>2026-03-29T14:48:29.547Z</time></trkpt><trkpt lat="44.93113" lon="0.9757183"><ele>123.4</ele><time>2026-03-29T14:48:30.547Z</time></trkpt><trkpt lat="44.9310283" lon="0.9756733"><ele>124.0</ele><time>2026-03-29T14:48:31.546Z</time></trkpt><trkpt lat="44.9309183" lon="0.97563"><ele>124.4</ele><time>2026-03-29T14:48:32.547Z</time></trkpt><trkpt lat="44.9308117" lon="0.9755833"><ele>124.80000000000001</ele><time>2026-03-29T14:48:33.547Z</time></trkpt><trkpt lat="44.9307033" lon="0.975545"><ele>125.19999999999999</ele><time>2026-03-29T14:48:34.546Z</time></trkpt><trkpt lat="44.9306117" lon="0.97552"><ele>125.6</ele><time>2026-03-29T14:48:35.546Z</time></trkpt><trkpt lat="44.930535" lon="0.9755017"><ele>126.0</ele><time>2026-03-29T14:48:36.546Z</time></trkpt><trkpt lat="44.93047" lon="0.9754783"><ele>126.0</ele><time>2026-03-29T14:48:37.547Z</time></trkpt><trkpt lat="44.9304033" lon="0.9754433"><ele>126.0</ele><time>2026-03-29T14:48:38.547Z</time></trkpt><trkpt lat="44.9303267" lon="0.9753083"><ele>126.0</ele><time>2026-03-29T14:48:40.547Z</time></trkpt><trkpt lat="44.9302833" lon="0.9751717"><ele>126.0</ele><time>2026-03-29T14:48:42.546Z</time></trkpt><trkpt lat="44.9302317" lon="0.9750217"><ele>126.0</ele><time>2026-03-29T14:48:44.546Z</time></trkpt><trkpt lat="44.9301767" lon="0.9748883"><ele>127.0</ele><time>2026-03-29T14:48:46.547Z</time></trkpt><trkpt lat="44.9301017" lon="0.9748383"><ele>128.0</ele><time>2026-03-29T14:48:48.546Z</time></trkpt><trkpt lat="44.92999" lon="0.974875"><ele>129.0</ele><time>2026-03-29T14:48:50.546Z</time></trkpt><trkpt lat="44.9298733" lon="0.9748983"><ele>130.0</ele><time>2026-03-29T14:48:52.546Z</time></trkpt><trkpt lat="44.9298067" lon="0.9749"><ele>131.0</ele><time>2026-03-29T14:48:53.546Z</time></trkpt><trkpt lat="44.9297317" lon="0.9748967"><ele>132.16666666666666</ele><time>2026-03-29T14:48:54.546Z</time></trkpt><trkpt lat="44.929665" lon="0.9748867"><ele>133.33333333333331</ele><time>2026-03-29T14:48:55.546Z</time></trkpt><trkpt lat="44.9295733" lon="0.9748683"><ele>134.5</ele><time>2026-03-29T14:48:57.547Z</time></trkpt><trkpt lat="44.92949" lon="0.974825"><ele>135.66666666666666</ele><time>2026-03-29T14:49:00.546Z</time></trkpt><trkpt lat="44.92944" lon="0.9747617"><ele>136.83333333333334</ele><time>2026-03-29T14:49:03.546Z</time></trkpt><trkpt lat="44.9294433" lon="0.97463"><ele>138.0</ele><time>2026-03-29T14:49:06.547Z</time></trkpt><trkpt lat="44.929495" lon="0.9744667"><ele>138.0</ele><time>2026-03-29T14:49:08.546Z</time></trkpt><trkpt lat="44.9295217" lon="0.9743683"><ele>138.0</ele><time>2026-03-29T14:49:09.546Z</time></trkpt><trkpt lat="44.9295467" lon="0.97426"><ele>138.0</ele><time>2026-03-29T14:49:10.546Z</time></trkpt><trkpt lat="44.92957" lon="0.9741633"><ele>138.0</ele><time>2026-03-29T14:49:11.547Z</time></trkpt><trkpt lat="44.9295933" lon="0.97407"><ele>138.0</ele><time>2026-03-29T14:49:12.546Z</time></trkpt><trkpt lat="44.9296233" lon="0.973975"><ele>138.0</ele><time>2026-03-29T14:49:13.546Z</time></trkpt><trkpt lat="44.9296467" lon="0.9738883"><ele>138.0</ele><time>2026-03-29T14:49:14.546Z</time></trkpt><trkpt lat="44.929735" lon="0.9737383"><ele>138.0</ele><time>2026-03-29T14:49:16.547Z</time></trkpt><trkpt lat="44.92979" lon="0.973645"><ele>138.0</ele><time>2026-03-29T14:49:17.546Z</time></trkpt><trkpt lat="44.9298433" lon="0.9735433"><ele>138.0</ele><time>2026-03-29T14:49:18.547Z</time></trkpt><trkpt lat="44.9299017" lon="0.97344"><ele>138.0</ele><time>2026-03-29T14:49:19.547Z</time></trkpt><trkpt lat="44.92994" lon="0.9733183"><ele>138.0</ele><time>2026-03-29T14:49:20.546Z</time></trkpt><trkpt lat="44.9299733" lon="0.9732017"><ele>137.8</ele><time>2026-03-29T14:49:21.547Z</time></trkpt><trkpt lat="44.9300133" lon="0.9730683"><ele>137.60000000000002</ele><time>2026-03-29T14:49:22.546Z</time></trkpt><trkpt lat="44.930045" lon="0.972945"><ele>137.39999999999998</ele><time>2026-03-29T14:49:23.547Z</time></trkpt><trkpt lat="44.930075" lon="0.972815"><ele>137.2</ele><time>2026-03-29T14:49:24.547Z</time></trkpt><trkpt lat="44.930105" lon="0.9726817"><ele>137.0</ele><time>2026-03-29T14:49:25.547Z</time></trkpt><trkpt lat="44.9301483" lon="0.9725467"><ele>136.0</ele><time>2026-03-29T14:49:26.547Z</time></trkpt><trkpt lat="44.93018" lon="0.972395"><ele>135.0</ele><time>2026-03-29T14:49:27.547Z</time></trkpt><trkpt lat="44.9301933" lon="0.9722467"><ele>134.0</ele><time>2026-03-29T14:49:28.547Z</time></trkpt><trkpt lat="44.9301883" lon="0.9720917"><ele>133.0</ele><time>2026-03-29T14:49:29.546Z</time></trkpt><trkpt lat="44.9301633" lon="0.971955"><ele>132.0</ele><time>2026-03-29T14:49:30.547Z</time></trkpt><trkpt lat="44.9301533" lon="0.9718133"><ele>132.6</ele><time>2026-03-29T14:49:31.547Z</time></trkpt><trkpt lat="44.9301483" lon="0.97167"><ele>133.2</ele><time>2026-03-29T14:49:32.547Z</time></trkpt><trkpt lat="44.930155" lon="0.9715283"><ele>133.8</ele><time>2026-03-29T14:49:33.546Z</time></trkpt><trkpt lat="44.93017" lon="0.971385"><ele>134.4</ele><time>2026-03-29T14:49:34.546Z</time></trkpt><trkpt lat="44.930185" lon="0.9712467"><ele>135.0</ele><time>2026-03-29T14:49:35.546Z</time></trkpt><trkpt lat="44.9302017" lon="0.9711367"><ele>135.0</ele><time>2026-03-29T14:49:36.546Z</time></trkpt><trkpt lat="44.9302233" lon="0.971"><ele>135.0</ele><time>2026-03-29T14:49:38.546Z</time></trkpt><trkpt lat="44.930235" lon="0.97091"><ele>135.0</ele><time>2026-03-29T14:49:41.547Z</time></trkpt><trkpt lat="44.930205" lon="0.970775"><ele>135.0</ele><time>2026-03-29T14:49:45.547Z</time></trkpt><trkpt lat="44.930105" lon="0.9706517"><ele>135.0</ele><time>2026-03-29T14:49:47.547Z</time></trkpt><trkpt lat="44.9300417" lon="0.9705833"><ele>134.66666666666666</ele><time>2026-03-29T14:49:48.546Z</time></trkpt><trkpt lat="44.9299683" lon="0.9705183"><ele>134.33333333333334</ele><time>2026-03-29T14:49:49.546Z</time></trkpt><trkpt lat="44.9298967" lon="0.970445"><ele>134.0</ele><time>2026-03-29T14:49:50.546Z</time></trkpt><trkpt lat="44.9298233" lon="0.970375"><ele>133.66666666666669</ele><time>2026-03-29T14:49:51.546Z</time></trkpt><trkpt lat="44.9297667" lon="0.9702967"><ele>133.33333333333334</ele><time>2026-03-29T14:49:52.546Z</time></trkpt><trkpt lat="44.9297017" lon="0.97022"><ele>133.0</ele><time>2026-03-29T14:49:53.547Z</time></trkpt><trkpt lat="44.9296733" lon="0.9701267"><ele>133.0</ele><time>2026-03-29T14:49:54.547Z</time></trkpt><trkpt lat="44.9296483" lon="0.970025"><ele>133.0</ele><time>2026-03-29T14:49:55.546Z</time></trkpt><trkpt lat="44.929625" lon="0.9699233"><ele>133.0</ele><time>2026-03-29T14:49:56.547Z</time></trkpt><trkpt lat="44.9296133" lon="0.9698083"><ele>133.0</ele><time>2026-03-29T14:49:57.547Z</time></trkpt><trkpt lat="44.9296217" lon="0.9696817"><ele>133.0</ele><time>2026-03-29T14:49:58.547Z</time></trkpt><trkpt lat="44.9296433" lon="0.96954"><ele>133.0</ele><time>2026-03-29T14:49:59.546Z</time></trkpt><trkpt lat="44.9296783" lon="0.9694083"><ele>132.75</ele><time>2026-03-29T14:50:00.547Z</time></trkpt><trkpt lat="44.9297317" lon="0.9692817"><ele>132.5</ele><time>2026-03-29T14:50:01.546Z</time></trkpt><trkpt lat="44.9298067" lon="0.9691483"><ele>132.25</ele><time>2026-03-29T14:50:02.546Z</time></trkpt><trkpt lat="44.92988" lon="0.9690233"><ele>132.0</ele><time>2026-03-29T14:50:03.546Z</time></trkpt><trkpt lat="44.9299583" lon="0.9689033"><ele>131.6</ele><time>2026-03-29T14:50:04.547Z</time></trkpt><trkpt lat="44.9300217" lon="0.9687833"><ele>131.2</ele><time>2026-03-29T14:50:05.547Z</time></trkpt><trkpt lat="44.9300817" lon="0.9686717"><ele>130.8</ele><time>2026-03-29T14:50:06.547Z</time></trkpt><trkpt lat="44.9301467" lon="0.9685567"><ele>130.4</ele><time>2026-03-29T14:50:07.547Z</time></trkpt><trkpt lat="44.9302167" lon="0.9684133"><ele>130.0</ele><time>2026-03-29T14:50:08.547Z</time></trkpt><trkpt lat="44.9302817" lon="0.9682667"><ele>130.0</ele><time>2026-03-29T14:50:09.546Z</time></trkpt><trkpt lat="44.9303533" lon="0.9681317"><ele>130.0</ele><time>2026-03-29T14:50:10.546Z</time></trkpt><trkpt lat="44.9304217" lon="0.967985"><ele>130.0</ele><time>2026-03-29T14:50:11.547Z</time></trkpt><trkpt lat="44.9304767" lon="0.9678383"><ele>130.0</ele><time>2026-03-29T14:50:12.546Z</time></trkpt><trkpt lat="44.9305183" lon="0.9676967"><ele>130.0</ele><time>2026-03-29T14:50:13.547Z</time></trkpt><trkpt lat="44.9305533" lon="0.9675683"><ele>130.0</ele><time>2026-03-29T14:50:14.547Z</time></trkpt><trkpt lat="44.93058" lon="0.96745"><ele>130.0</ele><time>2026-03-29T14:50:15.547Z</time></trkpt><trkpt lat="44.9305967" lon="0.9673483"><ele>130.0</ele><time>2026-03-29T14:50:16.547Z</time></trkpt><trkpt lat="44.9306" lon="0.967255"><ele>130.0</ele><time>2026-03-29T14:50:17.547Z</time></trkpt><trkpt lat="44.9305667" lon="0.9671383"><ele>130.0</ele><time>2026-03-29T14:50:19.546Z</time></trkpt><trkpt lat="44.9305083" lon="0.9670517"><ele>128.8</ele><time>2026-03-29T14:50:21.546Z</time></trkpt><trkpt lat="44.930465" lon="0.9669783"><ele>127.6</ele><time>2026-03-29T14:50:24.546Z</time></trkpt><trkpt lat="44.9303783" lon="0.9669117"><ele>126.4</ele><time>2026-03-29T14:50:37.547Z</time></trkpt><trkpt lat="44.930295" lon="0.9668367"><ele>125.2</ele><time>2026-03-29T14:50:40.546Z</time></trkpt><trkpt lat="44.93024" lon="0.9667433"><ele>124.0</ele><time>2026-03-29T14:50:42.547Z</time></trkpt><trkpt lat="44.9301733" lon="0.96662"><ele>124.0</ele><time>2026-03-29T14:50:44.547Z</time></trkpt><trkpt lat="44.9300883" lon="0.9664733"><ele>124.0</ele><time>2026-03-29T14:50:46.547Z</time></trkpt><trkpt lat="44.9300017" lon="0.9663417"><ele>124.0</ele><time>2026-03-29T14:50:48.546Z</time></trkpt><trkpt lat="44.9299583" lon="0.966275"><ele>124.0</ele><time>2026-03-29T14:50:49.547Z</time></trkpt><trkpt lat="44.9299117" lon="0.9662017"><ele>124.0</ele><time>2026-03-29T14:50:50.546Z</time></trkpt><trkpt lat="44.929865" lon="0.9661167"><ele>123.66666666666667</ele><time>2026-03-29T14:50:51.546Z</time></trkpt><trkpt lat="44.9298217" lon="0.96602"><ele>123.33333333333334</ele><time>2026-03-29T14:50:52.546Z</time></trkpt><trkpt lat="44.929775" lon="0.9659217"><ele>123.0</ele><time>2026-03-29T14:50:53.545Z</time></trkpt><trkpt lat="44.9297217" lon="0.9658333"><ele>122.66666666666666</ele><time>2026-03-29T14:50:54.545Z</time></trkpt><trkpt lat="44.9296717" lon="0.9657517"><ele>122.33333333333333</ele><time>2026-03-29T14:50:55.546Z</time></trkpt><trkpt lat="44.929625" lon="0.9656583"><ele>122.0</ele><time>2026-03-29T14:50:56.545Z</time></trkpt><trkpt lat="44.92958" lon="0.9655683"><ele>123.66666666666666</ele><time>2026-03-29T14:50:57.545Z</time></trkpt><trkpt lat="44.9295333" lon="0.9654733"><ele>125.33333333333333</ele><time>2026-03-29T14:50:58.546Z</time></trkpt><trkpt lat="44.9294883" lon="0.9653933"><ele>127.0</ele><time>2026-03-29T14:50:59.546Z</time></trkpt><trkpt lat="44.9294467" lon="0.9652967"><ele>128.66666666666666</ele><time>2026-03-29T14:51:00.546Z</time></trkpt><trkpt lat="44.9294167" lon="0.9652133"><ele>130.33333333333334</ele><time>2026-03-29T14:51:01.545Z</time></trkpt><trkpt lat="44.92936" lon="0.96506"><ele>132.0</ele><time>2026-03-29T14:51:03.545Z</time></trkpt><trkpt lat="44.9293317" lon="0.9648983"><ele>132.83333333333334</ele><time>2026-03-29T14:51:05.545Z</time></trkpt><trkpt lat="44.9293183" lon="0.9647217"><ele>133.66666666666666</ele><time>2026-03-29T14:51:07.545Z</time></trkpt><trkpt lat="44.92932" lon="0.9646233"><ele>134.5</ele><time>2026-03-29T14:51:08.546Z</time></trkpt><trkpt lat="44.9293067" lon="0.9645167"><ele>135.33333333333331</ele><time>2026-03-29T14:51:09.545Z</time></trkpt><trkpt lat="44.929285" lon="0.9644183"><ele>136.16666666666666</ele><time>2026-03-29T14:51:10.545Z</time></trkpt><trkpt lat="44.9292533" lon="0.9643083"><ele>137.0</ele><time>2026-03-29T14:51:11.546Z</time></trkpt><trkpt lat="44.9292217" lon="0.9642083"><ele>137.83333333333331</ele><time>2026-03-29T14:51:12.546Z</time></trkpt><trkpt lat="44.9291967" lon="0.964105"><ele>138.66666666666666</ele><time>2026-03-29T14:51:13.545Z</time></trkpt><trkpt lat="44.929165" lon="0.9639933"><ele>139.5</ele><time>2026-03-29T14:51:14.546Z</time></trkpt><trkpt lat="44.92913" lon="0.9638883"><ele>140.33333333333334</ele><time>2026-03-29T14:51:15.546Z</time></trkpt><trkpt lat="44.9290967" lon="0.9637833"><ele>141.16666666666669</ele><time>2026-03-29T14:51:16.545Z</time></trkpt><trkpt lat="44.929075" lon="0.9636967"><ele>142.0</ele><time>2026-03-29T14:51:17.546Z</time></trkpt><trkpt lat="44.9290517" lon="0.9636017"><ele>142.0</ele><time>2026-03-29T14:51:18.545Z</time></trkpt><trkpt lat="44.9290183" lon="0.96351"><ele>142.0</ele><time>2026-03-29T14:51:19.546Z</time></trkpt><trkpt lat="44.9290117" lon="0.9634067"><ele>142.0</ele><time>2026-03-29T14:51:20.546Z</time></trkpt><trkpt lat="44.9289967" lon="0.963255"><ele>142.0</ele><time>2026-03-29T14:51:22.545Z</time></trkpt><trkpt lat="44.9290367" lon="0.96313"><ele>142.0</ele><time>2026-03-29T15:07:36.541Z</time></trkpt><trkpt lat="44.9291333" lon="0.96309"><ele>142.33333333333334</ele><time>2026-03-29T15:07:38.542Z</time></trkpt><trkpt lat="44.9292017" lon="0.9630733"><ele>142.66666666666669</ele><time>2026-03-29T15:07:39.542Z</time></trkpt><trkpt lat="44.929275" lon="0.9630517"><ele>143.0</ele><time>2026-03-29T15:07:40.542Z</time></trkpt><trkpt lat="44.929355" lon="0.9630167"><ele>143.33333333333334</ele><time>2026-03-29T15:07:41.541Z</time></trkpt><trkpt lat="44.9294333" lon="0.9629883"><ele>143.66666666666666</ele><time>2026-03-29T15:07:42.541Z</time></trkpt><trkpt lat="44.929505" lon="0.962965"><ele>144.0</ele><time>2026-03-29T15:07:43.541Z</time></trkpt><trkpt lat="44.9295767" lon="0.9629433"><ele>144.33333333333334</ele><time>2026-03-29T15:07:44.541Z</time></trkpt><trkpt lat="44.9296567" lon="0.9629267"><ele>144.66666666666666</ele><time>2026-03-29T15:07:45.541Z</time></trkpt><trkpt lat="44.929735" lon="0.962905"><ele>145.0</ele><time>2026-03-29T15:07:46.541Z</time></trkpt><trkpt lat="44.92981" lon="0.9628867"><ele>145.33333333333331</ele><time>2026-03-29T15:07:47.542Z</time></trkpt><trkpt lat="44.92988" lon="0.9628717"><ele>145.66666666666666</ele><time>2026-03-29T15:07:48.542Z</time></trkpt><trkpt lat="44.929945" lon="0.9628583"><ele>146.0</ele><time>2026-03-29T15:07:49.542Z</time></trkpt><trkpt lat="44.93007" lon="0.9628183"><ele>147.14285714285714</ele><time>2026-03-29T15:07:51.542Z</time></trkpt><trkpt lat="44.9301367" lon="0.9628"><ele>148.28571428571428</ele><time>2026-03-29T15:07:52.542Z</time></trkpt><trkpt lat="44.9302033" lon="0.9627767"><ele>149.42857142857144</ele><time>2026-03-29T15:07:53.542Z</time></trkpt><trkpt lat="44.9302667" lon="0.9627517"><ele>150.57142857142856</ele><time>2026-03-29T15:07:54.541Z</time></trkpt><trkpt lat="44.93033" lon="0.9627333"><ele>151.71428571428572</ele><time>2026-03-29T15:07:55.542Z</time></trkpt><trkpt lat="44.930395" lon="0.9626933"><ele>152.85714285714286</ele><time>2026-03-29T15:07:57.542Z</time></trkpt><trkpt lat="44.9304583" lon="0.9626667"><ele>154.0</ele><time>2026-03-29T15:08:01.541Z</time></trkpt><trkpt lat="44.9305333" lon="0.9626267"><ele>154.0</ele><time>2026-03-29T15:08:03.542Z</time></trkpt><trkpt lat="44.9306383" lon="0.9625733"><ele>154.0</ele><time>2026-03-29T15:08:05.541Z</time></trkpt><trkpt lat="44.9307517" lon="0.9625133"><ele>154.0</ele><time>2026-03-29T15:08:07.541Z</time></trkpt><trkpt lat="44.930835" lon="0.9624233"><ele>154.0</ele><time>2026-03-29T15:08:09.541Z</time></trkpt><trkpt lat="44.9309233" lon="0.9623583"><ele>154.0</ele><time>2026-03-29T15:08:11.541Z</time></trkpt><trkpt lat="44.9309917" lon="0.9623017"><ele>154.5</ele><time>2026-03-29T15:08:13.541Z</time></trkpt><trkpt lat="44.9310983" lon="0.9622217"><ele>155.0</ele><time>2026-03-29T15:08:25.541Z</time></trkpt><trkpt lat="44.9311017" lon="0.96213"><ele>155.5</ele><time>2026-03-29T15:08:28.542Z</time></trkpt><trkpt lat="44.93103" lon="0.9620433"><ele>156.0</ele><time>2026-03-29T15:08:30.542Z</time></trkpt><trkpt lat="44.9309683" lon="0.961995"><ele>156.5</ele><time>2026-03-29T15:08:31.542Z</time></trkpt><trkpt lat="44.9308983" lon="0.961955"><ele>157.0</ele><time>2026-03-29T15:08:32.541Z</time></trkpt><trkpt lat="44.930815" lon="0.961915"><ele>155.6</ele><time>2026-03-29T15:08:33.542Z</time></trkpt><trkpt lat="44.9307233" lon="0.9618767"><ele>154.2</ele><time>2026-03-29T15:08:34.541Z</time></trkpt><trkpt lat="44.9306167" lon="0.9618567"><ele>152.8</ele><time>2026-03-29T15:08:35.542Z</time></trkpt><trkpt lat="44.9305083" lon="0.9618533"><ele>151.4</ele><time>2026-03-29T15:08:36.542Z</time></trkpt><trkpt lat="44.9304017" lon="0.9618567"><ele>150.0</ele><time>2026-03-29T15:08:37.541Z</time></trkpt><trkpt lat="44.9303" lon="0.961865"><ele>150.0</ele><time>2026-03-29T15:08:38.542Z</time></trkpt><trkpt lat="44.9302033" lon="0.9618683"><ele>150.0</ele><time>2026-03-29T15:08:39.542Z</time></trkpt><trkpt lat="44.9301083" lon="0.9618567"><ele>150.0</ele><time>2026-03-29T15:08:40.542Z</time></trkpt><trkpt lat="44.9300167" lon="0.9618467"><ele>150.0</ele><time>2026-03-29T15:08:41.541Z</time></trkpt><trkpt lat="44.9299317" lon="0.961805"><ele>150.0</ele><time>2026-03-29T15:08:42.541Z</time></trkpt><trkpt lat="44.9298533" lon="0.961755"><ele>149.0</ele><time>2026-03-29T15:08:43.542Z</time></trkpt><trkpt lat="44.929775" lon="0.9617017"><ele>148.0</ele><time>2026-03-29T15:08:44.542Z</time></trkpt><trkpt lat="44.9297017" lon="0.9616433"><ele>147.0</ele><time>2026-03-29T15:08:45.542Z</time></trkpt><trkpt lat="44.9296167" lon="0.961595"><ele>146.0</ele><time>2026-03-29T15:08:46.541Z</time></trkpt><trkpt lat="44.9295317" lon="0.9615267"><ele>145.0</ele><time>2026-03-29T15:08:47.542Z</time></trkpt><trkpt lat="44.9294333" lon="0.9614767"><ele>144.8</ele><time>2026-03-29T15:08:48.541Z</time></trkpt><trkpt lat="44.9293333" lon="0.9614483"><ele>144.6</ele><time>2026-03-29T15:08:49.542Z</time></trkpt><trkpt lat="44.9292367" lon="0.9614117"><ele>144.4</ele><time>2026-03-29T15:08:50.541Z</time></trkpt><trkpt lat="44.929135" lon="0.9613717"><ele>144.2</ele><time>2026-03-29T15:08:51.542Z</time></trkpt><trkpt lat="44.929045" lon="0.9613133"><ele>144.0</ele><time>2026-03-29T15:08:52.541Z</time></trkpt><trkpt lat="44.9289467" lon="0.9612533"><ele>143.0</ele><time>2026-03-29T15:08:53.542Z</time></trkpt><trkpt lat="44.9288783" lon="0.9611717"><ele>142.0</ele><time>2026-03-29T15:08:54.542Z</time></trkpt><trkpt lat="44.9288167" lon="0.9611067"><ele>141.0</ele><time>2026-03-29T15:08:55.541Z</time></trkpt><trkpt lat="44.928735" lon="0.9610117"><ele>140.0</ele><time>2026-03-29T15:08:57.542Z</time></trkpt><trkpt lat="44.9286733" lon="0.9609083"><ele>139.0</ele><time>2026-03-29T15:08:59.541Z</time></trkpt><trkpt lat="44.9286217" lon="0.96079"><ele>137.8</ele><time>2026-03-29T15:09:01.541Z</time></trkpt><trkpt lat="44.9286033" lon="0.9607033"><ele>136.60000000000002</ele><time>2026-03-29T15:09:02.542Z</time></trkpt><trkpt lat="44.9285767" lon="0.960585"><ele>135.4</ele><time>2026-03-29T15:09:03.541Z</time></trkpt><trkpt lat="44.9285517" lon="0.9604533"><ele>134.20000000000002</ele><time>2026-03-29T15:09:04.541Z</time></trkpt><trkpt lat="44.9285233" lon="0.960315"><ele>133.0</ele><time>2026-03-29T15:09:05.542Z</time></trkpt><trkpt lat="44.9284917" lon="0.9601783"><ele>133.0</ele><time>2026-03-29T15:09:06.541Z</time></trkpt><trkpt lat="44.92845" lon="0.9600433"><ele>133.0</ele><time>2026-03-29T15:09:07.541Z</time></trkpt><trkpt lat="44.9284067" lon="0.9599033"><ele>133.0</ele><time>2026-03-29T15:09:08.542Z</time></trkpt><trkpt lat="44.9283583" lon="0.9597733"><ele>133.0</ele><time>2026-03-29T15:09:09.542Z</time></trkpt><trkpt lat="44.9283117" lon="0.9596517"><ele>133.0</ele><time>2026-03-29T15:09:10.542Z</time></trkpt><trkpt lat="44.9282633" lon="0.959535"><ele>133.16666666666669</ele><time>2026-03-29T15:09:11.541Z</time></trkpt><trkpt lat="44.9282133" lon="0.9594217"><ele>133.33333333333334</ele><time>2026-03-29T15:09:12.541Z</time></trkpt><trkpt lat="44.9281717" lon="0.9593183"><ele>133.5</ele><time>2026-03-29T15:09:13.541Z</time></trkpt><trkpt lat="44.9281283" lon="0.959205"><ele>133.66666666666666</ele><time>2026-03-29T15:09:14.541Z</time></trkpt><trkpt lat="44.928085" lon="0.959115"><ele>133.83333333333331</ele><time>2026-03-29T15:09:15.541Z</time></trkpt><trkpt lat="44.9280467" lon="0.9590367"><ele>134.0</ele><time>2026-03-29T15:09:16.541Z</time></trkpt><trkpt lat="44.9280017" lon="0.9589667"><ele>134.85714285714286</ele><time>2026-03-29T15:09:17.542Z</time></trkpt><trkpt lat="44.92795" lon="0.9589133"><ele>135.71428571428572</ele><time>2026-03-29T15:09:18.541Z</time></trkpt><trkpt lat="44.9278933" lon="0.9588567"><ele>136.57142857142856</ele><time>2026-03-29T15:09:19.541Z</time></trkpt><trkpt lat="44.9278383" lon="0.95881"><ele>137.42857142857144</ele><time>2026-03-29T15:09:20.541Z</time></trkpt><trkpt lat="44.92777" lon="0.95878"><ele>138.28571428571428</ele><time>2026-03-29T15:09:21.542Z</time></trkpt><trkpt lat="44.927685" lon="0.9587667"><ele>139.14285714285714</ele><time>2026-03-29T15:09:22.541Z</time></trkpt><trkpt lat="44.9275983" lon="0.958765"><ele>140.0</ele><time>2026-03-29T15:09:23.542Z</time></trkpt><trkpt lat="44.9275117" lon="0.9587783"><ele>140.6</ele><time>2026-03-29T15:09:24.542Z</time></trkpt><trkpt lat="44.9274317" lon="0.9587867"><ele>141.2</ele><time>2026-03-29T15:09:25.542Z</time></trkpt><trkpt lat="44.9273667" lon="0.95881"><ele>141.8</ele><time>2026-03-29T15:09:26.541Z</time></trkpt><trkpt lat="44.9272567" lon="0.9588483"><ele>142.4</ele><time>2026-03-29T15:09:28.542Z</time></trkpt><trkpt lat="44.9271617" lon="0.9588217"><ele>143.0</ele><time>2026-03-29T15:09:30.541Z</time></trkpt><trkpt lat="44.9270917" lon="0.9587317"><ele>143.0</ele><time>2026-03-29T15:09:32.542Z</time></trkpt><trkpt lat="44.927045" lon="0.9585567"><ele>143.0</ele><time>2026-03-29T15:09:34.541Z</time></trkpt><trkpt lat="44.9270233" lon="0.958455"><ele>143.0</ele><time>2026-03-29T15:09:35.541Z</time></trkpt><trkpt lat="44.92699" lon="0.9583483"><ele>143.0</ele><time>2026-03-29T15:09:36.541Z</time></trkpt><trkpt lat="44.9269617" lon="0.958235"><ele>143.0</ele><time>2026-03-29T15:09:37.542Z</time></trkpt><trkpt lat="44.9269267" lon="0.9581017"><ele>144.0</ele><time>2026-03-29T15:09:38.542Z</time></trkpt><trkpt lat="44.9268867" lon="0.95798"><ele>145.0</ele><time>2026-03-29T15:09:39.541Z</time></trkpt><trkpt lat="44.9268517" lon="0.95786"><ele>146.0</ele><time>2026-03-29T15:09:40.541Z</time></trkpt><trkpt lat="44.92681" lon="0.9577483"><ele>147.0</ele><time>2026-03-29T15:09:41.542Z</time></trkpt><trkpt lat="44.9267633" lon="0.957635"><ele>148.0</ele><time>2026-03-29T15:09:42.542Z</time></trkpt><trkpt lat="44.92672" lon="0.9575183"><ele>148.33333333333334</ele><time>2026-03-29T15:09:43.541Z</time></trkpt><trkpt lat="44.9266683" lon="0.95741"><ele>148.66666666666669</ele><time>2026-03-29T15:09:44.541Z</time></trkpt><trkpt lat="44.9266267" lon="0.9573167"><ele>149.0</ele><time>2026-03-29T15:09:45.541Z</time></trkpt><trkpt lat="44.9265667" lon="0.95722"><ele>149.33333333333334</ele><time>2026-03-29T15:09:47.541Z</time></trkpt><trkpt lat="44.926615" lon="0.9571117"><ele>149.66666666666666</ele><time>2026-03-29T15:10:12.541Z</time></trkpt><trkpt lat="44.9266867" lon="0.9570267"><ele>150.0</ele><time>2026-03-29T15:10:14.54Z</time></trkpt><trkpt lat="44.92678" lon="0.9569083"><ele>150.0</ele><time>2026-03-29T15:10:16.541Z</time></trkpt><trkpt lat="44.926835" lon="0.9568433"><ele>150.0</ele><time>2026-03-29T15:10:17.541Z</time></trkpt><trkpt lat="44.9268867" lon="0.9567683"><ele>150.0</ele><time>2026-03-29T15:10:18.54Z</time></trkpt><trkpt lat="44.926935" lon="0.9566883"><ele>150.0</ele><time>2026-03-29T15:10:19.54Z</time></trkpt><trkpt lat="44.9269683" lon="0.9565867"><ele>150.0</ele><time>2026-03-29T15:10:20.54Z</time></trkpt><trkpt lat="44.9269967" lon="0.95648"><ele>150.0</ele><time>2026-03-29T15:10:21.54Z</time></trkpt><trkpt lat="44.9270233" lon="0.956365"><ele>150.2</ele><time>2026-03-29T15:10:22.54Z</time></trkpt><trkpt lat="44.9270467" lon="0.9562333"><ele>150.4</ele><time>2026-03-29T15:10:23.54Z</time></trkpt><trkpt lat="44.927065" lon="0.9560933"><ele>150.6</ele><time>2026-03-29T15:10:24.541Z</time></trkpt><trkpt lat="44.927085" lon="0.9559317"><ele>150.8</ele><time>2026-03-29T15:10:25.54Z</time></trkpt><trkpt lat="44.9271017" lon="0.9557633"><ele>151.0</ele><time>2026-03-29T15:10:26.54Z</time></trkpt><trkpt lat="44.9271017" lon="0.9555933"><ele>151.0</ele><time>2026-03-29T15:10:27.541Z</time></trkpt><trkpt lat="44.927135" lon="0.9554417"><ele>151.0</ele><time>2026-03-29T15:10:28.54Z</time></trkpt><trkpt lat="44.9271517" lon="0.9553033"><ele>151.0</ele><time>2026-03-29T15:10:29.54Z</time></trkpt><trkpt lat="44.9271733" lon="0.9551633"><ele>151.0</ele><time>2026-03-29T15:10:30.54Z</time></trkpt><trkpt lat="44.92718" lon="0.95504"><ele>151.0</ele><time>2026-03-29T15:10:31.54Z</time></trkpt><trkpt lat="44.9271933" lon="0.9549233"><ele>151.8</ele><time>2026-03-29T15:10:32.541Z</time></trkpt><trkpt lat="44.9272033" lon="0.9548083"><ele>152.6</ele><time>2026-03-29T15:10:33.541Z</time></trkpt><trkpt lat="44.9272333" lon="0.9546933"><ele>153.4</ele><time>2026-03-29T15:10:34.54Z</time></trkpt><trkpt lat="44.9272817" lon="0.954595"><ele>154.2</ele><time>2026-03-29T15:10:35.541Z</time></trkpt><trkpt lat="44.927325" lon="0.954485"><ele>155.0</ele><time>2026-03-29T15:10:36.54Z</time></trkpt><trkpt lat="44.9273833" lon="0.9543567"><ele>156.25</ele><time>2026-03-29T15:10:37.541Z</time></trkpt><trkpt lat="44.9274133" lon="0.9542"><ele>157.5</ele><time>2026-03-29T15:10:38.541Z</time></trkpt><trkpt lat="44.927445" lon="0.954035"><ele>158.75</ele><time>2026-03-29T15:10:39.541Z</time></trkpt><trkpt lat="44.9274817" lon="0.953865"><ele>160.0</ele><time>2026-03-29T15:10:40.54Z</time></trkpt><trkpt lat="44.9275267" lon="0.9537117"><ele>160.0</ele><time>2026-03-29T15:10:41.541Z</time></trkpt><trkpt lat="44.9275583" lon="0.9535783"><ele>160.0</ele><time>2026-03-29T15:10:42.54Z</time></trkpt><trkpt lat="44.92758" lon="0.9534433"><ele>160.0</ele><time>2026-03-29T15:10:43.54Z</time></trkpt><trkpt lat="44.9276017" lon="0.9533133"><ele>160.0</ele><time>2026-03-29T15:10:44.54Z</time></trkpt><trkpt lat="44.927625" lon="0.9531817"><ele>160.0</ele><time>2026-03-29T15:10:45.541Z</time></trkpt><trkpt lat="44.9276167" lon="0.9530517"><ele>159.16666666666669</ele><time>2026-03-29T15:10:46.541Z</time></trkpt><trkpt lat="44.9276083" lon="0.95295"><ele>158.33333333333334</ele><time>2026-03-29T15:10:47.541Z</time></trkpt><trkpt lat="44.9275967" lon="0.9528583"><ele>157.5</ele><time>2026-03-29T15:10:48.54Z</time></trkpt><trkpt lat="44.9275883" lon="0.9526817"><ele>156.66666666666666</ele><time>2026-03-29T15:10:50.54Z</time></trkpt><trkpt lat="44.9275967" lon="0.9525767"><ele>155.83333333333331</ele><time>2026-03-29T15:10:51.54Z</time></trkpt><trkpt lat="44.92762" lon="0.9524633"><ele>155.0</ele><time>2026-03-29T15:10:52.541Z</time></trkpt><trkpt lat="44.9276483" lon="0.9523417"><ele>155.0</ele><time>2026-03-29T15:10:53.541Z</time></trkpt><trkpt lat="44.927675" lon="0.9522217"><ele>155.0</ele><time>2026-03-29T15:10:54.541Z</time></trkpt><trkpt lat="44.927705" lon="0.9521083"><ele>155.0</ele><time>2026-03-29T15:10:55.54Z</time></trkpt><trkpt lat="44.9277417" lon="0.9519917"><ele>155.0</ele><time>2026-03-29T15:10:56.54Z</time></trkpt><trkpt lat="44.9277767" lon="0.95188"><ele>155.0</ele><time>2026-03-29T15:10:57.54Z</time></trkpt><trkpt lat="44.92781" lon="0.951785"><ele>155.0</ele><time>2026-03-29T15:10:58.541Z</time></trkpt><trkpt lat="44.927855" lon="0.9516783"><ele>156.16666666666666</ele><time>2026-03-29T15:11:00.54Z</time></trkpt><trkpt lat="44.927885" lon="0.9515667"><ele>157.33333333333331</ele><time>2026-03-29T15:11:07.541Z</time></trkpt><trkpt lat="44.9278983" lon="0.9514533"><ele>158.5</ele><time>2026-03-29T15:11:09.541Z</time></trkpt><trkpt lat="44.927915" lon="0.9513483"><ele>159.66666666666666</ele><time>2026-03-29T15:11:11.54Z</time></trkpt><trkpt lat="44.9279583" lon="0.951215"><ele>160.83333333333334</ele><time>2026-03-29T15:11:13.541Z</time></trkpt><trkpt lat="44.9279817" lon="0.95112"><ele>162.0</ele><time>2026-03-29T15:11:14.54Z</time></trkpt><trkpt lat="44.9280117" lon="0.951015"><ele>162.0</ele><time>2026-03-29T15:11:15.54Z</time></trkpt><trkpt lat="44.9280433" lon="0.95089"><ele>162.0</ele><time>2026-03-29T15:11:16.541Z</time></trkpt><trkpt lat="44.92809" lon="0.9507417"><ele>162.0</ele><time>2026-03-29T15:11:17.541Z</time></trkpt><trkpt lat="44.9281483" lon="0.95059"><ele>162.0</ele><time>2026-03-29T15:11:18.541Z</time></trkpt><trkpt lat="44.9281867" lon="0.9504633"><ele>162.0</ele><time>2026-03-29T15:11:19.541Z</time></trkpt><trkpt lat="44.9282083" lon="0.9503767"><ele>162.0</ele><time>2026-03-29T15:11:20.54Z</time></trkpt><trkpt lat="44.92824" lon="0.95026"><ele>162.0</ele><time>2026-03-29T15:11:22.54Z</time></trkpt><trkpt lat="44.9282717" lon="0.95017"><ele>162.0</ele><time>2026-03-29T15:11:25.541Z</time></trkpt><trkpt lat="44.9282917" lon="0.950025"><ele>162.0</ele><time>2026-03-29T15:11:28.54Z</time></trkpt><trkpt lat="44.928315" lon="0.9498517"><ele>162.0</ele><time>2026-03-29T15:11:30.541Z</time></trkpt><trkpt lat="44.9283483" lon="0.9496933"><ele>162.16666666666666</ele><time>2026-03-29T15:11:32.54Z</time></trkpt><trkpt lat="44.9283617" lon="0.9495967"><ele>162.33333333333334</ele><time>2026-03-29T15:11:33.54Z</time></trkpt><trkpt lat="44.928385" lon="0.94951"><ele>162.5</ele><time>2026-03-29T15:11:34.54Z</time></trkpt><trkpt lat="44.9284367" lon="0.9493667"><ele>162.66666666666669</ele><time>2026-03-29T15:11:36.541Z</time></trkpt><trkpt lat="44.9284567" lon="0.949275"><ele>162.83333333333334</ele><time>2026-03-29T15:11:38.541Z</time></trkpt><trkpt lat="44.92847" lon="0.9491683"><ele>163.0</ele><time>2026-03-29T15:11:40.54Z</time></trkpt><trkpt lat="44.9285217" lon="0.9490367"><ele>163.0</ele><time>2026-03-29T15:11:42.54Z</time></trkpt><trkpt lat="44.9285833" lon="0.9489017"><ele>163.0</ele><time>2026-03-29T15:11:44.54Z</time></trkpt><trkpt lat="44.9286417" lon="0.948715"><ele>163.0</ele><time>2026-03-29T15:11:46.541Z</time></trkpt><trkpt lat="44.9286733" lon="0.9485983"><ele>163.0</ele><time>2026-03-29T15:11:47.541Z</time></trkpt><trkpt lat="44.9287133" lon="0.9484967"><ele>163.0</ele><time>2026-03-29T15:11:48.54Z</time></trkpt><trkpt lat="44.9287633" lon="0.9483983"><ele>163.33333333333334</ele><time>2026-03-29T15:11:49.541Z</time></trkpt><trkpt lat="44.928805" lon="0.9483133"><ele>163.66666666666669</ele><time>2026-03-29T15:11:50.541Z</time></trkpt><trkpt lat="44.92886" lon="0.94822"><ele>164.0</ele><time>2026-03-29T15:11:51.541Z</time></trkpt><trkpt lat="44.928905" lon="0.9481283"><ele>164.33333333333334</ele><time>2026-03-29T15:11:52.54Z</time></trkpt><trkpt lat="44.9289667" lon="0.9480483"><ele>164.66666666666666</ele><time>2026-03-29T15:11:53.541Z</time></trkpt><trkpt lat="44.9290367" lon="0.9479667"><ele>165.0</ele><time>2026-03-29T15:11:54.54Z</time></trkpt><trkpt lat="44.9290933" lon="0.9479133"><ele>165.0</ele><time>2026-03-29T15:11:55.54Z</time></trkpt><trkpt lat="44.9291683" lon="0.94778"><ele>165.0</ele><time>2026-03-29T15:11:57.541Z</time></trkpt><trkpt lat="44.9292067" lon="0.9476983"><ele>165.0</ele><time>2026-03-29T15:11:59.54Z</time></trkpt><trkpt lat="44.9292617" lon="0.9476317"><ele>165.0</ele><time>2026-03-29T15:12:01.54Z</time></trkpt><trkpt lat="44.9293533" lon="0.9475633"><ele>165.0</ele><time>2026-03-29T15:12:03.54Z</time></trkpt><trkpt lat="44.9294367" lon="0.947495"><ele>166.8</ele><time>2026-03-29T15:12:05.541Z</time></trkpt><trkpt lat="44.9294883" lon="0.9473717"><ele>168.6</ele><time>2026-03-29T15:12:07.54Z</time></trkpt><trkpt lat="44.9295483" lon="0.947225"><ele>170.39999999999998</ele><time>2026-03-29T15:12:09.541Z</time></trkpt><trkpt lat="44.9296083" lon="0.947105"><ele>172.2</ele><time>2026-03-29T15:12:11.54Z</time></trkpt><trkpt lat="44.929675" lon="0.9470083"><ele>174.0</ele><time>2026-03-29T15:12:13.541Z</time></trkpt><trkpt lat="44.9297483" lon="0.9468833"><ele>174.0</ele><time>2026-03-29T15:12:15.54Z</time></trkpt><trkpt lat="44.9298217" lon="0.9468067"><ele>174.0</ele><time>2026-03-29T15:12:16.54Z</time></trkpt><trkpt lat="44.929885" lon="0.94674"><ele>174.0</ele><time>2026-03-29T15:12:17.541Z</time></trkpt><trkpt lat="44.9299367" lon="0.9466867"><ele>174.0</ele><time>2026-03-29T15:12:18.54Z</time></trkpt><trkpt lat="44.9299883" lon="0.94663"><ele>174.0</ele><time>2026-03-29T15:12:19.54Z</time></trkpt><trkpt lat="44.9300483" lon="0.9465783"><ele>174.0</ele><time>2026-03-29T15:12:20.541Z</time></trkpt><trkpt lat="44.9301133" lon="0.9465167"><ele>174.0</ele><time>2026-03-29T15:12:22.541Z</time></trkpt><trkpt lat="44.9302133" lon="0.946405"><ele>174.33333333333334</ele><time>2026-03-29T15:12:32.54Z</time></trkpt><trkpt lat="44.9302333" lon="0.9462767"><ele>174.66666666666666</ele><time>2026-03-29T15:12:36.541Z</time></trkpt><trkpt lat="44.9301767" lon="0.9461517"><ele>175.0</ele><time>2026-03-29T15:12:38.54Z</time></trkpt><trkpt lat="44.9301283" lon="0.9460733"><ele>175.33333333333331</ele><time>2026-03-29T15:12:39.54Z</time></trkpt><trkpt lat="44.9300733" lon="0.9459917"><ele>175.66666666666666</ele><time>2026-03-29T15:12:40.54Z</time></trkpt><trkpt lat="44.9300067" lon="0.94591"><ele>176.0</ele><time>2026-03-29T15:12:41.541Z</time></trkpt><trkpt lat="44.92992" lon="0.945825"><ele>176.0</ele><time>2026-03-29T15:12:42.541Z</time></trkpt><trkpt lat="44.929835" lon="0.945745"><ele>176.0</ele><time>2026-03-29T15:12:43.541Z</time></trkpt><trkpt lat="44.9297467" lon="0.9456683"><ele>176.0</ele><time>2026-03-29T15:12:44.54Z</time></trkpt><trkpt lat="44.9296533" lon="0.9456117"><ele>176.0</ele><time>2026-03-29T15:12:45.54Z</time></trkpt><trkpt lat="44.9295517" lon="0.9455667"><ele>176.0</ele><time>2026-03-29T15:12:46.54Z</time></trkpt><trkpt lat="44.9294517" lon="0.94553"><ele>176.0</ele><time>2026-03-29T15:12:47.54Z</time></trkpt><trkpt lat="44.929345" lon="0.945515"><ele>176.0</ele><time>2026-03-29T15:12:48.54Z</time></trkpt><trkpt lat="44.929115" lon="0.9454983"><ele>176.0</ele><time>2026-03-29T15:12:50.54Z</time></trkpt><trkpt lat="44.9289983" lon="0.9454883"><ele>175.4</ele><time>2026-03-29T15:12:51.541Z</time></trkpt><trkpt lat="44.9288883" lon="0.94548"><ele>174.8</ele><time>2026-03-29T15:12:52.541Z</time></trkpt><trkpt lat="44.9287883" lon="0.945475"><ele>174.20000000000002</ele><time>2026-03-29T15:12:53.541Z</time></trkpt><trkpt lat="44.92869" lon="0.945475"><ele>173.60000000000002</ele><time>2026-03-29T15:12:54.54Z</time></trkpt><trkpt lat="44.9285967" lon="0.9454733"><ele>173.0</ele><time>2026-03-29T15:12:55.541Z</time></trkpt><trkpt lat="44.9285" lon="0.9454767"><ele>173.0</ele><time>2026-03-29T15:12:56.54Z</time></trkpt><trkpt lat="44.9284" lon="0.9454933"><ele>173.0</ele><time>2026-03-29T15:12:57.54Z</time></trkpt><trkpt lat="44.9282983" lon="0.945515"><ele>173.0</ele><time>2026-03-29T15:12:58.541Z</time></trkpt><trkpt lat="44.9281967" lon="0.9455483"><ele>173.0</ele><time>2026-03-29T15:12:59.541Z</time></trkpt><trkpt lat="44.928105" lon="0.945595"><ele>173.0</ele><time>2026-03-29T15:13:00.54Z</time></trkpt><trkpt lat="44.92801" lon="0.9456483"><ele>173.2</ele><time>2026-03-29T15:13:01.54Z</time></trkpt><trkpt lat="44.927925" lon="0.94574"><ele>173.4</ele><time>2026-03-29T15:13:02.54Z</time></trkpt><trkpt lat="44.927835" lon="0.9458283"><ele>173.6</ele><time>2026-03-29T15:13:03.541Z</time></trkpt><trkpt lat="44.927745" lon="0.945935"><ele>173.79999999999998</ele><time>2026-03-29T15:13:04.54Z</time></trkpt><trkpt lat="44.92765" lon="0.9460067"><ele>174.0</ele><time>2026-03-29T15:13:05.541Z</time></trkpt><trkpt lat="44.9275517" lon="0.9460667"><ele>176.0</ele><time>2026-03-29T15:13:06.54Z</time></trkpt><trkpt lat="44.9274433" lon="0.9461083"><ele>178.0</ele><time>2026-03-29T15:13:07.54Z</time></trkpt><trkpt lat="44.927325" lon="0.9461233"><ele>180.0</ele><time>2026-03-29T15:13:08.541Z</time></trkpt><trkpt lat="44.927215" lon="0.946115"><ele>182.0</ele><time>2026-03-29T15:13:09.54Z</time></trkpt><trkpt lat="44.92708" lon="0.946095"><ele>182.0</ele><time>2026-03-29T15:13:10.54Z</time></trkpt><trkpt lat="44.926955" lon="0.9460733"><ele>182.0</ele><time>2026-03-29T15:13:11.54Z</time></trkpt><trkpt lat="44.9268267" lon="0.9460167"><ele>182.0</ele><time>2026-03-29T15:13:12.54Z</time></trkpt><trkpt lat="44.926685" lon="0.9459583"><ele>182.0</ele><time>2026-03-29T15:13:13.541Z</time></trkpt><trkpt lat="44.92656" lon="0.9458717"><ele>183.25</ele><time>2026-03-29T15:13:14.541Z</time></trkpt><trkpt lat="44.9264417" lon="0.9457883"><ele>184.5</ele><time>2026-03-29T15:13:15.541Z</time></trkpt><trkpt lat="44.9263183" lon="0.9457017"><ele>185.75</ele><time>2026-03-29T15:13:16.54Z</time></trkpt><trkpt lat="44.926205" lon="0.9456217"><ele>187.0</ele><time>2026-03-29T15:13:17.54Z</time></trkpt><trkpt lat="44.926095" lon="0.9455383"><ele>187.0</ele><time>2026-03-29T15:13:18.541Z</time></trkpt><trkpt lat="44.9259883" lon="0.9454667"><ele>187.0</ele><time>2026-03-29T15:13:19.54Z</time></trkpt><trkpt lat="44.9258833" lon="0.9454017"><ele>187.0</ele><time>2026-03-29T15:13:20.541Z</time></trkpt><trkpt lat="44.9257817" lon="0.945355"><ele>187.0</ele><time>2026-03-29T15:13:21.54Z</time></trkpt><trkpt lat="44.92571" lon="0.9453083"><ele>187.0</ele><time>2026-03-29T15:13:22.541Z</time></trkpt><trkpt lat="44.9256283" lon="0.9452583"><ele>187.2</ele><time>2026-03-29T15:13:24.54Z</time></trkpt><trkpt lat="44.9255667" lon="0.9452367"><ele>187.39999999999998</ele><time>2026-03-29T15:13:26.541Z</time></trkpt><trkpt lat="44.9254817" lon="0.94528"><ele>187.60000000000002</ele><time>2026-03-29T15:13:29.541Z</time></trkpt><trkpt lat="44.9254267" lon="0.94544"><ele>187.8</ele><time>2026-03-29T15:13:31.54Z</time></trkpt><trkpt lat="44.9253867" lon="0.9455883"><ele>188.0</ele><time>2026-03-29T15:13:33.54Z</time></trkpt><trkpt lat="44.925335" lon="0.9456833"><ele>188.0</ele><time>2026-03-29T15:13:35.541Z</time></trkpt><trkpt lat="44.92524" lon="0.9457017"><ele>188.0</ele><time>2026-03-29T15:13:37.541Z</time></trkpt><trkpt lat="44.925135" lon="0.9456567"><ele>188.0</ele><time>2026-03-29T15:13:38.541Z</time></trkpt><trkpt lat="44.9250167" lon="0.94561"><ele>188.0</ele><time>2026-03-29T15:13:39.54Z</time></trkpt><trkpt lat="44.9248617" lon="0.945575"><ele>187.75</ele><time>2026-03-29T15:13:40.54Z</time></trkpt><trkpt lat="44.9247267" lon="0.9455533"><ele>187.5</ele><time>2026-03-29T15:13:41.539Z</time></trkpt><trkpt lat="44.9245933" lon="0.945545"><ele>187.25</ele><time>2026-03-29T15:13:42.54Z</time></trkpt><trkpt lat="44.9244683" lon="0.9455417"><ele>187.0</ele><time>2026-03-29T15:13:43.539Z</time></trkpt><trkpt lat="44.9243467" lon="0.9455383"><ele>187.0</ele><time>2026-03-29T15:13:44.539Z</time></trkpt><trkpt lat="44.9242383" lon="0.9455367"><ele>187.0</ele><time>2026-03-29T15:13:45.54Z</time></trkpt><trkpt lat="44.9241283" lon="0.945535"><ele>187.0</ele><time>2026-03-29T15:13:46.54Z</time></trkpt><trkpt lat="44.9240133" lon="0.9455283"><ele>187.0</ele><time>2026-03-29T15:13:47.539Z</time></trkpt><trkpt lat="44.9238917" lon="0.9455"><ele>186.2</ele><time>2026-03-29T15:13:48.54Z</time></trkpt><trkpt lat="44.9237917" lon="0.94547"><ele>185.39999999999998</ele><time>2026-03-29T15:13:49.539Z</time></trkpt><trkpt lat="44.92369" lon="0.9454517"><ele>184.60000000000002</ele><time>2026-03-29T15:13:50.539Z</time></trkpt><trkpt lat="44.9235917" lon="0.945435"><ele>183.8</ele><time>2026-03-29T15:13:51.539Z</time></trkpt><trkpt lat="44.9234917" lon="0.94542"><ele>183.0</ele><time>2026-03-29T15:13:52.539Z</time></trkpt><trkpt lat="44.9234033" lon="0.945405"><ele>182.66666666666666</ele><time>2026-03-29T15:13:53.539Z</time></trkpt><trkpt lat="44.9233217" lon="0.945405"><ele>182.33333333333334</ele><time>2026-03-29T15:13:54.54Z</time></trkpt><trkpt lat="44.9232133" lon="0.945425"><ele>182.0</ele><time>2026-03-29T15:13:56.54Z</time></trkpt><trkpt lat="44.9231417" lon="0.9454683"><ele>181.66666666666669</ele><time>2026-03-29T15:13:58.54Z</time></trkpt><trkpt lat="44.9230767" lon="0.945485"><ele>181.33333333333334</ele><time>2026-03-29T15:14:00.54Z</time></trkpt><trkpt lat="44.9230067" lon="0.945425"><ele>181.0</ele><time>2026-03-29T15:14:02.539Z</time></trkpt><trkpt lat="44.9229533" lon="0.945365"><ele>181.0</ele><time>2026-03-29T15:14:03.539Z</time></trkpt><trkpt lat="44.9228983" lon="0.94528"><ele>181.0</ele><time>2026-03-29T15:14:04.539Z</time></trkpt><trkpt lat="44.922835" lon="0.9451783"><ele>181.0</ele><time>2026-03-29T15:14:05.539Z</time></trkpt><trkpt lat="44.922775" lon="0.9450717"><ele>181.0</ele><time>2026-03-29T15:14:06.54Z</time></trkpt><trkpt lat="44.9227083" lon="0.9449433"><ele>181.0</ele><time>2026-03-29T15:14:07.54Z</time></trkpt><trkpt lat="44.9226367" lon="0.94481"><ele>180.25</ele><time>2026-03-29T15:14:08.539Z</time></trkpt><trkpt lat="44.9225583" lon="0.9446933"><ele>179.5</ele><time>2026-03-29T15:14:09.54Z</time></trkpt><trkpt lat="44.9224667" lon="0.944585"><ele>178.75</ele><time>2026-03-29T15:14:10.54Z</time></trkpt><trkpt lat="44.9223633" lon="0.9444767"><ele>178.0</ele><time>2026-03-29T15:14:11.539Z</time></trkpt><trkpt lat="44.9222717" lon="0.944385"><ele>178.0</ele><time>2026-03-29T15:14:12.539Z</time></trkpt><trkpt lat="44.9221883" lon="0.944305"><ele>178.0</ele><time>2026-03-29T15:14:13.54Z</time></trkpt><trkpt lat="44.922125" lon="0.944235"><ele>178.0</ele><time>2026-03-29T15:14:14.54Z</time></trkpt><trkpt lat="44.9220717" lon="0.944175"><ele>178.0</ele><time>2026-03-29T15:14:15.54Z</time></trkpt><trkpt lat="44.9219983" lon="0.9441083"><ele>178.0</ele><time>2026-03-29T15:14:17.539Z</time></trkpt><trkpt lat="44.9219333" lon="0.9440517"><ele>178.0</ele><time>2026-03-29T15:14:21.539Z</time></trkpt><trkpt lat="44.9219117" lon="0.943925"><ele>177.8</ele><time>2026-03-29T15:14:24.539Z</time></trkpt><trkpt lat="44.921925" lon="0.943835"><ele>177.60000000000002</ele><time>2026-03-29T15:14:25.54Z</time></trkpt><trkpt lat="44.9219417" lon="0.943715"><ele>177.39999999999998</ele><time>2026-03-29T15:14:26.54Z</time></trkpt><trkpt lat="44.9219717" lon="0.9435633"><ele>177.2</ele><time>2026-03-29T15:14:27.54Z</time></trkpt><trkpt lat="44.9220117" lon="0.9433833"><ele>177.0</ele><time>2026-03-29T15:14:28.54Z</time></trkpt><trkpt lat="44.9220417" lon="0.9431983"><ele>176.5</ele><time>2026-03-29T15:14:29.54Z</time></trkpt><trkpt lat="44.9220717" lon="0.9430167"><ele>176.0</ele><time>2026-03-29T15:14:30.539Z</time></trkpt><trkpt lat="44.9221067" lon="0.9428417"><ele>175.5</ele><time>2026-03-29T15:14:31.539Z</time></trkpt><trkpt lat="44.922145" lon="0.9426883"><ele>175.0</ele><time>2026-03-29T15:14:32.539Z</time></trkpt><trkpt lat="44.9221817" lon="0.942555"><ele>175.83333333333334</ele><time>2026-03-29T15:14:33.539Z</time></trkpt><trkpt lat="44.9222167" lon="0.9424333"><ele>176.66666666666669</ele><time>2026-03-29T15:14:34.539Z</time></trkpt><trkpt lat="44.9222533" lon="0.94233"><ele>177.5</ele><time>2026-03-29T15:14:35.539Z</time></trkpt><trkpt lat="44.9222833" lon="0.94224"><ele>178.33333333333334</ele><time>2026-03-29T15:14:36.54Z</time></trkpt><trkpt lat="44.922315" lon="0.9421567"><ele>179.16666666666666</ele><time>2026-03-29T15:14:37.539Z</time></trkpt><trkpt lat="44.9223567" lon="0.942035"><ele>180.0</ele><time>2026-03-29T15:14:39.54Z</time></trkpt><trkpt lat="44.9224017" lon="0.941955"><ele>180.0</ele><time>2026-03-29T15:14:41.539Z</time></trkpt><trkpt lat="44.9224367" lon="0.941875"><ele>180.0</ele><time>2026-03-29T15:14:45.54Z</time></trkpt><trkpt lat="44.9224567" lon="0.941755"><ele>180.0</ele><time>2026-03-29T15:14:51.539Z</time></trkpt><trkpt lat="44.9224333" lon="0.9416417"><ele>180.0</ele><time>2026-03-29T15:14:53.54Z</time></trkpt><trkpt lat="44.922395" lon="0.9414933"><ele>180.0</ele><time>2026-03-29T15:14:55.54Z</time></trkpt><trkpt lat="44.9223567" lon="0.941325"><ele>180.66666666666666</ele><time>2026-03-29T15:14:57.539Z</time></trkpt><trkpt lat="44.9223383" lon="0.9411517"><ele>181.33333333333334</ele><time>2026-03-29T15:14:59.54Z</time></trkpt><trkpt lat="44.9223267" lon="0.94106"><ele>182.0</ele><time>2026-03-29T15:15:00.539Z</time></trkpt><trkpt lat="44.9223183" lon="0.9409617"><ele>182.66666666666669</ele><time>2026-03-29T15:15:01.54Z</time></trkpt><trkpt lat="44.9223033" lon="0.940855"><ele>183.33333333333334</ele><time>2026-03-29T15:15:02.54Z</time></trkpt><trkpt lat="44.9222867" lon="0.9407417"><ele>184.0</ele><time>2026-03-29T15:15:03.54Z</time></trkpt><trkpt lat="44.9222717" lon="0.9406317"><ele>184.0</ele><time>2026-03-29T15:15:04.54Z</time></trkpt><trkpt lat="44.9222483" lon="0.9405317"><ele>184.0</ele><time>2026-03-29T15:15:05.54Z</time></trkpt><trkpt lat="44.9222217" lon="0.9404433"><ele>184.0</ele><time>2026-03-29T15:15:06.539Z</time></trkpt><trkpt lat="44.9221883" lon="0.9403033"><ele>184.0</ele><time>2026-03-29T15:15:08.54Z</time></trkpt><trkpt lat="44.922165" lon="0.9401417"><ele>184.0</ele><time>2026-03-29T15:15:23.54Z</time></trkpt><trkpt lat="44.9221583" lon="0.9400183"><ele>183.0</ele><time>2026-03-29T15:15:25.54Z</time></trkpt><trkpt lat="44.9221767" lon="0.93985"><ele>182.0</ele><time>2026-03-29T15:15:27.54Z</time></trkpt><trkpt lat="44.9221917" lon="0.9397433"><ele>181.0</ele><time>2026-03-29T15:15:28.54Z</time></trkpt><trkpt lat="44.9222083" lon="0.9396333"><ele>180.0</ele><time>2026-03-29T15:15:29.539Z</time></trkpt><trkpt lat="44.9222283" lon="0.93952"><ele>179.0</ele><time>2026-03-29T15:15:30.54Z</time></trkpt><trkpt lat="44.9222483" lon="0.9394167"><ele>178.0</ele><time>2026-03-29T15:15:31.539Z</time></trkpt><trkpt lat="44.9222617" lon="0.9393133"><ele>177.33333333333334</ele><time>2026-03-29T15:15:32.539Z</time></trkpt><trkpt lat="44.9222717" lon="0.939205"><ele>176.66666666666669</ele><time>2026-03-29T15:15:33.539Z</time></trkpt><trkpt lat="44.9223" lon="0.9390983"><ele>176.0</ele><time>2026-03-29T15:15:34.54Z</time></trkpt><trkpt lat="44.922335" lon="0.9389817"><ele>175.33333333333334</ele><time>2026-03-29T15:15:35.539Z</time></trkpt><trkpt lat="44.9223833" lon="0.9388667"><ele>174.66666666666666</ele><time>2026-03-29T15:15:36.539Z</time></trkpt><trkpt lat="44.9224283" lon="0.938745"><ele>174.0</ele><time>2026-03-29T15:15:37.54Z</time></trkpt><trkpt lat="44.922485" lon="0.9386083"><ele>174.0</ele><time>2026-03-29T15:15:38.539Z</time></trkpt><trkpt lat="44.922565" lon="0.93849"><ele>174.0</ele><time>2026-03-29T15:15:39.539Z</time></trkpt><trkpt lat="44.9226483" lon="0.93837"><ele>174.0</ele><time>2026-03-29T15:15:40.539Z</time></trkpt><trkpt lat="44.9227167" lon="0.93825"><ele>174.0</ele><time>2026-03-29T15:15:41.54Z</time></trkpt><trkpt lat="44.9227933" lon="0.9381283"><ele>172.0</ele><time>2026-03-29T15:15:42.539Z</time></trkpt><trkpt lat="44.9228617" lon="0.9380083"><ele>170.0</ele><time>2026-03-29T15:15:43.54Z</time></trkpt><trkpt lat="44.9229417" lon="0.93788"><ele>168.0</ele><time>2026-03-29T15:15:44.54Z</time></trkpt><trkpt lat="44.923035" lon="0.9377683"><ele>166.0</ele><time>2026-03-29T15:15:45.539Z</time></trkpt><trkpt lat="44.923135" lon="0.93765"><ele>166.75</ele><time>2026-03-29T15:15:46.539Z</time></trkpt><trkpt lat="44.923245" lon="0.9375417"><ele>167.5</ele><time>2026-03-29T15:15:47.539Z</time></trkpt><trkpt lat="44.923365" lon="0.9374433"><ele>168.25</ele><time>2026-03-29T15:15:48.539Z</time></trkpt><trkpt lat="44.9234867" lon="0.9373383"><ele>169.0</ele><time>2026-03-29T15:15:49.54Z</time></trkpt><trkpt lat="44.9236083" lon="0.9372333"><ele>167.5</ele><time>2026-03-29T15:15:50.54Z</time></trkpt><trkpt lat="44.923725" lon="0.9371317"><ele>166.0</ele><time>2026-03-29T15:15:51.539Z</time></trkpt><trkpt lat="44.9238317" lon="0.937025"><ele>164.5</ele><time>2026-03-29T15:15:52.539Z</time></trkpt><trkpt lat="44.923935" lon="0.936935"><ele>163.0</ele><time>2026-03-29T15:15:53.54Z</time></trkpt><trkpt lat="44.9240433" lon="0.9368583"><ele>163.0</ele><time>2026-03-29T15:15:54.539Z</time></trkpt><trkpt lat="44.9241583" lon="0.9367767"><ele>163.0</ele><time>2026-03-29T15:15:55.54Z</time></trkpt><trkpt lat="44.9242633" lon="0.93668"><ele>163.0</ele><time>2026-03-29T15:15:56.54Z</time></trkpt><trkpt lat="44.92437" lon="0.9365883"><ele>163.0</ele><time>2026-03-29T15:15:57.539Z</time></trkpt><trkpt lat="44.924485" lon="0.93651"><ele>161.25</ele><time>2026-03-29T15:15:58.539Z</time></trkpt><trkpt lat="44.9246" lon="0.9364383"><ele>159.5</ele><time>2026-03-29T15:15:59.54Z</time></trkpt><trkpt lat="44.9247217" lon="0.9363683"><ele>157.75</ele><time>2026-03-29T15:16:00.54Z</time></trkpt><trkpt lat="44.9248417" lon="0.9362917"><ele>156.0</ele><time>2026-03-29T15:16:01.539Z</time></trkpt><trkpt lat="44.92497" lon="0.9362083"><ele>155.75</ele><time>2026-03-29T15:16:02.54Z</time></trkpt><trkpt lat="44.9250867" lon="0.9361167"><ele>155.5</ele><time>2026-03-29T15:16:03.539Z</time></trkpt><trkpt lat="44.9251933" lon="0.9360283"><ele>155.25</ele><time>2026-03-29T15:16:04.539Z</time></trkpt><trkpt lat="44.9252883" lon="0.9359383"><ele>155.0</ele><time>2026-03-29T15:16:05.54Z</time></trkpt><trkpt lat="44.9253717" lon="0.9358483"><ele>155.0</ele><time>2026-03-29T15:16:06.54Z</time></trkpt><trkpt lat="44.925445" lon="0.93576"><ele>155.0</ele><time>2026-03-29T15:16:07.54Z</time></trkpt><trkpt lat="44.925495" lon="0.93566"><ele>155.0</ele><time>2026-03-29T15:16:08.539Z</time></trkpt><trkpt lat="44.92552" lon="0.93554"><ele>155.0</ele><time>2026-03-29T15:16:09.54Z</time></trkpt><trkpt lat="44.9255267" lon="0.9354233"><ele>155.0</ele><time>2026-03-29T15:16:10.54Z</time></trkpt><trkpt lat="44.9255217" lon="0.9353083"><ele>155.0</ele><time>2026-03-29T15:16:11.539Z</time></trkpt><trkpt lat="44.92552" lon="0.9351967"><ele>155.0</ele><time>2026-03-29T15:16:12.539Z</time></trkpt><trkpt lat="44.9255183" lon="0.9350867"><ele>155.0</ele><time>2026-03-29T15:16:13.539Z</time></trkpt><trkpt lat="44.92554" lon="0.9350017"><ele>155.0</ele><time>2026-03-29T15:16:14.54Z</time></trkpt><trkpt lat="44.9257217" lon="0.935025"><ele>155.0</ele><time>2026-03-29T15:16:16.54Z</time></trkpt><trkpt lat="44.92584" lon="0.9351067"><ele>152.75</ele><time>2026-03-29T15:16:17.539Z</time></trkpt><trkpt lat="44.92595" lon="0.9351983"><ele>150.5</ele><time>2026-03-29T15:16:18.539Z</time></trkpt><trkpt lat="44.9260383" lon="0.9352967"><ele>148.25</ele><time>2026-03-29T15:16:19.539Z</time></trkpt><trkpt lat="44.92613" lon="0.9353583"><ele>146.0</ele><time>2026-03-29T15:16:20.539Z</time></trkpt><trkpt lat="44.9262367" lon="0.9353883"><ele>146.0</ele><time>2026-03-29T15:16:21.54Z</time></trkpt><trkpt lat="44.9263567" lon="0.9354017"><ele>146.0</ele><time>2026-03-29T15:16:22.539Z</time></trkpt><trkpt lat="44.926505" lon="0.9354017"><ele>146.0</ele><time>2026-03-29T15:16:23.539Z</time></trkpt><trkpt lat="44.9266633" lon="0.9354183"><ele>146.0</ele><time>2026-03-29T15:16:24.539Z</time></trkpt><trkpt lat="44.9268067" lon="0.9354433"><ele>145.25</ele><time>2026-03-29T15:16:25.54Z</time></trkpt><trkpt lat="44.9269417" lon="0.935475"><ele>144.5</ele><time>2026-03-29T15:16:26.54Z</time></trkpt><trkpt lat="44.92707" lon="0.9355267"><ele>143.75</ele><time>2026-03-29T15:16:27.539Z</time></trkpt><trkpt lat="44.92718" lon="0.9355767"><ele>143.0</ele><time>2026-03-29T15:16:28.539Z</time></trkpt><trkpt lat="44.9272783" lon="0.9356483"><ele>143.0</ele><time>2026-03-29T15:16:29.539Z</time></trkpt><trkpt lat="44.9273667" lon="0.935705"><ele>143.0</ele><time>2026-03-29T15:16:30.539Z</time></trkpt><trkpt lat="44.9274533" lon="0.93575"><ele>143.0</ele><time>2026-03-29T15:16:31.54Z</time></trkpt><trkpt lat="44.9275317" lon="0.9357633"><ele>143.0</ele><time>2026-03-29T15:16:32.539Z</time></trkpt><trkpt lat="44.927605" lon="0.93577"><ele>143.0</ele><time>2026-03-29T15:16:33.539Z</time></trkpt><trkpt lat="44.9276833" lon="0.9357583"><ele>143.0</ele><time>2026-03-29T15:16:34.539Z</time></trkpt><trkpt lat="44.92778" lon="0.9357083"><ele>140.25</ele><time>2026-03-29T15:16:35.539Z</time></trkpt><trkpt lat="44.9278767" lon="0.9356183"><ele>137.5</ele><time>2026-03-29T15:16:36.539Z</time></trkpt><trkpt lat="44.9279617" lon="0.9354833"><ele>134.75</ele><time>2026-03-29T15:16:37.54Z</time></trkpt><trkpt lat="44.9280367" lon="0.9353233"><ele>132.0</ele><time>2026-03-29T15:16:38.54Z</time></trkpt><trkpt lat="44.9281167" lon="0.93517"><ele>134.5</ele><time>2026-03-29T15:16:39.54Z</time></trkpt><trkpt lat="44.9282067" lon="0.9350217"><ele>137.0</ele><time>2026-03-29T15:16:40.54Z</time></trkpt><trkpt lat="44.9283067" lon="0.9348983"><ele>139.5</ele><time>2026-03-29T15:16:41.539Z</time></trkpt><trkpt lat="44.9284017" lon="0.9348"><ele>142.0</ele><time>2026-03-29T15:16:42.539Z</time></trkpt><trkpt lat="44.9284883" lon="0.9346967"><ele>139.0</ele><time>2026-03-29T15:16:43.54Z</time></trkpt><trkpt lat="44.9285733" lon="0.9345717"><ele>136.0</ele><time>2026-03-29T15:16:44.54Z</time></trkpt><trkpt lat="44.9286517" lon="0.9344517"><ele>133.0</ele><time>2026-03-29T15:16:45.539Z</time></trkpt><trkpt lat="44.9287083" lon="0.9343317"><ele>130.0</ele><time>2026-03-29T15:16:46.539Z</time></trkpt><trkpt lat="44.9287383" lon="0.9342283"><ele>127.0</ele><time>2026-03-29T15:16:47.54Z</time></trkpt><trkpt lat="44.9287633" lon="0.934145"><ele>127.00000000000001</ele><time>2026-03-29T15:16:48.54Z</time></trkpt><trkpt lat="44.9287683" lon="0.93401"><ele>127.0</ele><time>2026-03-29T15:16:50.539Z</time></trkpt><trkpt lat="44.9287833" lon="0.9339117"><ele>127.0</ele><time>2026-03-29T15:16:52.54Z</time></trkpt><trkpt lat="44.9288317" lon="0.933845"><ele>127.0</ele><time>2026-03-29T15:16:54.54Z</time></trkpt><trkpt lat="44.928895" lon="0.9337717"><ele>127.00000000000001</ele><time>2026-03-29T15:16:56.54Z</time></trkpt><trkpt lat="44.92898" lon="0.93372"><ele>127.0</ele><time>2026-03-29T15:16:58.539Z</time></trkpt><trkpt lat="44.9290767" lon="0.9336517"><ele>127.0</ele><time>2026-03-29T15:17:00.539Z</time></trkpt><trkpt lat="44.9291883" lon="0.93356"><ele>126.99999999999999</ele><time>2026-03-29T15:17:02.54Z</time></trkpt><trkpt lat="44.9292433" lon="0.9335033"><ele>126.99999999999999</ele><time>2026-03-29T15:17:03.54Z</time></trkpt><trkpt lat="44.9293517" lon="0.9334267"><ele>127.0</ele><time>2026-03-29T15:17:05.54Z</time></trkpt><trkpt lat="44.9294717" lon="0.9333667"><ele>127.0</ele><time>2026-03-29T15:17:07.54Z</time></trkpt><trkpt lat="44.9295667" lon="0.9332933"><ele>125.00000000000001</ele><time>2026-03-29T15:17:09.539Z</time></trkpt><trkpt lat="44.92965" lon="0.933225"><ele>123.0</ele><time>2026-03-29T15:17:11.539Z</time></trkpt><trkpt lat="44.929715" lon="0.9331667"><ele>121.0</ele><time>2026-03-29T15:17:13.539Z</time></trkpt><trkpt lat="44.9297817" lon="0.9331017"><ele>119.0</ele><time>2026-03-29T15:17:16.54Z</time></trkpt><trkpt lat="44.9298417" lon="0.9330583"><ele>117.00000000000001</ele><time>2026-03-29T15:17:18.539Z</time></trkpt><trkpt lat="44.9299267" lon="0.93296"><ele>115.0</ele><time>2026-03-29T15:17:20.539Z</time></trkpt><trkpt lat="44.92997" lon="0.9328833"><ele>115.00000000000001</ele><time>2026-03-29T15:17:21.539Z</time></trkpt><trkpt lat="44.9300117" lon="0.9328067"><ele>115.0</ele><time>2026-03-29T15:17:22.54Z</time></trkpt><trkpt lat="44.9300517" lon="0.932725"><ele>115.0</ele><time>2026-03-29T15:17:23.539Z</time></trkpt><trkpt lat="44.9300983" lon="0.9326367"><ele>115.0</ele><time>2026-03-29T15:17:24.539Z</time></trkpt><trkpt lat="44.9301667" lon="0.9325183"><ele>115.00000000000001</ele><time>2026-03-29T15:17:25.54Z</time></trkpt><trkpt lat="44.93023" lon="0.932425"><ele>115.0</ele><time>2026-03-29T15:17:26.539Z</time></trkpt><trkpt lat="44.9302917" lon="0.93234"><ele>114.16666666666667</ele><time>2026-03-29T15:17:27.54Z</time></trkpt><trkpt lat="44.93036" lon="0.9322567"><ele>113.33333333333334</ele><time>2026-03-29T15:17:28.54Z</time></trkpt><trkpt lat="44.9304167" lon="0.932155"><ele>112.5</ele><time>2026-03-29T15:17:29.538Z</time></trkpt><trkpt lat="44.9304767" lon="0.93206"><ele>111.66666666666666</ele><time>2026-03-29T15:17:30.539Z</time></trkpt><trkpt lat="44.9305433" lon="0.93198"><ele>110.83333333333333</ele><time>2026-03-29T15:17:31.539Z</time></trkpt><trkpt lat="44.930605" lon="0.9319"><ele>110.0</ele><time>2026-03-29T15:17:32.538Z</time></trkpt><trkpt lat="44.930675" lon="0.9318267"><ele>109.99999999999999</ele><time>2026-03-29T15:17:33.539Z</time></trkpt><trkpt lat="44.9307283" lon="0.931765"><ele>110.0</ele><time>2026-03-29T15:17:34.539Z</time></trkpt><trkpt lat="44.93079" lon="0.931705"><ele>110.0</ele><time>2026-03-29T15:17:35.539Z</time></trkpt><trkpt lat="44.9308483" lon="0.93166"><ele>110.0</ele><time>2026-03-29T15:17:36.539Z</time></trkpt><trkpt lat="44.93097" lon="0.93159"><ele>109.99999999999999</ele><time>2026-03-29T15:17:38.539Z</time></trkpt><trkpt lat="44.9310417" lon="0.931545"><ele>110.0</ele><time>2026-03-29T15:17:39.539Z</time></trkpt><trkpt lat="44.93112" lon="0.931485"><ele>108.33333333333333</ele><time>2026-03-29T15:17:40.538Z</time></trkpt><trkpt lat="44.931195" lon="0.9314233"><ele>106.66666666666666</ele><time>2026-03-29T15:17:41.538Z</time></trkpt><trkpt lat="44.9312733" lon="0.931385"><ele>105.0</ele><time>2026-03-29T15:17:42.539Z</time></trkpt><trkpt lat="44.9313467" lon="0.9313683"><ele>103.33333333333334</ele><time>2026-03-29T15:17:43.539Z</time></trkpt><trkpt lat="44.9314217" lon="0.9313567"><ele>101.66666666666667</ele><time>2026-03-29T15:17:44.539Z</time></trkpt><trkpt lat="44.9314967" lon="0.9313517"><ele>100.0</ele><time>2026-03-29T15:17:45.538Z</time></trkpt><trkpt lat="44.9315683" lon="0.9313567"><ele>100.00000000000001</ele><time>2026-03-29T15:17:46.538Z</time></trkpt><trkpt lat="44.9316367" lon="0.9313517"><ele>100.0</ele><time>2026-03-29T15:17:47.538Z</time></trkpt><trkpt lat="44.9317083" lon="0.93133"><ele>100.0</ele><time>2026-03-29T15:17:48.539Z</time></trkpt><trkpt lat="44.9317783" lon="0.9313017"><ele>100.0</ele><time>2026-03-29T15:17:49.539Z</time></trkpt><trkpt lat="44.9318483" lon="0.9312617"><ele>100.0</ele><time>2026-03-29T15:17:50.539Z</time></trkpt><trkpt lat="44.931915" lon="0.931225"><ele>100.00000000000001</ele><time>2026-03-29T15:17:51.538Z</time></trkpt><trkpt lat="44.9319883" lon="0.9311867"><ele>100.0</ele><time>2026-03-29T15:17:52.538Z</time></trkpt><trkpt lat="44.932065" lon="0.9311483"><ele>98.83333333333334</ele><time>2026-03-29T15:17:53.538Z</time></trkpt><trkpt lat="44.9321383" lon="0.9310983"><ele>97.66666666666667</ele><time>2026-03-29T15:17:54.538Z</time></trkpt><trkpt lat="44.932215" lon="0.9310383"><ele>96.5</ele><time>2026-03-29T15:17:55.539Z</time></trkpt><trkpt lat="44.9322833" lon="0.930985"><ele>95.33333333333334</ele><time>2026-03-29T15:17:56.539Z</time></trkpt><trkpt lat="44.93235" lon="0.9309383"><ele>94.16666666666667</ele><time>2026-03-29T15:17:57.539Z</time></trkpt><trkpt lat="44.9324333" lon="0.9309017"><ele>93.0</ele><time>2026-03-29T15:17:58.538Z</time></trkpt><trkpt lat="44.9325333" lon="0.9308783"><ele>92.2</ele><time>2026-03-29T15:17:59.538Z</time></trkpt><trkpt lat="44.9326433" lon="0.930875"><ele>91.4</ele><time>2026-03-29T15:18:00.539Z</time></trkpt><trkpt lat="44.9327517" lon="0.930855"><ele>90.60000000000001</ele><time>2026-03-29T15:18:01.539Z</time></trkpt><trkpt lat="44.9328667" lon="0.9308333"><ele>89.80000000000001</ele><time>2026-03-29T15:18:02.539Z</time></trkpt><trkpt lat="44.932975" lon="0.9308183"><ele>89.0</ele><time>2026-03-29T15:18:03.539Z</time></trkpt><trkpt lat="44.9330883" lon="0.93079"><ele>89.0</ele><time>2026-03-29T15:18:04.538Z</time></trkpt><trkpt lat="44.9331967" lon="0.93076"><ele>89.0</ele><time>2026-03-29T15:18:05.539Z</time></trkpt><trkpt lat="44.933315" lon="0.9307217"><ele>89.0</ele><time>2026-03-29T15:18:06.539Z</time></trkpt><trkpt lat="44.93343" lon="0.9306917"><ele>89.0</ele><time>2026-03-29T15:18:07.539Z</time></trkpt><trkpt lat="44.93354" lon="0.93066"><ele>87.80000000000001</ele><time>2026-03-29T15:18:08.539Z</time></trkpt><trkpt lat="44.9336433" lon="0.9306333"><ele>86.60000000000001</ele><time>2026-03-29T15:18:09.539Z</time></trkpt><trkpt lat="44.9337367" lon="0.9306183"><ele>85.4</ele><time>2026-03-29T15:18:10.539Z</time></trkpt><trkpt lat="44.9338283" lon="0.9305917"><ele>84.2</ele><time>2026-03-29T15:18:11.539Z</time></trkpt><trkpt lat="44.9339117" lon="0.9305733"><ele>83.0</ele><time>2026-03-29T15:18:12.539Z</time></trkpt><trkpt lat="44.9339983" lon="0.9305517"><ele>83.0</ele><time>2026-03-29T15:18:13.538Z</time></trkpt><trkpt lat="44.9340817" lon="0.93052"><ele>83.0</ele><time>2026-03-29T15:18:14.538Z</time></trkpt><trkpt lat="44.9341617" lon="0.9304767"><ele>83.0</ele><time>2026-03-29T15:18:15.538Z</time></trkpt><trkpt lat="44.9342267" lon="0.93041"><ele>83.0</ele><time>2026-03-29T15:18:16.538Z</time></trkpt><trkpt lat="44.934285" lon="0.93035"><ele>83.0</ele><time>2026-03-29T15:18:17.538Z</time></trkpt><trkpt lat="44.934335" lon="0.9302867"><ele>83.0</ele><time>2026-03-29T15:18:18.538Z</time></trkpt><trkpt lat="44.93441" lon="0.9301683"><ele>83.16666666666667</ele><time>2026-03-29T15:18:20.539Z</time></trkpt><trkpt lat="44.9344533" lon="0.93009"><ele>83.33333333333334</ele><time>2026-03-29T15:18:22.539Z</time></trkpt><trkpt lat="44.9345033" lon="0.9299917"><ele>83.5</ele><time>2026-03-29T15:18:56.538Z</time></trkpt><trkpt lat="44.934575" lon="0.9299617"><ele>83.66666666666667</ele><time>2026-03-29T15:18:59.539Z</time></trkpt><trkpt lat="44.9346967" lon="0.9300033"><ele>83.83333333333333</ele><time>2026-03-29T15:19:01.538Z</time></trkpt><trkpt lat="44.9347767" lon="0.930035"><ele>84.0</ele><time>2026-03-29T15:19:02.539Z</time></trkpt><trkpt lat="44.9348617" lon="0.9300717"><ele>84.0</ele><time>2026-03-29T15:19:03.538Z</time></trkpt><trkpt lat="44.9349417" lon="0.9301067"><ele>84.0</ele><time>2026-03-29T15:19:04.539Z</time></trkpt><trkpt lat="44.93503" lon="0.93013"><ele>84.0</ele><time>2026-03-29T15:19:05.539Z</time></trkpt><trkpt lat="44.9351217" lon="0.9301567"><ele>84.0</ele><time>2026-03-29T15:19:06.539Z</time></trkpt><trkpt lat="44.9352217" lon="0.930195"><ele>84.0</ele><time>2026-03-29T15:19:07.539Z</time></trkpt><trkpt lat="44.935315" lon="0.93023"><ele>83.83333333333333</ele><time>2026-03-29T15:19:08.539Z</time></trkpt><trkpt lat="44.9354083" lon="0.93027"><ele>83.66666666666667</ele><time>2026-03-29T15:19:09.538Z</time></trkpt><trkpt lat="44.9355033" lon="0.930305"><ele>83.5</ele><time>2026-03-29T15:19:10.538Z</time></trkpt><trkpt lat="44.9355933" lon="0.9303383"><ele>83.33333333333334</ele><time>2026-03-29T15:19:11.538Z</time></trkpt><trkpt lat="44.9356767" lon="0.930355"><ele>83.16666666666667</ele><time>2026-03-29T15:19:12.539Z</time></trkpt><trkpt lat="44.9357417" lon="0.9303683"><ele>83.0</ele><time>2026-03-29T15:19:13.539Z</time></trkpt><trkpt lat="44.9358533" lon="0.9303533"><ele>82.80000000000001</ele><time>2026-03-29T15:19:15.539Z</time></trkpt><trkpt lat="44.9359683" lon="0.9302717"><ele>82.6</ele><time>2026-03-29T15:19:17.538Z</time></trkpt><trkpt lat="44.9360367" lon="0.93022"><ele>82.4</ele><time>2026-03-29T15:19:18.539Z</time></trkpt><trkpt lat="44.93611" lon="0.9301667"><ele>82.19999999999999</ele><time>2026-03-29T15:19:19.538Z</time></trkpt><trkpt lat="44.936185" lon="0.9301033"><ele>82.0</ele><time>2026-03-29T15:19:20.538Z</time></trkpt><trkpt lat="44.936255" lon="0.9300433"><ele>80.8</ele><time>2026-03-29T15:19:21.538Z</time></trkpt><trkpt lat="44.93633" lon="0.9299833"><ele>79.6</ele><time>2026-03-29T15:19:22.538Z</time></trkpt><trkpt lat="44.9363917" lon="0.9299033"><ele>78.39999999999999</ele><time>2026-03-29T15:19:23.538Z</time></trkpt><trkpt lat="44.9364433" lon="0.929815"><ele>77.19999999999999</ele><time>2026-03-29T15:19:24.538Z</time></trkpt><trkpt lat="44.9365" lon="0.9296933"><ele>76.0</ele><time>2026-03-29T15:19:25.539Z</time></trkpt><trkpt lat="44.93654" lon="0.92956"><ele>76.0</ele><time>2026-03-29T15:19:26.539Z</time></trkpt><trkpt lat="44.9365767" lon="0.9294367"><ele>76.0</ele><time>2026-03-29T15:19:27.539Z</time></trkpt><trkpt lat="44.9366167" lon="0.9293167"><ele>76.0</ele><time>2026-03-29T15:19:28.539Z</time></trkpt><trkpt lat="44.9366483" lon="0.929215"><ele>76.0</ele><time>2026-03-29T15:19:29.539Z</time></trkpt><trkpt lat="44.9366767" lon="0.9291133"><ele>76.0</ele><time>2026-03-29T15:19:31.539Z</time></trkpt><trkpt lat="44.9367667" lon="0.92904"><ele>76.0</ele><time>2026-03-29T15:19:41.539Z</time></trkpt><trkpt lat="44.9368883" lon="0.929025"><ele>77.33333333333333</ele><time>2026-03-29T15:19:43.538Z</time></trkpt><trkpt lat="44.93697" lon="0.9290283"><ele>78.66666666666666</ele><time>2026-03-29T15:19:44.538Z</time></trkpt><trkpt lat="44.9370483" lon="0.9290267"><ele>80.0</ele><time>2026-03-29T15:19:45.538Z</time></trkpt><trkpt lat="44.9371267" lon="0.9290383"><ele>81.33333333333333</ele><time>2026-03-29T15:19:46.539Z</time></trkpt><trkpt lat="44.93721" lon="0.929055"><ele>82.66666666666667</ele><time>2026-03-29T15:19:47.538Z</time></trkpt><trkpt lat="44.93729" lon="0.929085"><ele>84.0</ele><time>2026-03-29T15:19:48.538Z</time></trkpt><trkpt lat="44.9373683" lon="0.92912"><ele>84.0</ele><time>2026-03-29T15:19:49.539Z</time></trkpt><trkpt lat="44.9374383" lon="0.929145"><ele>84.0</ele><time>2026-03-29T15:19:50.538Z</time></trkpt><trkpt lat="44.937585" lon="0.9291733"><ele>84.0</ele><time>2026-03-29T15:19:52.539Z</time></trkpt><trkpt lat="44.9376733" lon="0.9291717"><ele>84.0</ele><time>2026-03-29T15:19:53.539Z</time></trkpt><trkpt lat="44.93775" lon="0.9291767"><ele>84.0</ele><time>2026-03-29T15:19:54.538Z</time></trkpt><trkpt lat="44.9378167" lon="0.9291717"><ele>84.83333333333333</ele><time>2026-03-29T15:19:55.538Z</time></trkpt><trkpt lat="44.9378817" lon="0.929175"><ele>85.66666666666667</ele><time>2026-03-29T15:19:56.538Z</time></trkpt><trkpt lat="44.9379717" lon="0.9291817"><ele>86.5</ele><time>2026-03-29T15:19:58.538Z</time></trkpt><trkpt lat="44.938055" lon="0.9291933"><ele>87.33333333333334</ele><time>2026-03-29T15:20:00.538Z</time></trkpt><trkpt lat="44.9381317" lon="0.929195"><ele>88.16666666666667</ele><time>2026-03-29T15:20:02.538Z</time></trkpt><trkpt lat="44.93821" lon="0.92918"><ele>89.0</ele><time>2026-03-29T15:20:05.538Z</time></trkpt><trkpt lat="44.9382917" lon="0.9292283"><ele>91.66666666666667</ele><time>2026-03-29T15:20:07.539Z</time></trkpt><trkpt lat="44.9383867" lon="0.9292467"><ele>94.33333333333334</ele><time>2026-03-29T15:20:09.538Z</time></trkpt><trkpt lat="44.9384633" lon="0.9292617"><ele>97.0</ele><time>2026-03-29T15:20:11.539Z</time></trkpt><trkpt lat="44.9385367" lon="0.92928"><ele>99.66666666666667</ele><time>2026-03-29T15:20:13.538Z</time></trkpt><trkpt lat="44.9386017" lon="0.9292967"><ele>102.33333333333333</ele><time>2026-03-29T15:20:15.539Z</time></trkpt><trkpt lat="44.9386983" lon="0.9293067"><ele>105.0</ele><time>2026-03-29T15:20:31.538Z</time></trkpt><trkpt lat="44.9387583" lon="0.9293383"><ele>105.0</ele><time>2026-03-29T15:20:35.538Z</time></trkpt><trkpt lat="44.9388667" lon="0.9293767"><ele>105.0</ele><time>2026-03-29T15:20:44.538Z</time></trkpt><trkpt lat="44.9389483" lon="0.9294033"><ele>105.0</ele><time>2026-03-29T15:20:49.539Z</time></trkpt><trkpt lat="44.9390217" lon="0.9294233"><ele>105.0</ele><time>2026-03-29T15:20:51.539Z</time></trkpt><trkpt lat="44.939105" lon="0.92942"><ele>105.0</ele><time>2026-03-29T15:20:54.538Z</time></trkpt><trkpt lat="44.939165" lon="0.9293667"><ele>105.0</ele><time>2026-03-29T15:20:56.538Z</time></trkpt><trkpt lat="44.9392767" lon="0.92935"><ele>107.6</ele><time>2026-03-29T15:20:58.538Z</time></trkpt><trkpt lat="44.9393683" lon="0.9293833"><ele>110.2</ele><time>2026-03-29T15:21:00.539Z</time></trkpt><trkpt lat="44.9394417" lon="0.929455"><ele>112.80000000000001</ele><time>2026-03-29T15:21:02.538Z</time></trkpt><trkpt lat="44.9395217" lon="0.92952"><ele>115.4</ele><time>2026-03-29T15:21:04.539Z</time></trkpt><trkpt lat="44.9395917" lon="0.929535"><ele>118.0</ele><time>2026-03-29T15:21:06.539Z</time></trkpt><trkpt lat="44.939695" lon="0.9295233"><ele>118.0</ele><time>2026-03-29T15:21:09.538Z</time></trkpt><trkpt lat="44.9397817" lon="0.9294983"><ele>118.00000000000001</ele><time>2026-03-29T15:21:11.538Z</time></trkpt><trkpt lat="44.939875" lon="0.92948"><ele>118.00000000000001</ele><time>2026-03-29T15:21:13.538Z</time></trkpt><trkpt lat="44.93997" lon="0.92945"><ele>118.0</ele><time>2026-03-29T15:21:15.539Z</time></trkpt><trkpt lat="44.94007" lon="0.9293933"><ele>118.0</ele><time>2026-03-29T15:21:17.538Z</time></trkpt><trkpt lat="44.9401933" lon="0.9293417"><ele>117.00000000000001</ele><time>2026-03-29T15:21:19.538Z</time></trkpt><trkpt lat="44.9402633" lon="0.9293183"><ele>116.0</ele><time>2026-03-29T15:21:20.537Z</time></trkpt><trkpt lat="44.9403367" lon="0.9292917"><ele>115.0</ele><time>2026-03-29T15:21:21.538Z</time></trkpt><trkpt lat="44.940405" lon="0.92926"><ele>114.0</ele><time>2026-03-29T15:21:22.538Z</time></trkpt><trkpt lat="44.9404683" lon="0.9292317"><ele>113.00000000000001</ele><time>2026-03-29T15:21:23.537Z</time></trkpt><trkpt lat="44.9405667" lon="0.929185"><ele>112.0</ele><time>2026-03-29T15:21:25.537Z</time></trkpt><trkpt lat="44.94066" lon="0.9291383"><ele>117.0</ele><time>2026-03-29T15:21:27.538Z</time></trkpt><trkpt lat="44.9407583" lon="0.929075"><ele>121.99999999999999</ele><time>2026-03-29T15:21:29.537Z</time></trkpt><trkpt lat="44.94082" lon="0.92904"><ele>126.99999999999999</ele><time>2026-03-29T15:21:30.538Z</time></trkpt><trkpt lat="44.9409333" lon="0.928995"><ele>132.0</ele><time>2026-03-29T15:21:32.538Z</time></trkpt><trkpt lat="44.941035" lon="0.9289233"><ele>137.0</ele><time>2026-03-29T15:21:34.537Z</time></trkpt><trkpt lat="44.9411017" lon="0.9288717"><ele>138.2</ele><time>2026-03-29T15:21:35.538Z</time></trkpt><trkpt lat="44.9412083" lon="0.9287833"><ele>139.39999999999998</ele><time>2026-03-29T15:21:37.537Z</time></trkpt><trkpt lat="44.9412667" lon="0.9287433"><ele>140.60000000000002</ele><time>2026-03-29T15:21:38.537Z</time></trkpt><trkpt lat="44.9413633" lon="0.9286367"><ele>141.8</ele><time>2026-03-29T15:21:40.538Z</time></trkpt><trkpt lat="44.9414117" lon="0.9285767"><ele>143.0</ele><time>2026-03-29T15:21:41.537Z</time></trkpt><trkpt lat="44.9414717" lon="0.9285133"><ele>143.0</ele><time>2026-03-29T15:21:42.537Z</time></trkpt><trkpt lat="44.9415583" lon="0.9284233"><ele>143.0</ele><time>2026-03-29T15:21:44.538Z</time></trkpt><trkpt lat="44.9416333" lon="0.928345"><ele>143.0</ele><time>2026-03-29T15:21:46.537Z</time></trkpt><trkpt lat="44.9417167" lon="0.928285"><ele>143.0</ele><time>2026-03-29T15:21:49.537Z</time></trkpt><trkpt lat="44.9418117" lon="0.928195"><ele>143.0</ele><time>2026-03-29T15:21:51.537Z</time></trkpt><trkpt lat="44.9418767" lon="0.92812"><ele>145.0</ele><time>2026-03-29T15:21:52.538Z</time></trkpt><trkpt lat="44.9419367" lon="0.9280333"><ele>147.0</ele><time>2026-03-29T15:21:53.537Z</time></trkpt><trkpt lat="44.9419883" lon="0.927945"><ele>149.0</ele><time>2026-03-29T15:21:54.537Z</time></trkpt><trkpt lat="44.94204" lon="0.927865"><ele>151.0</ele><time>2026-03-29T15:21:55.537Z</time></trkpt><trkpt lat="44.942085" lon="0.9277917"><ele>153.0</ele><time>2026-03-29T15:21:56.538Z</time></trkpt><trkpt lat="44.942125" lon="0.9277033"><ele>155.0</ele><time>2026-03-29T15:21:57.538Z</time></trkpt><trkpt lat="44.9421617" lon="0.9276183"><ele>155.83333333333331</ele><time>2026-03-29T15:21:58.537Z</time></trkpt><trkpt lat="44.9422033" lon="0.9275333"><ele>156.66666666666666</ele><time>2026-03-29T15:21:59.537Z</time></trkpt><trkpt lat="44.9422383" lon="0.9274517"><ele>157.5</ele><time>2026-03-29T15:22:00.537Z</time></trkpt><trkpt lat="44.94228" lon="0.927355"><ele>158.33333333333334</ele><time>2026-03-29T15:22:01.537Z</time></trkpt><trkpt lat="44.94232" lon="0.9272567"><ele>159.16666666666669</ele><time>2026-03-29T15:22:02.538Z</time></trkpt><trkpt lat="44.942365" lon="0.9271367"><ele>160.0</ele><time>2026-03-29T15:22:03.538Z</time></trkpt><trkpt lat="44.9424083" lon="0.9270367"><ele>160.0</ele><time>2026-03-29T15:22:04.538Z</time></trkpt><trkpt lat="44.9424467" lon="0.9269567"><ele>160.0</ele><time>2026-03-29T15:22:05.538Z</time></trkpt><trkpt lat="44.942515" lon="0.9268317"><ele>160.0</ele><time>2026-03-29T15:22:07.538Z</time></trkpt><trkpt lat="44.94257" lon="0.9266967"><ele>160.0</ele><time>2026-03-29T15:22:09.537Z</time></trkpt><trkpt lat="44.94263" lon="0.9265333"><ele>160.0</ele><time>2026-03-29T15:22:11.537Z</time></trkpt><trkpt lat="44.9426533" lon="0.9264333"><ele>158.8</ele><time>2026-03-29T15:22:12.537Z</time></trkpt><trkpt lat="44.94268" lon="0.9263317"><ele>157.6</ele><time>2026-03-29T15:22:13.538Z</time></trkpt><trkpt lat="44.9427117" lon="0.9262"><ele>156.4</ele><time>2026-03-29T15:22:14.537Z</time></trkpt><trkpt lat="44.9427383" lon="0.92606"><ele>155.2</ele><time>2026-03-29T15:22:15.537Z</time></trkpt><trkpt lat="44.94276" lon="0.9259283"><ele>154.0</ele><time>2026-03-29T15:22:16.538Z</time></trkpt><trkpt lat="44.94279" lon="0.9258"><ele>154.0</ele><time>2026-03-29T15:22:17.537Z</time></trkpt><trkpt lat="44.9428067" lon="0.9256767"><ele>154.0</ele><time>2026-03-29T15:22:18.537Z</time></trkpt><trkpt lat="44.94283" lon="0.9255533"><ele>154.0</ele><time>2026-03-29T15:22:19.537Z</time></trkpt><trkpt lat="44.942855" lon="0.92543"><ele>154.0</ele><time>2026-03-29T15:22:20.538Z</time></trkpt><trkpt lat="44.942875" lon="0.9253"><ele>154.0</ele><time>2026-03-29T15:22:21.538Z</time></trkpt><trkpt lat="44.9428767" lon="0.92521"><ele>154.0</ele><time>2026-03-29T15:22:22.538Z</time></trkpt><trkpt lat="44.9428783" lon="0.9251017"><ele>156.6</ele><time>2026-03-29T15:22:23.537Z</time></trkpt><trkpt lat="44.9428733" lon="0.925005"><ele>159.2</ele><time>2026-03-29T15:22:24.538Z</time></trkpt><trkpt lat="44.94289" lon="0.9248333"><ele>161.79999999999998</ele><time>2026-03-29T15:22:26.538Z</time></trkpt><trkpt lat="44.9429267" lon="0.9246617"><ele>164.4</ele><time>2026-03-29T15:22:28.538Z</time></trkpt><trkpt lat="44.9429417" lon="0.9245667"><ele>167.0</ele><time>2026-03-29T15:22:29.538Z</time></trkpt><trkpt lat="44.9429717" lon="0.9244817"><ele>167.0</ele><time>2026-03-29T15:22:30.537Z</time></trkpt><trkpt lat="44.94301" lon="0.92436"><ele>167.0</ele><time>2026-03-29T15:22:32.538Z</time></trkpt><trkpt lat="44.9430483" lon="0.9242317"><ele>167.0</ele><time>2026-03-29T15:22:34.537Z</time></trkpt><trkpt lat="44.9431017" lon="0.9241083"><ele>167.0</ele><time>2026-03-29T15:22:36.538Z</time></trkpt><trkpt lat="44.9431567" lon="0.923995"><ele>167.0</ele><time>2026-03-29T15:22:38.537Z</time></trkpt><trkpt lat="44.9432183" lon="0.92389"><ele>169.39999999999998</ele><time>2026-03-29T15:22:40.538Z</time></trkpt><trkpt lat="44.94329" lon="0.9237867"><ele>171.79999999999998</ele><time>2026-03-29T15:22:42.537Z</time></trkpt><trkpt lat="44.943385" lon="0.9236833"><ele>174.2</ele><time>2026-03-29T15:22:44.538Z</time></trkpt><trkpt lat="44.9434617" lon="0.9235833"><ele>176.6</ele><time>2026-03-29T15:22:46.538Z</time></trkpt><trkpt lat="44.9435583" lon="0.9234917"><ele>179.0</ele><time>2026-03-29T15:22:48.537Z</time></trkpt><trkpt lat="44.9436267" lon="0.9234417"><ele>180.39999999999998</ele><time>2026-03-29T15:22:49.537Z</time></trkpt><trkpt lat="44.94369" lon="0.9234083"><ele>181.8</ele><time>2026-03-29T15:22:50.538Z</time></trkpt><trkpt lat="44.943795" lon="0.9233383"><ele>183.2</ele><time>2026-03-29T15:22:52.537Z</time></trkpt><trkpt lat="44.9439067" lon="0.92326"><ele>184.60000000000002</ele><time>2026-03-29T15:22:54.538Z</time></trkpt><trkpt lat="44.9440233" lon="0.923175"><ele>186.0</ele><time>2026-03-29T15:22:56.538Z</time></trkpt><trkpt lat="44.9441267" lon="0.923105"><ele>188.4</ele><time>2026-03-29T15:22:58.537Z</time></trkpt><trkpt lat="44.9442233" lon="0.923015"><ele>190.8</ele><time>2026-03-29T15:23:00.538Z</time></trkpt><trkpt lat="44.944325" lon="0.9229"><ele>193.20000000000002</ele><time>2026-03-29T15:23:02.538Z</time></trkpt><trkpt lat="44.9443817" lon="0.92285"><ele>195.60000000000002</ele><time>2026-03-29T15:23:03.537Z</time></trkpt><trkpt lat="44.9444867" lon="0.922735"><ele>198.0</ele><time>2026-03-29T15:23:05.537Z</time></trkpt><trkpt lat="44.9445717" lon="0.922655"><ele>198.0</ele><time>2026-03-29T15:23:06.537Z</time></trkpt><trkpt lat="44.9446683" lon="0.922595"><ele>198.0</ele><time>2026-03-29T15:23:07.538Z</time></trkpt><trkpt lat="44.9447283" lon="0.9225483"><ele>198.0</ele><time>2026-03-29T15:23:08.538Z</time></trkpt><trkpt lat="44.944825" lon="0.9224517"><ele>198.0</ele><time>2026-03-29T15:23:09.537Z</time></trkpt><trkpt lat="44.9449467" lon="0.9223117"><ele>198.0</ele><time>2026-03-29T15:23:11.538Z</time></trkpt><trkpt lat="44.9450283" lon="0.9221917"><ele>198.0</ele><time>2026-03-29T15:23:13.537Z</time></trkpt><trkpt lat="44.9451067" lon="0.9220833"><ele>198.0</ele><time>2026-03-29T15:23:15.537Z</time></trkpt><trkpt lat="44.9451567" lon="0.9220267"><ele>198.0</ele><time>2026-03-29T15:23:16.537Z</time></trkpt><trkpt lat="44.94521" lon="0.9219717"><ele>198.0</ele><time>2026-03-29T15:23:17.537Z</time></trkpt><trkpt lat="44.9453267" lon="0.921895"><ele>198.0</ele><time>2026-03-29T15:23:18.538Z</time></trkpt><trkpt lat="44.9454" lon="0.9218217"><ele>198.0</ele><time>2026-03-29T15:23:19.538Z</time></trkpt><trkpt lat="44.945455" lon="0.9217583"><ele>198.0</ele><time>2026-03-29T15:23:20.537Z</time></trkpt><trkpt lat="44.9455233" lon="0.9216233"><ele>198.0</ele><time>2026-03-29T15:23:22.538Z</time></trkpt><trkpt lat="44.9455833" lon="0.9215033"><ele>198.0</ele><time>2026-03-29T15:23:24.538Z</time></trkpt><trkpt lat="44.94562" lon="0.9213683"><ele>198.0</ele><time>2026-03-29T15:23:26.538Z</time></trkpt><trkpt lat="44.9456433" lon="0.92128"><ele>198.66666666666666</ele><time>2026-03-29T15:23:28.537Z</time></trkpt><trkpt lat="44.94567" lon="0.9211983"><ele>199.33333333333331</ele><time>2026-03-29T15:23:32.537Z</time></trkpt><trkpt lat="44.9455983" lon="0.92115"><ele>200.0</ele><time>2026-03-29T15:23:35.537Z</time></trkpt><trkpt lat="44.94552" lon="0.9211"><ele>200.66666666666666</ele><time>2026-03-29T15:23:37.538Z</time></trkpt><trkpt lat="44.9454367" lon="0.920995"><ele>201.33333333333331</ele><time>2026-03-29T15:23:39.537Z</time></trkpt><trkpt lat="44.9453933" lon="0.9209133"><ele>202.0</ele><time>2026-03-29T15:23:40.537Z</time></trkpt><trkpt lat="44.9453633" lon="0.9208117"><ele>201.99999999999997</ele><time>2026-03-29T15:23:41.537Z</time></trkpt><trkpt lat="44.9453267" lon="0.9207033"><ele>202.0</ele><time>2026-03-29T15:23:42.538Z</time></trkpt><trkpt lat="44.9452983" lon="0.9206033"><ele>202.0</ele><time>2026-03-29T15:23:43.537Z</time></trkpt><trkpt lat="44.94527" lon="0.920515"><ele>202.0</ele><time>2026-03-29T15:23:44.538Z</time></trkpt><trkpt lat="44.9452417" lon="0.9204167"><ele>201.99999999999997</ele><time>2026-03-29T15:23:45.538Z</time></trkpt><trkpt lat="44.9452283" lon="0.9203033"><ele>202.0</ele><time>2026-03-29T15:23:46.537Z</time></trkpt><trkpt lat="44.9452183" lon="0.9201717"><ele>201.8</ele><time>2026-03-29T15:23:47.537Z</time></trkpt><trkpt lat="44.9452167" lon="0.9200417"><ele>201.6</ele><time>2026-03-29T15:23:48.537Z</time></trkpt><trkpt lat="44.9452067" lon="0.9199133"><ele>201.4</ele><time>2026-03-29T15:23:49.537Z</time></trkpt><trkpt lat="44.945195" lon="0.91977"><ele>201.20000000000002</ele><time>2026-03-29T15:23:50.537Z</time></trkpt><trkpt lat="44.9451867" lon="0.91963"><ele>201.0</ele><time>2026-03-29T15:23:51.538Z</time></trkpt><trkpt lat="44.9451783" lon="0.9194933"><ele>201.0</ele><time>2026-03-29T15:23:52.538Z</time></trkpt><trkpt lat="44.9451717" lon="0.919355"><ele>201.0</ele><time>2026-03-29T15:23:53.537Z</time></trkpt><trkpt lat="44.9451583" lon="0.9192117"><ele>201.0</ele><time>2026-03-29T15:23:54.537Z</time></trkpt><trkpt lat="44.9451533" lon="0.9190717"><ele>201.0</ele><time>2026-03-29T15:23:55.538Z</time></trkpt><trkpt lat="44.9451517" lon="0.9189217"><ele>201.0</ele><time>2026-03-29T15:23:56.537Z</time></trkpt><trkpt lat="44.9451467" lon="0.918765"><ele>200.60000000000002</ele><time>2026-03-29T15:23:57.538Z</time></trkpt><trkpt lat="44.9451417" lon="0.9186083"><ele>200.2</ele><time>2026-03-29T15:23:58.538Z</time></trkpt><trkpt lat="44.945135" lon="0.91846"><ele>199.8</ele><time>2026-03-29T15:23:59.538Z</time></trkpt><trkpt lat="44.94512" lon="0.9183083"><ele>199.39999999999998</ele><time>2026-03-29T15:24:00.537Z</time></trkpt><trkpt lat="44.9450967" lon="0.9181683"><ele>199.0</ele><time>2026-03-29T15:24:01.538Z</time></trkpt><trkpt lat="44.9450517" lon="0.9180433"><ele>198.99999999999997</ele><time>2026-03-29T15:24:02.538Z</time></trkpt><trkpt lat="44.9449983" lon="0.9179317"><ele>199.0</ele><time>2026-03-29T15:24:03.538Z</time></trkpt><trkpt lat="44.9449367" lon="0.917835"><ele>199.0</ele><time>2026-03-29T15:24:04.538Z</time></trkpt><trkpt lat="44.9448817" lon="0.9177633"><ele>199.0</ele><time>2026-03-29T15:24:05.538Z</time></trkpt><trkpt lat="44.94482" lon="0.917685"><ele>198.99999999999997</ele><time>2026-03-29T15:24:06.537Z</time></trkpt><trkpt lat="44.9447467" lon="0.917605"><ele>199.0</ele><time>2026-03-29T15:24:07.538Z</time></trkpt><trkpt lat="44.9446717" lon="0.9175267"><ele>199.0</ele><time>2026-03-29T15:24:08.537Z</time></trkpt><trkpt lat="44.944605" lon="0.9174417"><ele>199.0</ele><time>2026-03-29T15:24:09.538Z</time></trkpt><trkpt lat="44.94453" lon="0.917355"><ele>199.0</ele><time>2026-03-29T15:24:10.537Z</time></trkpt><trkpt lat="44.9444533" lon="0.91725"><ele>199.0</ele><time>2026-03-29T15:24:11.537Z</time></trkpt><trkpt lat="44.944385" lon="0.9171433"><ele>199.0</ele><time>2026-03-29T15:24:12.538Z</time></trkpt><trkpt lat="44.944325" lon="0.9170233"><ele>199.0</ele><time>2026-03-29T15:24:13.537Z</time></trkpt><trkpt lat="44.9442583" lon="0.9169283"><ele>199.0</ele><time>2026-03-29T15:24:14.537Z</time></trkpt><trkpt lat="44.9441817" lon="0.9168367"><ele>199.0</ele><time>2026-03-29T15:24:15.537Z</time></trkpt><trkpt lat="44.9440867" lon="0.916775"><ele>199.0</ele><time>2026-03-29T15:24:16.537Z</time></trkpt><trkpt lat="44.94398" lon="0.9167367"><ele>199.0</ele><time>2026-03-29T15:24:17.538Z</time></trkpt><trkpt lat="44.9438567" lon="0.91672"><ele>199.0</ele><time>2026-03-29T15:24:18.537Z</time></trkpt><trkpt lat="44.94373" lon="0.916685"><ele>199.0</ele><time>2026-03-29T15:24:19.538Z</time></trkpt><trkpt lat="44.94361" lon="0.9166633"><ele>199.0</ele><time>2026-03-29T15:24:20.537Z</time></trkpt><trkpt lat="44.9434883" lon="0.916635"><ele>199.0</ele><time>2026-03-29T15:24:21.537Z</time></trkpt><trkpt lat="44.9433733" lon="0.9166083"><ele>198.2</ele><time>2026-03-29T15:24:22.538Z</time></trkpt><trkpt lat="44.9432733" lon="0.9165917"><ele>197.39999999999998</ele><time>2026-03-29T15:24:23.538Z</time></trkpt><trkpt lat="44.9431733" lon="0.9165717"><ele>196.6</ele><time>2026-03-29T15:24:24.538Z</time></trkpt><trkpt lat="44.9430883" lon="0.9165617"><ele>195.8</ele><time>2026-03-29T15:24:25.537Z</time></trkpt><trkpt lat="44.9430217" lon="0.9165467"><ele>195.0</ele><time>2026-03-29T15:24:26.538Z</time></trkpt><trkpt lat="44.9429183" lon="0.916505"><ele>195.0</ele><time>2026-03-29T15:24:28.538Z</time></trkpt><trkpt lat="44.9428833" lon="0.9164283"><ele>195.0</ele><time>2026-03-29T15:24:30.537Z</time></trkpt><trkpt lat="44.9429183" lon="0.91632"><ele>195.0</ele><time>2026-03-29T15:24:33.538Z</time></trkpt><trkpt lat="44.942955" lon="0.91624"><ele>195.0</ele><time>2026-03-29T15:24:36.537Z</time></trkpt><trkpt lat="44.942985" lon="0.9161483"><ele>195.0</ele><time>2026-03-29T15:24:38.538Z</time></trkpt><trkpt lat="44.943005" lon="0.916055"><ele>195.0</ele><time>2026-03-29T15:24:40.537Z</time></trkpt><trkpt lat="44.94298" lon="0.9159733"><ele>195.0</ele><time>2026-03-29T15:24:42.537Z</time></trkpt><trkpt lat="44.94291" lon="0.9159167"><ele>195.2</ele><time>2026-03-29T15:24:44.537Z</time></trkpt><trkpt lat="44.94282" lon="0.9158467"><ele>195.4</ele><time>2026-03-29T15:24:46.538Z</time></trkpt><trkpt lat="44.9427367" lon="0.915785"><ele>195.60000000000002</ele><time>2026-03-29T15:24:48.538Z</time></trkpt><trkpt lat="44.9426483" lon="0.9157217"><ele>195.8</ele><time>2026-03-29T15:24:50.538Z</time></trkpt><trkpt lat="44.9425533" lon="0.9156617"><ele>196.0</ele><time>2026-03-29T15:24:52.538Z</time></trkpt><trkpt lat="44.9424533" lon="0.9156133"><ele>196.0</ele><time>2026-03-29T15:24:54.538Z</time></trkpt><trkpt lat="44.94234" lon="0.915595"><ele>196.0</ele><time>2026-03-29T15:24:56.538Z</time></trkpt><trkpt lat="44.94224" lon="0.9155867"><ele>196.0</ele><time>2026-03-29T15:24:58.538Z</time></trkpt><trkpt lat="44.9421483" lon="0.9155783"><ele>196.0</ele><time>2026-03-29T15:25:00.537Z</time></trkpt><trkpt lat="44.94206" lon="0.91554"><ele>196.0</ele><time>2026-03-29T15:25:02.538Z</time></trkpt><trkpt lat="44.9419583" lon="0.9154967"><ele>196.0</ele><time>2026-03-29T15:25:04.537Z</time></trkpt><trkpt lat="44.9418483" lon="0.9154533"><ele>196.0</ele><time>2026-03-29T15:25:06.536Z</time></trkpt><trkpt lat="44.9417567" lon="0.915425"><ele>196.0</ele><time>2026-03-29T15:25:08.536Z</time></trkpt><trkpt lat="44.941665" lon="0.9154067"><ele>196.0</ele><time>2026-03-29T15:25:10.537Z</time></trkpt><trkpt lat="44.94156" lon="0.9153933"><ele>196.0</ele><time>2026-03-29T15:25:12.536Z</time></trkpt><trkpt lat="44.9414483" lon="0.9153833"><ele>196.60000000000002</ele><time>2026-03-29T15:25:14.537Z</time></trkpt><trkpt lat="44.9413233" lon="0.91538"><ele>197.2</ele><time>2026-03-29T15:25:16.536Z</time></trkpt><trkpt lat="44.94122" lon="0.9153783"><ele>197.8</ele><time>2026-03-29T15:25:18.536Z</time></trkpt><trkpt lat="44.9411367" lon="0.91536"><ele>198.39999999999998</ele><time>2026-03-29T15:25:20.537Z</time></trkpt><trkpt lat="44.9410617" lon="0.9153417"><ele>199.0</ele><time>2026-03-29T15:25:22.537Z</time></trkpt><trkpt lat="44.9409883" lon="0.915325"><ele>199.0</ele><time>2026-03-29T15:25:24.537Z</time></trkpt><trkpt lat="44.9409117" lon="0.91526"><ele>199.0</ele><time>2026-03-29T15:25:26.536Z</time></trkpt><trkpt lat="44.9408367" lon="0.9151517"><ele>199.0</ele><time>2026-03-29T15:25:28.536Z</time></trkpt><trkpt lat="44.9407717" lon="0.915005"><ele>199.0</ele><time>2026-03-29T15:25:30.537Z</time></trkpt><trkpt lat="44.9407383" lon="0.9148483"><ele>199.0</ele><time>2026-03-29T15:25:32.537Z</time></trkpt><trkpt lat="44.940695" lon="0.914745"><ele>198.6</ele><time>2026-03-29T15:25:34.536Z</time></trkpt><trkpt lat="44.94063" lon="0.914685"><ele>198.2</ele><time>2026-03-29T15:25:36.537Z</time></trkpt><trkpt lat="44.940555" lon="0.9146167"><ele>197.79999999999998</ele><time>2026-03-29T15:25:38.536Z</time></trkpt><trkpt lat="44.940495" lon="0.91455"><ele>197.39999999999998</ele><time>2026-03-29T15:25:40.536Z</time></trkpt><trkpt lat="44.9404117" lon="0.9144783"><ele>197.0</ele><time>2026-03-29T15:25:42.536Z</time></trkpt><trkpt lat="44.9403" lon="0.9144017"><ele>197.00000000000003</ele><time>2026-03-29T15:25:44.537Z</time></trkpt><trkpt lat="44.9402383" lon="0.9143717"><ele>197.0</ele><time>2026-03-29T15:25:45.537Z</time></trkpt><trkpt lat="44.9401567" lon="0.9143217"><ele>197.0</ele><time>2026-03-29T15:25:47.537Z</time></trkpt><trkpt lat="44.94009" lon="0.9142583"><ele>197.0</ele><time>2026-03-29T15:25:50.537Z</time></trkpt><trkpt lat="44.94003" lon="0.9141717"><ele>197.00000000000003</ele><time>2026-03-29T15:25:52.536Z</time></trkpt><trkpt lat="44.9399483" lon="0.9140633"><ele>197.0</ele><time>2026-03-29T15:25:54.537Z</time></trkpt><trkpt lat="44.9398467" lon="0.913985"><ele>196.42857142857144</ele><time>2026-03-29T15:25:56.537Z</time></trkpt><trkpt lat="44.9397717" lon="0.91395"><ele>195.85714285714286</ele><time>2026-03-29T15:25:57.537Z</time></trkpt><trkpt lat="44.9397083" lon="0.9139183"><ele>195.28571428571428</ele><time>2026-03-29T15:25:58.537Z</time></trkpt><trkpt lat="44.9396417" lon="0.9138917"><ele>194.71428571428572</ele><time>2026-03-29T15:25:59.536Z</time></trkpt><trkpt lat="44.939575" lon="0.9138733"><ele>194.14285714285714</ele><time>2026-03-29T15:26:00.536Z</time></trkpt><trkpt lat="44.9395017" lon="0.9138467"><ele>193.57142857142858</ele><time>2026-03-29T15:26:01.537Z</time></trkpt><trkpt lat="44.939425" lon="0.9138083"><ele>193.0</ele><time>2026-03-29T15:26:02.536Z</time></trkpt><trkpt lat="44.9393517" lon="0.913775"><ele>192.99999999999997</ele><time>2026-03-29T15:26:03.537Z</time></trkpt><trkpt lat="44.9392817" lon="0.9137517"><ele>193.0</ele><time>2026-03-29T15:26:04.536Z</time></trkpt><trkpt lat="44.9392133" lon="0.9137467"><ele>193.0</ele><time>2026-03-29T15:26:05.537Z</time></trkpt><trkpt lat="44.939135" lon="0.9137717"><ele>193.0</ele><time>2026-03-29T15:26:06.536Z</time></trkpt><trkpt lat="44.9390567" lon="0.9138133"><ele>192.99999999999997</ele><time>2026-03-29T15:26:07.536Z</time></trkpt><trkpt lat="44.938975" lon="0.9138567"><ele>193.0</ele><time>2026-03-29T15:26:08.536Z</time></trkpt><trkpt lat="44.9388983" lon="0.913905"><ele>191.99999999999997</ele><time>2026-03-29T15:26:09.537Z</time></trkpt><trkpt lat="44.9388017" lon="0.9139683"><ele>191.0</ele><time>2026-03-29T15:26:10.536Z</time></trkpt><trkpt lat="44.9387317" lon="0.913995"><ele>190.0</ele><time>2026-03-29T15:26:11.536Z</time></trkpt><trkpt lat="44.9386633" lon="0.9140183"><ele>189.0</ele><time>2026-03-29T15:26:12.536Z</time></trkpt><trkpt lat="44.9385833" lon="0.9140633"><ele>188.0</ele><time>2026-03-29T15:26:13.537Z</time></trkpt><trkpt lat="44.9384967" lon="0.9141283"><ele>187.0</ele><time>2026-03-29T15:26:14.536Z</time></trkpt><trkpt lat="44.9384217" lon="0.914185"><ele>183.8</ele><time>2026-03-29T15:26:15.537Z</time></trkpt><trkpt lat="44.938345" lon="0.9142533"><ele>180.6</ele><time>2026-03-29T15:26:16.537Z</time></trkpt><trkpt lat="44.938275" lon="0.9143267"><ele>177.4</ele><time>2026-03-29T15:26:17.536Z</time></trkpt><trkpt lat="44.938195" lon="0.914415"><ele>174.20000000000002</ele><time>2026-03-29T15:26:18.537Z</time></trkpt><trkpt lat="44.938105" lon="0.9145067"><ele>171.0</ele><time>2026-03-29T15:26:19.537Z</time></trkpt><trkpt lat="44.93802" lon="0.914595"><ele>171.0</ele><time>2026-03-29T15:26:20.536Z</time></trkpt><trkpt lat="44.9379367" lon="0.9146883"><ele>171.0</ele><time>2026-03-29T15:26:21.536Z</time></trkpt><trkpt lat="44.9378567" lon="0.9147733"><ele>171.0</ele><time>2026-03-29T15:26:22.536Z</time></trkpt><trkpt lat="44.9377817" lon="0.914855"><ele>171.0</ele><time>2026-03-29T15:26:23.536Z</time></trkpt><trkpt lat="44.93771" lon="0.9149333"><ele>171.0</ele><time>2026-03-29T15:26:24.537Z</time></trkpt><trkpt lat="44.9376383" lon="0.9150067"><ele>171.0</ele><time>2026-03-29T15:26:25.536Z</time></trkpt><trkpt lat="44.9375717" lon="0.9150683"><ele>171.0</ele><time>2026-03-29T15:26:26.536Z</time></trkpt><trkpt lat="44.93751" lon="0.9151233"><ele>171.0</ele><time>2026-03-29T15:26:27.536Z</time></trkpt><trkpt lat="44.9374467" lon="0.9152067"><ele>171.0</ele><time>2026-03-29T15:26:28.537Z</time></trkpt><trkpt lat="44.9373867" lon="0.915285"><ele>171.0</ele><time>2026-03-29T15:26:29.537Z</time></trkpt><trkpt lat="44.9373133" lon="0.915365"><ele>171.0</ele><time>2026-03-29T15:26:30.537Z</time></trkpt><trkpt lat="44.9372533" lon="0.9154567"><ele>169.83333333333334</ele><time>2026-03-29T15:26:31.537Z</time></trkpt><trkpt lat="44.9371933" lon="0.9155517"><ele>168.66666666666666</ele><time>2026-03-29T15:26:32.537Z</time></trkpt><trkpt lat="44.937145" lon="0.9156283"><ele>167.5</ele><time>2026-03-29T15:26:33.537Z</time></trkpt><trkpt lat="44.937095" lon="0.9157083"><ele>166.33333333333331</ele><time>2026-03-29T15:26:34.536Z</time></trkpt><trkpt lat="44.9370533" lon="0.9157833"><ele>165.16666666666666</ele><time>2026-03-29T15:26:35.537Z</time></trkpt><trkpt lat="44.9369683" lon="0.9159317"><ele>164.0</ele><time>2026-03-29T15:26:37.537Z</time></trkpt><trkpt lat="44.9369183" lon="0.915995"><ele>163.66666666666666</ele><time>2026-03-29T15:26:38.537Z</time></trkpt><trkpt lat="44.93687" lon="0.9160717"><ele>163.33333333333331</ele><time>2026-03-29T15:26:39.537Z</time></trkpt><trkpt lat="44.93682" lon="0.9161533"><ele>163.0</ele><time>2026-03-29T15:26:40.536Z</time></trkpt><trkpt lat="44.9367683" lon="0.916245"><ele>162.66666666666666</ele><time>2026-03-29T15:26:41.536Z</time></trkpt><trkpt lat="44.936715" lon="0.91634"><ele>162.33333333333334</ele><time>2026-03-29T15:26:42.537Z</time></trkpt><trkpt lat="44.9366617" lon="0.9164367"><ele>162.0</ele><time>2026-03-29T15:26:43.537Z</time></trkpt><trkpt lat="44.93661" lon="0.916535"><ele>162.0</ele><time>2026-03-29T15:26:44.536Z</time></trkpt><trkpt lat="44.936565" lon="0.9166333"><ele>162.0</ele><time>2026-03-29T15:26:45.537Z</time></trkpt><trkpt lat="44.93652" lon="0.9167183"><ele>162.0</ele><time>2026-03-29T15:26:46.537Z</time></trkpt><trkpt lat="44.936475" lon="0.9167867"><ele>162.0</ele><time>2026-03-29T15:26:47.536Z</time></trkpt><trkpt lat="44.9363967" lon="0.91689"><ele>162.0</ele><time>2026-03-29T15:26:49.537Z</time></trkpt><trkpt lat="44.93634" lon="0.91695"><ele>162.0</ele><time>2026-03-29T15:26:51.537Z</time></trkpt><trkpt lat="44.9363117" lon="0.91703"><ele>160.83333333333334</ele><time>2026-03-29T15:26:54.537Z</time></trkpt><trkpt lat="44.93633" lon="0.917245"><ele>159.66666666666666</ele><time>2026-03-29T15:27:09.536Z</time></trkpt><trkpt lat="44.9363667" lon="0.9173233"><ele>158.5</ele><time>2026-03-29T15:27:12.536Z</time></trkpt><trkpt lat="44.9364183" lon="0.9174033"><ele>157.33333333333331</ele><time>2026-03-29T15:27:15.536Z</time></trkpt><trkpt lat="44.9364867" lon="0.917485"><ele>156.16666666666666</ele><time>2026-03-29T15:27:18.536Z</time></trkpt><trkpt lat="44.9365417" lon="0.91753"><ele>155.0</ele><time>2026-03-29T15:27:20.537Z</time></trkpt><trkpt lat="44.936605" lon="0.9175867"><ele>153.0</ele><time>2026-03-29T15:27:23.536Z</time></trkpt><trkpt lat="44.93668" lon="0.9176833"><ele>151.0</ele><time>2026-03-29T15:27:29.537Z</time></trkpt><trkpt lat="44.9366667" lon="0.9177783"><ele>149.0</ele><time>2026-03-29T15:27:32.537Z</time></trkpt><trkpt lat="44.936605" lon="0.9178583"><ele>147.0</ele><time>2026-03-29T15:27:34.536Z</time></trkpt><trkpt lat="44.9365233" lon="0.917965"><ele>145.0</ele><time>2026-03-29T15:27:36.536Z</time></trkpt><trkpt lat="44.936485" lon="0.9180367"><ele>143.0</ele><time>2026-03-29T15:27:37.536Z</time></trkpt><trkpt lat="44.9364283" lon="0.91813"><ele>143.0</ele><time>2026-03-29T15:27:38.536Z</time></trkpt><trkpt lat="44.9363783" lon="0.91822"><ele>143.0</ele><time>2026-03-29T15:27:39.537Z</time></trkpt><trkpt lat="44.9363267" lon="0.9183167"><ele>143.0</ele><time>2026-03-29T15:27:40.536Z</time></trkpt><trkpt lat="44.936265" lon="0.9184183"><ele>143.0</ele><time>2026-03-29T15:27:41.537Z</time></trkpt><trkpt lat="44.93621" lon="0.9185167"><ele>143.0</ele><time>2026-03-29T15:27:42.537Z</time></trkpt><trkpt lat="44.9361483" lon="0.9186383"><ele>142.20000000000002</ele><time>2026-03-29T15:27:43.537Z</time></trkpt><trkpt lat="44.936085" lon="0.9187517"><ele>141.4</ele><time>2026-03-29T15:27:44.537Z</time></trkpt><trkpt lat="44.9360367" lon="0.9188633"><ele>140.60000000000002</ele><time>2026-03-29T15:27:45.536Z</time></trkpt><trkpt lat="44.93599" lon="0.918975"><ele>139.8</ele><time>2026-03-29T15:27:46.537Z</time></trkpt><trkpt lat="44.9359317" lon="0.9191117"><ele>139.0</ele><time>2026-03-29T15:27:47.536Z</time></trkpt><trkpt lat="44.9358717" lon="0.9192333"><ele>137.0</ele><time>2026-03-29T15:27:48.536Z</time></trkpt><trkpt lat="44.935825" lon="0.9193133"><ele>135.0</ele><time>2026-03-29T15:27:49.537Z</time></trkpt><trkpt lat="44.9357717" lon="0.91941"><ele>133.0</ele><time>2026-03-29T15:27:50.536Z</time></trkpt><trkpt lat="44.9357067" lon="0.9195333"><ele>131.0</ele><time>2026-03-29T15:27:51.536Z</time></trkpt><trkpt lat="44.9356517" lon="0.9196383"><ele>129.0</ele><time>2026-03-29T15:27:52.536Z</time></trkpt><trkpt lat="44.93559" lon="0.919725"><ele>127.0</ele><time>2026-03-29T15:27:53.537Z</time></trkpt><trkpt lat="44.93553" lon="0.9198233"><ele>127.0</ele><time>2026-03-29T15:27:54.536Z</time></trkpt><trkpt lat="44.9354733" lon="0.91991"><ele>126.99999999999999</ele><time>2026-03-29T15:27:55.536Z</time></trkpt><trkpt lat="44.935405" lon="0.92003"><ele>126.99999999999999</ele><time>2026-03-29T15:27:56.537Z</time></trkpt><trkpt lat="44.9353367" lon="0.9201183"><ele>127.0</ele><time>2026-03-29T15:27:57.536Z</time></trkpt><trkpt lat="44.9352617" lon="0.9202167"><ele>127.0</ele><time>2026-03-29T15:27:58.536Z</time></trkpt><trkpt lat="44.935195" lon="0.920325"><ele>126.33333333333334</ele><time>2026-03-29T15:27:59.537Z</time></trkpt><trkpt lat="44.93513" lon="0.920415"><ele>125.66666666666667</ele><time>2026-03-29T15:28:00.537Z</time></trkpt><trkpt lat="44.935055" lon="0.9205133"><ele>125.0</ele><time>2026-03-29T15:28:01.536Z</time></trkpt><trkpt lat="44.935005" lon="0.9205983"><ele>124.33333333333334</ele><time>2026-03-29T15:28:02.536Z</time></trkpt><trkpt lat="44.9349517" lon="0.9206833"><ele>123.66666666666667</ele><time>2026-03-29T15:28:03.537Z</time></trkpt><trkpt lat="44.9348967" lon="0.9207417"><ele>123.0</ele><time>2026-03-29T15:28:04.536Z</time></trkpt><trkpt lat="44.9348367" lon="0.9208017"><ele>123.00000000000001</ele><time>2026-03-29T15:28:05.536Z</time></trkpt><trkpt lat="44.934785" lon="0.92086"><ele>123.0</ele><time>2026-03-29T15:28:06.537Z</time></trkpt><trkpt lat="44.93473" lon="0.9209183"><ele>123.00000000000001</ele><time>2026-03-29T15:28:07.536Z</time></trkpt><trkpt lat="44.93467" lon="0.9209833"><ele>123.00000000000001</ele><time>2026-03-29T15:28:08.537Z</time></trkpt><trkpt lat="44.93462" lon="0.92104"><ele>123.0</ele><time>2026-03-29T15:28:09.537Z</time></trkpt><trkpt lat="44.934565" lon="0.921105"><ele>123.00000000000001</ele><time>2026-03-29T15:28:10.537Z</time></trkpt><trkpt lat="44.9345167" lon="0.9211633"><ele>123.00000000000001</ele><time>2026-03-29T15:28:11.536Z</time></trkpt><trkpt lat="44.9344683" lon="0.9212367"><ele>123.00000000000001</ele><time>2026-03-29T15:28:12.536Z</time></trkpt><trkpt lat="44.93442" lon="0.921315"><ele>123.0</ele><time>2026-03-29T15:28:13.536Z</time></trkpt><trkpt lat="44.9343683" lon="0.92138"><ele>123.00000000000001</ele><time>2026-03-29T15:28:14.536Z</time></trkpt><trkpt lat="44.93432" lon="0.9214567"><ele>123.00000000000001</ele><time>2026-03-29T15:28:15.536Z</time></trkpt><trkpt lat="44.9342717" lon="0.92154"><ele>123.0</ele><time>2026-03-29T15:28:16.536Z</time></trkpt><trkpt lat="44.9342183" lon="0.9216217"><ele>123.00000000000001</ele><time>2026-03-29T15:28:17.537Z</time></trkpt><trkpt lat="44.9341583" lon="0.92169"><ele>123.00000000000001</ele><time>2026-03-29T15:28:18.536Z</time></trkpt><trkpt lat="44.934105" lon="0.921755"><ele>121.66666666666667</ele><time>2026-03-29T15:28:19.537Z</time></trkpt><trkpt lat="44.93405" lon="0.9218233"><ele>120.33333333333334</ele><time>2026-03-29T15:28:20.537Z</time></trkpt><trkpt lat="44.933995" lon="0.9218967"><ele>119.0</ele><time>2026-03-29T15:28:21.537Z</time></trkpt><trkpt lat="44.9339383" lon="0.92197"><ele>117.66666666666667</ele><time>2026-03-29T15:28:22.536Z</time></trkpt><trkpt lat="44.9338783" lon="0.9220383"><ele>116.33333333333334</ele><time>2026-03-29T15:28:23.536Z</time></trkpt><trkpt lat="44.9338233" lon="0.922105"><ele>115.0</ele><time>2026-03-29T15:28:24.536Z</time></trkpt><trkpt lat="44.933755" lon="0.9222017"><ele>115.00000000000001</ele><time>2026-03-29T15:28:26.537Z</time></trkpt><trkpt lat="44.9336983" lon="0.9222833"><ele>115.0</ele><time>2026-03-29T15:28:27.536Z</time></trkpt><trkpt lat="44.933655" lon="0.9223483"><ele>115.0</ele><time>2026-03-29T15:28:28.537Z</time></trkpt><trkpt lat="44.9335717" lon="0.9224483"><ele>115.0</ele><time>2026-03-29T15:28:30.536Z</time></trkpt><trkpt lat="44.9334967" lon="0.922555"><ele>115.00000000000001</ele><time>2026-03-29T15:28:31.537Z</time></trkpt><trkpt lat="44.9334383" lon="0.922635"><ele>115.0</ele><time>2026-03-29T15:28:32.536Z</time></trkpt><trkpt lat="44.9333733" lon="0.922725"><ele>114.66666666666667</ele><time>2026-03-29T15:28:33.536Z</time></trkpt><trkpt lat="44.9333117" lon="0.9227983"><ele>114.33333333333334</ele><time>2026-03-29T15:28:34.536Z</time></trkpt><trkpt lat="44.93326" lon="0.9228683"><ele>114.0</ele><time>2026-03-29T15:28:35.537Z</time></trkpt><trkpt lat="44.9332017" lon="0.9229617"><ele>113.66666666666666</ele><time>2026-03-29T15:28:36.536Z</time></trkpt><trkpt lat="44.9331483" lon="0.9230667"><ele>113.33333333333333</ele><time>2026-03-29T15:28:37.537Z</time></trkpt><trkpt lat="44.9331" lon="0.92317"><ele>113.0</ele><time>2026-03-29T15:28:38.536Z</time></trkpt><trkpt lat="44.9330583" lon="0.9232583"><ele>112.99999999999999</ele><time>2026-03-29T15:28:39.536Z</time></trkpt><trkpt lat="44.9330217" lon="0.9233433"><ele>113.0</ele><time>2026-03-29T15:28:40.536Z</time></trkpt><trkpt lat="44.9329683" lon="0.9234633"><ele>113.0</ele><time>2026-03-29T15:28:42.536Z</time></trkpt><trkpt lat="44.9329283" lon="0.9235483"><ele>113.0</ele><time>2026-03-29T15:28:44.536Z</time></trkpt><trkpt lat="44.9328867" lon="0.92362"><ele>112.99999999999999</ele><time>2026-03-29T15:28:55.535Z</time></trkpt><trkpt lat="44.932845" lon="0.92374"><ele>113.0</ele><time>2026-03-29T15:28:56.535Z</time></trkpt><trkpt lat="44.9328017" lon="0.9238633"><ele>111.83333333333333</ele><time>2026-03-29T15:29:02.536Z</time></trkpt><trkpt lat="44.93277" lon="0.9239417"><ele>110.66666666666666</ele><time>2026-03-29T15:29:03.535Z</time></trkpt><trkpt lat="44.9327283" lon="0.9240617"><ele>109.5</ele><time>2026-03-29T15:29:04.536Z</time></trkpt><trkpt lat="44.9326817" lon="0.92418"><ele>108.33333333333334</ele><time>2026-03-29T15:29:05.536Z</time></trkpt><trkpt lat="44.9326433" lon="0.92426"><ele>107.16666666666667</ele><time>2026-03-29T15:29:06.535Z</time></trkpt><trkpt lat="44.932575" lon="0.9244017"><ele>106.0</ele><time>2026-03-29T15:29:08.536Z</time></trkpt><trkpt lat="44.9325183" lon="0.9244733"><ele>104.16666666666667</ele><time>2026-03-29T15:29:10.535Z</time></trkpt><trkpt lat="44.932445" lon="0.9244567"><ele>102.33333333333334</ele><time>2026-03-29T15:29:13.536Z</time></trkpt><trkpt lat="44.9323767" lon="0.924445"><ele>100.5</ele><time>2026-03-29T15:29:15.536Z</time></trkpt><trkpt lat="44.9323167" lon="0.924545"><ele>98.66666666666667</ele><time>2026-03-29T15:29:18.535Z</time></trkpt><trkpt lat="44.9322967" lon="0.92464"><ele>96.83333333333334</ele><time>2026-03-29T15:29:19.536Z</time></trkpt><trkpt lat="44.932265" lon="0.9247433"><ele>95.0</ele><time>2026-03-29T15:29:20.536Z</time></trkpt><trkpt lat="44.9322433" lon="0.924845"><ele>95.0</ele><time>2026-03-29T15:29:21.536Z</time></trkpt><trkpt lat="44.932215" lon="0.9249283"><ele>95.0</ele><time>2026-03-29T15:29:22.536Z</time></trkpt><trkpt lat="44.9321583" lon="0.9250633"><ele>95.0</ele><time>2026-03-29T15:29:24.536Z</time></trkpt><trkpt lat="44.932135" lon="0.9251733"><ele>95.0</ele><time>2026-03-29T15:29:26.536Z</time></trkpt><trkpt lat="44.9321717" lon="0.9250983"><ele>95.0</ele><time>2026-03-29T15:38:56.534Z</time></trkpt><trkpt lat="44.93222" lon="0.9250117"><ele>95.0</ele><time>2026-03-29T15:38:59.533Z</time></trkpt><trkpt lat="44.9322533" lon="0.924935"><ele>95.0</ele><time>2026-03-29T15:39:01.533Z</time></trkpt><trkpt lat="44.93229" lon="0.92484"><ele>95.0</ele><time>2026-03-29T15:39:03.533Z</time></trkpt><trkpt lat="44.9323217" lon="0.9247317"><ele>95.0</ele><time>2026-03-29T15:39:05.534Z</time></trkpt><trkpt lat="44.9323333" lon="0.9246367"><ele>95.0</ele><time>2026-03-29T15:39:07.534Z</time></trkpt><trkpt lat="44.9323417" lon="0.9245283"><ele>95.0</ele><time>2026-03-29T15:39:11.533Z</time></trkpt><trkpt lat="44.93238" lon="0.92443"><ele>95.0</ele><time>2026-03-29T15:39:33.533Z</time></trkpt><trkpt lat="44.932315" lon="0.92433"><ele>96.4</ele><time>2026-03-29T15:39:35.533Z</time></trkpt><trkpt lat="44.932265" lon="0.9241617"><ele>97.8</ele><time>2026-03-29T15:39:37.534Z</time></trkpt><trkpt lat="44.9322467" lon="0.9240417"><ele>99.19999999999999</ele><time>2026-03-29T15:39:38.533Z</time></trkpt><trkpt lat="44.9322283" lon="0.9239267"><ele>100.6</ele><time>2026-03-29T15:39:39.534Z</time></trkpt><trkpt lat="44.932215" lon="0.9238"><ele>102.0</ele><time>2026-03-29T15:39:40.534Z</time></trkpt><trkpt lat="44.9322033" lon="0.9236817"><ele>102.0</ele><time>2026-03-29T15:39:41.534Z</time></trkpt><trkpt lat="44.93216" lon="0.9235317"><ele>102.0</ele><time>2026-03-29T15:39:42.533Z</time></trkpt><trkpt lat="44.93213" lon="0.9233883"><ele>102.0</ele><time>2026-03-29T15:39:43.533Z</time></trkpt><trkpt lat="44.9321" lon="0.923255"><ele>102.0</ele><time>2026-03-29T15:39:44.534Z</time></trkpt><trkpt lat="44.9320533" lon="0.9231383"><ele>102.0</ele><time>2026-03-29T15:39:45.533Z</time></trkpt><trkpt lat="44.9320117" lon="0.9230317"><ele>102.83333333333333</ele><time>2026-03-29T15:39:46.533Z</time></trkpt><trkpt lat="44.9319667" lon="0.9229117"><ele>103.66666666666666</ele><time>2026-03-29T15:39:47.533Z</time></trkpt><trkpt lat="44.9319283" lon="0.9227983"><ele>104.5</ele><time>2026-03-29T15:39:48.534Z</time></trkpt><trkpt lat="44.931885" lon="0.922685"><ele>105.33333333333333</ele><time>2026-03-29T15:39:49.534Z</time></trkpt><trkpt lat="44.9318583" lon="0.9225717"><ele>106.16666666666666</ele><time>2026-03-29T15:39:50.533Z</time></trkpt><trkpt lat="44.9318383" lon="0.9224717"><ele>107.0</ele><time>2026-03-29T15:39:51.533Z</time></trkpt><trkpt lat="44.9318083" lon="0.92236"><ele>107.16666666666666</ele><time>2026-03-29T15:39:52.534Z</time></trkpt><trkpt lat="44.931785" lon="0.9222683"><ele>107.33333333333333</ele><time>2026-03-29T15:39:53.534Z</time></trkpt><trkpt lat="44.9317617" lon="0.9221767"><ele>107.5</ele><time>2026-03-29T15:39:54.534Z</time></trkpt><trkpt lat="44.9317383" lon="0.9220933"><ele>107.66666666666666</ele><time>2026-03-29T15:39:55.533Z</time></trkpt><trkpt lat="44.9317183" lon="0.921965"><ele>107.83333333333333</ele><time>2026-03-29T15:39:57.534Z</time></trkpt><trkpt lat="44.9316383" lon="0.92201"><ele>108.0</ele><time>2026-03-29T15:40:02.533Z</time></trkpt><trkpt lat="44.9315967" lon="0.922175"><ele>103.0</ele><time>2026-03-29T15:40:04.533Z</time></trkpt><trkpt lat="44.9315717" lon="0.9222633"><ele>98.00000000000001</ele><time>2026-03-29T15:40:05.534Z</time></trkpt><trkpt lat="44.9315267" lon="0.9224217"><ele>93.0</ele><time>2026-03-29T15:40:07.533Z</time></trkpt><trkpt lat="44.9315017" lon="0.92256"><ele>88.0</ele><time>2026-03-29T15:40:09.534Z</time></trkpt><trkpt lat="44.9315" lon="0.9226833"><ele>83.0</ele><time>2026-03-29T15:40:11.534Z</time></trkpt><trkpt lat="44.9315117" lon="0.9228067"><ele>82.66666666666667</ele><time>2026-03-29T15:40:13.534Z</time></trkpt><trkpt lat="44.9315267" lon="0.9229717"><ele>82.33333333333334</ele><time>2026-03-29T15:40:15.533Z</time></trkpt><trkpt lat="44.9315267" lon="0.9230617"><ele>82.0</ele><time>2026-03-29T15:40:16.534Z</time></trkpt><trkpt lat="44.93153" lon="0.9231567"><ele>81.66666666666667</ele><time>2026-03-29T15:40:17.533Z</time></trkpt><trkpt lat="44.9315233" lon="0.92329"><ele>81.33333333333333</ele><time>2026-03-29T15:40:18.534Z</time></trkpt><trkpt lat="44.9315033" lon="0.9234283"><ele>81.0</ele><time>2026-03-29T15:40:19.533Z</time></trkpt><trkpt lat="44.9314867" lon="0.9235583"><ele>80.66666666666667</ele><time>2026-03-29T15:40:20.533Z</time></trkpt><trkpt lat="44.9314733" lon="0.9236883"><ele>80.33333333333333</ele><time>2026-03-29T15:40:21.533Z</time></trkpt><trkpt lat="44.9314567" lon="0.9238033"><ele>80.0</ele><time>2026-03-29T15:40:22.532Z</time></trkpt><trkpt lat="44.931445" lon="0.9239033"><ele>79.66666666666666</ele><time>2026-03-29T15:40:23.532Z</time></trkpt><trkpt lat="44.93141" lon="0.92401"><ele>79.33333333333333</ele><time>2026-03-29T15:40:24.533Z</time></trkpt><trkpt lat="44.931375" lon="0.9241017"><ele>79.0</ele><time>2026-03-29T15:40:25.533Z</time></trkpt><trkpt lat="44.931315" lon="0.9242167"><ele>79.5</ele><time>2026-03-29T15:40:27.533Z</time></trkpt><trkpt lat="44.931235" lon="0.92432"><ele>80.0</ele><time>2026-03-29T15:40:29.532Z</time></trkpt><trkpt lat="44.931145" lon="0.9244233"><ele>80.5</ele><time>2026-03-29T15:40:31.532Z</time></trkpt><trkpt lat="44.9311" lon="0.9245017"><ele>81.0</ele><time>2026-03-29T15:40:32.533Z</time></trkpt><trkpt lat="44.9310633" lon="0.9245833"><ele>81.5</ele><time>2026-03-29T15:40:33.532Z</time></trkpt><trkpt lat="44.9310383" lon="0.9246817"><ele>82.0</ele><time>2026-03-29T15:40:34.532Z</time></trkpt><trkpt lat="44.9310317" lon="0.92479"><ele>82.0</ele><time>2026-03-29T15:40:35.532Z</time></trkpt><trkpt lat="44.9310167" lon="0.9249067"><ele>82.0</ele><time>2026-03-29T15:40:36.533Z</time></trkpt><trkpt lat="44.931" lon="0.925005"><ele>82.0</ele><time>2026-03-29T15:40:37.533Z</time></trkpt><trkpt lat="44.9309883" lon="0.9251217"><ele>82.0</ele><time>2026-03-29T15:40:38.532Z</time></trkpt><trkpt lat="44.9309783" lon="0.925235"><ele>82.0</ele><time>2026-03-29T15:40:39.532Z</time></trkpt><trkpt lat="44.9309617" lon="0.9253483"><ele>82.0</ele><time>2026-03-29T15:40:40.532Z</time></trkpt><trkpt lat="44.93095" lon="0.9254617"><ele>82.16666666666666</ele><time>2026-03-29T15:40:41.533Z</time></trkpt><trkpt lat="44.9309317" lon="0.9255667"><ele>82.33333333333333</ele><time>2026-03-29T15:40:42.532Z</time></trkpt><trkpt lat="44.93091" lon="0.92567"><ele>82.5</ele><time>2026-03-29T15:40:43.533Z</time></trkpt><trkpt lat="44.9308883" lon="0.92577"><ele>82.66666666666667</ele><time>2026-03-29T15:40:44.532Z</time></trkpt><trkpt lat="44.9308717" lon="0.9258817"><ele>82.83333333333334</ele><time>2026-03-29T15:40:45.532Z</time></trkpt><trkpt lat="44.9308567" lon="0.925995"><ele>83.0</ele><time>2026-03-29T15:40:46.533Z</time></trkpt><trkpt lat="44.930835" lon="0.9261283"><ele>80.83333333333334</ele><time>2026-03-29T15:40:47.533Z</time></trkpt><trkpt lat="44.9308167" lon="0.926265"><ele>78.66666666666667</ele><time>2026-03-29T15:40:48.533Z</time></trkpt><trkpt lat="44.9308017" lon="0.92639"><ele>76.5</ele><time>2026-03-29T15:40:49.533Z</time></trkpt><trkpt lat="44.9307883" lon="0.926505"><ele>74.33333333333333</ele><time>2026-03-29T15:40:50.533Z</time></trkpt><trkpt lat="44.9307767" lon="0.9266017"><ele>72.16666666666666</ele><time>2026-03-29T15:40:51.533Z</time></trkpt><trkpt lat="44.930765" lon="0.9266917"><ele>70.0</ele><time>2026-03-29T15:40:52.533Z</time></trkpt><trkpt lat="44.9307567" lon="0.9267817"><ele>69.8</ele><time>2026-03-29T15:40:53.533Z</time></trkpt><trkpt lat="44.93073" lon="0.9269433"><ele>69.6</ele><time>2026-03-29T15:40:55.533Z</time></trkpt><trkpt lat="44.9307067" lon="0.9270517"><ele>69.4</ele><time>2026-03-29T15:40:56.532Z</time></trkpt><trkpt lat="44.93068" lon="0.92717"><ele>69.2</ele><time>2026-03-29T15:40:57.533Z</time></trkpt><trkpt lat="44.93065" lon="0.9273"><ele>69.0</ele><time>2026-03-29T15:40:58.532Z</time></trkpt><trkpt lat="44.93062" lon="0.9274433"><ele>69.0</ele><time>2026-03-29T15:40:59.532Z</time></trkpt><trkpt lat="44.9306" lon="0.927595"><ele>69.0</ele><time>2026-03-29T15:41:00.533Z</time></trkpt><trkpt lat="44.9305683" lon="0.9277717"><ele>69.0</ele><time>2026-03-29T15:41:01.533Z</time></trkpt><trkpt lat="44.9305317" lon="0.927935"><ele>69.0</ele><time>2026-03-29T15:41:02.533Z</time></trkpt><trkpt lat="44.9304917" lon="0.92809"><ele>69.0</ele><time>2026-03-29T15:41:03.533Z</time></trkpt><trkpt lat="44.930445" lon="0.9282383"><ele>69.0</ele><time>2026-03-29T15:41:04.533Z</time></trkpt><trkpt lat="44.9303917" lon="0.9283783"><ele>69.0</ele><time>2026-03-29T15:41:05.532Z</time></trkpt><trkpt lat="44.9303383" lon="0.9285"><ele>69.0</ele><time>2026-03-29T15:41:06.532Z</time></trkpt><trkpt lat="44.9302833" lon="0.928615"><ele>69.0</ele><time>2026-03-29T15:41:07.532Z</time></trkpt><trkpt lat="44.9302317" lon="0.92874"><ele>69.2</ele><time>2026-03-29T15:41:08.533Z</time></trkpt><trkpt lat="44.9301783" lon="0.9288533"><ele>69.4</ele><time>2026-03-29T15:41:09.533Z</time></trkpt><trkpt lat="44.9301167" lon="0.9289683"><ele>69.6</ele><time>2026-03-29T15:41:10.532Z</time></trkpt><trkpt lat="44.9300433" lon="0.9290717"><ele>69.8</ele><time>2026-03-29T15:41:11.532Z</time></trkpt><trkpt lat="44.92996" lon="0.9291367"><ele>70.0</ele><time>2026-03-29T15:41:12.533Z</time></trkpt><trkpt lat="44.9298817" lon="0.9291583"><ele>71.0</ele><time>2026-03-29T15:41:13.532Z</time></trkpt><trkpt lat="44.929805" lon="0.9291683"><ele>72.0</ele><time>2026-03-29T15:41:14.532Z</time></trkpt><trkpt lat="44.929745" lon="0.92914"><ele>73.0</ele><time>2026-03-29T15:41:15.532Z</time></trkpt><trkpt lat="44.9296467" lon="0.9291033"><ele>74.0</ele><time>2026-03-29T15:41:17.533Z</time></trkpt><trkpt lat="44.9295233" lon="0.9290683"><ele>75.0</ele><time>2026-03-29T15:41:19.533Z</time></trkpt><trkpt lat="44.9294483" lon="0.9290517"><ele>76.0</ele><time>2026-03-29T15:41:20.532Z</time></trkpt><trkpt lat="44.9293617" lon="0.9290333"><ele>76.0</ele><time>2026-03-29T15:41:21.532Z</time></trkpt><trkpt lat="44.9292817" lon="0.9289967"><ele>76.0</ele><time>2026-03-29T15:41:22.533Z</time></trkpt><trkpt lat="44.9292133" lon="0.9289483"><ele>76.0</ele><time>2026-03-29T15:41:23.533Z</time></trkpt><trkpt lat="44.9291617" lon="0.9288867"><ele>76.0</ele><time>2026-03-29T15:41:24.532Z</time></trkpt><trkpt lat="44.929055" lon="0.9286667"><ele>76.0</ele><time>2026-03-29T15:41:27.533Z</time></trkpt><trkpt lat="44.92901" lon="0.9285917"><ele>76.28571428571428</ele><time>2026-03-29T15:41:28.533Z</time></trkpt><trkpt lat="44.92895" lon="0.9285167"><ele>76.57142857142858</ele><time>2026-03-29T15:41:29.533Z</time></trkpt><trkpt lat="44.9289033" lon="0.9284283"><ele>76.85714285714286</ele><time>2026-03-29T15:41:30.533Z</time></trkpt><trkpt lat="44.9288717" lon="0.928345"><ele>77.14285714285714</ele><time>2026-03-29T15:41:31.532Z</time></trkpt><trkpt lat="44.928845" lon="0.9282583"><ele>77.42857142857142</ele><time>2026-03-29T15:41:32.533Z</time></trkpt><trkpt lat="44.928805" lon="0.9281817"><ele>77.71428571428572</ele><time>2026-03-29T15:41:33.533Z</time></trkpt><trkpt lat="44.9287567" lon="0.928095"><ele>78.0</ele><time>2026-03-29T15:41:34.533Z</time></trkpt><trkpt lat="44.9286983" lon="0.9280017"><ele>76.83333333333333</ele><time>2026-03-29T15:41:35.532Z</time></trkpt><trkpt lat="44.9286383" lon="0.9279133"><ele>75.66666666666667</ele><time>2026-03-29T15:41:36.532Z</time></trkpt><trkpt lat="44.9285833" lon="0.9278467"><ele>74.5</ele><time>2026-03-29T15:41:37.532Z</time></trkpt><trkpt lat="44.928535" lon="0.9277817"><ele>73.33333333333334</ele><time>2026-03-29T15:41:38.533Z</time></trkpt><trkpt lat="44.9284517" lon="0.92769"><ele>72.16666666666667</ele><time>2026-03-29T15:41:40.533Z</time></trkpt><trkpt lat="44.9283583" lon="0.9276017"><ele>71.0</ele><time>2026-03-29T15:41:56.533Z</time></trkpt><trkpt lat="44.9282683" lon="0.927635"><ele>69.5</ele><time>2026-03-29T15:42:08.533Z</time></trkpt><trkpt lat="44.928215" lon="0.9277383"><ele>68.0</ele><time>2026-03-29T15:42:09.532Z</time></trkpt><trkpt lat="44.9281583" lon="0.927885"><ele>66.5</ele><time>2026-03-29T15:42:10.532Z</time></trkpt><trkpt lat="44.928095" lon="0.928085"><ele>65.0</ele><time>2026-03-29T15:42:11.533Z</time></trkpt><trkpt lat="44.92802" lon="0.9283033"><ele>67.0</ele><time>2026-03-29T15:42:12.533Z</time></trkpt><trkpt lat="44.927945" lon="0.9284717"><ele>69.0</ele><time>2026-03-29T15:42:13.533Z</time></trkpt><trkpt lat="44.9278633" lon="0.9286167"><ele>71.0</ele><time>2026-03-29T15:42:14.533Z</time></trkpt><trkpt lat="44.92777" lon="0.928765"><ele>73.0</ele><time>2026-03-29T15:42:15.532Z</time></trkpt><trkpt lat="44.92766" lon="0.92888"><ele>72.0</ele><time>2026-03-29T15:42:16.533Z</time></trkpt><trkpt lat="44.9275567" lon="0.928975"><ele>71.0</ele><time>2026-03-29T15:42:17.533Z</time></trkpt><trkpt lat="44.9274517" lon="0.9290383"><ele>70.0</ele><time>2026-03-29T15:42:18.532Z</time></trkpt><trkpt lat="44.9273333" lon="0.92909"><ele>69.0</ele><time>2026-03-29T15:42:19.532Z</time></trkpt><trkpt lat="44.92722" lon="0.9291367"><ele>69.0</ele><time>2026-03-29T15:42:20.532Z</time></trkpt><trkpt lat="44.927115" lon="0.929155"><ele>69.0</ele><time>2026-03-29T15:42:21.532Z</time></trkpt><trkpt lat="44.927" lon="0.9291567"><ele>69.0</ele><time>2026-03-29T15:42:22.532Z</time></trkpt><trkpt lat="44.9268767" lon="0.9291483"><ele>69.0</ele><time>2026-03-29T15:42:23.533Z</time></trkpt><trkpt lat="44.92674" lon="0.92912"><ele>68.75</ele><time>2026-03-29T15:42:24.532Z</time></trkpt><trkpt lat="44.9265933" lon="0.92906"><ele>68.5</ele><time>2026-03-29T15:42:25.533Z</time></trkpt><trkpt lat="44.9264583" lon="0.929015"><ele>68.25</ele><time>2026-03-29T15:42:26.532Z</time></trkpt><trkpt lat="44.926335" lon="0.928965"><ele>68.0</ele><time>2026-03-29T15:42:27.533Z</time></trkpt><trkpt lat="44.9262083" lon="0.9289167"><ele>68.0</ele><time>2026-03-29T15:42:28.533Z</time></trkpt><trkpt lat="44.9260683" lon="0.9288867"><ele>68.0</ele><time>2026-03-29T15:42:29.532Z</time></trkpt><trkpt lat="44.92594" lon="0.9288433"><ele>68.0</ele><time>2026-03-29T15:42:30.532Z</time></trkpt><trkpt lat="44.9258117" lon="0.9287917"><ele>68.0</ele><time>2026-03-29T15:42:31.532Z</time></trkpt><trkpt lat="44.9256767" lon="0.9287483"><ele>69.0</ele><time>2026-03-29T15:42:32.533Z</time></trkpt><trkpt lat="44.92555" lon="0.9286917"><ele>70.0</ele><time>2026-03-29T15:42:33.533Z</time></trkpt><trkpt lat="44.9254033" lon="0.9286517"><ele>71.0</ele><time>2026-03-29T15:42:34.532Z</time></trkpt><trkpt lat="44.9252617" lon="0.928615"><ele>72.0</ele><time>2026-03-29T15:42:35.533Z</time></trkpt><trkpt lat="44.925125" lon="0.92856"><ele>74.25</ele><time>2026-03-29T15:42:36.533Z</time></trkpt><trkpt lat="44.925" lon="0.928515"><ele>76.5</ele><time>2026-03-29T15:42:37.532Z</time></trkpt><trkpt lat="44.9248617" lon="0.9284817"><ele>78.75</ele><time>2026-03-29T15:42:38.532Z</time></trkpt><trkpt lat="44.9247417" lon="0.9284483"><ele>81.0</ele><time>2026-03-29T15:42:39.533Z</time></trkpt><trkpt lat="44.92462" lon="0.9284183"><ele>78.0</ele><time>2026-03-29T15:42:40.533Z</time></trkpt><trkpt lat="44.9245017" lon="0.92838"><ele>75.0</ele><time>2026-03-29T15:42:41.532Z</time></trkpt><trkpt lat="44.9243833" lon="0.9283517"><ele>72.0</ele><time>2026-03-29T15:42:42.533Z</time></trkpt><trkpt lat="44.9242717" lon="0.92831"><ele>69.0</ele><time>2026-03-29T15:42:43.532Z</time></trkpt><trkpt lat="44.9241517" lon="0.9282733"><ele>69.0</ele><time>2026-03-29T15:42:44.533Z</time></trkpt><trkpt lat="44.9240283" lon="0.9282433"><ele>69.0</ele><time>2026-03-29T15:42:45.532Z</time></trkpt><trkpt lat="44.9238967" lon="0.9281917"><ele>69.0</ele><time>2026-03-29T15:42:46.533Z</time></trkpt><trkpt lat="44.9237767" lon="0.9281517"><ele>69.0</ele><time>2026-03-29T15:42:47.533Z</time></trkpt><trkpt lat="44.9236633" lon="0.92811"><ele>69.0</ele><time>2026-03-29T15:42:48.533Z</time></trkpt><trkpt lat="44.9235483" lon="0.9280833"><ele>69.0</ele><time>2026-03-29T15:42:49.533Z</time></trkpt><trkpt lat="44.92344" lon="0.928065"><ele>69.0</ele><time>2026-03-29T15:42:50.532Z</time></trkpt><trkpt lat="44.92332" lon="0.92803"><ele>69.0</ele><time>2026-03-29T15:42:51.533Z</time></trkpt><trkpt lat="44.9232067" lon="0.9279867"><ele>70.0</ele><time>2026-03-29T15:42:52.533Z</time></trkpt><trkpt lat="44.9230917" lon="0.9279467"><ele>71.0</ele><time>2026-03-29T15:42:53.532Z</time></trkpt><trkpt lat="44.922985" lon="0.9279083"><ele>72.0</ele><time>2026-03-29T15:42:54.532Z</time></trkpt><trkpt lat="44.92288" lon="0.9278483"><ele>73.0</ele><time>2026-03-29T15:42:55.532Z</time></trkpt><trkpt lat="44.9227667" lon="0.9277967"><ele>73.0</ele><time>2026-03-29T15:42:56.532Z</time></trkpt><trkpt lat="44.922645" lon="0.92776"><ele>73.0</ele><time>2026-03-29T15:42:57.533Z</time></trkpt><trkpt lat="44.9225417" lon="0.9277217"><ele>73.0</ele><time>2026-03-29T15:42:58.533Z</time></trkpt><trkpt lat="44.9224467" lon="0.927695"><ele>73.0</ele><time>2026-03-29T15:42:59.533Z</time></trkpt><trkpt lat="44.9223667" lon="0.9276583"><ele>73.0</ele><time>2026-03-29T15:43:00.532Z</time></trkpt><trkpt lat="44.9222967" lon="0.92764"><ele>73.33333333333333</ele><time>2026-03-29T15:43:01.532Z</time></trkpt><trkpt lat="44.9222317" lon="0.9276117"><ele>73.66666666666666</ele><time>2026-03-29T15:43:02.533Z</time></trkpt><trkpt lat="44.9221267" lon="0.9275367"><ele>74.0</ele><time>2026-03-29T15:43:04.532Z</time></trkpt><trkpt lat="44.922085" lon="0.92746"><ele>74.33333333333333</ele><time>2026-03-29T15:43:05.532Z</time></trkpt><trkpt lat="44.922045" lon="0.92735"><ele>74.66666666666667</ele><time>2026-03-29T15:43:06.533Z</time></trkpt><trkpt lat="44.922035" lon="0.92724"><ele>75.0</ele><time>2026-03-29T15:43:07.532Z</time></trkpt><trkpt lat="44.922085" lon="0.9270833"><ele>72.6</ele><time>2026-03-29T15:43:08.533Z</time></trkpt><trkpt lat="44.92213" lon="0.9269317"><ele>70.2</ele><time>2026-03-29T15:43:09.533Z</time></trkpt><trkpt lat="44.9221617" lon="0.9267933"><ele>67.8</ele><time>2026-03-29T15:43:10.532Z</time></trkpt><trkpt lat="44.9221917" lon="0.9266733"><ele>65.4</ele><time>2026-03-29T15:43:11.533Z</time></trkpt><trkpt lat="44.922215" lon="0.9265767"><ele>63.0</ele><time>2026-03-29T15:43:12.532Z</time></trkpt><trkpt lat="44.922235" lon="0.9264817"><ele>62.599999999999994</ele><time>2026-03-29T15:43:13.533Z</time></trkpt><trkpt lat="44.9222433" lon="0.92639"><ele>62.199999999999996</ele><time>2026-03-29T15:43:14.532Z</time></trkpt><trkpt lat="44.9221467" lon="0.9262483"><ele>61.8</ele><time>2026-03-29T15:43:16.533Z</time></trkpt><trkpt lat="44.9220417" lon="0.9262067"><ele>61.4</ele><time>2026-03-29T15:43:17.532Z</time></trkpt><trkpt lat="44.9219333" lon="0.9261783"><ele>61.0</ele><time>2026-03-29T15:43:18.532Z</time></trkpt><trkpt lat="44.9218167" lon="0.9261383"><ele>61.0</ele><time>2026-03-29T15:43:19.532Z</time></trkpt><trkpt lat="44.9217033" lon="0.9261"><ele>61.0</ele><time>2026-03-29T15:43:20.532Z</time></trkpt><trkpt lat="44.92159" lon="0.92606"><ele>61.0</ele><time>2026-03-29T15:43:21.533Z</time></trkpt><trkpt lat="44.921475" lon="0.92602"><ele>61.0</ele><time>2026-03-29T15:43:22.533Z</time></trkpt><trkpt lat="44.92136" lon="0.925975"><ele>61.0</ele><time>2026-03-29T15:43:23.533Z</time></trkpt><trkpt lat="44.921235" lon="0.9259417"><ele>61.0</ele><time>2026-03-29T15:43:24.533Z</time></trkpt><trkpt lat="44.9211217" lon="0.9258983"><ele>61.0</ele><time>2026-03-29T15:43:25.532Z</time></trkpt><trkpt lat="44.92101" lon="0.925845"><ele>61.0</ele><time>2026-03-29T15:43:26.533Z</time></trkpt><trkpt lat="44.9208917" lon="0.9257917"><ele>60.599999999999994</ele><time>2026-03-29T15:43:27.532Z</time></trkpt><trkpt lat="44.92078" lon="0.9257767"><ele>60.199999999999996</ele><time>2026-03-29T15:43:28.533Z</time></trkpt><trkpt lat="44.9206783" lon="0.925755"><ele>59.800000000000004</ele><time>2026-03-29T15:43:29.532Z</time></trkpt><trkpt lat="44.9205717" lon="0.9257317"><ele>59.400000000000006</ele><time>2026-03-29T15:43:30.533Z</time></trkpt><trkpt lat="44.920465" lon="0.9257067"><ele>59.0</ele><time>2026-03-29T15:43:31.532Z</time></trkpt><trkpt lat="44.9203717" lon="0.925675"><ele>59.0</ele><time>2026-03-29T15:43:32.533Z</time></trkpt><trkpt lat="44.9202783" lon="0.9256583"><ele>59.00000000000001</ele><time>2026-03-29T15:43:33.532Z</time></trkpt><trkpt lat="44.9201917" lon="0.9256433"><ele>59.00000000000001</ele><time>2026-03-29T15:43:34.532Z</time></trkpt><trkpt lat="44.9200967" lon="0.92562"><ele>59.0</ele><time>2026-03-29T15:43:35.533Z</time></trkpt><trkpt lat="44.9200083" lon="0.9256"><ele>59.0</ele><time>2026-03-29T15:43:36.533Z</time></trkpt><trkpt lat="44.9199233" lon="0.9255683"><ele>58.800000000000004</ele><time>2026-03-29T15:43:37.532Z</time></trkpt><trkpt lat="44.9198333" lon="0.925555"><ele>58.60000000000001</ele><time>2026-03-29T15:43:38.533Z</time></trkpt><trkpt lat="44.919745" lon="0.92553"><ele>58.4</ele><time>2026-03-29T15:43:39.532Z</time></trkpt><trkpt lat="44.9196483" lon="0.9255217"><ele>58.2</ele><time>2026-03-29T15:43:40.532Z</time></trkpt><trkpt lat="44.9195567" lon="0.9255"><ele>58.0</ele><time>2026-03-29T15:43:41.533Z</time></trkpt><trkpt lat="44.919475" lon="0.9254517"><ele>57.99999999999999</ele><time>2026-03-29T15:43:42.532Z</time></trkpt><trkpt lat="44.9194017" lon="0.92537"><ele>58.0</ele><time>2026-03-29T15:43:43.533Z</time></trkpt><trkpt lat="44.9193267" lon="0.9252833"><ele>58.0</ele><time>2026-03-29T15:43:44.533Z</time></trkpt><trkpt lat="44.9192667" lon="0.9252083"><ele>58.0</ele><time>2026-03-29T15:43:45.532Z</time></trkpt><trkpt lat="44.9192233" lon="0.9251283"><ele>57.99999999999999</ele><time>2026-03-29T15:43:46.532Z</time></trkpt><trkpt lat="44.91918" lon="0.9250567"><ele>58.0</ele><time>2026-03-29T15:43:47.533Z</time></trkpt><trkpt lat="44.9191333" lon="0.92498"><ele>58.166666666666664</ele><time>2026-03-29T15:43:48.532Z</time></trkpt><trkpt lat="44.9190733" lon="0.9249317"><ele>58.33333333333333</ele><time>2026-03-29T15:43:49.533Z</time></trkpt><trkpt lat="44.9189983" lon="0.9249117"><ele>58.5</ele><time>2026-03-29T15:43:50.533Z</time></trkpt><trkpt lat="44.918935" lon="0.924915"><ele>58.66666666666667</ele><time>2026-03-29T15:43:51.532Z</time></trkpt><trkpt lat="44.9188683" lon="0.9249467"><ele>58.833333333333336</ele><time>2026-03-29T15:43:52.532Z</time></trkpt><trkpt lat="44.91879" lon="0.92501"><ele>59.0</ele><time>2026-03-29T15:43:53.532Z</time></trkpt><trkpt lat="44.9187217" lon="0.92509"><ele>58.6</ele><time>2026-03-29T15:43:54.533Z</time></trkpt><trkpt lat="44.91867" lon="0.9252033"><ele>58.2</ele><time>2026-03-29T15:43:55.532Z</time></trkpt><trkpt lat="44.91862" lon="0.9253133"><ele>57.800000000000004</ele><time>2026-03-29T15:43:56.532Z</time></trkpt><trkpt lat="44.918585" lon="0.9254283"><ele>57.400000000000006</ele><time>2026-03-29T15:43:57.532Z</time></trkpt><trkpt lat="44.918555" lon="0.9255617"><ele>57.0</ele><time>2026-03-29T15:43:58.532Z</time></trkpt><trkpt lat="44.91852" lon="0.9256933"><ele>57.0</ele><time>2026-03-29T15:43:59.532Z</time></trkpt><trkpt lat="44.9184967" lon="0.9258333"><ele>57.0</ele><time>2026-03-29T15:44:00.533Z</time></trkpt><trkpt lat="44.91847" lon="0.9259633"><ele>57.0</ele><time>2026-03-29T15:44:01.533Z</time></trkpt><trkpt lat="44.9184317" lon="0.9260817"><ele>57.0</ele><time>2026-03-29T15:44:02.532Z</time></trkpt><trkpt lat="44.918395" lon="0.9261967"><ele>57.0</ele><time>2026-03-29T15:44:03.533Z</time></trkpt><trkpt lat="44.9183633" lon="0.9263167"><ele>57.5</ele><time>2026-03-29T15:44:04.533Z</time></trkpt><trkpt lat="44.9183267" lon="0.9264367"><ele>58.0</ele><time>2026-03-29T15:44:05.533Z</time></trkpt><trkpt lat="44.9182917" lon="0.926545"><ele>58.5</ele><time>2026-03-29T15:44:06.532Z</time></trkpt><trkpt lat="44.9182733" lon="0.9266383"><ele>59.0</ele><time>2026-03-29T15:44:07.531Z</time></trkpt><trkpt lat="44.918265" lon="0.92674"><ele>59.5</ele><time>2026-03-29T15:44:08.532Z</time></trkpt><trkpt lat="44.9182633" lon="0.9268417"><ele>60.0</ele><time>2026-03-29T15:44:09.532Z</time></trkpt><trkpt lat="44.9182517" lon="0.92693"><ele>60.8</ele><time>2026-03-29T15:44:10.532Z</time></trkpt><trkpt lat="44.9181917" lon="0.9270617"><ele>61.6</ele><time>2026-03-29T15:44:12.532Z</time></trkpt><trkpt lat="44.9180917" lon="0.92709"><ele>62.400000000000006</ele><time>2026-03-29T15:44:14.531Z</time></trkpt><trkpt lat="44.91802" lon="0.927065"><ele>63.2</ele><time>2026-03-29T15:44:15.532Z</time></trkpt><trkpt lat="44.917935" lon="0.9270117"><ele>64.0</ele><time>2026-03-29T15:44:16.532Z</time></trkpt><trkpt lat="44.9178317" lon="0.926945"><ele>64.0</ele><time>2026-03-29T15:44:17.532Z</time></trkpt><trkpt lat="44.9177283" lon="0.9268883"><ele>64.0</ele><time>2026-03-29T15:44:18.532Z</time></trkpt><trkpt lat="44.9176283" lon="0.92683"><ele>64.0</ele><time>2026-03-29T15:44:19.532Z</time></trkpt><trkpt lat="44.9175283" lon="0.9267767"><ele>64.0</ele><time>2026-03-29T15:44:20.531Z</time></trkpt><trkpt lat="44.9174333" lon="0.926725"><ele>64.0</ele><time>2026-03-29T15:44:21.532Z</time></trkpt><trkpt lat="44.9173467" lon="0.9266783"><ele>63.0</ele><time>2026-03-29T15:44:22.532Z</time></trkpt><trkpt lat="44.91726" lon="0.9266333"><ele>62.00000000000001</ele><time>2026-03-29T15:44:23.532Z</time></trkpt><trkpt lat="44.9171767" lon="0.9265917"><ele>61.00000000000001</ele><time>2026-03-29T15:44:24.532Z</time></trkpt><trkpt lat="44.9170867" lon="0.9265417"><ele>60.0</ele><time>2026-03-29T15:44:25.531Z</time></trkpt><trkpt lat="44.916995" lon="0.9264917"><ele>59.0</ele><time>2026-03-29T15:44:26.532Z</time></trkpt><trkpt lat="44.9169033" lon="0.9264567"><ele>59.0</ele><time>2026-03-29T15:44:27.532Z</time></trkpt><trkpt lat="44.9168117" lon="0.926405"><ele>59.00000000000001</ele><time>2026-03-29T15:44:28.532Z</time></trkpt><trkpt lat="44.916715" lon="0.9263483"><ele>59.00000000000001</ele><time>2026-03-29T15:44:29.532Z</time></trkpt><trkpt lat="44.91661" lon="0.92628"><ele>59.0</ele><time>2026-03-29T15:44:30.531Z</time></trkpt><trkpt lat="44.9165" lon="0.9262217"><ele>59.0</ele><time>2026-03-29T15:44:31.532Z</time></trkpt><trkpt lat="44.9163883" lon="0.9261617"><ele>59.0</ele><time>2026-03-29T15:44:32.532Z</time></trkpt><trkpt lat="44.9162717" lon="0.9260967"><ele>59.0</ele><time>2026-03-29T15:44:33.532Z</time></trkpt><trkpt lat="44.916155" lon="0.9260333"><ele>59.0</ele><time>2026-03-29T15:44:34.532Z</time></trkpt><trkpt lat="44.916055" lon="0.925965"><ele>59.0</ele><time>2026-03-29T15:44:35.531Z</time></trkpt><trkpt lat="44.915955" lon="0.92589"><ele>58.6</ele><time>2026-03-29T15:44:36.532Z</time></trkpt><trkpt lat="44.91585" lon="0.92585"><ele>58.2</ele><time>2026-03-29T15:44:37.531Z</time></trkpt><trkpt lat="44.9157433" lon="0.9258133"><ele>57.800000000000004</ele><time>2026-03-29T15:44:38.531Z</time></trkpt><trkpt lat="44.9156533" lon="0.9257617"><ele>57.400000000000006</ele><time>2026-03-29T15:44:39.532Z</time></trkpt><trkpt lat="44.9155483" lon="0.9257033"><ele>57.0</ele><time>2026-03-29T15:44:40.531Z</time></trkpt><trkpt lat="44.9154583" lon="0.9256417"><ele>57.0</ele><time>2026-03-29T15:44:41.531Z</time></trkpt><trkpt lat="44.915355" lon="0.9255933"><ele>57.0</ele><time>2026-03-29T15:44:42.531Z</time></trkpt><trkpt lat="44.915265" lon="0.92553"><ele>57.0</ele><time>2026-03-29T15:44:43.531Z</time></trkpt><trkpt lat="44.9151717" lon="0.9254767"><ele>57.0</ele><time>2026-03-29T15:44:44.531Z</time></trkpt><trkpt lat="44.9150667" lon="0.92544"><ele>57.0</ele><time>2026-03-29T15:44:45.531Z</time></trkpt><trkpt lat="44.9149867" lon="0.9253967"><ele>56.8</ele><time>2026-03-29T15:44:46.531Z</time></trkpt><trkpt lat="44.9148883" lon="0.9253483"><ele>56.6</ele><time>2026-03-29T15:44:47.531Z</time></trkpt><trkpt lat="44.914785" lon="0.9252917"><ele>56.39999999999999</ele><time>2026-03-29T15:44:48.531Z</time></trkpt><trkpt lat="44.9146833" lon="0.925245"><ele>56.199999999999996</ele><time>2026-03-29T15:44:49.532Z</time></trkpt><trkpt lat="44.9145867" lon="0.9251933"><ele>56.0</ele><time>2026-03-29T15:44:50.532Z</time></trkpt><trkpt lat="44.9144883" lon="0.925145"><ele>56.0</ele><time>2026-03-29T15:44:51.532Z</time></trkpt><trkpt lat="44.9143867" lon="0.9250983"><ele>55.99999999999999</ele><time>2026-03-29T15:44:52.532Z</time></trkpt><trkpt lat="44.91429" lon="0.9250383"><ele>55.99999999999999</ele><time>2026-03-29T15:44:53.531Z</time></trkpt><trkpt lat="44.9141917" lon="0.924995"><ele>56.0</ele><time>2026-03-29T15:44:54.531Z</time></trkpt><trkpt lat="44.9140933" lon="0.9249517"><ele>56.0</ele><time>2026-03-29T15:44:55.531Z</time></trkpt><trkpt lat="44.9139933" lon="0.924905"><ele>56.199999999999996</ele><time>2026-03-29T15:44:56.531Z</time></trkpt><trkpt lat="44.9138967" lon="0.9248533"><ele>56.39999999999999</ele><time>2026-03-29T15:44:57.532Z</time></trkpt><trkpt lat="44.9138" lon="0.9248"><ele>56.6</ele><time>2026-03-29T15:44:58.531Z</time></trkpt><trkpt lat="44.9137217" lon="0.9247467"><ele>56.8</ele><time>2026-03-29T15:44:59.531Z</time></trkpt><trkpt lat="44.9136333" lon="0.9247033"><ele>57.0</ele><time>2026-03-29T15:45:00.532Z</time></trkpt><trkpt lat="44.9135483" lon="0.9246733"><ele>57.0</ele><time>2026-03-29T15:45:01.532Z</time></trkpt><trkpt lat="44.9134683" lon="0.9246367"><ele>57.0</ele><time>2026-03-29T15:45:02.532Z</time></trkpt><trkpt lat="44.9133967" lon="0.9246"><ele>57.0</ele><time>2026-03-29T15:45:03.531Z</time></trkpt><trkpt lat="44.9133317" lon="0.9245717"><ele>57.0</ele><time>2026-03-29T15:45:04.531Z</time></trkpt><trkpt lat="44.913235" lon="0.9246"><ele>57.0</ele><time>2026-03-29T15:45:06.531Z</time></trkpt><trkpt lat="44.9131633" lon="0.924755"><ele>57.0</ele><time>2026-03-29T15:45:08.532Z</time></trkpt><trkpt lat="44.91313" lon="0.924865"><ele>57.0</ele><time>2026-03-29T15:45:09.532Z</time></trkpt><trkpt lat="44.913095" lon="0.925015"><ele>57.0</ele><time>2026-03-29T15:45:10.532Z</time></trkpt><trkpt lat="44.9130583" lon="0.925195"><ele>57.0</ele><time>2026-03-29T15:45:11.532Z</time></trkpt><trkpt lat="44.9130283" lon="0.9253617"><ele>57.25</ele><time>2026-03-29T15:45:12.532Z</time></trkpt><trkpt lat="44.9129883" lon="0.925525"><ele>57.5</ele><time>2026-03-29T15:45:13.532Z</time></trkpt><trkpt lat="44.91295" lon="0.92569"><ele>57.75</ele><time>2026-03-29T15:45:14.531Z</time></trkpt><trkpt lat="44.9129133" lon="0.9258433"><ele>58.0</ele><time>2026-03-29T15:45:15.532Z</time></trkpt><trkpt lat="44.9128717" lon="0.9260017"><ele>58.25</ele><time>2026-03-29T15:45:16.532Z</time></trkpt><trkpt lat="44.9128133" lon="0.9261567"><ele>58.5</ele><time>2026-03-29T15:45:17.532Z</time></trkpt><trkpt lat="44.9127717" lon="0.926305"><ele>58.75</ele><time>2026-03-29T15:45:18.531Z</time></trkpt><trkpt lat="44.9127083" lon="0.9264367"><ele>59.0</ele><time>2026-03-29T15:45:19.532Z</time></trkpt><trkpt lat="44.9126417" lon="0.92658"><ele>59.0</ele><time>2026-03-29T15:45:20.532Z</time></trkpt><trkpt lat="44.9125333" lon="0.9267"><ele>59.0</ele><time>2026-03-29T15:45:21.532Z</time></trkpt><trkpt lat="44.9124367" lon="0.9268083"><ele>59.0</ele><time>2026-03-29T15:45:22.532Z</time></trkpt><trkpt lat="44.9123367" lon="0.926925"><ele>59.0</ele><time>2026-03-29T15:45:23.531Z</time></trkpt><trkpt lat="44.91224" lon="0.9270483"><ele>59.0</ele><time>2026-03-29T15:45:24.531Z</time></trkpt><trkpt lat="44.9121417" lon="0.927175"><ele>59.0</ele><time>2026-03-29T15:45:25.532Z</time></trkpt><trkpt lat="44.912045" lon="0.9273067"><ele>59.0</ele><time>2026-03-29T15:45:26.531Z</time></trkpt><trkpt lat="44.911955" lon="0.92742"><ele>59.0</ele><time>2026-03-29T15:45:27.531Z</time></trkpt><trkpt lat="44.911865" lon="0.9275533"><ele>59.0</ele><time>2026-03-29T15:45:28.531Z</time></trkpt><trkpt lat="44.9117533" lon="0.9276683"><ele>59.0</ele><time>2026-03-29T15:45:29.531Z</time></trkpt><trkpt lat="44.9116467" lon="0.9277867"><ele>59.0</ele><time>2026-03-29T15:45:30.532Z</time></trkpt><trkpt lat="44.9115317" lon="0.927915"><ele>59.0</ele><time>2026-03-29T15:45:31.532Z</time></trkpt><trkpt lat="44.9114283" lon="0.9280517"><ele>59.0</ele><time>2026-03-29T15:45:32.531Z</time></trkpt><trkpt lat="44.9113233" lon="0.92817"><ele>59.0</ele><time>2026-03-29T15:45:33.531Z</time></trkpt><trkpt lat="44.9112233" lon="0.9282933"><ele>59.0</ele><time>2026-03-29T15:45:34.532Z</time></trkpt><trkpt lat="44.9111183" lon="0.92843"><ele>59.0</ele><time>2026-03-29T15:45:35.531Z</time></trkpt><trkpt lat="44.9110217" lon="0.9285667"><ele>58.75</ele><time>2026-03-29T15:45:36.532Z</time></trkpt><trkpt lat="44.91091" lon="0.928685"><ele>58.5</ele><time>2026-03-29T15:45:37.532Z</time></trkpt><trkpt lat="44.9107933" lon="0.9288"><ele>58.25</ele><time>2026-03-29T15:45:38.531Z</time></trkpt><trkpt lat="44.9106817" lon="0.9289167"><ele>58.0</ele><time>2026-03-29T15:45:39.532Z</time></trkpt><trkpt lat="44.9105717" lon="0.9290333"><ele>58.0</ele><time>2026-03-29T15:45:40.532Z</time></trkpt><trkpt lat="44.910455" lon="0.9291567"><ele>58.0</ele><time>2026-03-29T15:45:41.532Z</time></trkpt><trkpt lat="44.9103333" lon="0.9292617"><ele>58.0</ele><time>2026-03-29T15:45:42.531Z</time></trkpt><trkpt lat="44.9102233" lon="0.9293717"><ele>58.0</ele><time>2026-03-29T15:45:43.531Z</time></trkpt><trkpt lat="44.9101033" lon="0.9294783"><ele>58.5</ele><time>2026-03-29T15:45:44.531Z</time></trkpt><trkpt lat="44.909985" lon="0.9295767"><ele>59.0</ele><time>2026-03-29T15:45:45.531Z</time></trkpt><trkpt lat="44.9098667" lon="0.9296733"><ele>59.5</ele><time>2026-03-29T15:45:46.531Z</time></trkpt><trkpt lat="44.9097417" lon="0.929755"><ele>60.0</ele><time>2026-03-29T15:45:47.531Z</time></trkpt><trkpt lat="44.9096217" lon="0.929805"><ele>60.0</ele><time>2026-03-29T15:45:48.532Z</time></trkpt><trkpt lat="44.9094917" lon="0.92988"><ele>60.0</ele><time>2026-03-29T15:45:49.532Z</time></trkpt><trkpt lat="44.9093683" lon="0.9299467"><ele>60.0</ele><time>2026-03-29T15:45:50.532Z</time></trkpt><trkpt lat="44.9092433" lon="0.9300167"><ele>60.0</ele><time>2026-03-29T15:45:51.531Z</time></trkpt><trkpt lat="44.90912" lon="0.9300833"><ele>59.75</ele><time>2026-03-29T15:45:52.532Z</time></trkpt><trkpt lat="44.909" lon="0.93015"><ele>59.5</ele><time>2026-03-29T15:45:53.531Z</time></trkpt><trkpt lat="44.9088833" lon="0.9302133"><ele>59.25</ele><time>2026-03-29T15:45:54.531Z</time></trkpt><trkpt lat="44.90876" lon="0.9302817"><ele>59.0</ele><time>2026-03-29T15:45:55.532Z</time></trkpt><trkpt lat="44.9086317" lon="0.930345"><ele>59.0</ele><time>2026-03-29T15:45:56.531Z</time></trkpt><trkpt lat="44.9085" lon="0.9303867"><ele>59.0</ele><time>2026-03-29T15:45:57.531Z</time></trkpt><trkpt lat="44.9083717" lon="0.9304317"><ele>59.0</ele><time>2026-03-29T15:45:58.532Z</time></trkpt><trkpt lat="44.9082467" lon="0.930485"><ele>59.0</ele><time>2026-03-29T15:45:59.531Z</time></trkpt><trkpt lat="44.9081217" lon="0.9305417"><ele>59.5</ele><time>2026-03-29T15:46:00.531Z</time></trkpt><trkpt lat="44.9080033" lon="0.9306133"><ele>60.0</ele><time>2026-03-29T15:46:01.532Z</time></trkpt><trkpt lat="44.907875" lon="0.9306683"><ele>60.5</ele><time>2026-03-29T15:46:02.532Z</time></trkpt><trkpt lat="44.9077433" lon="0.9307367"><ele>61.0</ele><time>2026-03-29T15:46:03.532Z</time></trkpt><trkpt lat="44.9076067" lon="0.9307983"><ele>60.75</ele><time>2026-03-29T15:46:04.532Z</time></trkpt><trkpt lat="44.907475" lon="0.9308617"><ele>60.5</ele><time>2026-03-29T15:46:05.531Z</time></trkpt><trkpt lat="44.9073433" lon="0.93092"><ele>60.25</ele><time>2026-03-29T15:46:06.532Z</time></trkpt><trkpt lat="44.9072133" lon="0.9309783"><ele>60.0</ele><time>2026-03-29T15:46:07.531Z</time></trkpt><trkpt lat="44.90708" lon="0.9310433"><ele>60.0</ele><time>2026-03-29T15:46:08.532Z</time></trkpt><trkpt lat="44.9069533" lon="0.931105"><ele>60.0</ele><time>2026-03-29T15:46:09.532Z</time></trkpt><trkpt lat="44.9068217" lon="0.9311717"><ele>60.0</ele><time>2026-03-29T15:46:10.531Z</time></trkpt><trkpt lat="44.9067033" lon="0.9312483"><ele>60.0</ele><time>2026-03-29T15:46:11.531Z</time></trkpt><trkpt lat="44.9065817" lon="0.931325"><ele>60.0</ele><time>2026-03-29T15:46:12.531Z</time></trkpt><trkpt lat="44.9064533" lon="0.93142"><ele>60.0</ele><time>2026-03-29T15:46:13.532Z</time></trkpt><trkpt lat="44.9063283" lon="0.9315233"><ele>60.0</ele><time>2026-03-29T15:46:14.532Z</time></trkpt><trkpt lat="44.9062083" lon="0.9316017"><ele>60.0</ele><time>2026-03-29T15:46:15.532Z</time></trkpt><trkpt lat="44.9060683" lon="0.93166"><ele>60.0</ele><time>2026-03-29T15:46:16.532Z</time></trkpt><trkpt lat="44.9059317" lon="0.9316933"><ele>60.0</ele><time>2026-03-29T15:46:17.531Z</time></trkpt><trkpt lat="44.905795" lon="0.9316783"><ele>60.0</ele><time>2026-03-29T15:46:18.531Z</time></trkpt><trkpt lat="44.9056433" lon="0.9316683"><ele>60.0</ele><time>2026-03-29T15:46:19.532Z</time></trkpt><trkpt lat="44.9054917" lon="0.93165"><ele>61.0</ele><time>2026-03-29T15:46:20.532Z</time></trkpt><trkpt lat="44.9053417" lon="0.93164"><ele>62.0</ele><time>2026-03-29T15:46:21.532Z</time></trkpt><trkpt lat="44.9051883" lon="0.9316267"><ele>63.0</ele><time>2026-03-29T15:46:22.531Z</time></trkpt><trkpt lat="44.905035" lon="0.93161"><ele>64.0</ele><time>2026-03-29T15:46:23.531Z</time></trkpt><trkpt lat="44.9048983" lon="0.9315917"><ele>65.0</ele><time>2026-03-29T15:46:24.532Z</time></trkpt><trkpt lat="44.9047633" lon="0.9315817"><ele>66.0</ele><time>2026-03-29T15:46:25.531Z</time></trkpt><trkpt lat="44.90463" lon="0.9315967"><ele>67.0</ele><time>2026-03-29T15:46:26.531Z</time></trkpt><trkpt lat="44.90451" lon="0.9316217"><ele>67.0</ele><time>2026-03-29T15:46:27.532Z</time></trkpt><trkpt lat="44.9043833" lon="0.9316683"><ele>67.0</ele><time>2026-03-29T15:46:28.531Z</time></trkpt><trkpt lat="44.9042417" lon="0.9317167"><ele>67.0</ele><time>2026-03-29T15:46:29.532Z</time></trkpt><trkpt lat="44.9041233" lon="0.9317833"><ele>67.0</ele><time>2026-03-29T15:46:30.531Z</time></trkpt><trkpt lat="44.9040067" lon="0.93185"><ele>68.25</ele><time>2026-03-29T15:46:31.532Z</time></trkpt><trkpt lat="44.90389" lon="0.9319133"><ele>69.5</ele><time>2026-03-29T15:46:32.531Z</time></trkpt><trkpt lat="44.9037617" lon="0.9319683"><ele>70.75</ele><time>2026-03-29T15:46:33.532Z</time></trkpt><trkpt lat="44.9036383" lon="0.9320183"><ele>72.0</ele><time>2026-03-29T15:46:34.532Z</time></trkpt><trkpt lat="44.9035117" lon="0.9320833"><ele>72.25</ele><time>2026-03-29T15:46:35.532Z</time></trkpt><trkpt lat="44.903385" lon="0.9321567"><ele>72.5</ele><time>2026-03-29T15:46:36.532Z</time></trkpt><trkpt lat="44.903245" lon="0.93223"><ele>72.75</ele><time>2026-03-29T15:46:37.531Z</time></trkpt><trkpt lat="44.903095" lon="0.9323117"><ele>73.0</ele><time>2026-03-29T15:46:38.532Z</time></trkpt><trkpt lat="44.9029583" lon="0.9324"><ele>73.0</ele><time>2026-03-29T15:46:39.531Z</time></trkpt><trkpt lat="44.902825" lon="0.9324783"><ele>73.0</ele><time>2026-03-29T15:46:40.532Z</time></trkpt><trkpt lat="44.9026967" lon="0.93255"><ele>73.0</ele><time>2026-03-29T15:46:41.531Z</time></trkpt><trkpt lat="44.9025633" lon="0.9326233"><ele>73.0</ele><time>2026-03-29T15:46:42.531Z</time></trkpt><trkpt lat="44.9024383" lon="0.93271"><ele>73.5</ele><time>2026-03-29T15:46:43.531Z</time></trkpt><trkpt lat="44.9023167" lon="0.9327717"><ele>74.0</ele><time>2026-03-29T15:46:44.531Z</time></trkpt><trkpt lat="44.9021933" lon="0.9328483"><ele>74.5</ele><time>2026-03-29T15:46:45.532Z</time></trkpt><trkpt lat="44.9020617" lon="0.932935"><ele>75.0</ele><time>2026-03-29T15:46:46.532Z</time></trkpt><trkpt lat="44.9019383" lon="0.9330183"><ele>75.0</ele><time>2026-03-29T15:46:47.531Z</time></trkpt><trkpt lat="44.90183" lon="0.9330967"><ele>75.0</ele><time>2026-03-29T15:46:48.532Z</time></trkpt><trkpt lat="44.9017267" lon="0.933165"><ele>75.0</ele><time>2026-03-29T15:46:49.531Z</time></trkpt><trkpt lat="44.9016467" lon="0.9332117"><ele>75.0</ele><time>2026-03-29T15:46:50.531Z</time></trkpt><trkpt lat="44.90157" lon="0.9332517"><ele>75.0</ele><time>2026-03-29T15:46:51.532Z</time></trkpt><trkpt lat="44.901465" lon="0.9333067"><ele>75.33333333333333</ele><time>2026-03-29T15:46:53.532Z</time></trkpt><trkpt lat="44.901385" lon="0.9333717"><ele>75.66666666666667</ele><time>2026-03-29T15:46:55.532Z</time></trkpt><trkpt lat="44.9013333" lon="0.93349"><ele>76.0</ele><time>2026-03-29T15:46:57.531Z</time></trkpt><trkpt lat="44.90129" lon="0.9335733"><ele>76.33333333333334</ele><time>2026-03-29T15:46:58.532Z</time></trkpt><trkpt lat="44.9012383" lon="0.933655"><ele>76.66666666666667</ele><time>2026-03-29T15:46:59.531Z</time></trkpt><trkpt lat="44.9011783" lon="0.933745"><ele>77.0</ele><time>2026-03-29T15:47:00.531Z</time></trkpt><trkpt lat="44.9011017" lon="0.9338433"><ele>77.0</ele><time>2026-03-29T15:47:01.532Z</time></trkpt><trkpt lat="44.9010283" lon="0.93396"><ele>77.0</ele><time>2026-03-29T15:47:02.532Z</time></trkpt><trkpt lat="44.90095" lon="0.934085"><ele>77.0</ele><time>2026-03-29T15:47:03.531Z</time></trkpt><trkpt lat="44.9008817" lon="0.93424"><ele>77.0</ele><time>2026-03-29T15:47:04.532Z</time></trkpt><trkpt lat="44.9008167" lon="0.9343933"><ele>78.0</ele><time>2026-03-29T15:47:05.531Z</time></trkpt><trkpt lat="44.900745" lon="0.934535"><ele>79.0</ele><time>2026-03-29T15:47:06.532Z</time></trkpt><trkpt lat="44.900685" lon="0.9346833"><ele>80.0</ele><time>2026-03-29T15:47:07.532Z</time></trkpt><trkpt lat="44.9006233" lon="0.9348283"><ele>81.0</ele><time>2026-03-29T15:47:08.532Z</time></trkpt><trkpt lat="44.9005667" lon="0.9349533"><ele>80.83333333333333</ele><time>2026-03-29T15:47:09.531Z</time></trkpt><trkpt lat="44.900515" lon="0.9350717"><ele>80.66666666666667</ele><time>2026-03-29T15:47:10.531Z</time></trkpt><trkpt lat="44.9004683" lon="0.9351883"><ele>80.5</ele><time>2026-03-29T15:47:11.532Z</time></trkpt><trkpt lat="44.900415" lon="0.9352967"><ele>80.33333333333334</ele><time>2026-03-29T15:47:12.532Z</time></trkpt><trkpt lat="44.900375" lon="0.9353833"><ele>80.16666666666667</ele><time>2026-03-29T15:47:13.532Z</time></trkpt><trkpt lat="44.9003333" lon="0.9354733"><ele>80.0</ele><time>2026-03-29T15:47:14.531Z</time></trkpt><trkpt lat="44.9002883" lon="0.9355483"><ele>80.0</ele><time>2026-03-29T15:47:15.532Z</time></trkpt><trkpt lat="44.90025" lon="0.9356217"><ele>80.0</ele><time>2026-03-29T15:47:16.532Z</time></trkpt><trkpt lat="44.900165" lon="0.9356483"><ele>80.0</ele><time>2026-03-29T15:47:17.531Z</time></trkpt><trkpt lat="44.90009" lon="0.9356483"><ele>80.0</ele><time>2026-03-29T15:47:18.531Z</time></trkpt><trkpt lat="44.8999767" lon="0.9356333"><ele>80.0</ele><time>2026-03-29T15:47:19.532Z</time></trkpt><trkpt lat="44.8998717" lon="0.9356183"><ele>80.0</ele><time>2026-03-29T15:47:20.532Z</time></trkpt><trkpt lat="44.8997733" lon="0.9356183"><ele>79.6</ele><time>2026-03-29T15:47:21.532Z</time></trkpt><trkpt lat="44.8996717" lon="0.9356533"><ele>79.2</ele><time>2026-03-29T15:47:22.531Z</time></trkpt><trkpt lat="44.8995817" lon="0.9357"><ele>78.8</ele><time>2026-03-29T15:47:23.531Z</time></trkpt><trkpt lat="44.8995" lon="0.935765"><ele>78.4</ele><time>2026-03-29T15:47:24.531Z</time></trkpt><trkpt lat="44.899475" lon="0.9358917"><ele>78.0</ele><time>2026-03-29T15:47:25.532Z</time></trkpt><trkpt lat="44.8994517" lon="0.9360267"><ele>76.2</ele><time>2026-03-29T15:47:26.531Z</time></trkpt><trkpt lat="44.8994567" lon="0.9361633"><ele>74.4</ele><time>2026-03-29T15:47:27.531Z</time></trkpt><trkpt lat="44.8994783" lon="0.9363183"><ele>72.60000000000001</ele><time>2026-03-29T15:47:28.532Z</time></trkpt><trkpt lat="44.8995067" lon="0.9364483"><ele>70.8</ele><time>2026-03-29T15:47:29.531Z</time></trkpt><trkpt lat="44.8995283" lon="0.93656"><ele>69.0</ele><time>2026-03-29T15:47:30.531Z</time></trkpt><trkpt lat="44.89955" lon="0.9366483"><ele>69.0</ele><time>2026-03-29T15:47:31.532Z</time></trkpt><trkpt lat="44.8994933" lon="0.9367117"><ele>69.0</ele><time>2026-03-29T15:47:34.531Z</time></trkpt><trkpt lat="44.8994283" lon="0.9367117"><ele>69.0</ele><time>2026-03-29T15:47:37.532Z</time></trkpt><trkpt lat="44.8993333" lon="0.9367333"><ele>69.0</ele><time>2026-03-29T15:47:40.532Z</time></trkpt><trkpt lat="44.89923" lon="0.9367183"><ele>69.0</ele><time>2026-03-29T15:47:42.532Z</time></trkpt><trkpt lat="44.8991583" lon="0.936695"><ele>69.0</ele><time>2026-03-29T15:47:43.531Z</time></trkpt><trkpt lat="44.8990767" lon="0.9366683"><ele>70.0</ele><time>2026-03-29T15:47:44.531Z</time></trkpt><trkpt lat="44.8989967" lon="0.93665"><ele>71.0</ele><time>2026-03-29T15:47:45.532Z</time></trkpt><trkpt lat="44.8989067" lon="0.9366267"><ele>72.0</ele><time>2026-03-29T15:47:46.531Z</time></trkpt><trkpt lat="44.8988067" lon="0.9366033"><ele>73.0</ele><time>2026-03-29T15:47:47.531Z</time></trkpt><trkpt lat="44.8987033" lon="0.93657"><ele>74.0</ele><time>2026-03-29T15:47:48.531Z</time></trkpt><trkpt lat="44.89859" lon="0.936545"><ele>74.0</ele><time>2026-03-29T15:47:49.531Z</time></trkpt><trkpt lat="44.8984883" lon="0.93654"><ele>74.0</ele><time>2026-03-29T15:47:50.531Z</time></trkpt><trkpt lat="44.8983883" lon="0.9365533"><ele>74.0</ele><time>2026-03-29T15:47:51.532Z</time></trkpt><trkpt lat="44.8983017" lon="0.9365867"><ele>74.0</ele><time>2026-03-29T15:47:52.532Z</time></trkpt><trkpt lat="44.898225" lon="0.9366267"><ele>74.0</ele><time>2026-03-29T15:47:53.531Z</time></trkpt><trkpt lat="44.89815" lon="0.9366983"><ele>72.25</ele><time>2026-03-29T15:47:54.53Z</time></trkpt><trkpt lat="44.8980733" lon="0.9367867"><ele>70.5</ele><time>2026-03-29T15:47:55.53Z</time></trkpt><trkpt lat="44.8979867" lon="0.9368867"><ele>68.75</ele><time>2026-03-29T15:47:56.531Z</time></trkpt><trkpt lat="44.8978767" lon="0.9369983"><ele>67.0</ele><time>2026-03-29T15:47:57.53Z</time></trkpt><trkpt lat="44.8977483" lon="0.9371117"><ele>67.0</ele><time>2026-03-29T15:47:58.531Z</time></trkpt><trkpt lat="44.8976217" lon="0.9372233"><ele>67.0</ele><time>2026-03-29T15:47:59.53Z</time></trkpt><trkpt lat="44.8975" lon="0.9373333"><ele>67.0</ele><time>2026-03-29T15:48:00.531Z</time></trkpt><trkpt lat="44.89738" lon="0.9374383"><ele>67.0</ele><time>2026-03-29T15:48:01.53Z</time></trkpt><trkpt lat="44.8972717" lon="0.937535"><ele>68.25</ele><time>2026-03-29T15:48:02.531Z</time></trkpt><trkpt lat="44.8971633" lon="0.9376483"><ele>69.5</ele><time>2026-03-29T15:48:03.53Z</time></trkpt><trkpt lat="44.8970567" lon="0.937765"><ele>70.75</ele><time>2026-03-29T15:48:04.53Z</time></trkpt><trkpt lat="44.8969533" lon="0.937895"><ele>72.0</ele><time>2026-03-29T15:48:05.53Z</time></trkpt><trkpt lat="44.8968567" lon="0.9380183"><ele>75.33333333333333</ele><time>2026-03-29T15:48:06.53Z</time></trkpt><trkpt lat="44.8967433" lon="0.9381417"><ele>78.66666666666666</ele><time>2026-03-29T15:48:07.53Z</time></trkpt><trkpt lat="44.8966017" lon="0.938235"><ele>82.0</ele><time>2026-03-29T15:48:08.531Z</time></trkpt><trkpt lat="44.8964483" lon="0.9383633"><ele>79.0</ele><time>2026-03-29T15:48:09.53Z</time></trkpt><trkpt lat="44.8962917" lon="0.93849"><ele>76.0</ele><time>2026-03-29T15:48:10.53Z</time></trkpt><trkpt lat="44.8961267" lon="0.93864"><ele>73.0</ele><time>2026-03-29T15:48:11.53Z</time></trkpt><trkpt lat="44.8959933" lon="0.93878"><ele>74.5</ele><time>2026-03-29T15:48:12.53Z</time></trkpt><trkpt lat="44.8958767" lon="0.9388917"><ele>76.0</ele><time>2026-03-29T15:48:13.53Z</time></trkpt><trkpt lat="44.895775" lon="0.9390117"><ele>77.5</ele><time>2026-03-29T15:48:14.53Z</time></trkpt><trkpt lat="44.8956533" lon="0.93917"><ele>79.0</ele><time>2026-03-29T15:48:15.53Z</time></trkpt><trkpt lat="44.8955767" lon="0.9393033"><ele>79.0</ele><time>2026-03-29T15:48:16.53Z</time></trkpt><trkpt lat="44.8955" lon="0.9394283"><ele>79.0</ele><time>2026-03-29T15:48:17.531Z</time></trkpt><trkpt lat="44.895425" lon="0.93952"><ele>79.0</ele><time>2026-03-29T15:48:18.53Z</time></trkpt><trkpt lat="44.8953583" lon="0.9396183"><ele>79.0</ele><time>2026-03-29T15:48:19.53Z</time></trkpt><trkpt lat="44.8952983" lon="0.9397017"><ele>79.0</ele><time>2026-03-29T15:48:20.531Z</time></trkpt><trkpt lat="44.8952483" lon="0.9397733"><ele>79.0</ele><time>2026-03-29T15:48:21.531Z</time></trkpt><trkpt lat="44.8952033" lon="0.9398383"><ele>79.0</ele><time>2026-03-29T15:48:22.53Z</time></trkpt><trkpt lat="44.8951367" lon="0.9399383"><ele>79.0</ele><time>2026-03-29T15:48:24.53Z</time></trkpt><trkpt lat="44.8950883" lon="0.9399983"><ele>79.0</ele><time>2026-03-29T15:48:25.531Z</time></trkpt><trkpt lat="44.8950317" lon="0.9400733"><ele>79.0</ele><time>2026-03-29T15:48:26.531Z</time></trkpt><trkpt lat="44.8949717" lon="0.9401267"><ele>79.0</ele><time>2026-03-29T15:48:27.531Z</time></trkpt><trkpt lat="44.8949067" lon="0.9401933"><ele>78.2</ele><time>2026-03-29T15:48:28.531Z</time></trkpt><trkpt lat="44.8948233" lon="0.9402633"><ele>77.4</ele><time>2026-03-29T15:48:29.53Z</time></trkpt><trkpt lat="44.89472" lon="0.9403117"><ele>76.6</ele><time>2026-03-29T15:48:30.53Z</time></trkpt><trkpt lat="44.8946317" lon="0.940325"><ele>75.8</ele><time>2026-03-29T15:48:31.531Z</time></trkpt><trkpt lat="44.894555" lon="0.9403267"><ele>75.0</ele><time>2026-03-29T15:48:32.531Z</time></trkpt><trkpt lat="44.8944467" lon="0.9403417"><ele>75.0</ele><time>2026-03-29T15:48:33.531Z</time></trkpt><trkpt lat="44.894335" lon="0.9403333"><ele>75.0</ele><time>2026-03-29T15:48:34.531Z</time></trkpt><trkpt lat="44.894225" lon="0.9403333"><ele>75.0</ele><time>2026-03-29T15:48:35.53Z</time></trkpt><trkpt lat="44.8941183" lon="0.9403583"><ele>75.0</ele><time>2026-03-29T15:48:36.53Z</time></trkpt><trkpt lat="44.8940083" lon="0.9404017"><ele>75.0</ele><time>2026-03-29T15:48:37.53Z</time></trkpt><trkpt lat="44.89389" lon="0.9404767"><ele>75.25</ele><time>2026-03-29T15:48:38.531Z</time></trkpt><trkpt lat="44.8937633" lon="0.94057"><ele>75.5</ele><time>2026-03-29T15:48:39.53Z</time></trkpt><trkpt lat="44.8936417" lon="0.9406867"><ele>75.75</ele><time>2026-03-29T15:48:40.53Z</time></trkpt><trkpt lat="44.89353" lon="0.9408117"><ele>76.0</ele><time>2026-03-29T15:48:41.531Z</time></trkpt><trkpt lat="44.8934133" lon="0.9409267"><ele>75.5</ele><time>2026-03-29T15:48:42.53Z</time></trkpt><trkpt lat="44.8933083" lon="0.9410133"><ele>75.0</ele><time>2026-03-29T15:48:43.53Z</time></trkpt><trkpt lat="44.89321" lon="0.941115"><ele>74.5</ele><time>2026-03-29T15:48:44.531Z</time></trkpt><trkpt lat="44.893125" lon="0.941225"><ele>74.0</ele><time>2026-03-29T15:48:45.531Z</time></trkpt><trkpt lat="44.893065" lon="0.9413583"><ele>74.0</ele><time>2026-03-29T15:48:46.53Z</time></trkpt><trkpt lat="44.893025" lon="0.9415333"><ele>74.0</ele><time>2026-03-29T15:48:47.531Z</time></trkpt><trkpt lat="44.8929933" lon="0.9417217"><ele>74.0</ele><time>2026-03-29T15:48:48.53Z</time></trkpt><trkpt lat="44.89301" lon="0.9419067"><ele>74.0</ele><time>2026-03-29T15:48:49.53Z</time></trkpt><trkpt lat="44.893055" lon="0.94206"><ele>74.60000000000001</ele><time>2026-03-29T15:48:50.531Z</time></trkpt><trkpt lat="44.89308" lon="0.94218"><ele>75.2</ele><time>2026-03-29T15:48:51.53Z</time></trkpt><trkpt lat="44.8931" lon="0.9422833"><ele>75.80000000000001</ele><time>2026-03-29T15:48:52.53Z</time></trkpt><trkpt lat="44.893105" lon="0.9423767"><ele>76.4</ele><time>2026-03-29T15:48:53.531Z</time></trkpt><trkpt lat="44.893075" lon="0.94254"><ele>77.0</ele><time>2026-03-29T15:48:55.53Z</time></trkpt><trkpt lat="44.8930033" lon="0.9427"><ele>78.0</ele><time>2026-03-29T15:48:57.53Z</time></trkpt><trkpt lat="44.8929417" lon="0.9427733"><ele>79.0</ele><time>2026-03-29T15:48:58.531Z</time></trkpt><trkpt lat="44.8928733" lon="0.9428167"><ele>80.0</ele><time>2026-03-29T15:48:59.531Z</time></trkpt><trkpt lat="44.8928083" lon="0.9428617"><ele>81.0</ele><time>2026-03-29T15:49:00.53Z</time></trkpt><trkpt lat="44.8927417" lon="0.9429217"><ele>82.0</ele><time>2026-03-29T15:49:01.531Z</time></trkpt><trkpt lat="44.8926817" lon="0.9429983"><ele>83.0</ele><time>2026-03-29T15:49:02.531Z</time></trkpt><trkpt lat="44.8926033" lon="0.9431183"><ele>83.0</ele><time>2026-03-29T15:49:03.53Z</time></trkpt><trkpt lat="44.89252" lon="0.9432617"><ele>83.0</ele><time>2026-03-29T15:49:04.53Z</time></trkpt><trkpt lat="44.8924333" lon="0.943395"><ele>83.0</ele><time>2026-03-29T15:49:05.531Z</time></trkpt><trkpt lat="44.8923517" lon="0.9435083"><ele>83.0</ele><time>2026-03-29T15:49:06.53Z</time></trkpt><trkpt lat="44.8922617" lon="0.9435933"><ele>83.0</ele><time>2026-03-29T15:49:07.53Z</time></trkpt><trkpt lat="44.8921733" lon="0.94365"><ele>83.0</ele><time>2026-03-29T15:49:08.531Z</time></trkpt><trkpt lat="44.8920817" lon="0.94368"><ele>83.0</ele><time>2026-03-29T15:49:09.53Z</time></trkpt><trkpt lat="44.89199" lon="0.9436933"><ele>83.0</ele><time>2026-03-29T15:49:10.531Z</time></trkpt><trkpt lat="44.8918317" lon="0.943775"><ele>83.0</ele><time>2026-03-29T15:49:12.531Z</time></trkpt><trkpt lat="44.89176" lon="0.9438883"><ele>83.0</ele><time>2026-03-29T15:49:13.53Z</time></trkpt><trkpt lat="44.8917033" lon="0.9440267"><ele>83.0</ele><time>2026-03-29T15:49:14.53Z</time></trkpt><trkpt lat="44.8916433" lon="0.9441767"><ele>83.0</ele><time>2026-03-29T15:49:15.53Z</time></trkpt><trkpt lat="44.8915783" lon="0.9443083"><ele>83.4</ele><time>2026-03-29T15:49:16.531Z</time></trkpt><trkpt lat="44.891515" lon="0.94441"><ele>83.80000000000001</ele><time>2026-03-29T15:49:17.53Z</time></trkpt><trkpt lat="44.8914533" lon="0.9445"><ele>84.2</ele><time>2026-03-29T15:49:18.531Z</time></trkpt><trkpt lat="44.8913867" lon="0.9445883"><ele>84.6</ele><time>2026-03-29T15:49:19.531Z</time></trkpt><trkpt lat="44.8913167" lon="0.9446833"><ele>85.0</ele><time>2026-03-29T15:49:20.531Z</time></trkpt><trkpt lat="44.891235" lon="0.9447683"><ele>85.0</ele><time>2026-03-29T15:49:21.53Z</time></trkpt><trkpt lat="44.8911383" lon="0.944855"><ele>85.0</ele><time>2026-03-29T15:49:22.53Z</time></trkpt><trkpt lat="44.891025" lon="0.9449367"><ele>85.0</ele><time>2026-03-29T15:49:23.531Z</time></trkpt><trkpt lat="44.8908983" lon="0.94501"><ele>85.0</ele><time>2026-03-29T15:49:24.531Z</time></trkpt><trkpt lat="44.890765" lon="0.9451067"><ele>85.6</ele><time>2026-03-29T15:49:25.53Z</time></trkpt><trkpt lat="44.8906483" lon="0.945195"><ele>86.2</ele><time>2026-03-29T15:49:26.531Z</time></trkpt><trkpt lat="44.8905467" lon="0.94527"><ele>86.80000000000001</ele><time>2026-03-29T15:49:27.53Z</time></trkpt><trkpt lat="44.89046" lon="0.9453517"><ele>87.4</ele><time>2026-03-29T15:49:28.53Z</time></trkpt><trkpt lat="44.8903883" lon="0.9454433"><ele>88.0</ele><time>2026-03-29T15:49:29.531Z</time></trkpt><trkpt lat="44.8903267" lon="0.94556"><ele>88.0</ele><time>2026-03-29T15:49:30.53Z</time></trkpt><trkpt lat="44.890265" lon="0.9456983"><ele>88.0</ele><time>2026-03-29T15:49:31.53Z</time></trkpt><trkpt lat="44.8901867" lon="0.9458533"><ele>88.0</ele><time>2026-03-29T15:49:32.531Z</time></trkpt><trkpt lat="44.8901217" lon="0.9459767"><ele>88.0</ele><time>2026-03-29T15:49:33.531Z</time></trkpt><trkpt lat="44.8900633" lon="0.946115"><ele>89.0</ele><time>2026-03-29T15:49:34.531Z</time></trkpt><trkpt lat="44.8900033" lon="0.94624"><ele>90.0</ele><time>2026-03-29T15:49:35.53Z</time></trkpt><trkpt lat="44.8899467" lon="0.9463717"><ele>91.0</ele><time>2026-03-29T15:49:36.53Z</time></trkpt><trkpt lat="44.8899" lon="0.9465067"><ele>92.0</ele><time>2026-03-29T15:49:37.53Z</time></trkpt><trkpt lat="44.889855" lon="0.946635"><ele>93.0</ele><time>2026-03-29T15:49:38.531Z</time></trkpt><trkpt lat="44.8898167" lon="0.9467667"><ele>93.0</ele><time>2026-03-29T15:49:39.53Z</time></trkpt><trkpt lat="44.88977" lon="0.9469133"><ele>93.0</ele><time>2026-03-29T15:49:40.531Z</time></trkpt><trkpt lat="44.8897133" lon="0.9470717"><ele>93.0</ele><time>2026-03-29T15:49:41.53Z</time></trkpt><trkpt lat="44.8896617" lon="0.947255"><ele>93.0</ele><time>2026-03-29T15:49:42.53Z</time></trkpt><trkpt lat="44.8895933" lon="0.94748"><ele>94.0</ele><time>2026-03-29T15:49:43.531Z</time></trkpt><trkpt lat="44.8895233" lon="0.94772"><ele>95.0</ele><time>2026-03-29T15:49:44.531Z</time></trkpt><trkpt lat="44.8894383" lon="0.948"><ele>96.0</ele><time>2026-03-29T15:49:45.531Z</time></trkpt><trkpt lat="44.8893633" lon="0.948285"><ele>98.33333333333334</ele><time>2026-03-29T15:49:46.531Z</time></trkpt><trkpt lat="44.889305" lon="0.94855"><ele>100.66666666666667</ele><time>2026-03-29T15:49:47.53Z</time></trkpt><trkpt lat="44.889245" lon="0.9487633"><ele>103.0</ele><time>2026-03-29T15:49:48.53Z</time></trkpt><trkpt lat="44.8891817" lon="0.9489233"><ele>103.0</ele><time>2026-03-29T15:49:49.531Z</time></trkpt><trkpt lat="44.8891233" lon="0.94907"><ele>103.0</ele><time>2026-03-29T15:49:50.531Z</time></trkpt><trkpt lat="44.8890617" lon="0.9492083"><ele>103.0</ele><time>2026-03-29T15:49:51.53Z</time></trkpt><trkpt lat="44.888995" lon="0.94934"><ele>103.0</ele><time>2026-03-29T15:49:52.531Z</time></trkpt><trkpt lat="44.888925" lon="0.9494717"><ele>102.5</ele><time>2026-03-29T15:49:53.53Z</time></trkpt><trkpt lat="44.8888433" lon="0.9496017"><ele>102.0</ele><time>2026-03-29T15:49:54.53Z</time></trkpt><trkpt lat="44.888765" lon="0.94974"><ele>101.5</ele><time>2026-03-29T15:49:55.531Z</time></trkpt><trkpt lat="44.8887017" lon="0.94988"><ele>101.0</ele><time>2026-03-29T15:49:56.53Z</time></trkpt><trkpt lat="44.8886467" lon="0.9500017"><ele>101.33333333333333</ele><time>2026-03-29T15:49:57.531Z</time></trkpt><trkpt lat="44.888595" lon="0.9501033"><ele>101.66666666666666</ele><time>2026-03-29T15:49:58.53Z</time></trkpt><trkpt lat="44.8885467" lon="0.9501917"><ele>102.0</ele><time>2026-03-29T15:49:59.531Z</time></trkpt><trkpt lat="44.888495" lon="0.9502567"><ele>102.33333333333334</ele><time>2026-03-29T15:50:00.531Z</time></trkpt><trkpt lat="44.88843" lon="0.950315"><ele>102.66666666666667</ele><time>2026-03-29T15:50:01.53Z</time></trkpt><trkpt lat="44.8883683" lon="0.9503517"><ele>103.0</ele><time>2026-03-29T15:50:02.531Z</time></trkpt><trkpt lat="44.888265" lon="0.9503883"><ele>103.66666666666667</ele><time>2026-03-29T15:50:04.53Z</time></trkpt><trkpt lat="44.8881833" lon="0.9504017"><ele>104.33333333333334</ele><time>2026-03-29T15:50:07.53Z</time></trkpt><trkpt lat="44.888105" lon="0.9503933"><ele>105.0</ele><time>2026-03-29T15:50:09.531Z</time></trkpt><trkpt lat="44.88798" lon="0.9503983"><ele>105.66666666666666</ele><time>2026-03-29T15:50:11.531Z</time></trkpt><trkpt lat="44.8879067" lon="0.95039"><ele>106.33333333333333</ele><time>2026-03-29T15:50:12.53Z</time></trkpt><trkpt lat="44.88782" lon="0.950385"><ele>107.0</ele><time>2026-03-29T15:50:13.531Z</time></trkpt><trkpt lat="44.8877183" lon="0.9503883"><ele>107.0</ele><time>2026-03-29T15:50:14.531Z</time></trkpt><trkpt lat="44.8875967" lon="0.9503867"><ele>106.99999999999999</ele><time>2026-03-29T15:50:15.53Z</time></trkpt><trkpt lat="44.8875" lon="0.950385"><ele>106.99999999999999</ele><time>2026-03-29T15:50:16.531Z</time></trkpt><trkpt lat="44.8874167" lon="0.9503767"><ele>107.0</ele><time>2026-03-29T15:50:17.53Z</time></trkpt><trkpt lat="44.8873367" lon="0.95037"><ele>107.0</ele><time>2026-03-29T15:50:18.53Z</time></trkpt><trkpt lat="44.8872367" lon="0.9503583"><ele>108.66666666666666</ele><time>2026-03-29T15:50:20.53Z</time></trkpt><trkpt lat="44.8871767" lon="0.950325"><ele>110.33333333333333</ele><time>2026-03-29T15:50:23.531Z</time></trkpt><trkpt lat="44.8870817" lon="0.950265"><ele>112.0</ele><time>2026-03-29T15:50:26.531Z</time></trkpt><trkpt lat="44.8870217" lon="0.950225"><ele>113.66666666666666</ele><time>2026-03-29T15:50:28.531Z</time></trkpt><trkpt lat="44.8869633" lon="0.950185"><ele>115.33333333333333</ele><time>2026-03-29T15:50:31.531Z</time></trkpt><trkpt lat="44.88684" lon="0.9501917"><ele>117.0</ele><time>2026-03-29T15:50:45.53Z</time></trkpt><trkpt lat="44.8867633" lon="0.9501067"><ele>117.83333333333333</ele><time>2026-03-29T15:51:45.529Z</time></trkpt><trkpt lat="44.886655" lon="0.9501"><ele>118.66666666666666</ele><time>2026-03-29T15:52:15.529Z</time></trkpt><trkpt lat="44.8865967" lon="0.9500617"><ele>119.5</ele><time>2026-03-29T15:52:25.53Z</time></trkpt><trkpt lat="44.886535" lon="0.9499583"><ele>120.33333333333333</ele><time>2026-03-29T15:52:35.53Z</time></trkpt><trkpt lat="44.88648" lon="0.9498967"><ele>121.16666666666666</ele><time>2026-03-29T15:52:39.53Z</time></trkpt><trkpt lat="44.8865383" lon="0.949975"><ele>122.0</ele><time>2026-03-29T15:52:53.529Z</time></trkpt><trkpt lat="44.8865983" lon="0.9500783"><ele>121.99999999999999</ele><time>2026-03-29T15:53:47.53Z</time></trkpt><trkpt lat="44.8866617" lon="0.9501433"><ele>122.0</ele><time>2026-03-29T15:53:51.53Z</time></trkpt><trkpt lat="44.8867183" lon="0.9502017"><ele>122.0</ele><time>2026-03-29T15:53:54.53Z</time></trkpt><trkpt lat="44.8867783" lon="0.9502367"><ele>122.0</ele><time>2026-03-29T15:53:56.53Z</time></trkpt><trkpt lat="44.886845" lon="0.9502917"><ele>121.99999999999999</ele><time>2026-03-29T15:53:58.53Z</time></trkpt><trkpt lat="44.886915" lon="0.9503417"><ele>122.0</ele><time>2026-03-29T15:54:01.53Z</time></trkpt><trkpt lat="44.8869967" lon="0.9503883"><ele>121.16666666666666</ele><time>2026-03-29T15:54:06.529Z</time></trkpt><trkpt lat="44.8870783" lon="0.9504283"><ele>120.33333333333333</ele><time>2026-03-29T15:54:08.529Z</time></trkpt><trkpt lat="44.887175" lon="0.9504633"><ele>119.5</ele><time>2026-03-29T15:54:10.529Z</time></trkpt><trkpt lat="44.887285" lon="0.9505083"><ele>118.66666666666666</ele><time>2026-03-29T15:54:12.529Z</time></trkpt><trkpt lat="44.8873483" lon="0.9505233"><ele>117.83333333333333</ele><time>2026-03-29T15:54:13.529Z</time></trkpt><trkpt lat="44.88743" lon="0.95053"><ele>117.0</ele><time>2026-03-29T15:54:14.53Z</time></trkpt><trkpt lat="44.8875283" lon="0.9505267"><ele>115.0</ele><time>2026-03-29T15:54:15.53Z</time></trkpt><trkpt lat="44.8876167" lon="0.95051"><ele>112.99999999999999</ele><time>2026-03-29T15:54:16.529Z</time></trkpt><trkpt lat="44.8877067" lon="0.9504933"><ele>110.99999999999999</ele><time>2026-03-29T15:54:17.529Z</time></trkpt><trkpt lat="44.8877783" lon="0.9505017"><ele>109.0</ele><time>2026-03-29T15:54:18.529Z</time></trkpt><trkpt lat="44.8878967" lon="0.9505267"><ele>107.0</ele><time>2026-03-29T15:54:20.529Z</time></trkpt><trkpt lat="44.8880267" lon="0.9505183"><ele>107.00000000000001</ele><time>2026-03-29T15:54:22.53Z</time></trkpt><trkpt lat="44.8880933" lon="0.9504983"><ele>107.0</ele><time>2026-03-29T15:54:23.53Z</time></trkpt><trkpt lat="44.888155" lon="0.950475"><ele>107.0</ele><time>2026-03-29T15:54:24.529Z</time></trkpt><trkpt lat="44.8882417" lon="0.950415"><ele>107.0</ele><time>2026-03-29T15:54:26.529Z</time></trkpt><trkpt lat="44.8883033" lon="0.9503567"><ele>107.0</ele><time>2026-03-29T15:54:28.53Z</time></trkpt><trkpt lat="44.8883667" lon="0.9503367"><ele>107.00000000000001</ele><time>2026-03-29T15:54:32.529Z</time></trkpt><trkpt lat="44.888425" lon="0.9503817"><ele>107.0</ele><time>2026-03-29T15:54:33.529Z</time></trkpt><trkpt lat="44.8884933" lon="0.9505"><ele>106.19999999999999</ele><time>2026-03-29T15:54:35.53Z</time></trkpt><trkpt lat="44.8885667" lon="0.9506267"><ele>105.39999999999999</ele><time>2026-03-29T15:54:37.53Z</time></trkpt><trkpt lat="44.8886317" lon="0.9507133"><ele>104.6</ele><time>2026-03-29T15:54:39.53Z</time></trkpt><trkpt lat="44.8887283" lon="0.950855"><ele>103.80000000000001</ele><time>2026-03-29T15:55:12.53Z</time></trkpt><trkpt lat="44.8887917" lon="0.9507883"><ele>103.0</ele><time>2026-03-29T15:57:04.528Z</time></trkpt><trkpt lat="44.8887633" lon="0.950675"><ele>103.0</ele><time>2026-03-29T15:57:07.529Z</time></trkpt><trkpt lat="44.888735" lon="0.9505767"><ele>103.0</ele><time>2026-03-29T15:57:09.529Z</time></trkpt><trkpt lat="44.8887083" lon="0.9504817"><ele>103.0</ele><time>2026-03-29T15:57:11.528Z</time></trkpt><trkpt lat="44.88869" lon="0.9503633"><ele>103.0</ele><time>2026-03-29T15:57:14.528Z</time></trkpt><trkpt lat="44.88863" lon="0.9502333"><ele>103.0</ele><time>2026-03-29T15:57:44.529Z</time></trkpt><trkpt lat="44.888695" lon="0.9500733"><ele>102.5</ele><time>2026-03-29T15:57:46.529Z</time></trkpt><trkpt lat="44.888725" lon="0.949945"><ele>102.0</ele><time>2026-03-29T15:57:47.528Z</time></trkpt><trkpt lat="44.8887617" lon="0.9497933"><ele>101.5</ele><time>2026-03-29T15:57:48.528Z</time></trkpt><trkpt lat="44.8888467" lon="0.9496133"><ele>101.0</ele><time>2026-03-29T15:57:49.529Z</time></trkpt><trkpt lat="44.888965" lon="0.9494067"><ele>101.66666666666666</ele><time>2026-03-29T15:57:50.529Z</time></trkpt><trkpt lat="44.88909" lon="0.949175"><ele>102.33333333333334</ele><time>2026-03-29T15:57:51.528Z</time></trkpt><trkpt lat="44.8892067" lon="0.9489367"><ele>103.0</ele><time>2026-03-29T15:57:52.529Z</time></trkpt><trkpt lat="44.8892733" lon="0.9487033"><ele>104.0</ele><time>2026-03-29T15:57:53.528Z</time></trkpt><trkpt lat="44.8893333" lon="0.9484917"><ele>105.0</ele><time>2026-03-29T15:57:54.528Z</time></trkpt><trkpt lat="44.88938" lon="0.948305"><ele>106.0</ele><time>2026-03-29T15:57:55.528Z</time></trkpt><trkpt lat="44.889405" lon="0.9481683"><ele>107.0</ele><time>2026-03-29T15:57:56.529Z</time></trkpt><trkpt lat="44.8894217" lon="0.9480717"><ele>106.99999999999999</ele><time>2026-03-29T15:57:57.529Z</time></trkpt><trkpt lat="44.8893867" lon="0.9479883"><ele>107.0</ele><time>2026-03-29T15:58:01.528Z</time></trkpt><trkpt lat="44.889335" lon="0.9480583"><ele>107.0</ele><time>2026-03-29T15:58:03.529Z</time></trkpt><trkpt lat="44.88934" lon="0.9481733"><ele>107.0</ele><time>2026-03-29T15:58:05.529Z</time></trkpt><trkpt lat="44.88937" lon="0.9483117"><ele>106.99999999999999</ele><time>2026-03-29T15:58:12.529Z</time></trkpt><trkpt lat="44.88938" lon="0.94842"><ele>107.0</ele><time>2026-03-29T15:58:14.528Z</time></trkpt><trkpt lat="44.8894083" lon="0.9485"><ele>106.99999999999999</ele><time>2026-03-29T15:58:16.529Z</time></trkpt><trkpt lat="44.8894317" lon="0.9485833"><ele>107.0</ele><time>2026-03-29T15:58:20.529Z</time></trkpt><trkpt lat="44.8894583" lon="0.9486733"><ele>107.0</ele><time>2026-03-29T15:58:23.529Z</time></trkpt><trkpt lat="44.8895083" lon="0.948825"><ele>107.0</ele><time>2026-03-29T15:59:44.528Z</time></trkpt><trkpt lat="44.889515" lon="0.94893"><ele>106.99999999999999</ele><time>2026-03-29T15:59:47.528Z</time></trkpt><trkpt lat="44.8895317" lon="0.9490667"><ele>107.0</ele><time>2026-03-29T15:59:49.528Z</time></trkpt><trkpt lat="44.8895367" lon="0.9491717"><ele>108.16666666666666</ele><time>2026-03-29T15:59:50.527Z</time></trkpt><trkpt lat="44.889545" lon="0.9492967"><ele>109.33333333333333</ele><time>2026-03-29T15:59:51.528Z</time></trkpt><trkpt lat="44.88955" lon="0.9494167"><ele>110.5</ele><time>2026-03-29T15:59:52.528Z</time></trkpt><trkpt lat="44.8895467" lon="0.9495117"><ele>111.66666666666666</ele><time>2026-03-29T15:59:53.527Z</time></trkpt><trkpt lat="44.8895317" lon="0.9496617"><ele>112.83333333333333</ele><time>2026-03-29T15:59:55.527Z</time></trkpt><trkpt lat="44.8894967" lon="0.9497833"><ele>114.0</ele><time>2026-03-29T15:59:57.528Z</time></trkpt><trkpt lat="44.8894683" lon="0.94988"><ele>114.0</ele><time>2026-03-29T15:59:59.527Z</time></trkpt><trkpt lat="44.8894633" lon="0.9499717"><ele>114.0</ele><time>2026-03-29T16:00:01.528Z</time></trkpt><trkpt lat="44.8894417" lon="0.9501083"><ele>114.0</ele><time>2026-03-29T16:00:03.528Z</time></trkpt><trkpt lat="44.8894267" lon="0.9502783"><ele>114.0</ele><time>2026-03-29T16:00:05.528Z</time></trkpt><trkpt lat="44.8894267" lon="0.950415"><ele>114.0</ele><time>2026-03-29T16:00:07.527Z</time></trkpt><trkpt lat="44.8894367" lon="0.9505533"><ele>114.66666666666667</ele><time>2026-03-29T16:00:09.528Z</time></trkpt><trkpt lat="44.8894433" lon="0.9506533"><ele>115.33333333333334</ele><time>2026-03-29T16:00:11.527Z</time></trkpt><trkpt lat="44.8894283" lon="0.950775"><ele>116.0</ele><time>2026-03-29T16:00:14.528Z</time></trkpt><trkpt lat="44.8893783" lon="0.9508883"><ele>116.66666666666667</ele><time>2026-03-29T16:00:16.528Z</time></trkpt><trkpt lat="44.889335" lon="0.9509533"><ele>117.33333333333334</ele><time>2026-03-29T16:00:17.527Z</time></trkpt><trkpt lat="44.8892817" lon="0.9510133"><ele>118.0</ele><time>2026-03-29T16:00:18.528Z</time></trkpt><trkpt lat="44.88921" lon="0.9511067"><ele>116.0</ele><time>2026-03-29T16:00:20.528Z</time></trkpt><trkpt lat="44.889165" lon="0.9511867"><ele>114.00000000000001</ele><time>2026-03-29T16:00:24.527Z</time></trkpt><trkpt lat="44.8890683" lon="0.9512733"><ele>112.00000000000001</ele><time>2026-03-29T16:00:48.528Z</time></trkpt><trkpt lat="44.888965" lon="0.9511733"><ele>110.0</ele><time>2026-03-29T16:01:36.527Z</time></trkpt><trkpt lat="44.8888967" lon="0.9511433"><ele>108.0</ele><time>2026-03-29T16:01:41.528Z</time></trkpt><trkpt lat="44.8888083" lon="0.9511"><ele>108.0</ele><time>2026-03-29T16:01:44.528Z</time></trkpt><trkpt lat="44.8887367" lon="0.9510817"><ele>108.0</ele><time>2026-03-29T16:01:46.527Z</time></trkpt><trkpt lat="44.8886517" lon="0.9511033"><ele>108.0</ele><time>2026-03-29T16:01:49.527Z</time></trkpt><trkpt lat="44.888575" lon="0.9511283"><ele>108.0</ele><time>2026-03-29T16:01:55.527Z</time></trkpt><trkpt lat="44.8885083" lon="0.9511733"><ele>108.0</ele><time>2026-03-29T16:01:57.527Z</time></trkpt><trkpt lat="44.8884083" lon="0.95123"><ele>108.0</ele><time>2026-03-29T16:01:59.527Z</time></trkpt><trkpt lat="44.8883117" lon="0.95133"><ele>107.71428571428571</ele><time>2026-03-29T16:02:01.528Z</time></trkpt><trkpt lat="44.8882583" lon="0.9513867"><ele>107.42857142857142</ele><time>2026-03-29T16:02:02.527Z</time></trkpt><trkpt lat="44.8882083" lon="0.951445"><ele>107.14285714285714</ele><time>2026-03-29T16:02:03.528Z</time></trkpt><trkpt lat="44.8881383" lon="0.9515367"><ele>106.85714285714286</ele><time>2026-03-29T16:02:05.528Z</time></trkpt><trkpt lat="44.888085" lon="0.951595"><ele>106.57142857142857</ele><time>2026-03-29T16:02:07.528Z</time></trkpt><trkpt lat="44.8880433" lon="0.9516633"><ele>106.28571428571429</ele><time>2026-03-29T16:02:09.527Z</time></trkpt><trkpt lat="44.88801" lon="0.9517467"><ele>106.0</ele><time>2026-03-29T16:02:11.527Z</time></trkpt><trkpt lat="44.887965" lon="0.95185"><ele>106.83333333333334</ele><time>2026-03-29T16:02:14.528Z</time></trkpt><trkpt lat="44.8879317" lon="0.9519267"><ele>107.66666666666667</ele><time>2026-03-29T16:02:16.527Z</time></trkpt><trkpt lat="44.8878817" lon="0.9520233"><ele>108.5</ele><time>2026-03-29T16:02:19.528Z</time></trkpt><trkpt lat="44.8878183" lon="0.9521083"><ele>109.33333333333334</ele><time>2026-03-29T16:02:22.528Z</time></trkpt><trkpt lat="44.88776" lon="0.9521783"><ele>110.16666666666667</ele><time>2026-03-29T16:02:25.528Z</time></trkpt><trkpt lat="44.8876933" lon="0.9522617"><ele>111.0</ele><time>2026-03-29T16:02:28.527Z</time></trkpt><trkpt lat="44.8876217" lon="0.9523483"><ele>113.0</ele><time>2026-03-29T16:02:31.528Z</time></trkpt><trkpt lat="44.8875617" lon="0.9524"><ele>115.0</ele><time>2026-03-29T16:02:33.528Z</time></trkpt><trkpt lat="44.887485" lon="0.9524767"><ele>117.0</ele><time>2026-03-29T16:02:36.528Z</time></trkpt><trkpt lat="44.8874267" lon="0.9525167"><ele>119.0</ele><time>2026-03-29T16:02:38.528Z</time></trkpt><trkpt lat="44.88737" lon="0.95257"><ele>121.0</ele><time>2026-03-29T16:02:40.527Z</time></trkpt><trkpt lat="44.8873017" lon="0.9526367"><ele>123.0</ele><time>2026-03-29T16:02:42.528Z</time></trkpt><trkpt lat="44.8872417" lon="0.952705"><ele>124.5</ele><time>2026-03-29T16:02:44.528Z</time></trkpt><trkpt lat="44.88718" lon="0.95277"><ele>126.0</ele><time>2026-03-29T16:02:46.527Z</time></trkpt><trkpt lat="44.8871117" lon="0.9528283"><ele>127.5</ele><time>2026-03-29T16:02:48.527Z</time></trkpt><trkpt lat="44.8870367" lon="0.95288"><ele>129.0</ele><time>2026-03-29T16:02:50.527Z</time></trkpt><trkpt lat="44.8869617" lon="0.9529117"><ele>130.5</ele><time>2026-03-29T16:02:52.528Z</time></trkpt><trkpt lat="44.8868917" lon="0.952945"><ele>132.0</ele><time>2026-03-29T16:02:54.527Z</time></trkpt><trkpt lat="44.8868333" lon="0.952985"><ele>132.0</ele><time>2026-03-29T16:02:56.527Z</time></trkpt><trkpt lat="44.8867617" lon="0.95305"><ele>132.0</ele><time>2026-03-29T16:03:00.528Z</time></trkpt><trkpt lat="44.88668" lon="0.9530967"><ele>132.0</ele><time>2026-03-29T16:03:03.528Z</time></trkpt><trkpt lat="44.8866167" lon="0.9531383"><ele>132.0</ele><time>2026-03-29T16:03:06.526Z</time></trkpt><trkpt lat="44.8865467" lon="0.9532"><ele>132.0</ele><time>2026-03-29T16:03:12.526Z</time></trkpt><trkpt lat="44.8864333" lon="0.95329"><ele>135.6</ele><time>2026-03-29T16:03:21.527Z</time></trkpt><trkpt lat="44.8863817" lon="0.9533533"><ele>139.2</ele><time>2026-03-29T16:03:24.526Z</time></trkpt><trkpt lat="44.8863" lon="0.9534483"><ele>142.8</ele><time>2026-03-29T16:03:31.527Z</time></trkpt><trkpt lat="44.8862383" lon="0.9535"><ele>146.4</ele><time>2026-03-29T16:03:35.527Z</time></trkpt><trkpt lat="44.8861367" lon="0.95364"><ele>150.0</ele><time>2026-03-29T16:03:48.527Z</time></trkpt><trkpt lat="44.8860783" lon="0.953715"><ele>150.4</ele><time>2026-03-29T16:03:52.526Z</time></trkpt><trkpt lat="44.8860083" lon="0.95385"><ele>150.8</ele><time>2026-03-29T16:03:58.526Z</time></trkpt><trkpt lat="44.885955" lon="0.9539233"><ele>151.2</ele><time>2026-03-29T16:04:01.526Z</time></trkpt><trkpt lat="44.8858717" lon="0.9539683"><ele>151.6</ele><time>2026-03-29T16:04:04.527Z</time></trkpt><trkpt lat="44.8858033" lon="0.9539433"><ele>152.0</ele><time>2026-03-29T16:04:06.526Z</time></trkpt><trkpt lat="44.885705" lon="0.95388"><ele>153.85714285714286</ele><time>2026-03-29T16:04:13.526Z</time></trkpt><trkpt lat="44.88565" lon="0.953835"><ele>155.71428571428572</ele><time>2026-03-29T16:04:15.527Z</time></trkpt><trkpt lat="44.885575" lon="0.9538017"><ele>157.57142857142858</ele><time>2026-03-29T16:04:17.526Z</time></trkpt><trkpt lat="44.8855" lon="0.9537883"><ele>159.42857142857144</ele><time>2026-03-29T16:04:19.527Z</time></trkpt><trkpt lat="44.88542" lon="0.9537817"><ele>161.28571428571428</ele><time>2026-03-29T16:04:21.526Z</time></trkpt><trkpt lat="44.8853517" lon="0.9538"><ele>163.14285714285717</ele><time>2026-03-29T16:04:22.527Z</time></trkpt><trkpt lat="44.88527" lon="0.95381"><ele>165.0</ele><time>2026-03-29T16:04:23.527Z</time></trkpt><trkpt lat="44.88505" lon="0.9538367"><ele>165.6</ele><time>2026-03-29T16:04:25.526Z</time></trkpt><trkpt lat="44.88494" lon="0.9538517"><ele>166.2</ele><time>2026-03-29T16:04:26.527Z</time></trkpt><trkpt lat="44.8848367" lon="0.9538633"><ele>166.8</ele><time>2026-03-29T16:04:27.526Z</time></trkpt><trkpt lat="44.8847367" lon="0.9538683"><ele>167.4</ele><time>2026-03-29T16:04:28.527Z</time></trkpt><trkpt lat="44.8846417" lon="0.9538567"><ele>168.0</ele><time>2026-03-29T16:04:29.527Z</time></trkpt><trkpt lat="44.8845517" lon="0.9538333"><ele>168.0</ele><time>2026-03-29T16:04:30.527Z</time></trkpt><trkpt lat="44.8844583" lon="0.9538033"><ele>168.0</ele><time>2026-03-29T16:04:31.527Z</time></trkpt><trkpt lat="44.884365" lon="0.9537767"><ele>168.0</ele><time>2026-03-29T16:04:32.527Z</time></trkpt><trkpt lat="44.884285" lon="0.9537767"><ele>168.0</ele><time>2026-03-29T16:04:33.527Z</time></trkpt><trkpt lat="44.8842083" lon="0.9537717"><ele>168.0</ele><time>2026-03-29T16:04:34.527Z</time></trkpt><trkpt lat="44.8841417" lon="0.9537733"><ele>168.0</ele><time>2026-03-29T16:04:35.527Z</time></trkpt><trkpt lat="44.8840717" lon="0.953785"><ele>168.4</ele><time>2026-03-29T16:04:36.526Z</time></trkpt><trkpt lat="44.8839583" lon="0.95383"><ele>168.8</ele><time>2026-03-29T16:04:38.527Z</time></trkpt><trkpt lat="44.8838333" lon="0.9538533"><ele>169.2</ele><time>2026-03-29T16:04:40.527Z</time></trkpt><trkpt lat="44.8837617" lon="0.9538467"><ele>169.6</ele><time>2026-03-29T16:04:41.526Z</time></trkpt><trkpt lat="44.88369" lon="0.953815"><ele>170.0</ele><time>2026-03-29T16:04:42.526Z</time></trkpt><trkpt lat="44.8836083" lon="0.9537583"><ele>170.0</ele><time>2026-03-29T16:04:43.526Z</time></trkpt><trkpt lat="44.8835467" lon="0.9536933"><ele>170.0</ele><time>2026-03-29T16:04:44.526Z</time></trkpt><trkpt lat="44.88346" lon="0.9536033"><ele>170.0</ele><time>2026-03-29T16:04:46.526Z</time></trkpt><trkpt lat="44.883405" lon="0.95354"><ele>170.0</ele><time>2026-03-29T16:04:48.526Z</time></trkpt><trkpt lat="44.8833617" lon="0.953405"><ele>170.0</ele><time>2026-03-29T16:04:51.526Z</time></trkpt><trkpt lat="44.88335" lon="0.9533083"><ele>170.0</ele><time>2026-03-29T16:04:52.526Z</time></trkpt><trkpt lat="44.8833533" lon="0.9531767"><ele>170.6</ele><time>2026-03-29T16:04:53.526Z</time></trkpt><trkpt lat="44.8833683" lon="0.9530217"><ele>171.2</ele><time>2026-03-29T16:04:54.526Z</time></trkpt><trkpt lat="44.8834" lon="0.9528767"><ele>171.8</ele><time>2026-03-29T16:04:55.526Z</time></trkpt><trkpt lat="44.8834267" lon="0.9527533"><ele>172.4</ele><time>2026-03-29T16:04:56.527Z</time></trkpt><trkpt lat="44.883435" lon="0.952655"><ele>173.0</ele><time>2026-03-29T16:04:57.526Z</time></trkpt><trkpt lat="44.8834033" lon="0.9525183"><ele>173.0</ele><time>2026-03-29T16:04:59.527Z</time></trkpt><trkpt lat="44.8833467" lon="0.952475"><ele>173.0</ele><time>2026-03-29T16:05:00.527Z</time></trkpt><trkpt lat="44.8832283" lon="0.952455"><ele>173.0</ele><time>2026-03-29T16:05:01.526Z</time></trkpt><trkpt lat="44.8831067" lon="0.952435"><ele>173.0</ele><time>2026-03-29T16:05:02.526Z</time></trkpt><trkpt lat="44.882975" lon="0.9524033"><ele>173.0</ele><time>2026-03-29T16:05:03.527Z</time></trkpt><trkpt lat="44.88285" lon="0.9523717"><ele>173.0</ele><time>2026-03-29T16:05:04.526Z</time></trkpt><trkpt lat="44.8827233" lon="0.9523383"><ele>173.0</ele><time>2026-03-29T16:05:05.527Z</time></trkpt><trkpt lat="44.8826083" lon="0.9523033"><ele>173.0</ele><time>2026-03-29T16:05:06.526Z</time></trkpt><trkpt lat="44.8824983" lon="0.95228"><ele>173.0</ele><time>2026-03-29T16:05:07.527Z</time></trkpt><trkpt lat="44.8823967" lon="0.9522567"><ele>174.2</ele><time>2026-03-29T16:05:08.526Z</time></trkpt><trkpt lat="44.882295" lon="0.9522133"><ele>175.4</ele><time>2026-03-29T16:05:09.527Z</time></trkpt><trkpt lat="44.882185" lon="0.9521683"><ele>176.6</ele><time>2026-03-29T16:05:10.527Z</time></trkpt><trkpt lat="44.88208" lon="0.9521267"><ele>177.79999999999998</ele><time>2026-03-29T16:05:11.527Z</time></trkpt><trkpt lat="44.88197" lon="0.9520683"><ele>179.0</ele><time>2026-03-29T16:05:12.527Z</time></trkpt><trkpt lat="44.88187" lon="0.9519983"><ele>179.0</ele><time>2026-03-29T16:05:13.526Z</time></trkpt><trkpt lat="44.881775" lon="0.951925"><ele>179.0</ele><time>2026-03-29T16:05:14.526Z</time></trkpt><trkpt lat="44.8816917" lon="0.9518267"><ele>179.0</ele><time>2026-03-29T16:05:15.526Z</time></trkpt><trkpt lat="44.8816067" lon="0.9517367"><ele>179.0</ele><time>2026-03-29T16:05:16.527Z</time></trkpt><trkpt lat="44.8815367" lon="0.9516417"><ele>179.0</ele><time>2026-03-29T16:05:17.527Z</time></trkpt><trkpt lat="44.881475" lon="0.9515083"><ele>181.25</ele><time>2026-03-29T16:05:18.526Z</time></trkpt><trkpt lat="44.8814033" lon="0.951325"><ele>183.5</ele><time>2026-03-29T16:05:19.527Z</time></trkpt><trkpt lat="44.88133" lon="0.951135"><ele>185.75</ele><time>2026-03-29T16:05:20.527Z</time></trkpt><trkpt lat="44.8812683" lon="0.950965"><ele>188.0</ele><time>2026-03-29T16:05:21.526Z</time></trkpt><trkpt lat="44.8812283" lon="0.950835"><ele>188.0</ele><time>2026-03-29T16:05:22.526Z</time></trkpt><trkpt lat="44.8811933" lon="0.9507"><ele>188.0</ele><time>2026-03-29T16:05:23.526Z</time></trkpt><trkpt lat="44.8811367" lon="0.950575"><ele>188.0</ele><time>2026-03-29T16:05:24.527Z</time></trkpt><trkpt lat="44.8810717" lon="0.9504567"><ele>188.0</ele><time>2026-03-29T16:05:25.526Z</time></trkpt><trkpt lat="44.8809983" lon="0.9503533"><ele>188.0</ele><time>2026-03-29T16:05:26.526Z</time></trkpt><trkpt lat="44.8809167" lon="0.9502717"><ele>190.4</ele><time>2026-03-29T16:05:27.526Z</time></trkpt><trkpt lat="44.8808483" lon="0.9501817"><ele>192.8</ele><time>2026-03-29T16:05:28.526Z</time></trkpt><trkpt lat="44.88078" lon="0.9500767"><ele>195.2</ele><time>2026-03-29T16:05:29.526Z</time></trkpt><trkpt lat="44.8807183" lon="0.9499717"><ele>197.6</ele><time>2026-03-29T16:05:30.527Z</time></trkpt><trkpt lat="44.8806683" lon="0.9498733"><ele>200.0</ele><time>2026-03-29T16:05:31.527Z</time></trkpt><trkpt lat="44.880635" lon="0.9497667"><ele>200.83333333333334</ele><time>2026-03-29T16:05:32.526Z</time></trkpt><trkpt lat="44.8806083" lon="0.9496717"><ele>201.66666666666669</ele><time>2026-03-29T16:05:33.526Z</time></trkpt><trkpt lat="44.88059" lon="0.9495667"><ele>202.5</ele><time>2026-03-29T16:05:34.527Z</time></trkpt><trkpt lat="44.8805733" lon="0.9494633"><ele>203.33333333333331</ele><time>2026-03-29T16:05:35.526Z</time></trkpt><trkpt lat="44.8805417" lon="0.94937"><ele>204.16666666666666</ele><time>2026-03-29T16:05:36.527Z</time></trkpt><trkpt lat="44.8805" lon="0.9492683"><ele>205.0</ele><time>2026-03-29T16:05:37.527Z</time></trkpt><trkpt lat="44.8804567" lon="0.9491883"><ele>205.25</ele><time>2026-03-29T16:05:38.527Z</time></trkpt><trkpt lat="44.88041" lon="0.94909"><ele>205.5</ele><time>2026-03-29T16:05:40.526Z</time></trkpt><trkpt lat="44.8803467" lon="0.9489033"><ele>205.75</ele><time>2026-03-29T16:05:51.527Z</time></trkpt><trkpt lat="44.8803133" lon="0.9487233"><ele>206.0</ele><time>2026-03-29T16:05:53.527Z</time></trkpt><trkpt lat="44.8803067" lon="0.9485967"><ele>206.0</ele><time>2026-03-29T16:05:54.526Z</time></trkpt><trkpt lat="44.8803017" lon="0.9484667"><ele>206.0</ele><time>2026-03-29T16:05:55.526Z</time></trkpt><trkpt lat="44.8803067" lon="0.9483283"><ele>206.0</ele><time>2026-03-29T16:05:56.527Z</time></trkpt><trkpt lat="44.8803367" lon="0.9481833"><ele>206.0</ele><time>2026-03-29T16:05:57.526Z</time></trkpt><trkpt lat="44.8803617" lon="0.94806"><ele>206.0</ele><time>2026-03-29T16:05:58.526Z</time></trkpt><trkpt lat="44.880385" lon="0.94794"><ele>206.60000000000002</ele><time>2026-03-29T16:05:59.526Z</time></trkpt><trkpt lat="44.8804133" lon="0.947825"><ele>207.2</ele><time>2026-03-29T16:06:00.526Z</time></trkpt><trkpt lat="44.8804717" lon="0.9477117"><ele>207.8</ele><time>2026-03-29T16:06:01.526Z</time></trkpt><trkpt lat="44.8805267" lon="0.947605"><ele>208.39999999999998</ele><time>2026-03-29T16:06:02.527Z</time></trkpt><trkpt lat="44.880565" lon="0.9475167"><ele>209.0</ele><time>2026-03-29T16:06:03.526Z</time></trkpt><trkpt lat="44.8806133" lon="0.947385"><ele>210.66666666666669</ele><time>2026-03-29T16:06:05.527Z</time></trkpt><trkpt lat="44.88059" lon="0.9472817"><ele>212.33333333333334</ele><time>2026-03-29T16:06:07.527Z</time></trkpt><trkpt lat="44.8804967" lon="0.94719"><ele>214.0</ele><time>2026-03-29T16:06:09.527Z</time></trkpt><trkpt lat="44.88043" lon="0.947145"><ele>215.66666666666669</ele><time>2026-03-29T16:06:10.527Z</time></trkpt><trkpt lat="44.8803583" lon="0.9471133"><ele>217.33333333333334</ele><time>2026-03-29T16:06:11.526Z</time></trkpt><trkpt lat="44.8802983" lon="0.947085"><ele>219.0</ele><time>2026-03-29T16:06:12.527Z</time></trkpt><trkpt lat="44.8802283" lon="0.94707"><ele>219.0</ele><time>2026-03-29T16:06:13.526Z</time></trkpt><trkpt lat="44.8801617" lon="0.947055"><ele>219.0</ele><time>2026-03-29T16:06:14.526Z</time></trkpt><trkpt lat="44.8800367" lon="0.94703"><ele>219.0</ele><time>2026-03-29T16:06:16.527Z</time></trkpt><trkpt lat="44.87994" lon="0.9470283"><ele>219.0</ele><time>2026-03-29T16:06:18.527Z</time></trkpt><trkpt lat="44.8798733" lon="0.9470067"><ele>219.0</ele><time>2026-03-29T16:06:20.527Z</time></trkpt><trkpt lat="44.879825" lon="0.9470883"><ele>219.0</ele><time>2026-03-29T16:06:22.527Z</time></trkpt><trkpt lat="44.8798067" lon="0.94727"><ele>219.83333333333334</ele><time>2026-03-29T16:06:24.527Z</time></trkpt><trkpt lat="44.8798067" lon="0.9473617"><ele>220.66666666666669</ele><time>2026-03-29T16:06:25.527Z</time></trkpt><trkpt lat="44.8798283" lon="0.9474867"><ele>221.5</ele><time>2026-03-29T16:06:27.526Z</time></trkpt><trkpt lat="44.879845" lon="0.9476083"><ele>222.33333333333334</ele><time>2026-03-29T16:06:30.526Z</time></trkpt><trkpt lat="44.87984" lon="0.9477083"><ele>223.16666666666669</ele><time>2026-03-29T16:06:32.527Z</time></trkpt><trkpt lat="44.87979" lon="0.9478233"><ele>224.0</ele><time>2026-03-29T16:06:34.527Z</time></trkpt><trkpt lat="44.8797533" lon="0.9478983"><ele>224.0</ele><time>2026-03-29T16:06:35.527Z</time></trkpt><trkpt lat="44.8797133" lon="0.94799"><ele>224.0</ele><time>2026-03-29T16:06:36.526Z</time></trkpt><trkpt lat="44.8796783" lon="0.9480883"><ele>224.0</ele><time>2026-03-29T16:06:37.526Z</time></trkpt><trkpt lat="44.8796483" lon="0.9481833"><ele>224.0</ele><time>2026-03-29T16:06:38.526Z</time></trkpt><trkpt lat="44.8796233" lon="0.9482717"><ele>224.0</ele><time>2026-03-29T16:06:39.527Z</time></trkpt><trkpt lat="44.87959" lon="0.9483717"><ele>224.0</ele><time>2026-03-29T16:06:40.526Z</time></trkpt><trkpt lat="44.8795617" lon="0.9484683"><ele>224.0</ele><time>2026-03-29T16:06:41.526Z</time></trkpt><trkpt lat="44.8795417" lon="0.9485667"><ele>223.85714285714286</ele><time>2026-03-29T16:06:42.527Z</time></trkpt><trkpt lat="44.8795167" lon="0.948665"><ele>223.71428571428572</ele><time>2026-03-29T16:06:43.526Z</time></trkpt><trkpt lat="44.8794917" lon="0.9487683"><ele>223.57142857142856</ele><time>2026-03-29T16:06:44.526Z</time></trkpt><trkpt lat="44.8794683" lon="0.9488717"><ele>223.42857142857144</ele><time>2026-03-29T16:06:45.527Z</time></trkpt><trkpt lat="44.87944" lon="0.9489683"><ele>223.28571428571428</ele><time>2026-03-29T16:06:46.527Z</time></trkpt><trkpt lat="44.87941" lon="0.9490617"><ele>223.14285714285714</ele><time>2026-03-29T16:06:47.527Z</time></trkpt><trkpt lat="44.879385" lon="0.9491583"><ele>223.0</ele><time>2026-03-29T16:06:48.527Z</time></trkpt><trkpt lat="44.8793617" lon="0.9492583"><ele>222.49999999999997</ele><time>2026-03-29T16:06:49.526Z</time></trkpt><trkpt lat="44.8793383" lon="0.94937"><ele>222.0</ele><time>2026-03-29T16:06:50.526Z</time></trkpt><trkpt lat="44.8793117" lon="0.9494717"><ele>221.5</ele><time>2026-03-29T16:06:51.526Z</time></trkpt><trkpt lat="44.8792917" lon="0.9495883"><ele>221.0</ele><time>2026-03-29T16:06:52.525Z</time></trkpt><trkpt lat="44.8792717" lon="0.9496933"><ele>220.49999999999997</ele><time>2026-03-29T16:06:53.526Z</time></trkpt><trkpt lat="44.8792467" lon="0.949795"><ele>220.0</ele><time>2026-03-29T16:06:54.525Z</time></trkpt><trkpt lat="44.87922" lon="0.9498983"><ele>220.0</ele><time>2026-03-29T16:06:55.526Z</time></trkpt><trkpt lat="44.8791883" lon="0.95003"><ele>220.0</ele><time>2026-03-29T16:06:56.526Z</time></trkpt><trkpt lat="44.8791683" lon="0.95017"><ele>220.0</ele><time>2026-03-29T16:06:57.525Z</time></trkpt><trkpt lat="44.8791617" lon="0.9503267"><ele>220.0</ele><time>2026-03-29T16:06:58.526Z</time></trkpt><trkpt lat="44.879155" lon="0.9504883"><ele>220.0</ele><time>2026-03-29T16:06:59.525Z</time></trkpt><trkpt lat="44.8791133" lon="0.9508433"><ele>217.0</ele><time>2026-03-29T16:07:01.526Z</time></trkpt><trkpt lat="44.8790767" lon="0.9510167"><ele>214.0</ele><time>2026-03-29T16:07:02.525Z</time></trkpt><trkpt lat="44.87904" lon="0.9511767"><ele>211.0</ele><time>2026-03-29T16:07:03.525Z</time></trkpt><trkpt lat="44.8789917" lon="0.951325"><ele>208.0</ele><time>2026-03-29T16:07:04.525Z</time></trkpt><trkpt lat="44.8789533" lon="0.9514567"><ele>208.0</ele><time>2026-03-29T16:07:05.525Z</time></trkpt><trkpt lat="44.87892" lon="0.9515867"><ele>208.0</ele><time>2026-03-29T16:07:06.525Z</time></trkpt><trkpt lat="44.87889" lon="0.9517"><ele>208.0</ele><time>2026-03-29T16:07:07.526Z</time></trkpt><trkpt lat="44.878855" lon="0.9518217"><ele>208.0</ele><time>2026-03-29T16:07:08.526Z</time></trkpt><trkpt lat="44.878825" lon="0.951945"><ele>208.0</ele><time>2026-03-29T16:07:09.525Z</time></trkpt><trkpt lat="44.8787933" lon="0.9520533"><ele>208.83333333333331</ele><time>2026-03-29T16:07:10.525Z</time></trkpt><trkpt lat="44.8787667" lon="0.9521583"><ele>209.66666666666666</ele><time>2026-03-29T16:07:11.526Z</time></trkpt><trkpt lat="44.8787383" lon="0.9522567"><ele>210.5</ele><time>2026-03-29T16:07:12.526Z</time></trkpt><trkpt lat="44.8786967" lon="0.9523683"><ele>211.33333333333331</ele><time>2026-03-29T16:07:13.526Z</time></trkpt><trkpt lat="44.878655" lon="0.95249"><ele>212.16666666666666</ele><time>2026-03-29T16:07:14.525Z</time></trkpt><trkpt lat="44.87861" lon="0.95263"><ele>213.0</ele><time>2026-03-29T16:07:15.526Z</time></trkpt><trkpt lat="44.87857" lon="0.95277"><ele>212.66666666666666</ele><time>2026-03-29T16:07:16.525Z</time></trkpt><trkpt lat="44.8785383" lon="0.9528833"><ele>212.33333333333331</ele><time>2026-03-29T16:07:17.526Z</time></trkpt><trkpt lat="44.8785117" lon="0.95299"><ele>212.0</ele><time>2026-03-29T16:07:18.526Z</time></trkpt><trkpt lat="44.8784867" lon="0.9530917"><ele>211.66666666666666</ele><time>2026-03-29T16:07:19.525Z</time></trkpt><trkpt lat="44.8784533" lon="0.9531767"><ele>211.33333333333331</ele><time>2026-03-29T16:07:20.526Z</time></trkpt><trkpt lat="44.8783983" lon="0.95332"><ele>211.0</ele><time>2026-03-29T16:07:22.526Z</time></trkpt><trkpt lat="44.8783683" lon="0.95345"><ele>213.0</ele><time>2026-03-29T16:07:24.525Z</time></trkpt><trkpt lat="44.878345" lon="0.9535583"><ele>215.0</ele><time>2026-03-29T16:07:26.525Z</time></trkpt><trkpt lat="44.8783517" lon="0.953665"><ele>217.00000000000003</ele><time>2026-03-29T16:07:29.525Z</time></trkpt><trkpt lat="44.8784417" lon="0.95372"><ele>219.0</ele><time>2026-03-29T16:07:32.525Z</time></trkpt><trkpt lat="44.878535" lon="0.9537383"><ele>221.0</ele><time>2026-03-29T16:07:34.525Z</time></trkpt><trkpt lat="44.878645" lon="0.953725"><ele>221.8</ele><time>2026-03-29T16:07:36.525Z</time></trkpt><trkpt lat="44.8787417" lon="0.9536883"><ele>222.60000000000002</ele><time>2026-03-29T16:07:38.526Z</time></trkpt><trkpt lat="44.878895" lon="0.9536783"><ele>223.4</ele><time>2026-03-29T16:07:59.526Z</time></trkpt><trkpt lat="44.8789767" lon="0.95375"><ele>224.2</ele><time>2026-03-29T16:08:01.526Z</time></trkpt><trkpt lat="44.87903" lon="0.953805"><ele>225.0</ele><time>2026-03-29T16:08:02.526Z</time></trkpt><trkpt lat="44.8790767" lon="0.9538767"><ele>225.0</ele><time>2026-03-29T16:08:03.525Z</time></trkpt><trkpt lat="44.87912" lon="0.95395"><ele>225.0</ele><time>2026-03-29T16:08:04.525Z</time></trkpt><trkpt lat="44.8791667" lon="0.95403"><ele>225.0</ele><time>2026-03-29T16:08:05.525Z</time></trkpt><trkpt lat="44.8792117" lon="0.9541333"><ele>225.0</ele><time>2026-03-29T16:08:06.526Z</time></trkpt><trkpt lat="44.8792483" lon="0.9542433"><ele>225.0</ele><time>2026-03-29T16:08:07.525Z</time></trkpt><trkpt lat="44.8792867" lon="0.9543767"><ele>225.0</ele><time>2026-03-29T16:08:08.525Z</time></trkpt><trkpt lat="44.8793183" lon="0.9545133"><ele>223.5</ele><time>2026-03-29T16:08:09.525Z</time></trkpt><trkpt lat="44.8793717" lon="0.954665"><ele>222.0</ele><time>2026-03-29T16:08:10.525Z</time></trkpt><trkpt lat="44.8794367" lon="0.9548283"><ele>220.5</ele><time>2026-03-29T16:08:11.526Z</time></trkpt><trkpt lat="44.87953" lon="0.9549667"><ele>219.0</ele><time>2026-03-29T16:08:12.525Z</time></trkpt><trkpt lat="44.8796333" lon="0.9551033"><ele>222.5</ele><time>2026-03-29T16:08:13.526Z</time></trkpt><trkpt lat="44.8797433" lon="0.9552233"><ele>226.0</ele><time>2026-03-29T16:08:14.525Z</time></trkpt><trkpt lat="44.8798483" lon="0.955315"><ele>229.5</ele><time>2026-03-29T16:08:15.525Z</time></trkpt><trkpt lat="44.8799333" lon="0.9554067"><ele>233.0</ele><time>2026-03-29T16:08:16.525Z</time></trkpt><trkpt lat="44.880015" lon="0.9555083"><ele>233.0</ele><time>2026-03-29T16:08:17.526Z</time></trkpt><trkpt lat="44.8800917" lon="0.9556133"><ele>233.0</ele><time>2026-03-29T16:08:18.525Z</time></trkpt><trkpt lat="44.8801567" lon="0.95574"><ele>233.0</ele><time>2026-03-29T16:08:19.525Z</time></trkpt><trkpt lat="44.88022" lon="0.9558817"><ele>233.0</ele><time>2026-03-29T16:08:20.526Z</time></trkpt><trkpt lat="44.88028" lon="0.95604"><ele>230.25</ele><time>2026-03-29T16:08:21.526Z</time></trkpt><trkpt lat="44.88033" lon="0.9562"><ele>227.5</ele><time>2026-03-29T16:08:22.525Z</time></trkpt><trkpt lat="44.8803717" lon="0.9563533"><ele>224.75</ele><time>2026-03-29T16:08:23.525Z</time></trkpt><trkpt lat="44.8804067" lon="0.9565233"><ele>222.0</ele><time>2026-03-29T16:08:24.526Z</time></trkpt><trkpt lat="44.8804383" lon="0.956685"><ele>221.5</ele><time>2026-03-29T16:08:25.525Z</time></trkpt><trkpt lat="44.8804283" lon="0.9568433"><ele>221.0</ele><time>2026-03-29T16:08:26.525Z</time></trkpt><trkpt lat="44.8804133" lon="0.9570167"><ele>220.5</ele><time>2026-03-29T16:08:27.525Z</time></trkpt><trkpt lat="44.8803933" lon="0.9571767"><ele>220.0</ele><time>2026-03-29T16:08:28.525Z</time></trkpt><trkpt lat="44.8803617" lon="0.9573317"><ele>220.0</ele><time>2026-03-29T16:08:29.525Z</time></trkpt><trkpt lat="44.8803183" lon="0.9574633"><ele>220.0</ele><time>2026-03-29T16:08:30.525Z</time></trkpt><trkpt lat="44.8802767" lon="0.9575717"><ele>220.0</ele><time>2026-03-29T16:08:31.525Z</time></trkpt><trkpt lat="44.880205" lon="0.9576783"><ele>220.0</ele><time>2026-03-29T16:08:32.525Z</time></trkpt><trkpt lat="44.8801383" lon="0.9577683"><ele>220.0</ele><time>2026-03-29T16:08:33.525Z</time></trkpt><trkpt lat="44.8800683" lon="0.9578417"><ele>219.33333333333331</ele><time>2026-03-29T16:08:34.526Z</time></trkpt><trkpt lat="44.88" lon="0.957905"><ele>218.66666666666666</ele><time>2026-03-29T16:08:35.525Z</time></trkpt><trkpt lat="44.879945" lon="0.9579767"><ele>218.0</ele><time>2026-03-29T16:08:36.526Z</time></trkpt><trkpt lat="44.8799133" lon="0.958055"><ele>217.33333333333331</ele><time>2026-03-29T16:08:37.525Z</time></trkpt><trkpt lat="44.879895" lon="0.9581833"><ele>216.66666666666666</ele><time>2026-03-29T16:08:39.526Z</time></trkpt><trkpt lat="44.8799333" lon="0.9582783"><ele>216.0</ele><time>2026-03-29T16:08:41.525Z</time></trkpt><trkpt lat="44.87988" lon="0.9583483"><ele>216.0</ele><time>2026-03-29T16:08:45.525Z</time></trkpt><trkpt lat="44.8797483" lon="0.958295"><ele>216.00000000000003</ele><time>2026-03-29T16:08:47.525Z</time></trkpt><trkpt lat="44.8796533" lon="0.9582567"><ele>216.00000000000003</ele><time>2026-03-29T16:08:48.526Z</time></trkpt><trkpt lat="44.8795567" lon="0.9582267"><ele>216.0</ele><time>2026-03-29T16:08:49.526Z</time></trkpt><trkpt lat="44.879455" lon="0.9581967"><ele>216.0</ele><time>2026-03-29T16:08:50.525Z</time></trkpt><trkpt lat="44.8793517" lon="0.9581983"><ele>216.0</ele><time>2026-03-29T16:08:51.525Z</time></trkpt><trkpt lat="44.879255" lon="0.9582067"><ele>216.00000000000003</ele><time>2026-03-29T16:08:52.526Z</time></trkpt><trkpt lat="44.879155" lon="0.958245"><ele>216.00000000000003</ele><time>2026-03-29T16:08:53.525Z</time></trkpt><trkpt lat="44.87907" lon="0.95829"><ele>216.0</ele><time>2026-03-29T16:08:54.525Z</time></trkpt><trkpt lat="44.8789867" lon="0.9583833"><ele>216.0</ele><time>2026-03-29T16:08:55.525Z</time></trkpt><trkpt lat="44.8789283" lon="0.9584667"><ele>213.83333333333334</ele><time>2026-03-29T16:08:56.526Z</time></trkpt><trkpt lat="44.878895" lon="0.9585533"><ele>211.66666666666669</ele><time>2026-03-29T16:08:57.526Z</time></trkpt><trkpt lat="44.87887" lon="0.9586867"><ele>209.5</ele><time>2026-03-29T16:08:59.525Z</time></trkpt><trkpt lat="44.8788417" lon="0.9588133"><ele>207.33333333333334</ele><time>2026-03-29T16:09:01.525Z</time></trkpt><trkpt lat="44.8788183" lon="0.95891"><ele>205.16666666666669</ele><time>2026-03-29T16:09:02.525Z</time></trkpt><trkpt lat="44.87879" lon="0.95901"><ele>203.0</ele><time>2026-03-29T16:09:03.526Z</time></trkpt><trkpt lat="44.878745" lon="0.959095"><ele>203.00000000000003</ele><time>2026-03-29T16:09:04.525Z</time></trkpt><trkpt lat="44.8786783" lon="0.9591917"><ele>203.0</ele><time>2026-03-29T16:09:05.525Z</time></trkpt><trkpt lat="44.87862" lon="0.9592883"><ele>203.0</ele><time>2026-03-29T16:09:06.525Z</time></trkpt><trkpt lat="44.8785833" lon="0.95937"><ele>203.0</ele><time>2026-03-29T16:09:07.525Z</time></trkpt><trkpt lat="44.8785417" lon="0.9594917"><ele>203.00000000000003</ele><time>2026-03-29T16:09:09.526Z</time></trkpt><trkpt lat="44.8785317" lon="0.9595867"><ele>203.0</ele><time>2026-03-29T16:09:11.526Z</time></trkpt><trkpt lat="44.8785183" lon="0.9597217"><ele>203.0</ele><time>2026-03-29T16:09:13.525Z</time></trkpt><trkpt lat="44.878505" lon="0.959855"><ele>203.0</ele><time>2026-03-29T16:09:15.526Z</time></trkpt><trkpt lat="44.87846" lon="0.959975"><ele>203.0</ele><time>2026-03-29T16:09:17.525Z</time></trkpt><trkpt lat="44.8783933" lon="0.96009"><ele>203.0</ele><time>2026-03-29T16:09:19.526Z</time></trkpt><trkpt lat="44.8783333" lon="0.96018"><ele>203.0</ele><time>2026-03-29T16:09:21.525Z</time></trkpt><trkpt lat="44.87822" lon="0.9602833"><ele>203.00000000000003</ele><time>2026-03-29T16:09:23.525Z</time></trkpt><trkpt lat="44.87816" lon="0.9603217"><ele>203.0</ele><time>2026-03-29T16:09:24.525Z</time></trkpt><trkpt lat="44.878095" lon="0.9603467"><ele>203.0</ele><time>2026-03-29T16:09:25.525Z</time></trkpt><trkpt lat="44.8780283" lon="0.9603617"><ele>203.0</ele><time>2026-03-29T16:09:26.525Z</time></trkpt><trkpt lat="44.8779133" lon="0.9603933"><ele>203.00000000000003</ele><time>2026-03-29T16:09:28.526Z</time></trkpt><trkpt lat="44.8777967" lon="0.960435"><ele>203.0</ele><time>2026-03-29T16:09:30.526Z</time></trkpt><trkpt lat="44.8776517" lon="0.9605267"><ele>202.66666666666669</ele><time>2026-03-29T16:09:32.525Z</time></trkpt><trkpt lat="44.8775933" lon="0.9605733"><ele>202.33333333333334</ele><time>2026-03-29T16:09:33.526Z</time></trkpt><trkpt lat="44.8775333" lon="0.9606083"><ele>202.0</ele><time>2026-03-29T16:09:34.525Z</time></trkpt><trkpt lat="44.877465" lon="0.96067"><ele>201.66666666666669</ele><time>2026-03-29T16:09:35.525Z</time></trkpt><trkpt lat="44.8774" lon="0.9607117"><ele>201.33333333333334</ele><time>2026-03-29T16:09:36.525Z</time></trkpt><trkpt lat="44.8773367" lon="0.9607833"><ele>201.0</ele><time>2026-03-29T16:09:37.525Z</time></trkpt><trkpt lat="44.8772517" lon="0.9609017"><ele>201.0</ele><time>2026-03-29T16:09:39.525Z</time></trkpt><trkpt lat="44.8771717" lon="0.9610883"><ele>201.0</ele><time>2026-03-29T16:09:41.525Z</time></trkpt><trkpt lat="44.8771217" lon="0.9612283"><ele>201.0</ele><time>2026-03-29T16:09:42.525Z</time></trkpt><trkpt lat="44.877055" lon="0.961395"><ele>201.0</ele><time>2026-03-29T16:09:43.526Z</time></trkpt><trkpt lat="44.8769567" lon="0.9615983"><ele>200.0</ele><time>2026-03-29T16:09:44.526Z</time></trkpt><trkpt lat="44.8768717" lon="0.961775"><ele>199.0</ele><time>2026-03-29T16:09:45.526Z</time></trkpt><trkpt lat="44.8768133" lon="0.961945"><ele>198.0</ele><time>2026-03-29T16:09:46.525Z</time></trkpt><trkpt lat="44.876735" lon="0.9621967"><ele>203.33333333333331</ele><time>2026-03-29T16:09:47.525Z</time></trkpt><trkpt lat="44.876665" lon="0.9624333"><ele>208.66666666666666</ele><time>2026-03-29T16:09:48.526Z</time></trkpt><trkpt lat="44.87659" lon="0.9626933"><ele>214.0</ele><time>2026-03-29T16:09:49.526Z</time></trkpt><trkpt lat="44.8765217" lon="0.9629183"><ele>214.0</ele><time>2026-03-29T16:09:50.525Z</time></trkpt><trkpt lat="44.8764767" lon="0.9630783"><ele>213.99999999999997</ele><time>2026-03-29T16:09:51.526Z</time></trkpt><trkpt lat="44.8764433" lon="0.9632033"><ele>213.99999999999997</ele><time>2026-03-29T16:09:52.525Z</time></trkpt><trkpt lat="44.8764233" lon="0.9633117"><ele>214.0</ele><time>2026-03-29T16:09:53.526Z</time></trkpt><trkpt lat="44.8763983" lon="0.9634033"><ele>214.0</ele><time>2026-03-29T16:09:54.525Z</time></trkpt><trkpt lat="44.8763583" lon="0.9632767"><ele>214.0</ele><time>2026-03-29T16:09:58.525Z</time></trkpt><trkpt lat="44.8762883" lon="0.9630417"><ele>214.0</ele><time>2026-03-29T16:09:59.525Z</time></trkpt><trkpt lat="44.876225" lon="0.9628483"><ele>214.0</ele><time>2026-03-29T16:10:00.525Z</time></trkpt><trkpt lat="44.876175" lon="0.9626683"><ele>214.6</ele><time>2026-03-29T16:10:01.526Z</time></trkpt><trkpt lat="44.876125" lon="0.9625133"><ele>215.2</ele><time>2026-03-29T16:10:02.525Z</time></trkpt><trkpt lat="44.8760983" lon="0.9623583"><ele>215.79999999999998</ele><time>2026-03-29T16:10:03.525Z</time></trkpt><trkpt lat="44.8760817" lon="0.9621967"><ele>216.39999999999998</ele><time>2026-03-29T16:10:04.525Z</time></trkpt><trkpt lat="44.8760733" lon="0.96207"><ele>217.0</ele><time>2026-03-29T16:10:05.525Z</time></trkpt><trkpt lat="44.8760683" lon="0.9619367"><ele>217.0</ele><time>2026-03-29T16:10:06.525Z</time></trkpt><trkpt lat="44.8760633" lon="0.961825"><ele>217.0</ele><time>2026-03-29T16:10:07.525Z</time></trkpt><trkpt lat="44.87606" lon="0.96164"><ele>217.0</ele><time>2026-03-29T16:10:09.526Z</time></trkpt><trkpt lat="44.87605" lon="0.9615333"><ele>217.0</ele><time>2026-03-29T16:10:10.525Z</time></trkpt><trkpt lat="44.8760383" lon="0.9613967"><ele>217.0</ele><time>2026-03-29T16:10:11.526Z</time></trkpt><trkpt lat="44.876035" lon="0.96125"><ele>217.25</ele><time>2026-03-29T16:10:12.526Z</time></trkpt><trkpt lat="44.87604" lon="0.9610883"><ele>217.5</ele><time>2026-03-29T16:10:13.525Z</time></trkpt><trkpt lat="44.8760517" lon="0.9609267"><ele>217.75</ele><time>2026-03-29T16:10:14.525Z</time></trkpt><trkpt lat="44.8760617" lon="0.9607367"><ele>218.0</ele><time>2026-03-29T16:10:15.526Z</time></trkpt><trkpt lat="44.8760617" lon="0.9605267"><ele>218.0</ele><time>2026-03-29T16:10:16.526Z</time></trkpt><trkpt lat="44.8760817" lon="0.960325"><ele>218.0</ele><time>2026-03-29T16:10:17.525Z</time></trkpt><trkpt lat="44.8760883" lon="0.9601283"><ele>218.0</ele><time>2026-03-29T16:10:18.525Z</time></trkpt><trkpt lat="44.876085" lon="0.9599483"><ele>218.0</ele><time>2026-03-29T16:10:19.526Z</time></trkpt><trkpt lat="44.876075" lon="0.9597833"><ele>218.16666666666669</ele><time>2026-03-29T16:10:20.526Z</time></trkpt><trkpt lat="44.87606" lon="0.9596483"><ele>218.33333333333334</ele><time>2026-03-29T16:10:21.526Z</time></trkpt><trkpt lat="44.8760567" lon="0.95953"><ele>218.5</ele><time>2026-03-29T16:10:22.526Z</time></trkpt><trkpt lat="44.8760617" lon="0.9594233"><ele>218.66666666666669</ele><time>2026-03-29T16:10:23.526Z</time></trkpt><trkpt lat="44.8760683" lon="0.959315"><ele>218.83333333333334</ele><time>2026-03-29T16:10:24.525Z</time></trkpt><trkpt lat="44.87607" lon="0.9592017"><ele>219.0</ele><time>2026-03-29T16:10:25.526Z</time></trkpt><trkpt lat="44.8760733" lon="0.95911"><ele>220.79999999999998</ele><time>2026-03-29T16:10:26.526Z</time></trkpt><trkpt lat="44.8760783" lon="0.9589583"><ele>222.59999999999997</ele><time>2026-03-29T16:10:28.525Z</time></trkpt><trkpt lat="44.8760783" lon="0.958835"><ele>224.4</ele><time>2026-03-29T16:10:30.526Z</time></trkpt><trkpt lat="44.87601" lon="0.95882"><ele>226.2</ele><time>2026-03-29T16:10:34.526Z</time></trkpt><trkpt lat="44.87595" lon="0.9589117"><ele>228.0</ele><time>2026-03-29T16:10:36.526Z</time></trkpt><trkpt lat="44.8759" lon="0.9590433"><ele>227.75</ele><time>2026-03-29T16:10:37.525Z</time></trkpt><trkpt lat="44.8758533" lon="0.959195"><ele>227.5</ele><time>2026-03-29T16:10:38.526Z</time></trkpt><trkpt lat="44.8757967" lon="0.9593517"><ele>227.25</ele><time>2026-03-29T16:10:39.525Z</time></trkpt><trkpt lat="44.8757483" lon="0.9595167"><ele>227.0</ele><time>2026-03-29T16:10:40.525Z</time></trkpt><trkpt lat="44.8757033" lon="0.9596817"><ele>227.0</ele><time>2026-03-29T16:10:41.524Z</time></trkpt><trkpt lat="44.8756533" lon="0.9598583"><ele>227.0</ele><time>2026-03-29T16:10:42.524Z</time></trkpt><trkpt lat="44.8756067" lon="0.9600267"><ele>227.0</ele><time>2026-03-29T16:10:43.524Z</time></trkpt><trkpt lat="44.8755533" lon="0.9602083"><ele>227.0</ele><time>2026-03-29T16:10:44.524Z</time></trkpt><trkpt lat="44.875515" lon="0.96038"><ele>227.16666666666669</ele><time>2026-03-29T16:10:45.525Z</time></trkpt><trkpt lat="44.8754767" lon="0.9605283"><ele>227.33333333333334</ele><time>2026-03-29T16:10:46.524Z</time></trkpt><trkpt lat="44.87545" lon="0.9606433"><ele>227.5</ele><time>2026-03-29T16:10:47.525Z</time></trkpt><trkpt lat="44.8754267" lon="0.96073"><ele>227.66666666666669</ele><time>2026-03-29T16:10:48.525Z</time></trkpt><trkpt lat="44.8753917" lon="0.960825"><ele>227.83333333333334</ele><time>2026-03-29T16:10:50.525Z</time></trkpt><trkpt lat="44.875345" lon="0.960885"><ele>228.0</ele><time>2026-03-29T16:10:54.525Z</time></trkpt><trkpt lat="44.8752983" lon="0.9607633"><ele>228.2</ele><time>2026-03-29T16:10:57.524Z</time></trkpt><trkpt lat="44.8752533" lon="0.9604917"><ele>228.4</ele><time>2026-03-29T16:11:00.525Z</time></trkpt><trkpt lat="44.875235" lon="0.960395"><ele>228.59999999999997</ele><time>2026-03-29T16:11:01.524Z</time></trkpt><trkpt lat="44.8752083" lon="0.96025"><ele>228.79999999999998</ele><time>2026-03-29T16:11:03.525Z</time></trkpt><trkpt lat="44.875175" lon="0.96016"><ele>229.0</ele><time>2026-03-29T16:11:07.524Z</time></trkpt><trkpt lat="44.8750983" lon="0.96012"><ele>227.83333333333331</ele><time>2026-03-29T16:11:13.524Z</time></trkpt><trkpt lat="44.87502" lon="0.960135"><ele>226.66666666666666</ele><time>2026-03-29T16:11:16.524Z</time></trkpt><trkpt lat="44.8749367" lon="0.9601717"><ele>225.5</ele><time>2026-03-29T16:11:19.525Z</time></trkpt><trkpt lat="44.8748483" lon="0.960215"><ele>224.33333333333331</ele><time>2026-03-29T16:11:22.524Z</time></trkpt><trkpt lat="44.87479" lon="0.9602683"><ele>223.16666666666666</ele><time>2026-03-29T16:11:25.525Z</time></trkpt><trkpt lat="44.8747267" lon="0.96032"><ele>222.0</ele><time>2026-03-29T16:11:28.525Z</time></trkpt><trkpt lat="44.8746633" lon="0.960415"><ele>222.0</ele><time>2026-03-29T16:11:31.524Z</time></trkpt><trkpt lat="44.874665" lon="0.9605133"><ele>222.0</ele><time>2026-03-29T16:11:33.525Z</time></trkpt><trkpt lat="44.8746717" lon="0.960615"><ele>222.0</ele><time>2026-03-29T16:11:35.525Z</time></trkpt><trkpt lat="44.8746467" lon="0.96073"><ele>222.0</ele><time>2026-03-29T16:11:38.524Z</time></trkpt><trkpt lat="44.874605" lon="0.960805"><ele>222.0</ele><time>2026-03-29T16:11:40.524Z</time></trkpt><trkpt lat="44.8745533" lon="0.9608933"><ele>222.0</ele><time>2026-03-29T16:11:43.525Z</time></trkpt><trkpt lat="44.87449" lon="0.9609633"><ele>222.71428571428572</ele><time>2026-03-29T16:11:46.524Z</time></trkpt><trkpt lat="44.8744383" lon="0.96102"><ele>223.42857142857144</ele><time>2026-03-29T16:11:48.524Z</time></trkpt><trkpt lat="44.87438" lon="0.9610717"><ele>224.14285714285717</ele><time>2026-03-29T16:11:50.525Z</time></trkpt><trkpt lat="44.8743183" lon="0.9611117"><ele>224.85714285714286</ele><time>2026-03-29T16:11:52.524Z</time></trkpt><trkpt lat="44.8742483" lon="0.961145"><ele>225.5714285714286</ele><time>2026-03-29T16:11:54.524Z</time></trkpt><trkpt lat="44.8741867" lon="0.96121"><ele>226.2857142857143</ele><time>2026-03-29T16:11:58.525Z</time></trkpt><trkpt lat="44.8741333" lon="0.96132"><ele>227.0</ele><time>2026-03-29T16:12:02.524Z</time></trkpt><trkpt lat="44.8741033" lon="0.96143"><ele>227.00000000000003</ele><time>2026-03-29T16:12:04.524Z</time></trkpt><trkpt lat="44.8740617" lon="0.96151"><ele>227.0</ele><time>2026-03-29T16:12:06.525Z</time></trkpt><trkpt lat="44.8740317" lon="0.9616033"><ele>227.0</ele><time>2026-03-29T16:12:09.525Z</time></trkpt><trkpt lat="44.8739867" lon="0.9616833"><ele>227.0</ele><time>2026-03-29T16:12:13.525Z</time></trkpt><trkpt lat="44.873915" lon="0.961725"><ele>227.00000000000003</ele><time>2026-03-29T16:12:17.524Z</time></trkpt><trkpt lat="44.8738233" lon="0.961715"><ele>227.0</ele><time>2026-03-29T16:12:20.524Z</time></trkpt><trkpt lat="44.8737633" lon="0.96177"><ele>227.00000000000003</ele><time>2026-03-29T16:12:23.525Z</time></trkpt><trkpt lat="44.8737967" lon="0.9619133"><ele>227.0</ele><time>2026-03-29T16:12:51.524Z</time></trkpt><trkpt lat="44.8738733" lon="0.9618867"><ele>227.0</ele><time>2026-03-29T16:12:56.524Z</time></trkpt><trkpt lat="44.8739033" lon="0.9617717"><ele>227.0</ele><time>2026-03-29T16:12:59.525Z</time></trkpt><trkpt lat="44.8739583" lon="0.9616933"><ele>227.00000000000003</ele><time>2026-03-29T16:13:03.524Z</time></trkpt><trkpt lat="44.8739983" lon="0.9616017"><ele>227.0</ele><time>2026-03-29T16:13:06.524Z</time></trkpt><trkpt lat="44.8740533" lon="0.9615067"><ele>227.00000000000003</ele><time>2026-03-29T16:13:09.525Z</time></trkpt><trkpt lat="44.874095" lon="0.9613983"><ele>227.0</ele><time>2026-03-29T16:13:12.525Z</time></trkpt><trkpt lat="44.8741383" lon="0.961315"><ele>227.0</ele><time>2026-03-29T16:13:14.524Z</time></trkpt><trkpt lat="44.874175" lon="0.961225"><ele>227.0</ele><time>2026-03-29T16:13:17.524Z</time></trkpt><trkpt lat="44.874245" lon="0.9611683"><ele>227.00000000000003</ele><time>2026-03-29T16:13:21.525Z</time></trkpt><trkpt lat="44.87432" lon="0.961115"><ele>227.0</ele><time>2026-03-29T16:13:24.525Z</time></trkpt><trkpt lat="44.8743783" lon="0.9610717"><ele>227.33333333333334</ele><time>2026-03-29T16:13:26.525Z</time></trkpt><trkpt lat="44.874435" lon="0.961025"><ele>227.66666666666669</ele><time>2026-03-29T16:13:29.524Z</time></trkpt><trkpt lat="44.874505" lon="0.9609583"><ele>228.0</ele><time>2026-03-29T16:13:32.524Z</time></trkpt><trkpt lat="44.874555" lon="0.9609"><ele>228.33333333333331</ele><time>2026-03-29T16:13:34.524Z</time></trkpt><trkpt lat="44.87462" lon="0.9608183"><ele>228.66666666666666</ele><time>2026-03-29T16:13:37.525Z</time></trkpt><trkpt lat="44.8746583" lon="0.960705"><ele>229.0</ele><time>2026-03-29T16:13:41.525Z</time></trkpt><trkpt lat="44.8746517" lon="0.9605683"><ele>227.83333333333331</ele><time>2026-03-29T16:13:44.524Z</time></trkpt><trkpt lat="44.8746467" lon="0.9604617"><ele>226.66666666666666</ele><time>2026-03-29T16:13:47.525Z</time></trkpt><trkpt lat="44.87468" lon="0.9603667"><ele>225.5</ele><time>2026-03-29T16:13:50.525Z</time></trkpt><trkpt lat="44.8747433" lon="0.9603133"><ele>224.33333333333331</ele><time>2026-03-29T16:13:52.524Z</time></trkpt><trkpt lat="44.8748167" lon="0.9602533"><ele>223.16666666666666</ele><time>2026-03-29T16:13:54.525Z</time></trkpt><trkpt lat="44.87489" lon="0.9602233"><ele>222.0</ele><time>2026-03-29T16:13:56.524Z</time></trkpt><trkpt lat="44.87497" lon="0.9601817"><ele>222.0</ele><time>2026-03-29T16:13:58.525Z</time></trkpt><trkpt lat="44.8750567" lon="0.9601567"><ele>222.0</ele><time>2026-03-29T16:14:00.524Z</time></trkpt><trkpt lat="44.875145" lon="0.9600533"><ele>222.0</ele><time>2026-03-29T16:14:05.525Z</time></trkpt><trkpt lat="44.8751417" lon="0.9599217"><ele>222.0</ele><time>2026-03-29T16:14:07.524Z</time></trkpt><trkpt lat="44.8751133" lon="0.95976"><ele>222.0</ele><time>2026-03-29T16:14:09.524Z</time></trkpt><trkpt lat="44.8750917" lon="0.9596033"><ele>221.83333333333334</ele><time>2026-03-29T16:14:11.524Z</time></trkpt><trkpt lat="44.8750783" lon="0.95947"><ele>221.66666666666669</ele><time>2026-03-29T16:14:13.524Z</time></trkpt><trkpt lat="44.875035" lon="0.95933"><ele>221.5</ele><time>2026-03-29T16:14:15.524Z</time></trkpt><trkpt lat="44.8750083" lon="0.9592417"><ele>221.33333333333334</ele><time>2026-03-29T16:14:16.525Z</time></trkpt><trkpt lat="44.8749733" lon="0.9591433"><ele>221.16666666666669</ele><time>2026-03-29T16:14:17.525Z</time></trkpt><trkpt lat="44.874945" lon="0.95903"><ele>221.0</ele><time>2026-03-29T16:14:18.524Z</time></trkpt><trkpt lat="44.8749167" lon="0.9589267"><ele>221.00000000000003</ele><time>2026-03-29T16:14:19.525Z</time></trkpt><trkpt lat="44.874885" lon="0.95882"><ele>221.0</ele><time>2026-03-29T16:14:20.524Z</time></trkpt><trkpt lat="44.8748533" lon="0.9587033"><ele>221.0</ele><time>2026-03-29T16:14:21.525Z</time></trkpt><trkpt lat="44.87483" lon="0.9585967"><ele>221.0</ele><time>2026-03-29T16:14:22.525Z</time></trkpt><trkpt lat="44.87479" lon="0.9584783"><ele>221.00000000000003</ele><time>2026-03-29T16:14:23.524Z</time></trkpt><trkpt lat="44.8747617" lon="0.9583533"><ele>221.0</ele><time>2026-03-29T16:14:24.524Z</time></trkpt><trkpt lat="44.874725" lon="0.9582433"><ele>221.71428571428572</ele><time>2026-03-29T16:14:25.524Z</time></trkpt><trkpt lat="44.874685" lon="0.95815"><ele>222.42857142857144</ele><time>2026-03-29T16:14:26.525Z</time></trkpt><trkpt lat="44.87465" lon="0.9580617"><ele>223.14285714285717</ele><time>2026-03-29T16:14:27.525Z</time></trkpt><trkpt lat="44.87462" lon="0.9579717"><ele>223.85714285714286</ele><time>2026-03-29T16:14:28.524Z</time></trkpt><trkpt lat="44.8745967" lon="0.9578817"><ele>224.57142857142856</ele><time>2026-03-29T16:14:29.525Z</time></trkpt><trkpt lat="44.8745767" lon="0.9577833"><ele>225.2857142857143</ele><time>2026-03-29T16:14:30.523Z</time></trkpt><trkpt lat="44.87456" lon="0.957685"><ele>226.0</ele><time>2026-03-29T16:14:31.523Z</time></trkpt><trkpt lat="44.8745467" lon="0.957585"><ele>225.99999999999997</ele><time>2026-03-29T16:14:32.523Z</time></trkpt><trkpt lat="44.87454" lon="0.95747"><ele>226.0</ele><time>2026-03-29T16:14:33.524Z</time></trkpt><trkpt lat="44.8745267" lon="0.9573533"><ele>226.0</ele><time>2026-03-29T16:14:34.523Z</time></trkpt><trkpt lat="44.8745183" lon="0.9572417"><ele>226.0</ele><time>2026-03-29T16:14:35.523Z</time></trkpt><trkpt lat="44.8745067" lon="0.9571533"><ele>225.99999999999997</ele><time>2026-03-29T16:14:36.524Z</time></trkpt><trkpt lat="44.874495" lon="0.9570017"><ele>226.0</ele><time>2026-03-29T16:14:38.524Z</time></trkpt><trkpt lat="44.8744733" lon="0.9568517"><ele>225.99999999999997</ele><time>2026-03-29T16:14:40.523Z</time></trkpt><trkpt lat="44.8744767" lon="0.956755"><ele>226.0</ele><time>2026-03-29T16:14:42.524Z</time></trkpt><trkpt lat="44.8744583" lon="0.9566483"><ele>226.0</ele><time>2026-03-29T16:14:45.524Z</time></trkpt><trkpt lat="44.87438" lon="0.9565817"><ele>226.0</ele><time>2026-03-29T16:14:47.523Z</time></trkpt><trkpt lat="44.87431" lon="0.95654"><ele>225.99999999999997</ele><time>2026-03-29T16:14:48.524Z</time></trkpt><trkpt lat="44.874245" lon="0.9564833"><ele>226.0</ele><time>2026-03-29T16:14:49.523Z</time></trkpt><trkpt lat="44.874175" lon="0.9564283"><ele>225.49999999999997</ele><time>2026-03-29T16:14:50.524Z</time></trkpt><trkpt lat="44.8741067" lon="0.9563767"><ele>225.0</ele><time>2026-03-29T16:14:51.523Z</time></trkpt><trkpt lat="44.8740433" lon="0.9563083"><ele>224.5</ele><time>2026-03-29T16:14:52.523Z</time></trkpt><trkpt lat="44.873975" lon="0.9562533"><ele>224.0</ele><time>2026-03-29T16:14:53.524Z</time></trkpt><trkpt lat="44.873905" lon="0.9561967"><ele>223.49999999999997</ele><time>2026-03-29T16:14:54.524Z</time></trkpt><trkpt lat="44.87383" lon="0.95615"><ele>223.0</ele><time>2026-03-29T16:14:55.523Z</time></trkpt><trkpt lat="44.8737733" lon="0.9561083"><ele>223.0</ele><time>2026-03-29T16:14:56.524Z</time></trkpt><trkpt lat="44.8737133" lon="0.956055"><ele>223.0</ele><time>2026-03-29T16:14:57.523Z</time></trkpt><trkpt lat="44.8736533" lon="0.9560033"><ele>223.0</ele><time>2026-03-29T16:14:58.523Z</time></trkpt><trkpt lat="44.873575" lon="0.95593"><ele>223.0</ele><time>2026-03-29T16:14:59.523Z</time></trkpt><trkpt lat="44.8734767" lon="0.9558283"><ele>223.0</ele><time>2026-03-29T16:15:00.523Z</time></trkpt><trkpt lat="44.8733683" lon="0.95573"><ele>223.4</ele><time>2026-03-29T16:15:01.524Z</time></trkpt><trkpt lat="44.87325" lon="0.9556333"><ele>223.8</ele><time>2026-03-29T16:15:02.524Z</time></trkpt><trkpt lat="44.873155" lon="0.9555533"><ele>224.2</ele><time>2026-03-29T16:15:03.523Z</time></trkpt><trkpt lat="44.87308" lon="0.955485"><ele>224.6</ele><time>2026-03-29T16:15:04.523Z</time></trkpt><trkpt lat="44.8730283" lon="0.9554217"><ele>225.0</ele><time>2026-03-29T16:15:05.523Z</time></trkpt><trkpt lat="44.8729933" lon="0.955335"><ele>225.0</ele><time>2026-03-29T16:15:06.524Z</time></trkpt><trkpt lat="44.872955" lon="0.9552383"><ele>225.0</ele><time>2026-03-29T16:15:07.523Z</time></trkpt><trkpt lat="44.8729233" lon="0.9551333"><ele>225.0</ele><time>2026-03-29T16:15:08.523Z</time></trkpt><trkpt lat="44.8728867" lon="0.955"><ele>225.0</ele><time>2026-03-29T16:15:09.523Z</time></trkpt><trkpt lat="44.8728417" lon="0.9548883"><ele>225.0</ele><time>2026-03-29T16:15:10.523Z</time></trkpt><trkpt lat="44.87277" lon="0.9547817"><ele>225.2</ele><time>2026-03-29T16:15:11.524Z</time></trkpt><trkpt lat="44.8727" lon="0.9546967"><ele>225.4</ele><time>2026-03-29T16:15:12.524Z</time></trkpt><trkpt lat="44.8726117" lon="0.9546167"><ele>225.60000000000002</ele><time>2026-03-29T16:15:13.524Z</time></trkpt><trkpt lat="44.8725283" lon="0.954555"><ele>225.8</ele><time>2026-03-29T16:15:14.523Z</time></trkpt><trkpt lat="44.87245" lon="0.9544967"><ele>226.0</ele><time>2026-03-29T16:15:15.523Z</time></trkpt><trkpt lat="44.8723883" lon="0.954425"><ele>225.49999999999997</ele><time>2026-03-29T16:15:16.524Z</time></trkpt><trkpt lat="44.8723483" lon="0.9543467"><ele>225.0</ele><time>2026-03-29T16:15:17.523Z</time></trkpt><trkpt lat="44.8723283" lon="0.9542433"><ele>224.5</ele><time>2026-03-29T16:15:19.524Z</time></trkpt><trkpt lat="44.8722333" lon="0.95423"><ele>224.0</ele><time>2026-03-29T16:15:22.524Z</time></trkpt><trkpt lat="44.8721567" lon="0.9542217"><ele>223.49999999999997</ele><time>2026-03-29T16:15:23.524Z</time></trkpt><trkpt lat="44.8720683" lon="0.9542233"><ele>223.0</ele><time>2026-03-29T16:15:24.524Z</time></trkpt><trkpt lat="44.8719817" lon="0.9542183"><ele>222.99999999999997</ele><time>2026-03-29T16:15:25.523Z</time></trkpt><trkpt lat="44.871895" lon="0.9542167"><ele>223.0</ele><time>2026-03-29T16:15:26.523Z</time></trkpt><trkpt lat="44.871815" lon="0.9542317"><ele>223.0</ele><time>2026-03-29T16:15:27.523Z</time></trkpt><trkpt lat="44.87174" lon="0.9542483"><ele>223.0</ele><time>2026-03-29T16:15:28.524Z</time></trkpt><trkpt lat="44.8716467" lon="0.9543017"><ele>222.99999999999997</ele><time>2026-03-29T16:15:29.523Z</time></trkpt><trkpt lat="44.8715617" lon="0.9543483"><ele>223.0</ele><time>2026-03-29T16:15:30.523Z</time></trkpt><trkpt lat="44.8714783" lon="0.9543917"><ele>221.0</ele><time>2026-03-29T16:15:31.523Z</time></trkpt><trkpt lat="44.871385" lon="0.9544417"><ele>219.0</ele><time>2026-03-29T16:15:32.524Z</time></trkpt><trkpt lat="44.8712967" lon="0.9544967"><ele>217.0</ele><time>2026-03-29T16:15:33.523Z</time></trkpt><trkpt lat="44.87121" lon="0.9545467"><ele>215.0</ele><time>2026-03-29T16:15:34.524Z</time></trkpt><trkpt lat="44.871115" lon="0.954605"><ele>213.0</ele><time>2026-03-29T16:15:35.524Z</time></trkpt><trkpt lat="44.8710133" lon="0.9546683"><ele>210.8</ele><time>2026-03-29T16:15:36.523Z</time></trkpt><trkpt lat="44.8709117" lon="0.9547233"><ele>208.60000000000002</ele><time>2026-03-29T16:15:37.523Z</time></trkpt><trkpt lat="44.870805" lon="0.95478"><ele>206.39999999999998</ele><time>2026-03-29T16:15:38.524Z</time></trkpt><trkpt lat="44.8706983" lon="0.9548333"><ele>204.2</ele><time>2026-03-29T16:15:39.524Z</time></trkpt><trkpt lat="44.8705967" lon="0.954885"><ele>202.0</ele><time>2026-03-29T16:15:40.523Z</time></trkpt><trkpt lat="44.87052" lon="0.9549467"><ele>201.99999999999997</ele><time>2026-03-29T16:15:41.523Z</time></trkpt><trkpt lat="44.8704417" lon="0.954975"><ele>202.0</ele><time>2026-03-29T16:15:42.523Z</time></trkpt><trkpt lat="44.8703517" lon="0.95499"><ele>202.0</ele><time>2026-03-29T16:15:43.523Z</time></trkpt><trkpt lat="44.8702733" lon="0.955015"><ele>202.0</ele><time>2026-03-29T16:15:44.524Z</time></trkpt><trkpt lat="44.8701933" lon="0.9550483"><ele>201.99999999999997</ele><time>2026-03-29T16:15:45.524Z</time></trkpt><trkpt lat="44.8701183" lon="0.9550767"><ele>202.0</ele><time>2026-03-29T16:15:46.524Z</time></trkpt><trkpt lat="44.8700383" lon="0.9551067"><ele>200.66666666666666</ele><time>2026-03-29T16:15:47.524Z</time></trkpt><trkpt lat="44.86996" lon="0.9551383"><ele>199.33333333333331</ele><time>2026-03-29T16:15:48.523Z</time></trkpt><trkpt lat="44.8698867" lon="0.955175"><ele>198.0</ele><time>2026-03-29T16:15:49.524Z</time></trkpt><trkpt lat="44.8698167" lon="0.955205"><ele>196.66666666666669</ele><time>2026-03-29T16:15:50.524Z</time></trkpt><trkpt lat="44.8697533" lon="0.955215"><ele>195.33333333333334</ele><time>2026-03-29T16:15:51.524Z</time></trkpt><trkpt lat="44.8696883" lon="0.9552233"><ele>194.0</ele><time>2026-03-29T16:15:52.524Z</time></trkpt><trkpt lat="44.8695733" lon="0.9552183"><ele>194.00000000000003</ele><time>2026-03-29T16:15:54.524Z</time></trkpt><trkpt lat="44.8694467" lon="0.955215"><ele>194.0</ele><time>2026-03-29T16:15:56.523Z</time></trkpt><trkpt lat="44.8693833" lon="0.9552283"><ele>194.0</ele><time>2026-03-29T16:15:57.523Z</time></trkpt><trkpt lat="44.8693183" lon="0.9552417"><ele>194.0</ele><time>2026-03-29T16:15:58.524Z</time></trkpt><trkpt lat="44.869255" lon="0.9552417"><ele>194.00000000000003</ele><time>2026-03-29T16:15:59.524Z</time></trkpt><trkpt lat="44.8691367" lon="0.9552483"><ele>194.0</ele><time>2026-03-29T16:16:01.524Z</time></trkpt><trkpt lat="44.8690367" lon="0.95524"><ele>193.33333333333334</ele><time>2026-03-29T16:16:03.523Z</time></trkpt><trkpt lat="44.8689733" lon="0.9552167"><ele>192.66666666666669</ele><time>2026-03-29T16:16:06.524Z</time></trkpt><trkpt lat="44.868895" lon="0.9552733"><ele>192.0</ele><time>2026-03-29T16:16:09.524Z</time></trkpt><trkpt lat="44.8688317" lon="0.9554233"><ele>191.33333333333334</ele><time>2026-03-29T16:16:11.524Z</time></trkpt><trkpt lat="44.8688117" lon="0.9555267"><ele>190.66666666666669</ele><time>2026-03-29T16:16:12.523Z</time></trkpt><trkpt lat="44.8687967" lon="0.9556433"><ele>190.0</ele><time>2026-03-29T16:16:13.524Z</time></trkpt><trkpt lat="44.8687933" lon="0.9557567"><ele>190.0</ele><time>2026-03-29T16:16:14.524Z</time></trkpt><trkpt lat="44.8688067" lon="0.9558683"><ele>190.0</ele><time>2026-03-29T16:16:15.523Z</time></trkpt><trkpt lat="44.86883" lon="0.9559717"><ele>190.0</ele><time>2026-03-29T16:16:16.524Z</time></trkpt><trkpt lat="44.8688683" lon="0.9560567"><ele>190.0</ele><time>2026-03-29T16:16:17.524Z</time></trkpt><trkpt lat="44.868915" lon="0.9561467"><ele>190.0</ele><time>2026-03-29T16:16:18.523Z</time></trkpt><trkpt lat="44.868985" lon="0.956215"><ele>190.0</ele><time>2026-03-29T16:16:19.523Z</time></trkpt><trkpt lat="44.86907" lon="0.9562583"><ele>189.0</ele><time>2026-03-29T16:16:20.524Z</time></trkpt><trkpt lat="44.8691467" lon="0.9563033"><ele>188.0</ele><time>2026-03-29T16:16:21.523Z</time></trkpt><trkpt lat="44.8692417" lon="0.95634"><ele>187.0</ele><time>2026-03-29T16:16:22.524Z</time></trkpt><trkpt lat="44.8693417" lon="0.956375"><ele>186.0</ele><time>2026-03-29T16:16:23.524Z</time></trkpt><trkpt lat="44.8694517" lon="0.95641"><ele>185.0</ele><time>2026-03-29T16:16:24.523Z</time></trkpt><trkpt lat="44.8695783" lon="0.95645"><ele>184.25</ele><time>2026-03-29T16:16:25.524Z</time></trkpt><trkpt lat="44.8697117" lon="0.9564967"><ele>183.5</ele><time>2026-03-29T16:16:26.523Z</time></trkpt><trkpt lat="44.8698483" lon="0.95655"><ele>182.75</ele><time>2026-03-29T16:16:27.524Z</time></trkpt><trkpt lat="44.869965" lon="0.9566167"><ele>182.0</ele><time>2026-03-29T16:16:28.524Z</time></trkpt><trkpt lat="44.87007" lon="0.9567"><ele>179.5</ele><time>2026-03-29T16:16:29.523Z</time></trkpt><trkpt lat="44.870175" lon="0.9567983"><ele>177.0</ele><time>2026-03-29T16:16:30.524Z</time></trkpt><trkpt lat="44.8702817" lon="0.9569"><ele>174.5</ele><time>2026-03-29T16:16:31.523Z</time></trkpt><trkpt lat="44.8703917" lon="0.957"><ele>172.0</ele><time>2026-03-29T16:16:32.523Z</time></trkpt><trkpt lat="44.8704983" lon="0.9571017"><ele>172.0</ele><time>2026-03-29T16:16:33.524Z</time></trkpt><trkpt lat="44.8705967" lon="0.9572017"><ele>172.0</ele><time>2026-03-29T16:16:34.524Z</time></trkpt><trkpt lat="44.8706733" lon="0.9573167"><ele>172.0</ele><time>2026-03-29T16:16:35.524Z</time></trkpt><trkpt lat="44.8707383" lon="0.9574417"><ele>172.0</ele><time>2026-03-29T16:16:36.523Z</time></trkpt><trkpt lat="44.8707617" lon="0.95758"><ele>172.0</ele><time>2026-03-29T16:16:37.524Z</time></trkpt><trkpt lat="44.8707683" lon="0.9577383"><ele>170.75</ele><time>2026-03-29T16:16:38.524Z</time></trkpt><trkpt lat="44.870755" lon="0.957925"><ele>169.5</ele><time>2026-03-29T16:16:39.523Z</time></trkpt><trkpt lat="44.8707417" lon="0.95811"><ele>168.25</ele><time>2026-03-29T16:16:40.524Z</time></trkpt><trkpt lat="44.8707467" lon="0.958295"><ele>167.0</ele><time>2026-03-29T16:16:41.523Z</time></trkpt><trkpt lat="44.8707583" lon="0.9584717"><ele>166.75</ele><time>2026-03-29T16:16:42.523Z</time></trkpt><trkpt lat="44.8707783" lon="0.9586683"><ele>166.5</ele><time>2026-03-29T16:16:43.523Z</time></trkpt><trkpt lat="44.870825" lon="0.9588733"><ele>166.25</ele><time>2026-03-29T16:16:44.523Z</time></trkpt><trkpt lat="44.8708717" lon="0.9590783"><ele>166.0</ele><time>2026-03-29T16:16:45.523Z</time></trkpt><trkpt lat="44.8709183" lon="0.9592733"><ele>166.5</ele><time>2026-03-29T16:16:46.524Z</time></trkpt><trkpt lat="44.8709683" lon="0.959445"><ele>167.0</ele><time>2026-03-29T16:16:47.524Z</time></trkpt><trkpt lat="44.8710217" lon="0.9596067"><ele>167.5</ele><time>2026-03-29T16:16:48.524Z</time></trkpt><trkpt lat="44.8710617" lon="0.9597583"><ele>168.0</ele><time>2026-03-29T16:16:49.523Z</time></trkpt><trkpt lat="44.8710783" lon="0.959895"><ele>168.0</ele><time>2026-03-29T16:16:50.524Z</time></trkpt><trkpt lat="44.8710983" lon="0.9600033"><ele>168.0</ele><time>2026-03-29T16:16:51.523Z</time></trkpt><trkpt lat="44.8711167" lon="0.9601767"><ele>168.0</ele><time>2026-03-29T16:16:53.523Z</time></trkpt><trkpt lat="44.8711133" lon="0.9603167"><ele>168.0</ele><time>2026-03-29T16:16:55.524Z</time></trkpt><trkpt lat="44.8711267" lon="0.9604067"><ele>168.0</ele><time>2026-03-29T16:16:56.523Z</time></trkpt><trkpt lat="44.87115" lon="0.9605067"><ele>168.0</ele><time>2026-03-29T16:16:57.523Z</time></trkpt><trkpt lat="44.8711783" lon="0.960625"><ele>170.0</ele><time>2026-03-29T16:16:58.523Z</time></trkpt><trkpt lat="44.8712033" lon="0.9607633"><ele>172.0</ele><time>2026-03-29T16:16:59.524Z</time></trkpt><trkpt lat="44.87123" lon="0.96092"><ele>174.0</ele><time>2026-03-29T16:17:00.523Z</time></trkpt><trkpt lat="44.8712583" lon="0.961095"><ele>176.0</ele><time>2026-03-29T16:17:01.524Z</time></trkpt><trkpt lat="44.871305" lon="0.9613183"><ele>180.0</ele><time>2026-03-29T16:17:02.524Z</time></trkpt><trkpt lat="44.8713517" lon="0.961545"><ele>184.0</ele><time>2026-03-29T16:17:03.523Z</time></trkpt><trkpt lat="44.8713883" lon="0.9617567"><ele>188.0</ele><time>2026-03-29T16:17:04.523Z</time></trkpt><trkpt lat="44.8714233" lon="0.9619483"><ele>190.33333333333331</ele><time>2026-03-29T16:17:05.523Z</time></trkpt><trkpt lat="44.87146" lon="0.962155"><ele>192.66666666666666</ele><time>2026-03-29T16:17:06.524Z</time></trkpt><trkpt lat="44.8714883" lon="0.962365"><ele>195.0</ele><time>2026-03-29T16:17:07.523Z</time></trkpt><trkpt lat="44.8715317" lon="0.9625683"><ele>196.25</ele><time>2026-03-29T16:17:08.524Z</time></trkpt><trkpt lat="44.87155" lon="0.9627583"><ele>197.5</ele><time>2026-03-29T16:17:09.523Z</time></trkpt><trkpt lat="44.8715717" lon="0.9629417"><ele>198.75</ele><time>2026-03-29T16:17:10.523Z</time></trkpt><trkpt lat="44.8715917" lon="0.9631167"><ele>200.0</ele><time>2026-03-29T16:17:11.523Z</time></trkpt><trkpt lat="44.871605" lon="0.96327"><ele>201.75</ele><time>2026-03-29T16:17:12.524Z</time></trkpt><trkpt lat="44.8716267" lon="0.9634283"><ele>203.5</ele><time>2026-03-29T16:17:13.523Z</time></trkpt><trkpt lat="44.87166" lon="0.9636017"><ele>205.25</ele><time>2026-03-29T16:17:14.524Z</time></trkpt><trkpt lat="44.871685" lon="0.96376"><ele>207.0</ele><time>2026-03-29T16:17:15.523Z</time></trkpt><trkpt lat="44.8717083" lon="0.9639133"><ele>207.0</ele><time>2026-03-29T16:17:16.524Z</time></trkpt><trkpt lat="44.8717283" lon="0.96408"><ele>207.0</ele><time>2026-03-29T16:17:17.523Z</time></trkpt><trkpt lat="44.87175" lon="0.9642467"><ele>207.0</ele><time>2026-03-29T16:17:18.523Z</time></trkpt><trkpt lat="44.8717683" lon="0.964395"><ele>207.0</ele><time>2026-03-29T16:17:19.523Z</time></trkpt><trkpt lat="44.8717867" lon="0.964525"><ele>207.0</ele><time>2026-03-29T16:17:20.523Z</time></trkpt><trkpt lat="44.8717917" lon="0.964625"><ele>208.0</ele><time>2026-03-29T16:17:21.523Z</time></trkpt><trkpt lat="44.871795" lon="0.9647333"><ele>209.0</ele><time>2026-03-29T16:17:22.524Z</time></trkpt><trkpt lat="44.8717567" lon="0.9648367"><ele>210.0</ele><time>2026-03-29T16:17:23.524Z</time></trkpt><trkpt lat="44.8716983" lon="0.9649167"><ele>211.0</ele><time>2026-03-29T16:17:24.524Z</time></trkpt><trkpt lat="44.8716583" lon="0.9650167"><ele>212.0</ele><time>2026-03-29T16:17:25.523Z</time></trkpt><trkpt lat="44.8716133" lon="0.9650983"><ele>213.0</ele><time>2026-03-29T16:17:26.524Z</time></trkpt><trkpt lat="44.8715567" lon="0.96516"><ele>213.8</ele><time>2026-03-29T16:17:27.523Z</time></trkpt><trkpt lat="44.8714833" lon="0.965225"><ele>214.60000000000002</ele><time>2026-03-29T16:17:29.523Z</time></trkpt><trkpt lat="44.8714367" lon="0.965315"><ele>215.39999999999998</ele><time>2026-03-29T16:17:33.523Z</time></trkpt><trkpt lat="44.8714667" lon="0.96542"><ele>216.2</ele><time>2026-03-29T16:17:36.523Z</time></trkpt><trkpt lat="44.8715433" lon="0.96552"><ele>217.0</ele><time>2026-03-29T16:17:37.523Z</time></trkpt><trkpt lat="44.8716267" lon="0.965635"><ele>217.0</ele><time>2026-03-29T16:17:38.523Z</time></trkpt><trkpt lat="44.8717133" lon="0.9657533"><ele>217.0</ele><time>2026-03-29T16:17:39.524Z</time></trkpt><trkpt lat="44.8717917" lon="0.9658767"><ele>217.0</ele><time>2026-03-29T16:17:40.524Z</time></trkpt><trkpt lat="44.871885" lon="0.9659917"><ele>217.0</ele><time>2026-03-29T16:17:41.523Z</time></trkpt><trkpt lat="44.871975" lon="0.9660817"><ele>218.0</ele><time>2026-03-29T16:17:42.523Z</time></trkpt><trkpt lat="44.87206" lon="0.9661833"><ele>219.0</ele><time>2026-03-29T16:17:43.524Z</time></trkpt><trkpt lat="44.8721367" lon="0.9662833"><ele>220.0</ele><time>2026-03-29T16:17:44.523Z</time></trkpt><trkpt lat="44.8722067" lon="0.96638"><ele>221.0</ele><time>2026-03-29T16:17:45.523Z</time></trkpt><trkpt lat="44.872285" lon="0.9664867"><ele>222.0</ele><time>2026-03-29T16:17:46.524Z</time></trkpt><trkpt lat="44.8723517" lon="0.966615"><ele>222.75</ele><time>2026-03-29T16:17:47.523Z</time></trkpt><trkpt lat="44.8724117" lon="0.9667567"><ele>223.5</ele><time>2026-03-29T16:17:48.523Z</time></trkpt><trkpt lat="44.87248" lon="0.966905"><ele>224.25</ele><time>2026-03-29T16:17:49.524Z</time></trkpt><trkpt lat="44.87255" lon="0.96705"><ele>225.0</ele><time>2026-03-29T16:17:50.524Z</time></trkpt><trkpt lat="44.87263" lon="0.9671917"><ele>225.0</ele><time>2026-03-29T16:17:51.524Z</time></trkpt><trkpt lat="44.8727433" lon="0.967295"><ele>225.0</ele><time>2026-03-29T16:17:52.523Z</time></trkpt><trkpt lat="44.8728617" lon="0.9674017"><ele>225.0</ele><time>2026-03-29T16:17:53.524Z</time></trkpt><trkpt lat="44.8730017" lon="0.9674933"><ele>225.0</ele><time>2026-03-29T16:17:54.524Z</time></trkpt><trkpt lat="44.8731217" lon="0.967585"><ele>224.2</ele><time>2026-03-29T16:17:55.523Z</time></trkpt><trkpt lat="44.873235" lon="0.967665"><ele>223.4</ele><time>2026-03-29T16:17:56.524Z</time></trkpt><trkpt lat="44.8733233" lon="0.9677583"><ele>222.60000000000002</ele><time>2026-03-29T16:17:57.523Z</time></trkpt><trkpt lat="44.8734067" lon="0.9678467"><ele>221.8</ele><time>2026-03-29T16:17:58.523Z</time></trkpt><trkpt lat="44.8734633" lon="0.9679267"><ele>221.0</ele><time>2026-03-29T16:17:59.524Z</time></trkpt><trkpt lat="44.8735233" lon="0.9680233"><ele>221.0</ele><time>2026-03-29T16:18:01.523Z</time></trkpt><trkpt lat="44.8735783" lon="0.96812"><ele>221.00000000000003</ele><time>2026-03-29T16:18:03.523Z</time></trkpt><trkpt lat="44.8736333" lon="0.9682267"><ele>221.00000000000003</ele><time>2026-03-29T16:18:05.523Z</time></trkpt><trkpt lat="44.8736967" lon="0.9683333"><ele>221.0</ele><time>2026-03-29T16:18:07.523Z</time></trkpt><trkpt lat="44.8737667" lon="0.9684617"><ele>221.0</ele><time>2026-03-29T16:18:09.523Z</time></trkpt><trkpt lat="44.873835" lon="0.9685717"><ele>220.0</ele><time>2026-03-29T16:18:11.524Z</time></trkpt><trkpt lat="44.8739083" lon="0.96869"><ele>219.00000000000003</ele><time>2026-03-29T16:18:13.523Z</time></trkpt><trkpt lat="44.8739717" lon="0.9687967"><ele>218.00000000000003</ele><time>2026-03-29T16:18:15.523Z</time></trkpt><trkpt lat="44.8740367" lon="0.9689"><ele>217.0</ele><time>2026-03-29T16:18:17.524Z</time></trkpt><trkpt lat="44.8740883" lon="0.9689967"><ele>216.0</ele><time>2026-03-29T16:18:19.524Z</time></trkpt><trkpt lat="44.874105" lon="0.969115"><ele>216.16666666666666</ele><time>2026-03-29T16:18:26.522Z</time></trkpt><trkpt lat="44.87414" lon="0.9692417"><ele>216.33333333333331</ele><time>2026-03-29T16:18:32.523Z</time></trkpt><trkpt lat="44.8741817" lon="0.9693417"><ele>216.5</ele><time>2026-03-29T16:18:35.523Z</time></trkpt><trkpt lat="44.8742083" lon="0.9694383"><ele>216.66666666666666</ele><time>2026-03-29T16:18:37.522Z</time></trkpt><trkpt lat="44.8742367" lon="0.9695433"><ele>216.83333333333331</ele><time>2026-03-29T16:18:39.522Z</time></trkpt><trkpt lat="44.874285" lon="0.9696483"><ele>217.0</ele><time>2026-03-29T16:18:41.522Z</time></trkpt><trkpt lat="44.8743433" lon="0.9697633"><ele>217.0</ele><time>2026-03-29T16:18:43.523Z</time></trkpt><trkpt lat="44.8743967" lon="0.969905"><ele>217.0</ele><time>2026-03-29T16:18:45.523Z</time></trkpt><trkpt lat="44.8744267" lon="0.9700917"><ele>217.0</ele><time>2026-03-29T16:18:47.522Z</time></trkpt><trkpt lat="44.8744383" lon="0.9701983"><ele>217.0</ele><time>2026-03-29T16:18:48.522Z</time></trkpt><trkpt lat="44.8744533" lon="0.9703067"><ele>217.0</ele><time>2026-03-29T16:18:49.522Z</time></trkpt><trkpt lat="44.8744617" lon="0.9704133"><ele>216.83333333333331</ele><time>2026-03-29T16:18:50.522Z</time></trkpt><trkpt lat="44.87447" lon="0.9705033"><ele>216.66666666666666</ele><time>2026-03-29T16:18:51.522Z</time></trkpt><trkpt lat="44.8745167" lon="0.9706533"><ele>216.5</ele><time>2026-03-29T16:18:53.522Z</time></trkpt><trkpt lat="44.8745533" lon="0.9707617"><ele>216.33333333333331</ele><time>2026-03-29T16:18:55.523Z</time></trkpt><trkpt lat="44.874585" lon="0.97084"><ele>216.16666666666666</ele><time>2026-03-29T16:18:57.523Z</time></trkpt><trkpt lat="44.8746283" lon="0.9709083"><ele>216.0</ele><time>2026-03-29T16:19:00.522Z</time></trkpt><trkpt lat="44.8746817" lon="0.9710233"><ele>216.4</ele><time>2026-03-29T16:19:03.523Z</time></trkpt><trkpt lat="44.8747183" lon="0.9711483"><ele>216.8</ele><time>2026-03-29T16:19:05.523Z</time></trkpt><trkpt lat="44.87474" lon="0.9712817"><ele>217.20000000000002</ele><time>2026-03-29T16:19:07.522Z</time></trkpt><trkpt lat="44.8747817" lon="0.9714483"><ele>217.60000000000002</ele><time>2026-03-29T16:19:09.523Z</time></trkpt><trkpt lat="44.8748417" lon="0.9716067"><ele>218.0</ele><time>2026-03-29T16:19:11.522Z</time></trkpt><trkpt lat="44.874855" lon="0.9716983"><ele>218.75</ele><time>2026-03-29T16:19:12.523Z</time></trkpt><trkpt lat="44.8748717" lon="0.9718617"><ele>219.5</ele><time>2026-03-29T16:19:14.522Z</time></trkpt><trkpt lat="44.8748467" lon="0.9720033"><ele>220.25</ele><time>2026-03-29T16:19:15.522Z</time></trkpt><trkpt lat="44.874825" lon="0.9721633"><ele>221.0</ele><time>2026-03-29T16:19:16.522Z</time></trkpt><trkpt lat="44.8748067" lon="0.9723233"><ele>221.0</ele><time>2026-03-29T16:19:17.522Z</time></trkpt><trkpt lat="44.8747883" lon="0.9724767"><ele>221.00000000000003</ele><time>2026-03-29T16:19:18.522Z</time></trkpt><trkpt lat="44.87477" lon="0.9726367"><ele>221.00000000000003</ele><time>2026-03-29T16:19:19.522Z</time></trkpt><trkpt lat="44.874745" lon="0.972785"><ele>221.0</ele><time>2026-03-29T16:19:20.523Z</time></trkpt><trkpt lat="44.8747267" lon="0.9729167"><ele>221.0</ele><time>2026-03-29T16:19:21.522Z</time></trkpt><trkpt lat="44.87472" lon="0.9730283"><ele>221.16666666666669</ele><time>2026-03-29T16:19:22.522Z</time></trkpt><trkpt lat="44.8747133" lon="0.9731183"><ele>221.33333333333334</ele><time>2026-03-29T16:19:23.523Z</time></trkpt><trkpt lat="44.874705" lon="0.9732483"><ele>221.5</ele><time>2026-03-29T16:19:25.522Z</time></trkpt><trkpt lat="44.8747033" lon="0.9733417"><ele>221.66666666666669</ele><time>2026-03-29T16:19:27.522Z</time></trkpt><trkpt lat="44.8746933" lon="0.973465"><ele>221.83333333333334</ele><time>2026-03-29T16:19:30.522Z</time></trkpt><trkpt lat="44.874675" lon="0.973635"><ele>222.0</ele><time>2026-03-29T16:19:32.522Z</time></trkpt><trkpt lat="44.8746617" lon="0.9737567"><ele>222.2</ele><time>2026-03-29T16:19:33.523Z</time></trkpt><trkpt lat="44.8746483" lon="0.9738883"><ele>222.39999999999998</ele><time>2026-03-29T16:19:34.523Z</time></trkpt><trkpt lat="44.8746333" lon="0.9740067"><ele>222.60000000000002</ele><time>2026-03-29T16:19:35.522Z</time></trkpt><trkpt lat="44.874615" lon="0.974115"><ele>222.8</ele><time>2026-03-29T16:19:36.523Z</time></trkpt><trkpt lat="44.87459" lon="0.974205"><ele>223.0</ele><time>2026-03-29T16:19:37.522Z</time></trkpt><trkpt lat="44.874545" lon="0.9743667"><ele>224.0</ele><time>2026-03-29T16:19:39.522Z</time></trkpt><trkpt lat="44.8745283" lon="0.9744617"><ele>225.0</ele><time>2026-03-29T16:19:40.522Z</time></trkpt><trkpt lat="44.8745017" lon="0.9745533"><ele>226.0</ele><time>2026-03-29T16:19:41.523Z</time></trkpt><trkpt lat="44.874475" lon="0.9746417"><ele>227.0</ele><time>2026-03-29T16:19:42.523Z</time></trkpt><trkpt lat="44.87446" lon="0.97481"><ele>228.0</ele><time>2026-03-29T16:19:44.523Z</time></trkpt><trkpt lat="44.8744583" lon="0.97499"><ele>228.85714285714283</ele><time>2026-03-29T16:19:46.523Z</time></trkpt><trkpt lat="44.87444" lon="0.9750833"><ele>229.7142857142857</ele><time>2026-03-29T16:19:47.523Z</time></trkpt><trkpt lat="44.8744317" lon="0.9751733"><ele>230.57142857142856</ele><time>2026-03-29T16:19:48.523Z</time></trkpt><trkpt lat="44.8744117" lon="0.97527"><ele>231.42857142857144</ele><time>2026-03-29T16:19:49.522Z</time></trkpt><trkpt lat="44.8743733" lon="0.9753717"><ele>232.2857142857143</ele><time>2026-03-29T16:19:50.523Z</time></trkpt><trkpt lat="44.8743433" lon="0.9754733"><ele>233.14285714285717</ele><time>2026-03-29T16:19:51.522Z</time></trkpt><trkpt lat="44.8743167" lon="0.975565"><ele>234.0</ele><time>2026-03-29T16:19:52.522Z</time></trkpt><trkpt lat="44.87428" lon="0.97572"><ele>234.39999999999998</ele><time>2026-03-29T16:19:54.522Z</time></trkpt><trkpt lat="44.87424" lon="0.9758733"><ele>234.79999999999998</ele><time>2026-03-29T16:19:56.522Z</time></trkpt><trkpt lat="44.8741917" lon="0.9759983"><ele>235.20000000000002</ele><time>2026-03-29T16:19:58.522Z</time></trkpt><trkpt lat="44.8742067" lon="0.976095"><ele>235.60000000000002</ele><time>2026-03-29T16:20:00.522Z</time></trkpt><trkpt lat="44.8743267" lon="0.9762183"><ele>236.0</ele><time>2026-03-29T16:20:02.523Z</time></trkpt><trkpt lat="44.8744183" lon="0.9762967"><ele>236.00000000000003</ele><time>2026-03-29T16:20:03.522Z</time></trkpt><trkpt lat="44.87451" lon="0.9763717"><ele>236.0</ele><time>2026-03-29T16:20:04.523Z</time></trkpt><trkpt lat="44.8745833" lon="0.9764283"><ele>236.0</ele><time>2026-03-29T16:20:05.523Z</time></trkpt><trkpt lat="44.8746417" lon="0.9764867"><ele>236.0</ele><time>2026-03-29T16:20:06.523Z</time></trkpt><trkpt lat="44.8746883" lon="0.9765483"><ele>236.00000000000003</ele><time>2026-03-29T16:20:07.522Z</time></trkpt><trkpt lat="44.874705" lon="0.976705"><ele>236.0</ele><time>2026-03-29T16:20:09.523Z</time></trkpt><trkpt lat="44.8746583" lon="0.97679"><ele>236.66666666666669</ele><time>2026-03-29T16:20:10.522Z</time></trkpt><trkpt lat="44.8746117" lon="0.9768783"><ele>237.33333333333334</ele><time>2026-03-29T16:20:11.522Z</time></trkpt><trkpt lat="44.8745583" lon="0.9769433"><ele>238.0</ele><time>2026-03-29T16:20:12.523Z</time></trkpt><trkpt lat="44.8744767" lon="0.9770267"><ele>238.66666666666669</ele><time>2026-03-29T16:20:14.523Z</time></trkpt><trkpt lat="44.8743983" lon="0.9770383"><ele>239.33333333333334</ele><time>2026-03-29T16:20:16.522Z</time></trkpt><trkpt lat="44.8743117" lon="0.9769883"><ele>240.0</ele><time>2026-03-29T16:20:18.522Z</time></trkpt><trkpt lat="44.8742533" lon="0.9769367"><ele>238.66666666666666</ele><time>2026-03-29T16:20:19.523Z</time></trkpt><trkpt lat="44.8741933" lon="0.9768833"><ele>237.33333333333331</ele><time>2026-03-29T16:20:20.523Z</time></trkpt><trkpt lat="44.87414" lon="0.9768317"><ele>236.0</ele><time>2026-03-29T16:20:21.522Z</time></trkpt><trkpt lat="44.8740367" lon="0.9767517"><ele>234.66666666666666</ele><time>2026-03-29T16:20:23.522Z</time></trkpt><trkpt lat="44.8739567" lon="0.9767367"><ele>233.33333333333331</ele><time>2026-03-29T16:20:25.523Z</time></trkpt><trkpt lat="44.87392" lon="0.9768217"><ele>232.0</ele><time>2026-03-29T16:20:27.523Z</time></trkpt><trkpt lat="44.8739183" lon="0.976985"><ele>232.0</ele><time>2026-03-29T16:20:29.522Z</time></trkpt><trkpt lat="44.873905" lon="0.97713"><ele>232.0</ele><time>2026-03-29T16:20:31.523Z</time></trkpt><trkpt lat="44.8738933" lon="0.9772667"><ele>232.0</ele><time>2026-03-29T16:20:33.523Z</time></trkpt><trkpt lat="44.87387" lon="0.9774217"><ele>232.0</ele><time>2026-03-29T16:20:35.523Z</time></trkpt><trkpt lat="44.8738717" lon="0.97759"><ele>232.0</ele><time>2026-03-29T16:20:37.522Z</time></trkpt><trkpt lat="44.8738767" lon="0.97768"><ele>232.49999999999997</ele><time>2026-03-29T16:20:38.522Z</time></trkpt><trkpt lat="44.8738717" lon="0.97777"><ele>233.0</ele><time>2026-03-29T16:20:39.523Z</time></trkpt><trkpt lat="44.8738533" lon="0.9779617"><ele>233.5</ele><time>2026-03-29T16:20:41.523Z</time></trkpt><trkpt lat="44.8738367" lon="0.9780583"><ele>234.0</ele><time>2026-03-29T16:20:42.522Z</time></trkpt><trkpt lat="44.873815" lon="0.97816"><ele>234.49999999999997</ele><time>2026-03-29T16:20:43.522Z</time></trkpt><trkpt lat="44.8737833" lon="0.9782617"><ele>235.0</ele><time>2026-03-29T16:20:44.523Z</time></trkpt><trkpt lat="44.8737317" lon="0.9784167"><ele>236.2</ele><time>2026-03-29T16:20:46.522Z</time></trkpt><trkpt lat="44.8737" lon="0.978575"><ele>237.4</ele><time>2026-03-29T16:20:48.523Z</time></trkpt><trkpt lat="44.8736767" lon="0.9786817"><ele>238.60000000000002</ele><time>2026-03-29T16:20:49.522Z</time></trkpt><trkpt lat="44.8736467" lon="0.9787983"><ele>239.8</ele><time>2026-03-29T16:20:50.522Z</time></trkpt><trkpt lat="44.8736133" lon="0.9789233"><ele>241.0</ele><time>2026-03-29T16:20:51.523Z</time></trkpt><trkpt lat="44.8735917" lon="0.9790467"><ele>241.0</ele><time>2026-03-29T16:20:52.522Z</time></trkpt><trkpt lat="44.8735617" lon="0.9791467"><ele>241.00000000000003</ele><time>2026-03-29T16:20:53.523Z</time></trkpt><trkpt lat="44.873535" lon="0.9792417"><ele>241.0</ele><time>2026-03-29T16:20:54.523Z</time></trkpt><trkpt lat="44.8735167" lon="0.9793367"><ele>241.0</ele><time>2026-03-29T16:20:55.523Z</time></trkpt><trkpt lat="44.8734983" lon="0.9794217"><ele>241.00000000000003</ele><time>2026-03-29T16:20:56.522Z</time></trkpt><trkpt lat="44.8734767" lon="0.9795083"><ele>241.0</ele><time>2026-03-29T16:20:57.523Z</time></trkpt><trkpt lat="44.8734517" lon="0.9795933"><ele>241.0</ele><time>2026-03-29T16:20:58.523Z</time></trkpt><trkpt lat="44.8734217" lon="0.9796817"><ele>238.57142857142858</ele><time>2026-03-29T16:20:59.522Z</time></trkpt><trkpt lat="44.8734017" lon="0.9797667"><ele>236.14285714285717</ele><time>2026-03-29T16:21:00.522Z</time></trkpt><trkpt lat="44.8733833" lon="0.9798667"><ele>233.71428571428572</ele><time>2026-03-29T16:21:01.523Z</time></trkpt><trkpt lat="44.8733683" lon="0.9799733"><ele>231.28571428571428</ele><time>2026-03-29T16:21:02.522Z</time></trkpt><trkpt lat="44.873345" lon="0.9800867"><ele>228.85714285714286</ele><time>2026-03-29T16:21:03.523Z</time></trkpt><trkpt lat="44.8733233" lon="0.98019"><ele>226.42857142857144</ele><time>2026-03-29T16:21:04.523Z</time></trkpt><trkpt lat="44.8733" lon="0.9802867"><ele>224.0</ele><time>2026-03-29T16:21:05.523Z</time></trkpt><trkpt lat="44.8732817" lon="0.9803817"><ele>224.00000000000003</ele><time>2026-03-29T16:21:06.522Z</time></trkpt><trkpt lat="44.8732567" lon="0.9805383"><ele>224.0</ele><time>2026-03-29T16:21:08.522Z</time></trkpt><trkpt lat="44.8732267" lon="0.9806367"><ele>224.0</ele><time>2026-03-29T16:21:10.522Z</time></trkpt><trkpt lat="44.8731667" lon="0.9807083"><ele>224.0</ele><time>2026-03-29T16:21:14.523Z</time></trkpt><trkpt lat="44.87311" lon="0.9808183"><ele>224.00000000000003</ele><time>2026-03-29T16:21:16.523Z</time></trkpt><trkpt lat="44.87307" lon="0.980915"><ele>224.0</ele><time>2026-03-29T16:21:17.522Z</time></trkpt><trkpt lat="44.8730267" lon="0.9810383"><ele>225.2</ele><time>2026-03-29T16:21:18.523Z</time></trkpt><trkpt lat="44.87298" lon="0.98118"><ele>226.39999999999998</ele><time>2026-03-29T16:21:19.523Z</time></trkpt><trkpt lat="44.8729317" lon="0.9813367"><ele>227.6</ele><time>2026-03-29T16:21:20.522Z</time></trkpt><trkpt lat="44.8728767" lon="0.98147"><ele>228.8</ele><time>2026-03-29T16:21:21.523Z</time></trkpt><trkpt lat="44.872825" lon="0.9815817"><ele>230.0</ele><time>2026-03-29T16:21:22.523Z</time></trkpt><trkpt lat="44.8727833" lon="0.9816717"><ele>230.50000000000003</ele><time>2026-03-29T16:21:23.523Z</time></trkpt><trkpt lat="44.8727583" lon="0.9817533"><ele>231.0</ele><time>2026-03-29T16:21:24.523Z</time></trkpt><trkpt lat="44.872705" lon="0.9818633"><ele>231.5</ele><time>2026-03-29T16:21:26.522Z</time></trkpt><trkpt lat="44.87269" lon="0.981965"><ele>232.0</ele><time>2026-03-29T16:21:28.522Z</time></trkpt><trkpt lat="44.872725" lon="0.9820717"><ele>232.50000000000003</ele><time>2026-03-29T16:21:31.522Z</time></trkpt><trkpt lat="44.8727717" lon="0.9821517"><ele>233.0</ele><time>2026-03-29T16:21:33.522Z</time></trkpt><trkpt lat="44.8728217" lon="0.9822333"><ele>233.00000000000003</ele><time>2026-03-29T16:21:35.523Z</time></trkpt><trkpt lat="44.8728683" lon="0.9823133"><ele>233.0</ele><time>2026-03-29T16:21:37.522Z</time></trkpt><trkpt lat="44.872915" lon="0.9824083"><ele>233.0</ele><time>2026-03-29T16:21:39.522Z</time></trkpt><trkpt lat="44.872965" lon="0.9824867"><ele>233.0</ele><time>2026-03-29T16:21:41.523Z</time></trkpt><trkpt lat="44.873025" lon="0.9825717"><ele>233.00000000000003</ele><time>2026-03-29T16:21:44.522Z</time></trkpt><trkpt lat="44.8730983" lon="0.98261"><ele>233.0</ele><time>2026-03-29T16:21:47.523Z</time></trkpt><trkpt lat="44.873175" lon="0.9826083"><ele>232.8</ele><time>2026-03-29T16:21:49.523Z</time></trkpt><trkpt lat="44.8732767" lon="0.982575"><ele>232.60000000000002</ele><time>2026-03-29T16:21:51.523Z</time></trkpt><trkpt lat="44.8733617" lon="0.9825717"><ele>232.39999999999998</ele><time>2026-03-29T16:21:53.522Z</time></trkpt><trkpt lat="44.87347" lon="0.982725"><ele>232.2</ele><time>2026-03-29T16:22:11.522Z</time></trkpt><trkpt lat="44.8734633" lon="0.982835"><ele>232.0</ele><time>2026-03-29T16:22:13.522Z</time></trkpt><trkpt lat="44.8734667" lon="0.9829333"><ele>231.6</ele><time>2026-03-29T16:22:15.522Z</time></trkpt><trkpt lat="44.87348" lon="0.9830683"><ele>231.2</ele><time>2026-03-29T16:22:17.521Z</time></trkpt><trkpt lat="44.87348" lon="0.9831717"><ele>230.8</ele><time>2026-03-29T16:22:18.522Z</time></trkpt><trkpt lat="44.8734717" lon="0.98335"><ele>230.4</ele><time>2026-03-29T16:22:19.521Z</time></trkpt><trkpt lat="44.87346" lon="0.9835117"><ele>230.0</ele><time>2026-03-29T16:22:20.521Z</time></trkpt><trkpt lat="44.8734583" lon="0.9836667"><ele>231.0</ele><time>2026-03-29T16:22:21.521Z</time></trkpt><trkpt lat="44.8734717" lon="0.9838483"><ele>232.0</ele><time>2026-03-29T16:22:22.522Z</time></trkpt><trkpt lat="44.8734733" lon="0.9840367"><ele>233.0</ele><time>2026-03-29T16:22:23.521Z</time></trkpt><trkpt lat="44.8734717" lon="0.9842267"><ele>234.0</ele><time>2026-03-29T16:22:24.522Z</time></trkpt><trkpt lat="44.873475" lon="0.9844217"><ele>236.0</ele><time>2026-03-29T16:22:25.522Z</time></trkpt><trkpt lat="44.8734733" lon="0.9846267"><ele>238.0</ele><time>2026-03-29T16:22:26.522Z</time></trkpt><trkpt lat="44.87347" lon="0.9848317"><ele>240.0</ele><time>2026-03-29T16:22:27.521Z</time></trkpt><trkpt lat="44.873475" lon="0.98503"><ele>242.0</ele><time>2026-03-29T16:22:28.521Z</time></trkpt><trkpt lat="44.8734817" lon="0.9852083"><ele>242.25</ele><time>2026-03-29T16:22:29.521Z</time></trkpt><trkpt lat="44.8734867" lon="0.98538"><ele>242.5</ele><time>2026-03-29T16:22:30.522Z</time></trkpt><trkpt lat="44.873495" lon="0.9855533"><ele>242.75</ele><time>2026-03-29T16:22:31.522Z</time></trkpt><trkpt lat="44.8734883" lon="0.9857083"><ele>243.0</ele><time>2026-03-29T16:22:32.521Z</time></trkpt><trkpt lat="44.8734967" lon="0.9858633"><ele>242.0</ele><time>2026-03-29T16:22:33.521Z</time></trkpt><trkpt lat="44.8735033" lon="0.98602"><ele>241.0</ele><time>2026-03-29T16:22:34.522Z</time></trkpt><trkpt lat="44.8735117" lon="0.9861833"><ele>240.0</ele><time>2026-03-29T16:22:35.522Z</time></trkpt><trkpt lat="44.8735167" lon="0.9863667"><ele>239.0</ele><time>2026-03-29T16:22:36.521Z</time></trkpt><trkpt lat="44.873505" lon="0.9865367"><ele>238.0</ele><time>2026-03-29T16:22:37.521Z</time></trkpt><trkpt lat="44.8735017" lon="0.98671"><ele>237.0</ele><time>2026-03-29T16:22:38.521Z</time></trkpt><trkpt lat="44.8735117" lon="0.9868817"><ele>236.0</ele><time>2026-03-29T16:22:39.521Z</time></trkpt><trkpt lat="44.8735133" lon="0.987055"><ele>235.0</ele><time>2026-03-29T16:22:40.521Z</time></trkpt><trkpt lat="44.873505" lon="0.9872233"><ele>234.99999999999997</ele><time>2026-03-29T16:22:41.521Z</time></trkpt><trkpt lat="44.87349" lon="0.98737"><ele>235.0</ele><time>2026-03-29T16:22:42.522Z</time></trkpt><trkpt lat="44.8734767" lon="0.98748"><ele>235.0</ele><time>2026-03-29T16:22:43.521Z</time></trkpt><trkpt lat="44.87347" lon="0.98757"><ele>235.0</ele><time>2026-03-29T16:22:44.522Z</time></trkpt><trkpt lat="44.87346" lon="0.9877067"><ele>234.99999999999997</ele><time>2026-03-29T16:22:46.522Z</time></trkpt><trkpt lat="44.8734733" lon="0.9877967"><ele>235.0</ele><time>2026-03-29T16:22:48.521Z</time></trkpt><trkpt lat="44.8734283" lon="0.987865"><ele>235.6</ele><time>2026-03-29T16:22:52.521Z</time></trkpt><trkpt lat="44.8733417" lon="0.98787"><ele>236.2</ele><time>2026-03-29T16:22:54.521Z</time></trkpt><trkpt lat="44.8732467" lon="0.9878933"><ele>236.8</ele><time>2026-03-29T16:22:56.521Z</time></trkpt><trkpt lat="44.8731583" lon="0.9879233"><ele>237.4</ele><time>2026-03-29T16:22:58.521Z</time></trkpt><trkpt lat="44.873045" lon="0.9879383"><ele>238.0</ele><time>2026-03-29T16:23:00.521Z</time></trkpt><trkpt lat="44.8729417" lon="0.9879067"><ele>238.0</ele><time>2026-03-29T16:23:02.521Z</time></trkpt><trkpt lat="44.872875" lon="0.9879183"><ele>238.0</ele><time>2026-03-29T16:23:03.522Z</time></trkpt><trkpt lat="44.8727983" lon="0.9879167"><ele>238.0</ele><time>2026-03-29T16:23:05.521Z</time></trkpt><trkpt lat="44.872705" lon="0.9879283"><ele>238.0</ele><time>2026-03-29T16:23:07.521Z</time></trkpt><trkpt lat="44.8725983" lon="0.98798"><ele>238.0</ele><time>2026-03-29T16:23:09.522Z</time></trkpt><trkpt lat="44.8724983" lon="0.9880383"><ele>238.4</ele><time>2026-03-29T16:23:11.522Z</time></trkpt><trkpt lat="44.8723833" lon="0.9881133"><ele>238.8</ele><time>2026-03-29T16:23:13.522Z</time></trkpt><trkpt lat="44.8722933" lon="0.9881267"><ele>239.2</ele><time>2026-03-29T16:23:15.522Z</time></trkpt><trkpt lat="44.8722117" lon="0.9881667"><ele>239.6</ele><time>2026-03-29T16:23:17.521Z</time></trkpt><trkpt lat="44.8721283" lon="0.9882167"><ele>240.0</ele><time>2026-03-29T16:23:19.521Z</time></trkpt><trkpt lat="44.8720617" lon="0.988235"><ele>240.0</ele><time>2026-03-29T16:23:21.521Z</time></trkpt><trkpt lat="44.8719567" lon="0.9882883"><ele>240.0</ele><time>2026-03-29T16:23:26.522Z</time></trkpt><trkpt lat="44.8719317" lon="0.9883983"><ele>240.0</ele><time>2026-03-29T16:23:32.522Z</time></trkpt><trkpt lat="44.8719833" lon="0.9885217"><ele>240.0</ele><time>2026-03-29T16:23:33.522Z</time></trkpt><trkpt lat="44.872035" lon="0.988625"><ele>240.0</ele><time>2026-03-29T16:23:34.521Z</time></trkpt><trkpt lat="44.872095" lon="0.9887417"><ele>238.75</ele><time>2026-03-29T16:23:35.521Z</time></trkpt><trkpt lat="44.87216" lon="0.98889"><ele>237.5</ele><time>2026-03-29T16:23:36.522Z</time></trkpt><trkpt lat="44.8722267" lon="0.98907"><ele>236.25</ele><time>2026-03-29T16:23:37.522Z</time></trkpt><trkpt lat="44.872245" lon="0.989325"><ele>235.0</ele><time>2026-03-29T16:23:38.522Z</time></trkpt><trkpt lat="44.87229" lon="0.9895583"><ele>233.0</ele><time>2026-03-29T16:23:39.522Z</time></trkpt><trkpt lat="44.8723467" lon="0.98978"><ele>231.0</ele><time>2026-03-29T16:23:40.521Z</time></trkpt><trkpt lat="44.872405" lon="0.98999"><ele>229.0</ele><time>2026-03-29T16:23:41.522Z</time></trkpt><trkpt lat="44.872445" lon="0.9902117"><ele>229.66666666666666</ele><time>2026-03-29T16:23:42.522Z</time></trkpt><trkpt lat="44.8724833" lon="0.9904333"><ele>230.33333333333331</ele><time>2026-03-29T16:23:43.521Z</time></trkpt><trkpt lat="44.8725583" lon="0.9906467"><ele>231.0</ele><time>2026-03-29T16:23:44.522Z</time></trkpt><trkpt lat="44.8726283" lon="0.9908433"><ele>231.0</ele><time>2026-03-29T16:23:45.521Z</time></trkpt><trkpt lat="44.8727017" lon="0.9910383"><ele>231.0</ele><time>2026-03-29T16:23:46.522Z</time></trkpt><trkpt lat="44.872785" lon="0.9912383"><ele>231.0</ele><time>2026-03-29T16:23:47.521Z</time></trkpt><trkpt lat="44.87286" lon="0.9914217"><ele>231.0</ele><time>2026-03-29T16:23:48.521Z</time></trkpt><trkpt lat="44.872925" lon="0.9916133"><ele>231.0</ele><time>2026-03-29T16:23:49.521Z</time></trkpt><trkpt lat="44.872985" lon="0.9917883"><ele>231.0</ele><time>2026-03-29T16:23:50.521Z</time></trkpt><trkpt lat="44.8730483" lon="0.9919617"><ele>231.0</ele><time>2026-03-29T16:23:51.522Z</time></trkpt><trkpt lat="44.873115" lon="0.9921367"><ele>230.75</ele><time>2026-03-29T16:23:52.522Z</time></trkpt><trkpt lat="44.8731817" lon="0.992305"><ele>230.5</ele><time>2026-03-29T16:23:53.522Z</time></trkpt><trkpt lat="44.8732417" lon="0.99247"><ele>230.25</ele><time>2026-03-29T16:23:54.521Z</time></trkpt><trkpt lat="44.873305" lon="0.99262"><ele>230.0</ele><time>2026-03-29T16:23:55.521Z</time></trkpt><trkpt lat="44.8733517" lon="0.9927533"><ele>229.6</ele><time>2026-03-29T16:23:56.521Z</time></trkpt><trkpt lat="44.8734033" lon="0.992865"><ele>229.2</ele><time>2026-03-29T16:23:57.522Z</time></trkpt><trkpt lat="44.87349" lon="0.9930467"><ele>228.8</ele><time>2026-03-29T16:23:59.522Z</time></trkpt><trkpt lat="44.873445" lon="0.9931233"><ele>228.4</ele><time>2026-03-29T16:24:01.521Z</time></trkpt><trkpt lat="44.8733567" lon="0.99313"><ele>228.0</ele><time>2026-03-29T16:24:03.521Z</time></trkpt><trkpt lat="44.8732517" lon="0.9930817"><ele>228.0</ele><time>2026-03-29T16:24:04.522Z</time></trkpt><trkpt lat="44.8731017" lon="0.99299"><ele>228.0</ele><time>2026-03-29T16:24:05.521Z</time></trkpt><trkpt lat="44.8729583" lon="0.992905"><ele>228.0</ele><time>2026-03-29T16:24:06.521Z</time></trkpt><trkpt lat="44.872825" lon="0.9928317"><ele>228.0</ele><time>2026-03-29T16:24:07.522Z</time></trkpt><trkpt lat="44.872685" lon="0.9927567"><ele>228.0</ele><time>2026-03-29T16:24:08.522Z</time></trkpt><trkpt lat="44.8725483" lon="0.9926617"><ele>228.0</ele><time>2026-03-29T16:24:09.522Z</time></trkpt><trkpt lat="44.8724133" lon="0.9925783"><ele>228.0</ele><time>2026-03-29T16:24:10.522Z</time></trkpt><trkpt lat="44.872275" lon="0.9925267"><ele>227.33333333333331</ele><time>2026-03-29T16:24:11.522Z</time></trkpt><trkpt lat="44.8721267" lon="0.992495"><ele>226.66666666666666</ele><time>2026-03-29T16:24:12.522Z</time></trkpt><trkpt lat="44.871975" lon="0.9925333"><ele>226.0</ele><time>2026-03-29T16:24:13.522Z</time></trkpt><trkpt lat="44.8718283" lon="0.9925783"><ele>227.0</ele><time>2026-03-29T16:24:14.522Z</time></trkpt><trkpt lat="44.8716833" lon="0.9926467"><ele>228.0</ele><time>2026-03-29T16:24:15.522Z</time></trkpt><trkpt lat="44.87153" lon="0.9927283"><ele>229.0</ele><time>2026-03-29T16:24:16.522Z</time></trkpt><trkpt lat="44.871375" lon="0.992805"><ele>229.0</ele><time>2026-03-29T16:24:17.522Z</time></trkpt><trkpt lat="44.871225" lon="0.9928667"><ele>229.0</ele><time>2026-03-29T16:24:18.522Z</time></trkpt><trkpt lat="44.87107" lon="0.9929267"><ele>229.0</ele><time>2026-03-29T16:24:19.522Z</time></trkpt><trkpt lat="44.87091" lon="0.9929883"><ele>229.33333333333331</ele><time>2026-03-29T16:24:20.521Z</time></trkpt><trkpt lat="44.8707567" lon="0.9930617"><ele>229.66666666666669</ele><time>2026-03-29T16:24:21.521Z</time></trkpt><trkpt lat="44.8706" lon="0.99313"><ele>230.0</ele><time>2026-03-29T16:24:22.521Z</time></trkpt><trkpt lat="44.8704483" lon="0.9932017"><ele>230.0</ele><time>2026-03-29T16:24:23.522Z</time></trkpt><trkpt lat="44.870295" lon="0.9932683"><ele>230.0</ele><time>2026-03-29T16:24:24.522Z</time></trkpt><trkpt lat="44.8701333" lon="0.9933317"><ele>230.0</ele><time>2026-03-29T16:24:25.522Z</time></trkpt><trkpt lat="44.8699917" lon="0.9933867"><ele>229.66666666666669</ele><time>2026-03-29T16:24:26.522Z</time></trkpt><trkpt lat="44.8698417" lon="0.993465"><ele>229.33333333333331</ele><time>2026-03-29T16:24:27.521Z</time></trkpt><trkpt lat="44.869705" lon="0.9935533"><ele>229.0</ele><time>2026-03-29T16:24:28.521Z</time></trkpt><trkpt lat="44.869575" lon="0.9936517"><ele>229.0</ele><time>2026-03-29T16:24:29.522Z</time></trkpt><trkpt lat="44.86945" lon="0.9937517"><ele>229.0</ele><time>2026-03-29T16:24:30.521Z</time></trkpt><trkpt lat="44.869325" lon="0.9938633"><ele>229.0</ele><time>2026-03-29T16:24:31.521Z</time></trkpt><trkpt lat="44.8691967" lon="0.9939783"><ele>229.0</ele><time>2026-03-29T16:24:32.522Z</time></trkpt><trkpt lat="44.8690617" lon="0.9940917"><ele>227.0</ele><time>2026-03-29T16:24:33.521Z</time></trkpt><trkpt lat="44.8689167" lon="0.9942067"><ele>225.0</ele><time>2026-03-29T16:24:34.522Z</time></trkpt><trkpt lat="44.8687617" lon="0.99429"><ele>223.0</ele><time>2026-03-29T16:24:35.521Z</time></trkpt><trkpt lat="44.868605" lon="0.9943567"><ele>223.0</ele><time>2026-03-29T16:24:36.521Z</time></trkpt><trkpt lat="44.86845" lon="0.9944033"><ele>223.0</ele><time>2026-03-29T16:24:37.522Z</time></trkpt><trkpt lat="44.8683067" lon="0.994445"><ele>223.0</ele><time>2026-03-29T16:24:38.522Z</time></trkpt><trkpt lat="44.868155" lon="0.994435"><ele>222.66666666666666</ele><time>2026-03-29T16:24:39.521Z</time></trkpt><trkpt lat="44.868005" lon="0.9944233"><ele>222.33333333333331</ele><time>2026-03-29T16:24:40.522Z</time></trkpt><trkpt lat="44.8678533" lon="0.9944267"><ele>222.0</ele><time>2026-03-29T16:24:41.521Z</time></trkpt><trkpt lat="44.8677017" lon="0.9944383"><ele>222.5</ele><time>2026-03-29T16:24:42.522Z</time></trkpt><trkpt lat="44.8675667" lon="0.9944833"><ele>223.0</ele><time>2026-03-29T16:24:43.522Z</time></trkpt><trkpt lat="44.86742" lon="0.9945367"><ele>223.5</ele><time>2026-03-29T16:24:44.521Z</time></trkpt><trkpt lat="44.8672733" lon="0.994605"><ele>224.0</ele><time>2026-03-29T16:24:45.522Z</time></trkpt><trkpt lat="44.8671333" lon="0.9946933"><ele>224.0</ele><time>2026-03-29T16:24:46.521Z</time></trkpt><trkpt lat="44.866975" lon="0.994775"><ele>224.0</ele><time>2026-03-29T16:24:47.522Z</time></trkpt><trkpt lat="44.866835" lon="0.994875"><ele>224.0</ele><time>2026-03-29T16:24:48.521Z</time></trkpt><trkpt lat="44.8667067" lon="0.9949717"><ele>222.66666666666669</ele><time>2026-03-29T16:24:49.522Z</time></trkpt><trkpt lat="44.866565" lon="0.995095"><ele>221.33333333333331</ele><time>2026-03-29T16:24:50.522Z</time></trkpt><trkpt lat="44.8664167" lon="0.9952133"><ele>220.0</ele><time>2026-03-29T16:24:51.521Z</time></trkpt><trkpt lat="44.866305" lon="0.99535"><ele>220.0</ele><time>2026-03-29T16:24:52.522Z</time></trkpt><trkpt lat="44.8662033" lon="0.9954917"><ele>220.0</ele><time>2026-03-29T16:24:53.521Z</time></trkpt><trkpt lat="44.86609" lon="0.9956467"><ele>220.0</ele><time>2026-03-29T16:24:54.522Z</time></trkpt><trkpt lat="44.8660067" lon="0.995795"><ele>220.0</ele><time>2026-03-29T16:24:55.522Z</time></trkpt><trkpt lat="44.8659117" lon="0.99596"><ele>221.25</ele><time>2026-03-29T16:24:56.521Z</time></trkpt><trkpt lat="44.86581" lon="0.996115"><ele>222.5</ele><time>2026-03-29T16:24:57.522Z</time></trkpt><trkpt lat="44.8657033" lon="0.9962517"><ele>223.75</ele><time>2026-03-29T16:24:58.522Z</time></trkpt><trkpt lat="44.8655883" lon="0.996375"><ele>225.0</ele><time>2026-03-29T16:24:59.522Z</time></trkpt><trkpt lat="44.8654617" lon="0.9964817"><ele>225.0</ele><time>2026-03-29T16:25:00.522Z</time></trkpt><trkpt lat="44.8653333" lon="0.996585"><ele>225.0</ele><time>2026-03-29T16:25:01.522Z</time></trkpt><trkpt lat="44.8651833" lon="0.9966583"><ele>225.0</ele><time>2026-03-29T16:25:02.521Z</time></trkpt><trkpt lat="44.8650467" lon="0.9967233"><ele>225.0</ele><time>2026-03-29T16:25:03.521Z</time></trkpt><trkpt lat="44.8648933" lon="0.99676"><ele>225.0</ele><time>2026-03-29T16:25:04.521Z</time></trkpt><trkpt lat="44.8647533" lon="0.9968083"><ele>225.0</ele><time>2026-03-29T16:25:05.521Z</time></trkpt><trkpt lat="44.8646117" lon="0.9968567"><ele>225.0</ele><time>2026-03-29T16:25:06.522Z</time></trkpt><trkpt lat="44.864465" lon="0.9968933"><ele>225.0</ele><time>2026-03-29T16:25:07.522Z</time></trkpt><trkpt lat="44.8643167" lon="0.9969633"><ele>225.0</ele><time>2026-03-29T16:25:08.521Z</time></trkpt><trkpt lat="44.8641617" lon="0.9969817"><ele>225.0</ele><time>2026-03-29T16:25:09.522Z</time></trkpt><trkpt lat="44.8640167" lon="0.9970533"><ele>223.0</ele><time>2026-03-29T16:25:10.522Z</time></trkpt><trkpt lat="44.8638833" lon="0.9971233"><ele>221.0</ele><time>2026-03-29T16:25:11.521Z</time></trkpt><trkpt lat="44.8637717" lon="0.9971783"><ele>219.0</ele><time>2026-03-29T16:25:12.521Z</time></trkpt><trkpt lat="44.8636767" lon="0.9972367"><ele>217.0</ele><time>2026-03-29T16:25:13.522Z</time></trkpt><trkpt lat="44.86359" lon="0.9972917"><ele>217.0</ele><time>2026-03-29T16:25:14.522Z</time></trkpt><trkpt lat="44.863505" lon="0.9973733"><ele>217.0</ele><time>2026-03-29T16:25:15.522Z</time></trkpt><trkpt lat="44.86342" lon="0.9974683"><ele>217.0</ele><time>2026-03-29T16:25:16.522Z</time></trkpt><trkpt lat="44.8633483" lon="0.9975767"><ele>217.0</ele><time>2026-03-29T16:25:17.521Z</time></trkpt><trkpt lat="44.86328" lon="0.9976917"><ele>217.0</ele><time>2026-03-29T16:25:18.522Z</time></trkpt><trkpt lat="44.863205" lon="0.99782"><ele>215.25</ele><time>2026-03-29T16:25:19.522Z</time></trkpt><trkpt lat="44.8631233" lon="0.9979617"><ele>213.5</ele><time>2026-03-29T16:25:20.521Z</time></trkpt><trkpt lat="44.863055" lon="0.9980933"><ele>211.75</ele><time>2026-03-29T16:25:21.522Z</time></trkpt><trkpt lat="44.8629933" lon="0.9982367"><ele>210.0</ele><time>2026-03-29T16:25:22.522Z</time></trkpt><trkpt lat="44.8629433" lon="0.9984033"><ele>208.75</ele><time>2026-03-29T16:25:23.521Z</time></trkpt><trkpt lat="44.8628933" lon="0.998595"><ele>207.5</ele><time>2026-03-29T16:25:24.521Z</time></trkpt><trkpt lat="44.8628617" lon="0.99877"><ele>206.25</ele><time>2026-03-29T16:25:25.522Z</time></trkpt><trkpt lat="44.8628133" lon="0.9989433"><ele>205.0</ele><time>2026-03-29T16:25:26.521Z</time></trkpt><trkpt lat="44.86276" lon="0.999095"><ele>203.5</ele><time>2026-03-29T16:25:27.522Z</time></trkpt><trkpt lat="44.8626983" lon="0.999235"><ele>202.0</ele><time>2026-03-29T16:25:28.521Z</time></trkpt><trkpt lat="44.8626417" lon="0.99937"><ele>200.5</ele><time>2026-03-29T16:25:29.521Z</time></trkpt><trkpt lat="44.86258" lon="0.9995267"><ele>199.0</ele><time>2026-03-29T16:25:30.522Z</time></trkpt><trkpt lat="44.8625183" lon="0.9996583"><ele>202.0</ele><time>2026-03-29T16:25:31.522Z</time></trkpt><trkpt lat="44.8624517" lon="0.9998083"><ele>205.0</ele><time>2026-03-29T16:25:32.522Z</time></trkpt><trkpt lat="44.862365" lon="0.9999367"><ele>208.0</ele><time>2026-03-29T16:25:33.522Z</time></trkpt><trkpt lat="44.862285" lon="1.0000767"><ele>211.0</ele><time>2026-03-29T16:25:34.521Z</time></trkpt><trkpt lat="44.8621983" lon="1.0002067"><ele>211.0</ele><time>2026-03-29T16:25:35.522Z</time></trkpt><trkpt lat="44.8621017" lon="1.00033"><ele>211.0</ele><time>2026-03-29T16:25:36.522Z</time></trkpt><trkpt lat="44.8620133" lon="1.0004783"><ele>211.0</ele><time>2026-03-29T16:25:37.522Z</time></trkpt><trkpt lat="44.861915" lon="1.0006017"><ele>211.0</ele><time>2026-03-29T16:25:38.521Z</time></trkpt><trkpt lat="44.8618233" lon="1.0007383"><ele>210.25</ele><time>2026-03-29T16:25:39.521Z</time></trkpt><trkpt lat="44.8617333" lon="1.000865"><ele>209.5</ele><time>2026-03-29T16:25:40.521Z</time></trkpt><trkpt lat="44.861645" lon="1.0009917"><ele>208.75</ele><time>2026-03-29T16:25:41.521Z</time></trkpt><trkpt lat="44.8615583" lon="1.0011217"><ele>208.0</ele><time>2026-03-29T16:25:42.521Z</time></trkpt><trkpt lat="44.8614783" lon="1.001265"><ele>208.0</ele><time>2026-03-29T16:25:43.522Z</time></trkpt><trkpt lat="44.8613967" lon="1.0014117"><ele>208.0</ele><time>2026-03-29T16:25:44.521Z</time></trkpt><trkpt lat="44.8613183" lon="1.0015317"><ele>208.0</ele><time>2026-03-29T16:25:45.522Z</time></trkpt><trkpt lat="44.8612533" lon="1.001645"><ele>208.0</ele><time>2026-03-29T16:25:46.521Z</time></trkpt><trkpt lat="44.8612133" lon="1.001755"><ele>208.0</ele><time>2026-03-29T16:25:47.521Z</time></trkpt><trkpt lat="44.861145" lon="1.0019617"><ele>207.49999999999997</ele><time>2026-03-29T16:25:49.522Z</time></trkpt><trkpt lat="44.8610967" lon="1.002115"><ele>207.0</ele><time>2026-03-29T16:25:51.522Z</time></trkpt><trkpt lat="44.8610733" lon="1.002205"><ele>206.5</ele><time>2026-03-29T16:25:52.522Z</time></trkpt><trkpt lat="44.8610833" lon="1.002335"><ele>206.0</ele><time>2026-03-29T16:25:54.521Z</time></trkpt><trkpt lat="44.8610983" lon="1.0024333"><ele>205.49999999999997</ele><time>2026-03-29T16:25:56.522Z</time></trkpt><trkpt lat="44.86113" lon="1.0025467"><ele>205.0</ele><time>2026-03-29T16:25:58.52Z</time></trkpt><trkpt lat="44.86116" lon="1.002695"><ele>204.66666666666666</ele><time>2026-03-29T16:26:00.521Z</time></trkpt><trkpt lat="44.8611917" lon="1.0028717"><ele>204.33333333333331</ele><time>2026-03-29T16:26:02.521Z</time></trkpt><trkpt lat="44.8611983" lon="1.0029683"><ele>204.0</ele><time>2026-03-29T16:26:03.521Z</time></trkpt><trkpt lat="44.8612033" lon="1.00306"><ele>203.66666666666669</ele><time>2026-03-29T16:26:04.521Z</time></trkpt><trkpt lat="44.8612083" lon="1.0032233"><ele>203.33333333333334</ele><time>2026-03-29T16:26:06.52Z</time></trkpt><trkpt lat="44.861215" lon="1.0033183"><ele>203.0</ele><time>2026-03-29T16:26:07.521Z</time></trkpt><trkpt lat="44.8612183" lon="1.0034117"><ele>202.83333333333334</ele><time>2026-03-29T16:26:08.52Z</time></trkpt><trkpt lat="44.861225" lon="1.0035117"><ele>202.66666666666669</ele><time>2026-03-29T16:26:09.521Z</time></trkpt><trkpt lat="44.861235" lon="1.0036233"><ele>202.5</ele><time>2026-03-29T16:26:10.52Z</time></trkpt><trkpt lat="44.8612483" lon="1.0037417"><ele>202.33333333333331</ele><time>2026-03-29T16:26:11.52Z</time></trkpt><trkpt lat="44.861265" lon="1.0038583"><ele>202.16666666666666</ele><time>2026-03-29T16:26:12.52Z</time></trkpt><trkpt lat="44.8612883" lon="1.0040017"><ele>202.0</ele><time>2026-03-29T16:26:13.521Z</time></trkpt><trkpt lat="44.8613083" lon="1.0041517"><ele>199.25</ele><time>2026-03-29T16:26:14.52Z</time></trkpt><trkpt lat="44.86132" lon="1.0043433"><ele>196.5</ele><time>2026-03-29T16:26:15.52Z</time></trkpt><trkpt lat="44.86132" lon="1.004495"><ele>193.75</ele><time>2026-03-29T16:26:16.52Z</time></trkpt><trkpt lat="44.8613317" lon="1.0046533"><ele>191.0</ele><time>2026-03-29T16:26:17.52Z</time></trkpt><trkpt lat="44.8613333" lon="1.004795"><ele>191.0</ele><time>2026-03-29T16:26:18.521Z</time></trkpt><trkpt lat="44.8613433" lon="1.0048967"><ele>191.0</ele><time>2026-03-29T16:26:19.52Z</time></trkpt><trkpt lat="44.8613483" lon="1.005"><ele>191.0</ele><time>2026-03-29T16:26:20.521Z</time></trkpt><trkpt lat="44.861345" lon="1.00511"><ele>191.0</ele><time>2026-03-29T16:26:21.521Z</time></trkpt><trkpt lat="44.8613183" lon="1.0052583"><ele>191.0</ele><time>2026-03-29T16:26:22.52Z</time></trkpt><trkpt lat="44.8613" lon="1.0053533"><ele>191.0</ele><time>2026-03-29T16:26:23.52Z</time></trkpt><trkpt lat="44.861305" lon="1.00549"><ele>189.4</ele><time>2026-03-29T16:26:26.52Z</time></trkpt><trkpt lat="44.86137" lon="1.005625"><ele>187.8</ele><time>2026-03-29T16:26:28.521Z</time></trkpt><trkpt lat="44.8614117" lon="1.0057283"><ele>186.20000000000002</ele><time>2026-03-29T16:26:29.521Z</time></trkpt><trkpt lat="44.861455" lon="1.0058267"><ele>184.60000000000002</ele><time>2026-03-29T16:26:30.52Z</time></trkpt><trkpt lat="44.861505" lon="1.005915"><ele>183.0</ele><time>2026-03-29T16:26:31.521Z</time></trkpt><trkpt lat="44.8616017" lon="1.0059617"><ele>183.0</ele><time>2026-03-29T16:26:33.52Z</time></trkpt><trkpt lat="44.8617083" lon="1.0058883"><ele>183.0</ele><time>2026-03-29T16:26:35.52Z</time></trkpt><trkpt lat="44.8617933" lon="1.0057733"><ele>183.0</ele><time>2026-03-29T16:26:37.52Z</time></trkpt><trkpt lat="44.861855" lon="1.0056967"><ele>183.0</ele><time>2026-03-29T16:26:39.521Z</time></trkpt><trkpt lat="44.8619183" lon="1.0056033"><ele>183.0</ele><time>2026-03-29T16:26:41.52Z</time></trkpt><trkpt lat="44.8620183" lon="1.0055367"><ele>179.25</ele><time>2026-03-29T16:26:43.52Z</time></trkpt><trkpt lat="44.8621617" lon="1.00553"><ele>175.5</ele><time>2026-03-29T16:26:45.521Z</time></trkpt><trkpt lat="44.8622333" lon="1.0055383"><ele>171.75</ele><time>2026-03-29T16:26:46.521Z</time></trkpt><trkpt lat="44.862345" lon="1.005505"><ele>168.0</ele><time>2026-03-29T16:26:48.52Z</time></trkpt><trkpt lat="44.862465" lon="1.0054033"><ele>168.0</ele><time>2026-03-29T16:26:50.52Z</time></trkpt><trkpt lat="44.8625333" lon="1.0053367"><ele>168.0</ele><time>2026-03-29T16:26:51.521Z</time></trkpt><trkpt lat="44.8625883" lon="1.0052533"><ele>168.0</ele><time>2026-03-29T16:26:52.521Z</time></trkpt><trkpt lat="44.8626417" lon="1.0051617"><ele>168.0</ele><time>2026-03-29T16:26:53.52Z</time></trkpt><trkpt lat="44.8626933" lon="1.0050783"><ele>168.0</ele><time>2026-03-29T16:26:54.521Z</time></trkpt><trkpt lat="44.8627467" lon="1.0050017"><ele>168.0</ele><time>2026-03-29T16:26:55.521Z</time></trkpt><trkpt lat="44.8628783" lon="1.0049983"><ele>166.60000000000002</ele><time>2026-03-29T16:26:56.52Z</time></trkpt><trkpt lat="44.8629683" lon="1.004985"><ele>165.20000000000002</ele><time>2026-03-29T16:26:57.521Z</time></trkpt><trkpt lat="44.8630683" lon="1.0049833"><ele>163.8</ele><time>2026-03-29T16:26:58.52Z</time></trkpt><trkpt lat="44.8631817" lon="1.00498"><ele>162.4</ele><time>2026-03-29T16:26:59.52Z</time></trkpt><trkpt lat="44.8633117" lon="1.0049733"><ele>161.0</ele><time>2026-03-29T16:27:00.52Z</time></trkpt><trkpt lat="44.863435" lon="1.0049633"><ele>159.0</ele><time>2026-03-29T16:27:01.52Z</time></trkpt><trkpt lat="44.8635567" lon="1.0049433"><ele>157.0</ele><time>2026-03-29T16:27:02.521Z</time></trkpt><trkpt lat="44.8636667" lon="1.004905"><ele>155.0</ele><time>2026-03-29T16:27:03.52Z</time></trkpt><trkpt lat="44.86379" lon="1.0048767"><ele>153.0</ele><time>2026-03-29T16:27:04.52Z</time></trkpt><trkpt lat="44.86391" lon="1.0048517"><ele>153.0</ele><time>2026-03-29T16:27:05.52Z</time></trkpt><trkpt lat="44.864025" lon="1.00481"><ele>153.0</ele><time>2026-03-29T16:27:06.521Z</time></trkpt><trkpt lat="44.8641333" lon="1.0047633"><ele>153.0</ele><time>2026-03-29T16:27:07.521Z</time></trkpt><trkpt lat="44.8642283" lon="1.00473"><ele>153.0</ele><time>2026-03-29T16:27:08.521Z</time></trkpt><trkpt lat="44.86434" lon="1.0047117"><ele>153.0</ele><time>2026-03-29T16:27:09.52Z</time></trkpt><trkpt lat="44.8644383" lon="1.0046967"><ele>152.83333333333334</ele><time>2026-03-29T16:27:10.52Z</time></trkpt><trkpt lat="44.8645433" lon="1.0046883"><ele>152.66666666666666</ele><time>2026-03-29T16:27:11.52Z</time></trkpt><trkpt lat="44.8646367" lon="1.004695"><ele>152.5</ele><time>2026-03-29T16:27:12.521Z</time></trkpt><trkpt lat="44.8647233" lon="1.00471"><ele>152.33333333333331</ele><time>2026-03-29T16:27:13.521Z</time></trkpt><trkpt lat="44.8647933" lon="1.00473"><ele>152.16666666666666</ele><time>2026-03-29T16:27:14.521Z</time></trkpt><trkpt lat="44.86486" lon="1.0047633"><ele>152.0</ele><time>2026-03-29T16:27:15.521Z</time></trkpt><trkpt lat="44.8649467" lon="1.00486"><ele>152.0</ele><time>2026-03-29T16:27:17.52Z</time></trkpt><trkpt lat="44.8650167" lon="1.0049483"><ele>152.0</ele><time>2026-03-29T16:27:19.52Z</time></trkpt><trkpt lat="44.8650917" lon="1.0050667"><ele>152.0</ele><time>2026-03-29T16:27:21.521Z</time></trkpt><trkpt lat="44.8651283" lon="1.00515"><ele>152.0</ele><time>2026-03-29T16:27:22.52Z</time></trkpt><trkpt lat="44.8651483" lon="1.0052667"><ele>152.0</ele><time>2026-03-29T16:27:23.52Z</time></trkpt><trkpt lat="44.8651667" lon="1.0054017"><ele>151.79999999999998</ele><time>2026-03-29T16:27:24.52Z</time></trkpt><trkpt lat="44.8651883" lon="1.0055133"><ele>151.6</ele><time>2026-03-29T16:27:25.52Z</time></trkpt><trkpt lat="44.8652117" lon="1.0056433"><ele>151.39999999999998</ele><time>2026-03-29T16:27:26.52Z</time></trkpt><trkpt lat="44.86522" lon="1.0057883"><ele>151.2</ele><time>2026-03-29T16:27:27.52Z</time></trkpt><trkpt lat="44.865215" lon="1.00595"><ele>151.0</ele><time>2026-03-29T16:27:28.52Z</time></trkpt><trkpt lat="44.865225" lon="1.006105"><ele>147.4</ele><time>2026-03-29T16:27:29.52Z</time></trkpt><trkpt lat="44.86524" lon="1.00626"><ele>143.8</ele><time>2026-03-29T16:27:30.521Z</time></trkpt><trkpt lat="44.8652667" lon="1.006445"><ele>140.20000000000002</ele><time>2026-03-29T16:27:31.521Z</time></trkpt><trkpt lat="44.8652983" lon="1.0065717"><ele>136.6</ele><time>2026-03-29T16:27:32.52Z</time></trkpt><trkpt lat="44.8653217" lon="1.0067033"><ele>133.0</ele><time>2026-03-29T16:27:33.521Z</time></trkpt><trkpt lat="44.8653417" lon="1.0068217"><ele>131.4</ele><time>2026-03-29T16:27:34.52Z</time></trkpt><trkpt lat="44.8653467" lon="1.006955"><ele>129.8</ele><time>2026-03-29T16:27:35.52Z</time></trkpt><trkpt lat="44.8653367" lon="1.00709"><ele>128.2</ele><time>2026-03-29T16:27:37.521Z</time></trkpt><trkpt lat="44.8652967" lon="1.0071683"><ele>126.6</ele><time>2026-03-29T16:27:39.52Z</time></trkpt><trkpt lat="44.8652433" lon="1.007285"><ele>125.0</ele><time>2026-03-29T16:27:42.52Z</time></trkpt><trkpt lat="44.8651967" lon="1.007435"><ele>125.8</ele><time>2026-03-29T16:27:44.52Z</time></trkpt><trkpt lat="44.8651583" lon="1.0075183"><ele>126.6</ele><time>2026-03-29T16:27:45.52Z</time></trkpt><trkpt lat="44.8651" lon="1.0076217"><ele>127.4</ele><time>2026-03-29T16:27:46.521Z</time></trkpt><trkpt lat="44.86504" lon="1.0077183"><ele>128.2</ele><time>2026-03-29T16:27:47.521Z</time></trkpt><trkpt lat="44.864985" lon="1.0078283"><ele>129.0</ele><time>2026-03-29T16:27:48.52Z</time></trkpt><trkpt lat="44.8649117" lon="1.008045"><ele>129.33333333333334</ele><time>2026-03-29T16:27:49.52Z</time></trkpt><trkpt lat="44.8648567" lon="1.0082867"><ele>129.66666666666669</ele><time>2026-03-29T16:27:50.52Z</time></trkpt><trkpt lat="44.8648067" lon="1.008495"><ele>130.0</ele><time>2026-03-29T16:27:51.521Z</time></trkpt><trkpt lat="44.8647617" lon="1.008705"><ele>129.0</ele><time>2026-03-29T16:27:52.521Z</time></trkpt><trkpt lat="44.8647067" lon="1.008905"><ele>128.0</ele><time>2026-03-29T16:27:53.52Z</time></trkpt><trkpt lat="44.8646633" lon="1.0090867"><ele>127.0</ele><time>2026-03-29T16:27:54.521Z</time></trkpt><trkpt lat="44.86462" lon="1.0092283"><ele>126.0</ele><time>2026-03-29T16:27:55.52Z</time></trkpt><trkpt lat="44.86459" lon="1.0093317"><ele>126.0</ele><time>2026-03-29T16:27:56.521Z</time></trkpt><trkpt lat="44.8645633" lon="1.0094267"><ele>126.0</ele><time>2026-03-29T16:27:57.521Z</time></trkpt><trkpt lat="44.86454" lon="1.00952"><ele>126.0</ele><time>2026-03-29T16:27:58.52Z</time></trkpt><trkpt lat="44.8645067" lon="1.00962"><ele>126.0</ele><time>2026-03-29T16:27:59.52Z</time></trkpt><trkpt lat="44.8644733" lon="1.0097267"><ele>126.0</ele><time>2026-03-29T16:28:00.52Z</time></trkpt><trkpt lat="44.8644217" lon="1.0098367"><ele>126.0</ele><time>2026-03-29T16:28:01.521Z</time></trkpt><trkpt lat="44.864375" lon="1.0099417"><ele>126.5</ele><time>2026-03-29T16:28:02.521Z</time></trkpt><trkpt lat="44.8643317" lon="1.0100367"><ele>127.0</ele><time>2026-03-29T16:28:03.52Z</time></trkpt><trkpt lat="44.8642933" lon="1.01011"><ele>127.5</ele><time>2026-03-29T16:28:04.521Z</time></trkpt><trkpt lat="44.86425" lon="1.010275"><ele>128.0</ele><time>2026-03-29T16:28:06.52Z</time></trkpt><trkpt lat="44.8642267" lon="1.0103667"><ele>128.5</ele><time>2026-03-29T16:28:07.52Z</time></trkpt><trkpt lat="44.864205" lon="1.0104517"><ele>129.0</ele><time>2026-03-29T16:28:08.52Z</time></trkpt><trkpt lat="44.8641733" lon="1.0105433"><ele>129.0</ele><time>2026-03-29T16:28:09.521Z</time></trkpt><trkpt lat="44.864145" lon="1.0106533"><ele>129.0</ele><time>2026-03-29T16:28:11.521Z</time></trkpt><trkpt lat="44.86411" lon="1.0107567"><ele>129.0</ele><time>2026-03-29T16:28:13.521Z</time></trkpt><trkpt lat="44.8640483" lon="1.0109167"><ele>129.0</ele><time>2026-03-29T16:28:15.521Z</time></trkpt><trkpt lat="44.8640067" lon="1.0110233"><ele>129.0</ele><time>2026-03-29T16:28:16.521Z</time></trkpt><trkpt lat="44.8639667" lon="1.01111"><ele>127.4</ele><time>2026-03-29T16:28:17.52Z</time></trkpt><trkpt lat="44.8639283" lon="1.0111883"><ele>125.80000000000001</ele><time>2026-03-29T16:28:18.52Z</time></trkpt><trkpt lat="44.8638433" lon="1.0113333"><ele>124.19999999999999</ele><time>2026-03-29T16:28:20.521Z</time></trkpt><trkpt lat="44.863795" lon="1.0114433"><ele>122.6</ele><time>2026-03-29T16:28:21.52Z</time></trkpt><trkpt lat="44.8637383" lon="1.0115683"><ele>121.0</ele><time>2026-03-29T16:28:22.521Z</time></trkpt><trkpt lat="44.863665" lon="1.0117117"><ele>120.5</ele><time>2026-03-29T16:28:23.52Z</time></trkpt><trkpt lat="44.8635933" lon="1.0118683"><ele>120.0</ele><time>2026-03-29T16:28:24.521Z</time></trkpt><trkpt lat="44.8635267" lon="1.0120267"><ele>119.5</ele><time>2026-03-29T16:28:25.52Z</time></trkpt><trkpt lat="44.8634617" lon="1.012165"><ele>119.0</ele><time>2026-03-29T16:28:26.521Z</time></trkpt><trkpt lat="44.8633967" lon="1.0122883"><ele>118.66666666666666</ele><time>2026-03-29T16:28:27.521Z</time></trkpt><trkpt lat="44.8633467" lon="1.0124033"><ele>118.33333333333333</ele><time>2026-03-29T16:28:28.521Z</time></trkpt><trkpt lat="44.8632933" lon="1.0125233"><ele>118.0</ele><time>2026-03-29T16:28:29.521Z</time></trkpt><trkpt lat="44.86324" lon="1.0126067"><ele>117.66666666666666</ele><time>2026-03-29T16:28:30.521Z</time></trkpt><trkpt lat="44.8631717" lon="1.0126683"><ele>117.33333333333333</ele><time>2026-03-29T16:28:31.521Z</time></trkpt><trkpt lat="44.8631067" lon="1.0127367"><ele>117.0</ele><time>2026-03-29T16:28:32.52Z</time></trkpt><trkpt lat="44.8630317" lon="1.012815"><ele>117.0</ele><time>2026-03-29T16:28:33.521Z</time></trkpt><trkpt lat="44.862955" lon="1.0128867"><ele>117.0</ele><time>2026-03-29T16:28:34.521Z</time></trkpt><trkpt lat="44.8628867" lon="1.01294"><ele>117.0</ele><time>2026-03-29T16:28:35.52Z</time></trkpt><trkpt lat="44.8628183" lon="1.01298"><ele>117.0</ele><time>2026-03-29T16:28:36.52Z</time></trkpt><trkpt lat="44.8627517" lon="1.0129983"><ele>117.0</ele><time>2026-03-29T16:28:37.521Z</time></trkpt><trkpt lat="44.8626667" lon="1.0130117"><ele>117.0</ele><time>2026-03-29T16:28:39.52Z</time></trkpt><trkpt lat="44.8626017" lon="1.012975"><ele>118.33333333333333</ele><time>2026-03-29T16:28:41.52Z</time></trkpt><trkpt lat="44.8625333" lon="1.0129633"><ele>119.66666666666666</ele><time>2026-03-29T16:28:43.52Z</time></trkpt><trkpt lat="44.862465" lon="1.012935"><ele>121.0</ele><time>2026-03-29T16:28:45.521Z</time></trkpt><trkpt lat="44.8623817" lon="1.0129017"><ele>122.33333333333333</ele><time>2026-03-29T16:28:47.52Z</time></trkpt><trkpt lat="44.8622867" lon="1.0128817"><ele>123.66666666666666</ele><time>2026-03-29T16:28:49.521Z</time></trkpt><trkpt lat="44.8621717" lon="1.0128667"><ele>125.0</ele><time>2026-03-29T16:28:51.52Z</time></trkpt><trkpt lat="44.8620883" lon="1.0128583"><ele>125.0</ele><time>2026-03-29T16:28:52.52Z</time></trkpt><trkpt lat="44.8619483" lon="1.0128633"><ele>125.0</ele><time>2026-03-29T16:28:53.521Z</time></trkpt><trkpt lat="44.861825" lon="1.0128733"><ele>125.0</ele><time>2026-03-29T16:28:54.521Z</time></trkpt><trkpt lat="44.8617067" lon="1.012895"><ele>125.0</ele><time>2026-03-29T16:28:55.52Z</time></trkpt><trkpt lat="44.8616" lon="1.0129283"><ele>124.2</ele><time>2026-03-29T16:28:56.52Z</time></trkpt><trkpt lat="44.8615" lon="1.012985"><ele>123.4</ele><time>2026-03-29T16:28:57.52Z</time></trkpt><trkpt lat="44.86141" lon="1.013045"><ele>122.6</ele><time>2026-03-29T16:28:58.521Z</time></trkpt><trkpt lat="44.8613183" lon="1.0131"><ele>121.8</ele><time>2026-03-29T16:28:59.52Z</time></trkpt><trkpt lat="44.86122" lon="1.0131383"><ele>121.0</ele><time>2026-03-29T16:29:00.521Z</time></trkpt><trkpt lat="44.8610967" lon="1.0131883"><ele>121.0</ele><time>2026-03-29T16:29:01.521Z</time></trkpt><trkpt lat="44.8609933" lon="1.0132367"><ele>121.0</ele><time>2026-03-29T16:29:02.52Z</time></trkpt><trkpt lat="44.8608967" lon="1.0132817"><ele>121.0</ele><time>2026-03-29T16:29:03.52Z</time></trkpt><trkpt lat="44.8607967" lon="1.0133133"><ele>121.0</ele><time>2026-03-29T16:29:04.52Z</time></trkpt><trkpt lat="44.8606917" lon="1.0133167"><ele>121.0</ele><time>2026-03-29T16:29:05.52Z</time></trkpt><trkpt lat="44.8605733" lon="1.0133"><ele>120.25</ele><time>2026-03-29T16:29:06.521Z</time></trkpt><trkpt lat="44.8604583" lon="1.0132483"><ele>119.5</ele><time>2026-03-29T16:29:07.521Z</time></trkpt><trkpt lat="44.8603417" lon="1.01319"><ele>118.75</ele><time>2026-03-29T16:29:08.521Z</time></trkpt><trkpt lat="44.8602333" lon="1.0131517"><ele>118.0</ele><time>2026-03-29T16:29:09.521Z</time></trkpt><trkpt lat="44.860125" lon="1.01311"><ele>117.4</ele><time>2026-03-29T16:29:10.52Z</time></trkpt><trkpt lat="44.8600117" lon="1.0130767"><ele>116.80000000000001</ele><time>2026-03-29T16:29:11.521Z</time></trkpt><trkpt lat="44.8599233" lon="1.012975"><ele>116.2</ele><time>2026-03-29T16:29:12.521Z</time></trkpt><trkpt lat="44.8598317" lon="1.0129617"><ele>115.6</ele><time>2026-03-29T16:29:13.521Z</time></trkpt><trkpt lat="44.859755" lon="1.012975"><ele>115.0</ele><time>2026-03-29T16:29:14.521Z</time></trkpt><trkpt lat="44.85969" lon="1.0129983"><ele>115.0</ele><time>2026-03-29T16:29:15.52Z</time></trkpt><trkpt lat="44.85959" lon="1.0130983"><ele>115.0</ele><time>2026-03-29T16:29:17.521Z</time></trkpt><trkpt lat="44.8595333" lon="1.0131983"><ele>115.0</ele><time>2026-03-29T16:29:19.521Z</time></trkpt><trkpt lat="44.859475" lon="1.01329"><ele>115.0</ele><time>2026-03-29T16:29:22.521Z</time></trkpt><trkpt lat="44.859365" lon="1.0134067"><ele>115.0</ele><time>2026-03-29T16:29:24.52Z</time></trkpt><trkpt lat="44.859305" lon="1.0134583"><ele>113.0</ele><time>2026-03-29T16:29:25.521Z</time></trkpt><trkpt lat="44.8592367" lon="1.013525"><ele>111.0</ele><time>2026-03-29T16:29:26.521Z</time></trkpt><trkpt lat="44.85916" lon="1.0136017"><ele>109.0</ele><time>2026-03-29T16:29:27.521Z</time></trkpt><trkpt lat="44.859085" lon="1.0136717"><ele>107.0</ele><time>2026-03-29T16:29:28.521Z</time></trkpt><trkpt lat="44.85899" lon="1.0137567"><ele>105.0</ele><time>2026-03-29T16:29:29.52Z</time></trkpt><trkpt lat="44.8588967" lon="1.0138283"><ele>105.0</ele><time>2026-03-29T16:29:30.521Z</time></trkpt><trkpt lat="44.8588283" lon="1.0138783"><ele>105.0</ele><time>2026-03-29T16:29:31.52Z</time></trkpt><trkpt lat="44.8587583" lon="1.0139333"><ele>105.0</ele><time>2026-03-29T16:29:32.52Z</time></trkpt><trkpt lat="44.8586783" lon="1.01398"><ele>105.0</ele><time>2026-03-29T16:29:33.52Z</time></trkpt><trkpt lat="44.8585917" lon="1.0140267"><ele>105.0</ele><time>2026-03-29T16:29:34.521Z</time></trkpt><trkpt lat="44.85849" lon="1.0140633"><ele>105.0</ele><time>2026-03-29T16:29:35.52Z</time></trkpt><trkpt lat="44.8583617" lon="1.0140867"><ele>106.5</ele><time>2026-03-29T16:29:36.52Z</time></trkpt><trkpt lat="44.858215" lon="1.0141367"><ele>108.0</ele><time>2026-03-29T16:29:37.521Z</time></trkpt><trkpt lat="44.85807" lon="1.0141617"><ele>109.5</ele><time>2026-03-29T16:29:38.521Z</time></trkpt><trkpt lat="44.85793" lon="1.0141783"><ele>111.0</ele><time>2026-03-29T16:29:39.521Z</time></trkpt><trkpt lat="44.85781" lon="1.0142017"><ele>108.19999999999999</ele><time>2026-03-29T16:29:40.521Z</time></trkpt><trkpt lat="44.8577017" lon="1.0142017"><ele>105.39999999999999</ele><time>2026-03-29T16:29:41.52Z</time></trkpt><trkpt lat="44.8576117" lon="1.0141983"><ele>102.6</ele><time>2026-03-29T16:29:42.52Z</time></trkpt><trkpt lat="44.857535" lon="1.0141983"><ele>99.8</ele><time>2026-03-29T16:29:43.521Z</time></trkpt><trkpt lat="44.85746" lon="1.0141983"><ele>97.0</ele><time>2026-03-29T16:29:44.52Z</time></trkpt><trkpt lat="44.8573517" lon="1.0142017"><ele>97.00000000000001</ele><time>2026-03-29T16:29:46.52Z</time></trkpt><trkpt lat="44.8572883" lon="1.01422"><ele>97.0</ele><time>2026-03-29T16:29:48.519Z</time></trkpt><trkpt lat="44.8571833" lon="1.0142533"><ele>97.0</ele><time>2026-03-29T16:29:50.52Z</time></trkpt><trkpt lat="44.85711" lon="1.0142833"><ele>97.0</ele><time>2026-03-29T16:29:51.519Z</time></trkpt><trkpt lat="44.8570383" lon="1.0143217"><ele>97.00000000000001</ele><time>2026-03-29T16:29:52.52Z</time></trkpt><trkpt lat="44.8569617" lon="1.0143533"><ele>97.0</ele><time>2026-03-29T16:29:53.519Z</time></trkpt><trkpt lat="44.85688" lon="1.0143767"><ele>97.0</ele><time>2026-03-29T16:29:54.52Z</time></trkpt><trkpt lat="44.8567867" lon="1.0144017"><ele>97.0</ele><time>2026-03-29T16:29:55.519Z</time></trkpt><trkpt lat="44.8566767" lon="1.0144117"><ele>97.0</ele><time>2026-03-29T16:29:56.52Z</time></trkpt><trkpt lat="44.856565" lon="1.0144267"><ele>97.0</ele><time>2026-03-29T16:29:57.52Z</time></trkpt><trkpt lat="44.8564067" lon="1.014485"><ele>97.83333333333334</ele><time>2026-03-29T16:29:58.519Z</time></trkpt><trkpt lat="44.8562917" lon="1.0145317"><ele>98.66666666666667</ele><time>2026-03-29T16:29:59.519Z</time></trkpt><trkpt lat="44.8561967" lon="1.0145617"><ele>99.5</ele><time>2026-03-29T16:30:00.52Z</time></trkpt><trkpt lat="44.8561217" lon="1.0145633"><ele>100.33333333333334</ele><time>2026-03-29T16:30:01.519Z</time></trkpt><trkpt lat="44.8560483" lon="1.0145467"><ele>101.16666666666667</ele><time>2026-03-29T16:30:02.52Z</time></trkpt><trkpt lat="44.855975" lon="1.0145133"><ele>102.0</ele><time>2026-03-29T16:30:03.519Z</time></trkpt><trkpt lat="44.855885" lon="1.0144367"><ele>102.0</ele><time>2026-03-29T16:30:04.52Z</time></trkpt><trkpt lat="44.8558" lon="1.0143733"><ele>102.0</ele><time>2026-03-29T16:30:05.519Z</time></trkpt><trkpt lat="44.8557083" lon="1.014315"><ele>102.0</ele><time>2026-03-29T16:30:06.519Z</time></trkpt><trkpt lat="44.8556133" lon="1.01429"><ele>102.0</ele><time>2026-03-29T16:30:07.519Z</time></trkpt><trkpt lat="44.8555017" lon="1.014285"><ele>102.0</ele><time>2026-03-29T16:30:08.52Z</time></trkpt><trkpt lat="44.8553917" lon="1.0142917"><ele>102.0</ele><time>2026-03-29T16:30:09.519Z</time></trkpt><trkpt lat="44.8552667" lon="1.01433"><ele>102.0</ele><time>2026-03-29T16:30:10.519Z</time></trkpt><trkpt lat="44.8551383" lon="1.0143833"><ele>102.0</ele><time>2026-03-29T16:30:11.519Z</time></trkpt><trkpt lat="44.85503" lon="1.014425"><ele>102.0</ele><time>2026-03-29T16:30:12.519Z</time></trkpt><trkpt lat="44.8549283" lon="1.0144533"><ele>101.83333333333333</ele><time>2026-03-29T16:30:13.519Z</time></trkpt><trkpt lat="44.854845" lon="1.014475"><ele>101.66666666666666</ele><time>2026-03-29T16:30:14.52Z</time></trkpt><trkpt lat="44.8547667" lon="1.0144917"><ele>101.5</ele><time>2026-03-29T16:30:15.52Z</time></trkpt><trkpt lat="44.8546883" lon="1.0145017"><ele>101.33333333333333</ele><time>2026-03-29T16:30:16.52Z</time></trkpt><trkpt lat="44.8545983" lon="1.0145217"><ele>101.16666666666666</ele><time>2026-03-29T16:30:18.52Z</time></trkpt><trkpt lat="44.8545133" lon="1.0145483"><ele>101.0</ele><time>2026-03-29T16:30:20.52Z</time></trkpt><trkpt lat="44.8544083" lon="1.0146117"><ele>101.0</ele><time>2026-03-29T16:30:22.519Z</time></trkpt><trkpt lat="44.8543317" lon="1.0146783"><ele>101.0</ele><time>2026-03-29T16:30:23.52Z</time></trkpt><trkpt lat="44.8542483" lon="1.014755"><ele>101.0</ele><time>2026-03-29T16:30:24.52Z</time></trkpt><trkpt lat="44.8541533" lon="1.0148283"><ele>101.0</ele><time>2026-03-29T16:30:25.52Z</time></trkpt><trkpt lat="44.8540567" lon="1.0149233"><ele>101.0</ele><time>2026-03-29T16:30:26.519Z</time></trkpt><trkpt lat="44.8539483" lon="1.015035"><ele>97.75</ele><time>2026-03-29T16:30:27.52Z</time></trkpt><trkpt lat="44.8538483" lon="1.015175"><ele>94.5</ele><time>2026-03-29T16:30:28.519Z</time></trkpt><trkpt lat="44.8537467" lon="1.015335"><ele>91.25</ele><time>2026-03-29T16:30:29.519Z</time></trkpt><trkpt lat="44.8536467" lon="1.0154733"><ele>88.0</ele><time>2026-03-29T16:30:30.519Z</time></trkpt><trkpt lat="44.8535667" lon="1.015625"><ele>88.0</ele><time>2026-03-29T16:30:31.52Z</time></trkpt><trkpt lat="44.8534983" lon="1.0157467"><ele>88.0</ele><time>2026-03-29T16:30:32.519Z</time></trkpt><trkpt lat="44.8534317" lon="1.0158883"><ele>88.0</ele><time>2026-03-29T16:30:33.52Z</time></trkpt><trkpt lat="44.853365" lon="1.0160267"><ele>88.0</ele><time>2026-03-29T16:30:34.52Z</time></trkpt><trkpt lat="44.8533133" lon="1.0161783"><ele>88.0</ele><time>2026-03-29T16:30:35.52Z</time></trkpt><trkpt lat="44.8532583" lon="1.0163217"><ele>88.0</ele><time>2026-03-29T16:30:36.52Z</time></trkpt><trkpt lat="44.8532033" lon="1.01646"><ele>88.0</ele><time>2026-03-29T16:30:37.519Z</time></trkpt><trkpt lat="44.8531533" lon="1.0166283"><ele>88.0</ele><time>2026-03-29T16:30:38.52Z</time></trkpt><trkpt lat="44.8531067" lon="1.0167917"><ele>88.0</ele><time>2026-03-29T16:30:39.519Z</time></trkpt><trkpt lat="44.8530567" lon="1.0169583"><ele>88.0</ele><time>2026-03-29T16:30:40.519Z</time></trkpt><trkpt lat="44.853025" lon="1.0171083"><ele>88.0</ele><time>2026-03-29T16:30:41.52Z</time></trkpt><trkpt lat="44.8529967" lon="1.0172433"><ele>88.0</ele><time>2026-03-29T16:30:42.52Z</time></trkpt><trkpt lat="44.852985" lon="1.0173567"><ele>88.0</ele><time>2026-03-29T16:30:43.519Z</time></trkpt><trkpt lat="44.8529767" lon="1.0175"><ele>87.83333333333333</ele><time>2026-03-29T16:30:45.519Z</time></trkpt><trkpt lat="44.8530367" lon="1.0175383"><ele>87.66666666666666</ele><time>2026-03-29T16:30:48.52Z</time></trkpt><trkpt lat="44.8531067" lon="1.01757"><ele>87.5</ele><time>2026-03-29T16:30:55.519Z</time></trkpt><trkpt lat="44.853175" lon="1.01762"><ele>87.33333333333333</ele><time>2026-03-29T16:30:57.519Z</time></trkpt><trkpt lat="44.853215" lon="1.0177067"><ele>87.16666666666667</ele><time>2026-03-29T16:30:59.52Z</time></trkpt><trkpt lat="44.85321" lon="1.0178167"><ele>87.0</ele><time>2026-03-29T16:31:00.519Z</time></trkpt><trkpt lat="44.853195" lon="1.0179683"><ele>87.0</ele><time>2026-03-29T16:31:01.52Z</time></trkpt><trkpt lat="44.8531767" lon="1.018135"><ele>87.0</ele><time>2026-03-29T16:31:02.52Z</time></trkpt><trkpt lat="44.8531683" lon="1.018265"><ele>87.0</ele><time>2026-03-29T16:31:03.519Z</time></trkpt><trkpt lat="44.8531633" lon="1.0183583"><ele>87.0</ele><time>2026-03-29T16:31:04.52Z</time></trkpt><trkpt lat="44.8531767" lon="1.0184917"><ele>87.0</ele><time>2026-03-29T16:31:06.519Z</time></trkpt><trkpt lat="44.853205" lon="1.01859"><ele>87.0</ele><time>2026-03-29T16:31:08.52Z</time></trkpt><trkpt lat="44.8532467" lon="1.01866"><ele>87.0</ele><time>2026-03-29T16:31:10.52Z</time></trkpt><trkpt lat="44.85332" lon="1.0186783"><ele>87.0</ele><time>2026-03-29T16:31:13.519Z</time></trkpt><trkpt lat="44.8533833" lon="1.0186833"><ele>87.0</ele><time>2026-03-29T16:31:15.52Z</time></trkpt><trkpt lat="44.8534917" lon="1.0186717"><ele>87.0</ele><time>2026-03-29T16:31:17.519Z</time></trkpt><trkpt lat="44.853555" lon="1.0186533"><ele>87.0</ele><time>2026-03-29T16:31:18.52Z</time></trkpt><trkpt lat="44.8536283" lon="1.0186267"><ele>87.0</ele><time>2026-03-29T16:31:19.52Z</time></trkpt><trkpt lat="44.8536967" lon="1.0185917"><ele>89.42857142857143</ele><time>2026-03-29T16:31:20.519Z</time></trkpt><trkpt lat="44.8537633" lon="1.01857"><ele>91.85714285714286</ele><time>2026-03-29T16:31:21.52Z</time></trkpt><trkpt lat="44.853835" lon="1.0185567"><ele>94.28571428571428</ele><time>2026-03-29T16:31:22.52Z</time></trkpt><trkpt lat="44.8539083" lon="1.0185283"><ele>96.71428571428572</ele><time>2026-03-29T16:31:23.519Z</time></trkpt><trkpt lat="44.8539833" lon="1.0185233"><ele>99.14285714285715</ele><time>2026-03-29T16:31:24.519Z</time></trkpt><trkpt lat="44.8540567" lon="1.018525"><ele>101.57142857142857</ele><time>2026-03-29T16:31:25.519Z</time></trkpt><trkpt lat="44.854125" lon="1.0185333"><ele>104.0</ele><time>2026-03-29T16:31:26.52Z</time></trkpt><trkpt lat="44.8542067" lon="1.018545"><ele>103.99999999999999</ele><time>2026-03-29T16:31:27.52Z</time></trkpt><trkpt lat="44.8542767" lon="1.0185817"><ele>104.0</ele><time>2026-03-29T16:31:28.519Z</time></trkpt><trkpt lat="44.85435" lon="1.01863"><ele>104.0</ele><time>2026-03-29T16:31:29.519Z</time></trkpt><trkpt lat="44.854415" lon="1.0186917"><ele>104.0</ele><time>2026-03-29T16:31:30.52Z</time></trkpt><trkpt lat="44.8544683" lon="1.01876"><ele>103.99999999999999</ele><time>2026-03-29T16:31:31.52Z</time></trkpt><trkpt lat="44.8545467" lon="1.0188433"><ele>104.0</ele><time>2026-03-29T16:31:33.519Z</time></trkpt><trkpt lat="44.8546267" lon="1.0189433"><ele>106.83333333333333</ele><time>2026-03-29T16:31:35.52Z</time></trkpt><trkpt lat="44.8546783" lon="1.01901"><ele>109.66666666666666</ele><time>2026-03-29T16:31:36.52Z</time></trkpt><trkpt lat="44.8547367" lon="1.0190733"><ele>112.5</ele><time>2026-03-29T16:31:37.519Z</time></trkpt><trkpt lat="44.8547917" lon="1.0191483"><ele>115.33333333333334</ele><time>2026-03-29T16:31:38.52Z</time></trkpt><trkpt lat="44.8548467" lon="1.019225"><ele>118.16666666666667</ele><time>2026-03-29T16:31:39.52Z</time></trkpt><trkpt lat="44.8548967" lon="1.0193117"><ele>121.0</ele><time>2026-03-29T16:31:40.52Z</time></trkpt><trkpt lat="44.8549617" lon="1.0193983"><ele>121.0</ele><time>2026-03-29T16:31:41.52Z</time></trkpt><trkpt lat="44.8550267" lon="1.0194717"><ele>121.0</ele><time>2026-03-29T16:31:42.519Z</time></trkpt><trkpt lat="44.85511" lon="1.0195267"><ele>121.0</ele><time>2026-03-29T16:31:43.519Z</time></trkpt><trkpt lat="44.8552067" lon="1.0195633"><ele>121.0</ele><time>2026-03-29T16:31:44.519Z</time></trkpt><trkpt lat="44.8553167" lon="1.0195683"><ele>121.0</ele><time>2026-03-29T16:31:45.52Z</time></trkpt><trkpt lat="44.8554233" lon="1.019555"><ele>125.8</ele><time>2026-03-29T16:31:46.52Z</time></trkpt><trkpt lat="44.855525" lon="1.0195233"><ele>130.6</ele><time>2026-03-29T16:31:47.519Z</time></trkpt><trkpt lat="44.8556183" lon="1.0195083"><ele>135.4</ele><time>2026-03-29T16:31:48.519Z</time></trkpt><trkpt lat="44.85571" lon="1.0194817"><ele>140.2</ele><time>2026-03-29T16:31:49.519Z</time></trkpt><trkpt lat="44.855805" lon="1.0194617"><ele>145.0</ele><time>2026-03-29T16:31:50.519Z</time></trkpt><trkpt lat="44.855895" lon="1.019445"><ele>147.2</ele><time>2026-03-29T16:31:51.519Z</time></trkpt><trkpt lat="44.85598" lon="1.01944"><ele>149.4</ele><time>2026-03-29T16:31:52.52Z</time></trkpt><trkpt lat="44.8560733" lon="1.0194433"><ele>151.6</ele><time>2026-03-29T16:31:53.519Z</time></trkpt><trkpt lat="44.8561667" lon="1.0194417"><ele>153.8</ele><time>2026-03-29T16:31:54.52Z</time></trkpt><trkpt lat="44.8562567" lon="1.0194283"><ele>156.0</ele><time>2026-03-29T16:31:55.52Z</time></trkpt><trkpt lat="44.8563533" lon="1.0193683"><ele>156.0</ele><time>2026-03-29T16:31:56.52Z</time></trkpt><trkpt lat="44.8564567" lon="1.0193117"><ele>156.0</ele><time>2026-03-29T16:31:57.519Z</time></trkpt><trkpt lat="44.8565417" lon="1.019265"><ele>156.0</ele><time>2026-03-29T16:31:58.519Z</time></trkpt><trkpt lat="44.8566233" lon="1.0191967"><ele>156.0</ele><time>2026-03-29T16:31:59.519Z</time></trkpt><trkpt lat="44.85671" lon="1.0191333"><ele>156.0</ele><time>2026-03-29T16:32:00.52Z</time></trkpt><trkpt lat="44.8568283" lon="1.01909"><ele>162.4</ele><time>2026-03-29T16:32:01.52Z</time></trkpt><trkpt lat="44.856935" lon="1.0190733"><ele>168.8</ele><time>2026-03-29T16:32:02.52Z</time></trkpt><trkpt lat="44.8570317" lon="1.019065"><ele>175.20000000000002</ele><time>2026-03-29T16:32:03.52Z</time></trkpt><trkpt lat="44.8571417" lon="1.019105"><ele>181.6</ele><time>2026-03-29T16:32:05.52Z</time></trkpt><trkpt lat="44.8572083" lon="1.01908"><ele>188.0</ele><time>2026-03-29T16:32:06.52Z</time></trkpt><trkpt lat="44.8572717" lon="1.0190383"><ele>188.0</ele><time>2026-03-29T16:32:07.52Z</time></trkpt><trkpt lat="44.85731" lon="1.0189283"><ele>188.0</ele><time>2026-03-29T16:32:08.519Z</time></trkpt><trkpt lat="44.8572767" lon="1.018765"><ele>188.0</ele><time>2026-03-29T16:32:09.52Z</time></trkpt><trkpt lat="44.85725" lon="1.0186483"><ele>188.0</ele><time>2026-03-29T16:32:10.52Z</time></trkpt><trkpt lat="44.85721" lon="1.01855"><ele>188.0</ele><time>2026-03-29T16:32:11.52Z</time></trkpt><trkpt lat="44.8571717" lon="1.0184533"><ele>188.0</ele><time>2026-03-29T16:32:12.52Z</time></trkpt><trkpt lat="44.8571217" lon="1.0183517"><ele>188.0</ele><time>2026-03-29T16:32:13.52Z</time></trkpt><trkpt lat="44.857065" lon="1.0182583"><ele>188.0</ele><time>2026-03-29T16:32:14.519Z</time></trkpt><trkpt lat="44.85701" lon="1.0181867"><ele>188.0</ele><time>2026-03-29T16:32:15.519Z</time></trkpt><trkpt lat="44.8569617" lon="1.0181167"><ele>188.0</ele><time>2026-03-29T16:32:16.52Z</time></trkpt><trkpt lat="44.8569017" lon="1.0180067"><ele>188.0</ele><time>2026-03-29T16:32:18.519Z</time></trkpt><trkpt lat="44.8568983" lon="1.0178967"><ele>187.8</ele><time>2026-03-29T16:32:20.52Z</time></trkpt><trkpt lat="44.8569667" lon="1.0178567"><ele>187.60000000000002</ele><time>2026-03-29T16:32:23.52Z</time></trkpt><trkpt lat="44.857065" lon="1.0178883"><ele>187.39999999999998</ele><time>2026-03-29T16:32:24.52Z</time></trkpt><trkpt lat="44.8571783" lon="1.0179267"><ele>187.2</ele><time>2026-03-29T16:32:25.52Z</time></trkpt><trkpt lat="44.8572683" lon="1.0179617"><ele>187.0</ele><time>2026-03-29T16:32:26.52Z</time></trkpt><trkpt lat="44.8573833" lon="1.0180283"><ele>187.0</ele><time>2026-03-29T16:32:27.519Z</time></trkpt><trkpt lat="44.8575083" lon="1.0180967"><ele>187.0</ele><time>2026-03-29T16:32:28.52Z</time></trkpt><trkpt lat="44.8576217" lon="1.0181767"><ele>187.0</ele><time>2026-03-29T16:32:29.519Z</time></trkpt><trkpt lat="44.8577317" lon="1.0182717"><ele>187.0</ele><time>2026-03-29T16:32:30.519Z</time></trkpt><trkpt lat="44.8578367" lon="1.0183633"><ele>188.6</ele><time>2026-03-29T16:32:31.519Z</time></trkpt><trkpt lat="44.857935" lon="1.0184367"><ele>190.2</ele><time>2026-03-29T16:32:32.52Z</time></trkpt><trkpt lat="44.858025" lon="1.0184783"><ele>191.8</ele><time>2026-03-29T16:32:33.52Z</time></trkpt><trkpt lat="44.8581217" lon="1.0185167"><ele>193.4</ele><time>2026-03-29T16:32:34.519Z</time></trkpt><trkpt lat="44.858235" lon="1.0185533"><ele>195.0</ele><time>2026-03-29T16:32:35.519Z</time></trkpt><trkpt lat="44.8583367" lon="1.0185883"><ele>195.0</ele><time>2026-03-29T16:32:36.519Z</time></trkpt><trkpt lat="44.85843" lon="1.0186183"><ele>195.0</ele><time>2026-03-29T16:32:37.52Z</time></trkpt><trkpt lat="44.858505" lon="1.01865"><ele>195.0</ele><time>2026-03-29T16:32:38.519Z</time></trkpt><trkpt lat="44.85859" lon="1.018695"><ele>195.0</ele><time>2026-03-29T16:32:39.519Z</time></trkpt><trkpt lat="44.8586633" lon="1.0187567"><ele>195.0</ele><time>2026-03-29T16:32:40.52Z</time></trkpt><trkpt lat="44.8587483" lon="1.0188333"><ele>194.66666666666666</ele><time>2026-03-29T16:32:41.519Z</time></trkpt><trkpt lat="44.8588" lon="1.0189317"><ele>194.33333333333331</ele><time>2026-03-29T16:32:42.519Z</time></trkpt><trkpt lat="44.8588567" lon="1.01902"><ele>194.0</ele><time>2026-03-29T16:32:43.519Z</time></trkpt><trkpt lat="44.858915" lon="1.0191317"><ele>193.66666666666666</ele><time>2026-03-29T16:32:44.519Z</time></trkpt><trkpt lat="44.8589717" lon="1.0192033"><ele>193.33333333333331</ele><time>2026-03-29T16:32:45.52Z</time></trkpt><trkpt lat="44.8590367" lon="1.0192917"><ele>193.0</ele><time>2026-03-29T16:32:46.519Z</time></trkpt><trkpt lat="44.8591167" lon="1.0193683"><ele>193.0</ele><time>2026-03-29T16:32:47.519Z</time></trkpt><trkpt lat="44.85921" lon="1.01943"><ele>193.0</ele><time>2026-03-29T16:32:48.519Z</time></trkpt><trkpt lat="44.8592983" lon="1.0194717"><ele>193.0</ele><time>2026-03-29T16:32:49.519Z</time></trkpt><trkpt lat="44.8593917" lon="1.0195183"><ele>193.0</ele><time>2026-03-29T16:32:50.519Z</time></trkpt><trkpt lat="44.8594583" lon="1.019545"><ele>193.0</ele><time>2026-03-29T16:32:51.52Z</time></trkpt><trkpt lat="44.8595567" lon="1.01957"><ele>192.2</ele><time>2026-03-29T16:32:53.52Z</time></trkpt><trkpt lat="44.85964" lon="1.0196233"><ele>191.4</ele><time>2026-03-29T16:32:57.52Z</time></trkpt><trkpt lat="44.859665" lon="1.0197733"><ele>190.6</ele><time>2026-03-29T16:32:59.52Z</time></trkpt><trkpt lat="44.8596917" lon="1.0199133"><ele>189.79999999999998</ele><time>2026-03-29T16:33:01.52Z</time></trkpt><trkpt lat="44.8596883" lon="1.0200533"><ele>189.0</ele><time>2026-03-29T16:33:03.519Z</time></trkpt><trkpt lat="44.8596733" lon="1.0201767"><ele>189.0</ele><time>2026-03-29T16:33:05.519Z</time></trkpt><trkpt lat="44.8597133" lon="1.0202783"><ele>189.0</ele><time>2026-03-29T16:33:08.52Z</time></trkpt><trkpt lat="44.85972" lon="1.020165"><ele>189.0</ele><time>2026-03-29T16:46:15.515Z</time></trkpt><trkpt lat="44.8596717" lon="1.0200817"><ele>189.0</ele><time>2026-03-29T16:46:18.516Z</time></trkpt><trkpt lat="44.85968" lon="1.0199717"><ele>189.0</ele><time>2026-03-29T16:46:20.516Z</time></trkpt><trkpt lat="44.8596667" lon="1.0198333"><ele>189.0</ele><time>2026-03-29T16:46:22.515Z</time></trkpt><trkpt lat="44.8596767" lon="1.019725"><ele>189.0</ele><time>2026-03-29T16:46:25.516Z</time></trkpt><trkpt lat="44.85973" lon="1.0196733"><ele>189.0</ele><time>2026-03-29T16:46:28.516Z</time></trkpt><trkpt lat="44.8597933" lon="1.01967"><ele>189.0</ele><time>2026-03-29T16:46:30.516Z</time></trkpt><trkpt lat="44.8599217" lon="1.019665"><ele>189.0</ele><time>2026-03-29T16:46:32.515Z</time></trkpt><trkpt lat="44.8599983" lon="1.0196517"><ele>189.0</ele><time>2026-03-29T16:46:33.515Z</time></trkpt><trkpt lat="44.860075" lon="1.0196417"><ele>189.0</ele><time>2026-03-29T16:46:34.515Z</time></trkpt><trkpt lat="44.8601467" lon="1.01963"><ele>189.66666666666666</ele><time>2026-03-29T16:46:35.515Z</time></trkpt><trkpt lat="44.8602117" lon="1.01962"><ele>190.33333333333331</ele><time>2026-03-29T16:46:36.515Z</time></trkpt><trkpt lat="44.8602783" lon="1.019605"><ele>191.0</ele><time>2026-03-29T16:46:37.515Z</time></trkpt><trkpt lat="44.8603633" lon="1.0195967"><ele>191.66666666666666</ele><time>2026-03-29T16:46:38.515Z</time></trkpt><trkpt lat="44.8604583" lon="1.0195867"><ele>192.33333333333331</ele><time>2026-03-29T16:46:39.516Z</time></trkpt><trkpt lat="44.8605467" lon="1.0195917"><ele>193.0</ele><time>2026-03-29T16:46:40.515Z</time></trkpt><trkpt lat="44.8606383" lon="1.0195917"><ele>193.0</ele><time>2026-03-29T16:46:41.515Z</time></trkpt><trkpt lat="44.8607267" lon="1.01959"><ele>193.0</ele><time>2026-03-29T16:46:42.516Z</time></trkpt><trkpt lat="44.86084" lon="1.01959"><ele>193.0</ele><time>2026-03-29T16:46:43.515Z</time></trkpt><trkpt lat="44.8609533" lon="1.01956"><ele>193.0</ele><time>2026-03-29T16:46:44.515Z</time></trkpt><trkpt lat="44.8610467" lon="1.0195233"><ele>193.0</ele><time>2026-03-29T16:46:45.515Z</time></trkpt><trkpt lat="44.8611367" lon="1.01949"><ele>193.99999999999997</ele><time>2026-03-29T16:46:46.516Z</time></trkpt><trkpt lat="44.8612133" lon="1.01945"><ele>195.0</ele><time>2026-03-29T16:46:47.516Z</time></trkpt><trkpt lat="44.8612767" lon="1.019405"><ele>196.0</ele><time>2026-03-29T16:46:48.515Z</time></trkpt><trkpt lat="44.86134" lon="1.01935"><ele>197.0</ele><time>2026-03-29T16:46:49.516Z</time></trkpt><trkpt lat="44.8614183" lon="1.0192917"><ele>197.99999999999997</ele><time>2026-03-29T16:46:50.515Z</time></trkpt><trkpt lat="44.8615033" lon="1.0192267"><ele>199.0</ele><time>2026-03-29T16:46:51.516Z</time></trkpt><trkpt lat="44.86158" lon="1.019165"><ele>197.2</ele><time>2026-03-29T16:46:52.516Z</time></trkpt><trkpt lat="44.8616717" lon="1.0191233"><ele>195.39999999999998</ele><time>2026-03-29T16:46:53.516Z</time></trkpt><trkpt lat="44.8617517" lon="1.0190917"><ele>193.6</ele><time>2026-03-29T16:46:54.516Z</time></trkpt><trkpt lat="44.8618417" lon="1.019075"><ele>191.8</ele><time>2026-03-29T16:46:55.516Z</time></trkpt><trkpt lat="44.86195" lon="1.0190833"><ele>190.0</ele><time>2026-03-29T16:46:56.515Z</time></trkpt><trkpt lat="44.8620517" lon="1.0190933"><ele>189.83333333333334</ele><time>2026-03-29T16:46:57.515Z</time></trkpt><trkpt lat="44.8621417" lon="1.0191217"><ele>189.66666666666669</ele><time>2026-03-29T16:46:58.516Z</time></trkpt><trkpt lat="44.86222" lon="1.0191633"><ele>189.5</ele><time>2026-03-29T16:46:59.515Z</time></trkpt><trkpt lat="44.8622967" lon="1.0192"><ele>189.33333333333334</ele><time>2026-03-29T16:47:00.515Z</time></trkpt><trkpt lat="44.8623583" lon="1.0192467"><ele>189.16666666666666</ele><time>2026-03-29T16:47:01.516Z</time></trkpt><trkpt lat="44.86243" lon="1.019285"><ele>189.0</ele><time>2026-03-29T16:47:02.516Z</time></trkpt><trkpt lat="44.8624833" lon="1.0193417"><ele>190.79999999999998</ele><time>2026-03-29T16:47:03.516Z</time></trkpt><trkpt lat="44.8625967" lon="1.019405"><ele>192.6</ele><time>2026-03-29T16:47:05.516Z</time></trkpt><trkpt lat="44.862705" lon="1.0194"><ele>194.4</ele><time>2026-03-29T16:47:07.516Z</time></trkpt><trkpt lat="44.8627733" lon="1.0193933"><ele>196.2</ele><time>2026-03-29T16:47:08.516Z</time></trkpt><trkpt lat="44.862855" lon="1.0193767"><ele>198.0</ele><time>2026-03-29T16:47:09.515Z</time></trkpt><trkpt lat="44.8629517" lon="1.019345"><ele>198.0</ele><time>2026-03-29T16:47:10.515Z</time></trkpt><trkpt lat="44.863035" lon="1.0193167"><ele>198.0</ele><time>2026-03-29T16:47:11.516Z</time></trkpt><trkpt lat="44.863115" lon="1.0192817"><ele>198.0</ele><time>2026-03-29T16:47:12.516Z</time></trkpt><trkpt lat="44.86319" lon="1.0192467"><ele>198.0</ele><time>2026-03-29T16:47:13.515Z</time></trkpt><trkpt lat="44.863255" lon="1.0192033"><ele>198.0</ele><time>2026-03-29T16:47:14.516Z</time></trkpt><trkpt lat="44.8633183" lon="1.0191533"><ele>198.0</ele><time>2026-03-29T16:47:15.516Z</time></trkpt><trkpt lat="44.8633683" lon="1.019095"><ele>198.16666666666666</ele><time>2026-03-29T16:47:16.516Z</time></trkpt><trkpt lat="44.86343" lon="1.0190433"><ele>198.33333333333331</ele><time>2026-03-29T16:47:17.515Z</time></trkpt><trkpt lat="44.8635083" lon="1.0189833"><ele>198.5</ele><time>2026-03-29T16:47:18.516Z</time></trkpt><trkpt lat="44.8635917" lon="1.018915"><ele>198.66666666666666</ele><time>2026-03-29T16:47:19.516Z</time></trkpt><trkpt lat="44.8636767" lon="1.018855"><ele>198.83333333333331</ele><time>2026-03-29T16:47:20.515Z</time></trkpt><trkpt lat="44.8637567" lon="1.0187917"><ele>199.0</ele><time>2026-03-29T16:47:21.515Z</time></trkpt><trkpt lat="44.8638383" lon="1.0187217"><ele>199.0</ele><time>2026-03-29T16:47:22.516Z</time></trkpt><trkpt lat="44.8639167" lon="1.018635"><ele>199.0</ele><time>2026-03-29T16:47:23.516Z</time></trkpt><trkpt lat="44.86398" lon="1.0185483"><ele>199.0</ele><time>2026-03-29T16:47:24.515Z</time></trkpt><trkpt lat="44.8640333" lon="1.01845"><ele>199.0</ele><time>2026-03-29T16:47:25.516Z</time></trkpt><trkpt lat="44.86407" lon="1.0183317"><ele>199.0</ele><time>2026-03-29T16:47:26.515Z</time></trkpt><trkpt lat="44.8641033" lon="1.0182233"><ele>199.39999999999998</ele><time>2026-03-29T16:47:27.515Z</time></trkpt><trkpt lat="44.86412" lon="1.0180967"><ele>199.8</ele><time>2026-03-29T16:47:28.515Z</time></trkpt><trkpt lat="44.8641183" lon="1.0179517"><ele>200.2</ele><time>2026-03-29T16:47:29.515Z</time></trkpt><trkpt lat="44.8641083" lon="1.0177983"><ele>200.60000000000002</ele><time>2026-03-29T16:47:30.516Z</time></trkpt><trkpt lat="44.8640917" lon="1.017685"><ele>201.0</ele><time>2026-03-29T16:47:31.515Z</time></trkpt><trkpt lat="44.8640617" lon="1.0175733"><ele>201.0</ele><time>2026-03-29T16:47:32.516Z</time></trkpt><trkpt lat="44.864035" lon="1.0174883"><ele>201.0</ele><time>2026-03-29T16:47:33.516Z</time></trkpt><trkpt lat="44.8639867" lon="1.0173333"><ele>201.0</ele><time>2026-03-29T16:47:35.516Z</time></trkpt><trkpt lat="44.8639817" lon="1.0171717"><ele>201.0</ele><time>2026-03-29T16:47:37.515Z</time></trkpt><trkpt lat="44.8640217" lon="1.0170117"><ele>201.0</ele><time>2026-03-29T16:47:39.516Z</time></trkpt><trkpt lat="44.864035" lon="1.0169083"><ele>201.0</ele><time>2026-03-29T16:47:40.515Z</time></trkpt><trkpt lat="44.8640417" lon="1.0167817"><ele>201.0</ele><time>2026-03-29T16:47:41.516Z</time></trkpt><trkpt lat="44.86404" lon="1.0166467"><ele>201.0</ele><time>2026-03-29T16:47:42.516Z</time></trkpt><trkpt lat="44.8640383" lon="1.0165067"><ele>201.0</ele><time>2026-03-29T16:47:43.515Z</time></trkpt><trkpt lat="44.8640383" lon="1.0163667"><ele>201.0</ele><time>2026-03-29T16:47:44.516Z</time></trkpt><trkpt lat="44.86405" lon="1.01623"><ele>201.0</ele><time>2026-03-29T16:47:45.516Z</time></trkpt><trkpt lat="44.86408" lon="1.0160767"><ele>201.0</ele><time>2026-03-29T16:47:46.516Z</time></trkpt><trkpt lat="44.864125" lon="1.0159383"><ele>201.0</ele><time>2026-03-29T16:47:47.515Z</time></trkpt><trkpt lat="44.86425" lon="1.0158"><ele>201.0</ele><time>2026-03-29T16:47:48.515Z</time></trkpt><trkpt lat="44.8643683" lon="1.0156883"><ele>201.8</ele><time>2026-03-29T16:47:49.515Z</time></trkpt><trkpt lat="44.8644667" lon="1.015585"><ele>202.60000000000002</ele><time>2026-03-29T16:47:50.515Z</time></trkpt><trkpt lat="44.8645167" lon="1.0154917"><ele>203.4</ele><time>2026-03-29T16:47:51.516Z</time></trkpt><trkpt lat="44.8645683" lon="1.01539"><ele>204.2</ele><time>2026-03-29T16:47:52.515Z</time></trkpt><trkpt lat="44.864625" lon="1.0152917"><ele>205.0</ele><time>2026-03-29T16:47:53.515Z</time></trkpt><trkpt lat="44.86469" lon="1.015185"><ele>205.0</ele><time>2026-03-29T16:47:54.515Z</time></trkpt><trkpt lat="44.8647467" lon="1.0150833"><ele>205.0</ele><time>2026-03-29T16:47:55.515Z</time></trkpt><trkpt lat="44.8648017" lon="1.01496"><ele>205.0</ele><time>2026-03-29T16:47:56.515Z</time></trkpt><trkpt lat="44.8648733" lon="1.014825"><ele>205.0</ele><time>2026-03-29T16:47:57.515Z</time></trkpt><trkpt lat="44.864935" lon="1.0147017"><ele>205.0</ele><time>2026-03-29T16:47:58.515Z</time></trkpt><trkpt lat="44.86499" lon="1.014585"><ele>204.0</ele><time>2026-03-29T16:47:59.515Z</time></trkpt><trkpt lat="44.8650517" lon="1.014485"><ele>203.0</ele><time>2026-03-29T16:48:00.516Z</time></trkpt><trkpt lat="44.86512" lon="1.0143983"><ele>202.0</ele><time>2026-03-29T16:48:01.515Z</time></trkpt><trkpt lat="44.865195" lon="1.0143183"><ele>201.0</ele><time>2026-03-29T16:48:02.516Z</time></trkpt><trkpt lat="44.8652683" lon="1.01423"><ele>200.0</ele><time>2026-03-29T16:48:03.516Z</time></trkpt><trkpt lat="44.8653417" lon="1.014155"><ele>200.66666666666669</ele><time>2026-03-29T16:48:04.515Z</time></trkpt><trkpt lat="44.8654233" lon="1.0140883"><ele>201.33333333333334</ele><time>2026-03-29T16:48:05.515Z</time></trkpt><trkpt lat="44.8655033" lon="1.0140367"><ele>202.0</ele><time>2026-03-29T16:48:06.515Z</time></trkpt><trkpt lat="44.8655733" lon="1.01397"><ele>202.66666666666669</ele><time>2026-03-29T16:48:07.516Z</time></trkpt><trkpt lat="44.8656417" lon="1.0139117"><ele>203.33333333333334</ele><time>2026-03-29T16:48:08.515Z</time></trkpt><trkpt lat="44.865715" lon="1.01387"><ele>204.0</ele><time>2026-03-29T16:48:09.516Z</time></trkpt><trkpt lat="44.8658167" lon="1.0138133"><ele>204.0</ele><time>2026-03-29T16:48:10.516Z</time></trkpt><trkpt lat="44.8659" lon="1.01376"><ele>204.0</ele><time>2026-03-29T16:48:11.515Z</time></trkpt><trkpt lat="44.8659783" lon="1.0136833"><ele>204.0</ele><time>2026-03-29T16:48:12.515Z</time></trkpt><trkpt lat="44.8660483" lon="1.0135883"><ele>204.0</ele><time>2026-03-29T16:48:13.515Z</time></trkpt><trkpt lat="44.8661167" lon="1.013495"><ele>204.0</ele><time>2026-03-29T16:48:14.516Z</time></trkpt><trkpt lat="44.8661933" lon="1.0133967"><ele>205.25</ele><time>2026-03-29T16:48:15.516Z</time></trkpt><trkpt lat="44.8662833" lon="1.01327"><ele>206.5</ele><time>2026-03-29T16:48:16.516Z</time></trkpt><trkpt lat="44.8663917" lon="1.0131167"><ele>207.75</ele><time>2026-03-29T16:48:17.515Z</time></trkpt><trkpt lat="44.8664717" lon="1.0129683"><ele>209.0</ele><time>2026-03-29T16:48:18.515Z</time></trkpt><trkpt lat="44.8665883" lon="1.0126367"><ele>208.0</ele><time>2026-03-29T16:48:20.516Z</time></trkpt><trkpt lat="44.8666133" lon="1.0124667"><ele>207.0</ele><time>2026-03-29T16:48:21.516Z</time></trkpt><trkpt lat="44.86665" lon="1.0123067"><ele>206.0</ele><time>2026-03-29T16:48:22.516Z</time></trkpt><trkpt lat="44.8667067" lon="1.0121467"><ele>205.0</ele><time>2026-03-29T16:48:23.515Z</time></trkpt><trkpt lat="44.86677" lon="1.01199"><ele>205.75</ele><time>2026-03-29T16:48:24.516Z</time></trkpt><trkpt lat="44.86685" lon="1.011855"><ele>206.5</ele><time>2026-03-29T16:48:25.516Z</time></trkpt><trkpt lat="44.8669317" lon="1.011725"><ele>207.25</ele><time>2026-03-29T16:48:26.516Z</time></trkpt><trkpt lat="44.86704" lon="1.0116067"><ele>208.0</ele><time>2026-03-29T16:48:27.515Z</time></trkpt><trkpt lat="44.8671683" lon="1.01151"><ele>208.0</ele><time>2026-03-29T16:48:28.515Z</time></trkpt><trkpt lat="44.8672833" lon="1.0114067"><ele>208.0</ele><time>2026-03-29T16:48:29.516Z</time></trkpt><trkpt lat="44.8673883" lon="1.0113383"><ele>208.0</ele><time>2026-03-29T16:48:30.515Z</time></trkpt><trkpt lat="44.8674867" lon="1.0112733"><ele>208.0</ele><time>2026-03-29T16:48:31.516Z</time></trkpt><trkpt lat="44.86758" lon="1.0112267"><ele>206.25</ele><time>2026-03-29T16:48:32.515Z</time></trkpt><trkpt lat="44.8676867" lon="1.011205"><ele>204.5</ele><time>2026-03-29T16:48:33.516Z</time></trkpt><trkpt lat="44.8678" lon="1.0112233"><ele>202.75</ele><time>2026-03-29T16:48:34.515Z</time></trkpt><trkpt lat="44.86794" lon="1.0113117"><ele>201.0</ele><time>2026-03-29T16:48:35.515Z</time></trkpt><trkpt lat="44.8680483" lon="1.0113783"><ele>201.0</ele><time>2026-03-29T16:48:36.515Z</time></trkpt><trkpt lat="44.8681633" lon="1.0114933"><ele>201.0</ele><time>2026-03-29T16:48:37.516Z</time></trkpt><trkpt lat="44.8682517" lon="1.011605"><ele>201.0</ele><time>2026-03-29T16:48:38.515Z</time></trkpt><trkpt lat="44.8683417" lon="1.0117183"><ele>201.0</ele><time>2026-03-29T16:48:39.515Z</time></trkpt><trkpt lat="44.86841" lon="1.0118333"><ele>200.66666666666666</ele><time>2026-03-29T16:48:40.516Z</time></trkpt><trkpt lat="44.8684683" lon="1.0119217"><ele>200.33333333333331</ele><time>2026-03-29T16:48:41.516Z</time></trkpt><trkpt lat="44.8685267" lon="1.01199"><ele>200.0</ele><time>2026-03-29T16:48:42.516Z</time></trkpt><trkpt lat="44.86859" lon="1.0120283"><ele>199.66666666666666</ele><time>2026-03-29T16:48:43.515Z</time></trkpt><trkpt lat="44.86865" lon="1.0120567"><ele>199.33333333333331</ele><time>2026-03-29T16:48:44.515Z</time></trkpt><trkpt lat="44.868735" lon="1.0120717"><ele>199.0</ele><time>2026-03-29T16:48:45.516Z</time></trkpt><trkpt lat="44.86884" lon="1.01208"><ele>199.0</ele><time>2026-03-29T16:48:46.515Z</time></trkpt><trkpt lat="44.868975" lon="1.0120783"><ele>199.0</ele><time>2026-03-29T16:48:47.516Z</time></trkpt><trkpt lat="44.8691033" lon="1.012075"><ele>199.0</ele><time>2026-03-29T16:48:48.516Z</time></trkpt><trkpt lat="44.8692233" lon="1.0120767"><ele>199.0</ele><time>2026-03-29T16:48:49.515Z</time></trkpt><trkpt lat="44.8693317" lon="1.01207"><ele>198.83333333333331</ele><time>2026-03-29T16:48:50.515Z</time></trkpt><trkpt lat="44.869425" lon="1.0120517"><ele>198.66666666666666</ele><time>2026-03-29T16:48:51.516Z</time></trkpt><trkpt lat="44.869495" lon="1.0120483"><ele>198.5</ele><time>2026-03-29T16:48:52.516Z</time></trkpt><trkpt lat="44.8695933" lon="1.0120083"><ele>198.33333333333331</ele><time>2026-03-29T16:48:54.514Z</time></trkpt><trkpt lat="44.86968" lon="1.0119783"><ele>198.16666666666666</ele><time>2026-03-29T16:48:56.515Z</time></trkpt><trkpt lat="44.8697433" lon="1.0120517"><ele>198.0</ele><time>2026-03-29T16:48:58.515Z</time></trkpt><trkpt lat="44.8698" lon="1.01223"><ele>198.0</ele><time>2026-03-29T16:49:00.515Z</time></trkpt><trkpt lat="44.86983" lon="1.0123583"><ele>198.0</ele><time>2026-03-29T16:49:01.514Z</time></trkpt><trkpt lat="44.8698467" lon="1.0125017"><ele>198.0</ele><time>2026-03-29T16:49:02.514Z</time></trkpt><trkpt lat="44.8698717" lon="1.012665"><ele>198.0</ele><time>2026-03-29T16:49:03.515Z</time></trkpt><trkpt lat="44.8698917" lon="1.012825"><ele>198.0</ele><time>2026-03-29T16:49:04.515Z</time></trkpt><trkpt lat="44.86993" lon="1.0129583"><ele>199.5</ele><time>2026-03-29T16:49:05.514Z</time></trkpt><trkpt lat="44.8699567" lon="1.0131167"><ele>201.0</ele><time>2026-03-29T16:49:06.514Z</time></trkpt><trkpt lat="44.8699617" lon="1.0132883"><ele>202.5</ele><time>2026-03-29T16:49:07.515Z</time></trkpt><trkpt lat="44.8699533" lon="1.0134583"><ele>204.0</ele><time>2026-03-29T16:49:08.515Z</time></trkpt><trkpt lat="44.8699417" lon="1.0136367"><ele>204.0</ele><time>2026-03-29T16:49:09.515Z</time></trkpt><trkpt lat="44.869945" lon="1.0137983"><ele>204.0</ele><time>2026-03-29T16:49:10.515Z</time></trkpt><trkpt lat="44.86995" lon="1.013965"><ele>204.0</ele><time>2026-03-29T16:49:11.514Z</time></trkpt><trkpt lat="44.86998" lon="1.01411"><ele>204.0</ele><time>2026-03-29T16:49:12.514Z</time></trkpt><trkpt lat="44.8700067" lon="1.0142467"><ele>204.0</ele><time>2026-03-29T16:49:13.514Z</time></trkpt><trkpt lat="44.8700433" lon="1.0143617"><ele>202.6</ele><time>2026-03-29T16:49:14.514Z</time></trkpt><trkpt lat="44.8700883" lon="1.014475"><ele>201.2</ele><time>2026-03-29T16:49:15.515Z</time></trkpt><trkpt lat="44.870145" lon="1.014595"><ele>199.79999999999998</ele><time>2026-03-29T16:49:16.515Z</time></trkpt><trkpt lat="44.87021" lon="1.0147067"><ele>198.39999999999998</ele><time>2026-03-29T16:49:17.514Z</time></trkpt><trkpt lat="44.87026" lon="1.014795"><ele>197.0</ele><time>2026-03-29T16:49:18.514Z</time></trkpt><trkpt lat="44.8703283" lon="1.01491"><ele>198.6</ele><time>2026-03-29T16:49:19.515Z</time></trkpt><trkpt lat="44.87039" lon="1.0150217"><ele>200.2</ele><time>2026-03-29T16:49:20.515Z</time></trkpt><trkpt lat="44.8704533" lon="1.015135"><ele>201.8</ele><time>2026-03-29T16:49:21.514Z</time></trkpt><trkpt lat="44.8705117" lon="1.0152567"><ele>203.4</ele><time>2026-03-29T16:49:22.514Z</time></trkpt><trkpt lat="44.87058" lon="1.01536"><ele>205.0</ele><time>2026-03-29T16:49:23.515Z</time></trkpt><trkpt lat="44.870675" lon="1.01546"><ele>205.0</ele><time>2026-03-29T16:49:24.514Z</time></trkpt><trkpt lat="44.8707667" lon="1.0155533"><ele>205.0</ele><time>2026-03-29T16:49:25.514Z</time></trkpt><trkpt lat="44.87084" lon="1.0156767"><ele>205.0</ele><time>2026-03-29T16:49:26.514Z</time></trkpt><trkpt lat="44.8709117" lon="1.0157833"><ele>205.0</ele><time>2026-03-29T16:49:27.515Z</time></trkpt><trkpt lat="44.8709817" lon="1.0158833"><ele>205.0</ele><time>2026-03-29T16:49:28.515Z</time></trkpt><trkpt lat="44.8710367" lon="1.0159833"><ele>206.0</ele><time>2026-03-29T16:49:29.515Z</time></trkpt><trkpt lat="44.87108" lon="1.0161067"><ele>207.0</ele><time>2026-03-29T16:49:30.515Z</time></trkpt><trkpt lat="44.8711067" lon="1.0162483"><ele>208.0</ele><time>2026-03-29T16:49:31.515Z</time></trkpt><trkpt lat="44.8711333" lon="1.0163933"><ele>209.0</ele><time>2026-03-29T16:49:32.515Z</time></trkpt><trkpt lat="44.8711517" lon="1.0165183"><ele>210.0</ele><time>2026-03-29T16:49:33.514Z</time></trkpt><trkpt lat="44.871155" lon="1.0166583"><ele>210.0</ele><time>2026-03-29T16:49:34.515Z</time></trkpt><trkpt lat="44.871135" lon="1.016775"><ele>210.0</ele><time>2026-03-29T16:49:35.514Z</time></trkpt><trkpt lat="44.8711167" lon="1.01691"><ele>210.0</ele><time>2026-03-29T16:49:36.515Z</time></trkpt><trkpt lat="44.8711017" lon="1.0170417"><ele>210.0</ele><time>2026-03-29T16:49:37.514Z</time></trkpt><trkpt lat="44.87113" lon="1.0171683"><ele>210.0</ele><time>2026-03-29T16:49:38.514Z</time></trkpt><trkpt lat="44.871165" lon="1.0173"><ele>210.0</ele><time>2026-03-29T16:49:39.514Z</time></trkpt><trkpt lat="44.8712083" lon="1.0174383"><ele>210.0</ele><time>2026-03-29T16:49:40.515Z</time></trkpt><trkpt lat="44.8712267" lon="1.0175733"><ele>210.0</ele><time>2026-03-29T16:49:41.514Z</time></trkpt><trkpt lat="44.8712483" lon="1.01774"><ele>210.0</ele><time>2026-03-29T16:49:42.515Z</time></trkpt><trkpt lat="44.87125" lon="1.0179033"><ele>210.0</ele><time>2026-03-29T16:49:43.515Z</time></trkpt><trkpt lat="44.8712433" lon="1.018075"><ele>208.0</ele><time>2026-03-29T16:49:44.514Z</time></trkpt><trkpt lat="44.8712317" lon="1.0182433"><ele>206.0</ele><time>2026-03-29T16:49:45.514Z</time></trkpt><trkpt lat="44.8712233" lon="1.0184183"><ele>204.0</ele><time>2026-03-29T16:49:46.514Z</time></trkpt><trkpt lat="44.8712117" lon="1.01859"><ele>202.0</ele><time>2026-03-29T16:49:47.514Z</time></trkpt><trkpt lat="44.8711917" lon="1.0187517"><ele>199.6</ele><time>2026-03-29T16:49:48.515Z</time></trkpt><trkpt lat="44.8711783" lon="1.0188817"><ele>197.2</ele><time>2026-03-29T16:49:49.514Z</time></trkpt><trkpt lat="44.87117" lon="1.01902"><ele>194.8</ele><time>2026-03-29T16:49:50.514Z</time></trkpt><trkpt lat="44.871175" lon="1.0191517"><ele>192.4</ele><time>2026-03-29T16:49:51.514Z</time></trkpt><trkpt lat="44.8711867" lon="1.0192717"><ele>190.0</ele><time>2026-03-29T16:49:52.515Z</time></trkpt><trkpt lat="44.8712167" lon="1.0194017"><ele>189.2</ele><time>2026-03-29T16:49:53.515Z</time></trkpt><trkpt lat="44.8712433" lon="1.019525"><ele>188.4</ele><time>2026-03-29T16:49:54.515Z</time></trkpt><trkpt lat="44.8712417" lon="1.0196617"><ele>187.60000000000002</ele><time>2026-03-29T16:49:55.514Z</time></trkpt><trkpt lat="44.87123" lon="1.01979"><ele>186.8</ele><time>2026-03-29T16:49:56.514Z</time></trkpt><trkpt lat="44.8712083" lon="1.01993"><ele>186.0</ele><time>2026-03-29T16:49:57.514Z</time></trkpt><trkpt lat="44.871185" lon="1.02008"><ele>186.0</ele><time>2026-03-29T16:49:58.514Z</time></trkpt><trkpt lat="44.87116" lon="1.02022"><ele>186.0</ele><time>2026-03-29T16:49:59.514Z</time></trkpt><trkpt lat="44.8711383" lon="1.0203483"><ele>186.0</ele><time>2026-03-29T16:50:00.515Z</time></trkpt><trkpt lat="44.8711167" lon="1.0204717"><ele>186.0</ele><time>2026-03-29T16:50:01.515Z</time></trkpt><trkpt lat="44.8710917" lon="1.0206117"><ele>186.0</ele><time>2026-03-29T16:50:02.514Z</time></trkpt><trkpt lat="44.8710733" lon="1.02076"><ele>188.20000000000002</ele><time>2026-03-29T16:50:03.515Z</time></trkpt><trkpt lat="44.8710517" lon="1.0208833"><ele>190.4</ele><time>2026-03-29T16:50:04.514Z</time></trkpt><trkpt lat="44.871015" lon="1.0210117"><ele>192.6</ele><time>2026-03-29T16:50:05.514Z</time></trkpt><trkpt lat="44.8709833" lon="1.021145"><ele>194.8</ele><time>2026-03-29T16:50:06.515Z</time></trkpt><trkpt lat="44.8709583" lon="1.0212833"><ele>197.0</ele><time>2026-03-29T16:50:07.514Z</time></trkpt><trkpt lat="44.8709433" lon="1.0214133"><ele>197.00000000000003</ele><time>2026-03-29T16:50:08.514Z</time></trkpt><trkpt lat="44.8709417" lon="1.0215167"><ele>197.0</ele><time>2026-03-29T16:50:09.515Z</time></trkpt><trkpt lat="44.8709333" lon="1.021605"><ele>197.0</ele><time>2026-03-29T16:50:10.514Z</time></trkpt><trkpt lat="44.8709283" lon="1.02174"><ele>197.0</ele><time>2026-03-29T16:50:12.515Z</time></trkpt><trkpt lat="44.8709283" lon="1.0218367"><ele>197.00000000000003</ele><time>2026-03-29T16:50:15.514Z</time></trkpt><trkpt lat="44.8709367" lon="1.0219317"><ele>197.0</ele><time>2026-03-29T16:50:17.515Z</time></trkpt><trkpt lat="44.870945" lon="1.02207"><ele>192.25</ele><time>2026-03-29T16:50:19.514Z</time></trkpt><trkpt lat="44.8709367" lon="1.0221717"><ele>187.5</ele><time>2026-03-29T16:50:20.515Z</time></trkpt><trkpt lat="44.8709117" lon="1.022355"><ele>182.75</ele><time>2026-03-29T16:50:21.514Z</time></trkpt><trkpt lat="44.8708767" lon="1.0225583"><ele>178.0</ele><time>2026-03-29T16:50:22.515Z</time></trkpt><trkpt lat="44.8708283" lon="1.02276"><ele>178.0</ele><time>2026-03-29T16:50:23.514Z</time></trkpt><trkpt lat="44.870775" lon="1.022965"><ele>178.0</ele><time>2026-03-29T16:50:24.515Z</time></trkpt><trkpt lat="44.8707133" lon="1.0231433"><ele>178.0</ele><time>2026-03-29T16:50:25.515Z</time></trkpt><trkpt lat="44.8706383" lon="1.023305"><ele>178.0</ele><time>2026-03-29T16:50:26.514Z</time></trkpt><trkpt lat="44.8705433" lon="1.0234583"><ele>179.5</ele><time>2026-03-29T16:50:27.514Z</time></trkpt><trkpt lat="44.870445" lon="1.0235967"><ele>181.0</ele><time>2026-03-29T16:50:28.514Z</time></trkpt><trkpt lat="44.8703433" lon="1.023715"><ele>182.5</ele><time>2026-03-29T16:50:29.515Z</time></trkpt><trkpt lat="44.8702467" lon="1.0238467"><ele>184.0</ele><time>2026-03-29T16:50:30.514Z</time></trkpt><trkpt lat="44.870155" lon="1.0239883"><ele>179.25</ele><time>2026-03-29T16:50:31.514Z</time></trkpt><trkpt lat="44.8700783" lon="1.0241133"><ele>174.5</ele><time>2026-03-29T16:50:32.514Z</time></trkpt><trkpt lat="44.8700017" lon="1.0242383"><ele>169.75</ele><time>2026-03-29T16:50:33.514Z</time></trkpt><trkpt lat="44.8699217" lon="1.0243717"><ele>165.0</ele><time>2026-03-29T16:50:34.515Z</time></trkpt><trkpt lat="44.869835" lon="1.024485"><ele>165.0</ele><time>2026-03-29T16:50:35.515Z</time></trkpt><trkpt lat="44.8697417" lon="1.0246183"><ele>165.0</ele><time>2026-03-29T16:50:36.515Z</time></trkpt><trkpt lat="44.8696467" lon="1.0247283"><ele>165.0</ele><time>2026-03-29T16:50:37.514Z</time></trkpt><trkpt lat="44.869565" lon="1.0248433"><ele>165.0</ele><time>2026-03-29T16:50:38.515Z</time></trkpt><trkpt lat="44.8694983" lon="1.0249617"><ele>166.25</ele><time>2026-03-29T16:50:39.515Z</time></trkpt><trkpt lat="44.8694167" lon="1.0250967"><ele>167.5</ele><time>2026-03-29T16:50:40.515Z</time></trkpt><trkpt lat="44.8693467" lon="1.025245"><ele>168.75</ele><time>2026-03-29T16:50:41.514Z</time></trkpt><trkpt lat="44.8692833" lon="1.0253783"><ele>170.0</ele><time>2026-03-29T16:50:42.514Z</time></trkpt><trkpt lat="44.8692317" lon="1.0255333"><ele>166.0</ele><time>2026-03-29T16:50:43.514Z</time></trkpt><trkpt lat="44.86921" lon="1.0256983"><ele>162.0</ele><time>2026-03-29T16:50:44.515Z</time></trkpt><trkpt lat="44.8691967" lon="1.0258733"><ele>158.0</ele><time>2026-03-29T16:50:45.514Z</time></trkpt><trkpt lat="44.86919" lon="1.0260467"><ele>154.0</ele><time>2026-03-29T16:50:46.514Z</time></trkpt><trkpt lat="44.8691717" lon="1.0262183"><ele>154.0</ele><time>2026-03-29T16:50:47.514Z</time></trkpt><trkpt lat="44.869175" lon="1.0263867"><ele>154.0</ele><time>2026-03-29T16:50:48.514Z</time></trkpt><trkpt lat="44.8691783" lon="1.02655"><ele>154.0</ele><time>2026-03-29T16:50:49.514Z</time></trkpt><trkpt lat="44.8691733" lon="1.02671"><ele>154.0</ele><time>2026-03-29T16:50:50.515Z</time></trkpt><trkpt lat="44.8691733" lon="1.0268783"><ele>153.0</ele><time>2026-03-29T16:50:51.514Z</time></trkpt><trkpt lat="44.86919" lon="1.02704"><ele>152.0</ele><time>2026-03-29T16:50:52.514Z</time></trkpt><trkpt lat="44.86922" lon="1.0271917"><ele>151.0</ele><time>2026-03-29T16:50:53.515Z</time></trkpt><trkpt lat="44.869255" lon="1.0273433"><ele>150.0</ele><time>2026-03-29T16:50:54.514Z</time></trkpt><trkpt lat="44.8692983" lon="1.027495"><ele>152.0</ele><time>2026-03-29T16:50:55.515Z</time></trkpt><trkpt lat="44.869365" lon="1.0276667"><ele>154.0</ele><time>2026-03-29T16:50:56.514Z</time></trkpt><trkpt lat="44.8694333" lon="1.027805"><ele>156.0</ele><time>2026-03-29T16:50:57.515Z</time></trkpt><trkpt lat="44.8694783" lon="1.0279533"><ele>158.0</ele><time>2026-03-29T16:50:58.514Z</time></trkpt><trkpt lat="44.869525" lon="1.0281067"><ele>158.0</ele><time>2026-03-29T16:50:59.515Z</time></trkpt><trkpt lat="44.8695817" lon="1.0282617"><ele>158.0</ele><time>2026-03-29T16:51:00.515Z</time></trkpt><trkpt lat="44.8696367" lon="1.0284233"><ele>158.0</ele><time>2026-03-29T16:51:01.515Z</time></trkpt><trkpt lat="44.8696967" lon="1.028575"><ele>158.0</ele><time>2026-03-29T16:51:02.515Z</time></trkpt><trkpt lat="44.8697733" lon="1.0287283"><ele>156.0</ele><time>2026-03-29T16:51:03.515Z</time></trkpt><trkpt lat="44.8698567" lon="1.028875"><ele>154.0</ele><time>2026-03-29T16:51:04.515Z</time></trkpt><trkpt lat="44.86994" lon="1.0290317"><ele>152.0</ele><time>2026-03-29T16:51:05.514Z</time></trkpt><trkpt lat="44.8700167" lon="1.0291783"><ele>150.0</ele><time>2026-03-29T16:51:06.514Z</time></trkpt><trkpt lat="44.8701133" lon="1.0293233"><ele>148.25</ele><time>2026-03-29T16:51:07.515Z</time></trkpt><trkpt lat="44.8701917" lon="1.0294717"><ele>146.5</ele><time>2026-03-29T16:51:08.514Z</time></trkpt><trkpt lat="44.8702783" lon="1.0296117"><ele>144.75</ele><time>2026-03-29T16:51:09.514Z</time></trkpt><trkpt lat="44.870345" lon="1.0297417"><ele>143.0</ele><time>2026-03-29T16:51:10.514Z</time></trkpt><trkpt lat="44.870395" lon="1.0298867"><ele>141.5</ele><time>2026-03-29T16:51:11.514Z</time></trkpt><trkpt lat="44.8704383" lon="1.0300867"><ele>140.0</ele><time>2026-03-29T16:51:12.514Z</time></trkpt><trkpt lat="44.87049" lon="1.03024"><ele>138.5</ele><time>2026-03-29T16:51:13.515Z</time></trkpt><trkpt lat="44.8705233" lon="1.030395"><ele>137.0</ele><time>2026-03-29T16:51:14.514Z</time></trkpt><trkpt lat="44.870545" lon="1.03056"><ele>137.0</ele><time>2026-03-29T16:51:15.515Z</time></trkpt><trkpt lat="44.8705867" lon="1.030735"><ele>137.0</ele><time>2026-03-29T16:51:16.515Z</time></trkpt><trkpt lat="44.870625" lon="1.0309183"><ele>137.0</ele><time>2026-03-29T16:51:17.514Z</time></trkpt><trkpt lat="44.8706633" lon="1.0311083"><ele>137.0</ele><time>2026-03-29T16:51:18.514Z</time></trkpt><trkpt lat="44.8706967" lon="1.0312967"><ele>135.75</ele><time>2026-03-29T16:51:19.515Z</time></trkpt><trkpt lat="44.8707217" lon="1.0314933"><ele>134.5</ele><time>2026-03-29T16:51:20.515Z</time></trkpt><trkpt lat="44.8707383" lon="1.0316883"><ele>133.25</ele><time>2026-03-29T16:51:21.514Z</time></trkpt><trkpt lat="44.8707533" lon="1.031885"><ele>132.0</ele><time>2026-03-29T16:51:22.515Z</time></trkpt><trkpt lat="44.8707617" lon="1.0320733"><ele>130.25</ele><time>2026-03-29T16:51:23.515Z</time></trkpt><trkpt lat="44.8707533" lon="1.0322567"><ele>128.5</ele><time>2026-03-29T16:51:24.515Z</time></trkpt><trkpt lat="44.8707367" lon="1.0324267"><ele>126.75</ele><time>2026-03-29T16:51:25.514Z</time></trkpt><trkpt lat="44.8707217" lon="1.0325917"><ele>125.0</ele><time>2026-03-29T16:51:26.515Z</time></trkpt><trkpt lat="44.8706967" lon="1.0327517"><ele>123.75</ele><time>2026-03-29T16:51:27.514Z</time></trkpt><trkpt lat="44.87067" lon="1.0329033"><ele>122.5</ele><time>2026-03-29T16:51:28.515Z</time></trkpt><trkpt lat="44.87065" lon="1.0330583"><ele>121.25</ele><time>2026-03-29T16:51:29.515Z</time></trkpt><trkpt lat="44.8706283" lon="1.033215"><ele>120.0</ele><time>2026-03-29T16:51:30.515Z</time></trkpt><trkpt lat="44.8706083" lon="1.0333833"><ele>118.75</ele><time>2026-03-29T16:51:31.515Z</time></trkpt><trkpt lat="44.8705933" lon="1.0335533"><ele>117.5</ele><time>2026-03-29T16:51:32.514Z</time></trkpt><trkpt lat="44.8705917" lon="1.0337233"><ele>116.25</ele><time>2026-03-29T16:51:33.515Z</time></trkpt><trkpt lat="44.8705783" lon="1.0338783"><ele>115.0</ele><time>2026-03-29T16:51:34.514Z</time></trkpt><trkpt lat="44.8706033" lon="1.0340433"><ele>112.5</ele><time>2026-03-29T16:51:35.515Z</time></trkpt><trkpt lat="44.870605" lon="1.03422"><ele>110.0</ele><time>2026-03-29T16:51:36.515Z</time></trkpt><trkpt lat="44.870615" lon="1.0344"><ele>107.5</ele><time>2026-03-29T16:51:37.515Z</time></trkpt><trkpt lat="44.870625" lon="1.0345617"><ele>105.0</ele><time>2026-03-29T16:51:38.514Z</time></trkpt><trkpt lat="44.8706633" lon="1.03473"><ele>105.0</ele><time>2026-03-29T16:51:39.515Z</time></trkpt><trkpt lat="44.8706867" lon="1.0348867"><ele>105.0</ele><time>2026-03-29T16:51:40.515Z</time></trkpt><trkpt lat="44.8707083" lon="1.0350283"><ele>105.0</ele><time>2026-03-29T16:51:41.514Z</time></trkpt><trkpt lat="44.8707417" lon="1.0351867"><ele>105.0</ele><time>2026-03-29T16:51:42.514Z</time></trkpt><trkpt lat="44.87077" lon="1.0353483"><ele>103.8</ele><time>2026-03-29T16:51:43.515Z</time></trkpt><trkpt lat="44.8708083" lon="1.0355117"><ele>102.6</ele><time>2026-03-29T16:51:44.514Z</time></trkpt><trkpt lat="44.8708417" lon="1.0356583"><ele>101.4</ele><time>2026-03-29T16:51:45.515Z</time></trkpt><trkpt lat="44.8708717" lon="1.0358017"><ele>100.2</ele><time>2026-03-29T16:51:46.515Z</time></trkpt><trkpt lat="44.8709033" lon="1.0359483"><ele>99.0</ele><time>2026-03-29T16:51:47.515Z</time></trkpt><trkpt lat="44.8709317" lon="1.036105"><ele>98.0</ele><time>2026-03-29T16:51:48.514Z</time></trkpt><trkpt lat="44.8709483" lon="1.03625"><ele>97.0</ele><time>2026-03-29T16:51:49.515Z</time></trkpt><trkpt lat="44.8709517" lon="1.0363883"><ele>96.0</ele><time>2026-03-29T16:51:50.514Z</time></trkpt><trkpt lat="44.8709383" lon="1.0365367"><ele>95.0</ele><time>2026-03-29T16:51:51.514Z</time></trkpt><trkpt lat="44.8709067" lon="1.03668"><ele>94.0</ele><time>2026-03-29T16:51:52.514Z</time></trkpt><trkpt lat="44.8708533" lon="1.0368233"><ele>91.25</ele><time>2026-03-29T16:51:53.515Z</time></trkpt><trkpt lat="44.870795" lon="1.03697"><ele>88.5</ele><time>2026-03-29T16:51:54.514Z</time></trkpt><trkpt lat="44.8707317" lon="1.037135"><ele>85.75</ele><time>2026-03-29T16:51:55.515Z</time></trkpt><trkpt lat="44.870655" lon="1.0372733"><ele>83.0</ele><time>2026-03-29T16:51:56.515Z</time></trkpt><trkpt lat="44.870595" lon="1.0374133"><ele>82.2</ele><time>2026-03-29T16:51:57.515Z</time></trkpt><trkpt lat="44.8705417" lon="1.037535"><ele>81.4</ele><time>2026-03-29T16:51:58.514Z</time></trkpt><trkpt lat="44.8704983" lon="1.037665"><ele>80.60000000000001</ele><time>2026-03-29T16:51:59.515Z</time></trkpt><trkpt lat="44.870445" lon="1.037785"><ele>79.80000000000001</ele><time>2026-03-29T16:52:00.514Z</time></trkpt><trkpt lat="44.8703833" lon="1.03791"><ele>79.0</ele><time>2026-03-29T16:52:01.515Z</time></trkpt><trkpt lat="44.8703033" lon="1.038035"><ele>79.0</ele><time>2026-03-29T16:52:02.514Z</time></trkpt><trkpt lat="44.8702217" lon="1.0381783"><ele>79.0</ele><time>2026-03-29T16:52:03.515Z</time></trkpt><trkpt lat="44.8701383" lon="1.038285"><ele>79.0</ele><time>2026-03-29T16:52:04.514Z</time></trkpt><trkpt lat="44.870055" lon="1.0384067"><ele>79.0</ele><time>2026-03-29T16:52:05.515Z</time></trkpt><trkpt lat="44.8699667" lon="1.0384767"><ele>77.8</ele><time>2026-03-29T16:52:06.514Z</time></trkpt><trkpt lat="44.8698983" lon="1.038565"><ele>76.60000000000001</ele><time>2026-03-29T16:52:07.515Z</time></trkpt><trkpt lat="44.8698417" lon="1.0386867"><ele>75.4</ele><time>2026-03-29T16:52:08.515Z</time></trkpt><trkpt lat="44.8697767" lon="1.03883"><ele>74.2</ele><time>2026-03-29T16:52:09.514Z</time></trkpt><trkpt lat="44.869715" lon="1.0389717"><ele>73.0</ele><time>2026-03-29T16:52:10.514Z</time></trkpt><trkpt lat="44.8696733" lon="1.0391"><ele>72.5</ele><time>2026-03-29T16:52:11.515Z</time></trkpt><trkpt lat="44.8696383" lon="1.03922"><ele>72.0</ele><time>2026-03-29T16:52:12.514Z</time></trkpt><trkpt lat="44.8696067" lon="1.039335"><ele>71.5</ele><time>2026-03-29T16:52:13.514Z</time></trkpt><trkpt lat="44.8695833" lon="1.0394317"><ele>71.0</ele><time>2026-03-29T16:52:14.514Z</time></trkpt><trkpt lat="44.8695267" lon="1.039545"><ele>70.5</ele><time>2026-03-29T16:52:16.515Z</time></trkpt><trkpt lat="44.8694533" lon="1.0395533"><ele>70.0</ele><time>2026-03-29T16:52:18.514Z</time></trkpt><trkpt lat="44.8694" lon="1.0394817"><ele>70.0</ele><time>2026-03-29T16:52:21.515Z</time></trkpt><trkpt lat="44.8693983" lon="1.039355"><ele>70.0</ele><time>2026-03-29T16:52:23.515Z</time></trkpt><trkpt lat="44.8694083" lon="1.039265"><ele>70.0</ele><time>2026-03-29T16:52:24.514Z</time></trkpt><trkpt lat="44.8694167" lon="1.03915"><ele>70.0</ele><time>2026-03-29T16:52:25.514Z</time></trkpt><trkpt lat="44.86942" lon="1.0389967"><ele>70.0</ele><time>2026-03-29T16:52:26.514Z</time></trkpt><trkpt lat="44.8694317" lon="1.038815"><ele>70.75</ele><time>2026-03-29T16:52:27.515Z</time></trkpt><trkpt lat="44.869425" lon="1.0386267"><ele>71.5</ele><time>2026-03-29T16:52:28.514Z</time></trkpt><trkpt lat="44.8694067" lon="1.0384317"><ele>72.25</ele><time>2026-03-29T16:52:29.514Z</time></trkpt><trkpt lat="44.8693817" lon="1.0382467"><ele>73.0</ele><time>2026-03-29T16:52:30.514Z</time></trkpt><trkpt lat="44.8693467" lon="1.03807"><ele>72.5</ele><time>2026-03-29T16:52:31.515Z</time></trkpt><trkpt lat="44.8693133" lon="1.037895"><ele>72.0</ele><time>2026-03-29T16:52:32.515Z</time></trkpt><trkpt lat="44.869265" lon="1.0377133"><ele>71.5</ele><time>2026-03-29T16:52:33.515Z</time></trkpt><trkpt lat="44.8692267" lon="1.03757"><ele>71.0</ele><time>2026-03-29T16:52:34.515Z</time></trkpt><trkpt lat="44.8691933" lon="1.0374283"><ele>71.0</ele><time>2026-03-29T16:52:35.514Z</time></trkpt><trkpt lat="44.86916" lon="1.03729"><ele>71.0</ele><time>2026-03-29T16:52:36.515Z</time></trkpt><trkpt lat="44.86913" lon="1.03716"><ele>71.0</ele><time>2026-03-29T16:52:37.514Z</time></trkpt><trkpt lat="44.8691083" lon="1.0370533"><ele>71.0</ele><time>2026-03-29T16:52:38.515Z</time></trkpt><trkpt lat="44.869065" lon="1.0369083"><ele>71.0</ele><time>2026-03-29T16:52:40.514Z</time></trkpt><trkpt lat="44.8689733" lon="1.0368783"><ele>71.0</ele><time>2026-03-29T16:52:42.514Z</time></trkpt><trkpt lat="44.8689033" lon="1.0368717"><ele>71.0</ele><time>2026-03-29T16:52:43.515Z</time></trkpt><trkpt lat="44.8688083" lon="1.03688"><ele>71.0</ele><time>2026-03-29T16:52:44.514Z</time></trkpt><trkpt lat="44.8686883" lon="1.0368967"><ele>71.0</ele><time>2026-03-29T16:52:45.513Z</time></trkpt><trkpt lat="44.8685433" lon="1.036915"><ele>71.0</ele><time>2026-03-29T16:52:46.513Z</time></trkpt><trkpt lat="44.8683933" lon="1.0369333"><ele>69.75</ele><time>2026-03-29T16:52:47.513Z</time></trkpt><trkpt lat="44.8682283" lon="1.0369783"><ele>68.5</ele><time>2026-03-29T16:52:48.514Z</time></trkpt><trkpt lat="44.868085" lon="1.0370067"><ele>67.25</ele><time>2026-03-29T16:52:49.513Z</time></trkpt><trkpt lat="44.8679517" lon="1.037045"><ele>66.0</ele><time>2026-03-29T16:52:50.514Z</time></trkpt><trkpt lat="44.86782" lon="1.0370717"><ele>66.0</ele><time>2026-03-29T16:52:51.513Z</time></trkpt><trkpt lat="44.8676933" lon="1.0370833"><ele>66.0</ele><time>2026-03-29T16:52:52.514Z</time></trkpt><trkpt lat="44.8675783" lon="1.03709"><ele>66.0</ele><time>2026-03-29T16:52:53.514Z</time></trkpt><trkpt lat="44.8674667" lon="1.0371083"><ele>66.0</ele><time>2026-03-29T16:52:54.514Z</time></trkpt><trkpt lat="44.8673567" lon="1.0371317"><ele>65.39999999999999</ele><time>2026-03-29T16:52:55.514Z</time></trkpt><trkpt lat="44.8672517" lon="1.0371517"><ele>64.8</ele><time>2026-03-29T16:52:56.513Z</time></trkpt><trkpt lat="44.8671617" lon="1.0371633"><ele>64.19999999999999</ele><time>2026-03-29T16:52:57.513Z</time></trkpt><trkpt lat="44.8670717" lon="1.0371717"><ele>63.599999999999994</ele><time>2026-03-29T16:52:58.513Z</time></trkpt><trkpt lat="44.866985" lon="1.0371817"><ele>63.0</ele><time>2026-03-29T16:52:59.514Z</time></trkpt><trkpt lat="44.8669083" lon="1.0371817"><ele>63.0</ele><time>2026-03-29T16:53:00.513Z</time></trkpt><trkpt lat="44.8668317" lon="1.0371883"><ele>63.0</ele><time>2026-03-29T16:53:01.513Z</time></trkpt><trkpt lat="44.8667633" lon="1.0371867"><ele>63.0</ele><time>2026-03-29T16:53:02.513Z</time></trkpt><trkpt lat="44.8667" lon="1.0371867"><ele>63.0</ele><time>2026-03-29T16:53:03.514Z</time></trkpt><trkpt lat="44.8665867" lon="1.0371833"><ele>63.0</ele><time>2026-03-29T16:53:05.513Z</time></trkpt><trkpt lat="44.8664967" lon="1.037175"><ele>63.0</ele><time>2026-03-29T16:53:07.513Z</time></trkpt><trkpt lat="44.86637" lon="1.0371183"><ele>62.833333333333336</ele><time>2026-03-29T16:53:09.513Z</time></trkpt><trkpt lat="44.8662983" lon="1.0370733"><ele>62.66666666666667</ele><time>2026-03-29T16:53:10.514Z</time></trkpt><trkpt lat="44.8662183" lon="1.037035"><ele>62.5</ele><time>2026-03-29T16:53:11.513Z</time></trkpt><trkpt lat="44.86613" lon="1.0370033"><ele>62.333333333333336</ele><time>2026-03-29T16:53:12.514Z</time></trkpt><trkpt lat="44.8660383" lon="1.0369917"><ele>62.16666666666667</ele><time>2026-03-29T16:53:13.514Z</time></trkpt><trkpt lat="44.8659417" lon="1.037"><ele>62.0</ele><time>2026-03-29T16:53:14.514Z</time></trkpt><trkpt lat="44.865845" lon="1.0370217"><ele>61.8</ele><time>2026-03-29T16:53:15.514Z</time></trkpt><trkpt lat="44.8657467" lon="1.0370483"><ele>61.6</ele><time>2026-03-29T16:53:16.514Z</time></trkpt><trkpt lat="44.8656517" lon="1.0370883"><ele>61.39999999999999</ele><time>2026-03-29T16:53:17.514Z</time></trkpt><trkpt lat="44.8655567" lon="1.0371333"><ele>61.199999999999996</ele><time>2026-03-29T16:53:18.514Z</time></trkpt><trkpt lat="44.8654567" lon="1.037175"><ele>61.0</ele><time>2026-03-29T16:53:19.514Z</time></trkpt><trkpt lat="44.86535" lon="1.037215"><ele>61.0</ele><time>2026-03-29T16:53:20.513Z</time></trkpt><trkpt lat="44.865245" lon="1.037255"><ele>61.0</ele><time>2026-03-29T16:53:21.513Z</time></trkpt><trkpt lat="44.8650367" lon="1.0373317"><ele>61.0</ele><time>2026-03-29T16:53:23.513Z</time></trkpt><trkpt lat="44.8649283" lon="1.037375"><ele>61.0</ele><time>2026-03-29T16:53:24.514Z</time></trkpt><trkpt lat="44.8648233" lon="1.0374083"><ele>60.75</ele><time>2026-03-29T16:53:25.513Z</time></trkpt><trkpt lat="44.8647183" lon="1.0374417"><ele>60.5</ele><time>2026-03-29T16:53:26.514Z</time></trkpt><trkpt lat="44.8646283" lon="1.0374833"><ele>60.25</ele><time>2026-03-29T16:53:27.513Z</time></trkpt><trkpt lat="44.8645067" lon="1.0375533"><ele>60.0</ele><time>2026-03-29T16:53:29.513Z</time></trkpt><trkpt lat="44.8644533" lon="1.0377217"><ele>60.0</ele><time>2026-03-29T16:53:31.514Z</time></trkpt><trkpt lat="44.86446" lon="1.0378433"><ele>60.0</ele><time>2026-03-29T16:53:32.513Z</time></trkpt><trkpt lat="44.864505" lon="1.0380217"><ele>60.0</ele><time>2026-03-29T16:53:33.514Z</time></trkpt><trkpt lat="44.86455" lon="1.038195"><ele>60.0</ele><time>2026-03-29T16:53:34.514Z</time></trkpt><trkpt lat="44.8645933" lon="1.03837"><ele>60.0</ele><time>2026-03-29T16:53:35.513Z</time></trkpt><trkpt lat="44.8646467" lon="1.03857"><ele>60.0</ele><time>2026-03-29T16:53:36.514Z</time></trkpt><trkpt lat="44.8646733" lon="1.0387367"><ele>60.0</ele><time>2026-03-29T16:53:37.513Z</time></trkpt><trkpt lat="44.864695" lon="1.038895"><ele>60.0</ele><time>2026-03-29T16:53:38.513Z</time></trkpt><trkpt lat="44.8647067" lon="1.0390517"><ele>60.4</ele><time>2026-03-29T16:53:39.513Z</time></trkpt><trkpt lat="44.8647183" lon="1.0392183"><ele>60.8</ele><time>2026-03-29T16:53:40.514Z</time></trkpt><trkpt lat="44.86472" lon="1.039375"><ele>61.2</ele><time>2026-03-29T16:53:41.514Z</time></trkpt><trkpt lat="44.8647117" lon="1.0395217"><ele>61.6</ele><time>2026-03-29T16:53:42.514Z</time></trkpt><trkpt lat="44.864685" lon="1.0396633"><ele>62.0</ele><time>2026-03-29T16:53:43.514Z</time></trkpt><trkpt lat="44.8646533" lon="1.0397767"><ele>62.00000000000001</ele><time>2026-03-29T16:53:44.514Z</time></trkpt><trkpt lat="44.8646167" lon="1.0398733"><ele>62.0</ele><time>2026-03-29T16:53:45.514Z</time></trkpt><trkpt lat="44.86457" lon="1.03994"><ele>62.0</ele><time>2026-03-29T16:53:46.514Z</time></trkpt><trkpt lat="44.8644933" lon="1.039995"><ele>62.0</ele><time>2026-03-29T16:53:48.513Z</time></trkpt><trkpt lat="44.8644267" lon="1.0399633"><ele>62.00000000000001</ele><time>2026-03-29T16:53:50.514Z</time></trkpt><trkpt lat="44.8643433" lon="1.03986"><ele>62.0</ele><time>2026-03-29T16:53:52.513Z</time></trkpt><trkpt lat="44.8642817" lon="1.0397433"><ele>62.0</ele><time>2026-03-29T16:53:53.514Z</time></trkpt><trkpt lat="44.86418" lon="1.039625"><ele>62.0</ele><time>2026-03-29T16:53:54.513Z</time></trkpt><trkpt lat="44.86408" lon="1.0395417"><ele>62.0</ele><time>2026-03-29T16:53:55.513Z</time></trkpt><trkpt lat="44.8639633" lon="1.0394817"><ele>62.0</ele><time>2026-03-29T16:53:56.514Z</time></trkpt><trkpt lat="44.86384" lon="1.0394333"><ele>62.0</ele><time>2026-03-29T16:53:57.513Z</time></trkpt><trkpt lat="44.8636983" lon="1.039395"><ele>62.0</ele><time>2026-03-29T16:53:58.513Z</time></trkpt><trkpt lat="44.8635667" lon="1.03936"><ele>62.0</ele><time>2026-03-29T16:53:59.513Z</time></trkpt><trkpt lat="44.86344" lon="1.0393367"><ele>62.0</ele><time>2026-03-29T16:54:00.514Z</time></trkpt><trkpt lat="44.86333" lon="1.0393183"><ele>62.16666666666667</ele><time>2026-03-29T16:54:01.513Z</time></trkpt><trkpt lat="44.863225" lon="1.039295"><ele>62.333333333333336</ele><time>2026-03-29T16:54:02.513Z</time></trkpt><trkpt lat="44.863135" lon="1.0392767"><ele>62.5</ele><time>2026-03-29T16:54:03.514Z</time></trkpt><trkpt lat="44.8630467" lon="1.0392483"><ele>62.66666666666667</ele><time>2026-03-29T16:54:04.514Z</time></trkpt><trkpt lat="44.8629667" lon="1.0392433"><ele>62.833333333333336</ele><time>2026-03-29T16:54:05.513Z</time></trkpt><trkpt lat="44.8628983" lon="1.039245"><ele>63.0</ele><time>2026-03-29T16:54:06.514Z</time></trkpt><trkpt lat="44.8628183" lon="1.0392217"><ele>63.0</ele><time>2026-03-29T16:54:07.514Z</time></trkpt><trkpt lat="44.86275" lon="1.0392183"><ele>63.0</ele><time>2026-03-29T16:54:08.514Z</time></trkpt><trkpt lat="44.8626583" lon="1.039215"><ele>63.0</ele><time>2026-03-29T16:54:09.513Z</time></trkpt><trkpt lat="44.862565" lon="1.039205"><ele>63.0</ele><time>2026-03-29T16:54:10.514Z</time></trkpt><trkpt lat="44.8624633" lon="1.0391817"><ele>63.0</ele><time>2026-03-29T16:54:11.514Z</time></trkpt><trkpt lat="44.8623633" lon="1.039165"><ele>63.0</ele><time>2026-03-29T16:54:12.514Z</time></trkpt><trkpt lat="44.8622617" lon="1.039145"><ele>63.0</ele><time>2026-03-29T16:54:13.514Z</time></trkpt><trkpt lat="44.8621667" lon="1.0391183"><ele>63.0</ele><time>2026-03-29T16:54:14.513Z</time></trkpt><trkpt lat="44.8620667" lon="1.039115"><ele>63.0</ele><time>2026-03-29T16:54:15.513Z</time></trkpt><trkpt lat="44.8619683" lon="1.0391"><ele>63.0</ele><time>2026-03-29T16:54:16.514Z</time></trkpt><trkpt lat="44.8618817" lon="1.0391033"><ele>63.0</ele><time>2026-03-29T16:54:17.514Z</time></trkpt><trkpt lat="44.8618083" lon="1.0391133"><ele>63.0</ele><time>2026-03-29T16:54:18.513Z</time></trkpt><trkpt lat="44.8617467" lon="1.03914"><ele>63.0</ele><time>2026-03-29T16:54:19.513Z</time></trkpt><trkpt lat="44.86167" lon="1.0392033"><ele>63.0</ele><time>2026-03-29T16:54:22.513Z</time></trkpt><trkpt lat="44.8616217" lon="1.0393017"><ele>63.0</ele><time>2026-03-29T16:54:24.513Z</time></trkpt><trkpt lat="44.8615583" lon="1.0394733"><ele>63.0</ele><time>2026-03-29T16:54:26.513Z</time></trkpt><trkpt lat="44.86152" lon="1.0395617"><ele>62.833333333333336</ele><time>2026-03-29T16:54:27.514Z</time></trkpt><trkpt lat="44.86147" lon="1.03965"><ele>62.66666666666667</ele><time>2026-03-29T16:54:28.514Z</time></trkpt><trkpt lat="44.8614017" lon="1.039725"><ele>62.5</ele><time>2026-03-29T16:54:29.514Z</time></trkpt><trkpt lat="44.8613317" lon="1.03979"><ele>62.333333333333336</ele><time>2026-03-29T16:54:30.513Z</time></trkpt><trkpt lat="44.8612533" lon="1.0398483"><ele>62.16666666666667</ele><time>2026-03-29T16:54:31.513Z</time></trkpt><trkpt lat="44.8611733" lon="1.03987"><ele>62.0</ele><time>2026-03-29T16:54:32.513Z</time></trkpt><trkpt lat="44.86108" lon="1.03985"><ele>62.0</ele><time>2026-03-29T16:54:33.514Z</time></trkpt><trkpt lat="44.86099" lon="1.0397783"><ele>62.0</ele><time>2026-03-29T16:54:34.514Z</time></trkpt><trkpt lat="44.8609033" lon="1.03967"><ele>62.0</ele><time>2026-03-29T16:54:35.514Z</time></trkpt><trkpt lat="44.8608183" lon="1.0394867"><ele>62.0</ele><time>2026-03-29T16:54:36.513Z</time></trkpt><trkpt lat="44.8607217" lon="1.0393267"><ele>61.75</ele><time>2026-03-29T16:54:37.514Z</time></trkpt><trkpt lat="44.8606167" lon="1.0392"><ele>61.5</ele><time>2026-03-29T16:54:38.514Z</time></trkpt><trkpt lat="44.86051" lon="1.0390917"><ele>61.25</ele><time>2026-03-29T16:54:39.514Z</time></trkpt><trkpt lat="44.8604017" lon="1.039005"><ele>61.0</ele><time>2026-03-29T16:54:40.514Z</time></trkpt><trkpt lat="44.8602767" lon="1.0389283"><ele>61.0</ele><time>2026-03-29T16:54:41.513Z</time></trkpt><trkpt lat="44.8601567" lon="1.0388683"><ele>61.0</ele><time>2026-03-29T16:54:42.513Z</time></trkpt><trkpt lat="44.8600217" lon="1.0388383"><ele>61.0</ele><time>2026-03-29T16:54:43.514Z</time></trkpt><trkpt lat="44.8598983" lon="1.0387567"><ele>61.0</ele><time>2026-03-29T16:54:44.514Z</time></trkpt><trkpt lat="44.8597483" lon="1.0387017"><ele>61.0</ele><time>2026-03-29T16:54:45.514Z</time></trkpt><trkpt lat="44.8596083" lon="1.0386667"><ele>61.0</ele><time>2026-03-29T16:54:46.513Z</time></trkpt><trkpt lat="44.859465" lon="1.0386433"><ele>61.0</ele><time>2026-03-29T16:54:47.513Z</time></trkpt><trkpt lat="44.85932" lon="1.0386317"><ele>61.0</ele><time>2026-03-29T16:54:48.513Z</time></trkpt><trkpt lat="44.859185" lon="1.03861"><ele>61.0</ele><time>2026-03-29T16:54:49.514Z</time></trkpt><trkpt lat="44.8590467" lon="1.0386033"><ele>61.0</ele><time>2026-03-29T16:54:50.514Z</time></trkpt><trkpt lat="44.85891" lon="1.038585"><ele>61.0</ele><time>2026-03-29T16:54:51.513Z</time></trkpt><trkpt lat="44.8587667" lon="1.0385583"><ele>61.0</ele><time>2026-03-29T16:54:52.513Z</time></trkpt><trkpt lat="44.858625" lon="1.0385317"><ele>61.0</ele><time>2026-03-29T16:54:53.514Z</time></trkpt><trkpt lat="44.858485" lon="1.0385083"><ele>61.0</ele><time>2026-03-29T16:54:54.514Z</time></trkpt><trkpt lat="44.858345" lon="1.0384833"><ele>61.0</ele><time>2026-03-29T16:54:55.513Z</time></trkpt><trkpt lat="44.858205" lon="1.038465"><ele>61.0</ele><time>2026-03-29T16:54:56.514Z</time></trkpt><trkpt lat="44.8580667" lon="1.0384383"><ele>61.0</ele><time>2026-03-29T16:54:57.514Z</time></trkpt><trkpt lat="44.857925" lon="1.0384133"><ele>61.0</ele><time>2026-03-29T16:54:58.513Z</time></trkpt><trkpt lat="44.8577817" lon="1.03839"><ele>61.0</ele><time>2026-03-29T16:54:59.513Z</time></trkpt><trkpt lat="44.857635" lon="1.0383633"><ele>61.0</ele><time>2026-03-29T16:55:00.513Z</time></trkpt><trkpt lat="44.8574867" lon="1.0383267"><ele>61.0</ele><time>2026-03-29T16:55:01.513Z</time></trkpt><trkpt lat="44.8573383" lon="1.0383083"><ele>61.0</ele><time>2026-03-29T16:55:02.514Z</time></trkpt><trkpt lat="44.8571883" lon="1.0382917"><ele>61.0</ele><time>2026-03-29T16:55:03.513Z</time></trkpt><trkpt lat="44.8570583" lon="1.0382733"><ele>61.0</ele><time>2026-03-29T16:55:04.513Z</time></trkpt><trkpt lat="44.85695" lon="1.0382783"><ele>61.0</ele><time>2026-03-29T16:55:05.514Z</time></trkpt><trkpt lat="44.856865" lon="1.0383117"><ele>61.0</ele><time>2026-03-29T16:55:06.514Z</time></trkpt><trkpt lat="44.85676" lon="1.0383583"><ele>61.0</ele><time>2026-03-29T16:55:07.514Z</time></trkpt><trkpt lat="44.8566433" lon="1.0384367"><ele>61.0</ele><time>2026-03-29T16:55:08.513Z</time></trkpt><trkpt lat="44.856525" lon="1.03852"><ele>61.25</ele><time>2026-03-29T16:55:09.514Z</time></trkpt><trkpt lat="44.85641" lon="1.038615"><ele>61.5</ele><time>2026-03-29T16:55:10.513Z</time></trkpt><trkpt lat="44.85629" lon="1.0387167"><ele>61.75</ele><time>2026-03-29T16:55:11.513Z</time></trkpt><trkpt lat="44.8561667" lon="1.0388017"><ele>62.0</ele><time>2026-03-29T16:55:12.513Z</time></trkpt><trkpt lat="44.85607" lon="1.038895"><ele>62.0</ele><time>2026-03-29T16:55:13.514Z</time></trkpt><trkpt lat="44.85599" lon="1.0389733"><ele>62.0</ele><time>2026-03-29T16:55:14.514Z</time></trkpt><trkpt lat="44.8559117" lon="1.0390783"><ele>62.0</ele><time>2026-03-29T16:55:15.514Z</time></trkpt><trkpt lat="44.855825" lon="1.039205"><ele>62.0</ele><time>2026-03-29T16:55:16.513Z</time></trkpt><trkpt lat="44.8557417" lon="1.0393033"><ele>62.0</ele><time>2026-03-29T16:55:17.514Z</time></trkpt><trkpt lat="44.85566" lon="1.0393867"><ele>62.2</ele><time>2026-03-29T16:55:18.514Z</time></trkpt><trkpt lat="44.85558" lon="1.03947"><ele>62.400000000000006</ele><time>2026-03-29T16:55:19.514Z</time></trkpt><trkpt lat="44.855485" lon="1.0395333"><ele>62.599999999999994</ele><time>2026-03-29T16:55:20.513Z</time></trkpt><trkpt lat="44.8553917" lon="1.0396067"><ele>62.8</ele><time>2026-03-29T16:55:21.513Z</time></trkpt><trkpt lat="44.8552917" lon="1.0396567"><ele>63.0</ele><time>2026-03-29T16:55:22.514Z</time></trkpt><trkpt lat="44.8552067" lon="1.0396533"><ele>62.666666666666664</ele><time>2026-03-29T16:55:23.513Z</time></trkpt><trkpt lat="44.8551167" lon="1.0396467"><ele>62.33333333333333</ele><time>2026-03-29T16:55:24.514Z</time></trkpt><trkpt lat="44.8550267" lon="1.03964"><ele>62.0</ele><time>2026-03-29T16:55:25.514Z</time></trkpt><trkpt lat="44.85495" lon="1.03966"><ele>61.666666666666664</ele><time>2026-03-29T16:55:26.513Z</time></trkpt><trkpt lat="44.8548817" lon="1.0396933"><ele>61.33333333333333</ele><time>2026-03-29T16:55:27.514Z</time></trkpt><trkpt lat="44.8548167" lon="1.03976"><ele>61.0</ele><time>2026-03-29T16:55:28.514Z</time></trkpt><trkpt lat="44.8547717" lon="1.0398833"><ele>61.0</ele><time>2026-03-29T16:55:29.514Z</time></trkpt><trkpt lat="44.8547417" lon="1.040035"><ele>61.0</ele><time>2026-03-29T16:55:30.513Z</time></trkpt><trkpt lat="44.8547" lon="1.04019"><ele>61.0</ele><time>2026-03-29T16:55:31.514Z</time></trkpt><trkpt lat="44.8546467" lon="1.0403633"><ele>61.0</ele><time>2026-03-29T16:55:32.514Z</time></trkpt><trkpt lat="44.8545917" lon="1.0405233"><ele>61.0</ele><time>2026-03-29T16:55:33.513Z</time></trkpt><trkpt lat="44.8545317" lon="1.040695"><ele>61.0</ele><time>2026-03-29T16:55:34.514Z</time></trkpt><trkpt lat="44.8544917" lon="1.0408717"><ele>61.0</ele><time>2026-03-29T16:55:35.513Z</time></trkpt><trkpt lat="44.8544583" lon="1.0410233"><ele>61.0</ele><time>2026-03-29T16:55:36.513Z</time></trkpt><trkpt lat="44.8544033" lon="1.04117"><ele>61.25</ele><time>2026-03-29T16:55:37.514Z</time></trkpt><trkpt lat="44.8543517" lon="1.0413133"><ele>61.5</ele><time>2026-03-29T16:55:38.513Z</time></trkpt><trkpt lat="44.8543" lon="1.0414667"><ele>61.75</ele><time>2026-03-29T16:55:39.513Z</time></trkpt><trkpt lat="44.8542567" lon="1.0416167"><ele>62.0</ele><time>2026-03-29T16:55:40.514Z</time></trkpt><trkpt lat="44.8542133" lon="1.0417633"><ele>61.5</ele><time>2026-03-29T16:55:41.513Z</time></trkpt><trkpt lat="44.854155" lon="1.0419133"><ele>61.0</ele><time>2026-03-29T16:55:42.514Z</time></trkpt><trkpt lat="44.8541067" lon="1.0420583"><ele>60.5</ele><time>2026-03-29T16:55:43.514Z</time></trkpt><trkpt lat="44.8540533" lon="1.0421983"><ele>60.0</ele><time>2026-03-29T16:55:44.514Z</time></trkpt><trkpt lat="44.8540083" lon="1.0423417"><ele>60.25</ele><time>2026-03-29T16:55:45.514Z</time></trkpt><trkpt lat="44.8539567" lon="1.0424817"><ele>60.5</ele><time>2026-03-29T16:55:46.513Z</time></trkpt><trkpt lat="44.8539067" lon="1.042625"><ele>60.75</ele><time>2026-03-29T16:55:47.514Z</time></trkpt><trkpt lat="44.85386" lon="1.0427783"><ele>61.0</ele><time>2026-03-29T16:55:48.514Z</time></trkpt><trkpt lat="44.8538183" lon="1.0429433"><ele>61.0</ele><time>2026-03-29T16:55:49.513Z</time></trkpt><trkpt lat="44.8537817" lon="1.0431217"><ele>61.0</ele><time>2026-03-29T16:55:50.514Z</time></trkpt><trkpt lat="44.853745" lon="1.04329"><ele>61.0</ele><time>2026-03-29T16:55:51.513Z</time></trkpt><trkpt lat="44.8537067" lon="1.043465"><ele>61.0</ele><time>2026-03-29T16:55:52.513Z</time></trkpt><trkpt lat="44.85368" lon="1.0436617"><ele>61.0</ele><time>2026-03-29T16:55:53.514Z</time></trkpt><trkpt lat="44.8536483" lon="1.04384"><ele>61.0</ele><time>2026-03-29T16:55:54.513Z</time></trkpt><trkpt lat="44.8535917" lon="1.0440083"><ele>61.0</ele><time>2026-03-29T16:55:55.513Z</time></trkpt><trkpt lat="44.8535333" lon="1.0441817"><ele>61.0</ele><time>2026-03-29T16:55:56.513Z</time></trkpt><trkpt lat="44.8534667" lon="1.0443517"><ele>61.0</ele><time>2026-03-29T16:55:57.513Z</time></trkpt><trkpt lat="44.8534133" lon="1.04452"><ele>61.0</ele><time>2026-03-29T16:55:58.513Z</time></trkpt><trkpt lat="44.853355" lon="1.0446833"><ele>61.0</ele><time>2026-03-29T16:55:59.514Z</time></trkpt><trkpt lat="44.8532917" lon="1.04487"><ele>61.0</ele><time>2026-03-29T16:56:00.514Z</time></trkpt><trkpt lat="44.8532233" lon="1.0450517"><ele>61.0</ele><time>2026-03-29T16:56:01.513Z</time></trkpt><trkpt lat="44.8531433" lon="1.045235"><ele>61.0</ele><time>2026-03-29T16:56:02.514Z</time></trkpt><trkpt lat="44.8530733" lon="1.0454017"><ele>61.0</ele><time>2026-03-29T16:56:03.514Z</time></trkpt><trkpt lat="44.8529983" lon="1.04554"><ele>61.0</ele><time>2026-03-29T16:56:04.513Z</time></trkpt><trkpt lat="44.85292" lon="1.0456617"><ele>60.99999999999999</ele><time>2026-03-29T16:56:05.513Z</time></trkpt><trkpt lat="44.8528617" lon="1.0457767"><ele>61.0</ele><time>2026-03-29T16:56:06.514Z</time></trkpt><trkpt lat="44.8528" lon="1.0458883"><ele>61.0</ele><time>2026-03-29T16:56:07.513Z</time></trkpt><trkpt lat="44.85275" lon="1.0459933"><ele>61.0</ele><time>2026-03-29T16:56:08.514Z</time></trkpt><trkpt lat="44.8527" lon="1.0460783"><ele>60.99999999999999</ele><time>2026-03-29T16:56:09.514Z</time></trkpt><trkpt lat="44.8526533" lon="1.0461567"><ele>61.0</ele><time>2026-03-29T16:56:10.513Z</time></trkpt><trkpt lat="44.8526167" lon="1.0462333"><ele>60.99999999999999</ele><time>2026-03-29T16:56:11.514Z</time></trkpt><trkpt lat="44.8525833" lon="1.04631"><ele>61.0</ele><time>2026-03-29T16:56:12.514Z</time></trkpt><trkpt lat="44.8525167" lon="1.046465"><ele>61.0</ele><time>2026-03-29T16:56:14.513Z</time></trkpt><trkpt lat="44.8524783" lon="1.0465367"><ele>61.0</ele><time>2026-03-29T16:56:15.514Z</time></trkpt><trkpt lat="44.8524417" lon="1.0466167"><ele>60.99999999999999</ele><time>2026-03-29T16:56:16.514Z</time></trkpt><trkpt lat="44.8523917" lon="1.046715"><ele>61.0</ele><time>2026-03-29T16:56:17.514Z</time></trkpt><trkpt lat="44.8523367" lon="1.0468233"><ele>61.0</ele><time>2026-03-29T16:56:18.514Z</time></trkpt><trkpt lat="44.852285" lon="1.0469267"><ele>61.0</ele><time>2026-03-29T16:56:19.514Z</time></trkpt><trkpt lat="44.8522183" lon="1.0470733"><ele>61.0</ele><time>2026-03-29T16:56:20.513Z</time></trkpt><trkpt lat="44.8521567" lon="1.04723"><ele>61.0</ele><time>2026-03-29T16:56:21.514Z</time></trkpt><trkpt lat="44.8520883" lon="1.047415"><ele>61.25</ele><time>2026-03-29T16:56:22.514Z</time></trkpt><trkpt lat="44.85201" lon="1.0475883"><ele>61.5</ele><time>2026-03-29T16:56:23.514Z</time></trkpt><trkpt lat="44.8519433" lon="1.04774"><ele>61.75</ele><time>2026-03-29T16:56:24.513Z</time></trkpt><trkpt lat="44.8518733" lon="1.0478983"><ele>62.0</ele><time>2026-03-29T16:56:25.513Z</time></trkpt><trkpt lat="44.8517983" lon="1.0480617"><ele>62.0</ele><time>2026-03-29T16:56:26.513Z</time></trkpt><trkpt lat="44.8517283" lon="1.0482317"><ele>62.0</ele><time>2026-03-29T16:56:27.514Z</time></trkpt><trkpt lat="44.8516533" lon="1.048405"><ele>62.0</ele><time>2026-03-29T16:56:28.514Z</time></trkpt><trkpt lat="44.8515733" lon="1.0485567"><ele>62.0</ele><time>2026-03-29T16:56:29.514Z</time></trkpt><trkpt lat="44.8514983" lon="1.04871"><ele>62.0</ele><time>2026-03-29T16:56:30.513Z</time></trkpt><trkpt lat="44.851425" lon="1.0488533"><ele>62.0</ele><time>2026-03-29T16:56:31.513Z</time></trkpt><trkpt lat="44.851355" lon="1.0489833"><ele>62.0</ele><time>2026-03-29T16:56:32.513Z</time></trkpt><trkpt lat="44.8512883" lon="1.0491083"><ele>62.0</ele><time>2026-03-29T16:56:33.514Z</time></trkpt><trkpt lat="44.8512183" lon="1.0492117"><ele>62.16666666666667</ele><time>2026-03-29T16:56:34.513Z</time></trkpt><trkpt lat="44.8511533" lon="1.0492983"><ele>62.333333333333336</ele><time>2026-03-29T16:56:35.514Z</time></trkpt><trkpt lat="44.8510883" lon="1.04936"><ele>62.5</ele><time>2026-03-29T16:56:36.514Z</time></trkpt><trkpt lat="44.8510383" lon="1.0494417"><ele>62.66666666666667</ele><time>2026-03-29T16:56:37.514Z</time></trkpt><trkpt lat="44.8509833" lon="1.0495133"><ele>62.833333333333336</ele><time>2026-03-29T16:56:38.512Z</time></trkpt><trkpt lat="44.8509317" lon="1.0496017"><ele>63.0</ele><time>2026-03-29T16:56:39.512Z</time></trkpt><trkpt lat="44.8508217" lon="1.0498067"><ele>62.5</ele><time>2026-03-29T16:56:41.512Z</time></trkpt><trkpt lat="44.8507533" lon="1.0499283"><ele>62.0</ele><time>2026-03-29T16:56:42.512Z</time></trkpt><trkpt lat="44.85069" lon="1.0500667"><ele>61.5</ele><time>2026-03-29T16:56:43.512Z</time></trkpt><trkpt lat="44.8506267" lon="1.0502067"><ele>61.0</ele><time>2026-03-29T16:56:44.512Z</time></trkpt><trkpt lat="44.8505517" lon="1.0503417"><ele>61.0</ele><time>2026-03-29T16:56:45.513Z</time></trkpt><trkpt lat="44.8504767" lon="1.0504733"><ele>61.0</ele><time>2026-03-29T16:56:46.512Z</time></trkpt><trkpt lat="44.8504067" lon="1.0506067"><ele>61.0</ele><time>2026-03-29T16:56:47.513Z</time></trkpt><trkpt lat="44.85033" lon="1.0507433"><ele>61.0</ele><time>2026-03-29T16:56:48.512Z</time></trkpt><trkpt lat="44.8502583" lon="1.0508683"><ele>61.0</ele><time>2026-03-29T16:56:49.512Z</time></trkpt><trkpt lat="44.8501833" lon="1.0509833"><ele>60.99999999999999</ele><time>2026-03-29T16:56:50.512Z</time></trkpt><trkpt lat="44.8501267" lon="1.0510967"><ele>60.99999999999999</ele><time>2026-03-29T16:56:51.513Z</time></trkpt><trkpt lat="44.8500617" lon="1.0511983"><ele>61.0</ele><time>2026-03-29T16:56:52.513Z</time></trkpt><trkpt lat="44.8499917" lon="1.0513067"><ele>61.0</ele><time>2026-03-29T16:56:53.512Z</time></trkpt><trkpt lat="44.8499267" lon="1.0514117"><ele>60.8</ele><time>2026-03-29T16:56:54.513Z</time></trkpt><trkpt lat="44.8498683" lon="1.0515217"><ele>60.599999999999994</ele><time>2026-03-29T16:56:55.513Z</time></trkpt><trkpt lat="44.8498" lon="1.051635"><ele>60.4</ele><time>2026-03-29T16:56:56.512Z</time></trkpt><trkpt lat="44.8497217" lon="1.0517433"><ele>60.2</ele><time>2026-03-29T16:56:57.512Z</time></trkpt><trkpt lat="44.8496383" lon="1.05186"><ele>60.0</ele><time>2026-03-29T16:56:58.513Z</time></trkpt><trkpt lat="44.849545" lon="1.051985"><ele>60.0</ele><time>2026-03-29T16:56:59.512Z</time></trkpt><trkpt lat="44.8494467" lon="1.0521017"><ele>60.0</ele><time>2026-03-29T16:57:00.513Z</time></trkpt><trkpt lat="44.8493533" lon="1.0522333"><ele>60.0</ele><time>2026-03-29T16:57:01.512Z</time></trkpt><trkpt lat="44.8492583" lon="1.0523683"><ele>60.0</ele><time>2026-03-29T16:57:02.513Z</time></trkpt><trkpt lat="44.84916" lon="1.0525167"><ele>60.5</ele><time>2026-03-29T16:57:03.512Z</time></trkpt><trkpt lat="44.849065" lon="1.0526667"><ele>61.0</ele><time>2026-03-29T16:57:04.513Z</time></trkpt><trkpt lat="44.848975" lon="1.05282"><ele>61.5</ele><time>2026-03-29T16:57:05.513Z</time></trkpt><trkpt lat="44.8488883" lon="1.05298"><ele>62.0</ele><time>2026-03-29T16:57:06.512Z</time></trkpt><trkpt lat="44.8488083" lon="1.0531517"><ele>62.0</ele><time>2026-03-29T16:57:07.512Z</time></trkpt><trkpt lat="44.848715" lon="1.0533483"><ele>62.0</ele><time>2026-03-29T16:57:08.513Z</time></trkpt><trkpt lat="44.84864" lon="1.0535517"><ele>62.0</ele><time>2026-03-29T16:57:09.512Z</time></trkpt><trkpt lat="44.848555" lon="1.0537333"><ele>62.0</ele><time>2026-03-29T16:57:10.513Z</time></trkpt><trkpt lat="44.8484783" lon="1.0538617"><ele>62.0</ele><time>2026-03-29T16:57:11.513Z</time></trkpt><trkpt lat="44.8484" lon="1.0540017"><ele>62.0</ele><time>2026-03-29T16:57:12.513Z</time></trkpt><trkpt lat="44.8483167" lon="1.0541483"><ele>62.0</ele><time>2026-03-29T16:57:13.512Z</time></trkpt><trkpt lat="44.8482333" lon="1.0543067"><ele>62.0</ele><time>2026-03-29T16:57:14.512Z</time></trkpt><trkpt lat="44.84815" lon="1.0544617"><ele>62.0</ele><time>2026-03-29T16:57:15.513Z</time></trkpt><trkpt lat="44.84807" lon="1.0546233"><ele>62.0</ele><time>2026-03-29T16:57:16.512Z</time></trkpt><trkpt lat="44.8479883" lon="1.0547833"><ele>62.0</ele><time>2026-03-29T16:57:17.513Z</time></trkpt><trkpt lat="44.8479033" lon="1.0549333"><ele>61.75</ele><time>2026-03-29T16:57:18.512Z</time></trkpt><trkpt lat="44.84782" lon="1.05508"><ele>61.5</ele><time>2026-03-29T16:57:19.513Z</time></trkpt><trkpt lat="44.8477367" lon="1.0552217"><ele>61.25</ele><time>2026-03-29T16:57:20.513Z</time></trkpt><trkpt lat="44.8476567" lon="1.055355"><ele>61.0</ele><time>2026-03-29T16:57:21.512Z</time></trkpt><trkpt lat="44.8475783" lon="1.0554833"><ele>61.0</ele><time>2026-03-29T16:57:22.512Z</time></trkpt><trkpt lat="44.8475017" lon="1.0555983"><ele>60.99999999999999</ele><time>2026-03-29T16:57:23.512Z</time></trkpt><trkpt lat="44.847435" lon="1.0556917"><ele>60.99999999999999</ele><time>2026-03-29T16:57:24.513Z</time></trkpt><trkpt lat="44.847375" lon="1.0557783"><ele>61.0</ele><time>2026-03-29T16:57:25.512Z</time></trkpt><trkpt lat="44.8473267" lon="1.0558533"><ele>61.0</ele><time>2026-03-29T16:57:26.512Z</time></trkpt><trkpt lat="44.8472533" lon="1.0559733"><ele>60.99999999999999</ele><time>2026-03-29T16:57:28.512Z</time></trkpt><trkpt lat="44.8471983" lon="1.0560717"><ele>61.0</ele><time>2026-03-29T16:57:30.513Z</time></trkpt><trkpt lat="44.8471483" lon="1.0561467"><ele>60.99999999999999</ele><time>2026-03-29T16:57:32.513Z</time></trkpt><trkpt lat="44.8470867" lon="1.05623"><ele>60.99999999999999</ele><time>2026-03-29T16:57:35.512Z</time></trkpt><trkpt lat="44.8470383" lon="1.0562883"><ele>61.0</ele><time>2026-03-29T16:57:40.512Z</time></trkpt><trkpt lat="44.8469917" lon="1.0563517"><ele>60.99999999999999</ele><time>2026-03-29T16:57:44.513Z</time></trkpt><trkpt lat="44.846945" lon="1.056425"><ele>60.99999999999999</ele><time>2026-03-29T16:57:46.513Z</time></trkpt><trkpt lat="44.8468633" lon="1.0565017"><ele>60.99999999999999</ele><time>2026-03-29T16:57:48.513Z</time></trkpt><trkpt lat="44.846765" lon="1.0565717"><ele>61.0</ele><time>2026-03-29T16:57:50.512Z</time></trkpt><trkpt lat="44.8467067" lon="1.0566483"><ele>61.0</ele><time>2026-03-29T16:57:52.513Z</time></trkpt><trkpt lat="44.846635" lon="1.0567367"><ele>61.0</ele><time>2026-03-29T16:57:58.513Z</time></trkpt><trkpt lat="44.8465583" lon="1.0568167"><ele>60.99999999999999</ele><time>2026-03-29T16:58:00.512Z</time></trkpt><trkpt lat="44.846515" lon="1.0568817"><ele>61.0</ele><time>2026-03-29T16:58:01.513Z</time></trkpt><trkpt lat="44.8464633" lon="1.0569567"><ele>61.0</ele><time>2026-03-29T16:58:02.512Z</time></trkpt><trkpt lat="44.846405" lon="1.057035"><ele>60.99999999999999</ele><time>2026-03-29T16:58:03.513Z</time></trkpt><trkpt lat="44.846335" lon="1.0571117"><ele>60.99999999999999</ele><time>2026-03-29T16:58:04.513Z</time></trkpt><trkpt lat="44.8462633" lon="1.0571917"><ele>61.0</ele><time>2026-03-29T16:58:05.513Z</time></trkpt><trkpt lat="44.84619" lon="1.0572767"><ele>61.0</ele><time>2026-03-29T16:58:06.513Z</time></trkpt><trkpt lat="44.8461167" lon="1.0573617"><ele>61.0</ele><time>2026-03-29T16:58:07.512Z</time></trkpt><trkpt lat="44.8460417" lon="1.05745"><ele>60.99999999999999</ele><time>2026-03-29T16:58:08.512Z</time></trkpt><trkpt lat="44.8459667" lon="1.05754"><ele>60.99999999999999</ele><time>2026-03-29T16:58:09.512Z</time></trkpt><trkpt lat="44.8458983" lon="1.05765"><ele>61.0</ele><time>2026-03-29T16:58:10.513Z</time></trkpt><trkpt lat="44.8458217" lon="1.0577617"><ele>61.0</ele><time>2026-03-29T16:58:11.513Z</time></trkpt><trkpt lat="44.8457483" lon="1.0578667"><ele>61.0</ele><time>2026-03-29T16:58:12.512Z</time></trkpt><trkpt lat="44.84568" lon="1.05796"><ele>60.99999999999999</ele><time>2026-03-29T16:58:13.513Z</time></trkpt><trkpt lat="44.8456067" lon="1.058055"><ele>60.99999999999999</ele><time>2026-03-29T16:58:14.512Z</time></trkpt><trkpt lat="44.84554" lon="1.05814"><ele>61.0</ele><time>2026-03-29T16:58:15.513Z</time></trkpt><trkpt lat="44.8454783" lon="1.0582283"><ele>61.0</ele><time>2026-03-29T16:58:16.513Z</time></trkpt><trkpt lat="44.8454167" lon="1.0583083"><ele>60.99999999999999</ele><time>2026-03-29T16:58:17.512Z</time></trkpt><trkpt lat="44.8453567" lon="1.0583933"><ele>61.0</ele><time>2026-03-29T16:58:18.513Z</time></trkpt><trkpt lat="44.8452967" lon="1.058475"><ele>61.0</ele><time>2026-03-29T16:58:19.512Z</time></trkpt><trkpt lat="44.8452367" lon="1.05856"><ele>61.0</ele><time>2026-03-29T16:58:20.512Z</time></trkpt><trkpt lat="44.8451767" lon="1.0586467"><ele>60.99999999999999</ele><time>2026-03-29T16:58:21.513Z</time></trkpt><trkpt lat="44.8451183" lon="1.0587317"><ele>61.0</ele><time>2026-03-29T16:58:22.513Z</time></trkpt><trkpt lat="44.84506" lon="1.0588167"><ele>60.99999999999999</ele><time>2026-03-29T16:58:23.512Z</time></trkpt><trkpt lat="44.8450033" lon="1.058895"><ele>61.0</ele><time>2026-03-29T16:58:24.512Z</time></trkpt><trkpt lat="44.844945" lon="1.05897"><ele>61.0</ele><time>2026-03-29T16:58:25.512Z</time></trkpt><trkpt lat="44.8448883" lon="1.05904"><ele>61.0</ele><time>2026-03-29T16:58:26.513Z</time></trkpt><trkpt lat="44.8448333" lon="1.05911"><ele>60.99999999999999</ele><time>2026-03-29T16:58:27.513Z</time></trkpt><trkpt lat="44.8447767" lon="1.0591817"><ele>61.0</ele><time>2026-03-29T16:58:28.512Z</time></trkpt><trkpt lat="44.8447267" lon="1.0592567"><ele>61.166666666666664</ele><time>2026-03-29T16:58:29.512Z</time></trkpt><trkpt lat="44.844685" lon="1.0593233"><ele>61.33333333333333</ele><time>2026-03-29T16:58:30.512Z</time></trkpt><trkpt lat="44.8446083" lon="1.0594583"><ele>61.5</ele><time>2026-03-29T16:58:32.512Z</time></trkpt><trkpt lat="44.8445283" lon="1.0595967"><ele>61.66666666666667</ele><time>2026-03-29T16:58:34.512Z</time></trkpt><trkpt lat="44.8444817" lon="1.0596667"><ele>61.833333333333336</ele><time>2026-03-29T16:58:35.513Z</time></trkpt><trkpt lat="44.8444433" lon="1.0597417"><ele>62.0</ele><time>2026-03-29T16:58:36.512Z</time></trkpt><trkpt lat="44.8444" lon="1.0598067"><ele>62.0</ele><time>2026-03-29T16:58:37.513Z</time></trkpt><trkpt lat="44.8443133" lon="1.0599217"><ele>62.0</ele><time>2026-03-29T16:58:39.513Z</time></trkpt><trkpt lat="44.8442283" lon="1.06006"><ele>62.0</ele><time>2026-03-29T16:58:41.512Z</time></trkpt><trkpt lat="44.8441767" lon="1.0601367"><ele>62.0</ele><time>2026-03-29T16:58:42.513Z</time></trkpt><trkpt lat="44.844125" lon="1.0602067"><ele>62.0</ele><time>2026-03-29T16:58:43.513Z</time></trkpt><trkpt lat="44.8440683" lon="1.0602883"><ele>62.00000000000001</ele><time>2026-03-29T16:58:44.512Z</time></trkpt><trkpt lat="44.84401" lon="1.0603717"><ele>62.0</ele><time>2026-03-29T16:58:45.513Z</time></trkpt><trkpt lat="44.84395" lon="1.0604433"><ele>62.0</ele><time>2026-03-29T16:58:46.513Z</time></trkpt><trkpt lat="44.8438867" lon="1.06053"><ele>62.0</ele><time>2026-03-29T16:58:47.513Z</time></trkpt><trkpt lat="44.8438183" lon="1.0606217"><ele>62.00000000000001</ele><time>2026-03-29T16:58:48.512Z</time></trkpt><trkpt lat="44.84375" lon="1.0607317"><ele>62.0</ele><time>2026-03-29T16:58:49.513Z</time></trkpt><trkpt lat="44.8436817" lon="1.06083"><ele>62.0</ele><time>2026-03-29T16:58:50.513Z</time></trkpt><trkpt lat="44.8436117" lon="1.0609217"><ele>62.0</ele><time>2026-03-29T16:58:51.513Z</time></trkpt><trkpt lat="44.8435417" lon="1.0610117"><ele>62.0</ele><time>2026-03-29T16:58:52.512Z</time></trkpt><trkpt lat="44.843475" lon="1.061115"><ele>62.0</ele><time>2026-03-29T16:58:53.513Z</time></trkpt><trkpt lat="44.843405" lon="1.0612333"><ele>62.0</ele><time>2026-03-29T16:58:54.512Z</time></trkpt><trkpt lat="44.8433333" lon="1.0613417"><ele>61.8</ele><time>2026-03-29T16:58:55.512Z</time></trkpt><trkpt lat="44.84326" lon="1.0614383"><ele>61.6</ele><time>2026-03-29T16:58:56.512Z</time></trkpt><trkpt lat="44.8431783" lon="1.0615217"><ele>61.39999999999999</ele><time>2026-03-29T16:58:57.512Z</time></trkpt><trkpt lat="44.8430967" lon="1.06161"><ele>61.199999999999996</ele><time>2026-03-29T16:58:58.513Z</time></trkpt><trkpt lat="44.8430267" lon="1.0616817"><ele>61.0</ele><time>2026-03-29T16:58:59.512Z</time></trkpt><trkpt lat="44.842965" lon="1.0617417"><ele>60.75</ele><time>2026-03-29T16:59:00.513Z</time></trkpt><trkpt lat="44.842895" lon="1.06183"><ele>60.5</ele><time>2026-03-29T16:59:01.512Z</time></trkpt><trkpt lat="44.842825" lon="1.061935"><ele>60.25</ele><time>2026-03-29T16:59:02.512Z</time></trkpt><trkpt lat="44.8426783" lon="1.062125"><ele>60.0</ele><time>2026-03-29T16:59:04.513Z</time></trkpt><trkpt lat="44.84259" lon="1.06218"><ele>59.8</ele><time>2026-03-29T16:59:05.513Z</time></trkpt><trkpt lat="44.8424983" lon="1.0622483"><ele>59.6</ele><time>2026-03-29T16:59:06.513Z</time></trkpt><trkpt lat="44.8423983" lon="1.0623133"><ele>59.400000000000006</ele><time>2026-03-29T16:59:07.512Z</time></trkpt><trkpt lat="44.8423083" lon="1.0623867"><ele>59.2</ele><time>2026-03-29T16:59:08.513Z</time></trkpt><trkpt lat="44.842215" lon="1.062485"><ele>59.0</ele><time>2026-03-29T16:59:09.513Z</time></trkpt><trkpt lat="44.8421083" lon="1.0625933"><ele>59.5</ele><time>2026-03-29T16:59:10.512Z</time></trkpt><trkpt lat="44.841965" lon="1.06271"><ele>60.0</ele><time>2026-03-29T16:59:11.512Z</time></trkpt><trkpt lat="44.8418333" lon="1.0627933"><ele>60.5</ele><time>2026-03-29T16:59:12.512Z</time></trkpt><trkpt lat="44.8417233" lon="1.0628733"><ele>61.0</ele><time>2026-03-29T16:59:13.513Z</time></trkpt><trkpt lat="44.8416433" lon="1.0629367"><ele>60.99999999999999</ele><time>2026-03-29T16:59:14.513Z</time></trkpt><trkpt lat="44.841565" lon="1.0629733"><ele>61.0</ele><time>2026-03-29T16:59:15.512Z</time></trkpt><trkpt lat="44.841495" lon="1.0630133"><ele>61.0</ele><time>2026-03-29T16:59:16.512Z</time></trkpt><trkpt lat="44.8414117" lon="1.0631117"><ele>61.0</ele><time>2026-03-29T16:59:18.513Z</time></trkpt><trkpt lat="44.84135" lon="1.0631833"><ele>60.99999999999999</ele><time>2026-03-29T16:59:19.512Z</time></trkpt><trkpt lat="44.8412867" lon="1.063265"><ele>61.0</ele><time>2026-03-29T16:59:20.513Z</time></trkpt><trkpt lat="44.8412133" lon="1.0633383"><ele>61.0</ele><time>2026-03-29T16:59:21.512Z</time></trkpt><trkpt lat="44.8411283" lon="1.063415"><ele>60.99999999999999</ele><time>2026-03-29T16:59:22.512Z</time></trkpt><trkpt lat="44.8410233" lon="1.0634833"><ele>60.99999999999999</ele><time>2026-03-29T16:59:23.512Z</time></trkpt><trkpt lat="44.84094" lon="1.0635767"><ele>61.0</ele><time>2026-03-29T16:59:24.512Z</time></trkpt><trkpt lat="44.840865" lon="1.0636783"><ele>61.0</ele><time>2026-03-29T16:59:25.513Z</time></trkpt><trkpt lat="44.8407833" lon="1.063775"><ele>61.0</ele><time>2026-03-29T16:59:26.512Z</time></trkpt><trkpt lat="44.8406967" lon="1.06389"><ele>61.0</ele><time>2026-03-29T16:59:27.512Z</time></trkpt><trkpt lat="44.8406083" lon="1.063995"><ele>61.0</ele><time>2026-03-29T16:59:28.513Z</time></trkpt><trkpt lat="44.84052" lon="1.06411"><ele>61.0</ele><time>2026-03-29T16:59:29.512Z</time></trkpt><trkpt lat="44.84043" lon="1.064215"><ele>61.0</ele><time>2026-03-29T16:59:30.512Z</time></trkpt><trkpt lat="44.84033" lon="1.0643367"><ele>61.0</ele><time>2026-03-29T16:59:31.513Z</time></trkpt><trkpt lat="44.84024" lon="1.0644717"><ele>61.0</ele><time>2026-03-29T16:59:32.512Z</time></trkpt><trkpt lat="44.8401633" lon="1.0645817"><ele>61.0</ele><time>2026-03-29T16:59:33.513Z</time></trkpt><trkpt lat="44.8400683" lon="1.0646833"><ele>61.0</ele><time>2026-03-29T16:59:34.513Z</time></trkpt><trkpt lat="44.839965" lon="1.0647667"><ele>61.0</ele><time>2026-03-29T16:59:35.513Z</time></trkpt><trkpt lat="44.839865" lon="1.064855"><ele>61.0</ele><time>2026-03-29T16:59:36.512Z</time></trkpt><trkpt lat="44.8397583" lon="1.0650017"><ele>61.0</ele><time>2026-03-29T16:59:37.512Z</time></trkpt><trkpt lat="44.8396433" lon="1.06513"><ele>61.0</ele><time>2026-03-29T16:59:38.513Z</time></trkpt><trkpt lat="44.839525" lon="1.06526"><ele>61.0</ele><time>2026-03-29T16:59:39.512Z</time></trkpt><trkpt lat="44.8394133" lon="1.065395"><ele>61.0</ele><time>2026-03-29T16:59:40.513Z</time></trkpt><trkpt lat="44.8392883" lon="1.0655267"><ele>61.666666666666664</ele><time>2026-03-29T16:59:41.513Z</time></trkpt><trkpt lat="44.839165" lon="1.0656517"><ele>62.33333333333333</ele><time>2026-03-29T16:59:42.512Z</time></trkpt><trkpt lat="44.8390433" lon="1.065785"><ele>63.0</ele><time>2026-03-29T16:59:43.512Z</time></trkpt><trkpt lat="44.83892" lon="1.0659267"><ele>63.0</ele><time>2026-03-29T16:59:44.512Z</time></trkpt><trkpt lat="44.83879" lon="1.0660967"><ele>63.0</ele><time>2026-03-29T16:59:45.513Z</time></trkpt><trkpt lat="44.8386867" lon="1.0662283"><ele>63.0</ele><time>2026-03-29T16:59:46.512Z</time></trkpt><trkpt lat="44.8385867" lon="1.0663283"><ele>63.0</ele><time>2026-03-29T16:59:47.512Z</time></trkpt><trkpt lat="44.83849" lon="1.066395"><ele>63.0</ele><time>2026-03-29T16:59:48.513Z</time></trkpt><trkpt lat="44.838405" lon="1.0664517"><ele>63.0</ele><time>2026-03-29T16:59:49.513Z</time></trkpt><trkpt lat="44.8383333" lon="1.0665133"><ele>63.0</ele><time>2026-03-29T16:59:50.512Z</time></trkpt><trkpt lat="44.838275" lon="1.0665667"><ele>63.0</ele><time>2026-03-29T16:59:51.513Z</time></trkpt><trkpt lat="44.838185" lon="1.0666917"><ele>63.0</ele><time>2026-03-29T16:59:53.513Z</time></trkpt><trkpt lat="44.8381517" lon="1.0667817"><ele>63.0</ele><time>2026-03-29T16:59:54.512Z</time></trkpt><trkpt lat="44.8381217" lon="1.0668817"><ele>62.666666666666664</ele><time>2026-03-29T16:59:55.513Z</time></trkpt><trkpt lat="44.8380983" lon="1.0669783"><ele>62.33333333333333</ele><time>2026-03-29T16:59:56.512Z</time></trkpt><trkpt lat="44.8380783" lon="1.0671"><ele>62.0</ele><time>2026-03-29T16:59:57.512Z</time></trkpt><trkpt lat="44.83807" lon="1.0672167"><ele>61.666666666666664</ele><time>2026-03-29T16:59:58.512Z</time></trkpt><trkpt lat="44.8380717" lon="1.06735"><ele>61.33333333333333</ele><time>2026-03-29T16:59:59.512Z</time></trkpt><trkpt lat="44.83806" lon="1.0674917"><ele>61.0</ele><time>2026-03-29T17:00:00.513Z</time></trkpt><trkpt lat="44.8380467" lon="1.0676317"><ele>60.99999999999999</ele><time>2026-03-29T17:00:01.512Z</time></trkpt><trkpt lat="44.838045" lon="1.06776"><ele>61.0</ele><time>2026-03-29T17:00:02.513Z</time></trkpt><trkpt lat="44.8380483" lon="1.0678733"><ele>61.0</ele><time>2026-03-29T17:00:03.512Z</time></trkpt><trkpt lat="44.8380483" lon="1.0679833"><ele>61.0</ele><time>2026-03-29T17:00:04.513Z</time></trkpt><trkpt lat="44.8380583" lon="1.06808"><ele>60.99999999999999</ele><time>2026-03-29T17:00:05.513Z</time></trkpt><trkpt lat="44.8380883" lon="1.0682467"><ele>61.0</ele><time>2026-03-29T17:00:07.512Z</time></trkpt><trkpt lat="44.8381333" lon="1.0683217"><ele>61.0</ele><time>2026-03-29T17:00:09.513Z</time></trkpt><trkpt lat="44.838215" lon="1.06844"><ele>60.99999999999999</ele><time>2026-03-29T17:08:59.509Z</time></trkpt><trkpt lat="44.83816" lon="1.0685133"><ele>60.99999999999999</ele><time>2026-03-29T17:09:21.51Z</time></trkpt><trkpt lat="44.8380783" lon="1.0686267"><ele>61.0</ele><time>2026-03-29T17:09:24.509Z</time></trkpt><trkpt lat="44.837995" lon="1.06875"><ele>61.0</ele><time>2026-03-29T17:09:26.51Z</time></trkpt><trkpt lat="44.837905" lon="1.0688467"><ele>60.99999999999999</ele><time>2026-03-29T17:09:28.51Z</time></trkpt><trkpt lat="44.837845" lon="1.0688817"><ele>61.0</ele><time>2026-03-29T17:09:29.509Z</time></trkpt><trkpt lat="44.83777" lon="1.068895"><ele>61.0</ele><time>2026-03-29T17:09:30.51Z</time></trkpt><trkpt lat="44.8377" lon="1.0689167"><ele>61.0</ele><time>2026-03-29T17:09:31.51Z</time></trkpt><trkpt lat="44.8376317" lon="1.068965"><ele>60.99999999999999</ele><time>2026-03-29T17:09:32.51Z</time></trkpt><trkpt lat="44.8376217" lon="1.0690867"><ele>61.0</ele><time>2026-03-29T17:09:33.51Z</time></trkpt><trkpt lat="44.8376417" lon="1.069235"><ele>61.0</ele><time>2026-03-29T17:09:34.509Z</time></trkpt><trkpt lat="44.83767" lon="1.0694117"><ele>61.0</ele><time>2026-03-29T17:09:35.51Z</time></trkpt><trkpt lat="44.8377033" lon="1.0696"><ele>61.0</ele><time>2026-03-29T17:09:36.51Z</time></trkpt><trkpt lat="44.8377567" lon="1.0697833"><ele>61.0</ele><time>2026-03-29T17:09:37.51Z</time></trkpt><trkpt lat="44.8378267" lon="1.069965"><ele>61.0</ele><time>2026-03-29T17:09:38.509Z</time></trkpt><trkpt lat="44.8379383" lon="1.070175"><ele>61.0</ele><time>2026-03-29T17:09:39.509Z</time></trkpt><trkpt lat="44.83806" lon="1.07036"><ele>61.0</ele><time>2026-03-29T17:09:40.51Z</time></trkpt><trkpt lat="44.8381983" lon="1.070525"><ele>61.0</ele><time>2026-03-29T17:09:41.509Z</time></trkpt><trkpt lat="44.8383483" lon="1.0706733"><ele>61.0</ele><time>2026-03-29T17:09:42.509Z</time></trkpt><trkpt lat="44.83849" lon="1.0708467"><ele>61.0</ele><time>2026-03-29T17:09:43.509Z</time></trkpt><trkpt lat="44.8386517" lon="1.0710317"><ele>60.0</ele><time>2026-03-29T17:09:44.509Z</time></trkpt><trkpt lat="44.8388033" lon="1.0712283"><ele>59.0</ele><time>2026-03-29T17:09:45.509Z</time></trkpt><trkpt lat="44.8389517" lon="1.0713833"><ele>58.0</ele><time>2026-03-29T17:09:46.51Z</time></trkpt><trkpt lat="44.8391217" lon="1.0715283"><ele>58.0</ele><time>2026-03-29T17:09:47.509Z</time></trkpt><trkpt lat="44.8393" lon="1.0716567"><ele>58.0</ele><time>2026-03-29T17:09:48.51Z</time></trkpt><trkpt lat="44.83946" lon="1.0717733"><ele>58.0</ele><time>2026-03-29T17:09:49.51Z</time></trkpt><trkpt lat="44.83961" lon="1.0718867"><ele>58.5</ele><time>2026-03-29T17:09:50.51Z</time></trkpt><trkpt lat="44.83975" lon="1.0719767"><ele>59.0</ele><time>2026-03-29T17:09:51.509Z</time></trkpt><trkpt lat="44.8398767" lon="1.0720533"><ele>59.5</ele><time>2026-03-29T17:09:52.509Z</time></trkpt><trkpt lat="44.8399767" lon="1.0721433"><ele>60.0</ele><time>2026-03-29T17:09:53.509Z</time></trkpt><trkpt lat="44.840095" lon="1.072275"><ele>60.0</ele><time>2026-03-29T17:09:54.51Z</time></trkpt><trkpt lat="44.840195" lon="1.0724017"><ele>60.0</ele><time>2026-03-29T17:09:55.51Z</time></trkpt><trkpt lat="44.840305" lon="1.07253"><ele>60.0</ele><time>2026-03-29T17:09:56.51Z</time></trkpt><trkpt lat="44.840425" lon="1.07266"><ele>60.0</ele><time>2026-03-29T17:09:57.509Z</time></trkpt><trkpt lat="44.840535" lon="1.0727483"><ele>60.25</ele><time>2026-03-29T17:09:58.509Z</time></trkpt><trkpt lat="44.8406567" lon="1.07284"><ele>60.5</ele><time>2026-03-29T17:09:59.509Z</time></trkpt><trkpt lat="44.8407583" lon="1.0729583"><ele>60.75</ele><time>2026-03-29T17:10:00.51Z</time></trkpt><trkpt lat="44.8408617" lon="1.073105"><ele>61.0</ele><time>2026-03-29T17:10:01.509Z</time></trkpt><trkpt lat="44.8409683" lon="1.073255"><ele>60.666666666666664</ele><time>2026-03-29T17:10:02.509Z</time></trkpt><trkpt lat="44.8410817" lon="1.0734083"><ele>60.33333333333333</ele><time>2026-03-29T17:10:03.51Z</time></trkpt><trkpt lat="44.8412233" lon="1.0735317"><ele>60.0</ele><time>2026-03-29T17:10:04.51Z</time></trkpt><trkpt lat="44.8413583" lon="1.0736633"><ele>60.0</ele><time>2026-03-29T17:10:05.51Z</time></trkpt><trkpt lat="44.8414833" lon="1.0737933"><ele>60.0</ele><time>2026-03-29T17:10:06.509Z</time></trkpt><trkpt lat="44.8416133" lon="1.073905"><ele>60.0</ele><time>2026-03-29T17:10:07.509Z</time></trkpt><trkpt lat="44.8417417" lon="1.0740067"><ele>60.25</ele><time>2026-03-29T17:10:08.51Z</time></trkpt><trkpt lat="44.841885" lon="1.0741067"><ele>60.5</ele><time>2026-03-29T17:10:09.51Z</time></trkpt><trkpt lat="44.8420033" lon="1.0741817"><ele>60.75</ele><time>2026-03-29T17:10:10.51Z</time></trkpt><trkpt lat="44.8421133" lon="1.0742283"><ele>61.0</ele><time>2026-03-29T17:10:11.51Z</time></trkpt><trkpt lat="44.8422167" lon="1.0742617"><ele>61.0</ele><time>2026-03-29T17:10:12.51Z</time></trkpt><trkpt lat="44.8423" lon="1.0742767"><ele>60.99999999999999</ele><time>2026-03-29T17:10:13.51Z</time></trkpt><trkpt lat="44.8424017" lon="1.0743883"><ele>60.99999999999999</ele><time>2026-03-29T17:10:15.51Z</time></trkpt><trkpt lat="44.8424683" lon="1.0744933"><ele>61.0</ele><time>2026-03-29T17:10:16.51Z</time></trkpt><trkpt lat="44.842555" lon="1.0745983"><ele>61.0</ele><time>2026-03-29T17:10:17.51Z</time></trkpt><trkpt lat="44.8426517" lon="1.0746833"><ele>61.199999999999996</ele><time>2026-03-29T17:10:18.51Z</time></trkpt><trkpt lat="44.8427567" lon="1.0747483"><ele>61.39999999999999</ele><time>2026-03-29T17:10:19.51Z</time></trkpt><trkpt lat="44.8428483" lon="1.0747933"><ele>61.6</ele><time>2026-03-29T17:10:20.51Z</time></trkpt><trkpt lat="44.8429283" lon="1.07486"><ele>61.8</ele><time>2026-03-29T17:10:21.51Z</time></trkpt><trkpt lat="44.843" lon="1.0749483"><ele>62.0</ele><time>2026-03-29T17:10:22.51Z</time></trkpt><trkpt lat="44.8430417" lon="1.075035"><ele>62.400000000000006</ele><time>2026-03-29T17:10:23.51Z</time></trkpt><trkpt lat="44.8430567" lon="1.0751683"><ele>62.800000000000004</ele><time>2026-03-29T17:10:26.509Z</time></trkpt><trkpt lat="44.8430883" lon="1.0753233"><ele>63.2</ele><time>2026-03-29T17:10:28.51Z</time></trkpt><trkpt lat="44.843135" lon="1.0754117"><ele>63.6</ele><time>2026-03-29T17:10:29.51Z</time></trkpt><trkpt lat="44.8431983" lon="1.07549"><ele>64.0</ele><time>2026-03-29T17:10:30.51Z</time></trkpt><trkpt lat="44.8432883" lon="1.0756"><ele>64.0</ele><time>2026-03-29T17:10:32.509Z</time></trkpt><trkpt lat="44.8433467" lon="1.0757283"><ele>64.0</ele><time>2026-03-29T17:10:34.51Z</time></trkpt><trkpt lat="44.843405" lon="1.0758617"><ele>64.0</ele><time>2026-03-29T17:10:36.509Z</time></trkpt><trkpt lat="44.8434533" lon="1.075975"><ele>64.0</ele><time>2026-03-29T17:10:38.51Z</time></trkpt><trkpt lat="44.8435167" lon="1.0761067"><ele>64.0</ele><time>2026-03-29T17:10:40.51Z</time></trkpt><trkpt lat="44.84357" lon="1.0762017"><ele>63.33333333333333</ele><time>2026-03-29T17:10:41.509Z</time></trkpt><trkpt lat="44.8436217" lon="1.0762717"><ele>62.666666666666664</ele><time>2026-03-29T17:10:42.51Z</time></trkpt><trkpt lat="44.84369" lon="1.0763867"><ele>62.0</ele><time>2026-03-29T17:10:44.51Z</time></trkpt><trkpt lat="44.843735" lon="1.076455"><ele>61.33333333333333</ele><time>2026-03-29T17:10:45.51Z</time></trkpt><trkpt lat="44.843785" lon="1.07653"><ele>60.666666666666664</ele><time>2026-03-29T17:10:46.509Z</time></trkpt><trkpt lat="44.8438567" lon="1.0766383"><ele>60.0</ele><time>2026-03-29T17:10:47.509Z</time></trkpt><trkpt lat="44.8439567" lon="1.0767733"><ele>60.0</ele><time>2026-03-29T17:10:48.509Z</time></trkpt><trkpt lat="44.844045" lon="1.076915"><ele>60.0</ele><time>2026-03-29T17:10:49.51Z</time></trkpt><trkpt lat="44.8441333" lon="1.0770767"><ele>60.0</ele><time>2026-03-29T17:10:50.509Z</time></trkpt><trkpt lat="44.8442217" lon="1.0772383"><ele>60.0</ele><time>2026-03-29T17:10:51.51Z</time></trkpt><trkpt lat="44.8443133" lon="1.0774017"><ele>60.66666666666667</ele><time>2026-03-29T17:10:52.51Z</time></trkpt><trkpt lat="44.844405" lon="1.0775733"><ele>61.333333333333336</ele><time>2026-03-29T17:10:53.51Z</time></trkpt><trkpt lat="44.8445" lon="1.0777517"><ele>62.0</ele><time>2026-03-29T17:10:54.51Z</time></trkpt><trkpt lat="44.844595" lon="1.077935"><ele>62.0</ele><time>2026-03-29T17:10:55.51Z</time></trkpt><trkpt lat="44.84469" lon="1.0781217"><ele>62.0</ele><time>2026-03-29T17:10:56.509Z</time></trkpt><trkpt lat="44.8447917" lon="1.0783183"><ele>62.0</ele><time>2026-03-29T17:10:57.509Z</time></trkpt><trkpt lat="44.8449" lon="1.0785233"><ele>62.0</ele><time>2026-03-29T17:10:58.509Z</time></trkpt><trkpt lat="44.8450217" lon="1.0787283"><ele>62.0</ele><time>2026-03-29T17:10:59.509Z</time></trkpt><trkpt lat="44.8451367" lon="1.0789333"><ele>62.0</ele><time>2026-03-29T17:11:00.509Z</time></trkpt><trkpt lat="44.84525" lon="1.07915"><ele>61.66666666666667</ele><time>2026-03-29T17:11:01.509Z</time></trkpt><trkpt lat="44.84536" lon="1.0793567"><ele>61.33333333333333</ele><time>2026-03-29T17:11:02.51Z</time></trkpt><trkpt lat="44.8454667" lon="1.0795583"><ele>61.0</ele><time>2026-03-29T17:11:03.51Z</time></trkpt><trkpt lat="44.8455833" lon="1.0797517"><ele>61.0</ele><time>2026-03-29T17:11:04.509Z</time></trkpt><trkpt lat="44.845685" lon="1.07993"><ele>61.0</ele><time>2026-03-29T17:11:05.509Z</time></trkpt><trkpt lat="44.8457633" lon="1.08009"><ele>61.0</ele><time>2026-03-29T17:11:06.51Z</time></trkpt><trkpt lat="44.8458433" lon="1.0802367"><ele>61.0</ele><time>2026-03-29T17:11:07.509Z</time></trkpt><trkpt lat="44.84592" lon="1.0803733"><ele>61.199999999999996</ele><time>2026-03-29T17:11:08.51Z</time></trkpt><trkpt lat="44.8459817" lon="1.0805"><ele>61.39999999999999</ele><time>2026-03-29T17:11:09.509Z</time></trkpt><trkpt lat="44.8460433" lon="1.08061"><ele>61.6</ele><time>2026-03-29T17:11:10.509Z</time></trkpt><trkpt lat="44.8461" lon="1.080715"><ele>61.8</ele><time>2026-03-29T17:11:11.509Z</time></trkpt><trkpt lat="44.8461567" lon="1.0808033"><ele>62.0</ele><time>2026-03-29T17:11:12.509Z</time></trkpt><trkpt lat="44.8461933" lon="1.0808983"><ele>62.2</ele><time>2026-03-29T17:11:13.51Z</time></trkpt><trkpt lat="44.8461533" lon="1.08098"><ele>62.400000000000006</ele><time>2026-03-29T17:11:14.51Z</time></trkpt><trkpt lat="44.8461033" lon="1.0810683"><ele>62.599999999999994</ele><time>2026-03-29T17:11:15.509Z</time></trkpt><trkpt lat="44.846025" lon="1.0811517"><ele>62.8</ele><time>2026-03-29T17:11:16.509Z</time></trkpt><trkpt lat="44.8459333" lon="1.0812383"><ele>63.0</ele><time>2026-03-29T17:11:17.509Z</time></trkpt><trkpt lat="44.8458183" lon="1.0813317"><ele>63.0</ele><time>2026-03-29T17:11:18.51Z</time></trkpt><trkpt lat="44.8457033" lon="1.0814367"><ele>63.0</ele><time>2026-03-29T17:11:19.51Z</time></trkpt><trkpt lat="44.8455983" lon="1.0815317"><ele>63.0</ele><time>2026-03-29T17:11:20.51Z</time></trkpt><trkpt lat="44.8454967" lon="1.08163"><ele>63.0</ele><time>2026-03-29T17:11:21.51Z</time></trkpt><trkpt lat="44.8453983" lon="1.0816983"><ele>63.0</ele><time>2026-03-29T17:11:22.51Z</time></trkpt><trkpt lat="44.8452983" lon="1.0817583"><ele>63.0</ele><time>2026-03-29T17:11:23.509Z</time></trkpt><trkpt lat="44.8452067" lon="1.0818033"><ele>63.0</ele><time>2026-03-29T17:11:24.51Z</time></trkpt><trkpt lat="44.8451067" lon="1.08182"><ele>63.0</ele><time>2026-03-29T17:11:25.51Z</time></trkpt><trkpt lat="44.84503" lon="1.0818333"><ele>63.0</ele><time>2026-03-29T17:11:26.509Z</time></trkpt><trkpt lat="44.8449683" lon="1.0818717"><ele>63.0</ele><time>2026-03-29T17:11:27.509Z</time></trkpt><trkpt lat="44.8449117" lon="1.0819283"><ele>63.0</ele><time>2026-03-29T17:11:28.51Z</time></trkpt><trkpt lat="44.84487" lon="1.0819983"><ele>63.0</ele><time>2026-03-29T17:11:29.51Z</time></trkpt><trkpt lat="44.844805" lon="1.0821283"><ele>63.0</ele><time>2026-03-29T17:11:31.51Z</time></trkpt><trkpt lat="44.8447617" lon="1.0822117"><ele>63.0</ele><time>2026-03-29T17:11:32.509Z</time></trkpt><trkpt lat="44.8447033" lon="1.082305"><ele>63.0</ele><time>2026-03-29T17:11:33.509Z</time></trkpt><trkpt lat="44.8446233" lon="1.08241"><ele>62.75</ele><time>2026-03-29T17:11:34.51Z</time></trkpt><trkpt lat="44.8445167" lon="1.0825317"><ele>62.5</ele><time>2026-03-29T17:11:35.51Z</time></trkpt><trkpt lat="44.8444083" lon="1.0826667"><ele>62.25</ele><time>2026-03-29T17:11:36.509Z</time></trkpt><trkpt lat="44.8442933" lon="1.0828067"><ele>62.0</ele><time>2026-03-29T17:11:37.509Z</time></trkpt><trkpt lat="44.84419" lon="1.08293"><ele>61.75</ele><time>2026-03-29T17:11:38.51Z</time></trkpt><trkpt lat="44.8440833" lon="1.0830333"><ele>61.5</ele><time>2026-03-29T17:11:39.509Z</time></trkpt><trkpt lat="44.8439683" lon="1.08313"><ele>61.25</ele><time>2026-03-29T17:11:40.509Z</time></trkpt><trkpt lat="44.84383" lon="1.0832117"><ele>61.0</ele><time>2026-03-29T17:11:41.509Z</time></trkpt><trkpt lat="44.843675" lon="1.0832683"><ele>61.0</ele><time>2026-03-29T17:11:42.509Z</time></trkpt><trkpt lat="44.8434983" lon="1.0832983"><ele>61.0</ele><time>2026-03-29T17:11:43.51Z</time></trkpt><trkpt lat="44.8433233" lon="1.0833267"><ele>61.0</ele><time>2026-03-29T17:11:44.509Z</time></trkpt><trkpt lat="44.8431517" lon="1.0833417"><ele>61.25</ele><time>2026-03-29T17:11:45.509Z</time></trkpt><trkpt lat="44.8430083" lon="1.0833583"><ele>61.5</ele><time>2026-03-29T17:11:46.509Z</time></trkpt><trkpt lat="44.8428833" lon="1.0834117"><ele>61.75</ele><time>2026-03-29T17:11:47.509Z</time></trkpt><trkpt lat="44.8427533" lon="1.0835017"><ele>62.0</ele><time>2026-03-29T17:11:48.51Z</time></trkpt><trkpt lat="44.8426317" lon="1.0836367"><ele>62.0</ele><time>2026-03-29T17:11:49.51Z</time></trkpt><trkpt lat="44.8425067" lon="1.0837983"><ele>62.0</ele><time>2026-03-29T17:11:50.51Z</time></trkpt><trkpt lat="44.842385" lon="1.084005"><ele>62.0</ele><time>2026-03-29T17:11:51.51Z</time></trkpt><trkpt lat="44.8422767" lon="1.0842267"><ele>62.0</ele><time>2026-03-29T17:11:52.509Z</time></trkpt><trkpt lat="44.84216" lon="1.0844533"><ele>62.0</ele><time>2026-03-29T17:11:53.509Z</time></trkpt><trkpt lat="44.84205" lon="1.0846783"><ele>62.0</ele><time>2026-03-29T17:11:54.51Z</time></trkpt><trkpt lat="44.841935" lon="1.0849"><ele>62.0</ele><time>2026-03-29T17:11:55.509Z</time></trkpt><trkpt lat="44.8417917" lon="1.0851083"><ele>62.0</ele><time>2026-03-29T17:11:56.509Z</time></trkpt><trkpt lat="44.8416583" lon="1.0852983"><ele>62.0</ele><time>2026-03-29T17:11:57.51Z</time></trkpt><trkpt lat="44.8415183" lon="1.0854917"><ele>62.0</ele><time>2026-03-29T17:11:58.509Z</time></trkpt><trkpt lat="44.8413617" lon="1.0856883"><ele>62.0</ele><time>2026-03-29T17:11:59.51Z</time></trkpt><trkpt lat="44.84122" lon="1.0858717"><ele>62.0</ele><time>2026-03-29T17:12:00.51Z</time></trkpt><trkpt lat="44.841065" lon="1.0860633"><ele>61.66666666666667</ele><time>2026-03-29T17:12:01.51Z</time></trkpt><trkpt lat="44.840915" lon="1.086265"><ele>61.33333333333333</ele><time>2026-03-29T17:12:02.509Z</time></trkpt><trkpt lat="44.84076" lon="1.08645"><ele>61.0</ele><time>2026-03-29T17:12:03.51Z</time></trkpt><trkpt lat="44.840595" lon="1.08663"><ele>61.0</ele><time>2026-03-29T17:12:04.51Z</time></trkpt><trkpt lat="44.840435" lon="1.0868017"><ele>61.0</ele><time>2026-03-29T17:12:05.509Z</time></trkpt><trkpt lat="44.8402833" lon="1.08697"><ele>61.0</ele><time>2026-03-29T17:12:06.51Z</time></trkpt><trkpt lat="44.840115" lon="1.08713"><ele>61.0</ele><time>2026-03-29T17:12:07.509Z</time></trkpt><trkpt lat="44.83994" lon="1.0872667"><ele>61.0</ele><time>2026-03-29T17:12:08.509Z</time></trkpt><trkpt lat="44.8397867" lon="1.0873967"><ele>61.0</ele><time>2026-03-29T17:12:09.51Z</time></trkpt><trkpt lat="44.8396483" lon="1.0875117"><ele>61.0</ele><time>2026-03-29T17:12:10.51Z</time></trkpt><trkpt lat="44.8395267" lon="1.0876433"><ele>61.0</ele><time>2026-03-29T17:12:11.51Z</time></trkpt><trkpt lat="44.8394183" lon="1.08776"><ele>61.0</ele><time>2026-03-29T17:12:12.51Z</time></trkpt><trkpt lat="44.8393117" lon="1.0878883"><ele>61.0</ele><time>2026-03-29T17:12:13.509Z</time></trkpt><trkpt lat="44.83924" lon="1.088015"><ele>60.99999999999999</ele><time>2026-03-29T17:12:14.509Z</time></trkpt><trkpt lat="44.8391833" lon="1.0881083"><ele>61.0</ele><time>2026-03-29T17:12:15.51Z</time></trkpt><trkpt lat="44.83914" lon="1.0881917"><ele>61.0</ele><time>2026-03-29T17:12:16.51Z</time></trkpt><trkpt lat="44.839105" lon="1.0882667"><ele>61.0</ele><time>2026-03-29T17:12:17.51Z</time></trkpt><trkpt lat="44.839025" lon="1.088325"><ele>60.99999999999999</ele><time>2026-03-29T17:12:19.51Z</time></trkpt><trkpt lat="44.838945" lon="1.0883633"><ele>61.0</ele><time>2026-03-29T17:12:21.509Z</time></trkpt><trkpt lat="44.8388617" lon="1.0884583"><ele>61.4</ele><time>2026-03-29T17:12:23.508Z</time></trkpt><trkpt lat="44.838815" lon="1.08854"><ele>61.8</ele><time>2026-03-29T17:12:24.508Z</time></trkpt><trkpt lat="44.8387683" lon="1.088655"><ele>62.199999999999996</ele><time>2026-03-29T17:12:25.508Z</time></trkpt><trkpt lat="44.83871" lon="1.0887883"><ele>62.599999999999994</ele><time>2026-03-29T17:12:26.508Z</time></trkpt><trkpt lat="44.8386517" lon="1.0889267"><ele>63.0</ele><time>2026-03-29T17:12:27.508Z</time></trkpt><trkpt lat="44.8385917" lon="1.0890417"><ele>63.5</ele><time>2026-03-29T17:12:28.508Z</time></trkpt><trkpt lat="44.83851" lon="1.0891417"><ele>64.0</ele><time>2026-03-29T17:12:29.509Z</time></trkpt><trkpt lat="44.8384167" lon="1.0892417"><ele>64.5</ele><time>2026-03-29T17:12:30.508Z</time></trkpt><trkpt lat="44.8383083" lon="1.0893367"><ele>65.0</ele><time>2026-03-29T17:12:31.508Z</time></trkpt><trkpt lat="44.8382017" lon="1.0894483"><ele>65.0</ele><time>2026-03-29T17:12:32.509Z</time></trkpt><trkpt lat="44.83811" lon="1.08954"><ele>65.0</ele><time>2026-03-29T17:12:33.509Z</time></trkpt><trkpt lat="44.8380333" lon="1.0896217"><ele>65.0</ele><time>2026-03-29T17:12:34.509Z</time></trkpt><trkpt lat="44.837955" lon="1.0896717"><ele>65.0</ele><time>2026-03-29T17:12:35.508Z</time></trkpt><trkpt lat="44.8378733" lon="1.089715"><ele>65.0</ele><time>2026-03-29T17:12:36.508Z</time></trkpt><trkpt lat="44.8377883" lon="1.089745"><ele>65.0</ele><time>2026-03-29T17:12:37.509Z</time></trkpt><trkpt lat="44.83768" lon="1.089775"><ele>65.0</ele><time>2026-03-29T17:12:38.509Z</time></trkpt><trkpt lat="44.8375733" lon="1.0897933"><ele>65.0</ele><time>2026-03-29T17:12:39.508Z</time></trkpt><trkpt lat="44.8374667" lon="1.0898"><ele>65.0</ele><time>2026-03-29T17:12:40.508Z</time></trkpt><trkpt lat="44.83736" lon="1.08981"><ele>65.0</ele><time>2026-03-29T17:12:41.509Z</time></trkpt><trkpt lat="44.83725" lon="1.0898267"><ele>64.8</ele><time>2026-03-29T17:12:42.508Z</time></trkpt><trkpt lat="44.8371417" lon="1.0898533"><ele>64.6</ele><time>2026-03-29T17:12:43.508Z</time></trkpt><trkpt lat="44.8370367" lon="1.0898667"><ele>64.4</ele><time>2026-03-29T17:12:44.508Z</time></trkpt><trkpt lat="44.83694" lon="1.0898783"><ele>64.2</ele><time>2026-03-29T17:12:45.508Z</time></trkpt><trkpt lat="44.8368333" lon="1.0898767"><ele>64.0</ele><time>2026-03-29T17:12:46.508Z</time></trkpt><trkpt lat="44.836725" lon="1.0898683"><ele>64.0</ele><time>2026-03-29T17:12:47.508Z</time></trkpt><trkpt lat="44.8366233" lon="1.0898567"><ele>64.0</ele><time>2026-03-29T17:12:48.508Z</time></trkpt><trkpt lat="44.836515" lon="1.0898583"><ele>64.0</ele><time>2026-03-29T17:12:49.509Z</time></trkpt><trkpt lat="44.8364067" lon="1.089875"><ele>64.0</ele><time>2026-03-29T17:12:50.508Z</time></trkpt><trkpt lat="44.8362983" lon="1.0899"><ele>64.0</ele><time>2026-03-29T17:12:51.508Z</time></trkpt><trkpt lat="44.8362" lon="1.0899567"><ele>64.0</ele><time>2026-03-29T17:12:52.508Z</time></trkpt><trkpt lat="44.836095" lon="1.0900217"><ele>64.0</ele><time>2026-03-29T17:12:53.509Z</time></trkpt><trkpt lat="44.83599" lon="1.09008"><ele>64.0</ele><time>2026-03-29T17:12:54.508Z</time></trkpt><trkpt lat="44.8358933" lon="1.09016"><ele>64.0</ele><time>2026-03-29T17:12:55.508Z</time></trkpt><trkpt lat="44.8357983" lon="1.0902267"><ele>64.0</ele><time>2026-03-29T17:12:56.509Z</time></trkpt><trkpt lat="44.83571" lon="1.0903017"><ele>63.99999999999999</ele><time>2026-03-29T17:12:57.509Z</time></trkpt><trkpt lat="44.835625" lon="1.0903667"><ele>64.0</ele><time>2026-03-29T17:12:58.509Z</time></trkpt><trkpt lat="44.83555" lon="1.09042"><ele>64.0</ele><time>2026-03-29T17:12:59.509Z</time></trkpt><trkpt lat="44.835475" lon="1.0904817"><ele>64.0</ele><time>2026-03-29T17:13:00.509Z</time></trkpt><trkpt lat="44.835405" lon="1.09054"><ele>63.99999999999999</ele><time>2026-03-29T17:13:01.509Z</time></trkpt><trkpt lat="44.8353417" lon="1.0905983"><ele>64.0</ele><time>2026-03-29T17:13:02.508Z</time></trkpt><trkpt lat="44.83528" lon="1.0906433"><ele>63.99999999999999</ele><time>2026-03-29T17:13:03.509Z</time></trkpt><trkpt lat="44.8352167" lon="1.0906883"><ele>64.0</ele><time>2026-03-29T17:13:04.509Z</time></trkpt><trkpt lat="44.8351483" lon="1.0907183"><ele>64.0</ele><time>2026-03-29T17:13:05.509Z</time></trkpt><trkpt lat="44.8350867" lon="1.09076"><ele>64.0</ele><time>2026-03-29T17:13:06.509Z</time></trkpt><trkpt lat="44.8350017" lon="1.0908617"><ele>63.99999999999999</ele><time>2026-03-29T17:13:08.508Z</time></trkpt><trkpt lat="44.8349083" lon="1.0909367"><ele>64.0</ele><time>2026-03-29T17:13:10.509Z</time></trkpt><trkpt lat="44.8348517" lon="1.0909833"><ele>63.99999999999999</ele><time>2026-03-29T17:13:11.509Z</time></trkpt><trkpt lat="44.8347517" lon="1.0910917"><ele>64.0</ele><time>2026-03-29T17:13:13.508Z</time></trkpt><trkpt lat="44.8346867" lon="1.091145"><ele>64.0</ele><time>2026-03-29T17:13:14.509Z</time></trkpt><trkpt lat="44.8346283" lon="1.0911983"><ele>64.0</ele><time>2026-03-29T17:13:15.509Z</time></trkpt><trkpt lat="44.834575" lon="1.0912467"><ele>63.99999999999999</ele><time>2026-03-29T17:13:16.509Z</time></trkpt><trkpt lat="44.83448" lon="1.0913267"><ele>64.0</ele><time>2026-03-29T17:13:18.508Z</time></trkpt><trkpt lat="44.8343717" lon="1.0914183"><ele>64.0</ele><time>2026-03-29T17:13:20.509Z</time></trkpt><trkpt lat="44.8343083" lon="1.0914733"><ele>64.0</ele><time>2026-03-29T17:13:21.508Z</time></trkpt><trkpt lat="44.8342317" lon="1.0915383"><ele>64.0</ele><time>2026-03-29T17:13:22.508Z</time></trkpt><trkpt lat="44.8341467" lon="1.0916117"><ele>64.0</ele><time>2026-03-29T17:13:23.509Z</time></trkpt><trkpt lat="44.8340317" lon="1.0917317"><ele>64.0</ele><time>2026-03-29T17:13:24.509Z</time></trkpt><trkpt lat="44.8339233" lon="1.0918417"><ele>64.0</ele><time>2026-03-29T17:13:25.509Z</time></trkpt><trkpt lat="44.833825" lon="1.09195"><ele>64.0</ele><time>2026-03-29T17:13:26.508Z</time></trkpt><trkpt lat="44.8337233" lon="1.0920583"><ele>64.0</ele><time>2026-03-29T17:13:27.508Z</time></trkpt><trkpt lat="44.833625" lon="1.0921683"><ele>64.0</ele><time>2026-03-29T17:13:28.509Z</time></trkpt><trkpt lat="44.8335317" lon="1.0922717"><ele>63.83333333333333</ele><time>2026-03-29T17:13:29.509Z</time></trkpt><trkpt lat="44.8334583" lon="1.0923617"><ele>63.666666666666664</ele><time>2026-03-29T17:13:30.509Z</time></trkpt><trkpt lat="44.8333917" lon="1.0924517"><ele>63.5</ele><time>2026-03-29T17:13:31.509Z</time></trkpt><trkpt lat="44.8333383" lon="1.092515"><ele>63.33333333333333</ele><time>2026-03-29T17:13:32.509Z</time></trkpt><trkpt lat="44.8332883" lon="1.092585"><ele>63.166666666666664</ele><time>2026-03-29T17:13:34.509Z</time></trkpt><trkpt lat="44.833355" lon="1.0926233"><ele>63.0</ele><time>2026-03-29T17:13:38.508Z</time></trkpt><trkpt lat="44.8334917" lon="1.0926033"><ele>63.166666666666664</ele><time>2026-03-29T17:13:40.508Z</time></trkpt><trkpt lat="44.8335817" lon="1.0925683"><ele>63.33333333333333</ele><time>2026-03-29T17:13:41.508Z</time></trkpt><trkpt lat="44.83367" lon="1.092525"><ele>63.5</ele><time>2026-03-29T17:13:42.509Z</time></trkpt><trkpt lat="44.8337483" lon="1.0924733"><ele>63.666666666666664</ele><time>2026-03-29T17:13:43.508Z</time></trkpt><trkpt lat="44.8338217" lon="1.0924067"><ele>63.83333333333333</ele><time>2026-03-29T17:13:44.508Z</time></trkpt><trkpt lat="44.8338867" lon="1.0923383"><ele>64.0</ele><time>2026-03-29T17:13:45.508Z</time></trkpt><trkpt lat="44.8339533" lon="1.0922583"><ele>63.99999999999999</ele><time>2026-03-29T17:13:46.509Z</time></trkpt><trkpt lat="44.83403" lon="1.0921817"><ele>64.0</ele><time>2026-03-29T17:13:47.509Z</time></trkpt><trkpt lat="44.8340917" lon="1.0921017"><ele>64.0</ele><time>2026-03-29T17:13:48.508Z</time></trkpt><trkpt lat="44.8341683" lon="1.0920467"><ele>64.0</ele><time>2026-03-29T17:13:49.509Z</time></trkpt><trkpt lat="44.834235" lon="1.0920067"><ele>63.99999999999999</ele><time>2026-03-29T17:13:50.508Z</time></trkpt><trkpt lat="44.8343017" lon="1.0919917"><ele>64.0</ele><time>2026-03-29T17:13:51.508Z</time></trkpt><trkpt lat="44.8343767" lon="1.091985"><ele>65.0</ele><time>2026-03-29T17:13:56.509Z</time></trkpt><trkpt lat="44.8344483" lon="1.0919617"><ele>65.0</ele><time>2026-03-29T17:14:00.509Z</time></trkpt><trkpt lat="44.8345583" lon="1.0919783"><ele>65.0</ele><time>2026-03-29T17:14:43.509Z</time></trkpt><trkpt lat="44.8345583" lon="1.0920967"><ele>65.0</ele><time>2026-03-29T17:16:17.507Z</time></trkpt><trkpt lat="44.834585" lon="1.0921933"><ele>65.0</ele><time>2026-03-29T17:16:25.508Z</time></trkpt></trkseg></trk></gpx>